<?xml version="1.0" encoding="UTF-8" standalone="no" ?>
<gpx xmlns="http://www.topografix.com/GPX/1/1" xmlns:xsi="http://www.w3.org/2001/XMLSchema-instance" xsi:schemaLocation="http://www.topografix.com/GPX/1/1 http://www.topografix.com/GPX/1/1/gpx.xsd" version="1.1" creator="VisuGPX - https://www.visugpx.com">
  <metadata>
    <name>Marathon du Montcalm 2011</name>
    <desc><![CDATA[Marathon du Montcalm 2011]]></desc>
  </metadata>
  <trk>
    <name><![CDATA[Trail]]></name>
    <cmt><![CDATA[Marathon du Montcalm 197ème/231  340 inscrits]]></cmt>
    <trkseg>
      <trkpt lat="42.76707" lon="1.47929">
        <ele>749.00439453125</ele>
        <time>2011-08-20T05:01:48Z</time>
      </trkpt>
      <trkpt lat="42.76706" lon="1.47926">
        <ele>748.04321289062</ele>
        <time>2011-08-20T05:01:52Z</time>
      </trkpt>
      <trkpt lat="42.76706" lon="1.47901">
        <ele>747.56225585938</ele>
        <time>2011-08-20T05:01:58Z</time>
      </trkpt>
      <trkpt lat="42.76706" lon="1.47884">
        <ele>746.60107421875</ele>
        <time>2011-08-20T05:02:02Z</time>
      </trkpt>
      <trkpt lat="42.76702" lon="1.47866">
        <ele>745.15893554688</ele>
        <time>2011-08-20T05:02:06Z</time>
      </trkpt>
      <trkpt lat="42.76691" lon="1.4785">
        <ele>744.19775390625</ele>
        <time>2011-08-20T05:02:11Z</time>
      </trkpt>
      <trkpt lat="42.76684" lon="1.47844">
        <ele>744.67822265625</ele>
        <time>2011-08-20T05:02:14Z</time>
      </trkpt>
      <trkpt lat="42.76669" lon="1.4785">
        <ele>744.19775390625</ele>
        <time>2011-08-20T05:02:19Z</time>
      </trkpt>
      <trkpt lat="42.76657" lon="1.47865">
        <ele>744.67822265625</ele>
        <time>2011-08-20T05:02:24Z</time>
      </trkpt>
      <trkpt lat="42.76646" lon="1.47877">
        <ele>742.755859375</ele>
        <time>2011-08-20T05:02:29Z</time>
      </trkpt>
      <trkpt lat="42.76641" lon="1.47893">
        <ele>743.71704101562</ele>
        <time>2011-08-20T05:02:33Z</time>
      </trkpt>
      <trkpt lat="42.76642" lon="1.47909">
        <ele>744.67822265625</ele>
        <time>2011-08-20T05:02:37Z</time>
      </trkpt>
      <trkpt lat="42.76643" lon="1.47913">
        <ele>746.12036132812</ele>
        <time>2011-08-20T05:02:38Z</time>
      </trkpt>
      <trkpt lat="42.76652" lon="1.47937">
        <ele>753.81103515625</ele>
        <time>2011-08-20T05:02:44Z</time>
      </trkpt>
      <trkpt lat="42.76653" lon="1.47958">
        <ele>754.29174804688</ele>
        <time>2011-08-20T05:02:49Z</time>
      </trkpt>
      <trkpt lat="42.76648" lon="1.47977">
        <ele>751.40771484375</ele>
        <time>2011-08-20T05:02:53Z</time>
      </trkpt>
      <trkpt lat="42.76639" lon="1.47997">
        <ele>745.15893554688</ele>
        <time>2011-08-20T05:02:58Z</time>
      </trkpt>
      <trkpt lat="42.76637" lon="1.48009">
        <ele>744.67822265625</ele>
        <time>2011-08-20T05:03:01Z</time>
      </trkpt>
      <trkpt lat="42.76627" lon="1.48013">
        <ele>744.19775390625</ele>
        <time>2011-08-20T05:03:05Z</time>
      </trkpt>
      <trkpt lat="42.76617" lon="1.48011">
        <ele>745.6396484375</ele>
        <time>2011-08-20T05:03:09Z</time>
      </trkpt>
      <trkpt lat="42.76601" lon="1.48013">
        <ele>746.60107421875</ele>
        <time>2011-08-20T05:03:14Z</time>
      </trkpt>
      <trkpt lat="42.76583" lon="1.48016">
        <ele>748.52368164062</ele>
        <time>2011-08-20T05:03:19Z</time>
      </trkpt>
      <trkpt lat="42.76569" lon="1.48014">
        <ele>748.52368164062</ele>
        <time>2011-08-20T05:03:24Z</time>
      </trkpt>
      <trkpt lat="42.76557" lon="1.48016">
        <ele>751.88842773438</ele>
        <time>2011-08-20T05:03:28Z</time>
      </trkpt>
      <trkpt lat="42.76545" lon="1.48017">
        <ele>751.40771484375</ele>
        <time>2011-08-20T05:03:32Z</time>
      </trkpt>
      <trkpt lat="42.76542" lon="1.48018">
        <ele>751.40771484375</ele>
        <time>2011-08-20T05:03:33Z</time>
      </trkpt>
      <trkpt lat="42.76524" lon="1.48022">
        <ele>750.92700195312</ele>
        <time>2011-08-20T05:03:40Z</time>
      </trkpt>
      <trkpt lat="42.76508" lon="1.48024">
        <ele>748.52368164062</ele>
        <time>2011-08-20T05:03:46Z</time>
      </trkpt>
      <trkpt lat="42.76494" lon="1.48023">
        <ele>747.56225585938</ele>
        <time>2011-08-20T05:03:51Z</time>
      </trkpt>
      <trkpt lat="42.76484" lon="1.48024">
        <ele>746.12036132812</ele>
        <time>2011-08-20T05:03:55Z</time>
      </trkpt>
      <trkpt lat="42.76472" lon="1.48022">
        <ele>745.15893554688</ele>
        <time>2011-08-20T05:03:59Z</time>
      </trkpt>
      <trkpt lat="42.76456" lon="1.48015">
        <ele>745.6396484375</ele>
        <time>2011-08-20T05:04:05Z</time>
      </trkpt>
      <trkpt lat="42.76444" lon="1.48007">
        <ele>745.15893554688</ele>
        <time>2011-08-20T05:04:10Z</time>
      </trkpt>
      <trkpt lat="42.76434" lon="1.48001">
        <ele>745.15893554688</ele>
        <time>2011-08-20T05:04:14Z</time>
      </trkpt>
      <trkpt lat="42.76417" lon="1.47996">
        <ele>748.04321289062</ele>
        <time>2011-08-20T05:04:20Z</time>
      </trkpt>
      <trkpt lat="42.76403" lon="1.47993">
        <ele>749.00439453125</ele>
        <time>2011-08-20T05:04:25Z</time>
      </trkpt>
      <trkpt lat="42.76393" lon="1.47983">
        <ele>748.52368164062</ele>
        <time>2011-08-20T05:04:30Z</time>
      </trkpt>
      <trkpt lat="42.76382" lon="1.47959">
        <ele>748.52368164062</ele>
        <time>2011-08-20T05:04:38Z</time>
      </trkpt>
      <trkpt lat="42.76377" lon="1.47939">
        <ele>748.52368164062</ele>
        <time>2011-08-20T05:04:44Z</time>
      </trkpt>
      <trkpt lat="42.76374" lon="1.47925">
        <ele>748.04321289062</ele>
        <time>2011-08-20T05:04:48Z</time>
      </trkpt>
      <trkpt lat="42.76372" lon="1.47907">
        <ele>749.00439453125</ele>
        <time>2011-08-20T05:04:53Z</time>
      </trkpt>
      <trkpt lat="42.7637" lon="1.47891">
        <ele>749.48510742188</ele>
        <time>2011-08-20T05:04:57Z</time>
      </trkpt>
      <trkpt lat="42.76369" lon="1.47868">
        <ele>749.48510742188</ele>
        <time>2011-08-20T05:05:03Z</time>
      </trkpt>
      <trkpt lat="42.76366" lon="1.47852">
        <ele>749.48510742188</ele>
        <time>2011-08-20T05:05:07Z</time>
      </trkpt>
      <trkpt lat="42.76366" lon="1.47836">
        <ele>749.9658203125</ele>
        <time>2011-08-20T05:05:11Z</time>
      </trkpt>
      <trkpt lat="42.76366" lon="1.47817">
        <ele>749.00439453125</ele>
        <time>2011-08-20T05:05:16Z</time>
      </trkpt>
      <trkpt lat="42.76366" lon="1.47802">
        <ele>748.52368164062</ele>
        <time>2011-08-20T05:05:20Z</time>
      </trkpt>
      <trkpt lat="42.7636" lon="1.47775">
        <ele>747.56225585938</ele>
        <time>2011-08-20T05:05:26Z</time>
      </trkpt>
      <trkpt lat="42.76357" lon="1.47759">
        <ele>746.60107421875</ele>
        <time>2011-08-20T05:05:31Z</time>
      </trkpt>
      <trkpt lat="42.76353" lon="1.47745">
        <ele>745.15893554688</ele>
        <time>2011-08-20T05:05:36Z</time>
      </trkpt>
      <trkpt lat="42.76347" lon="1.47736">
        <ele>744.67822265625</ele>
        <time>2011-08-20T05:05:40Z</time>
      </trkpt>
      <trkpt lat="42.76338" lon="1.47733">
        <ele>745.6396484375</ele>
        <time>2011-08-20T05:05:44Z</time>
      </trkpt>
      <trkpt lat="42.76327" lon="1.47731">
        <ele>746.60107421875</ele>
        <time>2011-08-20T05:05:48Z</time>
      </trkpt>
      <trkpt lat="42.76314" lon="1.47734">
        <ele>749.00439453125</ele>
        <time>2011-08-20T05:05:53Z</time>
      </trkpt>
      <trkpt lat="42.76295" lon="1.47736">
        <ele>751.40771484375</ele>
        <time>2011-08-20T05:06:00Z</time>
      </trkpt>
      <trkpt lat="42.76287" lon="1.47736">
        <ele>752.849609375</ele>
        <time>2011-08-20T05:06:03Z</time>
      </trkpt>
      <trkpt lat="42.76272" lon="1.47738">
        <ele>752.36889648438</ele>
        <time>2011-08-20T05:06:09Z</time>
      </trkpt>
      <trkpt lat="42.76256" lon="1.47741">
        <ele>750.92700195312</ele>
        <time>2011-08-20T05:06:15Z</time>
      </trkpt>
      <trkpt lat="42.76242" lon="1.47743">
        <ele>748.52368164062</ele>
        <time>2011-08-20T05:06:20Z</time>
      </trkpt>
      <trkpt lat="42.76231" lon="1.47744">
        <ele>747.56225585938</ele>
        <time>2011-08-20T05:06:24Z</time>
      </trkpt>
      <trkpt lat="42.76228" lon="1.47745">
        <ele>748.04321289062</ele>
        <time>2011-08-20T05:06:25Z</time>
      </trkpt>
      <trkpt lat="42.76212" lon="1.47749">
        <ele>748.04321289062</ele>
        <time>2011-08-20T05:06:31Z</time>
      </trkpt>
      <trkpt lat="42.76201" lon="1.4775">
        <ele>747.08154296875</ele>
        <time>2011-08-20T05:06:35Z</time>
      </trkpt>
      <trkpt lat="42.7619" lon="1.47752">
        <ele>746.60107421875</ele>
        <time>2011-08-20T05:06:39Z</time>
      </trkpt>
      <trkpt lat="42.76176" lon="1.47756">
        <ele>746.60107421875</ele>
        <time>2011-08-20T05:06:44Z</time>
      </trkpt>
      <trkpt lat="42.76163" lon="1.4776">
        <ele>747.56225585938</ele>
        <time>2011-08-20T05:06:49Z</time>
      </trkpt>
      <trkpt lat="42.76152" lon="1.47763">
        <ele>748.04321289062</ele>
        <time>2011-08-20T05:06:53Z</time>
      </trkpt>
      <trkpt lat="42.76142" lon="1.47766">
        <ele>749.48510742188</ele>
        <time>2011-08-20T05:06:57Z</time>
      </trkpt>
      <trkpt lat="42.76128" lon="1.4777">
        <ele>750.44653320312</ele>
        <time>2011-08-20T05:07:02Z</time>
      </trkpt>
      <trkpt lat="42.76117" lon="1.47769">
        <ele>750.44653320312</ele>
        <time>2011-08-20T05:07:06Z</time>
      </trkpt>
      <trkpt lat="42.76101" lon="1.47759">
        <ele>752.849609375</ele>
        <time>2011-08-20T05:07:12Z</time>
      </trkpt>
      <trkpt lat="42.76099" lon="1.47758">
        <ele>753.81103515625</ele>
        <time>2011-08-20T05:07:13Z</time>
      </trkpt>
      <trkpt lat="42.76088" lon="1.47747">
        <ele>757.17553710938</ele>
        <time>2011-08-20T05:07:18Z</time>
      </trkpt>
      <trkpt lat="42.76074" lon="1.47735">
        <ele>761.50146484375</ele>
        <time>2011-08-20T05:07:24Z</time>
      </trkpt>
      <trkpt lat="42.76062" lon="1.47728">
        <ele>763.42407226562</ele>
        <time>2011-08-20T05:07:28Z</time>
      </trkpt>
      <trkpt lat="42.76046" lon="1.47724">
        <ele>766.30810546875</ele>
        <time>2011-08-20T05:07:34Z</time>
      </trkpt>
      <trkpt lat="42.76033" lon="1.47724">
        <ele>767.26953125</ele>
        <time>2011-08-20T05:07:39Z</time>
      </trkpt>
      <trkpt lat="42.76025" lon="1.47724">
        <ele>767.75</ele>
        <time>2011-08-20T05:07:42Z</time>
      </trkpt>
      <trkpt lat="42.76006" lon="1.47724">
        <ele>766.78881835938</ele>
        <time>2011-08-20T05:07:49Z</time>
      </trkpt>
      <trkpt lat="42.75991" lon="1.47723">
        <ele>765.82763671875</ele>
        <time>2011-08-20T05:07:55Z</time>
      </trkpt>
      <trkpt lat="42.75983" lon="1.47724">
        <ele>765.34692382812</ele>
        <time>2011-08-20T05:07:58Z</time>
      </trkpt>
      <trkpt lat="42.75967" lon="1.47719">
        <ele>767.75</ele>
        <time>2011-08-20T05:08:04Z</time>
      </trkpt>
      <trkpt lat="42.75949" lon="1.47717">
        <ele>766.78881835938</ele>
        <time>2011-08-20T05:08:11Z</time>
      </trkpt>
      <trkpt lat="42.75937" lon="1.47716">
        <ele>766.78881835938</ele>
        <time>2011-08-20T05:08:16Z</time>
      </trkpt>
      <trkpt lat="42.75918" lon="1.47715">
        <ele>766.30810546875</ele>
        <time>2011-08-20T05:08:23Z</time>
      </trkpt>
      <trkpt lat="42.75916" lon="1.47714">
        <ele>767.26953125</ele>
        <time>2011-08-20T05:08:24Z</time>
      </trkpt>
      <trkpt lat="42.75902" lon="1.47712">
        <ele>768.23071289062</ele>
        <time>2011-08-20T05:08:29Z</time>
      </trkpt>
      <trkpt lat="42.75899" lon="1.47711">
        <ele>768.23071289062</ele>
        <time>2011-08-20T05:08:30Z</time>
      </trkpt>
      <trkpt lat="42.75888" lon="1.4771">
        <ele>767.75</ele>
        <time>2011-08-20T05:08:34Z</time>
      </trkpt>
      <trkpt lat="42.75872" lon="1.47704">
        <ele>767.75</ele>
        <time>2011-08-20T05:08:40Z</time>
      </trkpt>
      <trkpt lat="42.75862" lon="1.47696">
        <ele>767.26953125</ele>
        <time>2011-08-20T05:08:44Z</time>
      </trkpt>
      <trkpt lat="42.75847" lon="1.47687">
        <ele>767.75</ele>
        <time>2011-08-20T05:08:50Z</time>
      </trkpt>
      <trkpt lat="42.75838" lon="1.47679">
        <ele>769.6728515625</ele>
        <time>2011-08-20T05:08:54Z</time>
      </trkpt>
      <trkpt lat="42.75823" lon="1.47672">
        <ele>772.556640625</ele>
        <time>2011-08-20T05:09:00Z</time>
      </trkpt>
      <trkpt lat="42.75808" lon="1.47666">
        <ele>775.4404296875</ele>
        <time>2011-08-20T05:09:06Z</time>
      </trkpt>
      <trkpt lat="42.75795" lon="1.47663">
        <ele>777.36328125</ele>
        <time>2011-08-20T05:09:11Z</time>
      </trkpt>
      <trkpt lat="42.75782" lon="1.4766">
        <ele>779.28564453125</ele>
        <time>2011-08-20T05:09:16Z</time>
      </trkpt>
      <trkpt lat="42.75767" lon="1.47658">
        <ele>781.68920898438</ele>
        <time>2011-08-20T05:09:22Z</time>
      </trkpt>
      <trkpt lat="42.75752" lon="1.47656">
        <ele>779.76635742188</ele>
        <time>2011-08-20T05:09:28Z</time>
      </trkpt>
      <trkpt lat="42.75743" lon="1.47653">
        <ele>778.80517578125</ele>
        <time>2011-08-20T05:09:32Z</time>
      </trkpt>
      <trkpt lat="42.75729" lon="1.4765">
        <ele>776.88256835938</ele>
        <time>2011-08-20T05:09:38Z</time>
      </trkpt>
      <trkpt lat="42.75727" lon="1.47649">
        <ele>776.88256835938</ele>
        <time>2011-08-20T05:09:39Z</time>
      </trkpt>
      <trkpt lat="42.75716" lon="1.47646">
        <ele>773.51806640625</ele>
        <time>2011-08-20T05:09:44Z</time>
      </trkpt>
      <trkpt lat="42.75707" lon="1.47641">
        <ele>771.11474609375</ele>
        <time>2011-08-20T05:09:48Z</time>
      </trkpt>
      <trkpt lat="42.75698" lon="1.47638">
        <ele>770.1533203125</ele>
        <time>2011-08-20T05:09:52Z</time>
      </trkpt>
      <trkpt lat="42.75685" lon="1.47639">
        <ele>770.1533203125</ele>
        <time>2011-08-20T05:09:57Z</time>
      </trkpt>
      <trkpt lat="42.75674" lon="1.47636">
        <ele>770.63403320312</ele>
        <time>2011-08-20T05:10:01Z</time>
      </trkpt>
      <trkpt lat="42.75665" lon="1.47635">
        <ele>770.63403320312</ele>
        <time>2011-08-20T05:10:05Z</time>
      </trkpt>
      <trkpt lat="42.75655" lon="1.47635">
        <ele>771.11474609375</ele>
        <time>2011-08-20T05:10:09Z</time>
      </trkpt>
      <trkpt lat="42.75642" lon="1.47636">
        <ele>773.03735351562</ele>
        <time>2011-08-20T05:10:14Z</time>
      </trkpt>
      <trkpt lat="42.75624" lon="1.47636">
        <ele>773.51806640625</ele>
        <time>2011-08-20T05:10:21Z</time>
      </trkpt>
      <trkpt lat="42.75609" lon="1.47641">
        <ele>774.47924804688</ele>
        <time>2011-08-20T05:10:27Z</time>
      </trkpt>
      <trkpt lat="42.75599" lon="1.4764">
        <ele>773.99853515625</ele>
        <time>2011-08-20T05:10:31Z</time>
      </trkpt>
      <trkpt lat="42.75581" lon="1.47643">
        <ele>778.80517578125</ele>
        <time>2011-08-20T05:10:38Z</time>
      </trkpt>
      <trkpt lat="42.75563" lon="1.47639">
        <ele>780.72802734375</ele>
        <time>2011-08-20T05:10:45Z</time>
      </trkpt>
      <trkpt lat="42.75554" lon="1.47637">
        <ele>781.68920898438</ele>
        <time>2011-08-20T05:10:49Z</time>
      </trkpt>
      <trkpt lat="42.75538" lon="1.47629">
        <ele>781.68920898438</ele>
        <time>2011-08-20T05:10:56Z</time>
      </trkpt>
      <trkpt lat="42.75525" lon="1.47621">
        <ele>782.65063476562</ele>
        <time>2011-08-20T05:11:02Z</time>
      </trkpt>
      <trkpt lat="42.75514" lon="1.47615">
        <ele>783.61181640625</ele>
        <time>2011-08-20T05:11:07Z</time>
      </trkpt>
      <trkpt lat="42.75502" lon="1.47608">
        <ele>785.05395507812</ele>
        <time>2011-08-20T05:11:12Z</time>
      </trkpt>
      <trkpt lat="42.75489" lon="1.47599">
        <ele>785.53442382812</ele>
        <time>2011-08-20T05:11:18Z</time>
      </trkpt>
      <trkpt lat="42.75479" lon="1.47591">
        <ele>785.53442382812</ele>
        <time>2011-08-20T05:11:23Z</time>
      </trkpt>
      <trkpt lat="42.75463" lon="1.47578">
        <ele>785.53442382812</ele>
        <time>2011-08-20T05:11:30Z</time>
      </trkpt>
      <trkpt lat="42.75452" lon="1.47568">
        <ele>786.97631835938</ele>
        <time>2011-08-20T05:11:35Z</time>
      </trkpt>
      <trkpt lat="42.75437" lon="1.47553">
        <ele>788.41845703125</ele>
        <time>2011-08-20T05:11:42Z</time>
      </trkpt>
      <trkpt lat="42.75426" lon="1.47545">
        <ele>788.41845703125</ele>
        <time>2011-08-20T05:11:47Z</time>
      </trkpt>
      <trkpt lat="42.75418" lon="1.47538">
        <ele>788.89916992188</ele>
        <time>2011-08-20T05:11:51Z</time>
      </trkpt>
      <trkpt lat="42.75407" lon="1.4753">
        <ele>788.89916992188</ele>
        <time>2011-08-20T05:11:56Z</time>
      </trkpt>
      <trkpt lat="42.75391" lon="1.47517">
        <ele>789.37963867188</ele>
        <time>2011-08-20T05:12:03Z</time>
      </trkpt>
      <trkpt lat="42.75381" lon="1.47512">
        <ele>789.8603515625</ele>
        <time>2011-08-20T05:12:08Z</time>
      </trkpt>
      <trkpt lat="42.75378" lon="1.47512">
        <ele>789.37963867188</ele>
        <time>2011-08-20T05:12:11Z</time>
      </trkpt>
      <trkpt lat="42.75364" lon="1.47498">
        <ele>789.8603515625</ele>
        <time>2011-08-20T05:12:18Z</time>
      </trkpt>
      <trkpt lat="42.75352" lon="1.47486">
        <ele>789.8603515625</ele>
        <time>2011-08-20T05:12:24Z</time>
      </trkpt>
      <trkpt lat="42.75335" lon="1.47471">
        <ele>789.8603515625</ele>
        <time>2011-08-20T05:12:31Z</time>
      </trkpt>
      <trkpt lat="42.75322" lon="1.47463">
        <ele>789.8603515625</ele>
        <time>2011-08-20T05:12:36Z</time>
      </trkpt>
      <trkpt lat="42.75306" lon="1.47458">
        <ele>791.30224609375</ele>
        <time>2011-08-20T05:12:42Z</time>
      </trkpt>
      <trkpt lat="42.75287" lon="1.47453">
        <ele>791.30224609375</ele>
        <time>2011-08-20T05:12:49Z</time>
      </trkpt>
      <trkpt lat="42.75284" lon="1.47452">
        <ele>791.30224609375</ele>
        <time>2011-08-20T05:12:50Z</time>
      </trkpt>
      <trkpt lat="42.75273" lon="1.47448">
        <ele>791.78295898438</ele>
        <time>2011-08-20T05:12:54Z</time>
      </trkpt>
      <trkpt lat="42.75256" lon="1.47448">
        <ele>793.70556640625</ele>
        <time>2011-08-20T05:13:00Z</time>
      </trkpt>
      <trkpt lat="42.7524" lon="1.47452">
        <ele>795.1474609375</ele>
        <time>2011-08-20T05:13:06Z</time>
      </trkpt>
      <trkpt lat="42.75224" lon="1.47459">
        <ele>795.62817382812</ele>
        <time>2011-08-20T05:13:12Z</time>
      </trkpt>
      <trkpt lat="42.75206" lon="1.47463">
        <ele>797.55102539062</ele>
        <time>2011-08-20T05:13:18Z</time>
      </trkpt>
      <trkpt lat="42.7519" lon="1.4746">
        <ele>799.4736328125</ele>
        <time>2011-08-20T05:13:24Z</time>
      </trkpt>
      <trkpt lat="42.7518" lon="1.47459">
        <ele>800.91552734375</ele>
        <time>2011-08-20T05:13:28Z</time>
      </trkpt>
      <trkpt lat="42.75169" lon="1.47454">
        <ele>801.876953125</ele>
        <time>2011-08-20T05:13:33Z</time>
      </trkpt>
      <trkpt lat="42.75153" lon="1.47447">
        <ele>801.39624023438</ele>
        <time>2011-08-20T05:13:40Z</time>
      </trkpt>
      <trkpt lat="42.75141" lon="1.47448">
        <ele>801.39624023438</ele>
        <time>2011-08-20T05:13:45Z</time>
      </trkpt>
      <trkpt lat="42.75131" lon="1.47449">
        <ele>801.39624023438</ele>
        <time>2011-08-20T05:13:49Z</time>
      </trkpt>
      <trkpt lat="42.75113" lon="1.4745">
        <ele>803.31884765625</ele>
        <time>2011-08-20T05:13:56Z</time>
      </trkpt>
      <trkpt lat="42.751" lon="1.47448">
        <ele>802.83813476562</ele>
        <time>2011-08-20T05:14:01Z</time>
      </trkpt>
      <trkpt lat="42.75088" lon="1.47442">
        <ele>801.39624023438</ele>
        <time>2011-08-20T05:14:06Z</time>
      </trkpt>
      <trkpt lat="42.75078" lon="1.47438">
        <ele>800.43505859375</ele>
        <time>2011-08-20T05:14:10Z</time>
      </trkpt>
      <trkpt lat="42.75064" lon="1.47433">
        <ele>798.99291992188</ele>
        <time>2011-08-20T05:14:15Z</time>
      </trkpt>
      <trkpt lat="42.75046" lon="1.47429">
        <ele>799.95434570312</ele>
        <time>2011-08-20T05:14:21Z</time>
      </trkpt>
      <trkpt lat="42.75029" lon="1.47425">
        <ele>802.357421875</ele>
        <time>2011-08-20T05:14:28Z</time>
      </trkpt>
      <trkpt lat="42.75015" lon="1.47417">
        <ele>801.39624023438</ele>
        <time>2011-08-20T05:14:34Z</time>
      </trkpt>
      <trkpt lat="42.75003" lon="1.47411">
        <ele>800.43505859375</ele>
        <time>2011-08-20T05:14:39Z</time>
      </trkpt>
      <trkpt lat="42.74991" lon="1.47404">
        <ele>800.91552734375</ele>
        <time>2011-08-20T05:14:44Z</time>
      </trkpt>
      <trkpt lat="42.74977" lon="1.47395">
        <ele>801.39624023438</ele>
        <time>2011-08-20T05:14:50Z</time>
      </trkpt>
      <trkpt lat="42.74967" lon="1.47388">
        <ele>802.357421875</ele>
        <time>2011-08-20T05:14:54Z</time>
      </trkpt>
      <trkpt lat="42.74955" lon="1.47381">
        <ele>803.31884765625</ele>
        <time>2011-08-20T05:14:59Z</time>
      </trkpt>
      <trkpt lat="42.74947" lon="1.47374">
        <ele>802.357421875</ele>
        <time>2011-08-20T05:15:03Z</time>
      </trkpt>
      <trkpt lat="42.74937" lon="1.47363">
        <ele>802.83813476562</ele>
        <time>2011-08-20T05:15:08Z</time>
      </trkpt>
      <trkpt lat="42.74928" lon="1.47354">
        <ele>803.79956054688</ele>
        <time>2011-08-20T05:15:12Z</time>
      </trkpt>
      <trkpt lat="42.74916" lon="1.47337">
        <ele>804.2802734375</ele>
        <time>2011-08-20T05:15:18Z</time>
      </trkpt>
      <trkpt lat="42.74909" lon="1.47325">
        <ele>802.357421875</ele>
        <time>2011-08-20T05:15:22Z</time>
      </trkpt>
      <trkpt lat="42.74902" lon="1.47308">
        <ele>800.43505859375</ele>
        <time>2011-08-20T05:15:27Z</time>
      </trkpt>
      <trkpt lat="42.74892" lon="1.47284">
        <ele>798.99291992188</ele>
        <time>2011-08-20T05:15:34Z</time>
      </trkpt>
      <trkpt lat="42.74886" lon="1.47262">
        <ele>798.03173828125</ele>
        <time>2011-08-20T05:15:40Z</time>
      </trkpt>
      <trkpt lat="42.74882" lon="1.47245">
        <ele>798.03173828125</ele>
        <time>2011-08-20T05:15:45Z</time>
      </trkpt>
      <trkpt lat="42.74877" lon="1.4723">
        <ele>798.03173828125</ele>
        <time>2011-08-20T05:15:49Z</time>
      </trkpt>
      <trkpt lat="42.74875" lon="1.47227">
        <ele>798.51220703125</ele>
        <time>2011-08-20T05:15:50Z</time>
      </trkpt>
      <trkpt lat="42.74873" lon="1.47221">
        <ele>799.4736328125</ele>
        <time>2011-08-20T05:15:52Z</time>
      </trkpt>
      <trkpt lat="42.74868" lon="1.47208">
        <ele>799.4736328125</ele>
        <time>2011-08-20T05:15:56Z</time>
      </trkpt>
      <trkpt lat="42.74861" lon="1.47194">
        <ele>799.4736328125</ele>
        <time>2011-08-20T05:16:00Z</time>
      </trkpt>
      <trkpt lat="42.74855" lon="1.47181">
        <ele>800.43505859375</ele>
        <time>2011-08-20T05:16:04Z</time>
      </trkpt>
      <trkpt lat="42.74853" lon="1.47172">
        <ele>800.91552734375</ele>
        <time>2011-08-20T05:16:07Z</time>
      </trkpt>
      <trkpt lat="42.74845" lon="1.47154">
        <ele>801.39624023438</ele>
        <time>2011-08-20T05:16:13Z</time>
      </trkpt>
      <trkpt lat="42.7484" lon="1.47143">
        <ele>802.357421875</ele>
        <time>2011-08-20T05:16:17Z</time>
      </trkpt>
      <trkpt lat="42.74831" lon="1.47127">
        <ele>801.876953125</ele>
        <time>2011-08-20T05:16:23Z</time>
      </trkpt>
      <trkpt lat="42.7482" lon="1.47114">
        <ele>801.39624023438</ele>
        <time>2011-08-20T05:16:29Z</time>
      </trkpt>
      <trkpt lat="42.74809" lon="1.47107">
        <ele>801.876953125</ele>
        <time>2011-08-20T05:16:34Z</time>
      </trkpt>
      <trkpt lat="42.74799" lon="1.47102">
        <ele>802.83813476562</ele>
        <time>2011-08-20T05:16:39Z</time>
      </trkpt>
      <trkpt lat="42.74789" lon="1.47096">
        <ele>803.79956054688</ele>
        <time>2011-08-20T05:16:43Z</time>
      </trkpt>
      <trkpt lat="42.74781" lon="1.47088">
        <ele>805.24145507812</ele>
        <time>2011-08-20T05:16:47Z</time>
      </trkpt>
      <trkpt lat="42.74771" lon="1.47073">
        <ele>806.68334960938</ele>
        <time>2011-08-20T05:16:53Z</time>
      </trkpt>
      <trkpt lat="42.74761" lon="1.47056">
        <ele>807.64477539062</ele>
        <time>2011-08-20T05:16:59Z</time>
      </trkpt>
      <trkpt lat="42.74752" lon="1.47043">
        <ele>808.60595703125</ele>
        <time>2011-08-20T05:17:04Z</time>
      </trkpt>
      <trkpt lat="42.74739" lon="1.47027">
        <ele>810.0478515625</ele>
        <time>2011-08-20T05:17:11Z</time>
      </trkpt>
      <trkpt lat="42.74725" lon="1.47012">
        <ele>812.93212890625</ele>
        <time>2011-08-20T05:17:18Z</time>
      </trkpt>
      <trkpt lat="42.74714" lon="1.47">
        <ele>815.33544921875</ele>
        <time>2011-08-20T05:17:24Z</time>
      </trkpt>
      <trkpt lat="42.74701" lon="1.46987">
        <ele>818.21923828125</ele>
        <time>2011-08-20T05:17:30Z</time>
      </trkpt>
      <trkpt lat="42.74691" lon="1.46976">
        <ele>818.69995117188</ele>
        <time>2011-08-20T05:17:35Z</time>
      </trkpt>
      <trkpt lat="42.74683" lon="1.46967">
        <ele>819.1806640625</ele>
        <time>2011-08-20T05:17:39Z</time>
      </trkpt>
      <trkpt lat="42.74669" lon="1.46951">
        <ele>820.14184570312</ele>
        <time>2011-08-20T05:17:46Z</time>
      </trkpt>
      <trkpt lat="42.74654" lon="1.46934">
        <ele>819.66137695312</ele>
        <time>2011-08-20T05:17:53Z</time>
      </trkpt>
      <trkpt lat="42.74644" lon="1.46921">
        <ele>820.62255859375</ele>
        <time>2011-08-20T05:17:58Z</time>
      </trkpt>
      <trkpt lat="42.74631" lon="1.46903">
        <ele>820.14184570312</ele>
        <time>2011-08-20T05:18:05Z</time>
      </trkpt>
      <trkpt lat="42.74622" lon="1.46892">
        <ele>822.54516601562</ele>
        <time>2011-08-20T05:18:10Z</time>
      </trkpt>
      <trkpt lat="42.74612" lon="1.4688">
        <ele>823.98706054688</ele>
        <time>2011-08-20T05:18:15Z</time>
      </trkpt>
      <trkpt lat="42.74601" lon="1.46863">
        <ele>825.42895507812</ele>
        <time>2011-08-20T05:18:22Z</time>
      </trkpt>
      <trkpt lat="42.7459" lon="1.46849">
        <ele>826.87109375</ele>
        <time>2011-08-20T05:18:28Z</time>
      </trkpt>
      <trkpt lat="42.7458" lon="1.46836">
        <ele>825.90966796875</ele>
        <time>2011-08-20T05:18:33Z</time>
      </trkpt>
      <trkpt lat="42.74569" lon="1.4682">
        <ele>826.39038085938</ele>
        <time>2011-08-20T05:18:39Z</time>
      </trkpt>
      <trkpt lat="42.74557" lon="1.46803">
        <ele>824.4677734375</ele>
        <time>2011-08-20T05:18:45Z</time>
      </trkpt>
      <trkpt lat="42.7455" lon="1.46793">
        <ele>823.50659179688</ele>
        <time>2011-08-20T05:18:49Z</time>
      </trkpt>
      <trkpt lat="42.74548" lon="1.4679">
        <ele>823.02587890625</ele>
        <time>2011-08-20T05:18:50Z</time>
      </trkpt>
      <trkpt lat="42.74535" lon="1.46773">
        <ele>821.58374023438</ele>
        <time>2011-08-20T05:18:57Z</time>
      </trkpt>
      <trkpt lat="42.74527" lon="1.46756">
        <ele>823.50659179688</ele>
        <time>2011-08-20T05:19:03Z</time>
      </trkpt>
      <trkpt lat="42.74519" lon="1.46739">
        <ele>822.54516601562</ele>
        <time>2011-08-20T05:19:09Z</time>
      </trkpt>
      <trkpt lat="42.74512" lon="1.46721">
        <ele>822.064453125</ele>
        <time>2011-08-20T05:19:15Z</time>
      </trkpt>
      <trkpt lat="42.74506" lon="1.46706">
        <ele>823.50659179688</ele>
        <time>2011-08-20T05:19:20Z</time>
      </trkpt>
      <trkpt lat="42.74502" lon="1.46694">
        <ele>823.98706054688</ele>
        <time>2011-08-20T05:19:24Z</time>
      </trkpt>
      <trkpt lat="42.74497" lon="1.46679">
        <ele>823.50659179688</ele>
        <time>2011-08-20T05:19:29Z</time>
      </trkpt>
      <trkpt lat="42.74493" lon="1.46665">
        <ele>824.94848632812</ele>
        <time>2011-08-20T05:19:33Z</time>
      </trkpt>
      <trkpt lat="42.74483" lon="1.46643">
        <ele>825.42895507812</ele>
        <time>2011-08-20T05:19:40Z</time>
      </trkpt>
      <trkpt lat="42.74476" lon="1.46629">
        <ele>825.90966796875</ele>
        <time>2011-08-20T05:19:45Z</time>
      </trkpt>
      <trkpt lat="42.74471" lon="1.46618">
        <ele>827.35180664062</ele>
        <time>2011-08-20T05:19:49Z</time>
      </trkpt>
      <trkpt lat="42.74463" lon="1.46604">
        <ele>829.75512695312</ele>
        <time>2011-08-20T05:19:55Z</time>
      </trkpt>
      <trkpt lat="42.74454" lon="1.46592">
        <ele>832.15844726562</ele>
        <time>2011-08-20T05:20:00Z</time>
      </trkpt>
      <trkpt lat="42.74445" lon="1.46575">
        <ele>830.71655273438</ele>
        <time>2011-08-20T05:20:06Z</time>
      </trkpt>
      <trkpt lat="42.74437" lon="1.46563">
        <ele>832.63916015625</ele>
        <time>2011-08-20T05:20:11Z</time>
      </trkpt>
      <trkpt lat="42.74429" lon="1.46541">
        <ele>834.56176757812</ele>
        <time>2011-08-20T05:20:18Z</time>
      </trkpt>
      <trkpt lat="42.74424" lon="1.46525">
        <ele>834.0810546875</ele>
        <time>2011-08-20T05:20:23Z</time>
      </trkpt>
      <trkpt lat="42.7442" lon="1.46512">
        <ele>833.60034179688</ele>
        <time>2011-08-20T05:20:27Z</time>
      </trkpt>
      <trkpt lat="42.74414" lon="1.46492">
        <ele>831.197265625</ele>
        <time>2011-08-20T05:20:33Z</time>
      </trkpt>
      <trkpt lat="42.74408" lon="1.46476">
        <ele>828.7939453125</ele>
        <time>2011-08-20T05:20:38Z</time>
      </trkpt>
      <trkpt lat="42.74407" lon="1.46472">
        <ele>828.31323242188</ele>
        <time>2011-08-20T05:20:39Z</time>
      </trkpt>
      <trkpt lat="42.74402" lon="1.46458">
        <ele>830.71655273438</ele>
        <time>2011-08-20T05:20:44Z</time>
      </trkpt>
      <trkpt lat="42.74395" lon="1.46441">
        <ele>831.197265625</ele>
        <time>2011-08-20T05:20:50Z</time>
      </trkpt>
      <trkpt lat="42.74388" lon="1.46429">
        <ele>833.11962890625</ele>
        <time>2011-08-20T05:20:55Z</time>
      </trkpt>
      <trkpt lat="42.7438" lon="1.46417">
        <ele>835.04248046875</ele>
        <time>2011-08-20T05:21:01Z</time>
      </trkpt>
      <trkpt lat="42.74371" lon="1.46401">
        <ele>838.40698242188</ele>
        <time>2011-08-20T05:21:08Z</time>
      </trkpt>
      <trkpt lat="42.74369" lon="1.46393">
        <ele>837.92626953125</ele>
        <time>2011-08-20T05:21:11Z</time>
      </trkpt>
      <trkpt lat="42.74362" lon="1.4638">
        <ele>840.81005859375</ele>
        <time>2011-08-20T05:21:17Z</time>
      </trkpt>
      <trkpt lat="42.74358" lon="1.46371">
        <ele>842.73291015625</ele>
        <time>2011-08-20T05:21:21Z</time>
      </trkpt>
      <trkpt lat="42.74356" lon="1.46366">
        <ele>843.21337890625</ele>
        <time>2011-08-20T05:21:23Z</time>
      </trkpt>
      <trkpt lat="42.7435" lon="1.4635">
        <ele>842.73291015625</ele>
        <time>2011-08-20T05:21:29Z</time>
      </trkpt>
      <trkpt lat="42.74344" lon="1.46339">
        <ele>842.73291015625</ele>
        <time>2011-08-20T05:21:33Z</time>
      </trkpt>
      <trkpt lat="42.74337" lon="1.46325">
        <ele>845.61694335938</ele>
        <time>2011-08-20T05:21:39Z</time>
      </trkpt>
      <trkpt lat="42.7433" lon="1.46315">
        <ele>846.09765625</ele>
        <time>2011-08-20T05:21:44Z</time>
      </trkpt>
      <trkpt lat="42.74325" lon="1.46307">
        <ele>847.05883789062</ele>
        <time>2011-08-20T05:21:48Z</time>
      </trkpt>
      <trkpt lat="42.74318" lon="1.46295">
        <ele>848.9814453125</ele>
        <time>2011-08-20T05:21:53Z</time>
      </trkpt>
      <trkpt lat="42.74311" lon="1.46284">
        <ele>848.50073242188</ele>
        <time>2011-08-20T05:21:58Z</time>
      </trkpt>
      <trkpt lat="42.74303" lon="1.4628">
        <ele>850.42358398438</ele>
        <time>2011-08-20T05:22:02Z</time>
      </trkpt>
      <trkpt lat="42.74291" lon="1.46272">
        <ele>847.53955078125</ele>
        <time>2011-08-20T05:22:08Z</time>
      </trkpt>
      <trkpt lat="42.74287" lon="1.46268">
        <ele>848.9814453125</ele>
        <time>2011-08-20T05:22:12Z</time>
      </trkpt>
      <trkpt lat="42.74282" lon="1.46261">
        <ele>847.53955078125</ele>
        <time>2011-08-20T05:22:17Z</time>
      </trkpt>
      <trkpt lat="42.74275" lon="1.46254">
        <ele>848.9814453125</ele>
        <time>2011-08-20T05:22:22Z</time>
      </trkpt>
      <trkpt lat="42.74273" lon="1.46241">
        <ele>845.61694335938</ele>
        <time>2011-08-20T05:22:26Z</time>
      </trkpt>
      <trkpt lat="42.74275" lon="1.4623">
        <ele>842.73291015625</ele>
        <time>2011-08-20T05:22:30Z</time>
      </trkpt>
      <trkpt lat="42.74284" lon="1.46224">
        <ele>842.73291015625</ele>
        <time>2011-08-20T05:22:34Z</time>
      </trkpt>
      <trkpt lat="42.74291" lon="1.46217">
        <ele>843.21337890625</ele>
        <time>2011-08-20T05:22:40Z</time>
      </trkpt>
      <trkpt lat="42.74289" lon="1.46215">
        <ele>843.21337890625</ele>
        <time>2011-08-20T05:22:43Z</time>
      </trkpt>
      <trkpt lat="42.74282" lon="1.46214">
        <ele>843.21337890625</ele>
        <time>2011-08-20T05:22:49Z</time>
      </trkpt>
      <trkpt lat="42.7428" lon="1.46214">
        <ele>845.13623046875</ele>
        <time>2011-08-20T05:22:51Z</time>
      </trkpt>
      <trkpt lat="42.74271" lon="1.46213">
        <ele>847.53955078125</ele>
        <time>2011-08-20T05:22:57Z</time>
      </trkpt>
      <trkpt lat="42.7427" lon="1.46213">
        <ele>848.50073242188</ele>
        <time>2011-08-20T05:22:58Z</time>
      </trkpt>
      <trkpt lat="42.74263" lon="1.4621">
        <ele>852.34594726562</ele>
        <time>2011-08-20T05:23:04Z</time>
      </trkpt>
      <trkpt lat="42.74254" lon="1.46206">
        <ele>856.19116210938</ele>
        <time>2011-08-20T05:23:13Z</time>
      </trkpt>
      <trkpt lat="42.74244" lon="1.46201">
        <ele>856.671875</ele>
        <time>2011-08-20T05:23:20Z</time>
      </trkpt>
      <trkpt lat="42.74236" lon="1.46199">
        <ele>861.47875976562</ele>
        <time>2011-08-20T05:23:26Z</time>
      </trkpt>
      <trkpt lat="42.74226" lon="1.46194">
        <ele>862.92065429688</ele>
        <time>2011-08-20T05:23:32Z</time>
      </trkpt>
      <trkpt lat="42.7422" lon="1.46188">
        <ele>862.92065429688</ele>
        <time>2011-08-20T05:23:37Z</time>
      </trkpt>
      <trkpt lat="42.74216" lon="1.46185">
        <ele>864.84326171875</ele>
        <time>2011-08-20T05:23:40Z</time>
      </trkpt>
      <trkpt lat="42.74213" lon="1.46181">
        <ele>865.32397460938</ele>
        <time>2011-08-20T05:23:43Z</time>
      </trkpt>
      <trkpt lat="42.74203" lon="1.46172">
        <ele>859.0751953125</ele>
        <time>2011-08-20T05:23:50Z</time>
      </trkpt>
      <trkpt lat="42.74197" lon="1.46169">
        <ele>859.55590820312</ele>
        <time>2011-08-20T05:23:55Z</time>
      </trkpt>
      <trkpt lat="42.74193" lon="1.46167">
        <ele>860.998046875</ele>
        <time>2011-08-20T05:23:58Z</time>
      </trkpt>
      <trkpt lat="42.74184" lon="1.46168">
        <ele>862.92065429688</ele>
        <time>2011-08-20T05:24:04Z</time>
      </trkpt>
      <trkpt lat="42.74175" lon="1.46166">
        <ele>866.28515625</ele>
        <time>2011-08-20T05:24:12Z</time>
      </trkpt>
      <trkpt lat="42.74173" lon="1.46166">
        <ele>866.76586914062</ele>
        <time>2011-08-20T05:24:14Z</time>
      </trkpt>
      <trkpt lat="42.74168" lon="1.46164">
        <ele>863.8818359375</ele>
        <time>2011-08-20T05:24:19Z</time>
      </trkpt>
      <trkpt lat="42.74162" lon="1.46164">
        <ele>866.28515625</ele>
        <time>2011-08-20T05:24:24Z</time>
      </trkpt>
      <trkpt lat="42.74155" lon="1.46159">
        <ele>867.72705078125</ele>
        <time>2011-08-20T05:24:30Z</time>
      </trkpt>
      <trkpt lat="42.74151" lon="1.46151">
        <ele>868.6884765625</ele>
        <time>2011-08-20T05:24:34Z</time>
      </trkpt>
      <trkpt lat="42.7415" lon="1.46139">
        <ele>868.20776367188</ele>
        <time>2011-08-20T05:24:38Z</time>
      </trkpt>
      <trkpt lat="42.74143" lon="1.46124">
        <ele>869.64990234375</ele>
        <time>2011-08-20T05:24:43Z</time>
      </trkpt>
      <trkpt lat="42.74137" lon="1.46118">
        <ele>872.53369140625</ele>
        <time>2011-08-20T05:24:47Z</time>
      </trkpt>
      <trkpt lat="42.74132" lon="1.4611">
        <ele>873.01440429688</ele>
        <time>2011-08-20T05:24:50Z</time>
      </trkpt>
      <trkpt lat="42.74118" lon="1.46102">
        <ele>879.26293945312</ele>
        <time>2011-08-20T05:24:56Z</time>
      </trkpt>
      <trkpt lat="42.7411" lon="1.46093">
        <ele>878.78247070312</ele>
        <time>2011-08-20T05:25:01Z</time>
      </trkpt>
      <trkpt lat="42.74106" lon="1.4609">
        <ele>879.74365234375</ele>
        <time>2011-08-20T05:25:03Z</time>
      </trkpt>
      <trkpt lat="42.74098" lon="1.46079">
        <ele>879.74365234375</ele>
        <time>2011-08-20T05:25:08Z</time>
      </trkpt>
      <trkpt lat="42.74089" lon="1.46072">
        <ele>880.22436523438</ele>
        <time>2011-08-20T05:25:13Z</time>
      </trkpt>
      <trkpt lat="42.74081" lon="1.46069">
        <ele>883.10815429688</ele>
        <time>2011-08-20T05:25:18Z</time>
      </trkpt>
      <trkpt lat="42.74078" lon="1.46068">
        <ele>883.10815429688</ele>
        <time>2011-08-20T05:25:20Z</time>
      </trkpt>
      <trkpt lat="42.7407" lon="1.46062">
        <ele>883.5888671875</ele>
        <time>2011-08-20T05:25:26Z</time>
      </trkpt>
      <trkpt lat="42.74068" lon="1.46059">
        <ele>883.10815429688</ele>
        <time>2011-08-20T05:25:29Z</time>
      </trkpt>
      <trkpt lat="42.74061" lon="1.46057">
        <ele>887.43408203125</ele>
        <time>2011-08-20T05:25:35Z</time>
      </trkpt>
      <trkpt lat="42.74055" lon="1.46053">
        <ele>890.79858398438</ele>
        <time>2011-08-20T05:25:40Z</time>
      </trkpt>
      <trkpt lat="42.74051" lon="1.46049">
        <ele>889.83740234375</ele>
        <time>2011-08-20T05:25:44Z</time>
      </trkpt>
      <trkpt lat="42.74047" lon="1.46042">
        <ele>888.3955078125</ele>
        <time>2011-08-20T05:25:49Z</time>
      </trkpt>
      <trkpt lat="42.74043" lon="1.46034">
        <ele>884.55029296875</ele>
        <time>2011-08-20T05:25:55Z</time>
      </trkpt>
      <trkpt lat="42.7404" lon="1.46032">
        <ele>887.43408203125</ele>
        <time>2011-08-20T05:25:59Z</time>
      </trkpt>
      <trkpt lat="42.74034" lon="1.46033">
        <ele>896.08618164062</ele>
        <time>2011-08-20T05:26:05Z</time>
      </trkpt>
      <trkpt lat="42.74026" lon="1.46027">
        <ele>898.4892578125</ele>
        <time>2011-08-20T05:26:11Z</time>
      </trkpt>
      <trkpt lat="42.74022" lon="1.46023">
        <ele>898.4892578125</ele>
        <time>2011-08-20T05:26:15Z</time>
      </trkpt>
      <trkpt lat="42.74014" lon="1.46012">
        <ele>895.12475585938</ele>
        <time>2011-08-20T05:26:23Z</time>
      </trkpt>
      <trkpt lat="42.74009" lon="1.46005">
        <ele>896.56689453125</ele>
        <time>2011-08-20T05:26:30Z</time>
      </trkpt>
      <trkpt lat="42.74006" lon="1.46003">
        <ele>896.56689453125</ele>
        <time>2011-08-20T05:26:34Z</time>
      </trkpt>
      <trkpt lat="42.74002" lon="1.46">
        <ele>900.412109375</ele>
        <time>2011-08-20T05:26:39Z</time>
      </trkpt>
      <trkpt lat="42.73999" lon="1.45999">
        <ele>904.73779296875</ele>
        <time>2011-08-20T05:26:43Z</time>
      </trkpt>
      <trkpt lat="42.73993" lon="1.45993">
        <ele>903.2958984375</ele>
        <time>2011-08-20T05:26:48Z</time>
      </trkpt>
      <trkpt lat="42.73991" lon="1.45992">
        <ele>904.25732421875</ele>
        <time>2011-08-20T05:26:50Z</time>
      </trkpt>
      <trkpt lat="42.73986" lon="1.45988">
        <ele>901.37329101562</ele>
        <time>2011-08-20T05:26:54Z</time>
      </trkpt>
      <trkpt lat="42.7398" lon="1.45976">
        <ele>901.37329101562</ele>
        <time>2011-08-20T05:26:59Z</time>
      </trkpt>
      <trkpt lat="42.73973" lon="1.45968">
        <ele>901.37329101562</ele>
        <time>2011-08-20T05:27:04Z</time>
      </trkpt>
      <trkpt lat="42.73971" lon="1.45967">
        <ele>900.892578125</ele>
        <time>2011-08-20T05:27:05Z</time>
      </trkpt>
      <trkpt lat="42.73964" lon="1.45968">
        <ele>898.4892578125</ele>
        <time>2011-08-20T05:27:09Z</time>
      </trkpt>
      <trkpt lat="42.73957" lon="1.45968">
        <ele>898.0087890625</ele>
        <time>2011-08-20T05:27:13Z</time>
      </trkpt>
      <trkpt lat="42.73945" lon="1.45965">
        <ele>900.412109375</ele>
        <time>2011-08-20T05:27:20Z</time>
      </trkpt>
      <trkpt lat="42.73942" lon="1.45965">
        <ele>900.892578125</ele>
        <time>2011-08-20T05:27:22Z</time>
      </trkpt>
      <trkpt lat="42.73936" lon="1.45962">
        <ele>901.37329101562</ele>
        <time>2011-08-20T05:27:27Z</time>
      </trkpt>
      <trkpt lat="42.73931" lon="1.45958">
        <ele>901.85400390625</ele>
        <time>2011-08-20T05:27:32Z</time>
      </trkpt>
      <trkpt lat="42.73921" lon="1.45955">
        <ele>901.37329101562</ele>
        <time>2011-08-20T05:27:37Z</time>
      </trkpt>
      <trkpt lat="42.73918" lon="1.45952">
        <ele>901.37329101562</ele>
        <time>2011-08-20T05:27:40Z</time>
      </trkpt>
      <trkpt lat="42.73912" lon="1.45949">
        <ele>903.2958984375</ele>
        <time>2011-08-20T05:27:44Z</time>
      </trkpt>
      <trkpt lat="42.73907" lon="1.45946">
        <ele>906.1796875</ele>
        <time>2011-08-20T05:27:48Z</time>
      </trkpt>
      <trkpt lat="42.73901" lon="1.45941">
        <ele>907.62182617188</ele>
        <time>2011-08-20T05:27:54Z</time>
      </trkpt>
      <trkpt lat="42.73899" lon="1.45937">
        <ele>907.62182617188</ele>
        <time>2011-08-20T05:27:58Z</time>
      </trkpt>
      <trkpt lat="42.73893" lon="1.45934">
        <ele>910.98657226562</ele>
        <time>2011-08-20T05:28:04Z</time>
      </trkpt>
      <trkpt lat="42.7389" lon="1.45931">
        <ele>911.94799804688</ele>
        <time>2011-08-20T05:28:08Z</time>
      </trkpt>
      <trkpt lat="42.73885" lon="1.45929">
        <ele>915.79321289062</ele>
        <time>2011-08-20T05:28:14Z</time>
      </trkpt>
      <trkpt lat="42.73881" lon="1.45927">
        <ele>917.71557617188</ele>
        <time>2011-08-20T05:28:18Z</time>
      </trkpt>
      <trkpt lat="42.73878" lon="1.45922">
        <ele>918.67700195312</ele>
        <time>2011-08-20T05:28:23Z</time>
      </trkpt>
      <trkpt lat="42.73877" lon="1.45916">
        <ele>919.15771484375</ele>
        <time>2011-08-20T05:28:28Z</time>
      </trkpt>
      <trkpt lat="42.73876" lon="1.4591">
        <ele>920.599609375</ele>
        <time>2011-08-20T05:28:33Z</time>
      </trkpt>
      <trkpt lat="42.73874" lon="1.45906">
        <ele>923.48364257812</ele>
        <time>2011-08-20T05:28:38Z</time>
      </trkpt>
      <trkpt lat="42.73876" lon="1.45899">
        <ele>927.8095703125</ele>
        <time>2011-08-20T05:28:44Z</time>
      </trkpt>
      <trkpt lat="42.73876" lon="1.45898">
        <ele>927.3291015625</ele>
        <time>2011-08-20T05:28:45Z</time>
      </trkpt>
      <trkpt lat="42.73875" lon="1.45892">
        <ele>927.3291015625</ele>
        <time>2011-08-20T05:28:51Z</time>
      </trkpt>
      <trkpt lat="42.73872" lon="1.45884">
        <ele>924.44506835938</ele>
        <time>2011-08-20T05:28:59Z</time>
      </trkpt>
      <trkpt lat="42.73867" lon="1.45878">
        <ele>924.92578125</ele>
        <time>2011-08-20T05:29:05Z</time>
      </trkpt>
      <trkpt lat="42.73867" lon="1.45877">
        <ele>924.92578125</ele>
        <time>2011-08-20T05:29:06Z</time>
      </trkpt>
      <trkpt lat="42.73858" lon="1.4587">
        <ele>930.212890625</ele>
        <time>2011-08-20T05:29:13Z</time>
      </trkpt>
      <trkpt lat="42.73857" lon="1.45868">
        <ele>930.212890625</ele>
        <time>2011-08-20T05:29:14Z</time>
      </trkpt>
      <trkpt lat="42.73855" lon="1.45858">
        <ele>933.0966796875</ele>
        <time>2011-08-20T05:29:20Z</time>
      </trkpt>
      <trkpt lat="42.73855" lon="1.45852">
        <ele>932.6162109375</ele>
        <time>2011-08-20T05:29:24Z</time>
      </trkpt>
      <trkpt lat="42.73852" lon="1.45845">
        <ele>934.53881835938</ele>
        <time>2011-08-20T05:29:29Z</time>
      </trkpt>
      <trkpt lat="42.73849" lon="1.4584">
        <ele>934.53881835938</ele>
        <time>2011-08-20T05:29:33Z</time>
      </trkpt>
      <trkpt lat="42.73842" lon="1.45836">
        <ele>936.94189453125</ele>
        <time>2011-08-20T05:29:40Z</time>
      </trkpt>
      <trkpt lat="42.73839" lon="1.45832">
        <ele>938.38403320312</ele>
        <time>2011-08-20T05:29:45Z</time>
      </trkpt>
      <trkpt lat="42.73838" lon="1.45823">
        <ele>938.86474609375</ele>
        <time>2011-08-20T05:29:52Z</time>
      </trkpt>
      <trkpt lat="42.73838" lon="1.45818">
        <ele>940.30688476562</ele>
        <time>2011-08-20T05:29:56Z</time>
      </trkpt>
      <trkpt lat="42.73841" lon="1.45807">
        <ele>940.78735351562</ele>
        <time>2011-08-20T05:30:03Z</time>
      </trkpt>
      <trkpt lat="42.73844" lon="1.45793">
        <ele>937.9033203125</ele>
        <time>2011-08-20T05:30:09Z</time>
      </trkpt>
      <trkpt lat="42.73845" lon="1.45783">
        <ele>933.57739257812</ele>
        <time>2011-08-20T05:30:15Z</time>
      </trkpt>
      <trkpt lat="42.73844" lon="1.45779">
        <ele>935.98071289062</ele>
        <time>2011-08-20T05:30:19Z</time>
      </trkpt>
      <trkpt lat="42.73841" lon="1.45773">
        <ele>941.26806640625</ele>
        <time>2011-08-20T05:30:28Z</time>
      </trkpt>
      <trkpt lat="42.73844" lon="1.4577">
        <ele>946.07470703125</ele>
        <time>2011-08-20T05:30:33Z</time>
      </trkpt>
      <trkpt lat="42.73847" lon="1.45769">
        <ele>947.5166015625</ele>
        <time>2011-08-20T05:30:37Z</time>
      </trkpt>
      <trkpt lat="42.73851" lon="1.45768">
        <ele>951.36181640625</ele>
        <time>2011-08-20T05:30:41Z</time>
      </trkpt>
      <trkpt lat="42.73855" lon="1.45762">
        <ele>953.28442382812</ele>
        <time>2011-08-20T05:30:47Z</time>
      </trkpt>
      <trkpt lat="42.73859" lon="1.45763">
        <ele>958.09130859375</ele>
        <time>2011-08-20T05:30:53Z</time>
      </trkpt>
      <trkpt lat="42.73862" lon="1.45761">
        <ele>959.533203125</ele>
        <time>2011-08-20T05:30:57Z</time>
      </trkpt>
      <trkpt lat="42.73867" lon="1.45761">
        <ele>964.8203125</ele>
        <time>2011-08-20T05:31:02Z</time>
      </trkpt>
      <trkpt lat="42.73869" lon="1.45759">
        <ele>963.85888671875</ele>
        <time>2011-08-20T05:31:04Z</time>
      </trkpt>
      <trkpt lat="42.73869" lon="1.45749">
        <ele>961.9365234375</ele>
        <time>2011-08-20T05:31:13Z</time>
      </trkpt>
      <trkpt lat="42.73876" lon="1.45744">
        <ele>961.45581054688</ele>
        <time>2011-08-20T05:31:21Z</time>
      </trkpt>
      <trkpt lat="42.73881" lon="1.45738">
        <ele>958.57177734375</ele>
        <time>2011-08-20T05:31:27Z</time>
      </trkpt>
      <trkpt lat="42.73909" lon="1.45727">
        <ele>976.35620117188</ele>
        <time>2011-08-20T05:32:18Z</time>
      </trkpt>
      <trkpt lat="42.73911" lon="1.4573">
        <ele>976.35620117188</ele>
        <time>2011-08-20T05:32:23Z</time>
      </trkpt>
      <trkpt lat="42.73911" lon="1.45733">
        <ele>975.87548828125</ele>
        <time>2011-08-20T05:32:29Z</time>
      </trkpt>
      <trkpt lat="42.73912" lon="1.45734">
        <ele>976.35620117188</ele>
        <time>2011-08-20T05:32:34Z</time>
      </trkpt>
      <trkpt lat="42.73915" lon="1.45729">
        <ele>978.75952148438</ele>
        <time>2011-08-20T05:32:40Z</time>
      </trkpt>
      <trkpt lat="42.73919" lon="1.4573">
        <ele>981.64331054688</ele>
        <time>2011-08-20T05:32:45Z</time>
      </trkpt>
      <trkpt lat="42.73922" lon="1.45732">
        <ele>985.00805664062</ele>
        <time>2011-08-20T05:32:49Z</time>
      </trkpt>
      <trkpt lat="42.73927" lon="1.45729">
        <ele>987.4111328125</ele>
        <time>2011-08-20T05:32:56Z</time>
      </trkpt>
      <trkpt lat="42.73932" lon="1.45726">
        <ele>986.93041992188</ele>
        <time>2011-08-20T05:33:01Z</time>
      </trkpt>
      <trkpt lat="42.73933" lon="1.45726">
        <ele>988.37280273438</ele>
        <time>2011-08-20T05:33:03Z</time>
      </trkpt>
      <trkpt lat="42.73938" lon="1.45724">
        <ele>989.81469726562</ele>
        <time>2011-08-20T05:33:08Z</time>
      </trkpt>
      <trkpt lat="42.73944" lon="1.45723">
        <ele>989.81469726562</ele>
        <time>2011-08-20T05:33:12Z</time>
      </trkpt>
      <trkpt lat="42.73951" lon="1.45722">
        <ele>989.333984375</ele>
        <time>2011-08-20T05:33:18Z</time>
      </trkpt>
      <trkpt lat="42.73957" lon="1.4572">
        <ele>987.89184570312</ele>
        <time>2011-08-20T05:33:23Z</time>
      </trkpt>
      <trkpt lat="42.73959" lon="1.45721">
        <ele>986.44995117188</ele>
        <time>2011-08-20T05:33:25Z</time>
      </trkpt>
      <trkpt lat="42.73964" lon="1.45719">
        <ele>985.48852539062</ele>
        <time>2011-08-20T05:33:31Z</time>
      </trkpt>
      <trkpt lat="42.73961" lon="1.45715">
        <ele>987.89184570312</ele>
        <time>2011-08-20T05:33:35Z</time>
      </trkpt>
      <trkpt lat="42.73955" lon="1.45709">
        <ele>991.7373046875</ele>
        <time>2011-08-20T05:33:42Z</time>
      </trkpt>
      <trkpt lat="42.7395" lon="1.45704">
        <ele>995.10180664062</ele>
        <time>2011-08-20T05:33:47Z</time>
      </trkpt>
      <trkpt lat="42.73947" lon="1.45699">
        <ele>994.62109375</ele>
        <time>2011-08-20T05:33:51Z</time>
      </trkpt>
      <trkpt lat="42.73944" lon="1.45691">
        <ele>993.65991210938</ele>
        <time>2011-08-20T05:33:55Z</time>
      </trkpt>
      <trkpt lat="42.73943" lon="1.45684">
        <ele>996.5439453125</ele>
        <time>2011-08-20T05:34:01Z</time>
      </trkpt>
      <trkpt lat="42.73948" lon="1.45686">
        <ele>997.98583984375</ele>
        <time>2011-08-20T05:34:06Z</time>
      </trkpt>
      <trkpt lat="42.73952" lon="1.45687">
        <ele>1000.8696289062</ele>
        <time>2011-08-20T05:34:10Z</time>
      </trkpt>
      <trkpt lat="42.73954" lon="1.45687">
        <ele>1001.8310546875</ele>
        <time>2011-08-20T05:34:12Z</time>
      </trkpt>
      <trkpt lat="42.7396" lon="1.4569">
        <ele>1003.7536621094</ele>
        <time>2011-08-20T05:34:17Z</time>
      </trkpt>
      <trkpt lat="42.73964" lon="1.45688">
        <ele>1003.7536621094</ele>
        <time>2011-08-20T05:34:21Z</time>
      </trkpt>
      <trkpt lat="42.7397" lon="1.45691">
        <ele>1008.0798339844</ele>
        <time>2011-08-20T05:34:28Z</time>
      </trkpt>
      <trkpt lat="42.73974" lon="1.45694">
        <ele>1008.0798339844</ele>
        <time>2011-08-20T05:34:33Z</time>
      </trkpt>
      <trkpt lat="42.73979" lon="1.45695">
        <ele>1008.5603027344</ele>
        <time>2011-08-20T05:34:39Z</time>
      </trkpt>
      <trkpt lat="42.73984" lon="1.45699">
        <ele>1010.9636230469</ele>
        <time>2011-08-20T05:34:45Z</time>
      </trkpt>
      <trkpt lat="42.7399" lon="1.45698">
        <ele>1012.4055175781</ele>
        <time>2011-08-20T05:34:52Z</time>
      </trkpt>
      <trkpt lat="42.73993" lon="1.45697">
        <ele>1013.8474121094</ele>
        <time>2011-08-20T05:34:54Z</time>
      </trkpt>
      <trkpt lat="42.73996" lon="1.45696">
        <ele>1014.8088378906</ele>
        <time>2011-08-20T05:34:57Z</time>
      </trkpt>
      <trkpt lat="42.74001" lon="1.45694">
        <ele>1017.2121582031</ele>
        <time>2011-08-20T05:35:03Z</time>
      </trkpt>
      <trkpt lat="42.74002" lon="1.45694">
        <ele>1017.2121582031</ele>
        <time>2011-08-20T05:35:04Z</time>
      </trkpt>
      <trkpt lat="42.74009" lon="1.4569">
        <ele>1015.2895507812</ele>
        <time>2011-08-20T05:35:11Z</time>
      </trkpt>
      <trkpt lat="42.74014" lon="1.4569">
        <ele>1014.328125</ele>
        <time>2011-08-20T05:35:16Z</time>
      </trkpt>
      <trkpt lat="42.74015" lon="1.45686">
        <ele>1015.2895507812</ele>
        <time>2011-08-20T05:35:23Z</time>
      </trkpt>
      <trkpt lat="42.74012" lon="1.45686">
        <ele>1016.7314453125</ele>
        <time>2011-08-20T05:35:28Z</time>
      </trkpt>
      <trkpt lat="42.74009" lon="1.4568">
        <ele>1016.2507324219</ele>
        <time>2011-08-20T05:35:33Z</time>
      </trkpt>
      <trkpt lat="42.74007" lon="1.45676">
        <ele>1015.7702636719</ele>
        <time>2011-08-20T05:35:37Z</time>
      </trkpt>
      <trkpt lat="42.74002" lon="1.45673">
        <ele>1018.1733398438</ele>
        <time>2011-08-20T05:35:44Z</time>
      </trkpt>
      <trkpt lat="42.73994" lon="1.45665">
        <ele>1025.3833007812</ele>
        <time>2011-08-20T05:35:55Z</time>
      </trkpt>
      <trkpt lat="42.73993" lon="1.45664">
        <ele>1025.3833007812</ele>
        <time>2011-08-20T05:35:56Z</time>
      </trkpt>
      <trkpt lat="42.73991" lon="1.4566">
        <ele>1025.3833007812</ele>
        <time>2011-08-20T05:35:59Z</time>
      </trkpt>
      <trkpt lat="42.73989" lon="1.45653">
        <ele>1025.3833007812</ele>
        <time>2011-08-20T05:36:05Z</time>
      </trkpt>
      <trkpt lat="42.73988" lon="1.45644">
        <ele>1026.8254394531</ele>
        <time>2011-08-20T05:36:11Z</time>
      </trkpt>
      <trkpt lat="42.73987" lon="1.45639">
        <ele>1028.748046875</ele>
        <time>2011-08-20T05:36:15Z</time>
      </trkpt>
      <trkpt lat="42.73986" lon="1.4563">
        <ele>1027.3061523438</ele>
        <time>2011-08-20T05:36:20Z</time>
      </trkpt>
      <trkpt lat="42.73985" lon="1.45625">
        <ele>1030.1899414062</ele>
        <time>2011-08-20T05:36:24Z</time>
      </trkpt>
      <trkpt lat="42.73986" lon="1.45624">
        <ele>1032.5932617188</ele>
        <time>2011-08-20T05:36:28Z</time>
      </trkpt>
      <trkpt lat="42.73987" lon="1.45626">
        <ele>1032.5932617188</ele>
        <time>2011-08-20T05:36:29Z</time>
      </trkpt>
      <trkpt lat="42.73991" lon="1.45631">
        <ele>1034.9965820312</ele>
        <time>2011-08-20T05:36:35Z</time>
      </trkpt>
      <trkpt lat="42.73994" lon="1.45634">
        <ele>1035.4770507812</ele>
        <time>2011-08-20T05:36:38Z</time>
      </trkpt>
      <trkpt lat="42.73998" lon="1.45635">
        <ele>1037.3999023438</ele>
        <time>2011-08-20T05:36:44Z</time>
      </trkpt>
      <trkpt lat="42.74002" lon="1.45635">
        <ele>1039.3225097656</ele>
        <time>2011-08-20T05:36:49Z</time>
      </trkpt>
      <trkpt lat="42.74" lon="1.45632">
        <ele>1039.8032226562</ele>
        <time>2011-08-20T05:36:56Z</time>
      </trkpt>
      <trkpt lat="42.74" lon="1.45628">
        <ele>1042.2065429688</ele>
        <time>2011-08-20T05:37:01Z</time>
      </trkpt>
      <trkpt lat="42.74" lon="1.45621">
        <ele>1040.2839355469</ele>
        <time>2011-08-20T05:37:07Z</time>
      </trkpt>
      <trkpt lat="42.73999" lon="1.45616">
        <ele>1041.2451171875</ele>
        <time>2011-08-20T05:37:14Z</time>
      </trkpt>
      <trkpt lat="42.74002" lon="1.45612">
        <ele>1043.1677246094</ele>
        <time>2011-08-20T05:37:24Z</time>
      </trkpt>
      <trkpt lat="42.74006" lon="1.45617">
        <ele>1044.1291503906</ele>
        <time>2011-08-20T05:37:30Z</time>
      </trkpt>
      <trkpt lat="42.7401" lon="1.45623">
        <ele>1046.0517578125</ele>
        <time>2011-08-20T05:37:36Z</time>
      </trkpt>
      <trkpt lat="42.74014" lon="1.45626">
        <ele>1047.4936523438</ele>
        <time>2011-08-20T05:37:41Z</time>
      </trkpt>
      <trkpt lat="42.74017" lon="1.45631">
        <ele>1049.4162597656</ele>
        <time>2011-08-20T05:37:46Z</time>
      </trkpt>
      <trkpt lat="42.74021" lon="1.45631">
        <ele>1050.3776855469</ele>
        <time>2011-08-20T05:37:52Z</time>
      </trkpt>
      <trkpt lat="42.74026" lon="1.45624">
        <ele>1054.7036132812</ele>
        <time>2011-08-20T05:38:03Z</time>
      </trkpt>
      <trkpt lat="42.74026" lon="1.45622">
        <ele>1054.2231445312</ele>
        <time>2011-08-20T05:38:04Z</time>
      </trkpt>
      <trkpt lat="42.74027" lon="1.45612">
        <ele>1053.26171875</ele>
        <time>2011-08-20T05:38:10Z</time>
      </trkpt>
      <trkpt lat="42.74026" lon="1.45608">
        <ele>1054.7036132812</ele>
        <time>2011-08-20T05:38:15Z</time>
      </trkpt>
      <trkpt lat="42.74023" lon="1.45606">
        <ele>1055.6650390625</ele>
        <time>2011-08-20T05:38:20Z</time>
      </trkpt>
      <trkpt lat="42.74023" lon="1.45603">
        <ele>1056.6262207031</ele>
        <time>2011-08-20T05:38:24Z</time>
      </trkpt>
      <trkpt lat="42.74022" lon="1.45598">
        <ele>1059.0295410156</ele>
        <time>2011-08-20T05:38:29Z</time>
      </trkpt>
      <trkpt lat="42.74022" lon="1.45595">
        <ele>1060.9521484375</ele>
        <time>2011-08-20T05:38:34Z</time>
      </trkpt>
      <trkpt lat="42.74024" lon="1.45595">
        <ele>1062.3940429688</ele>
        <time>2011-08-20T05:38:39Z</time>
      </trkpt>
      <trkpt lat="42.74027" lon="1.45597">
        <ele>1063.8359375</ele>
        <time>2011-08-20T05:38:44Z</time>
      </trkpt>
      <trkpt lat="42.74031" lon="1.45601">
        <ele>1066.7199707031</ele>
        <time>2011-08-20T05:38:50Z</time>
      </trkpt>
      <trkpt lat="42.74038" lon="1.45602">
        <ele>1070.5654296875</ele>
        <time>2011-08-20T05:38:56Z</time>
      </trkpt>
      <trkpt lat="42.74038" lon="1.45601">
        <ele>1071.0461425781</ele>
        <time>2011-08-20T05:38:57Z</time>
      </trkpt>
      <trkpt lat="42.74045" lon="1.45599">
        <ele>1071.0461425781</ele>
        <time>2011-08-20T05:39:03Z</time>
      </trkpt>
      <trkpt lat="42.74045" lon="1.45596">
        <ele>1071.5266113281</ele>
        <time>2011-08-20T05:39:08Z</time>
      </trkpt>
      <trkpt lat="42.74042" lon="1.45594">
        <ele>1072.96875</ele>
        <time>2011-08-20T05:39:14Z</time>
      </trkpt>
      <trkpt lat="42.74038" lon="1.45586">
        <ele>1072.4880371094</ele>
        <time>2011-08-20T05:39:20Z</time>
      </trkpt>
      <trkpt lat="42.74039" lon="1.45582">
        <ele>1075.8525390625</ele>
        <time>2011-08-20T05:39:26Z</time>
      </trkpt>
      <trkpt lat="42.74044" lon="1.45583">
        <ele>1075.3718261719</ele>
        <time>2011-08-20T05:39:31Z</time>
      </trkpt>
      <trkpt lat="42.74049" lon="1.45584">
        <ele>1075.8525390625</ele>
        <time>2011-08-20T05:39:36Z</time>
      </trkpt>
      <trkpt lat="42.74052" lon="1.45583">
        <ele>1077.7751464844</ele>
        <time>2011-08-20T05:39:40Z</time>
      </trkpt>
      <trkpt lat="42.74057" lon="1.45582">
        <ele>1077.7751464844</ele>
        <time>2011-08-20T05:39:45Z</time>
      </trkpt>
      <trkpt lat="42.74063" lon="1.45579">
        <ele>1076.3332519531</ele>
        <time>2011-08-20T05:39:51Z</time>
      </trkpt>
      <trkpt lat="42.74061" lon="1.45577">
        <ele>1078.255859375</ele>
        <time>2011-08-20T05:39:56Z</time>
      </trkpt>
      <trkpt lat="42.74058" lon="1.45575">
        <ele>1079.2170410156</ele>
        <time>2011-08-20T05:40:00Z</time>
      </trkpt>
      <trkpt lat="42.74055" lon="1.45572">
        <ele>1079.6977539062</ele>
        <time>2011-08-20T05:40:06Z</time>
      </trkpt>
      <trkpt lat="42.74052" lon="1.45564">
        <ele>1081.6203613281</ele>
        <time>2011-08-20T05:40:13Z</time>
      </trkpt>
      <trkpt lat="42.74054" lon="1.4556">
        <ele>1084.9853515625</ele>
        <time>2011-08-20T05:40:20Z</time>
      </trkpt>
      <trkpt lat="42.74057" lon="1.45561">
        <ele>1086.4272460938</ele>
        <time>2011-08-20T05:40:25Z</time>
      </trkpt>
      <trkpt lat="42.74061" lon="1.45561">
        <ele>1087.3884277344</ele>
        <time>2011-08-20T05:40:31Z</time>
      </trkpt>
      <trkpt lat="42.74066" lon="1.45561">
        <ele>1089.7917480469</ele>
        <time>2011-08-20T05:40:37Z</time>
      </trkpt>
      <trkpt lat="42.7407" lon="1.45561">
        <ele>1091.2336425781</ele>
        <time>2011-08-20T05:40:42Z</time>
      </trkpt>
      <trkpt lat="42.74073" lon="1.45562">
        <ele>1093.6369628906</ele>
        <time>2011-08-20T05:40:46Z</time>
      </trkpt>
      <trkpt lat="42.74076" lon="1.45563">
        <ele>1095.0788574219</ele>
        <time>2011-08-20T05:40:50Z</time>
      </trkpt>
      <trkpt lat="42.7408" lon="1.45567">
        <ele>1098.443359375</ele>
        <time>2011-08-20T05:40:55Z</time>
      </trkpt>
      <trkpt lat="42.74079" lon="1.45563">
        <ele>1099.8854980469</ele>
        <time>2011-08-20T05:41:03Z</time>
      </trkpt>
      <trkpt lat="42.74077" lon="1.45557">
        <ele>1100.8469238281</ele>
        <time>2011-08-20T05:41:10Z</time>
      </trkpt>
      <trkpt lat="42.74076" lon="1.4555">
        <ele>1101.8083496094</ele>
        <time>2011-08-20T05:41:15Z</time>
      </trkpt>
      <trkpt lat="42.74074" lon="1.45545">
        <ele>1102.76953125</ele>
        <time>2011-08-20T05:41:19Z</time>
      </trkpt>
      <trkpt lat="42.74072" lon="1.4554">
        <ele>1102.76953125</ele>
        <time>2011-08-20T05:41:23Z</time>
      </trkpt>
      <trkpt lat="42.74071" lon="1.45533">
        <ele>1103.7309570312</ele>
        <time>2011-08-20T05:41:30Z</time>
      </trkpt>
      <trkpt lat="42.74069" lon="1.45529">
        <ele>1105.1728515625</ele>
        <time>2011-08-20T05:41:35Z</time>
      </trkpt>
      <trkpt lat="42.74066" lon="1.45525">
        <ele>1104.2116699219</ele>
        <time>2011-08-20T05:41:40Z</time>
      </trkpt>
      <trkpt lat="42.74067" lon="1.45519">
        <ele>1102.76953125</ele>
        <time>2011-08-20T05:41:45Z</time>
      </trkpt>
      <trkpt lat="42.74071" lon="1.45519">
        <ele>1101.3276367188</ele>
        <time>2011-08-20T05:41:50Z</time>
      </trkpt>
      <trkpt lat="42.74078" lon="1.45523">
        <ele>1103.2502441406</ele>
        <time>2011-08-20T05:41:58Z</time>
      </trkpt>
      <trkpt lat="42.74085" lon="1.45526">
        <ele>1105.1728515625</ele>
        <time>2011-08-20T05:42:06Z</time>
      </trkpt>
      <trkpt lat="42.7409" lon="1.4553">
        <ele>1110.4599609375</ele>
        <time>2011-08-20T05:42:12Z</time>
      </trkpt>
      <trkpt lat="42.74094" lon="1.45531">
        <ele>1110.9406738281</ele>
        <time>2011-08-20T05:42:17Z</time>
      </trkpt>
      <trkpt lat="42.74091" lon="1.45528">
        <ele>1118.1506347656</ele>
        <time>2011-08-20T05:42:28Z</time>
      </trkpt>
      <trkpt lat="42.74088" lon="1.45525">
        <ele>1120.5539550781</ele>
        <time>2011-08-20T05:42:32Z</time>
      </trkpt>
      <trkpt lat="42.74087" lon="1.45521">
        <ele>1122.4765625</ele>
        <time>2011-08-20T05:42:37Z</time>
      </trkpt>
      <trkpt lat="42.74092" lon="1.45518">
        <ele>1119.5927734375</ele>
        <time>2011-08-20T05:42:43Z</time>
      </trkpt>
      <trkpt lat="42.74095" lon="1.4552">
        <ele>1118.6313476562</ele>
        <time>2011-08-20T05:42:47Z</time>
      </trkpt>
      <trkpt lat="42.74099" lon="1.45522">
        <ele>1121.0346679688</ele>
        <time>2011-08-20T05:42:52Z</time>
      </trkpt>
      <trkpt lat="42.74104" lon="1.45523">
        <ele>1122.9572753906</ele>
        <time>2011-08-20T05:42:57Z</time>
      </trkpt>
      <trkpt lat="42.74109" lon="1.45525">
        <ele>1124.3991699219</ele>
        <time>2011-08-20T05:43:03Z</time>
      </trkpt>
      <trkpt lat="42.74113" lon="1.45525">
        <ele>1125.3603515625</ele>
        <time>2011-08-20T05:43:08Z</time>
      </trkpt>
      <trkpt lat="42.74111" lon="1.45521">
        <ele>1129.2055664062</ele>
        <time>2011-08-20T05:43:16Z</time>
      </trkpt>
      <trkpt lat="42.7411" lon="1.45517">
        <ele>1130.1669921875</ele>
        <time>2011-08-20T05:43:20Z</time>
      </trkpt>
      <trkpt lat="42.74109" lon="1.45509">
        <ele>1130.1669921875</ele>
        <time>2011-08-20T05:43:28Z</time>
      </trkpt>
      <trkpt lat="42.74112" lon="1.45506">
        <ele>1132.08984375</ele>
        <time>2011-08-20T05:43:36Z</time>
      </trkpt>
      <trkpt lat="42.74116" lon="1.45503">
        <ele>1138.8190917969</ele>
        <time>2011-08-20T05:43:55Z</time>
      </trkpt>
      <trkpt lat="42.74122" lon="1.45506">
        <ele>1139.2995605469</ele>
        <time>2011-08-20T05:44:02Z</time>
      </trkpt>
      <trkpt lat="42.74127" lon="1.45506">
        <ele>1141.2221679688</ele>
        <time>2011-08-20T05:44:10Z</time>
      </trkpt>
      <trkpt lat="42.74125" lon="1.45506">
        <ele>1143.6254882812</ele>
        <time>2011-08-20T05:44:20Z</time>
      </trkpt>
      <trkpt lat="42.74124" lon="1.45501">
        <ele>1144.5866699219</ele>
        <time>2011-08-20T05:44:25Z</time>
      </trkpt>
      <trkpt lat="42.74123" lon="1.45492">
        <ele>1145.0673828125</ele>
        <time>2011-08-20T05:44:32Z</time>
      </trkpt>
      <trkpt lat="42.74128" lon="1.45491">
        <ele>1145.5480957031</ele>
        <time>2011-08-20T05:44:37Z</time>
      </trkpt>
      <trkpt lat="42.74133" lon="1.45495">
        <ele>1145.5480957031</ele>
        <time>2011-08-20T05:44:44Z</time>
      </trkpt>
      <trkpt lat="42.74136" lon="1.45498">
        <ele>1147.470703125</ele>
        <time>2011-08-20T05:44:50Z</time>
      </trkpt>
      <trkpt lat="42.7414" lon="1.45499">
        <ele>1149.8742675781</ele>
        <time>2011-08-20T05:44:54Z</time>
      </trkpt>
      <trkpt lat="42.74143" lon="1.45502">
        <ele>1151.3161621094</ele>
        <time>2011-08-20T05:44:59Z</time>
      </trkpt>
      <trkpt lat="42.74147" lon="1.45505">
        <ele>1153.7194824219</ele>
        <time>2011-08-20T05:45:05Z</time>
      </trkpt>
      <trkpt lat="42.74149" lon="1.45509">
        <ele>1159.4873046875</ele>
        <time>2011-08-20T05:45:11Z</time>
      </trkpt>
      <trkpt lat="42.74149" lon="1.45506">
        <ele>1160.4484863281</ele>
        <time>2011-08-20T05:45:21Z</time>
      </trkpt>
      <trkpt lat="42.74148" lon="1.45497">
        <ele>1159.0065917969</ele>
        <time>2011-08-20T05:45:26Z</time>
      </trkpt>
      <trkpt lat="42.74149" lon="1.45495">
        <ele>1159.0065917969</ele>
        <time>2011-08-20T05:45:28Z</time>
      </trkpt>
      <trkpt lat="42.7415" lon="1.4549">
        <ele>1158.0454101562</ele>
        <time>2011-08-20T05:45:33Z</time>
      </trkpt>
      <trkpt lat="42.74151" lon="1.45487">
        <ele>1159.4873046875</ele>
        <time>2011-08-20T05:45:38Z</time>
      </trkpt>
      <trkpt lat="42.74154" lon="1.45491">
        <ele>1162.8518066406</ele>
        <time>2011-08-20T05:45:43Z</time>
      </trkpt>
      <trkpt lat="42.74157" lon="1.4549">
        <ele>1162.8518066406</ele>
        <time>2011-08-20T05:45:48Z</time>
      </trkpt>
      <trkpt lat="42.74155" lon="1.45482">
        <ele>1162.8518066406</ele>
        <time>2011-08-20T05:45:54Z</time>
      </trkpt>
      <trkpt lat="42.74152" lon="1.45479">
        <ele>1166.2165527344</ele>
        <time>2011-08-20T05:46:02Z</time>
      </trkpt>
      <trkpt lat="42.74147" lon="1.45466">
        <ele>1165.2553710938</ele>
        <time>2011-08-20T05:46:07Z</time>
      </trkpt>
      <trkpt lat="42.74148" lon="1.45449">
        <ele>1164.2939453125</ele>
        <time>2011-08-20T05:46:12Z</time>
      </trkpt>
      <trkpt lat="42.7415" lon="1.45428">
        <ele>1162.8518066406</ele>
        <time>2011-08-20T05:46:18Z</time>
      </trkpt>
      <trkpt lat="42.74149" lon="1.45414">
        <ele>1164.2939453125</ele>
        <time>2011-08-20T05:46:23Z</time>
      </trkpt>
      <trkpt lat="42.74149" lon="1.45412">
        <ele>1163.8129882812</ele>
        <time>2011-08-20T05:46:24Z</time>
      </trkpt>
      <trkpt lat="42.74145" lon="1.45402">
        <ele>1161.890625</ele>
        <time>2011-08-20T05:46:29Z</time>
      </trkpt>
      <trkpt lat="42.74139" lon="1.45394">
        <ele>1159.4873046875</ele>
        <time>2011-08-20T05:46:33Z</time>
      </trkpt>
      <trkpt lat="42.74128" lon="1.45394">
        <ele>1157.083984375</ele>
        <time>2011-08-20T05:46:39Z</time>
      </trkpt>
      <trkpt lat="42.74117" lon="1.45392">
        <ele>1156.1225585938</ele>
        <time>2011-08-20T05:46:44Z</time>
      </trkpt>
      <trkpt lat="42.74116" lon="1.45391">
        <ele>1155.6420898438</ele>
        <time>2011-08-20T05:46:46Z</time>
      </trkpt>
      <trkpt lat="42.7411" lon="1.45373">
        <ele>1156.6032714844</ele>
        <time>2011-08-20T05:46:52Z</time>
      </trkpt>
      <trkpt lat="42.74104" lon="1.45349">
        <ele>1158.0454101562</ele>
        <time>2011-08-20T05:47:00Z</time>
      </trkpt>
      <trkpt lat="42.74095" lon="1.45343">
        <ele>1159.0065917969</ele>
        <time>2011-08-20T05:47:04Z</time>
      </trkpt>
      <trkpt lat="42.74083" lon="1.45341">
        <ele>1160.9291992188</ele>
        <time>2011-08-20T05:47:09Z</time>
      </trkpt>
      <trkpt lat="42.74074" lon="1.4534">
        <ele>1160.9291992188</ele>
        <time>2011-08-20T05:47:12Z</time>
      </trkpt>
      <trkpt lat="42.74061" lon="1.45346">
        <ele>1160.9291992188</ele>
        <time>2011-08-20T05:47:17Z</time>
      </trkpt>
      <trkpt lat="42.74052" lon="1.4535">
        <ele>1160.4484863281</ele>
        <time>2011-08-20T05:47:21Z</time>
      </trkpt>
      <trkpt lat="42.74042" lon="1.4536">
        <ele>1161.890625</ele>
        <time>2011-08-20T05:47:26Z</time>
      </trkpt>
      <trkpt lat="42.74035" lon="1.45373">
        <ele>1162.8518066406</ele>
        <time>2011-08-20T05:47:31Z</time>
      </trkpt>
      <trkpt lat="42.74023" lon="1.45379">
        <ele>1161.890625</ele>
        <time>2011-08-20T05:47:36Z</time>
      </trkpt>
      <trkpt lat="42.74011" lon="1.45373">
        <ele>1163.8129882812</ele>
        <time>2011-08-20T05:47:41Z</time>
      </trkpt>
      <trkpt lat="42.73999" lon="1.45365">
        <ele>1160.9291992188</ele>
        <time>2011-08-20T05:47:46Z</time>
      </trkpt>
      <trkpt lat="42.7399" lon="1.45356">
        <ele>1159.9677734375</ele>
        <time>2011-08-20T05:47:51Z</time>
      </trkpt>
      <trkpt lat="42.73987" lon="1.45357">
        <ele>1160.4484863281</ele>
        <time>2011-08-20T05:47:56Z</time>
      </trkpt>
      <trkpt lat="42.73979" lon="1.45352">
        <ele>1161.4099121094</ele>
        <time>2011-08-20T05:48:00Z</time>
      </trkpt>
      <trkpt lat="42.73966" lon="1.45343">
        <ele>1161.890625</ele>
        <time>2011-08-20T05:48:06Z</time>
      </trkpt>
      <trkpt lat="42.73957" lon="1.45336">
        <ele>1161.890625</ele>
        <time>2011-08-20T05:48:10Z</time>
      </trkpt>
      <trkpt lat="42.73945" lon="1.45329">
        <ele>1161.4099121094</ele>
        <time>2011-08-20T05:48:15Z</time>
      </trkpt>
      <trkpt lat="42.7393" lon="1.45322">
        <ele>1160.9291992188</ele>
        <time>2011-08-20T05:48:21Z</time>
      </trkpt>
      <trkpt lat="42.73915" lon="1.45318">
        <ele>1161.890625</ele>
        <time>2011-08-20T05:48:27Z</time>
      </trkpt>
      <trkpt lat="42.73904" lon="1.45313">
        <ele>1161.890625</ele>
        <time>2011-08-20T05:48:32Z</time>
      </trkpt>
      <trkpt lat="42.73892" lon="1.45308">
        <ele>1161.4099121094</ele>
        <time>2011-08-20T05:48:37Z</time>
      </trkpt>
      <trkpt lat="42.7388" lon="1.45302">
        <ele>1160.9291992188</ele>
        <time>2011-08-20T05:48:42Z</time>
      </trkpt>
      <trkpt lat="42.73866" lon="1.45293">
        <ele>1160.4484863281</ele>
        <time>2011-08-20T05:48:48Z</time>
      </trkpt>
      <trkpt lat="42.73855" lon="1.45285">
        <ele>1159.9677734375</ele>
        <time>2011-08-20T05:48:53Z</time>
      </trkpt>
      <trkpt lat="42.73844" lon="1.45276">
        <ele>1160.9291992188</ele>
        <time>2011-08-20T05:48:58Z</time>
      </trkpt>
      <trkpt lat="42.73833" lon="1.45261">
        <ele>1161.890625</ele>
        <time>2011-08-20T05:49:04Z</time>
      </trkpt>
      <trkpt lat="42.73826" lon="1.45249">
        <ele>1161.890625</ele>
        <time>2011-08-20T05:49:09Z</time>
      </trkpt>
      <trkpt lat="42.73819" lon="1.45238">
        <ele>1163.3325195312</ele>
        <time>2011-08-20T05:49:14Z</time>
      </trkpt>
      <trkpt lat="42.7381" lon="1.45223">
        <ele>1163.3325195312</ele>
        <time>2011-08-20T05:49:20Z</time>
      </trkpt>
      <trkpt lat="42.73799" lon="1.452">
        <ele>1164.2939453125</ele>
        <time>2011-08-20T05:49:28Z</time>
      </trkpt>
      <trkpt lat="42.73798" lon="1.45188">
        <ele>1164.2939453125</ele>
        <time>2011-08-20T05:49:32Z</time>
      </trkpt>
      <trkpt lat="42.73804" lon="1.45167">
        <ele>1163.8129882812</ele>
        <time>2011-08-20T05:49:39Z</time>
      </trkpt>
      <trkpt lat="42.73806" lon="1.45156">
        <ele>1165.7360839844</ele>
        <time>2011-08-20T05:49:43Z</time>
      </trkpt>
      <trkpt lat="42.738" lon="1.45149">
        <ele>1166.2165527344</ele>
        <time>2011-08-20T05:49:48Z</time>
      </trkpt>
      <trkpt lat="42.73784" lon="1.45154">
        <ele>1165.7360839844</ele>
        <time>2011-08-20T05:49:55Z</time>
      </trkpt>
      <trkpt lat="42.73773" lon="1.45166">
        <ele>1165.2553710938</ele>
        <time>2011-08-20T05:50:01Z</time>
      </trkpt>
      <trkpt lat="42.73759" lon="1.45174">
        <ele>1166.2165527344</ele>
        <time>2011-08-20T05:50:07Z</time>
      </trkpt>
      <trkpt lat="42.73748" lon="1.45181">
        <ele>1166.697265625</ele>
        <time>2011-08-20T05:50:12Z</time>
      </trkpt>
      <trkpt lat="42.73742" lon="1.45193">
        <ele>1168.1391601562</ele>
        <time>2011-08-20T05:50:16Z</time>
      </trkpt>
      <trkpt lat="42.73736" lon="1.45206">
        <ele>1169.5812988281</ele>
        <time>2011-08-20T05:50:20Z</time>
      </trkpt>
      <trkpt lat="42.73721" lon="1.45211">
        <ele>1164.2939453125</ele>
        <time>2011-08-20T05:50:26Z</time>
      </trkpt>
      <trkpt lat="42.7371" lon="1.45216">
        <ele>1161.890625</ele>
        <time>2011-08-20T05:50:31Z</time>
      </trkpt>
      <trkpt lat="42.73702" lon="1.45222">
        <ele>1161.890625</ele>
        <time>2011-08-20T05:50:34Z</time>
      </trkpt>
      <trkpt lat="42.73692" lon="1.4522">
        <ele>1160.4484863281</ele>
        <time>2011-08-20T05:50:38Z</time>
      </trkpt>
      <trkpt lat="42.73674" lon="1.45213">
        <ele>1159.9677734375</ele>
        <time>2011-08-20T05:50:45Z</time>
      </trkpt>
      <trkpt lat="42.73668" lon="1.45203">
        <ele>1159.9677734375</ele>
        <time>2011-08-20T05:50:49Z</time>
      </trkpt>
      <trkpt lat="42.73664" lon="1.4519">
        <ele>1161.890625</ele>
        <time>2011-08-20T05:50:53Z</time>
      </trkpt>
      <trkpt lat="42.73663" lon="1.45189">
        <ele>1163.8129882812</ele>
        <time>2011-08-20T05:50:54Z</time>
      </trkpt>
      <trkpt lat="42.73659" lon="1.45181">
        <ele>1164.7746582031</ele>
        <time>2011-08-20T05:50:58Z</time>
      </trkpt>
      <trkpt lat="42.73653" lon="1.45182">
        <ele>1165.7360839844</ele>
        <time>2011-08-20T05:51:01Z</time>
      </trkpt>
      <trkpt lat="42.73652" lon="1.45183">
        <ele>1166.2165527344</ele>
        <time>2011-08-20T05:51:02Z</time>
      </trkpt>
      <trkpt lat="42.73643" lon="1.45189">
        <ele>1168.6198730469</ele>
        <time>2011-08-20T05:51:08Z</time>
      </trkpt>
      <trkpt lat="42.73634" lon="1.45196">
        <ele>1168.1391601562</ele>
        <time>2011-08-20T05:51:13Z</time>
      </trkpt>
      <trkpt lat="42.73627" lon="1.45203">
        <ele>1166.697265625</ele>
        <time>2011-08-20T05:51:16Z</time>
      </trkpt>
      <trkpt lat="42.7361" lon="1.45209">
        <ele>1162.8518066406</ele>
        <time>2011-08-20T05:51:23Z</time>
      </trkpt>
      <trkpt lat="42.73593" lon="1.45209">
        <ele>1161.4099121094</ele>
        <time>2011-08-20T05:51:29Z</time>
      </trkpt>
      <trkpt lat="42.73574" lon="1.45215">
        <ele>1161.4099121094</ele>
        <time>2011-08-20T05:51:36Z</time>
      </trkpt>
      <trkpt lat="42.73561" lon="1.45219">
        <ele>1161.4099121094</ele>
        <time>2011-08-20T05:51:41Z</time>
      </trkpt>
      <trkpt lat="42.73552" lon="1.4522">
        <ele>1160.9291992188</ele>
        <time>2011-08-20T05:51:45Z</time>
      </trkpt>
      <trkpt lat="42.73541" lon="1.45226">
        <ele>1161.890625</ele>
        <time>2011-08-20T05:51:50Z</time>
      </trkpt>
      <trkpt lat="42.73528" lon="1.45227">
        <ele>1161.4099121094</ele>
        <time>2011-08-20T05:51:55Z</time>
      </trkpt>
      <trkpt lat="42.73513" lon="1.45232">
        <ele>1160.9291992188</ele>
        <time>2011-08-20T05:52:01Z</time>
      </trkpt>
      <trkpt lat="42.73502" lon="1.45238">
        <ele>1161.4099121094</ele>
        <time>2011-08-20T05:52:06Z</time>
      </trkpt>
      <trkpt lat="42.73492" lon="1.45246">
        <ele>1161.890625</ele>
        <time>2011-08-20T05:52:11Z</time>
      </trkpt>
      <trkpt lat="42.73478" lon="1.45254">
        <ele>1161.890625</ele>
        <time>2011-08-20T05:52:17Z</time>
      </trkpt>
      <trkpt lat="42.73464" lon="1.45254">
        <ele>1161.890625</ele>
        <time>2011-08-20T05:52:22Z</time>
      </trkpt>
      <trkpt lat="42.7345" lon="1.45244">
        <ele>1162.37109375</ele>
        <time>2011-08-20T05:52:28Z</time>
      </trkpt>
      <trkpt lat="42.73441" lon="1.45232">
        <ele>1160.9291992188</ele>
        <time>2011-08-20T05:52:33Z</time>
      </trkpt>
      <trkpt lat="42.73427" lon="1.45225">
        <ele>1160.4484863281</ele>
        <time>2011-08-20T05:52:39Z</time>
      </trkpt>
      <trkpt lat="42.73416" lon="1.45217">
        <ele>1159.4873046875</ele>
        <time>2011-08-20T05:52:44Z</time>
      </trkpt>
      <trkpt lat="42.73404" lon="1.45215">
        <ele>1159.0065917969</ele>
        <time>2011-08-20T05:52:49Z</time>
      </trkpt>
      <trkpt lat="42.73392" lon="1.45209">
        <ele>1159.0065917969</ele>
        <time>2011-08-20T05:52:54Z</time>
      </trkpt>
      <trkpt lat="42.7338" lon="1.45211">
        <ele>1162.37109375</ele>
        <time>2011-08-20T05:52:59Z</time>
      </trkpt>
      <trkpt lat="42.73371" lon="1.45211">
        <ele>1161.4099121094</ele>
        <time>2011-08-20T05:53:02Z</time>
      </trkpt>
      <trkpt lat="42.7336" lon="1.45201">
        <ele>1159.0065917969</ele>
        <time>2011-08-20T05:53:07Z</time>
      </trkpt>
      <trkpt lat="42.73352" lon="1.45192">
        <ele>1162.37109375</ele>
        <time>2011-08-20T05:53:11Z</time>
      </trkpt>
      <trkpt lat="42.73343" lon="1.45181">
        <ele>1167.6584472656</ele>
        <time>2011-08-20T05:53:16Z</time>
      </trkpt>
      <trkpt lat="42.73336" lon="1.45171">
        <ele>1167.1779785156</ele>
        <time>2011-08-20T05:53:20Z</time>
      </trkpt>
      <trkpt lat="42.73327" lon="1.45168">
        <ele>1165.7360839844</ele>
        <time>2011-08-20T05:53:24Z</time>
      </trkpt>
      <trkpt lat="42.73323" lon="1.45171">
        <ele>1166.697265625</ele>
        <time>2011-08-20T05:53:26Z</time>
      </trkpt>
      <trkpt lat="42.73322" lon="1.45185">
        <ele>1169.1005859375</ele>
        <time>2011-08-20T05:53:31Z</time>
      </trkpt>
      <trkpt lat="42.73322" lon="1.45186">
        <ele>1169.1005859375</ele>
        <time>2011-08-20T05:53:32Z</time>
      </trkpt>
      <trkpt lat="42.7333" lon="1.45198">
        <ele>1168.1391601562</ele>
        <time>2011-08-20T05:53:37Z</time>
      </trkpt>
      <trkpt lat="42.73335" lon="1.45217">
        <ele>1171.984375</ele>
        <time>2011-08-20T05:53:42Z</time>
      </trkpt>
      <trkpt lat="42.73339" lon="1.45238">
        <ele>1180.6364746094</ele>
        <time>2011-08-20T05:53:47Z</time>
      </trkpt>
      <trkpt lat="42.7334" lon="1.45254">
        <ele>1185.4428710938</ele>
        <time>2011-08-20T05:53:51Z</time>
      </trkpt>
      <trkpt lat="42.73338" lon="1.45272">
        <ele>1188.8076171875</ele>
        <time>2011-08-20T05:53:56Z</time>
      </trkpt>
      <trkpt lat="42.7333" lon="1.45289">
        <ele>1185.4428710938</ele>
        <time>2011-08-20T05:54:02Z</time>
      </trkpt>
      <trkpt lat="42.73325" lon="1.45307">
        <ele>1187.8461914062</ele>
        <time>2011-08-20T05:54:07Z</time>
      </trkpt>
      <trkpt lat="42.73315" lon="1.45327">
        <ele>1184.9624023438</ele>
        <time>2011-08-20T05:54:13Z</time>
      </trkpt>
      <trkpt lat="42.73304" lon="1.45343">
        <ele>1180.6364746094</ele>
        <time>2011-08-20T05:54:19Z</time>
      </trkpt>
      <trkpt lat="42.73294" lon="1.45355">
        <ele>1179.6748046875</ele>
        <time>2011-08-20T05:54:24Z</time>
      </trkpt>
      <trkpt lat="42.73284" lon="1.45367">
        <ele>1177.7521972656</ele>
        <time>2011-08-20T05:54:29Z</time>
      </trkpt>
      <trkpt lat="42.73273" lon="1.45378">
        <ele>1174.3876953125</ele>
        <time>2011-08-20T05:54:34Z</time>
      </trkpt>
      <trkpt lat="42.73261" lon="1.45379">
        <ele>1170.5424804688</ele>
        <time>2011-08-20T05:54:38Z</time>
      </trkpt>
      <trkpt lat="42.73248" lon="1.45375">
        <ele>1166.2165527344</ele>
        <time>2011-08-20T05:54:43Z</time>
      </trkpt>
      <trkpt lat="42.73239" lon="1.45375">
        <ele>1163.8129882812</ele>
        <time>2011-08-20T05:54:46Z</time>
      </trkpt>
      <trkpt lat="42.73223" lon="1.45375">
        <ele>1161.4099121094</ele>
        <time>2011-08-20T05:54:52Z</time>
      </trkpt>
      <trkpt lat="42.73217" lon="1.45373">
        <ele>1160.9291992188</ele>
        <time>2011-08-20T05:54:54Z</time>
      </trkpt>
      <trkpt lat="42.73209" lon="1.45369">
        <ele>1161.890625</ele>
        <time>2011-08-20T05:54:59Z</time>
      </trkpt>
      <trkpt lat="42.73204" lon="1.45364">
        <ele>1160.9291992188</ele>
        <time>2011-08-20T05:55:06Z</time>
      </trkpt>
      <trkpt lat="42.73197" lon="1.45352">
        <ele>1162.37109375</ele>
        <time>2011-08-20T05:55:10Z</time>
      </trkpt>
      <trkpt lat="42.73185" lon="1.4534">
        <ele>1162.8518066406</ele>
        <time>2011-08-20T05:55:16Z</time>
      </trkpt>
      <trkpt lat="42.73175" lon="1.45333">
        <ele>1161.4099121094</ele>
        <time>2011-08-20T05:55:20Z</time>
      </trkpt>
      <trkpt lat="42.73164" lon="1.45323">
        <ele>1160.4484863281</ele>
        <time>2011-08-20T05:55:25Z</time>
      </trkpt>
      <trkpt lat="42.73151" lon="1.45314">
        <ele>1160.4484863281</ele>
        <time>2011-08-20T05:55:31Z</time>
      </trkpt>
      <trkpt lat="42.73139" lon="1.45301">
        <ele>1161.4099121094</ele>
        <time>2011-08-20T05:55:37Z</time>
      </trkpt>
      <trkpt lat="42.73128" lon="1.45286">
        <ele>1161.890625</ele>
        <time>2011-08-20T05:55:43Z</time>
      </trkpt>
      <trkpt lat="42.73117" lon="1.4527">
        <ele>1161.4099121094</ele>
        <time>2011-08-20T05:55:49Z</time>
      </trkpt>
      <trkpt lat="42.7311" lon="1.45259">
        <ele>1162.37109375</ele>
        <time>2011-08-20T05:55:53Z</time>
      </trkpt>
      <trkpt lat="42.73101" lon="1.45243">
        <ele>1164.7746582031</ele>
        <time>2011-08-20T05:55:59Z</time>
      </trkpt>
      <trkpt lat="42.73096" lon="1.45235">
        <ele>1165.2553710938</ele>
        <time>2011-08-20T05:56:02Z</time>
      </trkpt>
      <trkpt lat="42.73082" lon="1.45225">
        <ele>1164.7746582031</ele>
        <time>2011-08-20T05:56:08Z</time>
      </trkpt>
      <trkpt lat="42.73074" lon="1.45216">
        <ele>1165.2553710938</ele>
        <time>2011-08-20T05:56:12Z</time>
      </trkpt>
      <trkpt lat="42.73065" lon="1.45208">
        <ele>1165.2553710938</ele>
        <time>2011-08-20T05:56:16Z</time>
      </trkpt>
      <trkpt lat="42.73052" lon="1.45199">
        <ele>1166.697265625</ele>
        <time>2011-08-20T05:56:22Z</time>
      </trkpt>
      <trkpt lat="42.73048" lon="1.45195">
        <ele>1167.6584472656</ele>
        <time>2011-08-20T05:56:24Z</time>
      </trkpt>
      <trkpt lat="42.73033" lon="1.45179">
        <ele>1166.697265625</ele>
        <time>2011-08-20T05:56:31Z</time>
      </trkpt>
      <trkpt lat="42.73022" lon="1.45168">
        <ele>1166.2165527344</ele>
        <time>2011-08-20T05:56:36Z</time>
      </trkpt>
      <trkpt lat="42.73007" lon="1.45154">
        <ele>1163.3325195312</ele>
        <time>2011-08-20T05:56:43Z</time>
      </trkpt>
      <trkpt lat="42.72994" lon="1.45141">
        <ele>1161.4099121094</ele>
        <time>2011-08-20T05:56:49Z</time>
      </trkpt>
      <trkpt lat="42.72983" lon="1.45128">
        <ele>1162.37109375</ele>
        <time>2011-08-20T05:56:55Z</time>
      </trkpt>
      <trkpt lat="42.72971" lon="1.45114">
        <ele>1163.3325195312</ele>
        <time>2011-08-20T05:57:01Z</time>
      </trkpt>
      <trkpt lat="42.72961" lon="1.45103">
        <ele>1164.7746582031</ele>
        <time>2011-08-20T05:57:06Z</time>
      </trkpt>
      <trkpt lat="42.72949" lon="1.45092">
        <ele>1165.7360839844</ele>
        <time>2011-08-20T05:57:12Z</time>
      </trkpt>
      <trkpt lat="42.72936" lon="1.45084">
        <ele>1164.7746582031</ele>
        <time>2011-08-20T05:57:18Z</time>
      </trkpt>
      <trkpt lat="42.72924" lon="1.45077">
        <ele>1164.7746582031</ele>
        <time>2011-08-20T05:57:24Z</time>
      </trkpt>
      <trkpt lat="42.7291" lon="1.45075">
        <ele>1164.2939453125</ele>
        <time>2011-08-20T05:57:29Z</time>
      </trkpt>
      <trkpt lat="42.72907" lon="1.45075">
        <ele>1164.2939453125</ele>
        <time>2011-08-20T05:57:30Z</time>
      </trkpt>
      <trkpt lat="42.72888" lon="1.45064">
        <ele>1164.7746582031</ele>
        <time>2011-08-20T05:57:38Z</time>
      </trkpt>
      <trkpt lat="42.72872" lon="1.45059">
        <ele>1163.3325195312</ele>
        <time>2011-08-20T05:57:44Z</time>
      </trkpt>
      <trkpt lat="42.72858" lon="1.45054">
        <ele>1163.3325195312</ele>
        <time>2011-08-20T05:57:49Z</time>
      </trkpt>
      <trkpt lat="42.72853" lon="1.45051">
        <ele>1162.8518066406</ele>
        <time>2011-08-20T05:57:51Z</time>
      </trkpt>
      <trkpt lat="42.72841" lon="1.45037">
        <ele>1165.7360839844</ele>
        <time>2011-08-20T05:57:57Z</time>
      </trkpt>
      <trkpt lat="42.72834" lon="1.45024">
        <ele>1167.1779785156</ele>
        <time>2011-08-20T05:58:02Z</time>
      </trkpt>
      <trkpt lat="42.72829" lon="1.45012">
        <ele>1166.2165527344</ele>
        <time>2011-08-20T05:58:06Z</time>
      </trkpt>
      <trkpt lat="42.72822" lon="1.44998">
        <ele>1168.1391601562</ele>
        <time>2011-08-20T05:58:11Z</time>
      </trkpt>
      <trkpt lat="42.72815" lon="1.44984">
        <ele>1169.5812988281</ele>
        <time>2011-08-20T05:58:16Z</time>
      </trkpt>
      <trkpt lat="42.7281" lon="1.44969">
        <ele>1170.5424804688</ele>
        <time>2011-08-20T05:58:21Z</time>
      </trkpt>
      <trkpt lat="42.72803" lon="1.44954">
        <ele>1175.8295898438</ele>
        <time>2011-08-20T05:58:26Z</time>
      </trkpt>
      <trkpt lat="42.72798" lon="1.44937">
        <ele>1175.3488769531</ele>
        <time>2011-08-20T05:58:31Z</time>
      </trkpt>
      <trkpt lat="42.72794" lon="1.44922">
        <ele>1175.8295898438</ele>
        <time>2011-08-20T05:58:36Z</time>
      </trkpt>
      <trkpt lat="42.72792" lon="1.44904">
        <ele>1175.8295898438</ele>
        <time>2011-08-20T05:58:41Z</time>
      </trkpt>
      <trkpt lat="42.7279" lon="1.44886">
        <ele>1175.8295898438</ele>
        <time>2011-08-20T05:58:46Z</time>
      </trkpt>
      <trkpt lat="42.72787" lon="1.44868">
        <ele>1178.7136230469</ele>
        <time>2011-08-20T05:58:52Z</time>
      </trkpt>
      <trkpt lat="42.72782" lon="1.4485">
        <ele>1183.5202636719</ele>
        <time>2011-08-20T05:58:58Z</time>
      </trkpt>
      <trkpt lat="42.72778" lon="1.44834">
        <ele>1178.7136230469</ele>
        <time>2011-08-20T05:59:03Z</time>
      </trkpt>
      <trkpt lat="42.72772" lon="1.44817">
        <ele>1174.8684082031</ele>
        <time>2011-08-20T05:59:08Z</time>
      </trkpt>
      <trkpt lat="42.72771" lon="1.448">
        <ele>1174.8684082031</ele>
        <time>2011-08-20T05:59:13Z</time>
      </trkpt>
      <trkpt lat="42.72772" lon="1.44779">
        <ele>1176.3103027344</ele>
        <time>2011-08-20T05:59:19Z</time>
      </trkpt>
      <trkpt lat="42.72776" lon="1.44758">
        <ele>1172.4650878906</ele>
        <time>2011-08-20T05:59:25Z</time>
      </trkpt>
      <trkpt lat="42.7278" lon="1.44741">
        <ele>1171.0231933594</ele>
        <time>2011-08-20T05:59:30Z</time>
      </trkpt>
      <trkpt lat="42.72784" lon="1.44715">
        <ele>1168.1391601562</ele>
        <time>2011-08-20T05:59:37Z</time>
      </trkpt>
      <trkpt lat="42.72789" lon="1.44698">
        <ele>1167.6584472656</ele>
        <time>2011-08-20T05:59:42Z</time>
      </trkpt>
      <trkpt lat="42.72798" lon="1.44683">
        <ele>1167.1779785156</ele>
        <time>2011-08-20T05:59:48Z</time>
      </trkpt>
      <trkpt lat="42.72802" lon="1.44677">
        <ele>1166.2165527344</ele>
        <time>2011-08-20T05:59:50Z</time>
      </trkpt>
      <trkpt lat="42.72799" lon="1.44666">
        <ele>1165.2553710938</ele>
        <time>2011-08-20T05:59:54Z</time>
      </trkpt>
      <trkpt lat="42.72786" lon="1.44665">
        <ele>1175.3488769531</ele>
        <time>2011-08-20T05:59:59Z</time>
      </trkpt>
      <trkpt lat="42.72778" lon="1.4467">
        <ele>1182.5590820312</ele>
        <time>2011-08-20T06:00:03Z</time>
      </trkpt>
      <trkpt lat="42.72771" lon="1.44688">
        <ele>1193.6140136719</ele>
        <time>2011-08-20T06:00:09Z</time>
      </trkpt>
      <trkpt lat="42.72765" lon="1.447">
        <ele>1198.4206542969</ele>
        <time>2011-08-20T06:00:13Z</time>
      </trkpt>
      <trkpt lat="42.72763" lon="1.44703">
        <ele>1199.8627929688</ele>
        <time>2011-08-20T06:00:14Z</time>
      </trkpt>
      <trkpt lat="42.72747" lon="1.44712">
        <ele>1203.7080078125</ele>
        <time>2011-08-20T06:00:21Z</time>
      </trkpt>
      <trkpt lat="42.72732" lon="1.44713">
        <ele>1196.9787597656</ele>
        <time>2011-08-20T06:00:27Z</time>
      </trkpt>
      <trkpt lat="42.72722" lon="1.44717">
        <ele>1189.7687988281</ele>
        <time>2011-08-20T06:00:31Z</time>
      </trkpt>
      <trkpt lat="42.72708" lon="1.44725">
        <ele>1185.4428710938</ele>
        <time>2011-08-20T06:00:37Z</time>
      </trkpt>
      <trkpt lat="42.72699" lon="1.4474">
        <ele>1188.8076171875</ele>
        <time>2011-08-20T06:00:43Z</time>
      </trkpt>
      <trkpt lat="42.72687" lon="1.44753">
        <ele>1188.3269042969</ele>
        <time>2011-08-20T06:00:49Z</time>
      </trkpt>
      <trkpt lat="42.72679" lon="1.4476">
        <ele>1186.404296875</ele>
        <time>2011-08-20T06:00:53Z</time>
      </trkpt>
      <trkpt lat="42.72668" lon="1.44778">
        <ele>1186.404296875</ele>
        <time>2011-08-20T06:01:00Z</time>
      </trkpt>
      <trkpt lat="42.72659" lon="1.44795">
        <ele>1184.9624023438</ele>
        <time>2011-08-20T06:01:06Z</time>
      </trkpt>
      <trkpt lat="42.72655" lon="1.44807">
        <ele>1185.9235839844</ele>
        <time>2011-08-20T06:01:10Z</time>
      </trkpt>
      <trkpt lat="42.72648" lon="1.44821">
        <ele>1184.9624023438</ele>
        <time>2011-08-20T06:01:15Z</time>
      </trkpt>
      <trkpt lat="42.72639" lon="1.44828">
        <ele>1183.0395507812</ele>
        <time>2011-08-20T06:01:19Z</time>
      </trkpt>
      <trkpt lat="42.72628" lon="1.44836">
        <ele>1180.1557617188</ele>
        <time>2011-08-20T06:01:24Z</time>
      </trkpt>
      <trkpt lat="42.72616" lon="1.44843">
        <ele>1176.791015625</ele>
        <time>2011-08-20T06:01:29Z</time>
      </trkpt>
      <trkpt lat="42.72602" lon="1.4485">
        <ele>1172.9458007812</ele>
        <time>2011-08-20T06:01:35Z</time>
      </trkpt>
      <trkpt lat="42.72588" lon="1.44849">
        <ele>1170.0617675781</ele>
        <time>2011-08-20T06:01:40Z</time>
      </trkpt>
      <trkpt lat="42.72576" lon="1.44844">
        <ele>1166.2165527344</ele>
        <time>2011-08-20T06:01:45Z</time>
      </trkpt>
      <trkpt lat="42.72565" lon="1.44835">
        <ele>1164.7746582031</ele>
        <time>2011-08-20T06:01:50Z</time>
      </trkpt>
      <trkpt lat="42.72556" lon="1.44824">
        <ele>1165.2553710938</ele>
        <time>2011-08-20T06:01:55Z</time>
      </trkpt>
      <trkpt lat="42.72549" lon="1.4482">
        <ele>1163.3325195312</ele>
        <time>2011-08-20T06:01:58Z</time>
      </trkpt>
      <trkpt lat="42.72539" lon="1.44827">
        <ele>1164.7746582031</ele>
        <time>2011-08-20T06:02:03Z</time>
      </trkpt>
      <trkpt lat="42.72526" lon="1.44827">
        <ele>1160.4484863281</ele>
        <time>2011-08-20T06:02:08Z</time>
      </trkpt>
      <trkpt lat="42.72514" lon="1.44818">
        <ele>1156.6032714844</ele>
        <time>2011-08-20T06:02:13Z</time>
      </trkpt>
      <trkpt lat="42.72512" lon="1.44816">
        <ele>1157.083984375</ele>
        <time>2011-08-20T06:02:14Z</time>
      </trkpt>
      <trkpt lat="42.72495" lon="1.4481">
        <ele>1157.083984375</ele>
        <time>2011-08-20T06:02:21Z</time>
      </trkpt>
      <trkpt lat="42.72492" lon="1.4481">
        <ele>1157.083984375</ele>
        <time>2011-08-20T06:02:22Z</time>
      </trkpt>
      <trkpt lat="42.72485" lon="1.44805">
        <ele>1157.083984375</ele>
        <time>2011-08-20T06:02:26Z</time>
      </trkpt>
      <trkpt lat="42.72472" lon="1.448">
        <ele>1158.0454101562</ele>
        <time>2011-08-20T06:02:32Z</time>
      </trkpt>
      <trkpt lat="42.7246" lon="1.44796">
        <ele>1158.5258789062</ele>
        <time>2011-08-20T06:02:37Z</time>
      </trkpt>
      <trkpt lat="42.7245" lon="1.44792">
        <ele>1164.2939453125</ele>
        <time>2011-08-20T06:02:41Z</time>
      </trkpt>
      <trkpt lat="42.72434" lon="1.44788">
        <ele>1171.5036621094</ele>
        <time>2011-08-20T06:02:47Z</time>
      </trkpt>
      <trkpt lat="42.72433" lon="1.44787">
        <ele>1173.9069824219</ele>
        <time>2011-08-20T06:02:48Z</time>
      </trkpt>
      <trkpt lat="42.72421" lon="1.44787">
        <ele>1179.1940917969</ele>
        <time>2011-08-20T06:02:53Z</time>
      </trkpt>
      <trkpt lat="42.72403" lon="1.44778">
        <ele>1179.1940917969</ele>
        <time>2011-08-20T06:03:00Z</time>
      </trkpt>
      <trkpt lat="42.72392" lon="1.44767">
        <ele>1172.9458007812</ele>
        <time>2011-08-20T06:03:05Z</time>
      </trkpt>
      <trkpt lat="42.72379" lon="1.44765">
        <ele>1172.4650878906</ele>
        <time>2011-08-20T06:03:10Z</time>
      </trkpt>
      <trkpt lat="42.72373" lon="1.44763">
        <ele>1171.5036621094</ele>
        <time>2011-08-20T06:03:12Z</time>
      </trkpt>
      <trkpt lat="42.72363" lon="1.44753">
        <ele>1169.5812988281</ele>
        <time>2011-08-20T06:03:17Z</time>
      </trkpt>
      <trkpt lat="42.72358" lon="1.44748">
        <ele>1167.6584472656</ele>
        <time>2011-08-20T06:03:19Z</time>
      </trkpt>
      <trkpt lat="42.7234" lon="1.44741">
        <ele>1164.2939453125</ele>
        <time>2011-08-20T06:03:26Z</time>
      </trkpt>
      <trkpt lat="42.72327" lon="1.44742">
        <ele>1163.3325195312</ele>
        <time>2011-08-20T06:03:31Z</time>
      </trkpt>
      <trkpt lat="42.72316" lon="1.44736">
        <ele>1161.4099121094</ele>
        <time>2011-08-20T06:03:36Z</time>
      </trkpt>
      <trkpt lat="42.72301" lon="1.44726">
        <ele>1157.5646972656</ele>
        <time>2011-08-20T06:03:42Z</time>
      </trkpt>
      <trkpt lat="42.72285" lon="1.44713">
        <ele>1160.4484863281</ele>
        <time>2011-08-20T06:03:49Z</time>
      </trkpt>
      <trkpt lat="42.72273" lon="1.44701">
        <ele>1159.4873046875</ele>
        <time>2011-08-20T06:03:55Z</time>
      </trkpt>
      <trkpt lat="42.72259" lon="1.44694">
        <ele>1155.1613769531</ele>
        <time>2011-08-20T06:04:01Z</time>
      </trkpt>
      <trkpt lat="42.72246" lon="1.44692">
        <ele>1154.2001953125</ele>
        <time>2011-08-20T06:04:06Z</time>
      </trkpt>
      <trkpt lat="42.72232" lon="1.4469">
        <ele>1158.0454101562</ele>
        <time>2011-08-20T06:04:12Z</time>
      </trkpt>
      <trkpt lat="42.72218" lon="1.44681">
        <ele>1158.5258789062</ele>
        <time>2011-08-20T06:04:18Z</time>
      </trkpt>
      <trkpt lat="42.72207" lon="1.44667">
        <ele>1160.4484863281</ele>
        <time>2011-08-20T06:04:24Z</time>
      </trkpt>
      <trkpt lat="42.72198" lon="1.44656">
        <ele>1161.890625</ele>
        <time>2011-08-20T06:04:29Z</time>
      </trkpt>
      <trkpt lat="42.72185" lon="1.44652">
        <ele>1161.890625</ele>
        <time>2011-08-20T06:04:34Z</time>
      </trkpt>
      <trkpt lat="42.72173" lon="1.44651">
        <ele>1161.4099121094</ele>
        <time>2011-08-20T06:04:39Z</time>
      </trkpt>
      <trkpt lat="42.7216" lon="1.44646">
        <ele>1161.4099121094</ele>
        <time>2011-08-20T06:04:44Z</time>
      </trkpt>
      <trkpt lat="42.72146" lon="1.4464">
        <ele>1162.37109375</ele>
        <time>2011-08-20T06:04:50Z</time>
      </trkpt>
      <trkpt lat="42.72133" lon="1.44636">
        <ele>1164.2939453125</ele>
        <time>2011-08-20T06:04:55Z</time>
      </trkpt>
      <trkpt lat="42.72123" lon="1.44632">
        <ele>1164.7746582031</ele>
        <time>2011-08-20T06:04:59Z</time>
      </trkpt>
      <trkpt lat="42.7211" lon="1.44624">
        <ele>1168.6198730469</ele>
        <time>2011-08-20T06:05:05Z</time>
      </trkpt>
      <trkpt lat="42.72099" lon="1.44625">
        <ele>1170.5424804688</ele>
        <time>2011-08-20T06:05:09Z</time>
      </trkpt>
      <trkpt lat="42.72089" lon="1.44623">
        <ele>1170.5424804688</ele>
        <time>2011-08-20T06:05:15Z</time>
      </trkpt>
      <trkpt lat="42.72089" lon="1.44621">
        <ele>1171.0231933594</ele>
        <time>2011-08-20T06:05:21Z</time>
      </trkpt>
      <trkpt lat="42.72085" lon="1.44621">
        <ele>1171.5036621094</ele>
        <time>2011-08-20T06:05:24Z</time>
      </trkpt>
      <trkpt lat="42.72072" lon="1.44612">
        <ele>1171.0231933594</ele>
        <time>2011-08-20T06:05:30Z</time>
      </trkpt>
      <trkpt lat="42.7206" lon="1.4461">
        <ele>1171.984375</ele>
        <time>2011-08-20T06:05:35Z</time>
      </trkpt>
      <trkpt lat="42.72053" lon="1.44626">
        <ele>1174.3876953125</ele>
        <time>2011-08-20T06:05:41Z</time>
      </trkpt>
      <trkpt lat="42.72052" lon="1.4463">
        <ele>1177.2717285156</ele>
        <time>2011-08-20T06:05:42Z</time>
      </trkpt>
      <trkpt lat="42.72041" lon="1.44639">
        <ele>1181.1171875</ele>
        <time>2011-08-20T06:05:48Z</time>
      </trkpt>
      <trkpt lat="42.72031" lon="1.44642">
        <ele>1184.0009765625</ele>
        <time>2011-08-20T06:05:53Z</time>
      </trkpt>
      <trkpt lat="42.72028" lon="1.44667">
        <ele>1193.6140136719</ele>
        <time>2011-08-20T06:05:58Z</time>
      </trkpt>
      <trkpt lat="42.72015" lon="1.44687">
        <ele>1200.8239746094</ele>
        <time>2011-08-20T06:06:04Z</time>
      </trkpt>
      <trkpt lat="42.72" lon="1.4468">
        <ele>1186.884765625</ele>
        <time>2011-08-20T06:06:08Z</time>
      </trkpt>
      <trkpt lat="42.71981" lon="1.44675">
        <ele>1180.6364746094</ele>
        <time>2011-08-20T06:06:14Z</time>
      </trkpt>
      <trkpt lat="42.71971" lon="1.44673">
        <ele>1178.2329101562</ele>
        <time>2011-08-20T06:06:18Z</time>
      </trkpt>
      <trkpt lat="42.71958" lon="1.44684">
        <ele>1176.791015625</ele>
        <time>2011-08-20T06:06:24Z</time>
      </trkpt>
      <trkpt lat="42.71946" lon="1.44692">
        <ele>1174.3876953125</ele>
        <time>2011-08-20T06:06:29Z</time>
      </trkpt>
      <trkpt lat="42.71931" lon="1.44693">
        <ele>1173.4265136719</ele>
        <time>2011-08-20T06:06:35Z</time>
      </trkpt>
      <trkpt lat="42.71921" lon="1.4468">
        <ele>1171.5036621094</ele>
        <time>2011-08-20T06:06:40Z</time>
      </trkpt>
      <trkpt lat="42.71917" lon="1.44665">
        <ele>1170.5424804688</ele>
        <time>2011-08-20T06:06:45Z</time>
      </trkpt>
      <trkpt lat="42.7192" lon="1.44652">
        <ele>1168.1391601562</ele>
        <time>2011-08-20T06:06:50Z</time>
      </trkpt>
      <trkpt lat="42.71922" lon="1.44633">
        <ele>1169.5812988281</ele>
        <time>2011-08-20T06:06:56Z</time>
      </trkpt>
      <trkpt lat="42.71922" lon="1.44617">
        <ele>1177.2717285156</ele>
        <time>2011-08-20T06:07:02Z</time>
      </trkpt>
      <trkpt lat="42.71922" lon="1.44597">
        <ele>1182.5590820312</ele>
        <time>2011-08-20T06:07:08Z</time>
      </trkpt>
      <trkpt lat="42.71919" lon="1.44581">
        <ele>1181.1171875</ele>
        <time>2011-08-20T06:07:14Z</time>
      </trkpt>
      <trkpt lat="42.71918" lon="1.44566">
        <ele>1181.1171875</ele>
        <time>2011-08-20T06:07:19Z</time>
      </trkpt>
      <trkpt lat="42.71918" lon="1.44562">
        <ele>1181.1171875</ele>
        <time>2011-08-20T06:07:20Z</time>
      </trkpt>
      <trkpt lat="42.71914" lon="1.44544">
        <ele>1178.7136230469</ele>
        <time>2011-08-20T06:07:25Z</time>
      </trkpt>
      <trkpt lat="42.71908" lon="1.44527">
        <ele>1178.2329101562</ele>
        <time>2011-08-20T06:07:30Z</time>
      </trkpt>
      <trkpt lat="42.71899" lon="1.44506">
        <ele>1173.9069824219</ele>
        <time>2011-08-20T06:07:36Z</time>
      </trkpt>
      <trkpt lat="42.71898" lon="1.44503">
        <ele>1172.9458007812</ele>
        <time>2011-08-20T06:07:37Z</time>
      </trkpt>
      <trkpt lat="42.71893" lon="1.4448">
        <ele>1172.4650878906</ele>
        <time>2011-08-20T06:07:43Z</time>
      </trkpt>
      <trkpt lat="42.71889" lon="1.44466">
        <ele>1179.6748046875</ele>
        <time>2011-08-20T06:07:47Z</time>
      </trkpt>
      <trkpt lat="42.71889" lon="1.44454">
        <ele>1187.3654785156</ele>
        <time>2011-08-20T06:07:51Z</time>
      </trkpt>
      <trkpt lat="42.71888" lon="1.44437">
        <ele>1205.1499023438</ele>
        <time>2011-08-20T06:07:58Z</time>
      </trkpt>
      <trkpt lat="42.7189" lon="1.44421">
        <ele>1200.8239746094</ele>
        <time>2011-08-20T06:08:04Z</time>
      </trkpt>
      <trkpt lat="42.7189" lon="1.44403">
        <ele>1198.4206542969</ele>
        <time>2011-08-20T06:08:10Z</time>
      </trkpt>
      <trkpt lat="42.71888" lon="1.4438">
        <ele>1188.3269042969</ele>
        <time>2011-08-20T06:08:17Z</time>
      </trkpt>
      <trkpt lat="42.71885" lon="1.44361">
        <ele>1179.1940917969</ele>
        <time>2011-08-20T06:08:23Z</time>
      </trkpt>
      <trkpt lat="42.71881" lon="1.44342">
        <ele>1174.8684082031</ele>
        <time>2011-08-20T06:08:29Z</time>
      </trkpt>
      <trkpt lat="42.71878" lon="1.44329">
        <ele>1177.2717285156</ele>
        <time>2011-08-20T06:08:33Z</time>
      </trkpt>
      <trkpt lat="42.71874" lon="1.44312">
        <ele>1183.5202636719</ele>
        <time>2011-08-20T06:08:38Z</time>
      </trkpt>
      <trkpt lat="42.7187" lon="1.44293">
        <ele>1181.1171875</ele>
        <time>2011-08-20T06:08:44Z</time>
      </trkpt>
      <trkpt lat="42.71868" lon="1.44281">
        <ele>1183.5202636719</ele>
        <time>2011-08-20T06:08:48Z</time>
      </trkpt>
      <trkpt lat="42.71868" lon="1.44262">
        <ele>1180.1557617188</ele>
        <time>2011-08-20T06:08:54Z</time>
      </trkpt>
      <trkpt lat="42.71871" lon="1.4424">
        <ele>1182.5590820312</ele>
        <time>2011-08-20T06:09:01Z</time>
      </trkpt>
      <trkpt lat="42.71872" lon="1.44223">
        <ele>1183.0395507812</ele>
        <time>2011-08-20T06:09:06Z</time>
      </trkpt>
      <trkpt lat="42.7187" lon="1.44202">
        <ele>1186.404296875</ele>
        <time>2011-08-20T06:09:13Z</time>
      </trkpt>
      <trkpt lat="42.71869" lon="1.44184">
        <ele>1188.3269042969</ele>
        <time>2011-08-20T06:09:19Z</time>
      </trkpt>
      <trkpt lat="42.71868" lon="1.44164">
        <ele>1202.7465820312</ele>
        <time>2011-08-20T06:09:26Z</time>
      </trkpt>
      <trkpt lat="42.71869" lon="1.44148">
        <ele>1209.9562988281</ele>
        <time>2011-08-20T06:09:31Z</time>
      </trkpt>
      <trkpt lat="42.7187" lon="1.44138">
        <ele>1217.1665039062</ele>
        <time>2011-08-20T06:09:36Z</time>
      </trkpt>
      <trkpt lat="42.71872" lon="1.44128">
        <ele>1220.5310058594</ele>
        <time>2011-08-20T06:09:41Z</time>
      </trkpt>
      <trkpt lat="42.71874" lon="1.44117">
        <ele>1226.298828125</ele>
        <time>2011-08-20T06:09:48Z</time>
      </trkpt>
      <trkpt lat="42.71877" lon="1.44108">
        <ele>1230.1442871094</ele>
        <time>2011-08-20T06:09:53Z</time>
      </trkpt>
      <trkpt lat="42.71878" lon="1.44099">
        <ele>1234.9509277344</ele>
        <time>2011-08-20T06:09:59Z</time>
      </trkpt>
      <trkpt lat="42.7188" lon="1.4409">
        <ele>1237.8347167969</ele>
        <time>2011-08-20T06:10:05Z</time>
      </trkpt>
      <trkpt lat="42.71881" lon="1.44081">
        <ele>1238.7961425781</ele>
        <time>2011-08-20T06:10:09Z</time>
      </trkpt>
      <trkpt lat="42.71882" lon="1.44073">
        <ele>1236.3928222656</ele>
        <time>2011-08-20T06:10:14Z</time>
      </trkpt>
      <trkpt lat="42.71883" lon="1.44062">
        <ele>1243.1218261719</ele>
        <time>2011-08-20T06:10:20Z</time>
      </trkpt>
      <trkpt lat="42.71886" lon="1.44043">
        <ele>1240.7185058594</ele>
        <time>2011-08-20T06:10:31Z</time>
      </trkpt>
      <trkpt lat="42.71887" lon="1.4403">
        <ele>1244.5639648438</ele>
        <time>2011-08-20T06:10:39Z</time>
      </trkpt>
      <trkpt lat="42.71888" lon="1.44017">
        <ele>1251.7739257812</ele>
        <time>2011-08-20T06:10:47Z</time>
      </trkpt>
      <trkpt lat="42.71889" lon="1.44007">
        <ele>1254.1772460938</ele>
        <time>2011-08-20T06:10:53Z</time>
      </trkpt>
      <trkpt lat="42.71889" lon="1.43994">
        <ele>1256.099609375</ele>
        <time>2011-08-20T06:11:00Z</time>
      </trkpt>
      <trkpt lat="42.71891" lon="1.43979">
        <ele>1244.5639648438</ele>
        <time>2011-08-20T06:11:08Z</time>
      </trkpt>
      <trkpt lat="42.71891" lon="1.43971">
        <ele>1241.19921875</ele>
        <time>2011-08-20T06:11:12Z</time>
      </trkpt>
      <trkpt lat="42.71894" lon="1.43963">
        <ele>1234.9509277344</ele>
        <time>2011-08-20T06:11:16Z</time>
      </trkpt>
      <trkpt lat="42.71896" lon="1.43952">
        <ele>1228.7023925781</ele>
        <time>2011-08-20T06:11:22Z</time>
      </trkpt>
      <trkpt lat="42.71898" lon="1.4394">
        <ele>1227.7407226562</ele>
        <time>2011-08-20T06:11:28Z</time>
      </trkpt>
      <trkpt lat="42.71896" lon="1.43929">
        <ele>1236.8732910156</ele>
        <time>2011-08-20T06:11:34Z</time>
      </trkpt>
      <trkpt lat="42.71895" lon="1.43918">
        <ele>1246.4868164062</ele>
        <time>2011-08-20T06:11:41Z</time>
      </trkpt>
      <trkpt lat="42.71899" lon="1.439">
        <ele>1240.2380371094</ele>
        <time>2011-08-20T06:11:51Z</time>
      </trkpt>
      <trkpt lat="42.71905" lon="1.43885">
        <ele>1224.8569335938</ele>
        <time>2011-08-20T06:11:58Z</time>
      </trkpt>
      <trkpt lat="42.71907" lon="1.43876">
        <ele>1217.6469726562</ele>
        <time>2011-08-20T06:12:04Z</time>
      </trkpt>
      <trkpt lat="42.71909" lon="1.43864">
        <ele>1215.724609375</ele>
        <time>2011-08-20T06:12:10Z</time>
      </trkpt>
      <trkpt lat="42.7191" lon="1.43848">
        <ele>1216.6857910156</ele>
        <time>2011-08-20T06:12:19Z</time>
      </trkpt>
      <trkpt lat="42.71911" lon="1.43837">
        <ele>1218.1276855469</ele>
        <time>2011-08-20T06:12:26Z</time>
      </trkpt>
      <trkpt lat="42.71912" lon="1.43821">
        <ele>1220.5310058594</ele>
        <time>2011-08-20T06:12:35Z</time>
      </trkpt>
      <trkpt lat="42.71914" lon="1.43806">
        <ele>1222.9343261719</ele>
        <time>2011-08-20T06:12:43Z</time>
      </trkpt>
      <trkpt lat="42.71914" lon="1.43792">
        <ele>1224.8569335938</ele>
        <time>2011-08-20T06:12:51Z</time>
      </trkpt>
      <trkpt lat="42.71914" lon="1.4378">
        <ele>1225.3374023438</ele>
        <time>2011-08-20T06:12:58Z</time>
      </trkpt>
      <trkpt lat="42.71912" lon="1.43769">
        <ele>1229.6635742188</ele>
        <time>2011-08-20T06:13:05Z</time>
      </trkpt>
      <trkpt lat="42.71911" lon="1.43762">
        <ele>1234.4702148438</ele>
        <time>2011-08-20T06:13:12Z</time>
      </trkpt>
      <trkpt lat="42.71909" lon="1.43751">
        <ele>1240.7185058594</ele>
        <time>2011-08-20T06:13:19Z</time>
      </trkpt>
      <trkpt lat="42.71907" lon="1.43735">
        <ele>1238.3154296875</ele>
        <time>2011-08-20T06:13:26Z</time>
      </trkpt>
      <trkpt lat="42.71906" lon="1.43711">
        <ele>1237.3540039062</ele>
        <time>2011-08-20T06:13:33Z</time>
      </trkpt>
      <trkpt lat="42.71899" lon="1.43701">
        <ele>1235.912109375</ele>
        <time>2011-08-20T06:13:38Z</time>
      </trkpt>
      <trkpt lat="42.71889" lon="1.43693">
        <ele>1233.0280761719</ele>
        <time>2011-08-20T06:13:43Z</time>
      </trkpt>
      <trkpt lat="42.71886" lon="1.4368">
        <ele>1231.5861816406</ele>
        <time>2011-08-20T06:13:47Z</time>
      </trkpt>
      <trkpt lat="42.71884" lon="1.43666">
        <ele>1232.5476074219</ele>
        <time>2011-08-20T06:13:53Z</time>
      </trkpt>
      <trkpt lat="42.71881" lon="1.43651">
        <ele>1233.0280761719</ele>
        <time>2011-08-20T06:14:01Z</time>
      </trkpt>
      <trkpt lat="42.71876" lon="1.43639">
        <ele>1232.5476074219</ele>
        <time>2011-08-20T06:14:06Z</time>
      </trkpt>
      <trkpt lat="42.71864" lon="1.43628">
        <ele>1231.1057128906</ele>
        <time>2011-08-20T06:14:11Z</time>
      </trkpt>
      <trkpt lat="42.71856" lon="1.43616">
        <ele>1230.1442871094</ele>
        <time>2011-08-20T06:14:16Z</time>
      </trkpt>
      <trkpt lat="42.71846" lon="1.43605">
        <ele>1227.7407226562</ele>
        <time>2011-08-20T06:14:21Z</time>
      </trkpt>
      <trkpt lat="42.71834" lon="1.4359">
        <ele>1226.7795410156</ele>
        <time>2011-08-20T06:14:28Z</time>
      </trkpt>
      <trkpt lat="42.71828" lon="1.43579">
        <ele>1227.2602539062</ele>
        <time>2011-08-20T06:14:32Z</time>
      </trkpt>
      <trkpt lat="42.71822" lon="1.43562">
        <ele>1227.2602539062</ele>
        <time>2011-08-20T06:14:38Z</time>
      </trkpt>
      <trkpt lat="42.71821" lon="1.43552">
        <ele>1226.7795410156</ele>
        <time>2011-08-20T06:14:41Z</time>
      </trkpt>
      <trkpt lat="42.71827" lon="1.43536">
        <ele>1224.3762207031</ele>
        <time>2011-08-20T06:14:46Z</time>
      </trkpt>
      <trkpt lat="42.71822" lon="1.43531">
        <ele>1225.3374023438</ele>
        <time>2011-08-20T06:14:50Z</time>
      </trkpt>
      <trkpt lat="42.71813" lon="1.43531">
        <ele>1230.1442871094</ele>
        <time>2011-08-20T06:14:54Z</time>
      </trkpt>
      <trkpt lat="42.71809" lon="1.4353">
        <ele>1230.625</ele>
        <time>2011-08-20T06:14:56Z</time>
      </trkpt>
      <trkpt lat="42.71804" lon="1.4351">
        <ele>1233.0280761719</ele>
        <time>2011-08-20T06:15:03Z</time>
      </trkpt>
      <trkpt lat="42.718" lon="1.43499">
        <ele>1233.5087890625</ele>
        <time>2011-08-20T06:15:07Z</time>
      </trkpt>
      <trkpt lat="42.71795" lon="1.43488">
        <ele>1233.9895019531</ele>
        <time>2011-08-20T06:15:12Z</time>
      </trkpt>
      <trkpt lat="42.71786" lon="1.43471">
        <ele>1231.1057128906</ele>
        <time>2011-08-20T06:15:18Z</time>
      </trkpt>
      <trkpt lat="42.7178" lon="1.43459">
        <ele>1232.5476074219</ele>
        <time>2011-08-20T06:15:22Z</time>
      </trkpt>
      <trkpt lat="42.71774" lon="1.43444">
        <ele>1230.1442871094</ele>
        <time>2011-08-20T06:15:27Z</time>
      </trkpt>
      <trkpt lat="42.71771" lon="1.43431">
        <ele>1228.2216796875</ele>
        <time>2011-08-20T06:15:31Z</time>
      </trkpt>
      <trkpt lat="42.71766" lon="1.4342">
        <ele>1230.1442871094</ele>
        <time>2011-08-20T06:15:35Z</time>
      </trkpt>
      <trkpt lat="42.71754" lon="1.43409">
        <ele>1229.6635742188</ele>
        <time>2011-08-20T06:15:40Z</time>
      </trkpt>
      <trkpt lat="42.71744" lon="1.43398">
        <ele>1227.7407226562</ele>
        <time>2011-08-20T06:15:45Z</time>
      </trkpt>
      <trkpt lat="42.71733" lon="1.4339">
        <ele>1228.7023925781</ele>
        <time>2011-08-20T06:15:50Z</time>
      </trkpt>
      <trkpt lat="42.71722" lon="1.43382">
        <ele>1229.1828613281</ele>
        <time>2011-08-20T06:15:55Z</time>
      </trkpt>
      <trkpt lat="42.71712" lon="1.43374">
        <ele>1230.1442871094</ele>
        <time>2011-08-20T06:16:00Z</time>
      </trkpt>
      <trkpt lat="42.71708" lon="1.43371">
        <ele>1231.1057128906</ele>
        <time>2011-08-20T06:16:02Z</time>
      </trkpt>
      <trkpt lat="42.71696" lon="1.43362">
        <ele>1231.1057128906</ele>
        <time>2011-08-20T06:16:07Z</time>
      </trkpt>
      <trkpt lat="42.71689" lon="1.43359">
        <ele>1233.9895019531</ele>
        <time>2011-08-20T06:16:12Z</time>
      </trkpt>
      <trkpt lat="42.71681" lon="1.43355">
        <ele>1236.3928222656</ele>
        <time>2011-08-20T06:16:17Z</time>
      </trkpt>
      <trkpt lat="42.71675" lon="1.43345">
        <ele>1236.8732910156</ele>
        <time>2011-08-20T06:16:22Z</time>
      </trkpt>
      <trkpt lat="42.71667" lon="1.4334">
        <ele>1236.8732910156</ele>
        <time>2011-08-20T06:16:28Z</time>
      </trkpt>
      <trkpt lat="42.71665" lon="1.43338">
        <ele>1236.3928222656</ele>
        <time>2011-08-20T06:16:30Z</time>
      </trkpt>
      <trkpt lat="42.71658" lon="1.43332">
        <ele>1236.8732910156</ele>
        <time>2011-08-20T06:16:36Z</time>
      </trkpt>
      <trkpt lat="42.71652" lon="1.43322">
        <ele>1237.8347167969</ele>
        <time>2011-08-20T06:16:40Z</time>
      </trkpt>
      <trkpt lat="42.71641" lon="1.43315">
        <ele>1236.3928222656</ele>
        <time>2011-08-20T06:16:45Z</time>
      </trkpt>
      <trkpt lat="42.71626" lon="1.43317">
        <ele>1237.3540039062</ele>
        <time>2011-08-20T06:16:50Z</time>
      </trkpt>
      <trkpt lat="42.71623" lon="1.43317">
        <ele>1237.3540039062</ele>
        <time>2011-08-20T06:16:51Z</time>
      </trkpt>
      <trkpt lat="42.71611" lon="1.43305">
        <ele>1238.7961425781</ele>
        <time>2011-08-20T06:16:57Z</time>
      </trkpt>
      <trkpt lat="42.71601" lon="1.43294">
        <ele>1238.3154296875</ele>
        <time>2011-08-20T06:17:03Z</time>
      </trkpt>
      <trkpt lat="42.7159" lon="1.43287">
        <ele>1236.8732910156</ele>
        <time>2011-08-20T06:17:08Z</time>
      </trkpt>
      <trkpt lat="42.7158" lon="1.43285">
        <ele>1235.912109375</ele>
        <time>2011-08-20T06:17:12Z</time>
      </trkpt>
      <trkpt lat="42.71578" lon="1.43284">
        <ele>1235.912109375</ele>
        <time>2011-08-20T06:17:13Z</time>
      </trkpt>
      <trkpt lat="42.71565" lon="1.43268">
        <ele>1237.8347167969</ele>
        <time>2011-08-20T06:17:19Z</time>
      </trkpt>
      <trkpt lat="42.71559" lon="1.43259">
        <ele>1243.1218261719</ele>
        <time>2011-08-20T06:17:24Z</time>
      </trkpt>
      <trkpt lat="42.71558" lon="1.43254">
        <ele>1242.6413574219</ele>
        <time>2011-08-20T06:17:28Z</time>
      </trkpt>
      <trkpt lat="42.71557" lon="1.43251">
        <ele>1241.19921875</ele>
        <time>2011-08-20T06:17:30Z</time>
      </trkpt>
      <trkpt lat="42.71555" lon="1.43241">
        <ele>1239.7573242188</ele>
        <time>2011-08-20T06:17:38Z</time>
      </trkpt>
      <trkpt lat="42.71552" lon="1.43238">
        <ele>1240.2380371094</ele>
        <time>2011-08-20T06:17:43Z</time>
      </trkpt>
      <trkpt lat="42.71549" lon="1.43235">
        <ele>1241.19921875</ele>
        <time>2011-08-20T06:17:47Z</time>
      </trkpt>
      <trkpt lat="42.71546" lon="1.4323">
        <ele>1241.6799316406</ele>
        <time>2011-08-20T06:17:52Z</time>
      </trkpt>
      <trkpt lat="42.71543" lon="1.43221">
        <ele>1241.6799316406</ele>
        <time>2011-08-20T06:17:59Z</time>
      </trkpt>
      <trkpt lat="42.7154" lon="1.43213">
        <ele>1247.9287109375</ele>
        <time>2011-08-20T06:18:05Z</time>
      </trkpt>
      <trkpt lat="42.7154" lon="1.43211">
        <ele>1248.4091796875</ele>
        <time>2011-08-20T06:18:07Z</time>
      </trkpt>
      <trkpt lat="42.71534" lon="1.43208">
        <ele>1252.7351074219</ele>
        <time>2011-08-20T06:18:14Z</time>
      </trkpt>
      <trkpt lat="42.71528" lon="1.43199">
        <ele>1254.1772460938</ele>
        <time>2011-08-20T06:18:22Z</time>
      </trkpt>
      <trkpt lat="42.71523" lon="1.4319">
        <ele>1255.1384277344</ele>
        <time>2011-08-20T06:18:28Z</time>
      </trkpt>
      <trkpt lat="42.7152" lon="1.43188">
        <ele>1256.5803222656</ele>
        <time>2011-08-20T06:18:30Z</time>
      </trkpt>
      <trkpt lat="42.71517" lon="1.43185">
        <ele>1258.9836425781</ele>
        <time>2011-08-20T06:18:33Z</time>
      </trkpt>
      <trkpt lat="42.71514" lon="1.43176">
        <ele>1259.4643554688</ele>
        <time>2011-08-20T06:18:38Z</time>
      </trkpt>
      <trkpt lat="42.71508" lon="1.43166">
        <ele>1260.42578125</ele>
        <time>2011-08-20T06:18:45Z</time>
      </trkpt>
      <trkpt lat="42.71502" lon="1.43156">
        <ele>1262.8291015625</ele>
        <time>2011-08-20T06:18:51Z</time>
      </trkpt>
      <trkpt lat="42.71497" lon="1.43146">
        <ele>1260.9064941406</ele>
        <time>2011-08-20T06:18:58Z</time>
      </trkpt>
      <trkpt lat="42.7149" lon="1.43136">
        <ele>1259.9448242188</ele>
        <time>2011-08-20T06:19:06Z</time>
      </trkpt>
      <trkpt lat="42.71486" lon="1.43127">
        <ele>1260.9064941406</ele>
        <time>2011-08-20T06:19:11Z</time>
      </trkpt>
      <trkpt lat="42.71481" lon="1.43119">
        <ele>1261.3872070312</ele>
        <time>2011-08-20T06:19:17Z</time>
      </trkpt>
      <trkpt lat="42.71477" lon="1.43115">
        <ele>1260.9064941406</ele>
        <time>2011-08-20T06:19:21Z</time>
      </trkpt>
      <trkpt lat="42.71471" lon="1.43108">
        <ele>1262.3483886719</ele>
        <time>2011-08-20T06:19:26Z</time>
      </trkpt>
      <trkpt lat="42.71461" lon="1.43097">
        <ele>1260.9064941406</ele>
        <time>2011-08-20T06:19:31Z</time>
      </trkpt>
      <trkpt lat="42.7145" lon="1.43088">
        <ele>1258.9836425781</ele>
        <time>2011-08-20T06:19:36Z</time>
      </trkpt>
      <trkpt lat="42.71439" lon="1.43083">
        <ele>1254.1772460938</ele>
        <time>2011-08-20T06:19:42Z</time>
      </trkpt>
      <trkpt lat="42.71435" lon="1.43082">
        <ele>1252.7351074219</ele>
        <time>2011-08-20T06:19:45Z</time>
      </trkpt>
      <trkpt lat="42.71423" lon="1.43073">
        <ele>1253.2158203125</ele>
        <time>2011-08-20T06:19:51Z</time>
      </trkpt>
      <trkpt lat="42.71413" lon="1.43067">
        <ele>1248.4091796875</ele>
        <time>2011-08-20T06:19:56Z</time>
      </trkpt>
      <trkpt lat="42.71404" lon="1.4306">
        <ele>1243.6025390625</ele>
        <time>2011-08-20T06:20:01Z</time>
      </trkpt>
      <trkpt lat="42.71397" lon="1.43044">
        <ele>1238.3154296875</ele>
        <time>2011-08-20T06:20:06Z</time>
      </trkpt>
      <trkpt lat="42.71393" lon="1.43029">
        <ele>1235.4313964844</ele>
        <time>2011-08-20T06:20:10Z</time>
      </trkpt>
      <trkpt lat="42.71381" lon="1.43017">
        <ele>1233.9895019531</ele>
        <time>2011-08-20T06:20:15Z</time>
      </trkpt>
      <trkpt lat="42.71367" lon="1.43012">
        <ele>1231.5861816406</ele>
        <time>2011-08-20T06:20:20Z</time>
      </trkpt>
      <trkpt lat="42.71363" lon="1.43008">
        <ele>1230.625</ele>
        <time>2011-08-20T06:20:23Z</time>
      </trkpt>
      <trkpt lat="42.71356" lon="1.43006">
        <ele>1232.0668945312</ele>
        <time>2011-08-20T06:20:28Z</time>
      </trkpt>
      <trkpt lat="42.71348" lon="1.43004">
        <ele>1233.5087890625</ele>
        <time>2011-08-20T06:20:32Z</time>
      </trkpt>
      <trkpt lat="42.71335" lon="1.42992">
        <ele>1230.625</ele>
        <time>2011-08-20T06:20:38Z</time>
      </trkpt>
      <trkpt lat="42.71333" lon="1.42987">
        <ele>1230.625</ele>
        <time>2011-08-20T06:20:40Z</time>
      </trkpt>
      <trkpt lat="42.71329" lon="1.42975">
        <ele>1236.3928222656</ele>
        <time>2011-08-20T06:20:45Z</time>
      </trkpt>
      <trkpt lat="42.71323" lon="1.42962">
        <ele>1240.7185058594</ele>
        <time>2011-08-20T06:20:50Z</time>
      </trkpt>
      <trkpt lat="42.71316" lon="1.42961">
        <ele>1239.2766113281</ele>
        <time>2011-08-20T06:20:54Z</time>
      </trkpt>
      <trkpt lat="42.7131" lon="1.42959">
        <ele>1237.3540039062</ele>
        <time>2011-08-20T06:20:58Z</time>
      </trkpt>
      <trkpt lat="42.71305" lon="1.42957">
        <ele>1237.3540039062</ele>
        <time>2011-08-20T06:21:00Z</time>
      </trkpt>
      <trkpt lat="42.71302" lon="1.42954">
        <ele>1237.8347167969</ele>
        <time>2011-08-20T06:21:02Z</time>
      </trkpt>
      <trkpt lat="42.71292" lon="1.42945">
        <ele>1234.9509277344</ele>
        <time>2011-08-20T06:21:08Z</time>
      </trkpt>
      <trkpt lat="42.71284" lon="1.42944">
        <ele>1233.9895019531</ele>
        <time>2011-08-20T06:21:12Z</time>
      </trkpt>
      <trkpt lat="42.71276" lon="1.4294">
        <ele>1233.9895019531</ele>
        <time>2011-08-20T06:21:17Z</time>
      </trkpt>
      <trkpt lat="42.71265" lon="1.42937">
        <ele>1228.7023925781</ele>
        <time>2011-08-20T06:21:21Z</time>
      </trkpt>
      <trkpt lat="42.71254" lon="1.42933">
        <ele>1225.8181152344</ele>
        <time>2011-08-20T06:21:25Z</time>
      </trkpt>
      <trkpt lat="42.71241" lon="1.42929">
        <ele>1225.8181152344</ele>
        <time>2011-08-20T06:21:30Z</time>
      </trkpt>
      <trkpt lat="42.71233" lon="1.42914">
        <ele>1223.8955078125</ele>
        <time>2011-08-20T06:21:36Z</time>
      </trkpt>
      <trkpt lat="42.71224" lon="1.42901">
        <ele>1221.9729003906</ele>
        <time>2011-08-20T06:21:41Z</time>
      </trkpt>
      <trkpt lat="42.71221" lon="1.42897">
        <ele>1221.9729003906</ele>
        <time>2011-08-20T06:21:43Z</time>
      </trkpt>
      <trkpt lat="42.71212" lon="1.42881">
        <ele>1217.6469726562</ele>
        <time>2011-08-20T06:21:49Z</time>
      </trkpt>
      <trkpt lat="42.7121" lon="1.42869">
        <ele>1216.6857910156</ele>
        <time>2011-08-20T06:21:53Z</time>
      </trkpt>
      <trkpt lat="42.71209" lon="1.42861">
        <ele>1214.2824707031</ele>
        <time>2011-08-20T06:22:00Z</time>
      </trkpt>
      <trkpt lat="42.71209" lon="1.42859">
        <ele>1213.8017578125</ele>
        <time>2011-08-20T06:22:04Z</time>
      </trkpt>
      <trkpt lat="42.71203" lon="1.42843">
        <ele>1214.2824707031</ele>
        <time>2011-08-20T06:22:10Z</time>
      </trkpt>
      <trkpt lat="42.712" lon="1.4283">
        <ele>1214.7631835938</ele>
        <time>2011-08-20T06:22:14Z</time>
      </trkpt>
      <trkpt lat="42.71193" lon="1.42821">
        <ele>1213.8017578125</ele>
        <time>2011-08-20T06:22:18Z</time>
      </trkpt>
      <trkpt lat="42.71188" lon="1.42816">
        <ele>1212.8405761719</ele>
        <time>2011-08-20T06:22:20Z</time>
      </trkpt>
      <trkpt lat="42.71175" lon="1.42809">
        <ele>1210.9177246094</ele>
        <time>2011-08-20T06:22:25Z</time>
      </trkpt>
      <trkpt lat="42.71172" lon="1.42806">
        <ele>1210.9177246094</ele>
        <time>2011-08-20T06:22:26Z</time>
      </trkpt>
      <trkpt lat="42.71161" lon="1.42786">
        <ele>1208.9951171875</ele>
        <time>2011-08-20T06:22:32Z</time>
      </trkpt>
      <trkpt lat="42.71155" lon="1.42774">
        <ele>1208.9951171875</ele>
        <time>2011-08-20T06:22:36Z</time>
      </trkpt>
      <trkpt lat="42.71148" lon="1.42763">
        <ele>1208.5144042969</ele>
        <time>2011-08-20T06:22:40Z</time>
      </trkpt>
      <trkpt lat="42.71141" lon="1.42751">
        <ele>1207.5532226562</ele>
        <time>2011-08-20T06:22:44Z</time>
      </trkpt>
      <trkpt lat="42.71133" lon="1.42734">
        <ele>1208.9951171875</ele>
        <time>2011-08-20T06:22:50Z</time>
      </trkpt>
      <trkpt lat="42.71122" lon="1.42727">
        <ele>1208.5144042969</ele>
        <time>2011-08-20T06:22:54Z</time>
      </trkpt>
      <trkpt lat="42.71119" lon="1.42712">
        <ele>1207.5532226562</ele>
        <time>2011-08-20T06:22:58Z</time>
      </trkpt>
      <trkpt lat="42.71116" lon="1.42698">
        <ele>1207.0725097656</ele>
        <time>2011-08-20T06:23:02Z</time>
      </trkpt>
      <trkpt lat="42.71111" lon="1.42675">
        <ele>1204.6691894531</ele>
        <time>2011-08-20T06:23:08Z</time>
      </trkpt>
      <trkpt lat="42.71105" lon="1.42655">
        <ele>1200.8239746094</ele>
        <time>2011-08-20T06:23:14Z</time>
      </trkpt>
      <trkpt lat="42.71098" lon="1.42638">
        <ele>1199.8627929688</ele>
        <time>2011-08-20T06:23:19Z</time>
      </trkpt>
      <trkpt lat="42.71088" lon="1.42619">
        <ele>1199.3820800781</ele>
        <time>2011-08-20T06:23:25Z</time>
      </trkpt>
      <trkpt lat="42.71084" lon="1.42613">
        <ele>1199.3820800781</ele>
        <time>2011-08-20T06:23:27Z</time>
      </trkpt>
      <trkpt lat="42.71076" lon="1.42593">
        <ele>1196.017578125</ele>
        <time>2011-08-20T06:23:33Z</time>
      </trkpt>
      <trkpt lat="42.71069" lon="1.42577">
        <ele>1196.9787597656</ele>
        <time>2011-08-20T06:23:38Z</time>
      </trkpt>
      <trkpt lat="42.71061" lon="1.42555">
        <ele>1199.3820800781</ele>
        <time>2011-08-20T06:23:45Z</time>
      </trkpt>
      <trkpt lat="42.71051" lon="1.42535">
        <ele>1203.2272949219</ele>
        <time>2011-08-20T06:23:51Z</time>
      </trkpt>
      <trkpt lat="42.71042" lon="1.4252">
        <ele>1203.7080078125</ele>
        <time>2011-08-20T06:23:56Z</time>
      </trkpt>
      <trkpt lat="42.7103" lon="1.42511">
        <ele>1200.3435058594</ele>
        <time>2011-08-20T06:24:01Z</time>
      </trkpt>
      <trkpt lat="42.71021" lon="1.42502">
        <ele>1195.0559082031</ele>
        <time>2011-08-20T06:24:06Z</time>
      </trkpt>
      <trkpt lat="42.71017" lon="1.4249">
        <ele>1192.1721191406</ele>
        <time>2011-08-20T06:24:11Z</time>
      </trkpt>
      <trkpt lat="42.71015" lon="1.42486">
        <ele>1191.2106933594</ele>
        <time>2011-08-20T06:24:14Z</time>
      </trkpt>
      <trkpt lat="42.71014" lon="1.42485">
        <ele>1190.2495117188</ele>
        <time>2011-08-20T06:24:26Z</time>
      </trkpt>
      <trkpt lat="42.71012" lon="1.42479">
        <ele>1188.3269042969</ele>
        <time>2011-08-20T06:25:00Z</time>
      </trkpt>
      <trkpt lat="42.7101" lon="1.42475">
        <ele>1187.8461914062</ele>
        <time>2011-08-20T06:25:03Z</time>
      </trkpt>
      <trkpt lat="42.71008" lon="1.42465">
        <ele>1187.3654785156</ele>
        <time>2011-08-20T06:25:07Z</time>
      </trkpt>
      <trkpt lat="42.71003" lon="1.42446">
        <ele>1183.5202636719</ele>
        <time>2011-08-20T06:25:13Z</time>
      </trkpt>
      <trkpt lat="42.71" lon="1.42437">
        <ele>1182.0783691406</ele>
        <time>2011-08-20T06:25:16Z</time>
      </trkpt>
      <trkpt lat="42.70997" lon="1.42432">
        <ele>1184.4816894531</ele>
        <time>2011-08-20T06:25:20Z</time>
      </trkpt>
      <trkpt lat="42.70991" lon="1.42422">
        <ele>1189.7687988281</ele>
        <time>2011-08-20T06:25:28Z</time>
      </trkpt>
      <trkpt lat="42.70987" lon="1.42416">
        <ele>1196.4982910156</ele>
        <time>2011-08-20T06:25:33Z</time>
      </trkpt>
      <trkpt lat="42.70982" lon="1.42402">
        <ele>1197.9401855469</ele>
        <time>2011-08-20T06:25:42Z</time>
      </trkpt>
      <trkpt lat="42.7098" lon="1.42399">
        <ele>1196.9787597656</ele>
        <time>2011-08-20T06:25:44Z</time>
      </trkpt>
      <trkpt lat="42.70979" lon="1.42386">
        <ele>1193.1333007812</ele>
        <time>2011-08-20T06:25:50Z</time>
      </trkpt>
      <trkpt lat="42.70979" lon="1.42368">
        <ele>1190.7299804688</ele>
        <time>2011-08-20T06:25:58Z</time>
      </trkpt>
      <trkpt lat="42.70979" lon="1.42361">
        <ele>1188.8076171875</ele>
        <time>2011-08-20T06:26:00Z</time>
      </trkpt>
      <trkpt lat="42.70972" lon="1.42343">
        <ele>1189.2880859375</ele>
        <time>2011-08-20T06:26:06Z</time>
      </trkpt>
      <trkpt lat="42.70964" lon="1.42326">
        <ele>1190.7299804688</ele>
        <time>2011-08-20T06:26:12Z</time>
      </trkpt>
      <trkpt lat="42.70962" lon="1.42305">
        <ele>1189.2880859375</ele>
        <time>2011-08-20T06:26:17Z</time>
      </trkpt>
      <trkpt lat="42.70961" lon="1.42283">
        <ele>1188.3269042969</ele>
        <time>2011-08-20T06:26:23Z</time>
      </trkpt>
      <trkpt lat="42.70961" lon="1.42267">
        <ele>1185.9235839844</ele>
        <time>2011-08-20T06:26:28Z</time>
      </trkpt>
      <trkpt lat="42.70956" lon="1.42243">
        <ele>1190.2495117188</ele>
        <time>2011-08-20T06:26:34Z</time>
      </trkpt>
      <trkpt lat="42.70954" lon="1.42228">
        <ele>1190.7299804688</ele>
        <time>2011-08-20T06:26:38Z</time>
      </trkpt>
      <trkpt lat="42.70953" lon="1.42207">
        <ele>1192.1721191406</ele>
        <time>2011-08-20T06:26:44Z</time>
      </trkpt>
      <trkpt lat="42.70947" lon="1.42192">
        <ele>1212.8405761719</ele>
        <time>2011-08-20T06:26:49Z</time>
      </trkpt>
      <trkpt lat="42.70944" lon="1.42176">
        <ele>1212.8405761719</ele>
        <time>2011-08-20T06:26:54Z</time>
      </trkpt>
      <trkpt lat="42.70941" lon="1.42163">
        <ele>1211.8791503906</ele>
        <time>2011-08-20T06:26:59Z</time>
      </trkpt>
      <trkpt lat="42.70935" lon="1.42159">
        <ele>1212.8405761719</ele>
        <time>2011-08-20T06:27:05Z</time>
      </trkpt>
      <trkpt lat="42.7093" lon="1.42159">
        <ele>1217.6469726562</ele>
        <time>2011-08-20T06:27:11Z</time>
      </trkpt>
      <trkpt lat="42.70929" lon="1.4215">
        <ele>1223.8955078125</ele>
        <time>2011-08-20T06:27:15Z</time>
      </trkpt>
      <trkpt lat="42.70927" lon="1.42144">
        <ele>1226.7795410156</ele>
        <time>2011-08-20T06:27:19Z</time>
      </trkpt>
      <trkpt lat="42.70928" lon="1.42137">
        <ele>1224.3762207031</ele>
        <time>2011-08-20T06:27:22Z</time>
      </trkpt>
      <trkpt lat="42.70927" lon="1.42127">
        <ele>1215.724609375</ele>
        <time>2011-08-20T06:27:29Z</time>
      </trkpt>
      <trkpt lat="42.70926" lon="1.42125">
        <ele>1213.3212890625</ele>
        <time>2011-08-20T06:27:35Z</time>
      </trkpt>
      <trkpt lat="42.70923" lon="1.42119">
        <ele>1212.3598632812</ele>
        <time>2011-08-20T06:27:41Z</time>
      </trkpt>
      <trkpt lat="42.70924" lon="1.42107">
        <ele>1211.3984375</ele>
        <time>2011-08-20T06:27:46Z</time>
      </trkpt>
      <trkpt lat="42.70924" lon="1.42101">
        <ele>1211.8791503906</ele>
        <time>2011-08-20T06:27:51Z</time>
      </trkpt>
      <trkpt lat="42.70925" lon="1.42095">
        <ele>1212.8405761719</ele>
        <time>2011-08-20T06:27:55Z</time>
      </trkpt>
      <trkpt lat="42.70923" lon="1.42091">
        <ele>1213.8017578125</ele>
        <time>2011-08-20T06:28:00Z</time>
      </trkpt>
      <trkpt lat="42.70921" lon="1.4209">
        <ele>1217.1665039062</ele>
        <time>2011-08-20T06:28:01Z</time>
      </trkpt>
      <trkpt lat="42.70915" lon="1.42079">
        <ele>1221.4921875</ele>
        <time>2011-08-20T06:28:06Z</time>
      </trkpt>
      <trkpt lat="42.70913" lon="1.42075">
        <ele>1220.5310058594</ele>
        <time>2011-08-20T06:28:08Z</time>
      </trkpt>
      <trkpt lat="42.70913" lon="1.42054">
        <ele>1218.6083984375</ele>
        <time>2011-08-20T06:28:14Z</time>
      </trkpt>
      <trkpt lat="42.70916" lon="1.42034">
        <ele>1214.7631835938</ele>
        <time>2011-08-20T06:28:20Z</time>
      </trkpt>
      <trkpt lat="42.70918" lon="1.42019">
        <ele>1208.9951171875</ele>
        <time>2011-08-20T06:28:25Z</time>
      </trkpt>
      <trkpt lat="42.70922" lon="1.42">
        <ele>1205.1499023438</ele>
        <time>2011-08-20T06:28:31Z</time>
      </trkpt>
      <trkpt lat="42.70923" lon="1.4199">
        <ele>1205.1499023438</ele>
        <time>2011-08-20T06:28:36Z</time>
      </trkpt>
      <trkpt lat="42.70926" lon="1.41977">
        <ele>1207.0725097656</ele>
        <time>2011-08-20T06:28:43Z</time>
      </trkpt>
      <trkpt lat="42.70927" lon="1.41965">
        <ele>1213.8017578125</ele>
        <time>2011-08-20T06:28:48Z</time>
      </trkpt>
      <trkpt lat="42.70929" lon="1.4196">
        <ele>1214.7631835938</ele>
        <time>2011-08-20T06:28:51Z</time>
      </trkpt>
      <trkpt lat="42.70932" lon="1.4195">
        <ele>1217.1665039062</ele>
        <time>2011-08-20T06:28:57Z</time>
      </trkpt>
      <trkpt lat="42.70933" lon="1.41946">
        <ele>1218.1276855469</ele>
        <time>2011-08-20T06:29:00Z</time>
      </trkpt>
      <trkpt lat="42.70935" lon="1.41938">
        <ele>1221.01171875</ele>
        <time>2011-08-20T06:29:05Z</time>
      </trkpt>
      <trkpt lat="42.70936" lon="1.41927">
        <ele>1222.9343261719</ele>
        <time>2011-08-20T06:29:11Z</time>
      </trkpt>
      <trkpt lat="42.70937" lon="1.41913">
        <ele>1222.9343261719</ele>
        <time>2011-08-20T06:29:16Z</time>
      </trkpt>
      <trkpt lat="42.70936" lon="1.41894">
        <ele>1220.5310058594</ele>
        <time>2011-08-20T06:29:21Z</time>
      </trkpt>
      <trkpt lat="42.70932" lon="1.4188">
        <ele>1217.6469726562</ele>
        <time>2011-08-20T06:29:25Z</time>
      </trkpt>
      <trkpt lat="42.70929" lon="1.41865">
        <ele>1215.724609375</ele>
        <time>2011-08-20T06:29:29Z</time>
      </trkpt>
      <trkpt lat="42.70931" lon="1.41849">
        <ele>1218.1276855469</ele>
        <time>2011-08-20T06:29:36Z</time>
      </trkpt>
      <trkpt lat="42.70931" lon="1.4184">
        <ele>1219.5698242188</ele>
        <time>2011-08-20T06:29:41Z</time>
      </trkpt>
      <trkpt lat="42.70929" lon="1.4183">
        <ele>1219.0891113281</ele>
        <time>2011-08-20T06:29:48Z</time>
      </trkpt>
      <trkpt lat="42.70928" lon="1.41823">
        <ele>1217.1665039062</ele>
        <time>2011-08-20T06:29:54Z</time>
      </trkpt>
      <trkpt lat="42.70927" lon="1.41821">
        <ele>1216.6857910156</ele>
        <time>2011-08-20T06:29:56Z</time>
      </trkpt>
      <trkpt lat="42.70925" lon="1.41804">
        <ele>1216.205078125</ele>
        <time>2011-08-20T06:30:04Z</time>
      </trkpt>
      <trkpt lat="42.70928" lon="1.41791">
        <ele>1214.7631835938</ele>
        <time>2011-08-20T06:30:09Z</time>
      </trkpt>
      <trkpt lat="42.70925" lon="1.41782">
        <ele>1215.2438964844</ele>
        <time>2011-08-20T06:30:13Z</time>
      </trkpt>
      <trkpt lat="42.70918" lon="1.4177">
        <ele>1218.1276855469</ele>
        <time>2011-08-20T06:30:18Z</time>
      </trkpt>
      <trkpt lat="42.70917" lon="1.41769">
        <ele>1219.5698242188</ele>
        <time>2011-08-20T06:30:19Z</time>
      </trkpt>
      <trkpt lat="42.70915" lon="1.41757">
        <ele>1222.9343261719</ele>
        <time>2011-08-20T06:30:25Z</time>
      </trkpt>
      <trkpt lat="42.70913" lon="1.41748">
        <ele>1223.4150390625</ele>
        <time>2011-08-20T06:30:28Z</time>
      </trkpt>
      <trkpt lat="42.70911" lon="1.41741">
        <ele>1223.8955078125</ele>
        <time>2011-08-20T06:30:30Z</time>
      </trkpt>
      <trkpt lat="42.70904" lon="1.41727">
        <ele>1223.4150390625</ele>
        <time>2011-08-20T06:30:37Z</time>
      </trkpt>
      <trkpt lat="42.70902" lon="1.41722">
        <ele>1224.8569335938</ele>
        <time>2011-08-20T06:30:41Z</time>
      </trkpt>
      <trkpt lat="42.70903" lon="1.41714">
        <ele>1225.3374023438</ele>
        <time>2011-08-20T06:30:45Z</time>
      </trkpt>
      <trkpt lat="42.70902" lon="1.41712">
        <ele>1225.3374023438</ele>
        <time>2011-08-20T06:30:47Z</time>
      </trkpt>
      <trkpt lat="42.70901" lon="1.41708">
        <ele>1223.8955078125</ele>
        <time>2011-08-20T06:30:50Z</time>
      </trkpt>
      <trkpt lat="42.70901" lon="1.41698">
        <ele>1224.8569335938</ele>
        <time>2011-08-20T06:30:56Z</time>
      </trkpt>
      <trkpt lat="42.709" lon="1.4169">
        <ele>1225.3374023438</ele>
        <time>2011-08-20T06:31:00Z</time>
      </trkpt>
      <trkpt lat="42.70898" lon="1.4168">
        <ele>1227.2602539062</ele>
        <time>2011-08-20T06:31:06Z</time>
      </trkpt>
      <trkpt lat="42.70899" lon="1.41669">
        <ele>1227.7407226562</ele>
        <time>2011-08-20T06:31:12Z</time>
      </trkpt>
      <trkpt lat="42.70898" lon="1.41665">
        <ele>1227.2602539062</ele>
        <time>2011-08-20T06:31:14Z</time>
      </trkpt>
      <trkpt lat="42.70894" lon="1.41653">
        <ele>1227.7407226562</ele>
        <time>2011-08-20T06:31:21Z</time>
      </trkpt>
      <trkpt lat="42.70893" lon="1.41642">
        <ele>1228.7023925781</ele>
        <time>2011-08-20T06:31:27Z</time>
      </trkpt>
      <trkpt lat="42.70892" lon="1.41629">
        <ele>1229.1828613281</ele>
        <time>2011-08-20T06:31:34Z</time>
      </trkpt>
      <trkpt lat="42.70891" lon="1.41623">
        <ele>1230.1442871094</ele>
        <time>2011-08-20T06:31:37Z</time>
      </trkpt>
      <trkpt lat="42.70889" lon="1.41612">
        <ele>1232.0668945312</ele>
        <time>2011-08-20T06:31:44Z</time>
      </trkpt>
      <trkpt lat="42.70889" lon="1.41602">
        <ele>1233.0280761719</ele>
        <time>2011-08-20T06:31:49Z</time>
      </trkpt>
      <trkpt lat="42.70889" lon="1.41598">
        <ele>1233.5087890625</ele>
        <time>2011-08-20T06:31:51Z</time>
      </trkpt>
      <trkpt lat="42.70888" lon="1.41593">
        <ele>1234.9509277344</ele>
        <time>2011-08-20T06:31:55Z</time>
      </trkpt>
      <trkpt lat="42.70887" lon="1.41582">
        <ele>1235.4313964844</ele>
        <time>2011-08-20T06:32:01Z</time>
      </trkpt>
      <trkpt lat="42.70887" lon="1.41578">
        <ele>1234.9509277344</ele>
        <time>2011-08-20T06:32:03Z</time>
      </trkpt>
      <trkpt lat="42.70889" lon="1.4157">
        <ele>1233.9895019531</ele>
        <time>2011-08-20T06:32:08Z</time>
      </trkpt>
      <trkpt lat="42.7089" lon="1.41569">
        <ele>1233.9895019531</ele>
        <time>2011-08-20T06:32:09Z</time>
      </trkpt>
      <trkpt lat="42.70893" lon="1.41558">
        <ele>1239.2766113281</ele>
        <time>2011-08-20T06:32:16Z</time>
      </trkpt>
      <trkpt lat="42.70895" lon="1.41552">
        <ele>1240.2380371094</ele>
        <time>2011-08-20T06:32:21Z</time>
      </trkpt>
      <trkpt lat="42.70894" lon="1.41547">
        <ele>1242.6413574219</ele>
        <time>2011-08-20T06:32:26Z</time>
      </trkpt>
      <trkpt lat="42.70893" lon="1.41541">
        <ele>1246.0061035156</ele>
        <time>2011-08-20T06:32:31Z</time>
      </trkpt>
      <trkpt lat="42.70894" lon="1.41535">
        <ele>1247.9287109375</ele>
        <time>2011-08-20T06:32:35Z</time>
      </trkpt>
      <trkpt lat="42.70891" lon="1.41533">
        <ele>1248.4091796875</ele>
        <time>2011-08-20T06:32:39Z</time>
      </trkpt>
      <trkpt lat="42.70887" lon="1.41531">
        <ele>1249.8513183594</ele>
        <time>2011-08-20T06:32:44Z</time>
      </trkpt>
      <trkpt lat="42.70884" lon="1.41532">
        <ele>1250.33203125</ele>
        <time>2011-08-20T06:32:49Z</time>
      </trkpt>
      <trkpt lat="42.70879" lon="1.41532">
        <ele>1251.7739257812</ele>
        <time>2011-08-20T06:32:55Z</time>
      </trkpt>
      <trkpt lat="42.70875" lon="1.41529">
        <ele>1251.2932128906</ele>
        <time>2011-08-20T06:33:00Z</time>
      </trkpt>
      <trkpt lat="42.70871" lon="1.4153">
        <ele>1251.2932128906</ele>
        <time>2011-08-20T06:33:05Z</time>
      </trkpt>
      <trkpt lat="42.70866" lon="1.41529">
        <ele>1252.7351074219</ele>
        <time>2011-08-20T06:33:10Z</time>
      </trkpt>
      <trkpt lat="42.70862" lon="1.41533">
        <ele>1254.1772460938</ele>
        <time>2011-08-20T06:33:16Z</time>
      </trkpt>
      <trkpt lat="42.70859" lon="1.41537">
        <ele>1256.5803222656</ele>
        <time>2011-08-20T06:33:22Z</time>
      </trkpt>
      <trkpt lat="42.70857" lon="1.41537">
        <ele>1257.5417480469</ele>
        <time>2011-08-20T06:33:26Z</time>
      </trkpt>
      <trkpt lat="42.70852" lon="1.41535">
        <ele>1258.0224609375</ele>
        <time>2011-08-20T06:33:32Z</time>
      </trkpt>
      <trkpt lat="42.70847" lon="1.41536">
        <ele>1259.4643554688</ele>
        <time>2011-08-20T06:33:38Z</time>
      </trkpt>
      <trkpt lat="42.7084" lon="1.41533">
        <ele>1261.8679199219</ele>
        <time>2011-08-20T06:33:45Z</time>
      </trkpt>
      <trkpt lat="42.70834" lon="1.41535">
        <ele>1262.8291015625</ele>
        <time>2011-08-20T06:33:52Z</time>
      </trkpt>
      <trkpt lat="42.70835" lon="1.41539">
        <ele>1264.2709960938</ele>
        <time>2011-08-20T06:33:56Z</time>
      </trkpt>
      <trkpt lat="42.70835" lon="1.41546">
        <ele>1266.1936035156</ele>
        <time>2011-08-20T06:34:01Z</time>
      </trkpt>
      <trkpt lat="42.70836" lon="1.4155">
        <ele>1267.6354980469</ele>
        <time>2011-08-20T06:34:04Z</time>
      </trkpt>
      <trkpt lat="42.70837" lon="1.41555">
        <ele>1269.5583496094</ele>
        <time>2011-08-20T06:34:08Z</time>
      </trkpt>
      <trkpt lat="42.70834" lon="1.41561">
        <ele>1269.5583496094</ele>
        <time>2011-08-20T06:34:15Z</time>
      </trkpt>
      <trkpt lat="42.70831" lon="1.41562">
        <ele>1270.0388183594</ele>
        <time>2011-08-20T06:34:20Z</time>
      </trkpt>
      <trkpt lat="42.70829" lon="1.41563">
        <ele>1271.0002441406</ele>
        <time>2011-08-20T06:34:26Z</time>
      </trkpt>
      <trkpt lat="42.70827" lon="1.41567">
        <ele>1271.4807128906</ele>
        <time>2011-08-20T06:34:32Z</time>
      </trkpt>
      <trkpt lat="42.70823" lon="1.41567">
        <ele>1272.9228515625</ele>
        <time>2011-08-20T06:34:37Z</time>
      </trkpt>
      <trkpt lat="42.70822" lon="1.41572">
        <ele>1275.806640625</ele>
        <time>2011-08-20T06:34:43Z</time>
      </trkpt>
      <trkpt lat="42.70822" lon="1.41577">
        <ele>1277.7294921875</ele>
        <time>2011-08-20T06:34:48Z</time>
      </trkpt>
      <trkpt lat="42.70819" lon="1.41577">
        <ele>1278.6909179688</ele>
        <time>2011-08-20T06:34:52Z</time>
      </trkpt>
      <trkpt lat="42.70817" lon="1.41578">
        <ele>1279.6520996094</ele>
        <time>2011-08-20T06:34:57Z</time>
      </trkpt>
      <trkpt lat="42.70816" lon="1.41584">
        <ele>1281.5747070312</ele>
        <time>2011-08-20T06:35:03Z</time>
      </trkpt>
      <trkpt lat="42.70813" lon="1.41582">
        <ele>1282.0554199219</ele>
        <time>2011-08-20T06:35:07Z</time>
      </trkpt>
      <trkpt lat="42.7081" lon="1.41582">
        <ele>1283.4973144531</ele>
        <time>2011-08-20T06:35:12Z</time>
      </trkpt>
      <trkpt lat="42.7081" lon="1.41587">
        <ele>1286.3813476562</ele>
        <time>2011-08-20T06:35:18Z</time>
      </trkpt>
      <trkpt lat="42.70807" lon="1.41592">
        <ele>1287.3425292969</ele>
        <time>2011-08-20T06:35:24Z</time>
      </trkpt>
      <trkpt lat="42.70807" lon="1.41596">
        <ele>1288.7846679688</ele>
        <time>2011-08-20T06:35:28Z</time>
      </trkpt>
      <trkpt lat="42.70808" lon="1.41601">
        <ele>1292.1494140625</ele>
        <time>2011-08-20T06:35:34Z</time>
      </trkpt>
      <trkpt lat="42.70805" lon="1.41601">
        <ele>1293.1105957031</ele>
        <time>2011-08-20T06:35:39Z</time>
      </trkpt>
      <trkpt lat="42.70802" lon="1.41603">
        <ele>1294.0720214844</ele>
        <time>2011-08-20T06:35:44Z</time>
      </trkpt>
      <trkpt lat="42.70799" lon="1.41607">
        <ele>1294.5524902344</ele>
        <time>2011-08-20T06:35:49Z</time>
      </trkpt>
      <trkpt lat="42.70797" lon="1.41606">
        <ele>1295.5139160156</ele>
        <time>2011-08-20T06:35:53Z</time>
      </trkpt>
      <trkpt lat="42.70794" lon="1.41605">
        <ele>1295.9946289062</ele>
        <time>2011-08-20T06:35:58Z</time>
      </trkpt>
      <trkpt lat="42.70792" lon="1.41605">
        <ele>1296.4753417969</ele>
        <time>2011-08-20T06:36:02Z</time>
      </trkpt>
      <trkpt lat="42.70789" lon="1.4161">
        <ele>1297.9172363281</ele>
        <time>2011-08-20T06:36:09Z</time>
      </trkpt>
      <trkpt lat="42.70787" lon="1.41609">
        <ele>1298.8784179688</ele>
        <time>2011-08-20T06:36:14Z</time>
      </trkpt>
      <trkpt lat="42.70784" lon="1.41608">
        <ele>1299.83984375</ele>
        <time>2011-08-20T06:36:20Z</time>
      </trkpt>
      <trkpt lat="42.70782" lon="1.41611">
        <ele>1301.2817382812</ele>
        <time>2011-08-20T06:36:24Z</time>
      </trkpt>
      <trkpt lat="42.7078" lon="1.4161">
        <ele>1301.7624511719</ele>
        <time>2011-08-20T06:36:29Z</time>
      </trkpt>
      <trkpt lat="42.70778" lon="1.41612">
        <ele>1303.2043457031</ele>
        <time>2011-08-20T06:36:35Z</time>
      </trkpt>
      <trkpt lat="42.70777" lon="1.41613">
        <ele>1304.6462402344</ele>
        <time>2011-08-20T06:36:41Z</time>
      </trkpt>
      <trkpt lat="42.70774" lon="1.41615">
        <ele>1307.0495605469</ele>
        <time>2011-08-20T06:36:48Z</time>
      </trkpt>
      <trkpt lat="42.70773" lon="1.4162">
        <ele>1308.9724121094</ele>
        <time>2011-08-20T06:36:53Z</time>
      </trkpt>
      <trkpt lat="42.70771" lon="1.41623">
        <ele>1309.93359375</ele>
        <time>2011-08-20T06:36:58Z</time>
      </trkpt>
      <trkpt lat="42.7077" lon="1.41624">
        <ele>1312.3369140625</ele>
        <time>2011-08-20T06:37:03Z</time>
      </trkpt>
      <trkpt lat="42.70771" lon="1.41627">
        <ele>1315.2209472656</ele>
        <time>2011-08-20T06:37:07Z</time>
      </trkpt>
      <trkpt lat="42.70771" lon="1.41631">
        <ele>1319.0661621094</ele>
        <time>2011-08-20T06:37:13Z</time>
      </trkpt>
      <trkpt lat="42.7077" lon="1.41633">
        <ele>1320.5080566406</ele>
        <time>2011-08-20T06:37:17Z</time>
      </trkpt>
      <trkpt lat="42.70765" lon="1.41633">
        <ele>1319.546875</ele>
        <time>2011-08-20T06:37:22Z</time>
      </trkpt>
      <trkpt lat="42.70764" lon="1.41636">
        <ele>1321.4692382812</ele>
        <time>2011-08-20T06:37:26Z</time>
      </trkpt>
      <trkpt lat="42.70765" lon="1.4164">
        <ele>1323.8725585938</ele>
        <time>2011-08-20T06:37:30Z</time>
      </trkpt>
      <trkpt lat="42.7076" lon="1.41638">
        <ele>1324.8342285156</ele>
        <time>2011-08-20T06:37:36Z</time>
      </trkpt>
      <trkpt lat="42.70757" lon="1.41641">
        <ele>1324.8342285156</ele>
        <time>2011-08-20T06:37:41Z</time>
      </trkpt>
      <trkpt lat="42.70759" lon="1.41643">
        <ele>1327.7180175781</ele>
        <time>2011-08-20T06:37:45Z</time>
      </trkpt>
      <trkpt lat="42.70758" lon="1.41647">
        <ele>1329.640625</ele>
        <time>2011-08-20T06:37:50Z</time>
      </trkpt>
      <trkpt lat="42.70755" lon="1.4165">
        <ele>1332.5246582031</ele>
        <time>2011-08-20T06:37:54Z</time>
      </trkpt>
      <trkpt lat="42.70751" lon="1.41652">
        <ele>1332.0439453125</ele>
        <time>2011-08-20T06:37:58Z</time>
      </trkpt>
      <trkpt lat="42.70752" lon="1.41658">
        <ele>1333.9665527344</ele>
        <time>2011-08-20T06:38:04Z</time>
      </trkpt>
      <trkpt lat="42.70755" lon="1.41664">
        <ele>1339.734375</ele>
        <time>2011-08-20T06:38:11Z</time>
      </trkpt>
      <trkpt lat="42.70749" lon="1.41667">
        <ele>1339.2536621094</ele>
        <time>2011-08-20T06:38:20Z</time>
      </trkpt>
      <trkpt lat="42.70743" lon="1.4167">
        <ele>1339.734375</ele>
        <time>2011-08-20T06:38:26Z</time>
      </trkpt>
      <trkpt lat="42.70735" lon="1.41672">
        <ele>1338.2924804688</ele>
        <time>2011-08-20T06:38:32Z</time>
      </trkpt>
      <trkpt lat="42.70733" lon="1.41673">
        <ele>1339.2536621094</ele>
        <time>2011-08-20T06:38:36Z</time>
      </trkpt>
      <trkpt lat="42.70734" lon="1.41675">
        <ele>1340.6958007812</ele>
        <time>2011-08-20T06:38:38Z</time>
      </trkpt>
      <trkpt lat="42.70734" lon="1.41677">
        <ele>1342.1379394531</ele>
        <time>2011-08-20T06:38:43Z</time>
      </trkpt>
      <trkpt lat="42.70734" lon="1.41681">
        <ele>1345.5024414062</ele>
        <time>2011-08-20T06:38:48Z</time>
      </trkpt>
      <trkpt lat="42.70733" lon="1.4169">
        <ele>1348.8669433594</ele>
        <time>2011-08-20T06:38:55Z</time>
      </trkpt>
      <trkpt lat="42.70729" lon="1.41692">
        <ele>1348.8669433594</ele>
        <time>2011-08-20T06:39:00Z</time>
      </trkpt>
      <trkpt lat="42.70726" lon="1.41695">
        <ele>1347.4250488281</ele>
        <time>2011-08-20T06:39:06Z</time>
      </trkpt>
      <trkpt lat="42.70721" lon="1.41701">
        <ele>1349.8283691406</ele>
        <time>2011-08-20T06:39:12Z</time>
      </trkpt>
      <trkpt lat="42.70719" lon="1.41705">
        <ele>1351.7509765625</ele>
        <time>2011-08-20T06:39:16Z</time>
      </trkpt>
      <trkpt lat="42.70718" lon="1.41709">
        <ele>1352.2314453125</ele>
        <time>2011-08-20T06:39:22Z</time>
      </trkpt>
      <trkpt lat="42.70715" lon="1.41713">
        <ele>1351.7509765625</ele>
        <time>2011-08-20T06:39:26Z</time>
      </trkpt>
      <trkpt lat="42.70713" lon="1.41713">
        <ele>1358.4802246094</ele>
        <time>2011-08-20T06:39:33Z</time>
      </trkpt>
      <trkpt lat="42.7071" lon="1.4171">
        <ele>1358.9609375</ele>
        <time>2011-08-20T06:39:38Z</time>
      </trkpt>
      <trkpt lat="42.70708" lon="1.41707">
        <ele>1358.9609375</ele>
        <time>2011-08-20T06:39:42Z</time>
      </trkpt>
      <trkpt lat="42.70707" lon="1.41701">
        <ele>1359.9221191406</ele>
        <time>2011-08-20T06:39:47Z</time>
      </trkpt>
      <trkpt lat="42.70706" lon="1.41695">
        <ele>1359.4416503906</ele>
        <time>2011-08-20T06:39:51Z</time>
      </trkpt>
      <trkpt lat="42.70704" lon="1.41688">
        <ele>1359.9221191406</ele>
        <time>2011-08-20T06:39:57Z</time>
      </trkpt>
      <trkpt lat="42.70705" lon="1.41686">
        <ele>1360.4028320312</ele>
        <time>2011-08-20T06:39:59Z</time>
      </trkpt>
      <trkpt lat="42.70702" lon="1.41679">
        <ele>1361.8449707031</ele>
        <time>2011-08-20T06:40:04Z</time>
      </trkpt>
      <trkpt lat="42.70705" lon="1.41676">
        <ele>1365.6901855469</ele>
        <time>2011-08-20T06:40:10Z</time>
      </trkpt>
      <trkpt lat="42.70703" lon="1.41669">
        <ele>1367.1320800781</ele>
        <time>2011-08-20T06:40:16Z</time>
      </trkpt>
      <trkpt lat="42.70707" lon="1.41666">
        <ele>1373.861328125</ele>
        <time>2011-08-20T06:40:22Z</time>
      </trkpt>
      <trkpt lat="42.70706" lon="1.41663">
        <ele>1381.0712890625</ele>
        <time>2011-08-20T06:40:28Z</time>
      </trkpt>
      <trkpt lat="42.70702" lon="1.41656">
        <ele>1379.6291503906</ele>
        <time>2011-08-20T06:40:33Z</time>
      </trkpt>
      <trkpt lat="42.70699" lon="1.41649">
        <ele>1379.1484375</ele>
        <time>2011-08-20T06:40:38Z</time>
      </trkpt>
      <trkpt lat="42.707" lon="1.41643">
        <ele>1380.5905761719</ele>
        <time>2011-08-20T06:40:42Z</time>
      </trkpt>
      <trkpt lat="42.70697" lon="1.41638">
        <ele>1382.5131835938</ele>
        <time>2011-08-20T06:40:47Z</time>
      </trkpt>
      <trkpt lat="42.70696" lon="1.41634">
        <ele>1382.0324707031</ele>
        <time>2011-08-20T06:40:49Z</time>
      </trkpt>
      <trkpt lat="42.70695" lon="1.41631">
        <ele>1382.0324707031</ele>
        <time>2011-08-20T06:40:51Z</time>
      </trkpt>
      <trkpt lat="42.70691" lon="1.41626">
        <ele>1379.1484375</ele>
        <time>2011-08-20T06:40:55Z</time>
      </trkpt>
      <trkpt lat="42.70688" lon="1.41621">
        <ele>1378.1872558594</ele>
        <time>2011-08-20T06:41:00Z</time>
      </trkpt>
      <trkpt lat="42.70687" lon="1.41616">
        <ele>1381.0712890625</ele>
        <time>2011-08-20T06:41:05Z</time>
      </trkpt>
      <trkpt lat="42.70688" lon="1.41606">
        <ele>1381.5517578125</ele>
        <time>2011-08-20T06:41:12Z</time>
      </trkpt>
      <trkpt lat="42.70688" lon="1.41602">
        <ele>1384.4357910156</ele>
        <time>2011-08-20T06:41:18Z</time>
      </trkpt>
      <trkpt lat="42.70684" lon="1.41597">
        <ele>1386.8388671875</ele>
        <time>2011-08-20T06:41:27Z</time>
      </trkpt>
      <trkpt lat="42.70684" lon="1.41593">
        <ele>1387.3195800781</ele>
        <time>2011-08-20T06:41:31Z</time>
      </trkpt>
      <trkpt lat="42.70681" lon="1.41589">
        <ele>1387.8002929688</ele>
        <time>2011-08-20T06:41:36Z</time>
      </trkpt>
      <trkpt lat="42.70681" lon="1.41588">
        <ele>1391.1650390625</ele>
        <time>2011-08-20T06:41:40Z</time>
      </trkpt>
      <trkpt lat="42.70682" lon="1.41585">
        <ele>1394.0490722656</ele>
        <time>2011-08-20T06:41:45Z</time>
      </trkpt>
      <trkpt lat="42.70678" lon="1.41582">
        <ele>1395.0102539062</ele>
        <time>2011-08-20T06:41:49Z</time>
      </trkpt>
      <trkpt lat="42.70678" lon="1.41581">
        <ele>1395.0102539062</ele>
        <time>2011-08-20T06:41:50Z</time>
      </trkpt>
      <trkpt lat="42.70676" lon="1.41572">
        <ele>1395.4909667969</ele>
        <time>2011-08-20T06:41:55Z</time>
      </trkpt>
      <trkpt lat="42.70679" lon="1.41567">
        <ele>1398.85546875</ele>
        <time>2011-08-20T06:42:03Z</time>
      </trkpt>
      <trkpt lat="42.70681" lon="1.41563">
        <ele>1402.7006835938</ele>
        <time>2011-08-20T06:42:08Z</time>
      </trkpt>
      <trkpt lat="42.70679" lon="1.41556">
        <ele>1403.1813964844</ele>
        <time>2011-08-20T06:42:13Z</time>
      </trkpt>
      <trkpt lat="42.70675" lon="1.41551">
        <ele>1402.2199707031</ele>
        <time>2011-08-20T06:42:17Z</time>
      </trkpt>
      <trkpt lat="42.7067" lon="1.41546">
        <ele>1399.3361816406</ele>
        <time>2011-08-20T06:42:20Z</time>
      </trkpt>
      <trkpt lat="42.70662" lon="1.41542">
        <ele>1396.4523925781</ele>
        <time>2011-08-20T06:42:24Z</time>
      </trkpt>
      <trkpt lat="42.70657" lon="1.41538">
        <ele>1392.6071777344</ele>
        <time>2011-08-20T06:42:27Z</time>
      </trkpt>
      <trkpt lat="42.70658" lon="1.41534">
        <ele>1393.0876464844</ele>
        <time>2011-08-20T06:42:33Z</time>
      </trkpt>
      <trkpt lat="42.70658" lon="1.4153">
        <ele>1392.1264648438</ele>
        <time>2011-08-20T06:42:39Z</time>
      </trkpt>
      <trkpt lat="42.70657" lon="1.41527">
        <ele>1392.1264648438</ele>
        <time>2011-08-20T06:42:42Z</time>
      </trkpt>
      <trkpt lat="42.70657" lon="1.41525">
        <ele>1392.1264648438</ele>
        <time>2011-08-20T06:42:46Z</time>
      </trkpt>
      <trkpt lat="42.7066" lon="1.41519">
        <ele>1395.4909667969</ele>
        <time>2011-08-20T06:42:55Z</time>
      </trkpt>
      <trkpt lat="42.70662" lon="1.41516">
        <ele>1396.4523925781</ele>
        <time>2011-08-20T06:42:59Z</time>
      </trkpt>
      <trkpt lat="42.70663" lon="1.41517">
        <ele>1396.4523925781</ele>
        <time>2011-08-20T06:43:01Z</time>
      </trkpt>
      <trkpt lat="42.70671" lon="1.41516">
        <ele>1395.9716796875</ele>
        <time>2011-08-20T06:43:07Z</time>
      </trkpt>
      <trkpt lat="42.70675" lon="1.41505">
        <ele>1394.5295410156</ele>
        <time>2011-08-20T06:43:12Z</time>
      </trkpt>
      <trkpt lat="42.70676" lon="1.41502">
        <ele>1393.568359375</ele>
        <time>2011-08-20T06:43:14Z</time>
      </trkpt>
      <trkpt lat="42.70678" lon="1.41489">
        <ele>1393.568359375</ele>
        <time>2011-08-20T06:43:21Z</time>
      </trkpt>
      <trkpt lat="42.70677" lon="1.41488">
        <ele>1393.568359375</ele>
        <time>2011-08-20T06:43:22Z</time>
      </trkpt>
      <trkpt lat="42.70677" lon="1.41485">
        <ele>1394.5295410156</ele>
        <time>2011-08-20T06:43:24Z</time>
      </trkpt>
      <trkpt lat="42.70674" lon="1.4148">
        <ele>1395.4909667969</ele>
        <time>2011-08-20T06:43:29Z</time>
      </trkpt>
      <trkpt lat="42.70673" lon="1.41466">
        <ele>1398.3747558594</ele>
        <time>2011-08-20T06:43:37Z</time>
      </trkpt>
      <trkpt lat="42.70674" lon="1.41454">
        <ele>1399.8168945312</ele>
        <time>2011-08-20T06:43:43Z</time>
      </trkpt>
      <trkpt lat="42.70675" lon="1.41448">
        <ele>1403.662109375</ele>
        <time>2011-08-20T06:43:47Z</time>
      </trkpt>
      <trkpt lat="42.70673" lon="1.41436">
        <ele>1405.1042480469</ele>
        <time>2011-08-20T06:43:53Z</time>
      </trkpt>
      <trkpt lat="42.70675" lon="1.41422">
        <ele>1407.0268554688</ele>
        <time>2011-08-20T06:43:58Z</time>
      </trkpt>
      <trkpt lat="42.70676" lon="1.41415">
        <ele>1410.8720703125</ele>
        <time>2011-08-20T06:44:02Z</time>
      </trkpt>
      <trkpt lat="42.70676" lon="1.41412">
        <ele>1411.3527832031</ele>
        <time>2011-08-20T06:44:03Z</time>
      </trkpt>
      <trkpt lat="42.70682" lon="1.41401">
        <ele>1412.7946777344</ele>
        <time>2011-08-20T06:44:07Z</time>
      </trkpt>
      <trkpt lat="42.70684" lon="1.41392">
        <ele>1411.8334960938</ele>
        <time>2011-08-20T06:44:12Z</time>
      </trkpt>
      <trkpt lat="42.70684" lon="1.4139">
        <ele>1411.8334960938</ele>
        <time>2011-08-20T06:44:13Z</time>
      </trkpt>
      <trkpt lat="42.70685" lon="1.41387">
        <ele>1412.3139648438</ele>
        <time>2011-08-20T06:44:15Z</time>
      </trkpt>
      <trkpt lat="42.70686" lon="1.41379">
        <ele>1410.3913574219</ele>
        <time>2011-08-20T06:44:19Z</time>
      </trkpt>
      <trkpt lat="42.70687" lon="1.41365">
        <ele>1410.8720703125</ele>
        <time>2011-08-20T06:44:24Z</time>
      </trkpt>
      <trkpt lat="42.70687" lon="1.41351">
        <ele>1410.8720703125</ele>
        <time>2011-08-20T06:44:29Z</time>
      </trkpt>
      <trkpt lat="42.70687" lon="1.41345">
        <ele>1409.9106445312</ele>
        <time>2011-08-20T06:44:32Z</time>
      </trkpt>
      <trkpt lat="42.70685" lon="1.41341">
        <ele>1412.3139648438</ele>
        <time>2011-08-20T06:44:36Z</time>
      </trkpt>
      <trkpt lat="42.70692" lon="1.41335">
        <ele>1417.6010742188</ele>
        <time>2011-08-20T06:44:40Z</time>
      </trkpt>
      <trkpt lat="42.7069" lon="1.41327">
        <ele>1418.0817871094</ele>
        <time>2011-08-20T06:44:45Z</time>
      </trkpt>
      <trkpt lat="42.70686" lon="1.41321">
        <ele>1420.0046386719</ele>
        <time>2011-08-20T06:44:49Z</time>
      </trkpt>
      <trkpt lat="42.70689" lon="1.41313">
        <ele>1419.5239257812</ele>
        <time>2011-08-20T06:44:53Z</time>
      </trkpt>
      <trkpt lat="42.70691" lon="1.41308">
        <ele>1422.888671875</ele>
        <time>2011-08-20T06:44:58Z</time>
      </trkpt>
      <trkpt lat="42.70685" lon="1.41295">
        <ele>1427.6950683594</ele>
        <time>2011-08-20T06:45:04Z</time>
      </trkpt>
      <trkpt lat="42.70681" lon="1.41287">
        <ele>1428.6564941406</ele>
        <time>2011-08-20T06:45:07Z</time>
      </trkpt>
      <trkpt lat="42.70674" lon="1.41265">
        <ele>1428.6564941406</ele>
        <time>2011-08-20T06:45:13Z</time>
      </trkpt>
      <trkpt lat="42.7067" lon="1.41257">
        <ele>1429.1369628906</ele>
        <time>2011-08-20T06:45:17Z</time>
      </trkpt>
      <trkpt lat="42.70677" lon="1.41256">
        <ele>1428.6564941406</ele>
        <time>2011-08-20T06:45:22Z</time>
      </trkpt>
      <trkpt lat="42.70679" lon="1.41252">
        <ele>1428.6564941406</ele>
        <time>2011-08-20T06:45:25Z</time>
      </trkpt>
      <trkpt lat="42.70682" lon="1.41244">
        <ele>1427.6950683594</ele>
        <time>2011-08-20T06:45:31Z</time>
      </trkpt>
      <trkpt lat="42.70679" lon="1.41234">
        <ele>1427.2145996094</ele>
        <time>2011-08-20T06:45:35Z</time>
      </trkpt>
      <trkpt lat="42.70687" lon="1.41221">
        <ele>1426.7338867188</ele>
        <time>2011-08-20T06:45:41Z</time>
      </trkpt>
      <trkpt lat="42.70686" lon="1.41215">
        <ele>1425.7724609375</ele>
        <time>2011-08-20T06:45:46Z</time>
      </trkpt>
      <trkpt lat="42.70686" lon="1.41209">
        <ele>1426.2531738281</ele>
        <time>2011-08-20T06:45:52Z</time>
      </trkpt>
      <trkpt lat="42.70689" lon="1.41201">
        <ele>1425.2917480469</ele>
        <time>2011-08-20T06:45:57Z</time>
      </trkpt>
      <trkpt lat="42.70689" lon="1.41191">
        <ele>1424.8112792969</ele>
        <time>2011-08-20T06:46:02Z</time>
      </trkpt>
      <trkpt lat="42.70689" lon="1.41184">
        <ele>1423.8498535156</ele>
        <time>2011-08-20T06:46:07Z</time>
      </trkpt>
      <trkpt lat="42.7069" lon="1.41175">
        <ele>1422.4079589844</ele>
        <time>2011-08-20T06:46:13Z</time>
      </trkpt>
      <trkpt lat="42.70691" lon="1.4117">
        <ele>1423.3693847656</ele>
        <time>2011-08-20T06:46:17Z</time>
      </trkpt>
      <trkpt lat="42.70692" lon="1.41167">
        <ele>1424.8112792969</ele>
        <time>2011-08-20T06:46:19Z</time>
      </trkpt>
      <trkpt lat="42.70694" lon="1.41161">
        <ele>1424.3305664062</ele>
        <time>2011-08-20T06:46:24Z</time>
      </trkpt>
      <trkpt lat="42.70692" lon="1.41158">
        <ele>1423.8498535156</ele>
        <time>2011-08-20T06:46:26Z</time>
      </trkpt>
      <trkpt lat="42.70688" lon="1.41152">
        <ele>1422.888671875</ele>
        <time>2011-08-20T06:46:30Z</time>
      </trkpt>
      <trkpt lat="42.70684" lon="1.41149">
        <ele>1422.888671875</ele>
        <time>2011-08-20T06:46:33Z</time>
      </trkpt>
      <trkpt lat="42.70679" lon="1.41145">
        <ele>1421.4465332031</ele>
        <time>2011-08-20T06:46:38Z</time>
      </trkpt>
      <trkpt lat="42.70676" lon="1.41138">
        <ele>1420.4853515625</ele>
        <time>2011-08-20T06:46:45Z</time>
      </trkpt>
      <trkpt lat="42.7067" lon="1.41126">
        <ele>1419.5239257812</ele>
        <time>2011-08-20T06:46:56Z</time>
      </trkpt>
      <trkpt lat="42.70671" lon="1.41111">
        <ele>1420.0046386719</ele>
        <time>2011-08-20T06:47:06Z</time>
      </trkpt>
      <trkpt lat="42.70663" lon="1.41103">
        <ele>1419.5239257812</ele>
        <time>2011-08-20T06:47:13Z</time>
      </trkpt>
      <trkpt lat="42.70664" lon="1.41099">
        <ele>1420.4853515625</ele>
        <time>2011-08-20T06:47:17Z</time>
      </trkpt>
      <trkpt lat="42.70663" lon="1.41093">
        <ele>1420.4853515625</ele>
        <time>2011-08-20T06:47:21Z</time>
      </trkpt>
      <trkpt lat="42.70663" lon="1.41087">
        <ele>1420.0046386719</ele>
        <time>2011-08-20T06:47:25Z</time>
      </trkpt>
      <trkpt lat="42.70658" lon="1.41082">
        <ele>1420.4853515625</ele>
        <time>2011-08-20T06:47:29Z</time>
      </trkpt>
      <trkpt lat="42.70654" lon="1.41076">
        <ele>1419.5239257812</ele>
        <time>2011-08-20T06:47:34Z</time>
      </trkpt>
      <trkpt lat="42.70649" lon="1.41069">
        <ele>1418.5625</ele>
        <time>2011-08-20T06:47:39Z</time>
      </trkpt>
      <trkpt lat="42.70646" lon="1.41062">
        <ele>1418.5625</ele>
        <time>2011-08-20T06:47:44Z</time>
      </trkpt>
      <trkpt lat="42.70643" lon="1.41058">
        <ele>1419.0432128906</ele>
        <time>2011-08-20T06:47:49Z</time>
      </trkpt>
      <trkpt lat="42.7064" lon="1.41056">
        <ele>1419.5239257812</ele>
        <time>2011-08-20T06:47:53Z</time>
      </trkpt>
      <trkpt lat="42.70639" lon="1.41053">
        <ele>1420.4853515625</ele>
        <time>2011-08-20T06:47:56Z</time>
      </trkpt>
      <trkpt lat="42.70635" lon="1.41049">
        <ele>1421.9272460938</ele>
        <time>2011-08-20T06:48:00Z</time>
      </trkpt>
      <trkpt lat="42.70633" lon="1.41042">
        <ele>1419.5239257812</ele>
        <time>2011-08-20T06:48:05Z</time>
      </trkpt>
      <trkpt lat="42.70631" lon="1.41037">
        <ele>1419.0432128906</ele>
        <time>2011-08-20T06:48:08Z</time>
      </trkpt>
      <trkpt lat="42.70632" lon="1.41032">
        <ele>1421.4465332031</ele>
        <time>2011-08-20T06:48:14Z</time>
      </trkpt>
      <trkpt lat="42.70631" lon="1.41024">
        <ele>1423.8498535156</ele>
        <time>2011-08-20T06:48:21Z</time>
      </trkpt>
      <trkpt lat="42.7063" lon="1.41018">
        <ele>1425.2917480469</ele>
        <time>2011-08-20T06:48:27Z</time>
      </trkpt>
      <trkpt lat="42.70634" lon="1.41013">
        <ele>1430.5791015625</ele>
        <time>2011-08-20T06:48:33Z</time>
      </trkpt>
      <trkpt lat="42.70634" lon="1.41017">
        <ele>1431.0598144531</ele>
        <time>2011-08-20T06:48:39Z</time>
      </trkpt>
      <trkpt lat="42.70627" lon="1.4102">
        <ele>1430.5791015625</ele>
        <time>2011-08-20T06:48:42Z</time>
      </trkpt>
      <trkpt lat="42.70625" lon="1.41024">
        <ele>1431.5402832031</ele>
        <time>2011-08-20T06:48:46Z</time>
      </trkpt>
      <trkpt lat="42.70626" lon="1.41029">
        <ele>1432.5017089844</ele>
        <time>2011-08-20T06:48:50Z</time>
      </trkpt>
      <trkpt lat="42.70622" lon="1.41034">
        <ele>1431.5402832031</ele>
        <time>2011-08-20T06:48:55Z</time>
      </trkpt>
      <trkpt lat="42.70615" lon="1.41039">
        <ele>1429.6176757812</ele>
        <time>2011-08-20T06:49:00Z</time>
      </trkpt>
      <trkpt lat="42.70613" lon="1.41039">
        <ele>1429.1369628906</ele>
        <time>2011-08-20T06:49:01Z</time>
      </trkpt>
      <trkpt lat="42.70611" lon="1.41035">
        <ele>1430.0983886719</ele>
        <time>2011-08-20T06:49:05Z</time>
      </trkpt>
      <trkpt lat="42.70611" lon="1.41024">
        <ele>1430.5791015625</ele>
        <time>2011-08-20T06:49:12Z</time>
      </trkpt>
      <trkpt lat="42.70611" lon="1.41019">
        <ele>1432.0209960938</ele>
        <time>2011-08-20T06:49:16Z</time>
      </trkpt>
      <trkpt lat="42.7061" lon="1.41014">
        <ele>1434.9050292969</ele>
        <time>2011-08-20T06:49:20Z</time>
      </trkpt>
      <trkpt lat="42.70611" lon="1.41012">
        <ele>1435.8662109375</ele>
        <time>2011-08-20T06:49:21Z</time>
      </trkpt>
      <trkpt lat="42.70614" lon="1.41006">
        <ele>1440.6728515625</ele>
        <time>2011-08-20T06:49:26Z</time>
      </trkpt>
      <trkpt lat="42.70616" lon="1.41">
        <ele>1444.0375976562</ele>
        <time>2011-08-20T06:49:30Z</time>
      </trkpt>
      <trkpt lat="42.70617" lon="1.40996">
        <ele>1447.4020996094</ele>
        <time>2011-08-20T06:49:36Z</time>
      </trkpt>
      <trkpt lat="42.70616" lon="1.4099">
        <ele>1450.7666015625</ele>
        <time>2011-08-20T06:49:40Z</time>
      </trkpt>
      <trkpt lat="42.70617" lon="1.40984">
        <ele>1450.2861328125</ele>
        <time>2011-08-20T06:49:44Z</time>
      </trkpt>
      <trkpt lat="42.70619" lon="1.40978">
        <ele>1452.2087402344</ele>
        <time>2011-08-20T06:49:49Z</time>
      </trkpt>
      <trkpt lat="42.70622" lon="1.40971">
        <ele>1452.2087402344</ele>
        <time>2011-08-20T06:49:54Z</time>
      </trkpt>
      <trkpt lat="42.70619" lon="1.40966">
        <ele>1453.6508789062</ele>
        <time>2011-08-20T06:49:58Z</time>
      </trkpt>
      <trkpt lat="42.70622" lon="1.40961">
        <ele>1457.0153808594</ele>
        <time>2011-08-20T06:50:02Z</time>
      </trkpt>
      <trkpt lat="42.70621" lon="1.40954">
        <ele>1456.0539550781</ele>
        <time>2011-08-20T06:50:07Z</time>
      </trkpt>
      <trkpt lat="42.70619" lon="1.40947">
        <ele>1454.6120605469</ele>
        <time>2011-08-20T06:50:11Z</time>
      </trkpt>
      <trkpt lat="42.70617" lon="1.40944">
        <ele>1453.1701660156</ele>
        <time>2011-08-20T06:50:13Z</time>
      </trkpt>
      <trkpt lat="42.70617" lon="1.40935">
        <ele>1453.1701660156</ele>
        <time>2011-08-20T06:50:19Z</time>
      </trkpt>
      <trkpt lat="42.70621" lon="1.4093">
        <ele>1456.0539550781</ele>
        <time>2011-08-20T06:50:24Z</time>
      </trkpt>
      <trkpt lat="42.70622" lon="1.40925">
        <ele>1457.49609375</ele>
        <time>2011-08-20T06:50:29Z</time>
      </trkpt>
      <trkpt lat="42.70623" lon="1.40918">
        <ele>1459.4187011719</ele>
        <time>2011-08-20T06:50:36Z</time>
      </trkpt>
      <trkpt lat="42.70627" lon="1.40911">
        <ele>1462.783203125</ele>
        <time>2011-08-20T06:50:41Z</time>
      </trkpt>
      <trkpt lat="42.70655" lon="1.40911">
        <ele>1485.3742675781</ele>
        <time>2011-08-20T06:50:46Z</time>
      </trkpt>
      <trkpt lat="42.70654" lon="1.40901">
        <ele>1485.8549804688</ele>
        <time>2011-08-20T06:50:52Z</time>
      </trkpt>
      <trkpt lat="42.70652" lon="1.40894">
        <ele>1488.7390136719</ele>
        <time>2011-08-20T06:50:57Z</time>
      </trkpt>
      <trkpt lat="42.70651" lon="1.40887">
        <ele>1486.3356933594</ele>
        <time>2011-08-20T06:51:01Z</time>
      </trkpt>
      <trkpt lat="42.70655" lon="1.40871">
        <ele>1494.9873046875</ele>
        <time>2011-08-20T06:51:28Z</time>
      </trkpt>
      <trkpt lat="42.70653" lon="1.40864">
        <ele>1492.5842285156</ele>
        <time>2011-08-20T06:51:33Z</time>
      </trkpt>
      <trkpt lat="42.70653" lon="1.40861">
        <ele>1492.5842285156</ele>
        <time>2011-08-20T06:51:35Z</time>
      </trkpt>
      <trkpt lat="42.70652" lon="1.40851">
        <ele>1495.4680175781</ele>
        <time>2011-08-20T06:51:42Z</time>
      </trkpt>
      <trkpt lat="42.7065" lon="1.40847">
        <ele>1496.4294433594</ele>
        <time>2011-08-20T06:51:46Z</time>
      </trkpt>
      <trkpt lat="42.70648" lon="1.4084">
        <ele>1495.9487304688</ele>
        <time>2011-08-20T06:51:51Z</time>
      </trkpt>
      <trkpt lat="42.70647" lon="1.40832">
        <ele>1494.9873046875</ele>
        <time>2011-08-20T06:51:58Z</time>
      </trkpt>
      <trkpt lat="42.70647" lon="1.40827">
        <ele>1494.9873046875</ele>
        <time>2011-08-20T06:52:02Z</time>
      </trkpt>
      <trkpt lat="42.70646" lon="1.40821">
        <ele>1496.9099121094</ele>
        <time>2011-08-20T06:52:09Z</time>
      </trkpt>
      <trkpt lat="42.70644" lon="1.40817">
        <ele>1499.3132324219</ele>
        <time>2011-08-20T06:52:14Z</time>
      </trkpt>
      <trkpt lat="42.7064" lon="1.40813">
        <ele>1499.7939453125</ele>
        <time>2011-08-20T06:52:19Z</time>
      </trkpt>
      <trkpt lat="42.70638" lon="1.40808">
        <ele>1500.7553710938</ele>
        <time>2011-08-20T06:52:23Z</time>
      </trkpt>
      <trkpt lat="42.70636" lon="1.40808">
        <ele>1501.2360839844</ele>
        <time>2011-08-20T06:52:24Z</time>
      </trkpt>
      <trkpt lat="42.70633" lon="1.40808">
        <ele>1504.1201171875</ele>
        <time>2011-08-20T06:52:31Z</time>
      </trkpt>
      <trkpt lat="42.7062" lon="1.40793">
        <ele>1510.3684082031</ele>
        <time>2011-08-20T06:52:53Z</time>
      </trkpt>
      <trkpt lat="42.70623" lon="1.40794">
        <ele>1516.6171875</ele>
        <time>2011-08-20T06:53:00Z</time>
      </trkpt>
      <trkpt lat="42.70617" lon="1.40793">
        <ele>1518.0590820312</ele>
        <time>2011-08-20T06:53:08Z</time>
      </trkpt>
      <trkpt lat="42.70615" lon="1.40794">
        <ele>1520.9431152344</ele>
        <time>2011-08-20T06:53:13Z</time>
      </trkpt>
      <trkpt lat="42.70609" lon="1.40803">
        <ele>1531.998046875</ele>
        <time>2011-08-20T06:53:29Z</time>
      </trkpt>
      <trkpt lat="42.70608" lon="1.40806">
        <ele>1534.4016113281</ele>
        <time>2011-08-20T06:53:34Z</time>
      </trkpt>
      <trkpt lat="42.70603" lon="1.40808">
        <ele>1533.9208984375</ele>
        <time>2011-08-20T06:53:37Z</time>
      </trkpt>
      <trkpt lat="42.70604" lon="1.40816">
        <ele>1536.8046875</ele>
        <time>2011-08-20T06:53:44Z</time>
      </trkpt>
      <trkpt lat="42.70604" lon="1.40821">
        <ele>1543.0532226562</ele>
        <time>2011-08-20T06:53:49Z</time>
      </trkpt>
      <trkpt lat="42.70598" lon="1.40821">
        <ele>1547.8598632812</ele>
        <time>2011-08-20T06:53:58Z</time>
      </trkpt>
      <trkpt lat="42.70592" lon="1.40817">
        <ele>1545.4565429688</ele>
        <time>2011-08-20T06:54:03Z</time>
      </trkpt>
      <trkpt lat="42.70589" lon="1.40814">
        <ele>1545.4565429688</ele>
        <time>2011-08-20T06:54:08Z</time>
      </trkpt>
      <trkpt lat="42.70585" lon="1.40809">
        <ele>1544.9758300781</ele>
        <time>2011-08-20T06:54:14Z</time>
      </trkpt>
      <trkpt lat="42.70584" lon="1.40806">
        <ele>1544.0146484375</ele>
        <time>2011-08-20T06:54:18Z</time>
      </trkpt>
      <trkpt lat="42.70578" lon="1.40793">
        <ele>1544.0146484375</ele>
        <time>2011-08-20T06:54:30Z</time>
      </trkpt>
      <trkpt lat="42.7057" lon="1.40787">
        <ele>1540.6499023438</ele>
        <time>2011-08-20T06:54:35Z</time>
      </trkpt>
      <trkpt lat="42.70568" lon="1.40785">
        <ele>1540.1694335938</ele>
        <time>2011-08-20T06:54:37Z</time>
      </trkpt>
      <trkpt lat="42.70554" lon="1.40778">
        <ele>1530.5561523438</ele>
        <time>2011-08-20T06:54:42Z</time>
      </trkpt>
      <trkpt lat="42.70554" lon="1.40773">
        <ele>1531.0368652344</ele>
        <time>2011-08-20T06:54:46Z</time>
      </trkpt>
      <trkpt lat="42.70554" lon="1.40768">
        <ele>1531.998046875</ele>
        <time>2011-08-20T06:54:50Z</time>
      </trkpt>
      <trkpt lat="42.70555" lon="1.4076">
        <ele>1534.4016113281</ele>
        <time>2011-08-20T06:54:57Z</time>
      </trkpt>
      <trkpt lat="42.70556" lon="1.40755">
        <ele>1539.2080078125</ele>
        <time>2011-08-20T06:55:03Z</time>
      </trkpt>
      <trkpt lat="42.70554" lon="1.40752">
        <ele>1539.6887207031</ele>
        <time>2011-08-20T06:55:07Z</time>
      </trkpt>
      <trkpt lat="42.70555" lon="1.40749">
        <ele>1540.6499023438</ele>
        <time>2011-08-20T06:55:09Z</time>
      </trkpt>
      <trkpt lat="42.70557" lon="1.40743">
        <ele>1543.0532226562</ele>
        <time>2011-08-20T06:55:15Z</time>
      </trkpt>
      <trkpt lat="42.70556" lon="1.40741">
        <ele>1544.4951171875</ele>
        <time>2011-08-20T06:55:19Z</time>
      </trkpt>
      <trkpt lat="42.70557" lon="1.40737">
        <ele>1547.8598632812</ele>
        <time>2011-08-20T06:55:24Z</time>
      </trkpt>
      <trkpt lat="42.70556" lon="1.40735">
        <ele>1546.8984375</ele>
        <time>2011-08-20T06:55:26Z</time>
      </trkpt>
      <trkpt lat="42.70555" lon="1.40734">
        <ele>1548.8212890625</ele>
        <time>2011-08-20T06:55:33Z</time>
      </trkpt>
      <trkpt lat="42.70551" lon="1.40734">
        <ele>1549.3020019531</ele>
        <time>2011-08-20T06:55:38Z</time>
      </trkpt>
      <trkpt lat="42.70549" lon="1.40739">
        <ele>1554.1086425781</ele>
        <time>2011-08-20T06:55:43Z</time>
      </trkpt>
      <trkpt lat="42.70546" lon="1.40739">
        <ele>1555.5505371094</ele>
        <time>2011-08-20T06:55:49Z</time>
      </trkpt>
      <trkpt lat="42.70543" lon="1.40738">
        <ele>1556.9924316406</ele>
        <time>2011-08-20T06:55:54Z</time>
      </trkpt>
      <trkpt lat="42.70542" lon="1.40734">
        <ele>1557.4731445312</ele>
        <time>2011-08-20T06:55:58Z</time>
      </trkpt>
      <trkpt lat="42.70541" lon="1.40727">
        <ele>1558.9150390625</ele>
        <time>2011-08-20T06:56:03Z</time>
      </trkpt>
      <trkpt lat="42.70544" lon="1.40723">
        <ele>1562.7602539062</ele>
        <time>2011-08-20T06:56:08Z</time>
      </trkpt>
      <trkpt lat="42.70546" lon="1.40721">
        <ele>1565.1638183594</ele>
        <time>2011-08-20T06:56:10Z</time>
      </trkpt>
      <trkpt lat="42.70546" lon="1.40715">
        <ele>1569.0090332031</ele>
        <time>2011-08-20T06:56:16Z</time>
      </trkpt>
      <trkpt lat="42.70544" lon="1.40712">
        <ele>1567.5668945312</ele>
        <time>2011-08-20T06:56:20Z</time>
      </trkpt>
      <trkpt lat="42.70542" lon="1.40711">
        <ele>1567.0864257812</ele>
        <time>2011-08-20T06:56:21Z</time>
      </trkpt>
      <trkpt lat="42.70537" lon="1.40706">
        <ele>1563.7214355469</ele>
        <time>2011-08-20T06:56:26Z</time>
      </trkpt>
      <trkpt lat="42.70538" lon="1.40701">
        <ele>1564.6831054688</ele>
        <time>2011-08-20T06:56:31Z</time>
      </trkpt>
      <trkpt lat="42.7054" lon="1.40698">
        <ele>1567.5668945312</ele>
        <time>2011-08-20T06:56:35Z</time>
      </trkpt>
      <trkpt lat="42.70533" lon="1.40695">
        <ele>1565.1638183594</ele>
        <time>2011-08-20T06:56:41Z</time>
      </trkpt>
      <trkpt lat="42.7053" lon="1.40688">
        <ele>1565.1638183594</ele>
        <time>2011-08-20T06:56:48Z</time>
      </trkpt>
      <trkpt lat="42.7053" lon="1.40687">
        <ele>1566.6057128906</ele>
        <time>2011-08-20T06:56:53Z</time>
      </trkpt>
      <trkpt lat="42.70525" lon="1.40682">
        <ele>1569.4897460938</ele>
        <time>2011-08-20T06:57:04Z</time>
      </trkpt>
      <trkpt lat="42.70523" lon="1.40677">
        <ele>1569.0090332031</ele>
        <time>2011-08-20T06:57:10Z</time>
      </trkpt>
      <trkpt lat="42.70525" lon="1.40675">
        <ele>1571.8928222656</ele>
        <time>2011-08-20T06:57:14Z</time>
      </trkpt>
      <trkpt lat="42.70524" lon="1.40673">
        <ele>1574.7768554688</ele>
        <time>2011-08-20T06:57:18Z</time>
      </trkpt>
      <trkpt lat="42.70525" lon="1.40668">
        <ele>1575.2573242188</ele>
        <time>2011-08-20T06:57:22Z</time>
      </trkpt>
      <trkpt lat="42.70522" lon="1.40664">
        <ele>1575.7380371094</ele>
        <time>2011-08-20T06:57:26Z</time>
      </trkpt>
      <trkpt lat="42.70517" lon="1.40661">
        <ele>1575.2573242188</ele>
        <time>2011-08-20T06:57:31Z</time>
      </trkpt>
      <trkpt lat="42.70515" lon="1.40658">
        <ele>1576.21875</ele>
        <time>2011-08-20T06:57:37Z</time>
      </trkpt>
      <trkpt lat="42.70513" lon="1.40661">
        <ele>1578.1413574219</ele>
        <time>2011-08-20T06:57:42Z</time>
      </trkpt>
      <trkpt lat="42.70514" lon="1.40664">
        <ele>1581.0256347656</ele>
        <time>2011-08-20T06:57:46Z</time>
      </trkpt>
      <trkpt lat="42.70513" lon="1.40665">
        <ele>1584.3901367188</ele>
        <time>2011-08-20T06:57:51Z</time>
      </trkpt>
      <trkpt lat="42.70514" lon="1.4067">
        <ele>1593.5224609375</ele>
        <time>2011-08-20T06:58:01Z</time>
      </trkpt>
      <trkpt lat="42.70514" lon="1.4067">
        <ele>1594.4836425781</ele>
        <time>2011-08-20T06:58:02Z</time>
      </trkpt>
      <trkpt lat="42.70507" lon="1.40672">
        <ele>1593.5224609375</ele>
        <time>2011-08-20T06:58:08Z</time>
      </trkpt>
      <trkpt lat="42.70505" lon="1.4067">
        <ele>1594.9643554688</ele>
        <time>2011-08-20T06:58:14Z</time>
      </trkpt>
      <trkpt lat="42.70503" lon="1.40667">
        <ele>1595.92578125</ele>
        <time>2011-08-20T06:58:19Z</time>
      </trkpt>
      <trkpt lat="42.70501" lon="1.40663">
        <ele>1595.4450683594</ele>
        <time>2011-08-20T06:58:24Z</time>
      </trkpt>
      <trkpt lat="42.70501" lon="1.40659">
        <ele>1594.4836425781</ele>
        <time>2011-08-20T06:58:28Z</time>
      </trkpt>
      <trkpt lat="42.70498" lon="1.40653">
        <ele>1592.0805664062</ele>
        <time>2011-08-20T06:58:33Z</time>
      </trkpt>
      <trkpt lat="42.70496" lon="1.4065">
        <ele>1592.5612792969</ele>
        <time>2011-08-20T06:58:38Z</time>
      </trkpt>
      <trkpt lat="42.70493" lon="1.40648">
        <ele>1590.6384277344</ele>
        <time>2011-08-20T06:58:43Z</time>
      </trkpt>
      <trkpt lat="42.70494" lon="1.40649">
        <ele>1596.8872070312</ele>
        <time>2011-08-20T06:58:53Z</time>
      </trkpt>
      <trkpt lat="42.70488" lon="1.4065">
        <ele>1597.3679199219</ele>
        <time>2011-08-20T06:59:02Z</time>
      </trkpt>
      <trkpt lat="42.70483" lon="1.40651">
        <ele>1596.4067382812</ele>
        <time>2011-08-20T06:59:07Z</time>
      </trkpt>
      <trkpt lat="42.70479" lon="1.40653">
        <ele>1596.4067382812</ele>
        <time>2011-08-20T06:59:13Z</time>
      </trkpt>
      <trkpt lat="42.70478" lon="1.40654">
        <ele>1599.2905273438</ele>
        <time>2011-08-20T06:59:17Z</time>
      </trkpt>
      <trkpt lat="42.70478" lon="1.40649">
        <ele>1601.2131347656</ele>
        <time>2011-08-20T06:59:23Z</time>
      </trkpt>
      <trkpt lat="42.70479" lon="1.40646">
        <ele>1603.1357421875</ele>
        <time>2011-08-20T06:59:27Z</time>
      </trkpt>
      <trkpt lat="42.70477" lon="1.40642">
        <ele>1603.6164550781</ele>
        <time>2011-08-20T06:59:32Z</time>
      </trkpt>
      <trkpt lat="42.70474" lon="1.40639">
        <ele>1604.5776367188</ele>
        <time>2011-08-20T06:59:36Z</time>
      </trkpt>
      <trkpt lat="42.70472" lon="1.40636">
        <ele>1604.5776367188</ele>
        <time>2011-08-20T06:59:40Z</time>
      </trkpt>
      <trkpt lat="42.7047" lon="1.40638">
        <ele>1605.5390625</ele>
        <time>2011-08-20T06:59:45Z</time>
      </trkpt>
      <trkpt lat="42.70468" lon="1.4064">
        <ele>1606.5002441406</ele>
        <time>2011-08-20T06:59:49Z</time>
      </trkpt>
      <trkpt lat="42.70468" lon="1.40641">
        <ele>1607.9423828125</ele>
        <time>2011-08-20T06:59:51Z</time>
      </trkpt>
      <trkpt lat="42.70465" lon="1.40645">
        <ele>1610.3454589844</ele>
        <time>2011-08-20T06:59:57Z</time>
      </trkpt>
      <trkpt lat="42.70462" lon="1.4065">
        <ele>1612.7490234375</ele>
        <time>2011-08-20T07:00:03Z</time>
      </trkpt>
      <trkpt lat="42.70459" lon="1.40652">
        <ele>1617.0749511719</ele>
        <time>2011-08-20T07:00:09Z</time>
      </trkpt>
      <trkpt lat="42.70458" lon="1.40657">
        <ele>1618.0361328125</ele>
        <time>2011-08-20T07:00:13Z</time>
      </trkpt>
      <trkpt lat="42.70454" lon="1.4066">
        <ele>1619.9587402344</ele>
        <time>2011-08-20T07:00:19Z</time>
      </trkpt>
      <trkpt lat="42.70451" lon="1.4066">
        <ele>1620.9201660156</ele>
        <time>2011-08-20T07:00:26Z</time>
      </trkpt>
      <trkpt lat="42.70439" lon="1.40658">
        <ele>1622.3620605469</ele>
        <time>2011-08-20T07:00:48Z</time>
      </trkpt>
      <trkpt lat="42.70436" lon="1.40659">
        <ele>1623.3234863281</ele>
        <time>2011-08-20T07:00:53Z</time>
      </trkpt>
      <trkpt lat="42.70432" lon="1.40655">
        <ele>1630.052734375</ele>
        <time>2011-08-20T07:01:10Z</time>
      </trkpt>
      <trkpt lat="42.70429" lon="1.40648">
        <ele>1628.6108398438</ele>
        <time>2011-08-20T07:01:15Z</time>
      </trkpt>
      <trkpt lat="42.70426" lon="1.40645">
        <ele>1628.1301269531</ele>
        <time>2011-08-20T07:01:20Z</time>
      </trkpt>
      <trkpt lat="42.70423" lon="1.4064">
        <ele>1628.6108398438</ele>
        <time>2011-08-20T07:01:26Z</time>
      </trkpt>
      <trkpt lat="42.7042" lon="1.40636">
        <ele>1629.5720214844</ele>
        <time>2011-08-20T07:01:33Z</time>
      </trkpt>
      <trkpt lat="42.70417" lon="1.40635">
        <ele>1630.5334472656</ele>
        <time>2011-08-20T07:01:38Z</time>
      </trkpt>
      <trkpt lat="42.70414" lon="1.40638">
        <ele>1632.4560546875</ele>
        <time>2011-08-20T07:01:44Z</time>
      </trkpt>
      <trkpt lat="42.7041" lon="1.40639">
        <ele>1633.4172363281</ele>
        <time>2011-08-20T07:01:50Z</time>
      </trkpt>
      <trkpt lat="42.70407" lon="1.40637">
        <ele>1634.3786621094</ele>
        <time>2011-08-20T07:01:56Z</time>
      </trkpt>
      <trkpt lat="42.70405" lon="1.40637">
        <ele>1635.33984375</ele>
        <time>2011-08-20T07:02:02Z</time>
      </trkpt>
      <trkpt lat="42.70402" lon="1.40634">
        <ele>1636.3012695312</ele>
        <time>2011-08-20T07:02:09Z</time>
      </trkpt>
      <trkpt lat="42.70401" lon="1.40631">
        <ele>1636.7817382812</ele>
        <time>2011-08-20T07:02:16Z</time>
      </trkpt>
      <trkpt lat="42.70398" lon="1.40626">
        <ele>1638.2238769531</ele>
        <time>2011-08-20T07:02:22Z</time>
      </trkpt>
      <trkpt lat="42.70396" lon="1.40623">
        <ele>1638.7045898438</ele>
        <time>2011-08-20T07:02:27Z</time>
      </trkpt>
      <trkpt lat="42.70394" lon="1.4062">
        <ele>1639.6657714844</ele>
        <time>2011-08-20T07:02:32Z</time>
      </trkpt>
      <trkpt lat="42.70393" lon="1.40616">
        <ele>1640.626953125</ele>
        <time>2011-08-20T07:02:38Z</time>
      </trkpt>
      <trkpt lat="42.70391" lon="1.40612">
        <ele>1641.1076660156</ele>
        <time>2011-08-20T07:02:42Z</time>
      </trkpt>
      <trkpt lat="42.70388" lon="1.40608">
        <ele>1643.0302734375</ele>
        <time>2011-08-20T07:02:49Z</time>
      </trkpt>
      <trkpt lat="42.70387" lon="1.40605">
        <ele>1643.9916992188</ele>
        <time>2011-08-20T07:02:56Z</time>
      </trkpt>
      <trkpt lat="42.70388" lon="1.40604">
        <ele>1643.9916992188</ele>
        <time>2011-08-20T07:03:07Z</time>
      </trkpt>
      <trkpt lat="42.70385" lon="1.40605">
        <ele>1644.953125</ele>
        <time>2011-08-20T07:03:13Z</time>
      </trkpt>
      <trkpt lat="42.70383" lon="1.40603">
        <ele>1645.4338378906</ele>
        <time>2011-08-20T07:03:17Z</time>
      </trkpt>
      <trkpt lat="42.7038" lon="1.40604">
        <ele>1646.8757324219</ele>
        <time>2011-08-20T07:03:21Z</time>
      </trkpt>
      <trkpt lat="42.70376" lon="1.40606">
        <ele>1647.8371582031</ele>
        <time>2011-08-20T07:03:26Z</time>
      </trkpt>
      <trkpt lat="42.70371" lon="1.40606">
        <ele>1649.759765625</ele>
        <time>2011-08-20T07:03:32Z</time>
      </trkpt>
      <trkpt lat="42.70367" lon="1.40601">
        <ele>1651.2016601562</ele>
        <time>2011-08-20T07:03:38Z</time>
      </trkpt>
      <trkpt lat="42.70363" lon="1.40597">
        <ele>1652.6435546875</ele>
        <time>2011-08-20T07:03:43Z</time>
      </trkpt>
      <trkpt lat="42.70358" lon="1.40592">
        <ele>1654.5661621094</ele>
        <time>2011-08-20T07:03:50Z</time>
      </trkpt>
      <trkpt lat="42.70355" lon="1.40591">
        <ele>1655.046875</ele>
        <time>2011-08-20T07:03:53Z</time>
      </trkpt>
      <trkpt lat="42.70349" lon="1.40588">
        <ele>1656.4887695312</ele>
        <time>2011-08-20T07:04:00Z</time>
      </trkpt>
      <trkpt lat="42.70346" lon="1.40586">
        <ele>1658.8920898438</ele>
        <time>2011-08-20T07:04:06Z</time>
      </trkpt>
      <trkpt lat="42.70343" lon="1.40584">
        <ele>1660.3342285156</ele>
        <time>2011-08-20T07:04:11Z</time>
      </trkpt>
      <trkpt lat="42.70342" lon="1.40584">
        <ele>1661.2956542969</ele>
        <time>2011-08-20T07:04:18Z</time>
      </trkpt>
      <trkpt lat="42.70338" lon="1.40586">
        <ele>1662.2568359375</ele>
        <time>2011-08-20T07:04:31Z</time>
      </trkpt>
      <trkpt lat="42.70336" lon="1.40583">
        <ele>1662.2568359375</ele>
        <time>2011-08-20T07:04:36Z</time>
      </trkpt>
      <trkpt lat="42.70332" lon="1.40581">
        <ele>1663.2182617188</ele>
        <time>2011-08-20T07:04:41Z</time>
      </trkpt>
      <trkpt lat="42.70329" lon="1.40582">
        <ele>1664.66015625</ele>
        <time>2011-08-20T07:04:47Z</time>
      </trkpt>
      <trkpt lat="42.70323" lon="1.4058">
        <ele>1666.1020507812</ele>
        <time>2011-08-20T07:04:54Z</time>
      </trkpt>
      <trkpt lat="42.70315" lon="1.40577">
        <ele>1669.466796875</ele>
        <time>2011-08-20T07:05:03Z</time>
      </trkpt>
      <trkpt lat="42.70311" lon="1.40579">
        <ele>1670.9086914062</ele>
        <time>2011-08-20T07:05:08Z</time>
      </trkpt>
      <trkpt lat="42.70306" lon="1.40581">
        <ele>1672.8312988281</ele>
        <time>2011-08-20T07:05:13Z</time>
      </trkpt>
      <trkpt lat="42.70301" lon="1.4058">
        <ele>1673.3120117188</ele>
        <time>2011-08-20T07:05:18Z</time>
      </trkpt>
      <trkpt lat="42.70298" lon="1.40581">
        <ele>1674.2731933594</ele>
        <time>2011-08-20T07:05:21Z</time>
      </trkpt>
      <trkpt lat="42.70293" lon="1.4058">
        <ele>1676.1960449219</ele>
        <time>2011-08-20T07:05:27Z</time>
      </trkpt>
      <trkpt lat="42.70289" lon="1.40582">
        <ele>1676.6767578125</ele>
        <time>2011-08-20T07:05:33Z</time>
      </trkpt>
      <trkpt lat="42.70286" lon="1.40583">
        <ele>1677.1574707031</ele>
        <time>2011-08-20T07:05:39Z</time>
      </trkpt>
      <trkpt lat="42.70283" lon="1.40584">
        <ele>1677.6379394531</ele>
        <time>2011-08-20T07:05:45Z</time>
      </trkpt>
      <trkpt lat="42.70282" lon="1.40582">
        <ele>1677.6379394531</ele>
        <time>2011-08-20T07:06:00Z</time>
      </trkpt>
      <trkpt lat="42.70282" lon="1.40583">
        <ele>1677.6379394531</ele>
        <time>2011-08-20T07:06:05Z</time>
      </trkpt>
      <trkpt lat="42.70279" lon="1.4058">
        <ele>1676.6767578125</ele>
        <time>2011-08-20T07:06:24Z</time>
      </trkpt>
      <trkpt lat="42.70272" lon="1.40581">
        <ele>1678.5993652344</ele>
        <time>2011-08-20T07:06:32Z</time>
      </trkpt>
      <trkpt lat="42.70267" lon="1.40582">
        <ele>1679.560546875</ele>
        <time>2011-08-20T07:06:37Z</time>
      </trkpt>
      <trkpt lat="42.70266" lon="1.40582">
        <ele>1681.0026855469</ele>
        <time>2011-08-20T07:06:42Z</time>
      </trkpt>
      <trkpt lat="42.70261" lon="1.4058">
        <ele>1681.9638671875</ele>
        <time>2011-08-20T07:06:48Z</time>
      </trkpt>
      <trkpt lat="42.70256" lon="1.40574">
        <ele>1682.9250488281</ele>
        <time>2011-08-20T07:06:54Z</time>
      </trkpt>
      <trkpt lat="42.7025" lon="1.40569">
        <ele>1684.8479003906</ele>
        <time>2011-08-20T07:07:02Z</time>
      </trkpt>
      <trkpt lat="42.70247" lon="1.40566">
        <ele>1685.8090820312</ele>
        <time>2011-08-20T07:07:10Z</time>
      </trkpt>
      <trkpt lat="42.70243" lon="1.40565">
        <ele>1686.7702636719</ele>
        <time>2011-08-20T07:07:17Z</time>
      </trkpt>
      <trkpt lat="42.70239" lon="1.40562">
        <ele>1688.6931152344</ele>
        <time>2011-08-20T07:07:24Z</time>
      </trkpt>
      <trkpt lat="42.70236" lon="1.40561">
        <ele>1689.1735839844</ele>
        <time>2011-08-20T07:07:30Z</time>
      </trkpt>
      <trkpt lat="42.70236" lon="1.40566">
        <ele>1689.1735839844</ele>
        <time>2011-08-20T07:07:35Z</time>
      </trkpt>
      <trkpt lat="42.70235" lon="1.4057">
        <ele>1691.5769042969</ele>
        <time>2011-08-20T07:07:41Z</time>
      </trkpt>
      <trkpt lat="42.70234" lon="1.40572">
        <ele>1693.0190429688</ele>
        <time>2011-08-20T07:07:46Z</time>
      </trkpt>
      <trkpt lat="42.70235" lon="1.40581">
        <ele>1694.4609375</ele>
        <time>2011-08-20T07:07:53Z</time>
      </trkpt>
      <trkpt lat="42.70234" lon="1.40588">
        <ele>1695.9030761719</ele>
        <time>2011-08-20T07:08:00Z</time>
      </trkpt>
      <trkpt lat="42.70233" lon="1.40593">
        <ele>1696.8642578125</ele>
        <time>2011-08-20T07:08:05Z</time>
      </trkpt>
      <trkpt lat="42.70232" lon="1.40598">
        <ele>1697.8256835938</ele>
        <time>2011-08-20T07:08:11Z</time>
      </trkpt>
      <trkpt lat="42.70229" lon="1.40603">
        <ele>1699.267578125</ele>
        <time>2011-08-20T07:08:17Z</time>
      </trkpt>
      <trkpt lat="42.70229" lon="1.40606">
        <ele>1701.1901855469</ele>
        <time>2011-08-20T07:08:23Z</time>
      </trkpt>
      <trkpt lat="42.70229" lon="1.40611">
        <ele>1702.1513671875</ele>
        <time>2011-08-20T07:08:28Z</time>
      </trkpt>
      <trkpt lat="42.70229" lon="1.40617">
        <ele>1702.6320800781</ele>
        <time>2011-08-20T07:08:34Z</time>
      </trkpt>
      <trkpt lat="42.70226" lon="1.40619">
        <ele>1704.5546875</ele>
        <time>2011-08-20T07:08:40Z</time>
      </trkpt>
      <trkpt lat="42.70226" lon="1.40625">
        <ele>1705.5161132812</ele>
        <time>2011-08-20T07:08:46Z</time>
      </trkpt>
      <trkpt lat="42.70227" lon="1.40631">
        <ele>1707.4387207031</ele>
        <time>2011-08-20T07:08:52Z</time>
      </trkpt>
      <trkpt lat="42.70226" lon="1.40635">
        <ele>1708.4001464844</ele>
        <time>2011-08-20T07:08:58Z</time>
      </trkpt>
      <trkpt lat="42.70224" lon="1.40639">
        <ele>1710.3227539062</ele>
        <time>2011-08-20T07:09:04Z</time>
      </trkpt>
      <trkpt lat="42.70219" lon="1.40643">
        <ele>1712.2453613281</ele>
        <time>2011-08-20T07:09:11Z</time>
      </trkpt>
      <trkpt lat="42.70214" lon="1.40645">
        <ele>1713.2067871094</ele>
        <time>2011-08-20T07:09:17Z</time>
      </trkpt>
      <trkpt lat="42.7021" lon="1.40647">
        <ele>1714.6486816406</ele>
        <time>2011-08-20T07:09:24Z</time>
      </trkpt>
      <trkpt lat="42.70207" lon="1.40651">
        <ele>1715.6101074219</ele>
        <time>2011-08-20T07:09:29Z</time>
      </trkpt>
      <trkpt lat="42.70203" lon="1.40653">
        <ele>1717.0520019531</ele>
        <time>2011-08-20T07:09:34Z</time>
      </trkpt>
      <trkpt lat="42.702" lon="1.40655">
        <ele>1718.4938964844</ele>
        <time>2011-08-20T07:09:40Z</time>
      </trkpt>
      <trkpt lat="42.70196" lon="1.40655">
        <ele>1719.4553222656</ele>
        <time>2011-08-20T07:09:45Z</time>
      </trkpt>
      <trkpt lat="42.70192" lon="1.40654">
        <ele>1719.9357910156</ele>
        <time>2011-08-20T07:09:51Z</time>
      </trkpt>
      <trkpt lat="42.70188" lon="1.40653">
        <ele>1720.8972167969</ele>
        <time>2011-08-20T07:09:57Z</time>
      </trkpt>
      <trkpt lat="42.70184" lon="1.40653">
        <ele>1722.8198242188</ele>
        <time>2011-08-20T07:10:02Z</time>
      </trkpt>
      <trkpt lat="42.70182" lon="1.40654">
        <ele>1723.7810058594</ele>
        <time>2011-08-20T07:10:06Z</time>
      </trkpt>
      <trkpt lat="42.70177" lon="1.40652">
        <ele>1725.7038574219</ele>
        <time>2011-08-20T07:10:13Z</time>
      </trkpt>
      <trkpt lat="42.70174" lon="1.40654">
        <ele>1727.1459960938</ele>
        <time>2011-08-20T07:10:18Z</time>
      </trkpt>
      <trkpt lat="42.70168" lon="1.40652">
        <ele>1728.1071777344</ele>
        <time>2011-08-20T07:10:26Z</time>
      </trkpt>
      <trkpt lat="42.70166" lon="1.4065">
        <ele>1730.0297851562</ele>
        <time>2011-08-20T07:10:32Z</time>
      </trkpt>
      <trkpt lat="42.70164" lon="1.40648">
        <ele>1731.9523925781</ele>
        <time>2011-08-20T07:10:38Z</time>
      </trkpt>
      <trkpt lat="42.70164" lon="1.40655">
        <ele>1733.875</ele>
        <time>2011-08-20T07:10:45Z</time>
      </trkpt>
      <trkpt lat="42.70161" lon="1.40653">
        <ele>1734.3557128906</ele>
        <time>2011-08-20T07:10:49Z</time>
      </trkpt>
      <trkpt lat="42.70159" lon="1.40652">
        <ele>1734.8364257812</ele>
        <time>2011-08-20T07:10:54Z</time>
      </trkpt>
      <trkpt lat="42.70156" lon="1.40649">
        <ele>1735.3168945312</ele>
        <time>2011-08-20T07:10:59Z</time>
      </trkpt>
      <trkpt lat="42.70153" lon="1.40649">
        <ele>1735.3168945312</ele>
        <time>2011-08-20T07:11:04Z</time>
      </trkpt>
      <trkpt lat="42.7015" lon="1.40648">
        <ele>1735.7976074219</ele>
        <time>2011-08-20T07:11:10Z</time>
      </trkpt>
      <trkpt lat="42.70147" lon="1.40648">
        <ele>1736.2783203125</ele>
        <time>2011-08-20T07:11:15Z</time>
      </trkpt>
      <trkpt lat="42.70143" lon="1.40647">
        <ele>1737.7202148438</ele>
        <time>2011-08-20T07:11:23Z</time>
      </trkpt>
      <trkpt lat="42.70142" lon="1.40648">
        <ele>1740.1237792969</ele>
        <time>2011-08-20T07:11:29Z</time>
      </trkpt>
      <trkpt lat="42.70142" lon="1.4065">
        <ele>1741.0849609375</ele>
        <time>2011-08-20T07:11:33Z</time>
      </trkpt>
      <trkpt lat="42.7014" lon="1.40654">
        <ele>1743.0075683594</ele>
        <time>2011-08-20T07:11:38Z</time>
      </trkpt>
      <trkpt lat="42.70137" lon="1.40652">
        <ele>1744.9301757812</ele>
        <time>2011-08-20T07:11:44Z</time>
      </trkpt>
      <trkpt lat="42.70135" lon="1.40651">
        <ele>1744.9301757812</ele>
        <time>2011-08-20T07:11:48Z</time>
      </trkpt>
      <trkpt lat="42.70133" lon="1.40654">
        <ele>1746.8527832031</ele>
        <time>2011-08-20T07:11:54Z</time>
      </trkpt>
      <trkpt lat="42.70132" lon="1.40657">
        <ele>1748.775390625</ele>
        <time>2011-08-20T07:12:00Z</time>
      </trkpt>
      <trkpt lat="42.7013" lon="1.4066">
        <ele>1749.7368164062</ele>
        <time>2011-08-20T07:12:05Z</time>
      </trkpt>
      <trkpt lat="42.70127" lon="1.40661">
        <ele>1751.1787109375</ele>
        <time>2011-08-20T07:12:10Z</time>
      </trkpt>
      <trkpt lat="42.70126" lon="1.40659">
        <ele>1755.9851074219</ele>
        <time>2011-08-20T07:12:15Z</time>
      </trkpt>
      <trkpt lat="42.70123" lon="1.40658">
        <ele>1759.3500976562</ele>
        <time>2011-08-20T07:12:20Z</time>
      </trkpt>
      <trkpt lat="42.7012" lon="1.40656">
        <ele>1760.3112792969</ele>
        <time>2011-08-20T07:12:25Z</time>
      </trkpt>
      <trkpt lat="42.70116" lon="1.40657">
        <ele>1761.2727050781</ele>
        <time>2011-08-20T07:12:31Z</time>
      </trkpt>
      <trkpt lat="42.70114" lon="1.40655">
        <ele>1762.2338867188</ele>
        <time>2011-08-20T07:12:35Z</time>
      </trkpt>
      <trkpt lat="42.70112" lon="1.40651">
        <ele>1762.7145996094</ele>
        <time>2011-08-20T07:12:39Z</time>
      </trkpt>
      <trkpt lat="42.70109" lon="1.40649">
        <ele>1763.67578125</ele>
        <time>2011-08-20T07:12:45Z</time>
      </trkpt>
      <trkpt lat="42.70105" lon="1.40649">
        <ele>1766.5598144531</ele>
        <time>2011-08-20T07:12:53Z</time>
      </trkpt>
      <trkpt lat="42.70101" lon="1.40643">
        <ele>1768.0017089844</ele>
        <time>2011-08-20T07:12:59Z</time>
      </trkpt>
      <trkpt lat="42.70096" lon="1.40638">
        <ele>1768.0017089844</ele>
        <time>2011-08-20T07:13:06Z</time>
      </trkpt>
      <trkpt lat="42.70095" lon="1.4064">
        <ele>1768.482421875</ele>
        <time>2011-08-20T07:13:11Z</time>
      </trkpt>
      <trkpt lat="42.70094" lon="1.40645">
        <ele>1769.9243164062</ele>
        <time>2011-08-20T07:13:17Z</time>
      </trkpt>
      <trkpt lat="42.7009" lon="1.40641">
        <ele>1770.8857421875</ele>
        <time>2011-08-20T07:13:22Z</time>
      </trkpt>
      <trkpt lat="42.70087" lon="1.40635">
        <ele>1772.3278808594</ele>
        <time>2011-08-20T07:13:28Z</time>
      </trkpt>
      <trkpt lat="42.70087" lon="1.40634">
        <ele>1772.80859375</ele>
        <time>2011-08-20T07:13:29Z</time>
      </trkpt>
      <trkpt lat="42.70082" lon="1.40632">
        <ele>1774.2504882812</ele>
        <time>2011-08-20T07:13:33Z</time>
      </trkpt>
      <trkpt lat="42.70079" lon="1.40629">
        <ele>1774.7312011719</ele>
        <time>2011-08-20T07:13:38Z</time>
      </trkpt>
      <trkpt lat="42.70077" lon="1.40627">
        <ele>1775.6923828125</ele>
        <time>2011-08-20T07:13:42Z</time>
      </trkpt>
      <trkpt lat="42.70072" lon="1.40622">
        <ele>1776.6538085938</ele>
        <time>2011-08-20T07:13:49Z</time>
      </trkpt>
      <trkpt lat="42.70068" lon="1.40619">
        <ele>1778.5764160156</ele>
        <time>2011-08-20T07:13:55Z</time>
      </trkpt>
      <trkpt lat="42.70066" lon="1.40618">
        <ele>1779.5375976562</ele>
        <time>2011-08-20T07:13:59Z</time>
      </trkpt>
      <trkpt lat="42.70064" lon="1.40617">
        <ele>1780.4990234375</ele>
        <time>2011-08-20T07:14:03Z</time>
      </trkpt>
      <trkpt lat="42.7006" lon="1.40613">
        <ele>1782.4216308594</ele>
        <time>2011-08-20T07:14:10Z</time>
      </trkpt>
      <trkpt lat="42.70055" lon="1.40607">
        <ele>1784.3442382812</ele>
        <time>2011-08-20T07:14:18Z</time>
      </trkpt>
      <trkpt lat="42.70051" lon="1.40602">
        <ele>1785.3054199219</ele>
        <time>2011-08-20T07:14:24Z</time>
      </trkpt>
      <trkpt lat="42.70048" lon="1.406">
        <ele>1786.7473144531</ele>
        <time>2011-08-20T07:14:30Z</time>
      </trkpt>
      <trkpt lat="42.70044" lon="1.406">
        <ele>1786.7473144531</ele>
        <time>2011-08-20T07:14:45Z</time>
      </trkpt>
      <trkpt lat="42.70038" lon="1.40599">
        <ele>1787.7087402344</ele>
        <time>2011-08-20T07:14:52Z</time>
      </trkpt>
      <trkpt lat="42.70035" lon="1.40599">
        <ele>1788.1896972656</ele>
        <time>2011-08-20T07:14:56Z</time>
      </trkpt>
      <trkpt lat="42.70033" lon="1.40599">
        <ele>1788.6704101562</ele>
        <time>2011-08-20T07:15:00Z</time>
      </trkpt>
      <trkpt lat="42.70029" lon="1.406">
        <ele>1790.1123046875</ele>
        <time>2011-08-20T07:15:04Z</time>
      </trkpt>
      <trkpt lat="42.70026" lon="1.406">
        <ele>1791.5541992188</ele>
        <time>2011-08-20T07:15:09Z</time>
      </trkpt>
      <trkpt lat="42.70024" lon="1.406">
        <ele>1792.99609375</ele>
        <time>2011-08-20T07:15:13Z</time>
      </trkpt>
      <trkpt lat="42.70026" lon="1.40604">
        <ele>1794.4379882812</ele>
        <time>2011-08-20T07:15:18Z</time>
      </trkpt>
      <trkpt lat="42.70029" lon="1.40612">
        <ele>1794.9187011719</ele>
        <time>2011-08-20T07:15:25Z</time>
      </trkpt>
      <trkpt lat="42.70031" lon="1.40616">
        <ele>1796.3608398438</ele>
        <time>2011-08-20T07:15:30Z</time>
      </trkpt>
      <trkpt lat="42.70032" lon="1.40621">
        <ele>1797.3220214844</ele>
        <time>2011-08-20T07:15:35Z</time>
      </trkpt>
      <trkpt lat="42.7003" lon="1.40624">
        <ele>1800.6865234375</ele>
        <time>2011-08-20T07:15:41Z</time>
      </trkpt>
      <trkpt lat="42.7003" lon="1.40626">
        <ele>1801.6479492188</ele>
        <time>2011-08-20T07:15:45Z</time>
      </trkpt>
      <trkpt lat="42.7003" lon="1.4063">
        <ele>1802.6091308594</ele>
        <time>2011-08-20T07:15:50Z</time>
      </trkpt>
      <trkpt lat="42.7003" lon="1.40635">
        <ele>1803.08984375</ele>
        <time>2011-08-20T07:15:56Z</time>
      </trkpt>
      <trkpt lat="42.7003" lon="1.40637">
        <ele>1803.5705566406</ele>
        <time>2011-08-20T07:16:00Z</time>
      </trkpt>
      <trkpt lat="42.7003" lon="1.4064">
        <ele>1804.0515136719</ele>
        <time>2011-08-20T07:16:04Z</time>
      </trkpt>
      <trkpt lat="42.7003" lon="1.40644">
        <ele>1804.5319824219</ele>
        <time>2011-08-20T07:16:08Z</time>
      </trkpt>
      <trkpt lat="42.7003" lon="1.40647">
        <ele>1805.4934082031</ele>
        <time>2011-08-20T07:16:13Z</time>
      </trkpt>
      <trkpt lat="42.70031" lon="1.40651">
        <ele>1805.9738769531</ele>
        <time>2011-08-20T07:16:17Z</time>
      </trkpt>
      <trkpt lat="42.70032" lon="1.40655">
        <ele>1807.416015625</ele>
        <time>2011-08-20T07:16:22Z</time>
      </trkpt>
      <trkpt lat="42.70031" lon="1.40659">
        <ele>1808.3771972656</ele>
        <time>2011-08-20T07:16:27Z</time>
      </trkpt>
      <trkpt lat="42.70029" lon="1.4066">
        <ele>1809.8190917969</ele>
        <time>2011-08-20T07:16:32Z</time>
      </trkpt>
      <trkpt lat="42.70026" lon="1.40665">
        <ele>1811.7419433594</ele>
        <time>2011-08-20T07:16:39Z</time>
      </trkpt>
      <trkpt lat="42.70026" lon="1.40668">
        <ele>1814.6257324219</ele>
        <time>2011-08-20T07:16:44Z</time>
      </trkpt>
      <trkpt lat="42.70025" lon="1.40672">
        <ele>1816.5483398438</ele>
        <time>2011-08-20T07:16:50Z</time>
      </trkpt>
      <trkpt lat="42.70022" lon="1.40672">
        <ele>1816.5483398438</ele>
        <time>2011-08-20T07:16:54Z</time>
      </trkpt>
      <trkpt lat="42.70017" lon="1.40675">
        <ele>1816.5483398438</ele>
        <time>2011-08-20T07:17:01Z</time>
      </trkpt>
      <trkpt lat="42.70014" lon="1.40677">
        <ele>1816.0676269531</ele>
        <time>2011-08-20T07:17:05Z</time>
      </trkpt>
      <trkpt lat="42.70012" lon="1.40678">
        <ele>1817.0290527344</ele>
        <time>2011-08-20T07:17:09Z</time>
      </trkpt>
      <trkpt lat="42.70007" lon="1.40682">
        <ele>1820.3937988281</ele>
        <time>2011-08-20T07:17:16Z</time>
      </trkpt>
      <trkpt lat="42.70003" lon="1.40683">
        <ele>1821.3549804688</ele>
        <time>2011-08-20T07:17:21Z</time>
      </trkpt>
      <trkpt lat="42.7" lon="1.40686">
        <ele>1824.7197265625</ele>
        <time>2011-08-20T07:17:28Z</time>
      </trkpt>
      <trkpt lat="42.69999" lon="1.40691">
        <ele>1828.0842285156</ele>
        <time>2011-08-20T07:17:34Z</time>
      </trkpt>
      <trkpt lat="42.69997" lon="1.40692">
        <ele>1831.4487304688</ele>
        <time>2011-08-20T07:17:38Z</time>
      </trkpt>
      <trkpt lat="42.69994" lon="1.40695">
        <ele>1830.9682617188</ele>
        <time>2011-08-20T07:17:44Z</time>
      </trkpt>
      <trkpt lat="42.69991" lon="1.40698">
        <ele>1830.9682617188</ele>
        <time>2011-08-20T07:17:50Z</time>
      </trkpt>
      <trkpt lat="42.69987" lon="1.40702">
        <ele>1831.4487304688</ele>
        <time>2011-08-20T07:17:55Z</time>
      </trkpt>
      <trkpt lat="42.69984" lon="1.40705">
        <ele>1831.4487304688</ele>
        <time>2011-08-20T07:18:00Z</time>
      </trkpt>
      <trkpt lat="42.69982" lon="1.40708">
        <ele>1833.8520507812</ele>
        <time>2011-08-20T07:18:04Z</time>
      </trkpt>
      <trkpt lat="42.69977" lon="1.40711">
        <ele>1836.2556152344</ele>
        <time>2011-08-20T07:18:10Z</time>
      </trkpt>
      <trkpt lat="42.69973" lon="1.40712">
        <ele>1839.1394042969</ele>
        <time>2011-08-20T07:18:16Z</time>
      </trkpt>
      <trkpt lat="42.6997" lon="1.40714">
        <ele>1841.5427246094</ele>
        <time>2011-08-20T07:18:20Z</time>
      </trkpt>
      <trkpt lat="42.69968" lon="1.40716">
        <ele>1841.5427246094</ele>
        <time>2011-08-20T07:18:24Z</time>
      </trkpt>
      <trkpt lat="42.69967" lon="1.4072">
        <ele>1841.5427246094</ele>
        <time>2011-08-20T07:18:28Z</time>
      </trkpt>
      <trkpt lat="42.69964" lon="1.40722">
        <ele>1841.0620117188</ele>
        <time>2011-08-20T07:18:32Z</time>
      </trkpt>
      <trkpt lat="42.69961" lon="1.40723">
        <ele>1842.0234375</ele>
        <time>2011-08-20T07:18:36Z</time>
      </trkpt>
      <trkpt lat="42.69958" lon="1.40724">
        <ele>1841.5427246094</ele>
        <time>2011-08-20T07:18:40Z</time>
      </trkpt>
      <trkpt lat="42.69953" lon="1.40726">
        <ele>1842.0234375</ele>
        <time>2011-08-20T07:18:46Z</time>
      </trkpt>
      <trkpt lat="42.6995" lon="1.40727">
        <ele>1842.9846191406</ele>
        <time>2011-08-20T07:18:51Z</time>
      </trkpt>
      <trkpt lat="42.69947" lon="1.40729">
        <ele>1841.5427246094</ele>
        <time>2011-08-20T07:18:56Z</time>
      </trkpt>
      <trkpt lat="42.69945" lon="1.40733">
        <ele>1843.9460449219</ele>
        <time>2011-08-20T07:19:01Z</time>
      </trkpt>
      <trkpt lat="42.69942" lon="1.40735">
        <ele>1848.7524414062</ele>
        <time>2011-08-20T07:19:06Z</time>
      </trkpt>
      <trkpt lat="42.69939" lon="1.40735">
        <ele>1850.6750488281</ele>
        <time>2011-08-20T07:19:11Z</time>
      </trkpt>
      <trkpt lat="42.69933" lon="1.40737">
        <ele>1852.5979003906</ele>
        <time>2011-08-20T07:19:18Z</time>
      </trkpt>
      <trkpt lat="42.6993" lon="1.40738">
        <ele>1853.5593261719</ele>
        <time>2011-08-20T07:19:23Z</time>
      </trkpt>
      <trkpt lat="42.69926" lon="1.4074">
        <ele>1854.5205078125</ele>
        <time>2011-08-20T07:19:28Z</time>
      </trkpt>
      <trkpt lat="42.69924" lon="1.40741">
        <ele>1855.0012207031</ele>
        <time>2011-08-20T07:19:32Z</time>
      </trkpt>
      <trkpt lat="42.6992" lon="1.40742">
        <ele>1854.0400390625</ele>
        <time>2011-08-20T07:19:37Z</time>
      </trkpt>
      <trkpt lat="42.69916" lon="1.40745">
        <ele>1854.5205078125</ele>
        <time>2011-08-20T07:19:42Z</time>
      </trkpt>
      <trkpt lat="42.69914" lon="1.40747">
        <ele>1854.5205078125</ele>
        <time>2011-08-20T07:19:46Z</time>
      </trkpt>
      <trkpt lat="42.6991" lon="1.40749">
        <ele>1855.9624023438</ele>
        <time>2011-08-20T07:19:52Z</time>
      </trkpt>
      <trkpt lat="42.69908" lon="1.40752">
        <ele>1856.923828125</ele>
        <time>2011-08-20T07:19:56Z</time>
      </trkpt>
      <trkpt lat="42.69904" lon="1.40757">
        <ele>1859.3271484375</ele>
        <time>2011-08-20T07:20:04Z</time>
      </trkpt>
      <trkpt lat="42.69902" lon="1.4076">
        <ele>1861.73046875</ele>
        <time>2011-08-20T07:20:09Z</time>
      </trkpt>
      <trkpt lat="42.69899" lon="1.40761">
        <ele>1862.6916503906</ele>
        <time>2011-08-20T07:20:15Z</time>
      </trkpt>
      <trkpt lat="42.69896" lon="1.40764">
        <ele>1863.1723632812</ele>
        <time>2011-08-20T07:20:20Z</time>
      </trkpt>
      <trkpt lat="42.69893" lon="1.40765">
        <ele>1863.1723632812</ele>
        <time>2011-08-20T07:20:24Z</time>
      </trkpt>
      <trkpt lat="42.6989" lon="1.40765">
        <ele>1864.1335449219</ele>
        <time>2011-08-20T07:20:29Z</time>
      </trkpt>
      <trkpt lat="42.69888" lon="1.40768">
        <ele>1865.0949707031</ele>
        <time>2011-08-20T07:20:36Z</time>
      </trkpt>
      <trkpt lat="42.69884" lon="1.40768">
        <ele>1866.0561523438</ele>
        <time>2011-08-20T07:20:41Z</time>
      </trkpt>
      <trkpt lat="42.69883" lon="1.40766">
        <ele>1867.017578125</ele>
        <time>2011-08-20T07:20:46Z</time>
      </trkpt>
      <trkpt lat="42.69882" lon="1.4077">
        <ele>1867.9787597656</ele>
        <time>2011-08-20T07:20:55Z</time>
      </trkpt>
      <trkpt lat="42.6988" lon="1.4077">
        <ele>1869.9016113281</ele>
        <time>2011-08-20T07:21:01Z</time>
      </trkpt>
      <trkpt lat="42.69878" lon="1.4077">
        <ele>1870.8630371094</ele>
        <time>2011-08-20T07:21:07Z</time>
      </trkpt>
      <trkpt lat="42.69876" lon="1.40768">
        <ele>1872.7856445312</ele>
        <time>2011-08-20T07:21:12Z</time>
      </trkpt>
      <trkpt lat="42.69873" lon="1.40768">
        <ele>1873.2663574219</ele>
        <time>2011-08-20T07:21:20Z</time>
      </trkpt>
      <trkpt lat="42.6987" lon="1.40766">
        <ele>1875.1887207031</ele>
        <time>2011-08-20T07:21:25Z</time>
      </trkpt>
      <trkpt lat="42.69868" lon="1.40766">
        <ele>1875.6694335938</ele>
        <time>2011-08-20T07:21:28Z</time>
      </trkpt>
      <trkpt lat="42.69866" lon="1.40767">
        <ele>1876.1501464844</ele>
        <time>2011-08-20T07:21:32Z</time>
      </trkpt>
      <trkpt lat="42.69863" lon="1.40766">
        <ele>1876.1501464844</ele>
        <time>2011-08-20T07:21:37Z</time>
      </trkpt>
      <trkpt lat="42.69859" lon="1.40767">
        <ele>1878.5534667969</ele>
        <time>2011-08-20T07:21:44Z</time>
      </trkpt>
      <trkpt lat="42.69855" lon="1.40768">
        <ele>1879.5146484375</ele>
        <time>2011-08-20T07:21:49Z</time>
      </trkpt>
      <trkpt lat="42.69852" lon="1.40768">
        <ele>1881.91796875</ele>
        <time>2011-08-20T07:21:55Z</time>
      </trkpt>
      <trkpt lat="42.6985" lon="1.40769">
        <ele>1882.8791503906</ele>
        <time>2011-08-20T07:21:59Z</time>
      </trkpt>
      <trkpt lat="42.69846" lon="1.40769">
        <ele>1883.3598632812</ele>
        <time>2011-08-20T07:22:05Z</time>
      </trkpt>
      <trkpt lat="42.69845" lon="1.40772">
        <ele>1884.8022460938</ele>
        <time>2011-08-20T07:22:12Z</time>
      </trkpt>
      <trkpt lat="42.69842" lon="1.40773">
        <ele>1886.244140625</ele>
        <time>2011-08-20T07:22:18Z</time>
      </trkpt>
      <trkpt lat="42.69841" lon="1.40775">
        <ele>1888.1667480469</ele>
        <time>2011-08-20T07:22:23Z</time>
      </trkpt>
      <trkpt lat="42.69838" lon="1.40776">
        <ele>1888.6474609375</ele>
        <time>2011-08-20T07:22:28Z</time>
      </trkpt>
      <trkpt lat="42.69835" lon="1.40777">
        <ele>1892.0119628906</ele>
        <time>2011-08-20T07:22:37Z</time>
      </trkpt>
      <trkpt lat="42.69832" lon="1.40777">
        <ele>1892.4926757812</ele>
        <time>2011-08-20T07:22:41Z</time>
      </trkpt>
      <trkpt lat="42.6983" lon="1.40776">
        <ele>1894.4150390625</ele>
        <time>2011-08-20T07:22:45Z</time>
      </trkpt>
      <trkpt lat="42.69829" lon="1.40777">
        <ele>1895.3764648438</ele>
        <time>2011-08-20T07:22:50Z</time>
      </trkpt>
      <trkpt lat="42.69827" lon="1.40779">
        <ele>1896.818359375</ele>
        <time>2011-08-20T07:22:55Z</time>
      </trkpt>
      <trkpt lat="42.69825" lon="1.40781">
        <ele>1898.7409667969</ele>
        <time>2011-08-20T07:23:00Z</time>
      </trkpt>
      <trkpt lat="42.69821" lon="1.40781">
        <ele>1901.6252441406</ele>
        <time>2011-08-20T07:23:08Z</time>
      </trkpt>
      <trkpt lat="42.69819" lon="1.4078">
        <ele>1902.5864257812</ele>
        <time>2011-08-20T07:23:13Z</time>
      </trkpt>
      <trkpt lat="42.69818" lon="1.40785">
        <ele>1904.9897460938</ele>
        <time>2011-08-20T07:23:19Z</time>
      </trkpt>
      <trkpt lat="42.69816" lon="1.40785">
        <ele>1905.4704589844</ele>
        <time>2011-08-20T07:23:24Z</time>
      </trkpt>
      <trkpt lat="42.69815" lon="1.40787">
        <ele>1906.9123535156</ele>
        <time>2011-08-20T07:23:29Z</time>
      </trkpt>
      <trkpt lat="42.69813" lon="1.40791">
        <ele>1907.8737792969</ele>
        <time>2011-08-20T07:23:34Z</time>
      </trkpt>
      <trkpt lat="42.69812" lon="1.40794">
        <ele>1908.8349609375</ele>
        <time>2011-08-20T07:23:40Z</time>
      </trkpt>
      <trkpt lat="42.6981" lon="1.40796">
        <ele>1909.3156738281</ele>
        <time>2011-08-20T07:23:44Z</time>
      </trkpt>
      <trkpt lat="42.69807" lon="1.40796">
        <ele>1910.2768554688</ele>
        <time>2011-08-20T07:23:48Z</time>
      </trkpt>
      <trkpt lat="42.69805" lon="1.40799">
        <ele>1911.23828125</ele>
        <time>2011-08-20T07:23:54Z</time>
      </trkpt>
      <trkpt lat="42.69802" lon="1.40799">
        <ele>1911.23828125</ele>
        <time>2011-08-20T07:23:58Z</time>
      </trkpt>
      <trkpt lat="42.69799" lon="1.40801">
        <ele>1912.1994628906</ele>
        <time>2011-08-20T07:24:03Z</time>
      </trkpt>
      <trkpt lat="42.69795" lon="1.40803">
        <ele>1914.1220703125</ele>
        <time>2011-08-20T07:24:09Z</time>
      </trkpt>
      <trkpt lat="42.69792" lon="1.40803">
        <ele>1914.6027832031</ele>
        <time>2011-08-20T07:24:13Z</time>
      </trkpt>
      <trkpt lat="42.6979" lon="1.40804">
        <ele>1915.0834960938</ele>
        <time>2011-08-20T07:24:17Z</time>
      </trkpt>
      <trkpt lat="42.69787" lon="1.40806">
        <ele>1916.044921875</ele>
        <time>2011-08-20T07:24:22Z</time>
      </trkpt>
      <trkpt lat="42.69783" lon="1.40807">
        <ele>1916.5256347656</ele>
        <time>2011-08-20T07:24:27Z</time>
      </trkpt>
      <trkpt lat="42.69781" lon="1.40808">
        <ele>1916.5256347656</ele>
        <time>2011-08-20T07:24:31Z</time>
      </trkpt>
      <trkpt lat="42.69778" lon="1.4081">
        <ele>1917.9675292969</ele>
        <time>2011-08-20T07:24:38Z</time>
      </trkpt>
      <trkpt lat="42.69775" lon="1.40811">
        <ele>1919.4096679688</ele>
        <time>2011-08-20T07:24:43Z</time>
      </trkpt>
      <trkpt lat="42.69772" lon="1.40812">
        <ele>1920.8515625</ele>
        <time>2011-08-20T07:24:49Z</time>
      </trkpt>
      <trkpt lat="42.69767" lon="1.40811">
        <ele>1922.7741699219</ele>
        <time>2011-08-20T07:24:58Z</time>
      </trkpt>
      <trkpt lat="42.69765" lon="1.40811">
        <ele>1924.2160644531</ele>
        <time>2011-08-20T07:25:03Z</time>
      </trkpt>
      <trkpt lat="42.69761" lon="1.40812">
        <ele>1925.1772460938</ele>
        <time>2011-08-20T07:25:08Z</time>
      </trkpt>
      <trkpt lat="42.69759" lon="1.40811">
        <ele>1927.5805664062</ele>
        <time>2011-08-20T07:25:13Z</time>
      </trkpt>
      <trkpt lat="42.69756" lon="1.40811">
        <ele>1928.5419921875</ele>
        <time>2011-08-20T07:25:17Z</time>
      </trkpt>
      <trkpt lat="42.69754" lon="1.4081">
        <ele>1930.4645996094</ele>
        <time>2011-08-20T07:25:22Z</time>
      </trkpt>
      <trkpt lat="42.69752" lon="1.40811">
        <ele>1930.4645996094</ele>
        <time>2011-08-20T07:25:27Z</time>
      </trkpt>
      <trkpt lat="42.6975" lon="1.4081">
        <ele>1932.3874511719</ele>
        <time>2011-08-20T07:25:31Z</time>
      </trkpt>
      <trkpt lat="42.69746" lon="1.40809">
        <ele>1934.3100585938</ele>
        <time>2011-08-20T07:25:36Z</time>
      </trkpt>
      <trkpt lat="42.69744" lon="1.40808">
        <ele>1936.2326660156</ele>
        <time>2011-08-20T07:25:41Z</time>
      </trkpt>
      <trkpt lat="42.69741" lon="1.40807">
        <ele>1937.1938476562</ele>
        <time>2011-08-20T07:25:46Z</time>
      </trkpt>
      <trkpt lat="42.69739" lon="1.40805">
        <ele>1937.1938476562</ele>
        <time>2011-08-20T07:25:50Z</time>
      </trkpt>
      <trkpt lat="42.69735" lon="1.40803">
        <ele>1938.1552734375</ele>
        <time>2011-08-20T07:25:56Z</time>
      </trkpt>
      <trkpt lat="42.69731" lon="1.40801">
        <ele>1940.5583496094</ele>
        <time>2011-08-20T07:26:02Z</time>
      </trkpt>
      <trkpt lat="42.69726" lon="1.40799">
        <ele>1942.0004882812</ele>
        <time>2011-08-20T07:26:08Z</time>
      </trkpt>
      <trkpt lat="42.69721" lon="1.408">
        <ele>1942.9616699219</ele>
        <time>2011-08-20T07:26:13Z</time>
      </trkpt>
      <trkpt lat="42.69718" lon="1.40801">
        <ele>1943.9230957031</ele>
        <time>2011-08-20T07:26:18Z</time>
      </trkpt>
      <trkpt lat="42.69715" lon="1.40801">
        <ele>1944.8842773438</ele>
        <time>2011-08-20T07:26:22Z</time>
      </trkpt>
      <trkpt lat="42.69712" lon="1.408">
        <ele>1945.845703125</ele>
        <time>2011-08-20T07:26:27Z</time>
      </trkpt>
      <trkpt lat="42.69709" lon="1.40798">
        <ele>1947.2875976562</ele>
        <time>2011-08-20T07:26:31Z</time>
      </trkpt>
      <trkpt lat="42.69705" lon="1.40795">
        <ele>1948.2490234375</ele>
        <time>2011-08-20T07:26:36Z</time>
      </trkpt>
      <trkpt lat="42.69702" lon="1.40793">
        <ele>1949.2104492188</ele>
        <time>2011-08-20T07:26:43Z</time>
      </trkpt>
      <trkpt lat="42.69699" lon="1.4079">
        <ele>1948.2490234375</ele>
        <time>2011-08-20T07:26:52Z</time>
      </trkpt>
      <trkpt lat="42.69696" lon="1.40777">
        <ele>1948.2490234375</ele>
        <time>2011-08-20T07:27:00Z</time>
      </trkpt>
      <trkpt lat="42.69693" lon="1.4077">
        <ele>1949.2104492188</ele>
        <time>2011-08-20T07:27:05Z</time>
      </trkpt>
      <trkpt lat="42.6969" lon="1.40762">
        <ele>1948.7297363281</ele>
        <time>2011-08-20T07:27:10Z</time>
      </trkpt>
      <trkpt lat="42.69689" lon="1.40758">
        <ele>1948.7297363281</ele>
        <time>2011-08-20T07:27:13Z</time>
      </trkpt>
      <trkpt lat="42.69685" lon="1.40747">
        <ele>1949.6911621094</ele>
        <time>2011-08-20T07:27:21Z</time>
      </trkpt>
      <trkpt lat="42.69683" lon="1.40734">
        <ele>1951.1330566406</ele>
        <time>2011-08-20T07:27:28Z</time>
      </trkpt>
      <trkpt lat="42.69682" lon="1.40717">
        <ele>1951.6137695312</ele>
        <time>2011-08-20T07:27:35Z</time>
      </trkpt>
      <trkpt lat="42.69679" lon="1.40705">
        <ele>1950.65234375</ele>
        <time>2011-08-20T07:27:39Z</time>
      </trkpt>
      <trkpt lat="42.69675" lon="1.40697">
        <ele>1949.6911621094</ele>
        <time>2011-08-20T07:27:42Z</time>
      </trkpt>
      <trkpt lat="42.69664" lon="1.40685">
        <ele>1950.171875</ele>
        <time>2011-08-20T07:27:48Z</time>
      </trkpt>
      <trkpt lat="42.69658" lon="1.40679">
        <ele>1950.171875</ele>
        <time>2011-08-20T07:27:52Z</time>
      </trkpt>
      <trkpt lat="42.69651" lon="1.40673">
        <ele>1951.1330566406</ele>
        <time>2011-08-20T07:27:58Z</time>
      </trkpt>
      <trkpt lat="42.69643" lon="1.40665">
        <ele>1952.0942382812</ele>
        <time>2011-08-20T07:28:05Z</time>
      </trkpt>
      <trkpt lat="42.69641" lon="1.40663">
        <ele>1952.0942382812</ele>
        <time>2011-08-20T07:28:07Z</time>
      </trkpt>
      <trkpt lat="42.6963" lon="1.4066">
        <ele>1952.5749511719</ele>
        <time>2011-08-20T07:28:14Z</time>
      </trkpt>
      <trkpt lat="42.69626" lon="1.40657">
        <ele>1952.0942382812</ele>
        <time>2011-08-20T07:28:18Z</time>
      </trkpt>
      <trkpt lat="42.69623" lon="1.40652">
        <ele>1951.6137695312</ele>
        <time>2011-08-20T07:28:24Z</time>
      </trkpt>
      <trkpt lat="42.69623" lon="1.40646">
        <ele>1952.0942382812</ele>
        <time>2011-08-20T07:28:31Z</time>
      </trkpt>
      <trkpt lat="42.69624" lon="1.40639">
        <ele>1950.171875</ele>
        <time>2011-08-20T07:28:35Z</time>
      </trkpt>
      <trkpt lat="42.69623" lon="1.40637">
        <ele>1949.6911621094</ele>
        <time>2011-08-20T07:28:36Z</time>
      </trkpt>
      <trkpt lat="42.69624" lon="1.40624">
        <ele>1950.171875</ele>
        <time>2011-08-20T07:28:42Z</time>
      </trkpt>
      <trkpt lat="42.69622" lon="1.40611">
        <ele>1950.65234375</ele>
        <time>2011-08-20T07:28:49Z</time>
      </trkpt>
      <trkpt lat="42.69621" lon="1.40607">
        <ele>1949.2104492188</ele>
        <time>2011-08-20T07:28:52Z</time>
      </trkpt>
      <trkpt lat="42.69624" lon="1.40595">
        <ele>1948.7297363281</ele>
        <time>2011-08-20T07:28:59Z</time>
      </trkpt>
      <trkpt lat="42.6963" lon="1.40586">
        <ele>1949.2104492188</ele>
        <time>2011-08-20T07:29:07Z</time>
      </trkpt>
      <trkpt lat="42.69632" lon="1.4058">
        <ele>1949.2104492188</ele>
        <time>2011-08-20T07:29:14Z</time>
      </trkpt>
      <trkpt lat="42.69633" lon="1.40576">
        <ele>1949.6911621094</ele>
        <time>2011-08-20T07:29:18Z</time>
      </trkpt>
      <trkpt lat="42.69637" lon="1.40569">
        <ele>1951.6137695312</ele>
        <time>2011-08-20T07:29:25Z</time>
      </trkpt>
      <trkpt lat="42.69638" lon="1.40565">
        <ele>1952.0942382812</ele>
        <time>2011-08-20T07:29:29Z</time>
      </trkpt>
      <trkpt lat="42.69637" lon="1.40562">
        <ele>1953.0556640625</ele>
        <time>2011-08-20T07:29:33Z</time>
      </trkpt>
      <trkpt lat="42.69633" lon="1.40558">
        <ele>1953.5363769531</ele>
        <time>2011-08-20T07:29:38Z</time>
      </trkpt>
      <trkpt lat="42.69629" lon="1.40553">
        <ele>1954.9782714844</ele>
        <time>2011-08-20T07:29:45Z</time>
      </trkpt>
      <trkpt lat="42.69624" lon="1.4055">
        <ele>1954.9782714844</ele>
        <time>2011-08-20T07:29:52Z</time>
      </trkpt>
      <trkpt lat="42.69621" lon="1.40548">
        <ele>1955.458984375</ele>
        <time>2011-08-20T07:29:56Z</time>
      </trkpt>
      <trkpt lat="42.6962" lon="1.40547">
        <ele>1958.8234863281</ele>
        <time>2011-08-20T07:30:01Z</time>
      </trkpt>
      <trkpt lat="42.69619" lon="1.40546">
        <ele>1961.7075195312</ele>
        <time>2011-08-20T07:30:06Z</time>
      </trkpt>
      <trkpt lat="42.69616" lon="1.40544">
        <ele>1964.1108398438</ele>
        <time>2011-08-20T07:30:11Z</time>
      </trkpt>
      <trkpt lat="42.69615" lon="1.40542">
        <ele>1965.072265625</ele>
        <time>2011-08-20T07:30:15Z</time>
      </trkpt>
      <trkpt lat="42.69613" lon="1.40542">
        <ele>1966.0334472656</ele>
        <time>2011-08-20T07:30:20Z</time>
      </trkpt>
      <trkpt lat="42.69611" lon="1.40541">
        <ele>1966.5141601562</ele>
        <time>2011-08-20T07:30:24Z</time>
      </trkpt>
      <trkpt lat="42.69609" lon="1.40539">
        <ele>1967.4753417969</ele>
        <time>2011-08-20T07:30:30Z</time>
      </trkpt>
      <trkpt lat="42.69604" lon="1.40534">
        <ele>1967.9560546875</ele>
        <time>2011-08-20T07:30:40Z</time>
      </trkpt>
      <trkpt lat="42.69602" lon="1.40531">
        <ele>1969.3981933594</ele>
        <time>2011-08-20T07:30:47Z</time>
      </trkpt>
      <trkpt lat="42.69601" lon="1.40533">
        <ele>1969.8786621094</ele>
        <time>2011-08-20T07:30:51Z</time>
      </trkpt>
      <trkpt lat="42.69598" lon="1.40532">
        <ele>1972.2819824219</ele>
        <time>2011-08-20T07:30:58Z</time>
      </trkpt>
      <trkpt lat="42.69597" lon="1.40535">
        <ele>1973.7238769531</ele>
        <time>2011-08-20T07:31:03Z</time>
      </trkpt>
      <trkpt lat="42.69596" lon="1.40538">
        <ele>1974.6853027344</ele>
        <time>2011-08-20T07:31:08Z</time>
      </trkpt>
      <trkpt lat="42.69594" lon="1.40542">
        <ele>1976.1271972656</ele>
        <time>2011-08-20T07:31:14Z</time>
      </trkpt>
      <trkpt lat="42.69592" lon="1.40541">
        <ele>1977.0886230469</ele>
        <time>2011-08-20T07:31:19Z</time>
      </trkpt>
      <trkpt lat="42.69592" lon="1.40547">
        <ele>1978.5305175781</ele>
        <time>2011-08-20T07:31:25Z</time>
      </trkpt>
      <trkpt lat="42.69592" lon="1.40553">
        <ele>1979.4916992188</ele>
        <time>2011-08-20T07:31:31Z</time>
      </trkpt>
      <trkpt lat="42.69588" lon="1.40552">
        <ele>1979.9724121094</ele>
        <time>2011-08-20T07:31:36Z</time>
      </trkpt>
      <trkpt lat="42.69585" lon="1.40548">
        <ele>1980.9340820312</ele>
        <time>2011-08-20T07:31:42Z</time>
      </trkpt>
      <trkpt lat="42.69583" lon="1.40543">
        <ele>1983.3371582031</ele>
        <time>2011-08-20T07:31:49Z</time>
      </trkpt>
      <trkpt lat="42.6958" lon="1.40543">
        <ele>1985.7404785156</ele>
        <time>2011-08-20T07:31:56Z</time>
      </trkpt>
      <trkpt lat="42.69579" lon="1.40546">
        <ele>1987.6630859375</ele>
        <time>2011-08-20T07:32:02Z</time>
      </trkpt>
      <trkpt lat="42.69577" lon="1.40542">
        <ele>1987.6630859375</ele>
        <time>2011-08-20T07:32:08Z</time>
      </trkpt>
      <trkpt lat="42.69575" lon="1.40538">
        <ele>1988.1437988281</ele>
        <time>2011-08-20T07:32:13Z</time>
      </trkpt>
      <trkpt lat="42.69572" lon="1.40536">
        <ele>1989.1049804688</ele>
        <time>2011-08-20T07:32:19Z</time>
      </trkpt>
      <trkpt lat="42.69569" lon="1.40536">
        <ele>1992.4697265625</ele>
        <time>2011-08-20T07:32:27Z</time>
      </trkpt>
      <trkpt lat="42.69566" lon="1.40538">
        <ele>1993.9116210938</ele>
        <time>2011-08-20T07:32:34Z</time>
      </trkpt>
      <trkpt lat="42.69564" lon="1.40542">
        <ele>1994.8728027344</ele>
        <time>2011-08-20T07:32:41Z</time>
      </trkpt>
      <trkpt lat="42.69563" lon="1.40545">
        <ele>1994.3920898438</ele>
        <time>2011-08-20T07:32:47Z</time>
      </trkpt>
      <trkpt lat="42.69561" lon="1.40549">
        <ele>1995.8342285156</ele>
        <time>2011-08-20T07:32:53Z</time>
      </trkpt>
      <trkpt lat="42.69558" lon="1.40548">
        <ele>1996.3151855469</ele>
        <time>2011-08-20T07:32:58Z</time>
      </trkpt>
      <trkpt lat="42.69555" lon="1.40549">
        <ele>1995.8342285156</ele>
        <time>2011-08-20T07:33:02Z</time>
      </trkpt>
      <trkpt lat="42.69552" lon="1.40552">
        <ele>1996.7956542969</ele>
        <time>2011-08-20T07:33:08Z</time>
      </trkpt>
      <trkpt lat="42.6955" lon="1.4055">
        <ele>1997.2763671875</ele>
        <time>2011-08-20T07:33:12Z</time>
      </trkpt>
      <trkpt lat="42.69548" lon="1.4055">
        <ele>1998.2375488281</ele>
        <time>2011-08-20T07:33:18Z</time>
      </trkpt>
      <trkpt lat="42.69545" lon="1.40547">
        <ele>1999.6796875</ele>
        <time>2011-08-20T07:33:23Z</time>
      </trkpt>
      <trkpt lat="42.69543" lon="1.40547">
        <ele>2000.1604003906</ele>
        <time>2011-08-20T07:33:30Z</time>
      </trkpt>
      <trkpt lat="42.6954" lon="1.40544">
        <ele>2000.6408691406</ele>
        <time>2011-08-20T07:33:35Z</time>
      </trkpt>
      <trkpt lat="42.69538" lon="1.40542">
        <ele>2001.6022949219</ele>
        <time>2011-08-20T07:33:40Z</time>
      </trkpt>
      <trkpt lat="42.69536" lon="1.40541">
        <ele>2002.5634765625</ele>
        <time>2011-08-20T07:33:44Z</time>
      </trkpt>
      <trkpt lat="42.69535" lon="1.40541">
        <ele>2004.0056152344</ele>
        <time>2011-08-20T07:33:47Z</time>
      </trkpt>
      <trkpt lat="42.69532" lon="1.40542">
        <ele>2004.966796875</ele>
        <time>2011-08-20T07:33:51Z</time>
      </trkpt>
      <trkpt lat="42.6953" lon="1.40542">
        <ele>2006.8894042969</ele>
        <time>2011-08-20T07:33:55Z</time>
      </trkpt>
      <trkpt lat="42.69527" lon="1.40541">
        <ele>2008.3312988281</ele>
        <time>2011-08-20T07:34:00Z</time>
      </trkpt>
      <trkpt lat="42.69526" lon="1.40539">
        <ele>2008.8120117188</ele>
        <time>2011-08-20T07:34:04Z</time>
      </trkpt>
      <trkpt lat="42.69523" lon="1.40539">
        <ele>2009.7731933594</ele>
        <time>2011-08-20T07:34:09Z</time>
      </trkpt>
      <trkpt lat="42.69521" lon="1.40542">
        <ele>2010.25390625</ele>
        <time>2011-08-20T07:34:15Z</time>
      </trkpt>
      <trkpt lat="42.69518" lon="1.40541">
        <ele>2011.2153320312</ele>
        <time>2011-08-20T07:34:20Z</time>
      </trkpt>
      <trkpt lat="42.69515" lon="1.4054">
        <ele>2012.1767578125</ele>
        <time>2011-08-20T07:34:24Z</time>
      </trkpt>
      <trkpt lat="42.69512" lon="1.40541">
        <ele>2012.6574707031</ele>
        <time>2011-08-20T07:34:30Z</time>
      </trkpt>
      <trkpt lat="42.69509" lon="1.40543">
        <ele>2014.0993652344</ele>
        <time>2011-08-20T07:34:35Z</time>
      </trkpt>
      <trkpt lat="42.69507" lon="1.40543">
        <ele>2015.5415039062</ele>
        <time>2011-08-20T07:34:39Z</time>
      </trkpt>
      <trkpt lat="42.69505" lon="1.40542">
        <ele>2016.9833984375</ele>
        <time>2011-08-20T07:34:44Z</time>
      </trkpt>
      <trkpt lat="42.69503" lon="1.40539">
        <ele>2018.4252929688</ele>
        <time>2011-08-20T07:34:50Z</time>
      </trkpt>
      <trkpt lat="42.695" lon="1.40537">
        <ele>2018.9060058594</ele>
        <time>2011-08-20T07:34:55Z</time>
      </trkpt>
      <trkpt lat="42.69497" lon="1.40539">
        <ele>2019.38671875</ele>
        <time>2011-08-20T07:34:59Z</time>
      </trkpt>
      <trkpt lat="42.69494" lon="1.4054">
        <ele>2019.38671875</ele>
        <time>2011-08-20T07:35:03Z</time>
      </trkpt>
      <trkpt lat="42.6949" lon="1.40537">
        <ele>2020.8286132812</ele>
        <time>2011-08-20T07:35:09Z</time>
      </trkpt>
      <trkpt lat="42.69485" lon="1.40538">
        <ele>2021.7897949219</ele>
        <time>2011-08-20T07:35:15Z</time>
      </trkpt>
      <trkpt lat="42.69482" lon="1.40535">
        <ele>2022.7512207031</ele>
        <time>2011-08-20T07:35:20Z</time>
      </trkpt>
      <trkpt lat="42.69479" lon="1.40534">
        <ele>2024.673828125</ele>
        <time>2011-08-20T07:35:26Z</time>
      </trkpt>
      <trkpt lat="42.69477" lon="1.40532">
        <ele>2025.154296875</ele>
        <time>2011-08-20T07:35:30Z</time>
      </trkpt>
      <trkpt lat="42.69475" lon="1.40533">
        <ele>2026.1157226562</ele>
        <time>2011-08-20T07:35:35Z</time>
      </trkpt>
      <trkpt lat="42.69472" lon="1.40534">
        <ele>2027.0771484375</ele>
        <time>2011-08-20T07:35:40Z</time>
      </trkpt>
      <trkpt lat="42.69469" lon="1.40531">
        <ele>2029.48046875</ele>
        <time>2011-08-20T07:35:46Z</time>
      </trkpt>
      <trkpt lat="42.69467" lon="1.40531">
        <ele>2030.9226074219</ele>
        <time>2011-08-20T07:35:52Z</time>
      </trkpt>
      <trkpt lat="42.69465" lon="1.40531">
        <ele>2032.3645019531</ele>
        <time>2011-08-20T07:35:56Z</time>
      </trkpt>
      <trkpt lat="42.69462" lon="1.4053">
        <ele>2033.8063964844</ele>
        <time>2011-08-20T07:36:02Z</time>
      </trkpt>
      <trkpt lat="42.69458" lon="1.40527">
        <ele>2035.2482910156</ele>
        <time>2011-08-20T07:36:08Z</time>
      </trkpt>
      <trkpt lat="42.69456" lon="1.40524">
        <ele>2036.6901855469</ele>
        <time>2011-08-20T07:36:14Z</time>
      </trkpt>
      <trkpt lat="42.6945" lon="1.40524">
        <ele>2035.2482910156</ele>
        <time>2011-08-20T07:36:19Z</time>
      </trkpt>
      <trkpt lat="42.69446" lon="1.40522">
        <ele>2035.2482910156</ele>
        <time>2011-08-20T07:36:24Z</time>
      </trkpt>
      <trkpt lat="42.69445" lon="1.40522">
        <ele>2035.2482910156</ele>
        <time>2011-08-20T07:36:25Z</time>
      </trkpt>
      <trkpt lat="42.69441" lon="1.4052">
        <ele>2034.7678222656</ele>
        <time>2011-08-20T07:36:31Z</time>
      </trkpt>
      <trkpt lat="42.69437" lon="1.4052">
        <ele>2035.7290039062</ele>
        <time>2011-08-20T07:36:37Z</time>
      </trkpt>
      <trkpt lat="42.69434" lon="1.40519">
        <ele>2036.2097167969</ele>
        <time>2011-08-20T07:36:42Z</time>
      </trkpt>
      <trkpt lat="42.69429" lon="1.40518">
        <ele>2038.1323242188</ele>
        <time>2011-08-20T07:36:49Z</time>
      </trkpt>
      <trkpt lat="42.69427" lon="1.40516">
        <ele>2040.5354003906</ele>
        <time>2011-08-20T07:36:53Z</time>
      </trkpt>
      <trkpt lat="42.69424" lon="1.40514">
        <ele>2043.4194335938</ele>
        <time>2011-08-20T07:36:58Z</time>
      </trkpt>
      <trkpt lat="42.69421" lon="1.40513">
        <ele>2045.3422851562</ele>
        <time>2011-08-20T07:37:03Z</time>
      </trkpt>
      <trkpt lat="42.69416" lon="1.40508">
        <ele>2046.3037109375</ele>
        <time>2011-08-20T07:37:09Z</time>
      </trkpt>
      <trkpt lat="42.69409" lon="1.405">
        <ele>2046.3037109375</ele>
        <time>2011-08-20T07:37:16Z</time>
      </trkpt>
      <trkpt lat="42.69402" lon="1.40495">
        <ele>2048.2260742188</ele>
        <time>2011-08-20T07:37:23Z</time>
      </trkpt>
      <trkpt lat="42.69396" lon="1.40486">
        <ele>2048.7067871094</ele>
        <time>2011-08-20T07:37:30Z</time>
      </trkpt>
      <trkpt lat="42.69386" lon="1.40479">
        <ele>2048.2260742188</ele>
        <time>2011-08-20T07:37:37Z</time>
      </trkpt>
      <trkpt lat="42.6938" lon="1.40471">
        <ele>2047.7456054688</ele>
        <time>2011-08-20T07:37:43Z</time>
      </trkpt>
      <trkpt lat="42.69379" lon="1.40465">
        <ele>2048.2260742188</ele>
        <time>2011-08-20T07:37:47Z</time>
      </trkpt>
      <trkpt lat="42.69373" lon="1.40455">
        <ele>2047.7456054688</ele>
        <time>2011-08-20T07:37:54Z</time>
      </trkpt>
      <trkpt lat="42.69369" lon="1.40448">
        <ele>2047.7456054688</ele>
        <time>2011-08-20T07:38:00Z</time>
      </trkpt>
      <trkpt lat="42.69365" lon="1.40445">
        <ele>2047.2648925781</ele>
        <time>2011-08-20T07:38:04Z</time>
      </trkpt>
      <trkpt lat="42.69362" lon="1.40442">
        <ele>2047.2648925781</ele>
        <time>2011-08-20T07:38:08Z</time>
      </trkpt>
      <trkpt lat="42.69361" lon="1.40442">
        <ele>2047.2648925781</ele>
        <time>2011-08-20T07:38:09Z</time>
      </trkpt>
      <trkpt lat="42.69356" lon="1.40436">
        <ele>2049.1875</ele>
        <time>2011-08-20T07:38:16Z</time>
      </trkpt>
      <trkpt lat="42.69352" lon="1.4043">
        <ele>2051.1101074219</ele>
        <time>2011-08-20T07:38:22Z</time>
      </trkpt>
      <trkpt lat="42.69348" lon="1.40427">
        <ele>2053.994140625</ele>
        <time>2011-08-20T07:38:29Z</time>
      </trkpt>
      <trkpt lat="42.69345" lon="1.40422">
        <ele>2056.3972167969</ele>
        <time>2011-08-20T07:38:35Z</time>
      </trkpt>
      <trkpt lat="42.69343" lon="1.4042">
        <ele>2057.3586425781</ele>
        <time>2011-08-20T07:38:39Z</time>
      </trkpt>
      <trkpt lat="42.69342" lon="1.40416">
        <ele>2058.8005371094</ele>
        <time>2011-08-20T07:38:44Z</time>
      </trkpt>
      <trkpt lat="42.6934" lon="1.40411">
        <ele>2060.7233886719</ele>
        <time>2011-08-20T07:38:50Z</time>
      </trkpt>
      <trkpt lat="42.69336" lon="1.40405">
        <ele>2063.1267089844</ele>
        <time>2011-08-20T07:38:57Z</time>
      </trkpt>
      <trkpt lat="42.69334" lon="1.40399">
        <ele>2064.5686035156</ele>
        <time>2011-08-20T07:39:04Z</time>
      </trkpt>
      <trkpt lat="42.69334" lon="1.40393">
        <ele>2065.0493164062</ele>
        <time>2011-08-20T07:39:10Z</time>
      </trkpt>
      <trkpt lat="42.69331" lon="1.40392">
        <ele>2066.4912109375</ele>
        <time>2011-08-20T07:39:16Z</time>
      </trkpt>
      <trkpt lat="42.69328" lon="1.4039">
        <ele>2067.4523925781</ele>
        <time>2011-08-20T07:39:22Z</time>
      </trkpt>
      <trkpt lat="42.69325" lon="1.40385">
        <ele>2068.4138183594</ele>
        <time>2011-08-20T07:39:28Z</time>
      </trkpt>
      <trkpt lat="42.69323" lon="1.4038">
        <ele>2069.3752441406</ele>
        <time>2011-08-20T07:39:34Z</time>
      </trkpt>
      <trkpt lat="42.69321" lon="1.40373">
        <ele>2070.3364257812</ele>
        <time>2011-08-20T07:39:40Z</time>
      </trkpt>
      <trkpt lat="42.6932" lon="1.40366">
        <ele>2070.8171386719</ele>
        <time>2011-08-20T07:39:47Z</time>
      </trkpt>
      <trkpt lat="42.69319" lon="1.4036">
        <ele>2071.7783203125</ele>
        <time>2011-08-20T07:39:54Z</time>
      </trkpt>
      <trkpt lat="42.69316" lon="1.40351">
        <ele>2072.7397460938</ele>
        <time>2011-08-20T07:40:02Z</time>
      </trkpt>
      <trkpt lat="42.69315" lon="1.40345">
        <ele>2073.2204589844</ele>
        <time>2011-08-20T07:40:06Z</time>
      </trkpt>
      <trkpt lat="42.69314" lon="1.4034">
        <ele>2073.2204589844</ele>
        <time>2011-08-20T07:40:10Z</time>
      </trkpt>
      <trkpt lat="42.69311" lon="1.40333">
        <ele>2074.6623535156</ele>
        <time>2011-08-20T07:40:18Z</time>
      </trkpt>
      <trkpt lat="42.6931" lon="1.40327">
        <ele>2076.1044921875</ele>
        <time>2011-08-20T07:40:25Z</time>
      </trkpt>
      <trkpt lat="42.69306" lon="1.40317">
        <ele>2077.5463867188</ele>
        <time>2011-08-20T07:40:33Z</time>
      </trkpt>
      <trkpt lat="42.69307" lon="1.40311">
        <ele>2078.0270996094</ele>
        <time>2011-08-20T07:40:38Z</time>
      </trkpt>
      <trkpt lat="42.69308" lon="1.40304">
        <ele>2078.98828125</ele>
        <time>2011-08-20T07:40:44Z</time>
      </trkpt>
      <trkpt lat="42.69307" lon="1.40298">
        <ele>2080.4304199219</ele>
        <time>2011-08-20T07:40:50Z</time>
      </trkpt>
      <trkpt lat="42.69306" lon="1.40294">
        <ele>2080.9111328125</ele>
        <time>2011-08-20T07:40:54Z</time>
      </trkpt>
      <trkpt lat="42.69305" lon="1.40288">
        <ele>2082.8334960938</ele>
        <time>2011-08-20T07:41:01Z</time>
      </trkpt>
      <trkpt lat="42.69304" lon="1.40287">
        <ele>2084.2756347656</ele>
        <time>2011-08-20T07:41:06Z</time>
      </trkpt>
      <trkpt lat="42.69302" lon="1.40285">
        <ele>2085.7175292969</ele>
        <time>2011-08-20T07:41:11Z</time>
      </trkpt>
      <trkpt lat="42.693" lon="1.40285">
        <ele>2087.1594238281</ele>
        <time>2011-08-20T07:41:16Z</time>
      </trkpt>
      <trkpt lat="42.693" lon="1.40282">
        <ele>2088.1208496094</ele>
        <time>2011-08-20T07:41:20Z</time>
      </trkpt>
      <trkpt lat="42.69297" lon="1.40279">
        <ele>2089.5627441406</ele>
        <time>2011-08-20T07:41:26Z</time>
      </trkpt>
      <trkpt lat="42.69294" lon="1.40279">
        <ele>2091.4853515625</ele>
        <time>2011-08-20T07:41:32Z</time>
      </trkpt>
      <trkpt lat="42.69291" lon="1.40278">
        <ele>2092.4470214844</ele>
        <time>2011-08-20T07:41:38Z</time>
      </trkpt>
      <trkpt lat="42.69289" lon="1.40277">
        <ele>2093.408203125</ele>
        <time>2011-08-20T07:41:44Z</time>
      </trkpt>
      <trkpt lat="42.69285" lon="1.40278">
        <ele>2095.8115234375</ele>
        <time>2011-08-20T07:41:51Z</time>
      </trkpt>
      <trkpt lat="42.69282" lon="1.40278">
        <ele>2096.2922363281</ele>
        <time>2011-08-20T07:41:55Z</time>
      </trkpt>
      <trkpt lat="42.69281" lon="1.40275">
        <ele>2096.2922363281</ele>
        <time>2011-08-20T07:42:00Z</time>
      </trkpt>
      <trkpt lat="42.69279" lon="1.40274">
        <ele>2096.7727050781</ele>
        <time>2011-08-20T07:42:06Z</time>
      </trkpt>
      <trkpt lat="42.69276" lon="1.40274">
        <ele>2098.2145996094</ele>
        <time>2011-08-20T07:42:11Z</time>
      </trkpt>
      <trkpt lat="42.69273" lon="1.40274">
        <ele>2099.1760253906</ele>
        <time>2011-08-20T07:42:17Z</time>
      </trkpt>
      <trkpt lat="42.6927" lon="1.40274">
        <ele>2100.1374511719</ele>
        <time>2011-08-20T07:42:21Z</time>
      </trkpt>
      <trkpt lat="42.69267" lon="1.40274">
        <ele>2101.5793457031</ele>
        <time>2011-08-20T07:42:27Z</time>
      </trkpt>
      <trkpt lat="42.69269" lon="1.40271">
        <ele>2102.5405273438</ele>
        <time>2011-08-20T07:42:31Z</time>
      </trkpt>
      <trkpt lat="42.69269" lon="1.40266">
        <ele>2102.0598144531</ele>
        <time>2011-08-20T07:42:37Z</time>
      </trkpt>
      <trkpt lat="42.69272" lon="1.40262">
        <ele>2102.0598144531</ele>
        <time>2011-08-20T07:42:43Z</time>
      </trkpt>
      <trkpt lat="42.69274" lon="1.40258">
        <ele>2102.0598144531</ele>
        <time>2011-08-20T07:42:48Z</time>
      </trkpt>
      <trkpt lat="42.69277" lon="1.40255">
        <ele>2103.0212402344</ele>
        <time>2011-08-20T07:42:54Z</time>
      </trkpt>
      <trkpt lat="42.69278" lon="1.40251">
        <ele>2104.4631347656</ele>
        <time>2011-08-20T07:43:00Z</time>
      </trkpt>
      <trkpt lat="42.69276" lon="1.40247">
        <ele>2104.9438476562</ele>
        <time>2011-08-20T07:43:06Z</time>
      </trkpt>
      <trkpt lat="42.69276" lon="1.40246">
        <ele>2106.8664550781</ele>
        <time>2011-08-20T07:43:15Z</time>
      </trkpt>
      <trkpt lat="42.69271" lon="1.40239">
        <ele>2108.30859375</ele>
        <time>2011-08-20T07:43:23Z</time>
      </trkpt>
      <trkpt lat="42.69266" lon="1.40233">
        <ele>2107.8278808594</ele>
        <time>2011-08-20T07:43:30Z</time>
      </trkpt>
      <trkpt lat="42.69261" lon="1.40225">
        <ele>2108.30859375</ele>
        <time>2011-08-20T07:43:37Z</time>
      </trkpt>
      <trkpt lat="42.69258" lon="1.40222">
        <ele>2109.2700195312</ele>
        <time>2011-08-20T07:43:42Z</time>
      </trkpt>
      <trkpt lat="42.69255" lon="1.40219">
        <ele>2109.7504882812</ele>
        <time>2011-08-20T07:43:46Z</time>
      </trkpt>
      <trkpt lat="42.69252" lon="1.40217">
        <ele>2111.1926269531</ele>
        <time>2011-08-20T07:43:52Z</time>
      </trkpt>
      <trkpt lat="42.69249" lon="1.40215">
        <ele>2111.6733398438</ele>
        <time>2011-08-20T07:43:57Z</time>
      </trkpt>
      <trkpt lat="42.69246" lon="1.40212">
        <ele>2113.595703125</ele>
        <time>2011-08-20T07:44:03Z</time>
      </trkpt>
      <trkpt lat="42.69244" lon="1.40209">
        <ele>2114.5571289062</ele>
        <time>2011-08-20T07:44:08Z</time>
      </trkpt>
      <trkpt lat="42.69241" lon="1.40206">
        <ele>2115.9990234375</ele>
        <time>2011-08-20T07:44:13Z</time>
      </trkpt>
      <trkpt lat="42.69238" lon="1.402">
        <ele>2118.40234375</ele>
        <time>2011-08-20T07:44:21Z</time>
      </trkpt>
      <trkpt lat="42.69235" lon="1.40194">
        <ele>2119.3637695312</ele>
        <time>2011-08-20T07:44:28Z</time>
      </trkpt>
      <trkpt lat="42.69234" lon="1.40195">
        <ele>2120.8056640625</ele>
        <time>2011-08-20T07:44:34Z</time>
      </trkpt>
      <trkpt lat="42.69234" lon="1.40201">
        <ele>2121.7668457031</ele>
        <time>2011-08-20T07:44:40Z</time>
      </trkpt>
      <trkpt lat="42.69235" lon="1.40206">
        <ele>2122.2475585938</ele>
        <time>2011-08-20T07:44:45Z</time>
      </trkpt>
      <trkpt lat="42.69233" lon="1.40206">
        <ele>2123.208984375</ele>
        <time>2011-08-20T07:44:50Z</time>
      </trkpt>
      <trkpt lat="42.69229" lon="1.402">
        <ele>2125.1315917969</ele>
        <time>2011-08-20T07:44:58Z</time>
      </trkpt>
      <trkpt lat="42.69227" lon="1.40196">
        <ele>2125.6123046875</ele>
        <time>2011-08-20T07:45:03Z</time>
      </trkpt>
      <trkpt lat="42.69225" lon="1.40193">
        <ele>2127.0544433594</ele>
        <time>2011-08-20T07:45:08Z</time>
      </trkpt>
      <trkpt lat="42.69221" lon="1.40186">
        <ele>2128.9768066406</ele>
        <time>2011-08-20T07:45:16Z</time>
      </trkpt>
      <trkpt lat="42.6922" lon="1.40182">
        <ele>2129.9382324219</ele>
        <time>2011-08-20T07:45:20Z</time>
      </trkpt>
      <trkpt lat="42.69218" lon="1.40179">
        <ele>2131.3801269531</ele>
        <time>2011-08-20T07:45:24Z</time>
      </trkpt>
      <trkpt lat="42.69217" lon="1.40176">
        <ele>2132.8220214844</ele>
        <time>2011-08-20T07:45:28Z</time>
      </trkpt>
      <trkpt lat="42.69215" lon="1.40173">
        <ele>2133.7834472656</ele>
        <time>2011-08-20T07:45:33Z</time>
      </trkpt>
      <trkpt lat="42.69213" lon="1.40172">
        <ele>2135.2253417969</ele>
        <time>2011-08-20T07:45:39Z</time>
      </trkpt>
      <trkpt lat="42.6921" lon="1.40169">
        <ele>2137.1479492188</ele>
        <time>2011-08-20T07:45:45Z</time>
      </trkpt>
      <trkpt lat="42.69208" lon="1.40167">
        <ele>2138.109375</ele>
        <time>2011-08-20T07:45:49Z</time>
      </trkpt>
      <trkpt lat="42.69207" lon="1.40165">
        <ele>2138.5900878906</ele>
        <time>2011-08-20T07:45:53Z</time>
      </trkpt>
      <trkpt lat="42.69206" lon="1.40159">
        <ele>2139.0705566406</ele>
        <time>2011-08-20T07:45:59Z</time>
      </trkpt>
      <trkpt lat="42.69204" lon="1.40153">
        <ele>2141.4741210938</ele>
        <time>2011-08-20T07:46:07Z</time>
      </trkpt>
      <trkpt lat="42.69202" lon="1.40149">
        <ele>2142.435546875</ele>
        <time>2011-08-20T07:46:12Z</time>
      </trkpt>
      <trkpt lat="42.692" lon="1.40145">
        <ele>2143.8774414062</ele>
        <time>2011-08-20T07:46:18Z</time>
      </trkpt>
      <trkpt lat="42.69198" lon="1.40142">
        <ele>2144.8386230469</ele>
        <time>2011-08-20T07:46:23Z</time>
      </trkpt>
      <trkpt lat="42.69197" lon="1.40139">
        <ele>2146.7612304688</ele>
        <time>2011-08-20T07:46:29Z</time>
      </trkpt>
      <trkpt lat="42.69194" lon="1.40137">
        <ele>2149.1645507812</ele>
        <time>2011-08-20T07:46:36Z</time>
      </trkpt>
      <trkpt lat="42.69192" lon="1.40133">
        <ele>2150.1259765625</ele>
        <time>2011-08-20T07:46:41Z</time>
      </trkpt>
      <trkpt lat="42.69189" lon="1.40128">
        <ele>2151.5678710938</ele>
        <time>2011-08-20T07:46:48Z</time>
      </trkpt>
      <trkpt lat="42.69188" lon="1.40124">
        <ele>2153.4904785156</ele>
        <time>2011-08-20T07:46:53Z</time>
      </trkpt>
      <trkpt lat="42.69188" lon="1.40119">
        <ele>2153.9711914062</ele>
        <time>2011-08-20T07:46:58Z</time>
      </trkpt>
      <trkpt lat="42.69186" lon="1.40112">
        <ele>2154.9323730469</ele>
        <time>2011-08-20T07:47:05Z</time>
      </trkpt>
      <trkpt lat="42.69186" lon="1.40107">
        <ele>2155.8935546875</ele>
        <time>2011-08-20T07:47:10Z</time>
      </trkpt>
      <trkpt lat="42.69184" lon="1.40103">
        <ele>2157.3359375</ele>
        <time>2011-08-20T07:47:17Z</time>
      </trkpt>
      <trkpt lat="42.69183" lon="1.401">
        <ele>2158.7778320312</ele>
        <time>2011-08-20T07:47:23Z</time>
      </trkpt>
      <trkpt lat="42.69183" lon="1.40096">
        <ele>2159.2585449219</ele>
        <time>2011-08-20T07:47:28Z</time>
      </trkpt>
      <trkpt lat="42.69181" lon="1.40092">
        <ele>2159.2585449219</ele>
        <time>2011-08-20T07:47:32Z</time>
      </trkpt>
      <trkpt lat="42.6918" lon="1.40084">
        <ele>2160.2197265625</ele>
        <time>2011-08-20T07:47:39Z</time>
      </trkpt>
      <trkpt lat="42.69177" lon="1.40081">
        <ele>2160.7004394531</ele>
        <time>2011-08-20T07:47:44Z</time>
      </trkpt>
      <trkpt lat="42.69175" lon="1.40079">
        <ele>2162.1423339844</ele>
        <time>2011-08-20T07:47:49Z</time>
      </trkpt>
      <trkpt lat="42.69172" lon="1.40076">
        <ele>2162.623046875</ele>
        <time>2011-08-20T07:47:54Z</time>
      </trkpt>
      <trkpt lat="42.6917" lon="1.4007">
        <ele>2164.0649414062</ele>
        <time>2011-08-20T07:48:00Z</time>
      </trkpt>
      <trkpt lat="42.69169" lon="1.40066">
        <ele>2165.0263671875</ele>
        <time>2011-08-20T07:48:05Z</time>
      </trkpt>
      <trkpt lat="42.69167" lon="1.40063">
        <ele>2166.4682617188</ele>
        <time>2011-08-20T07:48:11Z</time>
      </trkpt>
      <trkpt lat="42.69167" lon="1.40058">
        <ele>2166.4682617188</ele>
        <time>2011-08-20T07:48:16Z</time>
      </trkpt>
      <trkpt lat="42.69167" lon="1.40052">
        <ele>2167.4294433594</ele>
        <time>2011-08-20T07:48:22Z</time>
      </trkpt>
      <trkpt lat="42.69168" lon="1.40046">
        <ele>2167.4294433594</ele>
        <time>2011-08-20T07:48:27Z</time>
      </trkpt>
      <trkpt lat="42.69168" lon="1.4004">
        <ele>2168.3908691406</ele>
        <time>2011-08-20T07:48:33Z</time>
      </trkpt>
      <trkpt lat="42.69165" lon="1.40037">
        <ele>2170.3134765625</ele>
        <time>2011-08-20T07:48:39Z</time>
      </trkpt>
      <trkpt lat="42.69163" lon="1.40039">
        <ele>2171.7553710938</ele>
        <time>2011-08-20T07:48:45Z</time>
      </trkpt>
      <trkpt lat="42.6916" lon="1.40039">
        <ele>2172.236328125</ele>
        <time>2011-08-20T07:48:50Z</time>
      </trkpt>
      <trkpt lat="42.69159" lon="1.40035">
        <ele>2173.1977539062</ele>
        <time>2011-08-20T07:48:56Z</time>
      </trkpt>
      <trkpt lat="42.69158" lon="1.40031">
        <ele>2174.6396484375</ele>
        <time>2011-08-20T07:49:02Z</time>
      </trkpt>
      <trkpt lat="42.69157" lon="1.40027">
        <ele>2175.6008300781</ele>
        <time>2011-08-20T07:49:08Z</time>
      </trkpt>
      <trkpt lat="42.69152" lon="1.40029">
        <ele>2177.04296875</ele>
        <time>2011-08-20T07:49:15Z</time>
      </trkpt>
      <trkpt lat="42.6915" lon="1.40027">
        <ele>2177.5234375</ele>
        <time>2011-08-20T07:49:20Z</time>
      </trkpt>
      <trkpt lat="42.69147" lon="1.40028">
        <ele>2178.9653320312</ele>
        <time>2011-08-20T07:49:26Z</time>
      </trkpt>
      <trkpt lat="42.69147" lon="1.40025">
        <ele>2179.9267578125</ele>
        <time>2011-08-20T07:49:31Z</time>
      </trkpt>
      <trkpt lat="42.69146" lon="1.40022">
        <ele>2180.4074707031</ele>
        <time>2011-08-20T07:49:36Z</time>
      </trkpt>
      <trkpt lat="42.69145" lon="1.40017">
        <ele>2181.8493652344</ele>
        <time>2011-08-20T07:49:42Z</time>
      </trkpt>
      <trkpt lat="42.69147" lon="1.40012">
        <ele>2183.2912597656</ele>
        <time>2011-08-20T07:49:48Z</time>
      </trkpt>
      <trkpt lat="42.69149" lon="1.40009">
        <ele>2184.2526855469</ele>
        <time>2011-08-20T07:49:53Z</time>
      </trkpt>
      <trkpt lat="42.69147" lon="1.40005">
        <ele>2184.7333984375</ele>
        <time>2011-08-20T07:49:59Z</time>
      </trkpt>
      <trkpt lat="42.69147" lon="1.40001">
        <ele>2185.6945800781</ele>
        <time>2011-08-20T07:50:05Z</time>
      </trkpt>
      <trkpt lat="42.69146" lon="1.39998">
        <ele>2187.1364746094</ele>
        <time>2011-08-20T07:50:11Z</time>
      </trkpt>
      <trkpt lat="42.69144" lon="1.39998">
        <ele>2188.5788574219</ele>
        <time>2011-08-20T07:50:17Z</time>
      </trkpt>
      <trkpt lat="42.69141" lon="1.40001">
        <ele>2190.0207519531</ele>
        <time>2011-08-20T07:50:23Z</time>
      </trkpt>
      <trkpt lat="42.69138" lon="1.39999">
        <ele>2192.4240722656</ele>
        <time>2011-08-20T07:50:30Z</time>
      </trkpt>
      <trkpt lat="42.69138" lon="1.39995">
        <ele>2193.8659667969</ele>
        <time>2011-08-20T07:50:35Z</time>
      </trkpt>
      <trkpt lat="42.69137" lon="1.39991">
        <ele>2195.3078613281</ele>
        <time>2011-08-20T07:50:39Z</time>
      </trkpt>
      <trkpt lat="42.69136" lon="1.39986">
        <ele>2195.3078613281</ele>
        <time>2011-08-20T07:50:43Z</time>
      </trkpt>
      <trkpt lat="42.69135" lon="1.3998">
        <ele>2195.7885742188</ele>
        <time>2011-08-20T07:50:48Z</time>
      </trkpt>
      <trkpt lat="42.69137" lon="1.39972">
        <ele>2196.2692871094</ele>
        <time>2011-08-20T07:50:55Z</time>
      </trkpt>
      <trkpt lat="42.69138" lon="1.39961">
        <ele>2195.7885742188</ele>
        <time>2011-08-20T07:51:03Z</time>
      </trkpt>
      <trkpt lat="42.69139" lon="1.39955">
        <ele>2196.7497558594</ele>
        <time>2011-08-20T07:51:08Z</time>
      </trkpt>
      <trkpt lat="42.69139" lon="1.39949">
        <ele>2197.23046875</ele>
        <time>2011-08-20T07:51:14Z</time>
      </trkpt>
      <trkpt lat="42.69142" lon="1.39941">
        <ele>2198.6723632812</ele>
        <time>2011-08-20T07:51:21Z</time>
      </trkpt>
      <trkpt lat="42.69144" lon="1.39932">
        <ele>2201.5563964844</ele>
        <time>2011-08-20T07:51:29Z</time>
      </trkpt>
      <trkpt lat="42.69143" lon="1.39926">
        <ele>2203.9597167969</ele>
        <time>2011-08-20T07:51:35Z</time>
      </trkpt>
      <trkpt lat="42.69144" lon="1.3992">
        <ele>2206.3630371094</ele>
        <time>2011-08-20T07:51:42Z</time>
      </trkpt>
      <trkpt lat="42.69145" lon="1.39913">
        <ele>2207.8051757812</ele>
        <time>2011-08-20T07:51:49Z</time>
      </trkpt>
      <trkpt lat="42.69146" lon="1.39904">
        <ele>2207.3244628906</ele>
        <time>2011-08-20T07:51:55Z</time>
      </trkpt>
      <trkpt lat="42.69146" lon="1.39902">
        <ele>2207.8051757812</ele>
        <time>2011-08-20T07:51:57Z</time>
      </trkpt>
      <trkpt lat="42.69144" lon="1.39893">
        <ele>2209.2470703125</ele>
        <time>2011-08-20T07:52:04Z</time>
      </trkpt>
      <trkpt lat="42.69143" lon="1.39887">
        <ele>2210.6889648438</ele>
        <time>2011-08-20T07:52:10Z</time>
      </trkpt>
      <trkpt lat="42.69143" lon="1.39884">
        <ele>2212.130859375</ele>
        <time>2011-08-20T07:52:15Z</time>
      </trkpt>
      <trkpt lat="42.69141" lon="1.3988">
        <ele>2212.6115722656</ele>
        <time>2011-08-20T07:52:19Z</time>
      </trkpt>
      <trkpt lat="42.6914" lon="1.39872">
        <ele>2213.0922851562</ele>
        <time>2011-08-20T07:52:25Z</time>
      </trkpt>
      <trkpt lat="42.6914" lon="1.39871">
        <ele>2213.5727539062</ele>
        <time>2011-08-20T07:52:26Z</time>
      </trkpt>
      <trkpt lat="42.69139" lon="1.39864">
        <ele>2214.5341796875</ele>
        <time>2011-08-20T07:52:32Z</time>
      </trkpt>
      <trkpt lat="42.69138" lon="1.39855">
        <ele>2217.41796875</ele>
        <time>2011-08-20T07:52:40Z</time>
      </trkpt>
      <trkpt lat="42.69138" lon="1.39851">
        <ele>2219.3408203125</ele>
        <time>2011-08-20T07:52:46Z</time>
      </trkpt>
      <trkpt lat="42.69138" lon="1.39848">
        <ele>2220.3022460938</ele>
        <time>2011-08-20T07:52:51Z</time>
      </trkpt>
      <trkpt lat="42.69136" lon="1.39844">
        <ele>2221.744140625</ele>
        <time>2011-08-20T07:52:56Z</time>
      </trkpt>
      <trkpt lat="42.69135" lon="1.3984">
        <ele>2223.1862792969</ele>
        <time>2011-08-20T07:53:01Z</time>
      </trkpt>
      <trkpt lat="42.69135" lon="1.39832">
        <ele>2225.1086425781</ele>
        <time>2011-08-20T07:53:09Z</time>
      </trkpt>
      <trkpt lat="42.69132" lon="1.39828">
        <ele>2227.0314941406</ele>
        <time>2011-08-20T07:53:15Z</time>
      </trkpt>
      <trkpt lat="42.6913" lon="1.39821">
        <ele>2227.9926757812</ele>
        <time>2011-08-20T07:53:23Z</time>
      </trkpt>
      <trkpt lat="42.69129" lon="1.39817">
        <ele>2229.4345703125</ele>
        <time>2011-08-20T07:53:28Z</time>
      </trkpt>
      <trkpt lat="42.69128" lon="1.39814">
        <ele>2230.3959960938</ele>
        <time>2011-08-20T07:53:33Z</time>
      </trkpt>
      <trkpt lat="42.69125" lon="1.3981">
        <ele>2232.3186035156</ele>
        <time>2011-08-20T07:53:40Z</time>
      </trkpt>
      <trkpt lat="42.69124" lon="1.39803">
        <ele>2233.7604980469</ele>
        <time>2011-08-20T07:53:47Z</time>
      </trkpt>
      <trkpt lat="42.69123" lon="1.39797">
        <ele>2234.2412109375</ele>
        <time>2011-08-20T07:53:52Z</time>
      </trkpt>
      <trkpt lat="42.69123" lon="1.39793">
        <ele>2235.6831054688</ele>
        <time>2011-08-20T07:53:59Z</time>
      </trkpt>
      <trkpt lat="42.69124" lon="1.3979">
        <ele>2237.1252441406</ele>
        <time>2011-08-20T07:54:04Z</time>
      </trkpt>
      <trkpt lat="42.69124" lon="1.39786">
        <ele>2238.5673828125</ele>
        <time>2011-08-20T07:54:09Z</time>
      </trkpt>
      <trkpt lat="42.69123" lon="1.39781">
        <ele>2240.0092773438</ele>
        <time>2011-08-20T07:54:16Z</time>
      </trkpt>
      <trkpt lat="42.69125" lon="1.39778">
        <ele>2240.9704589844</ele>
        <time>2011-08-20T07:54:21Z</time>
      </trkpt>
      <trkpt lat="42.69125" lon="1.39771">
        <ele>2241.451171875</ele>
        <time>2011-08-20T07:54:28Z</time>
      </trkpt>
      <trkpt lat="42.69124" lon="1.39766">
        <ele>2241.9318847656</ele>
        <time>2011-08-20T07:54:33Z</time>
      </trkpt>
      <trkpt lat="42.69124" lon="1.39761">
        <ele>2242.8930664062</ele>
        <time>2011-08-20T07:54:39Z</time>
      </trkpt>
      <trkpt lat="42.69125" lon="1.39757">
        <ele>2243.8544921875</ele>
        <time>2011-08-20T07:54:43Z</time>
      </trkpt>
      <trkpt lat="42.69126" lon="1.39751">
        <ele>2244.8156738281</ele>
        <time>2011-08-20T07:54:50Z</time>
      </trkpt>
      <trkpt lat="42.69127" lon="1.39746">
        <ele>2245.2963867188</ele>
        <time>2011-08-20T07:54:56Z</time>
      </trkpt>
      <trkpt lat="42.69127" lon="1.39741">
        <ele>2245.2963867188</ele>
        <time>2011-08-20T07:55:01Z</time>
      </trkpt>
      <trkpt lat="42.69129" lon="1.39734">
        <ele>2245.2963867188</ele>
        <time>2011-08-20T07:55:07Z</time>
      </trkpt>
      <trkpt lat="42.6913" lon="1.39726">
        <ele>2244.3349609375</ele>
        <time>2011-08-20T07:55:14Z</time>
      </trkpt>
      <trkpt lat="42.6913" lon="1.39722">
        <ele>2243.8544921875</ele>
        <time>2011-08-20T07:55:19Z</time>
      </trkpt>
      <trkpt lat="42.6913" lon="1.39714">
        <ele>2242.8930664062</ele>
        <time>2011-08-20T07:55:25Z</time>
      </trkpt>
      <trkpt lat="42.6913" lon="1.39708">
        <ele>2242.4125976562</ele>
        <time>2011-08-20T07:55:28Z</time>
      </trkpt>
      <trkpt lat="42.69128" lon="1.39699">
        <ele>2241.451171875</ele>
        <time>2011-08-20T07:55:32Z</time>
      </trkpt>
      <trkpt lat="42.69128" lon="1.3969">
        <ele>2241.451171875</ele>
        <time>2011-08-20T07:55:37Z</time>
      </trkpt>
      <trkpt lat="42.69125" lon="1.3968">
        <ele>2241.451171875</ele>
        <time>2011-08-20T07:55:44Z</time>
      </trkpt>
      <trkpt lat="42.69125" lon="1.39679">
        <ele>2241.9318847656</ele>
        <time>2011-08-20T07:55:45Z</time>
      </trkpt>
      <trkpt lat="42.6912" lon="1.39673">
        <ele>2247.2189941406</ele>
        <time>2011-08-20T07:55:53Z</time>
      </trkpt>
      <trkpt lat="42.6912" lon="1.39672">
        <ele>2248.6608886719</ele>
        <time>2011-08-20T07:55:59Z</time>
      </trkpt>
      <trkpt lat="42.69121" lon="1.39672">
        <ele>2246.2578125</ele>
        <time>2011-08-20T07:56:12Z</time>
      </trkpt>
      <trkpt lat="42.69122" lon="1.39674">
        <ele>2248.6608886719</ele>
        <time>2011-08-20T07:56:22Z</time>
      </trkpt>
      <trkpt lat="42.69121" lon="1.39672">
        <ele>2245.7770996094</ele>
        <time>2011-08-20T07:56:40Z</time>
      </trkpt>
      <trkpt lat="42.6912" lon="1.39669">
        <ele>2244.3349609375</ele>
        <time>2011-08-20T07:56:49Z</time>
      </trkpt>
      <trkpt lat="42.69117" lon="1.39667">
        <ele>2248.1801757812</ele>
        <time>2011-08-20T07:57:16Z</time>
      </trkpt>
      <trkpt lat="42.69115" lon="1.39661">
        <ele>2247.6997070312</ele>
        <time>2011-08-20T07:57:22Z</time>
      </trkpt>
      <trkpt lat="42.69115" lon="1.39659">
        <ele>2247.2189941406</ele>
        <time>2011-08-20T07:57:28Z</time>
      </trkpt>
      <trkpt lat="42.69116" lon="1.39653">
        <ele>2246.2578125</ele>
        <time>2011-08-20T07:57:33Z</time>
      </trkpt>
      <trkpt lat="42.69115" lon="1.39649">
        <ele>2245.2963867188</ele>
        <time>2011-08-20T07:57:35Z</time>
      </trkpt>
      <trkpt lat="42.69114" lon="1.39643">
        <ele>2244.3349609375</ele>
        <time>2011-08-20T07:57:39Z</time>
      </trkpt>
      <trkpt lat="42.69116" lon="1.39634">
        <ele>2242.4125976562</ele>
        <time>2011-08-20T07:57:45Z</time>
      </trkpt>
      <trkpt lat="42.6912" lon="1.39626">
        <ele>2240.9704589844</ele>
        <time>2011-08-20T07:57:50Z</time>
      </trkpt>
      <trkpt lat="42.69122" lon="1.39615">
        <ele>2238.0866699219</ele>
        <time>2011-08-20T07:57:55Z</time>
      </trkpt>
      <trkpt lat="42.69122" lon="1.39613">
        <ele>2238.0866699219</ele>
        <time>2011-08-20T07:57:56Z</time>
      </trkpt>
      <trkpt lat="42.69123" lon="1.39603">
        <ele>2236.1640625</ele>
        <time>2011-08-20T07:58:01Z</time>
      </trkpt>
      <trkpt lat="42.6913" lon="1.39598">
        <ele>2236.64453125</ele>
        <time>2011-08-20T07:58:06Z</time>
      </trkpt>
      <trkpt lat="42.69131" lon="1.39591">
        <ele>2235.6831054688</ele>
        <time>2011-08-20T07:58:11Z</time>
      </trkpt>
      <trkpt lat="42.69131" lon="1.3959">
        <ele>2235.6831054688</ele>
        <time>2011-08-20T07:58:12Z</time>
      </trkpt>
      <trkpt lat="42.69128" lon="1.39584">
        <ele>2234.7219238281</ele>
        <time>2011-08-20T07:58:16Z</time>
      </trkpt>
      <trkpt lat="42.69127" lon="1.39581">
        <ele>2234.7219238281</ele>
        <time>2011-08-20T07:58:18Z</time>
      </trkpt>
      <trkpt lat="42.69123" lon="1.39573">
        <ele>2235.2023925781</ele>
        <time>2011-08-20T07:58:25Z</time>
      </trkpt>
      <trkpt lat="42.69118" lon="1.39566">
        <ele>2234.7219238281</ele>
        <time>2011-08-20T07:58:32Z</time>
      </trkpt>
      <trkpt lat="42.69116" lon="1.3956">
        <ele>2235.6831054688</ele>
        <time>2011-08-20T07:58:39Z</time>
      </trkpt>
      <trkpt lat="42.6911" lon="1.39554">
        <ele>2236.1640625</ele>
        <time>2011-08-20T07:58:45Z</time>
      </trkpt>
      <trkpt lat="42.69107" lon="1.39548">
        <ele>2237.1252441406</ele>
        <time>2011-08-20T07:58:51Z</time>
      </trkpt>
      <trkpt lat="42.69107" lon="1.39542">
        <ele>2238.5673828125</ele>
        <time>2011-08-20T07:58:57Z</time>
      </trkpt>
      <trkpt lat="42.69107" lon="1.39538">
        <ele>2239.5285644531</ele>
        <time>2011-08-20T07:59:02Z</time>
      </trkpt>
      <trkpt lat="42.69106" lon="1.39533">
        <ele>2239.5285644531</ele>
        <time>2011-08-20T07:59:08Z</time>
      </trkpt>
      <trkpt lat="42.69104" lon="1.39528">
        <ele>2240.4897460938</ele>
        <time>2011-08-20T07:59:14Z</time>
      </trkpt>
      <trkpt lat="42.69101" lon="1.39521">
        <ele>2241.451171875</ele>
        <time>2011-08-20T07:59:20Z</time>
      </trkpt>
      <trkpt lat="42.69098" lon="1.39516">
        <ele>2241.451171875</ele>
        <time>2011-08-20T07:59:25Z</time>
      </trkpt>
      <trkpt lat="42.69094" lon="1.3952">
        <ele>2240.9704589844</ele>
        <time>2011-08-20T07:59:31Z</time>
      </trkpt>
      <trkpt lat="42.69091" lon="1.39522">
        <ele>2241.451171875</ele>
        <time>2011-08-20T07:59:34Z</time>
      </trkpt>
      <trkpt lat="42.69088" lon="1.39519">
        <ele>2242.8930664062</ele>
        <time>2011-08-20T07:59:40Z</time>
      </trkpt>
      <trkpt lat="42.69085" lon="1.39513">
        <ele>2243.8544921875</ele>
        <time>2011-08-20T07:59:46Z</time>
      </trkpt>
      <trkpt lat="42.6908" lon="1.39515">
        <ele>2244.8156738281</ele>
        <time>2011-08-20T07:59:51Z</time>
      </trkpt>
      <trkpt lat="42.69077" lon="1.39511">
        <ele>2246.2578125</ele>
        <time>2011-08-20T07:59:58Z</time>
      </trkpt>
      <trkpt lat="42.69073" lon="1.39511">
        <ele>2246.73828125</ele>
        <time>2011-08-20T08:00:03Z</time>
      </trkpt>
      <trkpt lat="42.6907" lon="1.39514">
        <ele>2247.6997070312</ele>
        <time>2011-08-20T08:00:07Z</time>
      </trkpt>
      <trkpt lat="42.69066" lon="1.39515">
        <ele>2248.6608886719</ele>
        <time>2011-08-20T08:00:12Z</time>
      </trkpt>
      <trkpt lat="42.69064" lon="1.39511">
        <ele>2250.1030273438</ele>
        <time>2011-08-20T08:00:18Z</time>
      </trkpt>
      <trkpt lat="42.69062" lon="1.3951">
        <ele>2252.0256347656</ele>
        <time>2011-08-20T08:00:25Z</time>
      </trkpt>
      <trkpt lat="42.69061" lon="1.39504">
        <ele>2253.4677734375</ele>
        <time>2011-08-20T08:00:32Z</time>
      </trkpt>
      <trkpt lat="42.69059" lon="1.39497">
        <ele>2253.9484863281</ele>
        <time>2011-08-20T08:00:38Z</time>
      </trkpt>
      <trkpt lat="42.69057" lon="1.39493">
        <ele>2255.3903808594</ele>
        <time>2011-08-20T08:00:44Z</time>
      </trkpt>
      <trkpt lat="42.69054" lon="1.3949">
        <ele>2256.3515625</ele>
        <time>2011-08-20T08:00:50Z</time>
      </trkpt>
      <trkpt lat="42.69052" lon="1.3949">
        <ele>2257.3129882812</ele>
        <time>2011-08-20T08:00:55Z</time>
      </trkpt>
      <trkpt lat="42.69051" lon="1.39493">
        <ele>2258.2741699219</ele>
        <time>2011-08-20T08:01:00Z</time>
      </trkpt>
      <trkpt lat="42.69048" lon="1.39492">
        <ele>2259.2355957031</ele>
        <time>2011-08-20T08:01:07Z</time>
      </trkpt>
      <trkpt lat="42.69046" lon="1.39496">
        <ele>2259.7160644531</ele>
        <time>2011-08-20T08:01:13Z</time>
      </trkpt>
      <trkpt lat="42.69045" lon="1.39503">
        <ele>2259.7160644531</ele>
        <time>2011-08-20T08:01:19Z</time>
      </trkpt>
      <trkpt lat="42.69041" lon="1.39509">
        <ele>2261.158203125</ele>
        <time>2011-08-20T08:01:26Z</time>
      </trkpt>
      <trkpt lat="42.69036" lon="1.39509">
        <ele>2261.6389160156</ele>
        <time>2011-08-20T08:01:32Z</time>
      </trkpt>
      <trkpt lat="42.69032" lon="1.39509">
        <ele>2262.6000976562</ele>
        <time>2011-08-20T08:01:38Z</time>
      </trkpt>
      <trkpt lat="42.6903" lon="1.39505">
        <ele>2263.5612792969</ele>
        <time>2011-08-20T08:01:44Z</time>
      </trkpt>
      <trkpt lat="42.69028" lon="1.39501">
        <ele>2265.0034179688</ele>
        <time>2011-08-20T08:01:50Z</time>
      </trkpt>
      <trkpt lat="42.69026" lon="1.39498">
        <ele>2265.9645996094</ele>
        <time>2011-08-20T08:01:55Z</time>
      </trkpt>
      <trkpt lat="42.69021" lon="1.39501">
        <ele>2266.9260253906</ele>
        <time>2011-08-20T08:02:02Z</time>
      </trkpt>
      <trkpt lat="42.69018" lon="1.395">
        <ele>2267.8872070312</ele>
        <time>2011-08-20T08:02:07Z</time>
      </trkpt>
      <trkpt lat="42.69014" lon="1.395">
        <ele>2268.8488769531</ele>
        <time>2011-08-20T08:02:13Z</time>
      </trkpt>
      <trkpt lat="42.69011" lon="1.39503">
        <ele>2269.3295898438</ele>
        <time>2011-08-20T08:02:19Z</time>
      </trkpt>
      <trkpt lat="42.6901" lon="1.3951">
        <ele>2270.771484375</ele>
        <time>2011-08-20T08:02:27Z</time>
      </trkpt>
      <trkpt lat="42.6901" lon="1.39514">
        <ele>2271.251953125</ele>
        <time>2011-08-20T08:02:34Z</time>
      </trkpt>
      <trkpt lat="42.69007" lon="1.39517">
        <ele>2271.7326660156</ele>
        <time>2011-08-20T08:02:39Z</time>
      </trkpt>
      <trkpt lat="42.69003" lon="1.39519">
        <ele>2273.1748046875</ele>
        <time>2011-08-20T08:02:46Z</time>
      </trkpt>
      <trkpt lat="42.68999" lon="1.39523">
        <ele>2275.0971679688</ele>
        <time>2011-08-20T08:02:53Z</time>
      </trkpt>
      <trkpt lat="42.68997" lon="1.39527">
        <ele>2276.05859375</ele>
        <time>2011-08-20T08:02:59Z</time>
      </trkpt>
      <trkpt lat="42.68996" lon="1.39531">
        <ele>2277.9812011719</ele>
        <time>2011-08-20T08:03:06Z</time>
      </trkpt>
      <trkpt lat="42.68995" lon="1.39534">
        <ele>2278.9423828125</ele>
        <time>2011-08-20T08:03:11Z</time>
      </trkpt>
      <trkpt lat="42.68996" lon="1.39539">
        <ele>2279.9038085938</ele>
        <time>2011-08-20T08:03:16Z</time>
      </trkpt>
      <trkpt lat="42.68994" lon="1.39541">
        <ele>2280.865234375</ele>
        <time>2011-08-20T08:03:23Z</time>
      </trkpt>
      <trkpt lat="42.68992" lon="1.39543">
        <ele>2282.7875976562</ele>
        <time>2011-08-20T08:03:29Z</time>
      </trkpt>
      <trkpt lat="42.6899" lon="1.39543">
        <ele>2284.2299804688</ele>
        <time>2011-08-20T08:03:34Z</time>
      </trkpt>
      <trkpt lat="42.68988" lon="1.39541">
        <ele>2285.1911621094</ele>
        <time>2011-08-20T08:03:40Z</time>
      </trkpt>
      <trkpt lat="42.68986" lon="1.39541">
        <ele>2285.671875</ele>
        <time>2011-08-20T08:03:45Z</time>
      </trkpt>
      <trkpt lat="42.68983" lon="1.39539">
        <ele>2287.5944824219</ele>
        <time>2011-08-20T08:03:53Z</time>
      </trkpt>
      <trkpt lat="42.6898" lon="1.39537">
        <ele>2289.0363769531</ele>
        <time>2011-08-20T08:03:59Z</time>
      </trkpt>
      <trkpt lat="42.68975" lon="1.39538">
        <ele>2290.958984375</ele>
        <time>2011-08-20T08:04:06Z</time>
      </trkpt>
      <trkpt lat="42.68969" lon="1.39538">
        <ele>2291.9204101562</ele>
        <time>2011-08-20T08:04:12Z</time>
      </trkpt>
      <trkpt lat="42.68965" lon="1.39537">
        <ele>2292.4011230469</ele>
        <time>2011-08-20T08:04:18Z</time>
      </trkpt>
      <trkpt lat="42.68961" lon="1.39534">
        <ele>2293.3623046875</ele>
        <time>2011-08-20T08:04:23Z</time>
      </trkpt>
      <trkpt lat="42.68957" lon="1.39534">
        <ele>2294.3234863281</ele>
        <time>2011-08-20T08:04:29Z</time>
      </trkpt>
      <trkpt lat="42.68955" lon="1.39536">
        <ele>2294.8041992188</ele>
        <time>2011-08-20T08:04:33Z</time>
      </trkpt>
      <trkpt lat="42.68951" lon="1.39536">
        <ele>2295.2849121094</ele>
        <time>2011-08-20T08:04:38Z</time>
      </trkpt>
      <trkpt lat="42.68948" lon="1.39536">
        <ele>2295.2849121094</ele>
        <time>2011-08-20T08:04:43Z</time>
      </trkpt>
      <trkpt lat="42.68949" lon="1.39542">
        <ele>2296.7268066406</ele>
        <time>2011-08-20T08:04:49Z</time>
      </trkpt>
      <trkpt lat="42.68947" lon="1.39548">
        <ele>2297.2075195312</ele>
        <time>2011-08-20T08:04:55Z</time>
      </trkpt>
      <trkpt lat="42.68946" lon="1.39553">
        <ele>2298.1687011719</ele>
        <time>2011-08-20T08:05:00Z</time>
      </trkpt>
      <trkpt lat="42.68943" lon="1.39556">
        <ele>2299.6108398438</ele>
        <time>2011-08-20T08:05:06Z</time>
      </trkpt>
      <trkpt lat="42.68942" lon="1.39559">
        <ele>2301.5336914062</ele>
        <time>2011-08-20T08:05:12Z</time>
      </trkpt>
      <trkpt lat="42.68941" lon="1.39564">
        <ele>2302.4948730469</ele>
        <time>2011-08-20T08:05:18Z</time>
      </trkpt>
      <trkpt lat="42.68938" lon="1.39567">
        <ele>2303.4562988281</ele>
        <time>2011-08-20T08:05:24Z</time>
      </trkpt>
      <trkpt lat="42.68933" lon="1.39563">
        <ele>2304.4174804688</ele>
        <time>2011-08-20T08:05:30Z</time>
      </trkpt>
      <trkpt lat="42.68931" lon="1.39561">
        <ele>2305.37890625</ele>
        <time>2011-08-20T08:05:35Z</time>
      </trkpt>
      <trkpt lat="42.6893" lon="1.39558">
        <ele>2306.3400878906</ele>
        <time>2011-08-20T08:05:39Z</time>
      </trkpt>
      <trkpt lat="42.68928" lon="1.39555">
        <ele>2307.7822265625</ele>
        <time>2011-08-20T08:05:45Z</time>
      </trkpt>
      <trkpt lat="42.68925" lon="1.39552">
        <ele>2308.7434082031</ele>
        <time>2011-08-20T08:05:50Z</time>
      </trkpt>
      <trkpt lat="42.68921" lon="1.3955">
        <ele>2309.7045898438</ele>
        <time>2011-08-20T08:05:56Z</time>
      </trkpt>
      <trkpt lat="42.68917" lon="1.39548">
        <ele>2310.666015625</ele>
        <time>2011-08-20T08:06:01Z</time>
      </trkpt>
      <trkpt lat="42.68915" lon="1.39549">
        <ele>2311.6274414062</ele>
        <time>2011-08-20T08:06:06Z</time>
      </trkpt>
      <trkpt lat="42.68915" lon="1.39554">
        <ele>2313.0693359375</ele>
        <time>2011-08-20T08:06:12Z</time>
      </trkpt>
      <trkpt lat="42.68913" lon="1.39558">
        <ele>2313.0693359375</ele>
        <time>2011-08-20T08:06:17Z</time>
      </trkpt>
      <trkpt lat="42.68912" lon="1.39563">
        <ele>2314.0305175781</ele>
        <time>2011-08-20T08:06:22Z</time>
      </trkpt>
      <trkpt lat="42.6891" lon="1.39565">
        <ele>2314.9919433594</ele>
        <time>2011-08-20T08:06:26Z</time>
      </trkpt>
      <trkpt lat="42.68906" lon="1.39561">
        <ele>2315.953125</ele>
        <time>2011-08-20T08:06:32Z</time>
      </trkpt>
      <trkpt lat="42.68904" lon="1.3956">
        <ele>2317.8759765625</ele>
        <time>2011-08-20T08:06:36Z</time>
      </trkpt>
      <trkpt lat="42.68901" lon="1.39562">
        <ele>2318.8374023438</ele>
        <time>2011-08-20T08:06:41Z</time>
      </trkpt>
      <trkpt lat="42.68899" lon="1.39561">
        <ele>2319.7985839844</ele>
        <time>2011-08-20T08:06:46Z</time>
      </trkpt>
      <trkpt lat="42.68898" lon="1.39558">
        <ele>2320.279296875</ele>
        <time>2011-08-20T08:06:50Z</time>
      </trkpt>
      <trkpt lat="42.68895" lon="1.39557">
        <ele>2320.7600097656</ele>
        <time>2011-08-20T08:06:55Z</time>
      </trkpt>
      <trkpt lat="42.68893" lon="1.39556">
        <ele>2320.7600097656</ele>
        <time>2011-08-20T08:07:01Z</time>
      </trkpt>
      <trkpt lat="42.68892" lon="1.3956">
        <ele>2321.7211914062</ele>
        <time>2011-08-20T08:07:09Z</time>
      </trkpt>
      <trkpt lat="42.6889" lon="1.39565">
        <ele>2322.6826171875</ele>
        <time>2011-08-20T08:07:15Z</time>
      </trkpt>
      <trkpt lat="42.68888" lon="1.39567">
        <ele>2322.6826171875</ele>
        <time>2011-08-20T08:07:19Z</time>
      </trkpt>
      <trkpt lat="42.68884" lon="1.39569">
        <ele>2323.6437988281</ele>
        <time>2011-08-20T08:07:26Z</time>
      </trkpt>
      <trkpt lat="42.6888" lon="1.39565">
        <ele>2325.0856933594</ele>
        <time>2011-08-20T08:07:32Z</time>
      </trkpt>
      <trkpt lat="42.68878" lon="1.39565">
        <ele>2326.0471191406</ele>
        <time>2011-08-20T08:07:37Z</time>
      </trkpt>
      <trkpt lat="42.68876" lon="1.39564">
        <ele>2327.0085449219</ele>
        <time>2011-08-20T08:07:43Z</time>
      </trkpt>
      <trkpt lat="42.68873" lon="1.39565">
        <ele>2327.9697265625</ele>
        <time>2011-08-20T08:07:52Z</time>
      </trkpt>
      <trkpt lat="42.68869" lon="1.39564">
        <ele>2329.4116210938</ele>
        <time>2011-08-20T08:07:58Z</time>
      </trkpt>
      <trkpt lat="42.68865" lon="1.39566">
        <ele>2330.8537597656</ele>
        <time>2011-08-20T08:08:04Z</time>
      </trkpt>
      <trkpt lat="42.68864" lon="1.3957">
        <ele>2332.2958984375</ele>
        <time>2011-08-20T08:08:09Z</time>
      </trkpt>
      <trkpt lat="42.68861" lon="1.39574">
        <ele>2333.7377929688</ele>
        <time>2011-08-20T08:08:15Z</time>
      </trkpt>
      <trkpt lat="42.68859" lon="1.39575">
        <ele>2334.69921875</ele>
        <time>2011-08-20T08:08:19Z</time>
      </trkpt>
      <trkpt lat="42.68857" lon="1.39579">
        <ele>2335.1796875</ele>
        <time>2011-08-20T08:08:23Z</time>
      </trkpt>
      <trkpt lat="42.68853" lon="1.39581">
        <ele>2336.6215820312</ele>
        <time>2011-08-20T08:08:29Z</time>
      </trkpt>
      <trkpt lat="42.68852" lon="1.39584">
        <ele>2337.5830078125</ele>
        <time>2011-08-20T08:08:34Z</time>
      </trkpt>
      <trkpt lat="42.68851" lon="1.39588">
        <ele>2339.0249023438</ele>
        <time>2011-08-20T08:08:39Z</time>
      </trkpt>
      <trkpt lat="42.68849" lon="1.39594">
        <ele>2341.4282226562</ele>
        <time>2011-08-20T08:08:46Z</time>
      </trkpt>
      <trkpt lat="42.68845" lon="1.39596">
        <ele>2342.8701171875</ele>
        <time>2011-08-20T08:08:52Z</time>
      </trkpt>
      <trkpt lat="42.68842" lon="1.39597">
        <ele>2344.7927246094</ele>
        <time>2011-08-20T08:08:57Z</time>
      </trkpt>
      <trkpt lat="42.6884" lon="1.39595">
        <ele>2346.2348632812</ele>
        <time>2011-08-20T08:09:02Z</time>
      </trkpt>
      <trkpt lat="42.68837" lon="1.39594">
        <ele>2347.6767578125</ele>
        <time>2011-08-20T08:09:07Z</time>
      </trkpt>
      <trkpt lat="42.68835" lon="1.39593">
        <ele>2349.1188964844</ele>
        <time>2011-08-20T08:09:14Z</time>
      </trkpt>
      <trkpt lat="42.68832" lon="1.39592">
        <ele>2350.0803222656</ele>
        <time>2011-08-20T08:09:19Z</time>
      </trkpt>
      <trkpt lat="42.6883" lon="1.39592">
        <ele>2351.0415039062</ele>
        <time>2011-08-20T08:09:25Z</time>
      </trkpt>
      <trkpt lat="42.68828" lon="1.39594">
        <ele>2352.4833984375</ele>
        <time>2011-08-20T08:09:31Z</time>
      </trkpt>
      <trkpt lat="42.68822" lon="1.39593">
        <ele>2352.4833984375</ele>
        <time>2011-08-20T08:09:37Z</time>
      </trkpt>
      <trkpt lat="42.68818" lon="1.39593">
        <ele>2351.5222167969</ele>
        <time>2011-08-20T08:09:41Z</time>
      </trkpt>
      <trkpt lat="42.68811" lon="1.39593">
        <ele>2349.1188964844</ele>
        <time>2011-08-20T08:09:48Z</time>
      </trkpt>
      <trkpt lat="42.68803" lon="1.39594">
        <ele>2349.599609375</ele>
        <time>2011-08-20T08:09:55Z</time>
      </trkpt>
      <trkpt lat="42.68801" lon="1.39594">
        <ele>2350.0803222656</ele>
        <time>2011-08-20T08:09:57Z</time>
      </trkpt>
      <trkpt lat="42.68797" lon="1.39588">
        <ele>2350.5607910156</ele>
        <time>2011-08-20T08:10:04Z</time>
      </trkpt>
      <trkpt lat="42.68792" lon="1.39588">
        <ele>2351.5222167969</ele>
        <time>2011-08-20T08:10:11Z</time>
      </trkpt>
      <trkpt lat="42.68789" lon="1.39594">
        <ele>2352.4833984375</ele>
        <time>2011-08-20T08:10:18Z</time>
      </trkpt>
      <trkpt lat="42.68786" lon="1.39595">
        <ele>2353.9255371094</ele>
        <time>2011-08-20T08:10:23Z</time>
      </trkpt>
      <trkpt lat="42.68782" lon="1.39594">
        <ele>2354.88671875</ele>
        <time>2011-08-20T08:10:28Z</time>
      </trkpt>
      <trkpt lat="42.6878" lon="1.39589">
        <ele>2355.8479003906</ele>
        <time>2011-08-20T08:10:34Z</time>
      </trkpt>
      <trkpt lat="42.6878" lon="1.3959">
        <ele>2354.88671875</ele>
        <time>2011-08-20T08:10:46Z</time>
      </trkpt>
      <trkpt lat="42.68778" lon="1.3959">
        <ele>2356.3286132812</ele>
        <time>2011-08-20T08:10:52Z</time>
      </trkpt>
      <trkpt lat="42.68777" lon="1.39594">
        <ele>2357.7707519531</ele>
        <time>2011-08-20T08:10:58Z</time>
      </trkpt>
      <trkpt lat="42.68776" lon="1.39598">
        <ele>2358.2512207031</ele>
        <time>2011-08-20T08:11:03Z</time>
      </trkpt>
      <trkpt lat="42.68774" lon="1.39603">
        <ele>2358.2512207031</ele>
        <time>2011-08-20T08:11:08Z</time>
      </trkpt>
      <trkpt lat="42.68771" lon="1.39604">
        <ele>2359.2126464844</ele>
        <time>2011-08-20T08:11:14Z</time>
      </trkpt>
      <trkpt lat="42.68768" lon="1.39604">
        <ele>2360.173828125</ele>
        <time>2011-08-20T08:11:19Z</time>
      </trkpt>
      <trkpt lat="42.68764" lon="1.39607">
        <ele>2361.6159667969</ele>
        <time>2011-08-20T08:11:25Z</time>
      </trkpt>
      <trkpt lat="42.68761" lon="1.39606">
        <ele>2363.0578613281</ele>
        <time>2011-08-20T08:11:30Z</time>
      </trkpt>
      <trkpt lat="42.68755" lon="1.39605">
        <ele>2364.9807128906</ele>
        <time>2011-08-20T08:11:37Z</time>
      </trkpt>
      <trkpt lat="42.6875" lon="1.39604">
        <ele>2365.9418945312</ele>
        <time>2011-08-20T08:11:43Z</time>
      </trkpt>
      <trkpt lat="42.68746" lon="1.39605">
        <ele>2366.4226074219</ele>
        <time>2011-08-20T08:11:49Z</time>
      </trkpt>
      <trkpt lat="42.68742" lon="1.39601">
        <ele>2366.4226074219</ele>
        <time>2011-08-20T08:11:55Z</time>
      </trkpt>
      <trkpt lat="42.6874" lon="1.39604">
        <ele>2368.3452148438</ele>
        <time>2011-08-20T08:12:01Z</time>
      </trkpt>
      <trkpt lat="42.68739" lon="1.39608">
        <ele>2371.2290039062</ele>
        <time>2011-08-20T08:12:07Z</time>
      </trkpt>
      <trkpt lat="42.68736" lon="1.39607">
        <ele>2371.7097167969</ele>
        <time>2011-08-20T08:12:13Z</time>
      </trkpt>
      <trkpt lat="42.68732" lon="1.39606">
        <ele>2371.7097167969</ele>
        <time>2011-08-20T08:12:18Z</time>
      </trkpt>
      <trkpt lat="42.68726" lon="1.39607">
        <ele>2372.1904296875</ele>
        <time>2011-08-20T08:12:25Z</time>
      </trkpt>
      <trkpt lat="42.68724" lon="1.39608">
        <ele>2372.6711425781</ele>
        <time>2011-08-20T08:12:30Z</time>
      </trkpt>
      <trkpt lat="42.6872" lon="1.39607">
        <ele>2374.59375</ele>
        <time>2011-08-20T08:12:36Z</time>
      </trkpt>
      <trkpt lat="42.68718" lon="1.39608">
        <ele>2376.0356445312</ele>
        <time>2011-08-20T08:12:42Z</time>
      </trkpt>
      <trkpt lat="42.68715" lon="1.3961">
        <ele>2376.9970703125</ele>
        <time>2011-08-20T08:12:48Z</time>
      </trkpt>
      <trkpt lat="42.68715" lon="1.39614">
        <ele>2377.9582519531</ele>
        <time>2011-08-20T08:12:53Z</time>
      </trkpt>
      <trkpt lat="42.68712" lon="1.39617">
        <ele>2378.4389648438</ele>
        <time>2011-08-20T08:12:58Z</time>
      </trkpt>
      <trkpt lat="42.6871" lon="1.3962">
        <ele>2379.4001464844</ele>
        <time>2011-08-20T08:13:03Z</time>
      </trkpt>
      <trkpt lat="42.68707" lon="1.3962">
        <ele>2381.3229980469</ele>
        <time>2011-08-20T08:13:08Z</time>
      </trkpt>
      <trkpt lat="42.68703" lon="1.39614">
        <ele>2382.7648925781</ele>
        <time>2011-08-20T08:13:15Z</time>
      </trkpt>
      <trkpt lat="42.687" lon="1.39614">
        <ele>2383.7263183594</ele>
        <time>2011-08-20T08:13:21Z</time>
      </trkpt>
      <trkpt lat="42.68697" lon="1.39616">
        <ele>2385.1682128906</ele>
        <time>2011-08-20T08:13:27Z</time>
      </trkpt>
      <trkpt lat="42.68694" lon="1.39615">
        <ele>2387.5715332031</ele>
        <time>2011-08-20T08:13:33Z</time>
      </trkpt>
      <trkpt lat="42.6869" lon="1.39612">
        <ele>2388.5329589844</ele>
        <time>2011-08-20T08:13:40Z</time>
      </trkpt>
      <trkpt lat="42.68688" lon="1.39609">
        <ele>2389.0134277344</ele>
        <time>2011-08-20T08:13:45Z</time>
      </trkpt>
      <trkpt lat="42.68683" lon="1.3961">
        <ele>2389.494140625</ele>
        <time>2011-08-20T08:13:51Z</time>
      </trkpt>
      <trkpt lat="42.68677" lon="1.39611">
        <ele>2388.0522460938</ele>
        <time>2011-08-20T08:13:56Z</time>
      </trkpt>
      <trkpt lat="42.68671" lon="1.39612">
        <ele>2387.0908203125</ele>
        <time>2011-08-20T08:14:01Z</time>
      </trkpt>
      <trkpt lat="42.68664" lon="1.3961">
        <ele>2387.0908203125</ele>
        <time>2011-08-20T08:14:07Z</time>
      </trkpt>
      <trkpt lat="42.68657" lon="1.39605">
        <ele>2386.6101074219</ele>
        <time>2011-08-20T08:14:13Z</time>
      </trkpt>
      <trkpt lat="42.68656" lon="1.39605">
        <ele>2386.6101074219</ele>
        <time>2011-08-20T08:14:14Z</time>
      </trkpt>
      <trkpt lat="42.68652" lon="1.39602">
        <ele>2387.0908203125</ele>
        <time>2011-08-20T08:14:18Z</time>
      </trkpt>
      <trkpt lat="42.68648" lon="1.39595">
        <ele>2387.0908203125</ele>
        <time>2011-08-20T08:14:23Z</time>
      </trkpt>
      <trkpt lat="42.68641" lon="1.39591">
        <ele>2387.5715332031</ele>
        <time>2011-08-20T08:14:30Z</time>
      </trkpt>
      <trkpt lat="42.68637" lon="1.39589">
        <ele>2387.5715332031</ele>
        <time>2011-08-20T08:14:34Z</time>
      </trkpt>
      <trkpt lat="42.68635" lon="1.39589">
        <ele>2388.0522460938</ele>
        <time>2011-08-20T08:14:36Z</time>
      </trkpt>
      <trkpt lat="42.68629" lon="1.39593">
        <ele>2389.494140625</ele>
        <time>2011-08-20T08:14:42Z</time>
      </trkpt>
      <trkpt lat="42.68623" lon="1.39595">
        <ele>2390.4553222656</ele>
        <time>2011-08-20T08:14:48Z</time>
      </trkpt>
      <trkpt lat="42.68621" lon="1.39595">
        <ele>2390.4553222656</ele>
        <time>2011-08-20T08:14:50Z</time>
      </trkpt>
      <trkpt lat="42.68616" lon="1.39592">
        <ele>2390.9360351562</ele>
        <time>2011-08-20T08:14:56Z</time>
      </trkpt>
      <trkpt lat="42.68612" lon="1.39591">
        <ele>2392.3781738281</ele>
        <time>2011-08-20T08:15:02Z</time>
      </trkpt>
      <trkpt lat="42.68608" lon="1.39587">
        <ele>2392.8586425781</ele>
        <time>2011-08-20T08:15:08Z</time>
      </trkpt>
      <trkpt lat="42.68603" lon="1.39584">
        <ele>2391.8974609375</ele>
        <time>2011-08-20T08:15:15Z</time>
      </trkpt>
      <trkpt lat="42.68597" lon="1.39583">
        <ele>2390.9360351562</ele>
        <time>2011-08-20T08:15:21Z</time>
      </trkpt>
      <trkpt lat="42.68593" lon="1.39584">
        <ele>2391.8974609375</ele>
        <time>2011-08-20T08:15:26Z</time>
      </trkpt>
      <trkpt lat="42.68586" lon="1.39582">
        <ele>2392.3781738281</ele>
        <time>2011-08-20T08:15:33Z</time>
      </trkpt>
      <trkpt lat="42.68581" lon="1.39578">
        <ele>2393.3393554688</ele>
        <time>2011-08-20T08:15:39Z</time>
      </trkpt>
      <trkpt lat="42.68575" lon="1.39574">
        <ele>2393.3393554688</ele>
        <time>2011-08-20T08:15:46Z</time>
      </trkpt>
      <trkpt lat="42.68574" lon="1.39573">
        <ele>2393.3393554688</ele>
        <time>2011-08-20T08:15:47Z</time>
      </trkpt>
      <trkpt lat="42.68567" lon="1.39565">
        <ele>2392.8586425781</ele>
        <time>2011-08-20T08:15:54Z</time>
      </trkpt>
      <trkpt lat="42.68557" lon="1.39555">
        <ele>2391.4167480469</ele>
        <time>2011-08-20T08:16:00Z</time>
      </trkpt>
      <trkpt lat="42.68552" lon="1.39549">
        <ele>2391.4167480469</ele>
        <time>2011-08-20T08:16:05Z</time>
      </trkpt>
      <trkpt lat="42.68551" lon="1.39549">
        <ele>2391.4167480469</ele>
        <time>2011-08-20T08:16:06Z</time>
      </trkpt>
      <trkpt lat="42.68546" lon="1.39546">
        <ele>2390.9360351562</ele>
        <time>2011-08-20T08:16:10Z</time>
      </trkpt>
      <trkpt lat="42.68537" lon="1.39543">
        <ele>2390.9360351562</ele>
        <time>2011-08-20T08:16:15Z</time>
      </trkpt>
      <trkpt lat="42.6853" lon="1.39537">
        <ele>2391.8974609375</ele>
        <time>2011-08-20T08:16:20Z</time>
      </trkpt>
      <trkpt lat="42.68525" lon="1.39533">
        <ele>2391.8974609375</ele>
        <time>2011-08-20T08:16:26Z</time>
      </trkpt>
      <trkpt lat="42.68522" lon="1.39531">
        <ele>2391.8974609375</ele>
        <time>2011-08-20T08:16:30Z</time>
      </trkpt>
      <trkpt lat="42.68517" lon="1.39526">
        <ele>2390.4553222656</ele>
        <time>2011-08-20T08:16:35Z</time>
      </trkpt>
      <trkpt lat="42.68507" lon="1.39517">
        <ele>2386.6101074219</ele>
        <time>2011-08-20T08:16:41Z</time>
      </trkpt>
      <trkpt lat="42.68499" lon="1.39514">
        <ele>2386.1296386719</ele>
        <time>2011-08-20T08:16:45Z</time>
      </trkpt>
      <trkpt lat="42.68489" lon="1.39512">
        <ele>2382.7648925781</ele>
        <time>2011-08-20T08:16:51Z</time>
      </trkpt>
      <trkpt lat="42.68484" lon="1.39511">
        <ele>2382.2844238281</ele>
        <time>2011-08-20T08:16:55Z</time>
      </trkpt>
      <trkpt lat="42.68481" lon="1.39511">
        <ele>2381.3229980469</ele>
        <time>2011-08-20T08:16:58Z</time>
      </trkpt>
      <trkpt lat="42.68477" lon="1.39505">
        <ele>2384.6877441406</ele>
        <time>2011-08-20T08:17:05Z</time>
      </trkpt>
      <trkpt lat="42.68473" lon="1.39503">
        <ele>2382.7648925781</ele>
        <time>2011-08-20T08:17:09Z</time>
      </trkpt>
      <trkpt lat="42.68467" lon="1.395">
        <ele>2378.4389648438</ele>
        <time>2011-08-20T08:17:14Z</time>
      </trkpt>
      <trkpt lat="42.68464" lon="1.39499">
        <ele>2376.9970703125</ele>
        <time>2011-08-20T08:17:16Z</time>
      </trkpt>
      <trkpt lat="42.68462" lon="1.39501">
        <ele>2375.5549316406</ele>
        <time>2011-08-20T08:17:19Z</time>
      </trkpt>
      <trkpt lat="42.68454" lon="1.39492">
        <ele>2378.9194335938</ele>
        <time>2011-08-20T08:17:25Z</time>
      </trkpt>
      <trkpt lat="42.68452" lon="1.39491">
        <ele>2379.880859375</ele>
        <time>2011-08-20T08:17:26Z</time>
      </trkpt>
      <trkpt lat="42.68443" lon="1.39484">
        <ele>2381.8037109375</ele>
        <time>2011-08-20T08:17:32Z</time>
      </trkpt>
      <trkpt lat="42.68441" lon="1.39482">
        <ele>2383.7263183594</ele>
        <time>2011-08-20T08:17:36Z</time>
      </trkpt>
      <trkpt lat="42.68438" lon="1.39478">
        <ele>2387.0908203125</ele>
        <time>2011-08-20T08:17:41Z</time>
      </trkpt>
      <trkpt lat="42.68428" lon="1.39471">
        <ele>2389.9748535156</ele>
        <time>2011-08-20T08:17:51Z</time>
      </trkpt>
      <trkpt lat="42.68421" lon="1.39466">
        <ele>2390.4553222656</ele>
        <time>2011-08-20T08:18:03Z</time>
      </trkpt>
      <trkpt lat="42.68412" lon="1.3946">
        <ele>2389.494140625</ele>
        <time>2011-08-20T08:18:08Z</time>
      </trkpt>
      <trkpt lat="42.68368" lon="1.3945">
        <ele>2389.494140625</ele>
        <time>2011-08-20T08:18:55Z</time>
      </trkpt>
      <trkpt lat="42.68367" lon="1.39451">
        <ele>2389.494140625</ele>
        <time>2011-08-20T08:19:00Z</time>
      </trkpt>
      <trkpt lat="42.68365" lon="1.3945">
        <ele>2389.9748535156</ele>
        <time>2011-08-20T08:19:04Z</time>
      </trkpt>
      <trkpt lat="42.68337" lon="1.3946">
        <ele>2400.0688476562</ele>
        <time>2011-08-20T08:20:13Z</time>
      </trkpt>
      <trkpt lat="42.68329" lon="1.39454">
        <ele>2405.8364257812</ele>
        <time>2011-08-20T08:20:22Z</time>
      </trkpt>
      <trkpt lat="42.68322" lon="1.39449">
        <ele>2408.2397460938</ele>
        <time>2011-08-20T08:20:25Z</time>
      </trkpt>
      <trkpt lat="42.68317" lon="1.39445">
        <ele>2410.1623535156</ele>
        <time>2011-08-20T08:20:31Z</time>
      </trkpt>
      <trkpt lat="42.68293" lon="1.39416">
        <ele>2429.8696289062</ele>
        <time>2011-08-20T08:20:43Z</time>
      </trkpt>
      <trkpt lat="42.68291" lon="1.39431">
        <ele>2420.2563476562</ele>
        <time>2011-08-20T08:20:52Z</time>
      </trkpt>
      <trkpt lat="42.68283" lon="1.39437">
        <ele>2411.6044921875</ele>
        <time>2011-08-20T08:21:19Z</time>
      </trkpt>
      <trkpt lat="42.68287" lon="1.39445">
        <ele>2414.9692382812</ele>
        <time>2011-08-20T08:21:25Z</time>
      </trkpt>
      <trkpt lat="42.68271" lon="1.39436">
        <ele>2414.9692382812</ele>
        <time>2011-08-20T08:21:46Z</time>
      </trkpt>
      <trkpt lat="42.68262" lon="1.39429">
        <ele>2414.0078125</ele>
        <time>2011-08-20T08:21:51Z</time>
      </trkpt>
      <trkpt lat="42.68256" lon="1.39425">
        <ele>2413.0466308594</ele>
        <time>2011-08-20T08:21:56Z</time>
      </trkpt>
      <trkpt lat="42.68251" lon="1.39421">
        <ele>2412.0852050781</ele>
        <time>2011-08-20T08:22:00Z</time>
      </trkpt>
      <trkpt lat="42.68246" lon="1.39417">
        <ele>2411.1237792969</ele>
        <time>2011-08-20T08:22:08Z</time>
      </trkpt>
      <trkpt lat="42.68239" lon="1.39414">
        <ele>2413.5270996094</ele>
        <time>2011-08-20T08:22:16Z</time>
      </trkpt>
      <trkpt lat="42.68242" lon="1.39412">
        <ele>2416.4111328125</ele>
        <time>2011-08-20T08:22:22Z</time>
      </trkpt>
      <trkpt lat="42.68245" lon="1.39414">
        <ele>2419.2951660156</ele>
        <time>2011-08-20T08:22:30Z</time>
      </trkpt>
      <trkpt lat="42.68237" lon="1.39405">
        <ele>2416.8918457031</ele>
        <time>2011-08-20T08:22:35Z</time>
      </trkpt>
      <trkpt lat="42.68234" lon="1.39404">
        <ele>2416.8918457031</ele>
        <time>2011-08-20T08:22:37Z</time>
      </trkpt>
      <trkpt lat="42.68228" lon="1.39404">
        <ele>2418.3337402344</ele>
        <time>2011-08-20T08:22:43Z</time>
      </trkpt>
      <trkpt lat="42.68221" lon="1.39401">
        <ele>2418.3337402344</ele>
        <time>2011-08-20T08:22:49Z</time>
      </trkpt>
      <trkpt lat="42.68215" lon="1.39398">
        <ele>2418.814453125</ele>
        <time>2011-08-20T08:22:54Z</time>
      </trkpt>
      <trkpt lat="42.68209" lon="1.39396">
        <ele>2419.7756347656</ele>
        <time>2011-08-20T08:23:00Z</time>
      </trkpt>
      <trkpt lat="42.68204" lon="1.39394">
        <ele>2419.7756347656</ele>
        <time>2011-08-20T08:23:05Z</time>
      </trkpt>
      <trkpt lat="42.68199" lon="1.39391">
        <ele>2419.7756347656</ele>
        <time>2011-08-20T08:23:11Z</time>
      </trkpt>
      <trkpt lat="42.68189" lon="1.39384">
        <ele>2418.814453125</ele>
        <time>2011-08-20T08:23:18Z</time>
      </trkpt>
      <trkpt lat="42.68187" lon="1.39384">
        <ele>2418.814453125</ele>
        <time>2011-08-20T08:23:24Z</time>
      </trkpt>
      <trkpt lat="42.68183" lon="1.39382">
        <ele>2417.8530273438</ele>
        <time>2011-08-20T08:23:28Z</time>
      </trkpt>
      <trkpt lat="42.68195" lon="1.39398">
        <ele>2424.5822753906</ele>
        <time>2011-08-20T08:23:33Z</time>
      </trkpt>
      <trkpt lat="42.68203" lon="1.39411">
        <ele>2430.8310546875</ele>
        <time>2011-08-20T08:23:38Z</time>
      </trkpt>
      <trkpt lat="42.682" lon="1.39411">
        <ele>2431.7922363281</ele>
        <time>2011-08-20T08:23:43Z</time>
      </trkpt>
      <trkpt lat="42.68197" lon="1.39411">
        <ele>2434.1955566406</ele>
        <time>2011-08-20T08:23:50Z</time>
      </trkpt>
      <trkpt lat="42.68196" lon="1.39413">
        <ele>2436.5986328125</ele>
        <time>2011-08-20T08:23:56Z</time>
      </trkpt>
      <trkpt lat="42.68194" lon="1.39417">
        <ele>2438.0407714844</ele>
        <time>2011-08-20T08:24:02Z</time>
      </trkpt>
      <trkpt lat="42.68194" lon="1.39419">
        <ele>2440.9245605469</ele>
        <time>2011-08-20T08:24:10Z</time>
      </trkpt>
      <trkpt lat="42.68195" lon="1.39423">
        <ele>2443.80859375</ele>
        <time>2011-08-20T08:24:16Z</time>
      </trkpt>
      <trkpt lat="42.68193" lon="1.39426">
        <ele>2445.7314453125</ele>
        <time>2011-08-20T08:24:23Z</time>
      </trkpt>
      <trkpt lat="42.68192" lon="1.39428">
        <ele>2448.1345214844</ele>
        <time>2011-08-20T08:24:28Z</time>
      </trkpt>
      <trkpt lat="42.68191" lon="1.39433">
        <ele>2448.1345214844</ele>
        <time>2011-08-20T08:24:39Z</time>
      </trkpt>
      <trkpt lat="42.68189" lon="1.39434">
        <ele>2448.615234375</ele>
        <time>2011-08-20T08:24:44Z</time>
      </trkpt>
      <trkpt lat="42.68187" lon="1.39439">
        <ele>2451.0185546875</ele>
        <time>2011-08-20T08:24:52Z</time>
      </trkpt>
      <trkpt lat="42.68185" lon="1.39442">
        <ele>2452.9411621094</ele>
        <time>2011-08-20T08:24:58Z</time>
      </trkpt>
      <trkpt lat="42.68184" lon="1.39443">
        <ele>2453.421875</ele>
        <time>2011-08-20T08:25:02Z</time>
      </trkpt>
      <trkpt lat="42.6818" lon="1.39444">
        <ele>2453.9025878906</ele>
        <time>2011-08-20T08:25:08Z</time>
      </trkpt>
      <trkpt lat="42.68175" lon="1.39444">
        <ele>2457.7478027344</ele>
        <time>2011-08-20T08:25:14Z</time>
      </trkpt>
      <trkpt lat="42.68172" lon="1.39445">
        <ele>2459.6701660156</ele>
        <time>2011-08-20T08:25:18Z</time>
      </trkpt>
      <trkpt lat="42.68171" lon="1.39446">
        <ele>2459.6701660156</ele>
        <time>2011-08-20T08:25:23Z</time>
      </trkpt>
      <trkpt lat="42.68169" lon="1.39448">
        <ele>2459.6701660156</ele>
        <time>2011-08-20T08:25:27Z</time>
      </trkpt>
      <trkpt lat="42.68167" lon="1.39449">
        <ele>2459.6701660156</ele>
        <time>2011-08-20T08:25:33Z</time>
      </trkpt>
      <trkpt lat="42.68163" lon="1.3945">
        <ele>2460.6318359375</ele>
        <time>2011-08-20T08:25:39Z</time>
      </trkpt>
      <trkpt lat="42.68161" lon="1.39454">
        <ele>2461.5932617188</ele>
        <time>2011-08-20T08:25:49Z</time>
      </trkpt>
      <trkpt lat="42.68157" lon="1.39454">
        <ele>2462.0737304688</ele>
        <time>2011-08-20T08:25:55Z</time>
      </trkpt>
      <trkpt lat="42.68153" lon="1.39455">
        <ele>2463.9963378906</ele>
        <time>2011-08-20T08:26:02Z</time>
      </trkpt>
      <trkpt lat="42.68151" lon="1.39456">
        <ele>2464.4770507812</ele>
        <time>2011-08-20T08:26:08Z</time>
      </trkpt>
      <trkpt lat="42.68149" lon="1.39456">
        <ele>2463.9963378906</ele>
        <time>2011-08-20T08:26:14Z</time>
      </trkpt>
      <trkpt lat="42.68148" lon="1.39459">
        <ele>2463.9963378906</ele>
        <time>2011-08-20T08:26:23Z</time>
      </trkpt>
      <trkpt lat="42.68144" lon="1.39455">
        <ele>2467.3608398438</ele>
        <time>2011-08-20T08:26:35Z</time>
      </trkpt>
      <trkpt lat="42.68139" lon="1.39453">
        <ele>2472.1674804688</ele>
        <time>2011-08-20T08:26:44Z</time>
      </trkpt>
      <trkpt lat="42.68134" lon="1.39453">
        <ele>2473.12890625</ele>
        <time>2011-08-20T08:26:51Z</time>
      </trkpt>
      <trkpt lat="42.68132" lon="1.39454">
        <ele>2473.12890625</ele>
        <time>2011-08-20T08:26:55Z</time>
      </trkpt>
      <trkpt lat="42.68129" lon="1.39456">
        <ele>2473.12890625</ele>
        <time>2011-08-20T08:27:01Z</time>
      </trkpt>
      <trkpt lat="42.68124" lon="1.39453">
        <ele>2473.609375</ele>
        <time>2011-08-20T08:27:08Z</time>
      </trkpt>
      <trkpt lat="42.68119" lon="1.39455">
        <ele>2473.609375</ele>
        <time>2011-08-20T08:27:14Z</time>
      </trkpt>
      <trkpt lat="42.68116" lon="1.39458">
        <ele>2473.609375</ele>
        <time>2011-08-20T08:27:20Z</time>
      </trkpt>
      <trkpt lat="42.68112" lon="1.3946">
        <ele>2474.5708007812</ele>
        <time>2011-08-20T08:27:24Z</time>
      </trkpt>
      <trkpt lat="42.6811" lon="1.39461">
        <ele>2475.0512695312</ele>
        <time>2011-08-20T08:27:31Z</time>
      </trkpt>
      <trkpt lat="42.68108" lon="1.39463">
        <ele>2475.5319824219</ele>
        <time>2011-08-20T08:27:39Z</time>
      </trkpt>
      <trkpt lat="42.68105" lon="1.39467">
        <ele>2474.0900878906</ele>
        <time>2011-08-20T08:27:44Z</time>
      </trkpt>
      <trkpt lat="42.68105" lon="1.39469">
        <ele>2474.5708007812</ele>
        <time>2011-08-20T08:27:49Z</time>
      </trkpt>
      <trkpt lat="42.68103" lon="1.39469">
        <ele>2477.4548339844</ele>
        <time>2011-08-20T08:27:55Z</time>
      </trkpt>
      <trkpt lat="42.68102" lon="1.39471">
        <ele>2479.8581542969</ele>
        <time>2011-08-20T08:28:00Z</time>
      </trkpt>
      <trkpt lat="42.681" lon="1.39475">
        <ele>2482.2614746094</ele>
        <time>2011-08-20T08:28:06Z</time>
      </trkpt>
      <trkpt lat="42.68099" lon="1.39478">
        <ele>2484.1840820312</ele>
        <time>2011-08-20T08:28:11Z</time>
      </trkpt>
      <trkpt lat="42.68097" lon="1.3948">
        <ele>2484.6647949219</ele>
        <time>2011-08-20T08:28:15Z</time>
      </trkpt>
      <trkpt lat="42.68096" lon="1.39481">
        <ele>2485.6259765625</ele>
        <time>2011-08-20T08:28:19Z</time>
      </trkpt>
      <trkpt lat="42.681" lon="1.39484">
        <ele>2487.0678710938</ele>
        <time>2011-08-20T08:28:25Z</time>
      </trkpt>
      <trkpt lat="42.68099" lon="1.39487">
        <ele>2488.5100097656</ele>
        <time>2011-08-20T08:28:30Z</time>
      </trkpt>
      <trkpt lat="42.68096" lon="1.39489">
        <ele>2489.4711914062</ele>
        <time>2011-08-20T08:28:36Z</time>
      </trkpt>
      <trkpt lat="42.68097" lon="1.39492">
        <ele>2490.4323730469</ele>
        <time>2011-08-20T08:28:41Z</time>
      </trkpt>
      <trkpt lat="42.68097" lon="1.39496">
        <ele>2490.9130859375</ele>
        <time>2011-08-20T08:28:48Z</time>
      </trkpt>
      <trkpt lat="42.68099" lon="1.39499">
        <ele>2491.8745117188</ele>
        <time>2011-08-20T08:28:54Z</time>
      </trkpt>
      <trkpt lat="42.68098" lon="1.39501">
        <ele>2492.8359375</ele>
        <time>2011-08-20T08:28:58Z</time>
      </trkpt>
      <trkpt lat="42.68096" lon="1.39503">
        <ele>2493.3166503906</ele>
        <time>2011-08-20T08:29:05Z</time>
      </trkpt>
      <trkpt lat="42.68097" lon="1.39506">
        <ele>2494.2778320312</ele>
        <time>2011-08-20T08:29:10Z</time>
      </trkpt>
      <trkpt lat="42.68097" lon="1.39508">
        <ele>2495.2392578125</ele>
        <time>2011-08-20T08:29:16Z</time>
      </trkpt>
      <trkpt lat="42.68097" lon="1.39509">
        <ele>2496.2006835938</ele>
        <time>2011-08-20T08:29:21Z</time>
      </trkpt>
      <trkpt lat="42.68094" lon="1.39512">
        <ele>2496.6811523438</ele>
        <time>2011-08-20T08:29:27Z</time>
      </trkpt>
      <trkpt lat="42.68092" lon="1.39514">
        <ele>2498.123046875</ele>
        <time>2011-08-20T08:29:33Z</time>
      </trkpt>
      <trkpt lat="42.68091" lon="1.39516">
        <ele>2499.5651855469</ele>
        <time>2011-08-20T08:29:40Z</time>
      </trkpt>
      <trkpt lat="42.6809" lon="1.39518">
        <ele>2500.0458984375</ele>
        <time>2011-08-20T08:29:48Z</time>
      </trkpt>
      <trkpt lat="42.6809" lon="1.39522">
        <ele>2501.0070800781</ele>
        <time>2011-08-20T08:29:53Z</time>
      </trkpt>
      <trkpt lat="42.68089" lon="1.39523">
        <ele>2502.9296875</ele>
        <time>2011-08-20T08:29:58Z</time>
      </trkpt>
      <trkpt lat="42.68088" lon="1.39526">
        <ele>2503.8911132812</ele>
        <time>2011-08-20T08:30:03Z</time>
      </trkpt>
      <trkpt lat="42.68086" lon="1.39529">
        <ele>2504.3715820312</ele>
        <time>2011-08-20T08:30:09Z</time>
      </trkpt>
      <trkpt lat="42.68087" lon="1.39533">
        <ele>2506.2941894531</ele>
        <time>2011-08-20T08:30:15Z</time>
      </trkpt>
      <trkpt lat="42.68085" lon="1.39536">
        <ele>2507.2556152344</ele>
        <time>2011-08-20T08:30:22Z</time>
      </trkpt>
      <trkpt lat="42.68084" lon="1.3954">
        <ele>2508.2170410156</ele>
        <time>2011-08-20T08:30:28Z</time>
      </trkpt>
      <trkpt lat="42.68081" lon="1.39542">
        <ele>2508.6977539062</ele>
        <time>2011-08-20T08:30:33Z</time>
      </trkpt>
      <trkpt lat="42.68081" lon="1.39545">
        <ele>2508.6977539062</ele>
        <time>2011-08-20T08:30:42Z</time>
      </trkpt>
      <trkpt lat="42.6808" lon="1.39549">
        <ele>2509.6589355469</ele>
        <time>2011-08-20T08:30:48Z</time>
      </trkpt>
      <trkpt lat="42.68078" lon="1.39552">
        <ele>2511.5817871094</ele>
        <time>2011-08-20T08:30:55Z</time>
      </trkpt>
      <trkpt lat="42.68079" lon="1.39553">
        <ele>2512.0622558594</ele>
        <time>2011-08-20T08:31:03Z</time>
      </trkpt>
      <trkpt lat="42.68081" lon="1.39554">
        <ele>2513.0236816406</ele>
        <time>2011-08-20T08:31:07Z</time>
      </trkpt>
      <trkpt lat="42.68077" lon="1.39558">
        <ele>2514.9462890625</ele>
        <time>2011-08-20T08:31:14Z</time>
      </trkpt>
      <trkpt lat="42.68077" lon="1.3956">
        <ele>2516.3881835938</ele>
        <time>2011-08-20T08:31:20Z</time>
      </trkpt>
      <trkpt lat="42.68078" lon="1.39561">
        <ele>2516.8688964844</ele>
        <time>2011-08-20T08:31:23Z</time>
      </trkpt>
      <trkpt lat="42.68078" lon="1.39563">
        <ele>2517.3493652344</ele>
        <time>2011-08-20T08:31:28Z</time>
      </trkpt>
      <trkpt lat="42.68081" lon="1.39565">
        <ele>2518.7915039062</ele>
        <time>2011-08-20T08:31:35Z</time>
      </trkpt>
      <trkpt lat="42.68081" lon="1.39567">
        <ele>2521.6752929688</ele>
        <time>2011-08-20T08:31:42Z</time>
      </trkpt>
      <trkpt lat="42.6808" lon="1.39569">
        <ele>2523.1174316406</ele>
        <time>2011-08-20T08:31:48Z</time>
      </trkpt>
      <trkpt lat="42.68079" lon="1.39571">
        <ele>2524.5595703125</ele>
        <time>2011-08-20T08:31:56Z</time>
      </trkpt>
      <trkpt lat="42.68078" lon="1.3957">
        <ele>2524.5595703125</ele>
        <time>2011-08-20T08:32:02Z</time>
      </trkpt>
      <trkpt lat="42.68077" lon="1.3957">
        <ele>2524.0788574219</ele>
        <time>2011-08-20T08:32:11Z</time>
      </trkpt>
      <trkpt lat="42.68077" lon="1.39571">
        <ele>2523.5979003906</ele>
        <time>2011-08-20T08:32:18Z</time>
      </trkpt>
      <trkpt lat="42.68077" lon="1.39575">
        <ele>2524.5595703125</ele>
        <time>2011-08-20T08:32:23Z</time>
      </trkpt>
      <trkpt lat="42.68077" lon="1.39578">
        <ele>2525.0400390625</ele>
        <time>2011-08-20T08:32:28Z</time>
      </trkpt>
      <trkpt lat="42.68075" lon="1.39582">
        <ele>2526.4821777344</ele>
        <time>2011-08-20T08:32:34Z</time>
      </trkpt>
      <trkpt lat="42.68076" lon="1.39587">
        <ele>2528.4047851562</ele>
        <time>2011-08-20T08:32:40Z</time>
      </trkpt>
      <trkpt lat="42.68074" lon="1.39591">
        <ele>2528.8852539062</ele>
        <time>2011-08-20T08:32:44Z</time>
      </trkpt>
      <trkpt lat="42.68074" lon="1.39595">
        <ele>2530.3273925781</ele>
        <time>2011-08-20T08:32:49Z</time>
      </trkpt>
      <trkpt lat="42.68072" lon="1.39603">
        <ele>2531.2885742188</ele>
        <time>2011-08-20T08:32:55Z</time>
      </trkpt>
      <trkpt lat="42.68068" lon="1.39612">
        <ele>2532.25</ele>
        <time>2011-08-20T08:33:02Z</time>
      </trkpt>
      <trkpt lat="42.68067" lon="1.39614">
        <ele>2532.25</ele>
        <time>2011-08-20T08:33:03Z</time>
      </trkpt>
      <trkpt lat="42.68064" lon="1.39617">
        <ele>2532.25</ele>
        <time>2011-08-20T08:33:08Z</time>
      </trkpt>
      <trkpt lat="42.68062" lon="1.39622">
        <ele>2531.2885742188</ele>
        <time>2011-08-20T08:33:15Z</time>
      </trkpt>
      <trkpt lat="42.6806" lon="1.39626">
        <ele>2530.8081054688</ele>
        <time>2011-08-20T08:33:20Z</time>
      </trkpt>
      <trkpt lat="42.68056" lon="1.39633">
        <ele>2530.8081054688</ele>
        <time>2011-08-20T08:33:26Z</time>
      </trkpt>
      <trkpt lat="42.68056" lon="1.39636">
        <ele>2530.3273925781</ele>
        <time>2011-08-20T08:33:28Z</time>
      </trkpt>
      <trkpt lat="42.68052" lon="1.39645">
        <ele>2531.2885742188</ele>
        <time>2011-08-20T08:33:34Z</time>
      </trkpt>
      <trkpt lat="42.68052" lon="1.39652">
        <ele>2531.2885742188</ele>
        <time>2011-08-20T08:33:40Z</time>
      </trkpt>
      <trkpt lat="42.68052" lon="1.39653">
        <ele>2531.2885742188</ele>
        <time>2011-08-20T08:33:41Z</time>
      </trkpt>
      <trkpt lat="42.68049" lon="1.39665">
        <ele>2530.3273925781</ele>
        <time>2011-08-20T08:33:48Z</time>
      </trkpt>
      <trkpt lat="42.68048" lon="1.39669">
        <ele>2530.3273925781</ele>
        <time>2011-08-20T08:33:51Z</time>
      </trkpt>
      <trkpt lat="42.68048" lon="1.39679">
        <ele>2531.7692871094</ele>
        <time>2011-08-20T08:33:59Z</time>
      </trkpt>
      <trkpt lat="42.68047" lon="1.39686">
        <ele>2534.1726074219</ele>
        <time>2011-08-20T08:34:05Z</time>
      </trkpt>
      <trkpt lat="42.68046" lon="1.39693">
        <ele>2535.6145019531</ele>
        <time>2011-08-20T08:34:11Z</time>
      </trkpt>
      <trkpt lat="42.68043" lon="1.39697">
        <ele>2535.1337890625</ele>
        <time>2011-08-20T08:34:16Z</time>
      </trkpt>
      <trkpt lat="42.6804" lon="1.39705">
        <ele>2537.0563964844</ele>
        <time>2011-08-20T08:34:22Z</time>
      </trkpt>
      <trkpt lat="42.68037" lon="1.3971">
        <ele>2538.9790039062</ele>
        <time>2011-08-20T08:34:28Z</time>
      </trkpt>
      <trkpt lat="42.68034" lon="1.39717">
        <ele>2540.9018554688</ele>
        <time>2011-08-20T08:34:35Z</time>
      </trkpt>
      <trkpt lat="42.68032" lon="1.3972">
        <ele>2541.3825683594</ele>
        <time>2011-08-20T08:34:40Z</time>
      </trkpt>
      <trkpt lat="42.68029" lon="1.39724">
        <ele>2542.3439941406</ele>
        <time>2011-08-20T08:34:45Z</time>
      </trkpt>
      <trkpt lat="42.68026" lon="1.39727">
        <ele>2542.8244628906</ele>
        <time>2011-08-20T08:34:51Z</time>
      </trkpt>
      <trkpt lat="42.68019" lon="1.39729">
        <ele>2541.3825683594</ele>
        <time>2011-08-20T08:34:57Z</time>
      </trkpt>
      <trkpt lat="42.68016" lon="1.39732">
        <ele>2542.3439941406</ele>
        <time>2011-08-20T08:35:03Z</time>
      </trkpt>
      <trkpt lat="42.68015" lon="1.39737">
        <ele>2542.8244628906</ele>
        <time>2011-08-20T08:35:08Z</time>
      </trkpt>
      <trkpt lat="42.68012" lon="1.39739">
        <ele>2543.3051757812</ele>
        <time>2011-08-20T08:35:14Z</time>
      </trkpt>
      <trkpt lat="42.6801" lon="1.39742">
        <ele>2545.2277832031</ele>
        <time>2011-08-20T08:35:21Z</time>
      </trkpt>
      <trkpt lat="42.68008" lon="1.39745">
        <ele>2546.1892089844</ele>
        <time>2011-08-20T08:35:26Z</time>
      </trkpt>
      <trkpt lat="42.68007" lon="1.39748">
        <ele>2547.150390625</ele>
        <time>2011-08-20T08:35:31Z</time>
      </trkpt>
      <trkpt lat="42.68004" lon="1.39752">
        <ele>2548.1115722656</ele>
        <time>2011-08-20T08:35:37Z</time>
      </trkpt>
      <trkpt lat="42.68002" lon="1.39754">
        <ele>2550.5148925781</ele>
        <time>2011-08-20T08:35:43Z</time>
      </trkpt>
      <trkpt lat="42.68" lon="1.39758">
        <ele>2552.4375</ele>
        <time>2011-08-20T08:35:49Z</time>
      </trkpt>
      <trkpt lat="42.67998" lon="1.3976">
        <ele>2553.8796386719</ele>
        <time>2011-08-20T08:35:54Z</time>
      </trkpt>
      <trkpt lat="42.67999" lon="1.39764">
        <ele>2555.3215332031</ele>
        <time>2011-08-20T08:35:58Z</time>
      </trkpt>
      <trkpt lat="42.67997" lon="1.39766">
        <ele>2557.2443847656</ele>
        <time>2011-08-20T08:36:03Z</time>
      </trkpt>
      <trkpt lat="42.67996" lon="1.39769">
        <ele>2557.7250976562</ele>
        <time>2011-08-20T08:36:09Z</time>
      </trkpt>
      <trkpt lat="42.67995" lon="1.39773">
        <ele>2556.763671875</ele>
        <time>2011-08-20T08:36:15Z</time>
      </trkpt>
      <trkpt lat="42.67993" lon="1.39774">
        <ele>2556.763671875</ele>
        <time>2011-08-20T08:36:21Z</time>
      </trkpt>
      <trkpt lat="42.67992" lon="1.39775">
        <ele>2556.763671875</ele>
        <time>2011-08-20T08:36:32Z</time>
      </trkpt>
      <trkpt lat="42.67992" lon="1.39775">
        <ele>2560.6088867188</ele>
        <time>2011-08-20T08:36:41Z</time>
      </trkpt>
      <trkpt lat="42.67993" lon="1.39778">
        <ele>2560.6088867188</ele>
        <time>2011-08-20T08:36:47Z</time>
      </trkpt>
      <trkpt lat="42.67991" lon="1.3978">
        <ele>2562.05078125</ele>
        <time>2011-08-20T08:36:52Z</time>
      </trkpt>
      <trkpt lat="42.67992" lon="1.39783">
        <ele>2563.0122070312</ele>
        <time>2011-08-20T08:36:57Z</time>
      </trkpt>
      <trkpt lat="42.6799" lon="1.39788">
        <ele>2565.8959960938</ele>
        <time>2011-08-20T08:37:04Z</time>
      </trkpt>
      <trkpt lat="42.6799" lon="1.39793">
        <ele>2566.3767089844</ele>
        <time>2011-08-20T08:37:09Z</time>
      </trkpt>
      <trkpt lat="42.6799" lon="1.39799">
        <ele>2567.337890625</ele>
        <time>2011-08-20T08:37:15Z</time>
      </trkpt>
      <trkpt lat="42.67989" lon="1.39804">
        <ele>2568.7800292969</ele>
        <time>2011-08-20T08:37:22Z</time>
      </trkpt>
      <trkpt lat="42.67989" lon="1.39808">
        <ele>2569.2607421875</ele>
        <time>2011-08-20T08:37:30Z</time>
      </trkpt>
      <trkpt lat="42.67987" lon="1.39814">
        <ele>2569.2607421875</ele>
        <time>2011-08-20T08:37:37Z</time>
      </trkpt>
      <trkpt lat="42.67986" lon="1.39818">
        <ele>2568.7800292969</ele>
        <time>2011-08-20T08:37:43Z</time>
      </trkpt>
      <trkpt lat="42.67984" lon="1.3982">
        <ele>2568.7800292969</ele>
        <time>2011-08-20T08:37:48Z</time>
      </trkpt>
      <trkpt lat="42.67984" lon="1.39822">
        <ele>2570.2219238281</ele>
        <time>2011-08-20T08:38:06Z</time>
      </trkpt>
      <trkpt lat="42.67982" lon="1.39822">
        <ele>2570.2219238281</ele>
        <time>2011-08-20T08:38:13Z</time>
      </trkpt>
      <trkpt lat="42.67981" lon="1.39822">
        <ele>2570.7026367188</ele>
        <time>2011-08-20T08:38:20Z</time>
      </trkpt>
      <trkpt lat="42.6798" lon="1.3982">
        <ele>2571.1831054688</ele>
        <time>2011-08-20T08:38:31Z</time>
      </trkpt>
      <trkpt lat="42.6798" lon="1.39821">
        <ele>2571.1831054688</ele>
        <time>2011-08-20T08:38:43Z</time>
      </trkpt>
      <trkpt lat="42.6798" lon="1.3982">
        <ele>2570.7026367188</ele>
        <time>2011-08-20T08:38:53Z</time>
      </trkpt>
      <trkpt lat="42.67978" lon="1.39823">
        <ele>2570.2219238281</ele>
        <time>2011-08-20T08:39:11Z</time>
      </trkpt>
      <trkpt lat="42.67973" lon="1.3983">
        <ele>2569.7412109375</ele>
        <time>2011-08-20T08:39:17Z</time>
      </trkpt>
      <trkpt lat="42.67971" lon="1.39832">
        <ele>2569.2607421875</ele>
        <time>2011-08-20T08:39:19Z</time>
      </trkpt>
      <trkpt lat="42.67965" lon="1.39842">
        <ele>2569.2607421875</ele>
        <time>2011-08-20T08:39:28Z</time>
      </trkpt>
      <trkpt lat="42.67964" lon="1.39844">
        <ele>2569.7412109375</ele>
        <time>2011-08-20T08:39:30Z</time>
      </trkpt>
      <trkpt lat="42.67962" lon="1.39847">
        <ele>2572.1447753906</ele>
        <time>2011-08-20T08:39:37Z</time>
      </trkpt>
      <trkpt lat="42.67961" lon="1.3985">
        <ele>2574.0673828125</ele>
        <time>2011-08-20T08:39:42Z</time>
      </trkpt>
      <trkpt lat="42.67959" lon="1.3985">
        <ele>2575.5092773438</ele>
        <time>2011-08-20T08:39:47Z</time>
      </trkpt>
      <trkpt lat="42.67957" lon="1.39851">
        <ele>2576.470703125</ele>
        <time>2011-08-20T08:39:52Z</time>
      </trkpt>
      <trkpt lat="42.67952" lon="1.39857">
        <ele>2575.5092773438</ele>
        <time>2011-08-20T08:39:59Z</time>
      </trkpt>
      <trkpt lat="42.6795" lon="1.39861">
        <ele>2574.5480957031</ele>
        <time>2011-08-20T08:40:02Z</time>
      </trkpt>
      <trkpt lat="42.67947" lon="1.39868">
        <ele>2574.5480957031</ele>
        <time>2011-08-20T08:40:08Z</time>
      </trkpt>
      <trkpt lat="42.67942" lon="1.3987">
        <ele>2577.9125976562</ele>
        <time>2011-08-20T08:40:16Z</time>
      </trkpt>
      <trkpt lat="42.67939" lon="1.39869">
        <ele>2578.3933105469</ele>
        <time>2011-08-20T08:40:20Z</time>
      </trkpt>
      <trkpt lat="42.67936" lon="1.39873">
        <ele>2579.3544921875</ele>
        <time>2011-08-20T08:40:25Z</time>
      </trkpt>
      <trkpt lat="42.67934" lon="1.39876">
        <ele>2579.3544921875</ele>
        <time>2011-08-20T08:40:28Z</time>
      </trkpt>
      <trkpt lat="42.67934" lon="1.39885">
        <ele>2585.6030273438</ele>
        <time>2011-08-20T08:40:34Z</time>
      </trkpt>
      <trkpt lat="42.67929" lon="1.39881">
        <ele>2586.0837402344</ele>
        <time>2011-08-20T08:40:40Z</time>
      </trkpt>
      <trkpt lat="42.6793" lon="1.39876">
        <ele>2586.0837402344</ele>
        <time>2011-08-20T08:40:45Z</time>
      </trkpt>
      <trkpt lat="42.67929" lon="1.39872">
        <ele>2586.0837402344</ele>
        <time>2011-08-20T08:40:51Z</time>
      </trkpt>
      <trkpt lat="42.67928" lon="1.39865">
        <ele>2586.0837402344</ele>
        <time>2011-08-20T08:40:58Z</time>
      </trkpt>
      <trkpt lat="42.67928" lon="1.3986">
        <ele>2587.5256347656</ele>
        <time>2011-08-20T08:41:04Z</time>
      </trkpt>
      <trkpt lat="42.67927" lon="1.39856">
        <ele>2589.4484863281</ele>
        <time>2011-08-20T08:41:12Z</time>
      </trkpt>
      <trkpt lat="42.67926" lon="1.39848">
        <ele>2589.4484863281</ele>
        <time>2011-08-20T08:41:19Z</time>
      </trkpt>
      <trkpt lat="42.67923" lon="1.39841">
        <ele>2588.9677734375</ele>
        <time>2011-08-20T08:41:25Z</time>
      </trkpt>
      <trkpt lat="42.67922" lon="1.39841">
        <ele>2588.9677734375</ele>
        <time>2011-08-20T08:41:26Z</time>
      </trkpt>
      <trkpt lat="42.67918" lon="1.39835">
        <ele>2589.9291992188</ele>
        <time>2011-08-20T08:41:32Z</time>
      </trkpt>
      <trkpt lat="42.67915" lon="1.39829">
        <ele>2591.37109375</ele>
        <time>2011-08-20T08:41:39Z</time>
      </trkpt>
      <trkpt lat="42.67912" lon="1.39824">
        <ele>2591.37109375</ele>
        <time>2011-08-20T08:41:44Z</time>
      </trkpt>
      <trkpt lat="42.67909" lon="1.39822">
        <ele>2591.8518066406</ele>
        <time>2011-08-20T08:41:49Z</time>
      </trkpt>
      <trkpt lat="42.67907" lon="1.39816">
        <ele>2590.8903808594</ele>
        <time>2011-08-20T08:41:55Z</time>
      </trkpt>
      <trkpt lat="42.67904" lon="1.39808">
        <ele>2591.8518066406</ele>
        <time>2011-08-20T08:42:01Z</time>
      </trkpt>
      <trkpt lat="42.67904" lon="1.39799">
        <ele>2592.8129882812</ele>
        <time>2011-08-20T08:42:08Z</time>
      </trkpt>
      <trkpt lat="42.67906" lon="1.39793">
        <ele>2593.7744140625</ele>
        <time>2011-08-20T08:42:13Z</time>
      </trkpt>
      <trkpt lat="42.67908" lon="1.39785">
        <ele>2594.7355957031</ele>
        <time>2011-08-20T08:42:19Z</time>
      </trkpt>
      <trkpt lat="42.67905" lon="1.39778">
        <ele>2594.7355957031</ele>
        <time>2011-08-20T08:42:25Z</time>
      </trkpt>
      <trkpt lat="42.67907" lon="1.39765">
        <ele>2594.2548828125</ele>
        <time>2011-08-20T08:42:31Z</time>
      </trkpt>
      <trkpt lat="42.67902" lon="1.3976">
        <ele>2593.7744140625</ele>
        <time>2011-08-20T08:42:37Z</time>
      </trkpt>
      <trkpt lat="42.67901" lon="1.39754">
        <ele>2593.2937011719</ele>
        <time>2011-08-20T08:42:41Z</time>
      </trkpt>
      <trkpt lat="42.679" lon="1.39749">
        <ele>2593.2937011719</ele>
        <time>2011-08-20T08:42:44Z</time>
      </trkpt>
      <trkpt lat="42.67897" lon="1.39742">
        <ele>2593.7744140625</ele>
        <time>2011-08-20T08:42:50Z</time>
      </trkpt>
      <trkpt lat="42.67896" lon="1.39736">
        <ele>2595.6970214844</ele>
        <time>2011-08-20T08:42:56Z</time>
      </trkpt>
      <trkpt lat="42.67892" lon="1.39736">
        <ele>2596.177734375</ele>
        <time>2011-08-20T08:43:01Z</time>
      </trkpt>
      <trkpt lat="42.6789" lon="1.39741">
        <ele>2596.658203125</ele>
        <time>2011-08-20T08:43:08Z</time>
      </trkpt>
      <trkpt lat="42.67888" lon="1.39743">
        <ele>2597.6196289062</ele>
        <time>2011-08-20T08:43:12Z</time>
      </trkpt>
      <trkpt lat="42.67887" lon="1.39739">
        <ele>2598.5810546875</ele>
        <time>2011-08-20T08:43:17Z</time>
      </trkpt>
      <trkpt lat="42.67883" lon="1.39741">
        <ele>2600.0229492188</ele>
        <time>2011-08-20T08:43:23Z</time>
      </trkpt>
      <trkpt lat="42.67881" lon="1.39739">
        <ele>2600.984375</ele>
        <time>2011-08-20T08:43:29Z</time>
      </trkpt>
      <trkpt lat="42.67878" lon="1.39741">
        <ele>2601.9453125</ele>
        <time>2011-08-20T08:43:34Z</time>
      </trkpt>
      <trkpt lat="42.67876" lon="1.39743">
        <ele>2602.9067382812</ele>
        <time>2011-08-20T08:43:41Z</time>
      </trkpt>
      <trkpt lat="42.67873" lon="1.39745">
        <ele>2603.8681640625</ele>
        <time>2011-08-20T08:43:47Z</time>
      </trkpt>
      <trkpt lat="42.67873" lon="1.39748">
        <ele>2605.3100585938</ele>
        <time>2011-08-20T08:43:52Z</time>
      </trkpt>
      <trkpt lat="42.67869" lon="1.3975">
        <ele>2605.7905273438</ele>
        <time>2011-08-20T08:43:58Z</time>
      </trkpt>
      <trkpt lat="42.67867" lon="1.3975">
        <ele>2606.751953125</ele>
        <time>2011-08-20T08:44:04Z</time>
      </trkpt>
      <trkpt lat="42.67865" lon="1.39749">
        <ele>2606.751953125</ele>
        <time>2011-08-20T08:44:09Z</time>
      </trkpt>
      <trkpt lat="42.67862" lon="1.39749">
        <ele>2607.232421875</ele>
        <time>2011-08-20T08:44:16Z</time>
      </trkpt>
      <trkpt lat="42.67859" lon="1.39748">
        <ele>2608.1938476562</ele>
        <time>2011-08-20T08:44:22Z</time>
      </trkpt>
      <trkpt lat="42.67858" lon="1.39751">
        <ele>2609.1552734375</ele>
        <time>2011-08-20T08:44:27Z</time>
      </trkpt>
      <trkpt lat="42.67856" lon="1.3975">
        <ele>2611.55859375</ele>
        <time>2011-08-20T08:44:33Z</time>
      </trkpt>
      <trkpt lat="42.67854" lon="1.39749">
        <ele>2613.9624023438</ele>
        <time>2011-08-20T08:44:40Z</time>
      </trkpt>
      <trkpt lat="42.67851" lon="1.39752">
        <ele>2614.9233398438</ele>
        <time>2011-08-20T08:44:47Z</time>
      </trkpt>
      <trkpt lat="42.67849" lon="1.39755">
        <ele>2616.8461914062</ele>
        <time>2011-08-20T08:44:53Z</time>
      </trkpt>
      <trkpt lat="42.67848" lon="1.39757">
        <ele>2616.3657226562</ele>
        <time>2011-08-20T08:44:58Z</time>
      </trkpt>
      <trkpt lat="42.67847" lon="1.39759">
        <ele>2617.3266601562</ele>
        <time>2011-08-20T08:45:03Z</time>
      </trkpt>
      <trkpt lat="42.67846" lon="1.3976">
        <ele>2617.8076171875</ele>
        <time>2011-08-20T08:45:07Z</time>
      </trkpt>
      <trkpt lat="42.67845" lon="1.39763">
        <ele>2619.7299804688</ele>
        <time>2011-08-20T08:45:14Z</time>
      </trkpt>
      <trkpt lat="42.67843" lon="1.39763">
        <ele>2620.2104492188</ele>
        <time>2011-08-20T08:45:19Z</time>
      </trkpt>
      <trkpt lat="42.67841" lon="1.39761">
        <ele>2620.69140625</ele>
        <time>2011-08-20T08:45:24Z</time>
      </trkpt>
      <trkpt lat="42.67839" lon="1.39758">
        <ele>2621.6528320312</ele>
        <time>2011-08-20T08:45:31Z</time>
      </trkpt>
      <trkpt lat="42.67837" lon="1.39758">
        <ele>2622.6137695312</ele>
        <time>2011-08-20T08:45:37Z</time>
      </trkpt>
      <trkpt lat="42.67836" lon="1.39758">
        <ele>2624.0561523438</ele>
        <time>2011-08-20T08:45:43Z</time>
      </trkpt>
      <trkpt lat="42.67835" lon="1.39759">
        <ele>2626.458984375</ele>
        <time>2011-08-20T08:45:51Z</time>
      </trkpt>
      <trkpt lat="42.67833" lon="1.39758">
        <ele>2627.4204101562</ele>
        <time>2011-08-20T08:45:56Z</time>
      </trkpt>
      <trkpt lat="42.67832" lon="1.39757">
        <ele>2628.3818359375</ele>
        <time>2011-08-20T08:46:02Z</time>
      </trkpt>
      <trkpt lat="42.6783" lon="1.39756">
        <ele>2629.8237304688</ele>
        <time>2011-08-20T08:46:06Z</time>
      </trkpt>
      <trkpt lat="42.67829" lon="1.39755">
        <ele>2630.3041992188</ele>
        <time>2011-08-20T08:46:11Z</time>
      </trkpt>
      <trkpt lat="42.67828" lon="1.39754">
        <ele>2630.78515625</ele>
        <time>2011-08-20T08:46:15Z</time>
      </trkpt>
      <trkpt lat="42.67825" lon="1.39752">
        <ele>2630.3041992188</ele>
        <time>2011-08-20T08:46:19Z</time>
      </trkpt>
      <trkpt lat="42.67826" lon="1.39749">
        <ele>2631.7465820312</ele>
        <time>2011-08-20T08:46:25Z</time>
      </trkpt>
      <trkpt lat="42.67826" lon="1.39745">
        <ele>2633.1884765625</ele>
        <time>2011-08-20T08:46:31Z</time>
      </trkpt>
      <trkpt lat="42.67825" lon="1.39742">
        <ele>2633.6689453125</ele>
        <time>2011-08-20T08:46:37Z</time>
      </trkpt>
      <trkpt lat="42.67822" lon="1.39739">
        <ele>2635.1108398438</ele>
        <time>2011-08-20T08:46:43Z</time>
      </trkpt>
      <trkpt lat="42.67822" lon="1.39735">
        <ele>2636.552734375</ele>
        <time>2011-08-20T08:46:49Z</time>
      </trkpt>
      <trkpt lat="42.67819" lon="1.39735">
        <ele>2637.9946289062</ele>
        <time>2011-08-20T08:46:55Z</time>
      </trkpt>
      <trkpt lat="42.67817" lon="1.39733">
        <ele>2638.9560546875</ele>
        <time>2011-08-20T08:47:01Z</time>
      </trkpt>
      <trkpt lat="42.67816" lon="1.39731">
        <ele>2639.9174804688</ele>
        <time>2011-08-20T08:47:05Z</time>
      </trkpt>
      <trkpt lat="42.67815" lon="1.39728">
        <ele>2642.3208007812</ele>
        <time>2011-08-20T08:47:11Z</time>
      </trkpt>
      <trkpt lat="42.67813" lon="1.39727">
        <ele>2642.8012695312</ele>
        <time>2011-08-20T08:47:16Z</time>
      </trkpt>
      <trkpt lat="42.67812" lon="1.39724">
        <ele>2644.2436523438</ele>
        <time>2011-08-20T08:47:22Z</time>
      </trkpt>
      <trkpt lat="42.6781" lon="1.39722">
        <ele>2647.6083984375</ele>
        <time>2011-08-20T08:47:38Z</time>
      </trkpt>
      <trkpt lat="42.67808" lon="1.3972">
        <ele>2648.5698242188</ele>
        <time>2011-08-20T08:47:46Z</time>
      </trkpt>
      <trkpt lat="42.67807" lon="1.3972">
        <ele>2648.5698242188</ele>
        <time>2011-08-20T08:47:52Z</time>
      </trkpt>
      <trkpt lat="42.67805" lon="1.3972">
        <ele>2649.0502929688</ele>
        <time>2011-08-20T08:47:59Z</time>
      </trkpt>
      <trkpt lat="42.67802" lon="1.39722">
        <ele>2649.5307617188</ele>
        <time>2011-08-20T08:48:04Z</time>
      </trkpt>
      <trkpt lat="42.67801" lon="1.39724">
        <ele>2650.01171875</ele>
        <time>2011-08-20T08:48:08Z</time>
      </trkpt>
      <trkpt lat="42.67801" lon="1.39727">
        <ele>2650.97265625</ele>
        <time>2011-08-20T08:48:14Z</time>
      </trkpt>
      <trkpt lat="42.67801" lon="1.39731">
        <ele>2652.8955078125</ele>
        <time>2011-08-20T08:48:21Z</time>
      </trkpt>
      <trkpt lat="42.678" lon="1.39734">
        <ele>2654.3374023438</ele>
        <time>2011-08-20T08:48:27Z</time>
      </trkpt>
      <trkpt lat="42.67799" lon="1.39736">
        <ele>2655.779296875</ele>
        <time>2011-08-20T08:48:33Z</time>
      </trkpt>
      <trkpt lat="42.67798" lon="1.39737">
        <ele>2656.7407226562</ele>
        <time>2011-08-20T08:48:43Z</time>
      </trkpt>
      <trkpt lat="42.67796" lon="1.39739">
        <ele>2659.1440429688</ele>
        <time>2011-08-20T08:48:52Z</time>
      </trkpt>
      <trkpt lat="42.67794" lon="1.39742">
        <ele>2659.6245117188</ele>
        <time>2011-08-20T08:48:58Z</time>
      </trkpt>
      <trkpt lat="42.67791" lon="1.39744">
        <ele>2660.10546875</ele>
        <time>2011-08-20T08:49:03Z</time>
      </trkpt>
      <trkpt lat="42.67791" lon="1.39749">
        <ele>2661.5473632812</ele>
        <time>2011-08-20T08:49:10Z</time>
      </trkpt>
      <trkpt lat="42.67791" lon="1.3975">
        <ele>2662.0278320312</ele>
        <time>2011-08-20T08:49:13Z</time>
      </trkpt>
      <trkpt lat="42.67789" lon="1.39749">
        <ele>2666.353515625</ele>
        <time>2011-08-20T08:49:22Z</time>
      </trkpt>
      <trkpt lat="42.67789" lon="1.3975">
        <ele>2666.353515625</ele>
        <time>2011-08-20T08:49:26Z</time>
      </trkpt>
      <trkpt lat="42.67789" lon="1.3975">
        <ele>2667.3149414062</ele>
        <time>2011-08-20T08:49:34Z</time>
      </trkpt>
      <trkpt lat="42.67788" lon="1.39751">
        <ele>2667.3149414062</ele>
        <time>2011-08-20T08:49:40Z</time>
      </trkpt>
      <trkpt lat="42.67787" lon="1.39752">
        <ele>2667.7958984375</ele>
        <time>2011-08-20T08:49:45Z</time>
      </trkpt>
      <trkpt lat="42.67785" lon="1.39754">
        <ele>2668.7568359375</ele>
        <time>2011-08-20T08:49:50Z</time>
      </trkpt>
      <trkpt lat="42.67785" lon="1.39757">
        <ele>2669.2377929688</ele>
        <time>2011-08-20T08:49:54Z</time>
      </trkpt>
      <trkpt lat="42.67783" lon="1.3976">
        <ele>2669.7182617188</ele>
        <time>2011-08-20T08:49:59Z</time>
      </trkpt>
      <trkpt lat="42.67783" lon="1.39761">
        <ele>2669.7182617188</ele>
        <time>2011-08-20T08:50:05Z</time>
      </trkpt>
      <trkpt lat="42.67783" lon="1.39764">
        <ele>2671.16015625</ele>
        <time>2011-08-20T08:50:10Z</time>
      </trkpt>
      <trkpt lat="42.67782" lon="1.39765">
        <ele>2672.1215820312</ele>
        <time>2011-08-20T08:50:16Z</time>
      </trkpt>
      <trkpt lat="42.67783" lon="1.3977">
        <ele>2673.0830078125</ele>
        <time>2011-08-20T08:50:21Z</time>
      </trkpt>
      <trkpt lat="42.67781" lon="1.39774">
        <ele>2674.5249023438</ele>
        <time>2011-08-20T08:50:27Z</time>
      </trkpt>
      <trkpt lat="42.6778" lon="1.39777">
        <ele>2675.486328125</ele>
        <time>2011-08-20T08:50:32Z</time>
      </trkpt>
      <trkpt lat="42.6778" lon="1.39779">
        <ele>2675.966796875</ele>
        <time>2011-08-20T08:50:38Z</time>
      </trkpt>
      <trkpt lat="42.67779" lon="1.3978">
        <ele>2677.4091796875</ele>
        <time>2011-08-20T08:50:45Z</time>
      </trkpt>
      <trkpt lat="42.67778" lon="1.39783">
        <ele>2678.8510742188</ele>
        <time>2011-08-20T08:50:51Z</time>
      </trkpt>
      <trkpt lat="42.67776" lon="1.39783">
        <ele>2679.8125</ele>
        <time>2011-08-20T08:50:56Z</time>
      </trkpt>
      <trkpt lat="42.67776" lon="1.39785">
        <ele>2680.7739257812</ele>
        <time>2011-08-20T08:51:02Z</time>
      </trkpt>
      <trkpt lat="42.67774" lon="1.3979">
        <ele>2682.2158203125</ele>
        <time>2011-08-20T08:51:10Z</time>
      </trkpt>
      <trkpt lat="42.67771" lon="1.39792">
        <ele>2683.1772460938</ele>
        <time>2011-08-20T08:51:16Z</time>
      </trkpt>
      <trkpt lat="42.67769" lon="1.39797">
        <ele>2684.1381835938</ele>
        <time>2011-08-20T08:51:22Z</time>
      </trkpt>
      <trkpt lat="42.67767" lon="1.39799">
        <ele>2684.619140625</ele>
        <time>2011-08-20T08:51:28Z</time>
      </trkpt>
      <trkpt lat="42.67766" lon="1.39802">
        <ele>2684.1381835938</ele>
        <time>2011-08-20T08:51:35Z</time>
      </trkpt>
      <trkpt lat="42.67763" lon="1.39805">
        <ele>2684.619140625</ele>
        <time>2011-08-20T08:51:40Z</time>
      </trkpt>
      <trkpt lat="42.6776" lon="1.39809">
        <ele>2687.0224609375</ele>
        <time>2011-08-20T08:51:46Z</time>
      </trkpt>
      <trkpt lat="42.67758" lon="1.39813">
        <ele>2687.9833984375</ele>
        <time>2011-08-20T08:51:52Z</time>
      </trkpt>
      <trkpt lat="42.67754" lon="1.39814">
        <ele>2689.4252929688</ele>
        <time>2011-08-20T08:51:58Z</time>
      </trkpt>
      <trkpt lat="42.67752" lon="1.39817">
        <ele>2690.8676757812</ele>
        <time>2011-08-20T08:52:05Z</time>
      </trkpt>
      <trkpt lat="42.6775" lon="1.39821">
        <ele>2692.3095703125</ele>
        <time>2011-08-20T08:52:11Z</time>
      </trkpt>
      <trkpt lat="42.6775" lon="1.39821">
        <ele>2692.3095703125</ele>
        <time>2011-08-20T08:52:19Z</time>
      </trkpt>
      <trkpt lat="42.6775" lon="1.39822">
        <ele>2692.3095703125</ele>
        <time>2011-08-20T08:52:26Z</time>
      </trkpt>
      <trkpt lat="42.67746" lon="1.39826">
        <ele>2693.7514648438</ele>
        <time>2011-08-20T08:52:33Z</time>
      </trkpt>
      <trkpt lat="42.67744" lon="1.39831">
        <ele>2694.2319335938</ele>
        <time>2011-08-20T08:52:38Z</time>
      </trkpt>
      <trkpt lat="42.6774" lon="1.39837">
        <ele>2695.193359375</ele>
        <time>2011-08-20T08:52:45Z</time>
      </trkpt>
      <trkpt lat="42.67738" lon="1.39841">
        <ele>2696.6352539062</ele>
        <time>2011-08-20T08:52:51Z</time>
      </trkpt>
      <trkpt lat="42.67736" lon="1.39845">
        <ele>2697.5966796875</ele>
        <time>2011-08-20T08:52:56Z</time>
      </trkpt>
      <trkpt lat="42.67733" lon="1.39849">
        <ele>2699.5190429688</ele>
        <time>2011-08-20T08:53:02Z</time>
      </trkpt>
      <trkpt lat="42.67731" lon="1.39852">
        <ele>2700</ele>
        <time>2011-08-20T08:53:07Z</time>
      </trkpt>
      <trkpt lat="42.67728" lon="1.39857">
        <ele>2701.4418945312</ele>
        <time>2011-08-20T08:53:13Z</time>
      </trkpt>
      <trkpt lat="42.67725" lon="1.39865">
        <ele>2701.9223632812</ele>
        <time>2011-08-20T08:53:20Z</time>
      </trkpt>
      <trkpt lat="42.67723" lon="1.39872">
        <ele>2702.8837890625</ele>
        <time>2011-08-20T08:53:28Z</time>
      </trkpt>
      <trkpt lat="42.6772" lon="1.39874">
        <ele>2703.8452148438</ele>
        <time>2011-08-20T08:53:34Z</time>
      </trkpt>
      <trkpt lat="42.67719" lon="1.39878">
        <ele>2705.767578125</ele>
        <time>2011-08-20T08:53:40Z</time>
      </trkpt>
      <trkpt lat="42.67718" lon="1.39881">
        <ele>2707.2094726562</ele>
        <time>2011-08-20T08:53:46Z</time>
      </trkpt>
      <trkpt lat="42.67719" lon="1.39885">
        <ele>2708.1713867188</ele>
        <time>2011-08-20T08:53:51Z</time>
      </trkpt>
      <trkpt lat="42.67718" lon="1.39887">
        <ele>2709.1328125</ele>
        <time>2011-08-20T08:53:56Z</time>
      </trkpt>
      <trkpt lat="42.67716" lon="1.3989">
        <ele>2710.0942382812</ele>
        <time>2011-08-20T08:54:00Z</time>
      </trkpt>
      <trkpt lat="42.67714" lon="1.39891">
        <ele>2711.5361328125</ele>
        <time>2011-08-20T08:54:05Z</time>
      </trkpt>
      <trkpt lat="42.67712" lon="1.39895">
        <ele>2712.9780273438</ele>
        <time>2011-08-20T08:54:13Z</time>
      </trkpt>
      <trkpt lat="42.67711" lon="1.39897">
        <ele>2714.419921875</ele>
        <time>2011-08-20T08:54:20Z</time>
      </trkpt>
      <trkpt lat="42.67711" lon="1.39899">
        <ele>2714.900390625</ele>
        <time>2011-08-20T08:54:27Z</time>
      </trkpt>
      <trkpt lat="42.67709" lon="1.39899">
        <ele>2715.8618164062</ele>
        <time>2011-08-20T08:54:32Z</time>
      </trkpt>
      <trkpt lat="42.67707" lon="1.39903">
        <ele>2715.8618164062</ele>
        <time>2011-08-20T08:54:40Z</time>
      </trkpt>
      <trkpt lat="42.67705" lon="1.39904">
        <ele>2716.8232421875</ele>
        <time>2011-08-20T08:54:46Z</time>
      </trkpt>
      <trkpt lat="42.67704" lon="1.39905">
        <ele>2717.3037109375</ele>
        <time>2011-08-20T08:54:52Z</time>
      </trkpt>
      <trkpt lat="42.67701" lon="1.39913">
        <ele>2717.7846679688</ele>
        <time>2011-08-20T08:54:59Z</time>
      </trkpt>
      <trkpt lat="42.67697" lon="1.39917">
        <ele>2718.2651367188</ele>
        <time>2011-08-20T08:55:04Z</time>
      </trkpt>
      <trkpt lat="42.67693" lon="1.39914">
        <ele>2719.70703125</ele>
        <time>2011-08-20T08:55:11Z</time>
      </trkpt>
      <trkpt lat="42.67693" lon="1.39912">
        <ele>2721.1489257812</ele>
        <time>2011-08-20T08:55:17Z</time>
      </trkpt>
      <trkpt lat="42.67692" lon="1.3991">
        <ele>2722.5908203125</ele>
        <time>2011-08-20T08:55:23Z</time>
      </trkpt>
      <trkpt lat="42.6769" lon="1.39906">
        <ele>2723.5522460938</ele>
        <time>2011-08-20T08:55:28Z</time>
      </trkpt>
      <trkpt lat="42.67688" lon="1.39901">
        <ele>2725.4750976562</ele>
        <time>2011-08-20T08:55:34Z</time>
      </trkpt>
      <trkpt lat="42.67687" lon="1.39898">
        <ele>2726.4360351562</ele>
        <time>2011-08-20T08:55:39Z</time>
      </trkpt>
      <trkpt lat="42.67686" lon="1.39898">
        <ele>2728.8393554688</ele>
        <time>2011-08-20T08:55:45Z</time>
      </trkpt>
      <trkpt lat="42.67682" lon="1.39892">
        <ele>2730.28125</ele>
        <time>2011-08-20T08:55:53Z</time>
      </trkpt>
      <trkpt lat="42.67681" lon="1.3989">
        <ele>2730.7622070312</ele>
        <time>2011-08-20T08:55:57Z</time>
      </trkpt>
      <trkpt lat="42.67678" lon="1.39888">
        <ele>2731.2426757812</ele>
        <time>2011-08-20T08:56:03Z</time>
      </trkpt>
      <trkpt lat="42.67676" lon="1.39889">
        <ele>2732.2041015625</ele>
        <time>2011-08-20T08:56:09Z</time>
      </trkpt>
      <trkpt lat="42.67673" lon="1.39892">
        <ele>2733.6459960938</ele>
        <time>2011-08-20T08:56:16Z</time>
      </trkpt>
      <trkpt lat="42.67671" lon="1.39896">
        <ele>2735.087890625</ele>
        <time>2011-08-20T08:56:22Z</time>
      </trkpt>
      <trkpt lat="42.67667" lon="1.39896">
        <ele>2737.0107421875</ele>
        <time>2011-08-20T08:56:30Z</time>
      </trkpt>
      <trkpt lat="42.67665" lon="1.39896">
        <ele>2737.9716796875</ele>
        <time>2011-08-20T08:56:36Z</time>
      </trkpt>
      <trkpt lat="42.67662" lon="1.39899">
        <ele>2738.9331054688</ele>
        <time>2011-08-20T08:56:41Z</time>
      </trkpt>
      <trkpt lat="42.6766" lon="1.39897">
        <ele>2739.4140625</ele>
        <time>2011-08-20T08:56:45Z</time>
      </trkpt>
      <trkpt lat="42.67657" lon="1.39898">
        <ele>2740.3754882812</ele>
        <time>2011-08-20T08:56:51Z</time>
      </trkpt>
      <trkpt lat="42.67654" lon="1.39902">
        <ele>2741.3369140625</ele>
        <time>2011-08-20T08:56:57Z</time>
      </trkpt>
      <trkpt lat="42.67652" lon="1.39905">
        <ele>2742.2983398438</ele>
        <time>2011-08-20T08:57:03Z</time>
      </trkpt>
      <trkpt lat="42.6765" lon="1.39909">
        <ele>2743.740234375</ele>
        <time>2011-08-20T08:57:09Z</time>
      </trkpt>
      <trkpt lat="42.67648" lon="1.39909">
        <ele>2744.220703125</ele>
        <time>2011-08-20T08:57:14Z</time>
      </trkpt>
      <trkpt lat="42.67646" lon="1.39909">
        <ele>2744.7016601562</ele>
        <time>2011-08-20T08:57:20Z</time>
      </trkpt>
      <trkpt lat="42.67645" lon="1.39907">
        <ele>2745.6625976562</ele>
        <time>2011-08-20T08:57:24Z</time>
      </trkpt>
      <trkpt lat="42.67643" lon="1.39905">
        <ele>2747.1049804688</ele>
        <time>2011-08-20T08:57:29Z</time>
      </trkpt>
      <trkpt lat="42.6764" lon="1.39904">
        <ele>2748.0659179688</ele>
        <time>2011-08-20T08:57:34Z</time>
      </trkpt>
      <trkpt lat="42.67637" lon="1.39903">
        <ele>2749.5078125</ele>
        <time>2011-08-20T08:57:41Z</time>
      </trkpt>
      <trkpt lat="42.67633" lon="1.39905">
        <ele>2751.4306640625</ele>
        <time>2011-08-20T08:57:48Z</time>
      </trkpt>
      <trkpt lat="42.67631" lon="1.39903">
        <ele>2752.8725585938</ele>
        <time>2011-08-20T08:57:53Z</time>
      </trkpt>
      <trkpt lat="42.67628" lon="1.39903">
        <ele>2753.3530273438</ele>
        <time>2011-08-20T08:57:59Z</time>
      </trkpt>
      <trkpt lat="42.67625" lon="1.39906">
        <ele>2754.7954101562</ele>
        <time>2011-08-20T08:58:06Z</time>
      </trkpt>
      <trkpt lat="42.67623" lon="1.39906">
        <ele>2756.2373046875</ele>
        <time>2011-08-20T08:58:14Z</time>
      </trkpt>
      <trkpt lat="42.67622" lon="1.39904">
        <ele>2756.2373046875</ele>
        <time>2011-08-20T08:58:21Z</time>
      </trkpt>
      <trkpt lat="42.6762" lon="1.39902">
        <ele>2757.6791992188</ele>
        <time>2011-08-20T08:58:28Z</time>
      </trkpt>
      <trkpt lat="42.67618" lon="1.39899">
        <ele>2759.12109375</ele>
        <time>2011-08-20T08:58:33Z</time>
      </trkpt>
      <trkpt lat="42.67618" lon="1.39896">
        <ele>2759.6015625</ele>
        <time>2011-08-20T08:58:38Z</time>
      </trkpt>
      <trkpt lat="42.67616" lon="1.39894">
        <ele>2760.0825195312</ele>
        <time>2011-08-20T08:58:43Z</time>
      </trkpt>
      <trkpt lat="42.67614" lon="1.39892">
        <ele>2761.0434570312</ele>
        <time>2011-08-20T08:58:50Z</time>
      </trkpt>
      <trkpt lat="42.67612" lon="1.39889">
        <ele>2761.5244140625</ele>
        <time>2011-08-20T08:58:55Z</time>
      </trkpt>
      <trkpt lat="42.6761" lon="1.39888">
        <ele>2762.4858398438</ele>
        <time>2011-08-20T08:59:01Z</time>
      </trkpt>
      <trkpt lat="42.67606" lon="1.39888">
        <ele>2763.4467773438</ele>
        <time>2011-08-20T08:59:08Z</time>
      </trkpt>
      <trkpt lat="42.67604" lon="1.39885">
        <ele>2764.888671875</ele>
        <time>2011-08-20T08:59:13Z</time>
      </trkpt>
      <trkpt lat="42.67601" lon="1.39883">
        <ele>2765.8500976562</ele>
        <time>2011-08-20T08:59:18Z</time>
      </trkpt>
      <trkpt lat="42.67598" lon="1.39885">
        <ele>2766.8115234375</ele>
        <time>2011-08-20T08:59:23Z</time>
      </trkpt>
      <trkpt lat="42.67595" lon="1.39884">
        <ele>2768.2534179688</ele>
        <time>2011-08-20T08:59:29Z</time>
      </trkpt>
      <trkpt lat="42.67593" lon="1.39882">
        <ele>2768.7338867188</ele>
        <time>2011-08-20T08:59:34Z</time>
      </trkpt>
      <trkpt lat="42.6759" lon="1.39884">
        <ele>2769.6953125</ele>
        <time>2011-08-20T08:59:41Z</time>
      </trkpt>
      <trkpt lat="42.67588" lon="1.39887">
        <ele>2770.1762695312</ele>
        <time>2011-08-20T08:59:46Z</time>
      </trkpt>
      <trkpt lat="42.67582" lon="1.3989">
        <ele>2770.1762695312</ele>
        <time>2011-08-20T08:59:53Z</time>
      </trkpt>
      <trkpt lat="42.67577" lon="1.39891">
        <ele>2771.1372070312</ele>
        <time>2011-08-20T08:59:59Z</time>
      </trkpt>
      <trkpt lat="42.67573" lon="1.39888">
        <ele>2773.060546875</ele>
        <time>2011-08-20T09:00:05Z</time>
      </trkpt>
      <trkpt lat="42.67571" lon="1.3989">
        <ele>2774.021484375</ele>
        <time>2011-08-20T09:00:11Z</time>
      </trkpt>
      <trkpt lat="42.67568" lon="1.39894">
        <ele>2775.9443359375</ele>
        <time>2011-08-20T09:00:19Z</time>
      </trkpt>
      <trkpt lat="42.67565" lon="1.39892">
        <ele>2776.9057617188</ele>
        <time>2011-08-20T09:00:24Z</time>
      </trkpt>
      <trkpt lat="42.67564" lon="1.3989">
        <ele>2777.3862304688</ele>
        <time>2011-08-20T09:00:31Z</time>
      </trkpt>
      <trkpt lat="42.67563" lon="1.39888">
        <ele>2778.34765625</ele>
        <time>2011-08-20T09:00:37Z</time>
      </trkpt>
      <trkpt lat="42.67562" lon="1.39889">
        <ele>2779.3090820312</ele>
        <time>2011-08-20T09:00:42Z</time>
      </trkpt>
      <trkpt lat="42.67561" lon="1.39891">
        <ele>2779.7895507812</ele>
        <time>2011-08-20T09:00:48Z</time>
      </trkpt>
      <trkpt lat="42.67558" lon="1.39889">
        <ele>2780.7509765625</ele>
        <time>2011-08-20T09:00:53Z</time>
      </trkpt>
      <trkpt lat="42.67557" lon="1.39887">
        <ele>2782.1928710938</ele>
        <time>2011-08-20T09:00:59Z</time>
      </trkpt>
      <trkpt lat="42.67554" lon="1.39886">
        <ele>2783.634765625</ele>
        <time>2011-08-20T09:01:05Z</time>
      </trkpt>
      <trkpt lat="42.67552" lon="1.39886">
        <ele>2784.115234375</ele>
        <time>2011-08-20T09:01:10Z</time>
      </trkpt>
      <trkpt lat="42.6755" lon="1.39883">
        <ele>2785.0766601562</ele>
        <time>2011-08-20T09:01:16Z</time>
      </trkpt>
      <trkpt lat="42.67548" lon="1.39884">
        <ele>2786.5185546875</ele>
        <time>2011-08-20T09:01:22Z</time>
      </trkpt>
      <trkpt lat="42.67546" lon="1.39884">
        <ele>2788.44140625</ele>
        <time>2011-08-20T09:01:29Z</time>
      </trkpt>
      <trkpt lat="42.67547" lon="1.39883">
        <ele>2790.3637695312</ele>
        <time>2011-08-20T09:01:34Z</time>
      </trkpt>
      <trkpt lat="42.67547" lon="1.39882">
        <ele>2792.2866210938</ele>
        <time>2011-08-20T09:01:41Z</time>
      </trkpt>
      <trkpt lat="42.67545" lon="1.39883">
        <ele>2792.7670898438</ele>
        <time>2011-08-20T09:01:46Z</time>
      </trkpt>
      <trkpt lat="42.67545" lon="1.39886">
        <ele>2793.248046875</ele>
        <time>2011-08-20T09:01:52Z</time>
      </trkpt>
      <trkpt lat="42.67545" lon="1.39889">
        <ele>2793.728515625</ele>
        <time>2011-08-20T09:01:57Z</time>
      </trkpt>
      <trkpt lat="42.67542" lon="1.39888">
        <ele>2794.208984375</ele>
        <time>2011-08-20T09:02:02Z</time>
      </trkpt>
      <trkpt lat="42.67538" lon="1.39887">
        <ele>2795.6508789062</ele>
        <time>2011-08-20T09:02:09Z</time>
      </trkpt>
      <trkpt lat="42.67538" lon="1.3989">
        <ele>2796.1318359375</ele>
        <time>2011-08-20T09:02:13Z</time>
      </trkpt>
      <trkpt lat="42.67538" lon="1.39894">
        <ele>2796.6123046875</ele>
        <time>2011-08-20T09:02:19Z</time>
      </trkpt>
      <trkpt lat="42.67538" lon="1.39898">
        <ele>2798.0541992188</ele>
        <time>2011-08-20T09:02:24Z</time>
      </trkpt>
      <trkpt lat="42.67537" lon="1.39901">
        <ele>2799.49609375</ele>
        <time>2011-08-20T09:02:30Z</time>
      </trkpt>
      <trkpt lat="42.67536" lon="1.39905">
        <ele>2800.4575195312</ele>
        <time>2011-08-20T09:02:38Z</time>
      </trkpt>
      <trkpt lat="42.67536" lon="1.39912">
        <ele>2801.8994140625</ele>
        <time>2011-08-20T09:02:45Z</time>
      </trkpt>
      <trkpt lat="42.67535" lon="1.39916">
        <ele>2802.3803710938</ele>
        <time>2011-08-20T09:02:50Z</time>
      </trkpt>
      <trkpt lat="42.67534" lon="1.39917">
        <ele>2803.3413085938</ele>
        <time>2011-08-20T09:02:55Z</time>
      </trkpt>
      <trkpt lat="42.67532" lon="1.39921">
        <ele>2804.3032226562</ele>
        <time>2011-08-20T09:03:01Z</time>
      </trkpt>
      <trkpt lat="42.6753" lon="1.39922">
        <ele>2805.7451171875</ele>
        <time>2011-08-20T09:03:06Z</time>
      </trkpt>
      <trkpt lat="42.67528" lon="1.3992">
        <ele>2807.1870117188</ele>
        <time>2011-08-20T09:03:12Z</time>
      </trkpt>
      <trkpt lat="42.67527" lon="1.39917">
        <ele>2807.66796875</ele>
        <time>2011-08-20T09:03:17Z</time>
      </trkpt>
      <trkpt lat="42.67526" lon="1.39908">
        <ele>2809.1098632812</ele>
        <time>2011-08-20T09:03:25Z</time>
      </trkpt>
      <trkpt lat="42.67525" lon="1.39906">
        <ele>2810.5517578125</ele>
        <time>2011-08-20T09:03:30Z</time>
      </trkpt>
      <trkpt lat="42.67523" lon="1.39905">
        <ele>2812.4741210938</ele>
        <time>2011-08-20T09:03:36Z</time>
      </trkpt>
      <trkpt lat="42.67521" lon="1.39906">
        <ele>2814.3969726562</ele>
        <time>2011-08-20T09:03:41Z</time>
      </trkpt>
      <trkpt lat="42.67519" lon="1.39902">
        <ele>2815.3583984375</ele>
        <time>2011-08-20T09:03:47Z</time>
      </trkpt>
      <trkpt lat="42.67517" lon="1.39898">
        <ele>2815.8388671875</ele>
        <time>2011-08-20T09:03:53Z</time>
      </trkpt>
      <trkpt lat="42.67514" lon="1.39897">
        <ele>2817.2807617188</ele>
        <time>2011-08-20T09:03:59Z</time>
      </trkpt>
      <trkpt lat="42.67512" lon="1.39895">
        <ele>2819.2036132812</ele>
        <time>2011-08-20T09:04:07Z</time>
      </trkpt>
      <trkpt lat="42.67512" lon="1.39894">
        <ele>2818.72265625</ele>
        <time>2011-08-20T09:04:16Z</time>
      </trkpt>
      <trkpt lat="42.6751" lon="1.39892">
        <ele>2818.72265625</ele>
        <time>2011-08-20T09:04:24Z</time>
      </trkpt>
      <trkpt lat="42.67509" lon="1.39895">
        <ele>2820.1645507812</ele>
        <time>2011-08-20T09:04:32Z</time>
      </trkpt>
      <trkpt lat="42.67508" lon="1.399">
        <ele>2820.6455078125</ele>
        <time>2011-08-20T09:04:39Z</time>
      </trkpt>
      <trkpt lat="42.67507" lon="1.39903">
        <ele>2821.1259765625</ele>
        <time>2011-08-20T09:04:44Z</time>
      </trkpt>
      <trkpt lat="42.67504" lon="1.39905">
        <ele>2821.6069335938</ele>
        <time>2011-08-20T09:04:51Z</time>
      </trkpt>
      <trkpt lat="42.67502" lon="1.39902">
        <ele>2821.6069335938</ele>
        <time>2011-08-20T09:04:56Z</time>
      </trkpt>
      <trkpt lat="42.675" lon="1.39899">
        <ele>2823.048828125</ele>
        <time>2011-08-20T09:05:02Z</time>
      </trkpt>
      <trkpt lat="42.67498" lon="1.39898">
        <ele>2824.4907226562</ele>
        <time>2011-08-20T09:05:08Z</time>
      </trkpt>
      <trkpt lat="42.67497" lon="1.39901">
        <ele>2825.9326171875</ele>
        <time>2011-08-20T09:05:14Z</time>
      </trkpt>
      <trkpt lat="42.67495" lon="1.39903">
        <ele>2827.8549804688</ele>
        <time>2011-08-20T09:05:20Z</time>
      </trkpt>
      <trkpt lat="42.67493" lon="1.39904">
        <ele>2828.81640625</ele>
        <time>2011-08-20T09:05:26Z</time>
      </trkpt>
      <trkpt lat="42.67493" lon="1.39907">
        <ele>2829.7778320312</ele>
        <time>2011-08-20T09:05:31Z</time>
      </trkpt>
      <trkpt lat="42.67493" lon="1.39911">
        <ele>2830.2583007812</ele>
        <time>2011-08-20T09:05:37Z</time>
      </trkpt>
      <trkpt lat="42.67493" lon="1.39913">
        <ele>2831.2197265625</ele>
        <time>2011-08-20T09:05:44Z</time>
      </trkpt>
      <trkpt lat="42.67493" lon="1.39918">
        <ele>2832.1811523438</ele>
        <time>2011-08-20T09:05:51Z</time>
      </trkpt>
      <trkpt lat="42.67492" lon="1.3992">
        <ele>2833.142578125</ele>
        <time>2011-08-20T09:05:57Z</time>
      </trkpt>
      <trkpt lat="42.6749" lon="1.39919">
        <ele>2834.5844726562</ele>
        <time>2011-08-20T09:06:01Z</time>
      </trkpt>
      <trkpt lat="42.67487" lon="1.3992">
        <ele>2836.5073242188</ele>
        <time>2011-08-20T09:06:08Z</time>
      </trkpt>
      <trkpt lat="42.67487" lon="1.39921">
        <ele>2836.98828125</ele>
        <time>2011-08-20T09:06:14Z</time>
      </trkpt>
      <trkpt lat="42.67485" lon="1.39924">
        <ele>2838.4301757812</ele>
        <time>2011-08-20T09:06:19Z</time>
      </trkpt>
      <trkpt lat="42.67482" lon="1.39923">
        <ele>2839.3916015625</ele>
        <time>2011-08-20T09:06:25Z</time>
      </trkpt>
      <trkpt lat="42.6748" lon="1.39922">
        <ele>2840.3525390625</ele>
        <time>2011-08-20T09:06:31Z</time>
      </trkpt>
      <trkpt lat="42.67477" lon="1.39919">
        <ele>2840.8334960938</ele>
        <time>2011-08-20T09:06:37Z</time>
      </trkpt>
      <trkpt lat="42.67474" lon="1.39917">
        <ele>2842.275390625</ele>
        <time>2011-08-20T09:06:43Z</time>
      </trkpt>
      <trkpt lat="42.67473" lon="1.3992">
        <ele>2844.1977539062</ele>
        <time>2011-08-20T09:06:48Z</time>
      </trkpt>
      <trkpt lat="42.67469" lon="1.39923">
        <ele>2845.1591796875</ele>
        <time>2011-08-20T09:06:55Z</time>
      </trkpt>
      <trkpt lat="42.67466" lon="1.39923">
        <ele>2846.1206054688</ele>
        <time>2011-08-20T09:07:01Z</time>
      </trkpt>
      <trkpt lat="42.67459" lon="1.39923">
        <ele>2846.1206054688</ele>
        <time>2011-08-20T09:07:09Z</time>
      </trkpt>
      <trkpt lat="42.67453" lon="1.39924">
        <ele>2846.6010742188</ele>
        <time>2011-08-20T09:07:16Z</time>
      </trkpt>
      <trkpt lat="42.67451" lon="1.39925">
        <ele>2846.6010742188</ele>
        <time>2011-08-20T09:07:18Z</time>
      </trkpt>
      <trkpt lat="42.67447" lon="1.39928">
        <ele>2846.6010742188</ele>
        <time>2011-08-20T09:07:22Z</time>
      </trkpt>
      <trkpt lat="42.67438" lon="1.39938">
        <ele>2847.08203125</ele>
        <time>2011-08-20T09:07:31Z</time>
      </trkpt>
      <trkpt lat="42.67433" lon="1.39945">
        <ele>2847.5625</ele>
        <time>2011-08-20T09:07:37Z</time>
      </trkpt>
      <trkpt lat="42.67427" lon="1.39952">
        <ele>2847.08203125</ele>
        <time>2011-08-20T09:07:44Z</time>
      </trkpt>
      <trkpt lat="42.67423" lon="1.3995">
        <ele>2848.5239257812</ele>
        <time>2011-08-20T09:07:50Z</time>
      </trkpt>
      <trkpt lat="42.67419" lon="1.39949">
        <ele>2849.0043945312</ele>
        <time>2011-08-20T09:07:55Z</time>
      </trkpt>
      <trkpt lat="42.67414" lon="1.39952">
        <ele>2850.4462890625</ele>
        <time>2011-08-20T09:08:01Z</time>
      </trkpt>
      <trkpt lat="42.67408" lon="1.39949">
        <ele>2851.4077148438</ele>
        <time>2011-08-20T09:08:07Z</time>
      </trkpt>
      <trkpt lat="42.67403" lon="1.39946">
        <ele>2853.330078125</ele>
        <time>2011-08-20T09:08:14Z</time>
      </trkpt>
      <trkpt lat="42.67399" lon="1.39946">
        <ele>2854.2915039062</ele>
        <time>2011-08-20T09:08:20Z</time>
      </trkpt>
      <trkpt lat="42.67396" lon="1.39945">
        <ele>2855.7333984375</ele>
        <time>2011-08-20T09:08:26Z</time>
      </trkpt>
      <trkpt lat="42.67395" lon="1.39941">
        <ele>2857.1752929688</ele>
        <time>2011-08-20T09:08:32Z</time>
      </trkpt>
      <trkpt lat="42.67392" lon="1.39942">
        <ele>2858.13671875</ele>
        <time>2011-08-20T09:08:38Z</time>
      </trkpt>
      <trkpt lat="42.67387" lon="1.39946">
        <ele>2859.0981445312</ele>
        <time>2011-08-20T09:08:45Z</time>
      </trkpt>
      <trkpt lat="42.67384" lon="1.39946">
        <ele>2859.0981445312</ele>
        <time>2011-08-20T09:08:51Z</time>
      </trkpt>
      <trkpt lat="42.67378" lon="1.3995">
        <ele>2860.0595703125</ele>
        <time>2011-08-20T09:08:59Z</time>
      </trkpt>
      <trkpt lat="42.67373" lon="1.39952">
        <ele>2861.5014648438</ele>
        <time>2011-08-20T09:09:06Z</time>
      </trkpt>
      <trkpt lat="42.6737" lon="1.39961">
        <ele>2861.5014648438</ele>
        <time>2011-08-20T09:09:13Z</time>
      </trkpt>
      <trkpt lat="42.67368" lon="1.39963">
        <ele>2861.5014648438</ele>
        <time>2011-08-20T09:09:16Z</time>
      </trkpt>
      <trkpt lat="42.67361" lon="1.39967">
        <ele>2861.9819335938</ele>
        <time>2011-08-20T09:09:24Z</time>
      </trkpt>
      <trkpt lat="42.67357" lon="1.39968">
        <ele>2862.462890625</ele>
        <time>2011-08-20T09:09:30Z</time>
      </trkpt>
      <trkpt lat="42.67353" lon="1.39966">
        <ele>2862.943359375</ele>
        <time>2011-08-20T09:09:35Z</time>
      </trkpt>
      <trkpt lat="42.67352" lon="1.39966">
        <ele>2862.462890625</ele>
        <time>2011-08-20T09:09:39Z</time>
      </trkpt>
      <trkpt lat="42.67346" lon="1.39966">
        <ele>2863.423828125</ele>
        <time>2011-08-20T09:09:46Z</time>
      </trkpt>
      <trkpt lat="42.67343" lon="1.39965">
        <ele>2863.9047851562</ele>
        <time>2011-08-20T09:09:51Z</time>
      </trkpt>
      <trkpt lat="42.67341" lon="1.39965">
        <ele>2865.3466796875</ele>
        <time>2011-08-20T09:09:55Z</time>
      </trkpt>
      <trkpt lat="42.67337" lon="1.3997">
        <ele>2866.7885742188</ele>
        <time>2011-08-20T09:10:02Z</time>
      </trkpt>
      <trkpt lat="42.67332" lon="1.39977">
        <ele>2867.75</ele>
        <time>2011-08-20T09:10:09Z</time>
      </trkpt>
      <trkpt lat="42.67329" lon="1.39979">
        <ele>2868.7114257812</ele>
        <time>2011-08-20T09:10:15Z</time>
      </trkpt>
      <trkpt lat="42.67326" lon="1.39977">
        <ele>2869.1923828125</ele>
        <time>2011-08-20T09:10:20Z</time>
      </trkpt>
      <trkpt lat="42.67326" lon="1.39971">
        <ele>2871.1147460938</ele>
        <time>2011-08-20T09:10:27Z</time>
      </trkpt>
      <trkpt lat="42.67326" lon="1.39967">
        <ele>2872.076171875</ele>
        <time>2011-08-20T09:10:32Z</time>
      </trkpt>
      <trkpt lat="42.67324" lon="1.39966">
        <ele>2872.556640625</ele>
        <time>2011-08-20T09:10:37Z</time>
      </trkpt>
      <trkpt lat="42.67323" lon="1.39964">
        <ele>2873.5180664062</ele>
        <time>2011-08-20T09:10:41Z</time>
      </trkpt>
      <trkpt lat="42.67321" lon="1.39963">
        <ele>2873.9985351562</ele>
        <time>2011-08-20T09:10:45Z</time>
      </trkpt>
      <trkpt lat="42.67318" lon="1.39962">
        <ele>2874.4794921875</ele>
        <time>2011-08-20T09:10:50Z</time>
      </trkpt>
      <trkpt lat="42.67314" lon="1.3996">
        <ele>2874.9599609375</ele>
        <time>2011-08-20T09:10:56Z</time>
      </trkpt>
      <trkpt lat="42.67308" lon="1.39959">
        <ele>2877.36328125</ele>
        <time>2011-08-20T09:11:04Z</time>
      </trkpt>
      <trkpt lat="42.67306" lon="1.39956">
        <ele>2878.3247070312</ele>
        <time>2011-08-20T09:11:09Z</time>
      </trkpt>
      <trkpt lat="42.67304" lon="1.39954">
        <ele>2877.36328125</ele>
        <time>2011-08-20T09:11:14Z</time>
      </trkpt>
      <trkpt lat="42.67301" lon="1.39954">
        <ele>2876.8828125</ele>
        <time>2011-08-20T09:11:18Z</time>
      </trkpt>
      <trkpt lat="42.67299" lon="1.39953">
        <ele>2877.8442382812</ele>
        <time>2011-08-20T09:11:24Z</time>
      </trkpt>
      <trkpt lat="42.67296" lon="1.39953">
        <ele>2878.8051757812</ele>
        <time>2011-08-20T09:11:29Z</time>
      </trkpt>
      <trkpt lat="42.67293" lon="1.39951">
        <ele>2879.7666015625</ele>
        <time>2011-08-20T09:11:35Z</time>
      </trkpt>
      <trkpt lat="42.67291" lon="1.3995">
        <ele>2880.7280273438</ele>
        <time>2011-08-20T09:11:40Z</time>
      </trkpt>
      <trkpt lat="42.67288" lon="1.39948">
        <ele>2881.2084960938</ele>
        <time>2011-08-20T09:11:46Z</time>
      </trkpt>
      <trkpt lat="42.67285" lon="1.39946">
        <ele>2882.650390625</ele>
        <time>2011-08-20T09:11:54Z</time>
      </trkpt>
      <trkpt lat="42.67281" lon="1.39946">
        <ele>2883.6118164062</ele>
        <time>2011-08-20T09:12:01Z</time>
      </trkpt>
      <trkpt lat="42.67275" lon="1.39945">
        <ele>2883.6118164062</ele>
        <time>2011-08-20T09:12:09Z</time>
      </trkpt>
      <trkpt lat="42.67269" lon="1.39943">
        <ele>2884.0922851562</ele>
        <time>2011-08-20T09:12:16Z</time>
      </trkpt>
      <trkpt lat="42.67265" lon="1.39941">
        <ele>2885.0537109375</ele>
        <time>2011-08-20T09:12:24Z</time>
      </trkpt>
      <trkpt lat="42.67262" lon="1.39941">
        <ele>2885.0537109375</ele>
        <time>2011-08-20T09:12:30Z</time>
      </trkpt>
      <trkpt lat="42.67258" lon="1.39939">
        <ele>2885.0537109375</ele>
        <time>2011-08-20T09:12:37Z</time>
      </trkpt>
      <trkpt lat="42.67258" lon="1.39938">
        <ele>2884.5732421875</ele>
        <time>2011-08-20T09:12:45Z</time>
      </trkpt>
      <trkpt lat="42.67258" lon="1.39939">
        <ele>2885.5346679688</ele>
        <time>2011-08-20T09:12:53Z</time>
      </trkpt>
      <trkpt lat="42.67258" lon="1.3994">
        <ele>2885.5346679688</ele>
        <time>2011-08-20T09:13:00Z</time>
      </trkpt>
      <trkpt lat="42.67255" lon="1.39938">
        <ele>2885.5346679688</ele>
        <time>2011-08-20T09:13:11Z</time>
      </trkpt>
      <trkpt lat="42.6725" lon="1.39937">
        <ele>2886.0151367188</ele>
        <time>2011-08-20T09:13:17Z</time>
      </trkpt>
      <trkpt lat="42.67245" lon="1.39938">
        <ele>2887.45703125</ele>
        <time>2011-08-20T09:13:23Z</time>
      </trkpt>
      <trkpt lat="42.67241" lon="1.39934">
        <ele>2888.8989257812</ele>
        <time>2011-08-20T09:13:30Z</time>
      </trkpt>
      <trkpt lat="42.67236" lon="1.39934">
        <ele>2890.3408203125</ele>
        <time>2011-08-20T09:13:38Z</time>
      </trkpt>
      <trkpt lat="42.67233" lon="1.39934">
        <ele>2891.7827148438</ele>
        <time>2011-08-20T09:13:44Z</time>
      </trkpt>
      <trkpt lat="42.67228" lon="1.39935">
        <ele>2891.7827148438</ele>
        <time>2011-08-20T09:13:51Z</time>
      </trkpt>
      <trkpt lat="42.67225" lon="1.39936">
        <ele>2892.744140625</ele>
        <time>2011-08-20T09:13:58Z</time>
      </trkpt>
      <trkpt lat="42.67221" lon="1.39936">
        <ele>2893.7055664062</ele>
        <time>2011-08-20T09:14:05Z</time>
      </trkpt>
      <trkpt lat="42.67218" lon="1.39938">
        <ele>2894.6669921875</ele>
        <time>2011-08-20T09:14:11Z</time>
      </trkpt>
      <trkpt lat="42.67215" lon="1.39939">
        <ele>2894.6669921875</ele>
        <time>2011-08-20T09:14:17Z</time>
      </trkpt>
      <trkpt lat="42.67211" lon="1.39941">
        <ele>2895.6279296875</ele>
        <time>2011-08-20T09:14:24Z</time>
      </trkpt>
      <trkpt lat="42.67208" lon="1.39944">
        <ele>2895.1474609375</ele>
        <time>2011-08-20T09:14:30Z</time>
      </trkpt>
      <trkpt lat="42.67206" lon="1.39949">
        <ele>2894.1860351562</ele>
        <time>2011-08-20T09:14:37Z</time>
      </trkpt>
      <trkpt lat="42.67204" lon="1.39954">
        <ele>2893.2250976562</ele>
        <time>2011-08-20T09:14:42Z</time>
      </trkpt>
      <trkpt lat="42.67202" lon="1.39958">
        <ele>2893.2250976562</ele>
        <time>2011-08-20T09:14:48Z</time>
      </trkpt>
      <trkpt lat="42.67199" lon="1.39963">
        <ele>2894.1860351562</ele>
        <time>2011-08-20T09:14:53Z</time>
      </trkpt>
      <trkpt lat="42.67198" lon="1.39965">
        <ele>2895.1474609375</ele>
        <time>2011-08-20T09:14:59Z</time>
      </trkpt>
      <trkpt lat="42.67194" lon="1.39965">
        <ele>2897.0698242188</ele>
        <time>2011-08-20T09:15:05Z</time>
      </trkpt>
      <trkpt lat="42.67192" lon="1.39965">
        <ele>2898.03125</ele>
        <time>2011-08-20T09:15:11Z</time>
      </trkpt>
      <trkpt lat="42.67189" lon="1.39963">
        <ele>2898.5122070312</ele>
        <time>2011-08-20T09:15:16Z</time>
      </trkpt>
      <trkpt lat="42.67188" lon="1.39962">
        <ele>2899.4731445312</ele>
        <time>2011-08-20T09:15:20Z</time>
      </trkpt>
      <trkpt lat="42.67186" lon="1.39962">
        <ele>2900.916015625</ele>
        <time>2011-08-20T09:15:27Z</time>
      </trkpt>
      <trkpt lat="42.67182" lon="1.39965">
        <ele>2901.876953125</ele>
        <time>2011-08-20T09:15:33Z</time>
      </trkpt>
      <trkpt lat="42.67179" lon="1.39966">
        <ele>2902.3579101562</ele>
        <time>2011-08-20T09:15:39Z</time>
      </trkpt>
      <trkpt lat="42.67177" lon="1.39966">
        <ele>2903.7998046875</ele>
        <time>2011-08-20T09:15:44Z</time>
      </trkpt>
      <trkpt lat="42.67174" lon="1.39967">
        <ele>2904.2802734375</ele>
        <time>2011-08-20T09:15:48Z</time>
      </trkpt>
      <trkpt lat="42.67173" lon="1.39967">
        <ele>2904.2802734375</ele>
        <time>2011-08-20T09:15:55Z</time>
      </trkpt>
      <trkpt lat="42.67172" lon="1.39968">
        <ele>2905.2416992188</ele>
        <time>2011-08-20T09:16:01Z</time>
      </trkpt>
      <trkpt lat="42.6717" lon="1.39971">
        <ele>2904.7607421875</ele>
        <time>2011-08-20T09:16:07Z</time>
      </trkpt>
      <trkpt lat="42.67168" lon="1.3997">
        <ele>2905.2416992188</ele>
        <time>2011-08-20T09:16:13Z</time>
      </trkpt>
      <trkpt lat="42.67165" lon="1.39969">
        <ele>2906.68359375</ele>
        <time>2011-08-20T09:16:19Z</time>
      </trkpt>
      <trkpt lat="42.67163" lon="1.39969">
        <ele>2907.1640625</ele>
        <time>2011-08-20T09:16:24Z</time>
      </trkpt>
      <trkpt lat="42.67162" lon="1.39968">
        <ele>2907.1640625</ele>
        <time>2011-08-20T09:16:31Z</time>
      </trkpt>
      <trkpt lat="42.6716" lon="1.39968">
        <ele>2910.5288085938</ele>
        <time>2011-08-20T09:16:42Z</time>
      </trkpt>
      <trkpt lat="42.6716" lon="1.39968">
        <ele>2908.6064453125</ele>
        <time>2011-08-20T09:16:53Z</time>
      </trkpt>
      <trkpt lat="42.6716" lon="1.39967">
        <ele>2906.68359375</ele>
        <time>2011-08-20T09:17:08Z</time>
      </trkpt>
      <trkpt lat="42.67159" lon="1.39967">
        <ele>2907.1640625</ele>
        <time>2011-08-20T09:17:14Z</time>
      </trkpt>
      <trkpt lat="42.67155" lon="1.39967">
        <ele>2908.6064453125</ele>
        <time>2011-08-20T09:17:22Z</time>
      </trkpt>
      <trkpt lat="42.67153" lon="1.39968">
        <ele>2909.5673828125</ele>
        <time>2011-08-20T09:17:27Z</time>
      </trkpt>
      <trkpt lat="42.6715" lon="1.39969">
        <ele>2910.0483398438</ele>
        <time>2011-08-20T09:17:33Z</time>
      </trkpt>
      <trkpt lat="42.67148" lon="1.39969">
        <ele>2911.0092773438</ele>
        <time>2011-08-20T09:17:40Z</time>
      </trkpt>
      <trkpt lat="42.67149" lon="1.39974">
        <ele>2911.970703125</ele>
        <time>2011-08-20T09:17:47Z</time>
      </trkpt>
      <trkpt lat="42.67144" lon="1.39978">
        <ele>2911.970703125</ele>
        <time>2011-08-20T09:17:54Z</time>
      </trkpt>
      <trkpt lat="42.67142" lon="1.39977">
        <ele>2910.5288085938</ele>
        <time>2011-08-20T09:18:00Z</time>
      </trkpt>
      <trkpt lat="42.67138" lon="1.39976">
        <ele>2908.6064453125</ele>
        <time>2011-08-20T09:18:06Z</time>
      </trkpt>
      <trkpt lat="42.67135" lon="1.39979">
        <ele>2908.1254882812</ele>
        <time>2011-08-20T09:18:12Z</time>
      </trkpt>
      <trkpt lat="42.67133" lon="1.39983">
        <ele>2909.0869140625</ele>
        <time>2011-08-20T09:18:18Z</time>
      </trkpt>
      <trkpt lat="42.67132" lon="1.39985">
        <ele>2910.5288085938</ele>
        <time>2011-08-20T09:18:23Z</time>
      </trkpt>
      <trkpt lat="42.67131" lon="1.39989">
        <ele>2911.970703125</ele>
        <time>2011-08-20T09:18:29Z</time>
      </trkpt>
      <trkpt lat="42.6713" lon="1.39993">
        <ele>2913.4125976562</ele>
        <time>2011-08-20T09:18:36Z</time>
      </trkpt>
      <trkpt lat="42.67128" lon="1.39996">
        <ele>2914.3740234375</ele>
        <time>2011-08-20T09:18:44Z</time>
      </trkpt>
      <trkpt lat="42.67125" lon="1.39998">
        <ele>2914.3740234375</ele>
        <time>2011-08-20T09:18:50Z</time>
      </trkpt>
      <trkpt lat="42.67125" lon="1.40002">
        <ele>2916.296875</ele>
        <time>2011-08-20T09:18:56Z</time>
      </trkpt>
      <trkpt lat="42.67124" lon="1.40005">
        <ele>2917.7387695312</ele>
        <time>2011-08-20T09:19:01Z</time>
      </trkpt>
      <trkpt lat="42.67122" lon="1.40009">
        <ele>2918.6997070312</ele>
        <time>2011-08-20T09:19:07Z</time>
      </trkpt>
      <trkpt lat="42.67121" lon="1.40014">
        <ele>2919.1806640625</ele>
        <time>2011-08-20T09:19:12Z</time>
      </trkpt>
      <trkpt lat="42.67119" lon="1.4002">
        <ele>2919.6611328125</ele>
        <time>2011-08-20T09:19:19Z</time>
      </trkpt>
      <trkpt lat="42.67118" lon="1.40023">
        <ele>2920.1416015625</ele>
        <time>2011-08-20T09:19:24Z</time>
      </trkpt>
      <trkpt lat="42.67116" lon="1.40028">
        <ele>2922.064453125</ele>
        <time>2011-08-20T09:19:31Z</time>
      </trkpt>
      <trkpt lat="42.67114" lon="1.40031">
        <ele>2922.544921875</ele>
        <time>2011-08-20T09:19:38Z</time>
      </trkpt>
      <trkpt lat="42.67113" lon="1.40031">
        <ele>2923.0258789062</ele>
        <time>2011-08-20T09:19:45Z</time>
      </trkpt>
      <trkpt lat="42.67115" lon="1.40032">
        <ele>2922.064453125</ele>
        <time>2011-08-20T09:20:01Z</time>
      </trkpt>
      <trkpt lat="42.67115" lon="1.40035">
        <ele>2923.5063476562</ele>
        <time>2011-08-20T09:20:36Z</time>
      </trkpt>
      <trkpt lat="42.67114" lon="1.40038">
        <ele>2924.9482421875</ele>
        <time>2011-08-20T09:20:41Z</time>
      </trkpt>
      <trkpt lat="42.67114" lon="1.40042">
        <ele>2926.87109375</ele>
        <time>2011-08-20T09:20:46Z</time>
      </trkpt>
      <trkpt lat="42.67113" lon="1.40047">
        <ele>2928.3129882812</ele>
        <time>2011-08-20T09:20:52Z</time>
      </trkpt>
      <trkpt lat="42.67112" lon="1.4005">
        <ele>2928.7934570312</ele>
        <time>2011-08-20T09:20:58Z</time>
      </trkpt>
      <trkpt lat="42.67112" lon="1.40053">
        <ele>2928.3129882812</ele>
        <time>2011-08-20T09:21:04Z</time>
      </trkpt>
      <trkpt lat="42.67111" lon="1.40054">
        <ele>2928.7934570312</ele>
        <time>2011-08-20T09:21:13Z</time>
      </trkpt>
      <trkpt lat="42.6711" lon="1.40056">
        <ele>2928.3129882812</ele>
        <time>2011-08-20T09:21:22Z</time>
      </trkpt>
      <trkpt lat="42.6711" lon="1.40054">
        <ele>2929.2744140625</ele>
        <time>2011-08-20T09:21:29Z</time>
      </trkpt>
      <trkpt lat="42.6711" lon="1.40054">
        <ele>2928.3129882812</ele>
        <time>2011-08-20T09:21:34Z</time>
      </trkpt>
      <trkpt lat="42.67111" lon="1.40056">
        <ele>2927.3515625</ele>
        <time>2011-08-20T09:21:44Z</time>
      </trkpt>
      <trkpt lat="42.6711" lon="1.40058">
        <ele>2926.87109375</ele>
        <time>2011-08-20T09:22:02Z</time>
      </trkpt>
      <trkpt lat="42.6711" lon="1.40057">
        <ele>2927.83203125</ele>
        <time>2011-08-20T09:22:10Z</time>
      </trkpt>
      <trkpt lat="42.6711" lon="1.40056">
        <ele>2927.83203125</ele>
        <time>2011-08-20T09:22:17Z</time>
      </trkpt>
      <trkpt lat="42.67108" lon="1.4006">
        <ele>2927.83203125</ele>
        <time>2011-08-20T09:22:53Z</time>
      </trkpt>
      <trkpt lat="42.67106" lon="1.40065">
        <ele>2929.2744140625</ele>
        <time>2011-08-20T09:23:01Z</time>
      </trkpt>
      <trkpt lat="42.67105" lon="1.40067">
        <ele>2930.7163085938</ele>
        <time>2011-08-20T09:23:07Z</time>
      </trkpt>
      <trkpt lat="42.67103" lon="1.4007">
        <ele>2933.1201171875</ele>
        <time>2011-08-20T09:23:13Z</time>
      </trkpt>
      <trkpt lat="42.67099" lon="1.40071">
        <ele>2934.0810546875</ele>
        <time>2011-08-20T09:23:20Z</time>
      </trkpt>
      <trkpt lat="42.67093" lon="1.40077">
        <ele>2934.0810546875</ele>
        <time>2011-08-20T09:23:29Z</time>
      </trkpt>
      <trkpt lat="42.6709" lon="1.40082">
        <ele>2934.5620117188</ele>
        <time>2011-08-20T09:23:35Z</time>
      </trkpt>
      <trkpt lat="42.67086" lon="1.40086">
        <ele>2935.0424804688</ele>
        <time>2011-08-20T09:23:42Z</time>
      </trkpt>
      <trkpt lat="42.67083" lon="1.4009">
        <ele>2936.00390625</ele>
        <time>2011-08-20T09:23:48Z</time>
      </trkpt>
      <trkpt lat="42.67083" lon="1.40094">
        <ele>2937.4458007812</ele>
        <time>2011-08-20T09:23:53Z</time>
      </trkpt>
      <trkpt lat="42.67083" lon="1.40096">
        <ele>2938.8876953125</ele>
        <time>2011-08-20T09:23:58Z</time>
      </trkpt>
      <trkpt lat="42.67083" lon="1.40099">
        <ele>2939.3686523438</ele>
        <time>2011-08-20T09:24:01Z</time>
      </trkpt>
      <trkpt lat="42.67083" lon="1.40101">
        <ele>2940.3295898438</ele>
        <time>2011-08-20T09:24:05Z</time>
      </trkpt>
      <trkpt lat="42.67085" lon="1.40103">
        <ele>2941.291015625</ele>
        <time>2011-08-20T09:24:10Z</time>
      </trkpt>
      <trkpt lat="42.67085" lon="1.40105">
        <ele>2941.771484375</ele>
        <time>2011-08-20T09:24:14Z</time>
      </trkpt>
      <trkpt lat="42.67085" lon="1.40107">
        <ele>2942.2524414062</ele>
        <time>2011-08-20T09:24:19Z</time>
      </trkpt>
      <trkpt lat="42.67081" lon="1.4011">
        <ele>2942.2524414062</ele>
        <time>2011-08-20T09:24:24Z</time>
      </trkpt>
      <trkpt lat="42.67082" lon="1.40112">
        <ele>2943.6943359375</ele>
        <time>2011-08-20T09:24:29Z</time>
      </trkpt>
      <trkpt lat="42.6708" lon="1.40115">
        <ele>2944.1748046875</ele>
        <time>2011-08-20T09:24:34Z</time>
      </trkpt>
      <trkpt lat="42.6708" lon="1.40117">
        <ele>2946.09765625</ele>
        <time>2011-08-20T09:24:41Z</time>
      </trkpt>
      <trkpt lat="42.67081" lon="1.40116">
        <ele>2947.5395507812</ele>
        <time>2011-08-20T09:24:47Z</time>
      </trkpt>
      <trkpt lat="42.67084" lon="1.40116">
        <ele>2949.4619140625</ele>
        <time>2011-08-20T09:24:53Z</time>
      </trkpt>
      <trkpt lat="42.67086" lon="1.40119">
        <ele>2951.384765625</ele>
        <time>2011-08-20T09:24:59Z</time>
      </trkpt>
      <trkpt lat="42.67084" lon="1.40124">
        <ele>2951.384765625</ele>
        <time>2011-08-20T09:25:05Z</time>
      </trkpt>
      <trkpt lat="42.67083" lon="1.40126">
        <ele>2951.865234375</ele>
        <time>2011-08-20T09:25:09Z</time>
      </trkpt>
      <trkpt lat="42.67084" lon="1.40128">
        <ele>2952.8266601562</ele>
        <time>2011-08-20T09:25:14Z</time>
      </trkpt>
      <trkpt lat="42.67086" lon="1.4013">
        <ele>2953.7880859375</ele>
        <time>2011-08-20T09:25:20Z</time>
      </trkpt>
      <trkpt lat="42.67084" lon="1.40134">
        <ele>2955.2299804688</ele>
        <time>2011-08-20T09:25:26Z</time>
      </trkpt>
      <trkpt lat="42.67084" lon="1.40135">
        <ele>2955.7104492188</ele>
        <time>2011-08-20T09:25:31Z</time>
      </trkpt>
      <trkpt lat="42.67085" lon="1.40137">
        <ele>2956.671875</ele>
        <time>2011-08-20T09:25:35Z</time>
      </trkpt>
      <trkpt lat="42.67084" lon="1.4014">
        <ele>2958.1137695312</ele>
        <time>2011-08-20T09:25:41Z</time>
      </trkpt>
      <trkpt lat="42.67084" lon="1.40142">
        <ele>2959.5556640625</ele>
        <time>2011-08-20T09:25:46Z</time>
      </trkpt>
      <trkpt lat="42.67084" lon="1.40142">
        <ele>2959.5556640625</ele>
        <time>2011-08-20T09:25:50Z</time>
      </trkpt>
      <trkpt lat="42.67085" lon="1.40143">
        <ele>2959.0751953125</ele>
        <time>2011-08-20T09:26:06Z</time>
      </trkpt>
      <trkpt lat="42.67088" lon="1.40145">
        <ele>2960.0366210938</ele>
        <time>2011-08-20T09:26:12Z</time>
      </trkpt>
      <trkpt lat="42.67087" lon="1.4015">
        <ele>2961.478515625</ele>
        <time>2011-08-20T09:26:18Z</time>
      </trkpt>
      <trkpt lat="42.67088" lon="1.40151">
        <ele>2962.9204101562</ele>
        <time>2011-08-20T09:26:23Z</time>
      </trkpt>
      <trkpt lat="42.67087" lon="1.40156">
        <ele>2963.8818359375</ele>
        <time>2011-08-20T09:26:29Z</time>
      </trkpt>
      <trkpt lat="42.67086" lon="1.40157">
        <ele>2962.9204101562</ele>
        <time>2011-08-20T09:26:36Z</time>
      </trkpt>
      <trkpt lat="42.67084" lon="1.4016">
        <ele>2964.3627929688</ele>
        <time>2011-08-20T09:26:43Z</time>
      </trkpt>
      <trkpt lat="42.67086" lon="1.40161">
        <ele>2965.32421875</ele>
        <time>2011-08-20T09:26:48Z</time>
      </trkpt>
      <trkpt lat="42.67089" lon="1.40162">
        <ele>2966.7661132812</ele>
        <time>2011-08-20T09:26:54Z</time>
      </trkpt>
      <trkpt lat="42.67088" lon="1.40165">
        <ele>2967.7275390625</ele>
        <time>2011-08-20T09:26:59Z</time>
      </trkpt>
      <trkpt lat="42.67087" lon="1.40168">
        <ele>2967.7275390625</ele>
        <time>2011-08-20T09:27:05Z</time>
      </trkpt>
      <trkpt lat="42.67087" lon="1.40171">
        <ele>2968.6884765625</ele>
        <time>2011-08-20T09:27:11Z</time>
      </trkpt>
      <trkpt lat="42.67088" lon="1.40173">
        <ele>2970.130859375</ele>
        <time>2011-08-20T09:27:15Z</time>
      </trkpt>
      <trkpt lat="42.67089" lon="1.40172">
        <ele>2971.091796875</ele>
        <time>2011-08-20T09:27:21Z</time>
      </trkpt>
      <trkpt lat="42.67091" lon="1.40174">
        <ele>2971.5727539062</ele>
        <time>2011-08-20T09:27:27Z</time>
      </trkpt>
      <trkpt lat="42.67094" lon="1.40175">
        <ele>2972.5336914062</ele>
        <time>2011-08-20T09:27:32Z</time>
      </trkpt>
      <trkpt lat="42.67093" lon="1.40179">
        <ele>2973.4951171875</ele>
        <time>2011-08-20T09:27:38Z</time>
      </trkpt>
      <trkpt lat="42.67091" lon="1.40183">
        <ele>2974.4565429688</ele>
        <time>2011-08-20T09:27:43Z</time>
      </trkpt>
      <trkpt lat="42.6709" lon="1.40186">
        <ele>2974.9370117188</ele>
        <time>2011-08-20T09:27:48Z</time>
      </trkpt>
      <trkpt lat="42.67089" lon="1.40187">
        <ele>2975.41796875</ele>
        <time>2011-08-20T09:27:55Z</time>
      </trkpt>
      <trkpt lat="42.67087" lon="1.40191">
        <ele>2975.41796875</ele>
        <time>2011-08-20T09:28:08Z</time>
      </trkpt>
      <trkpt lat="42.67083" lon="1.40194">
        <ele>2976.8598632812</ele>
        <time>2011-08-20T09:28:15Z</time>
      </trkpt>
      <trkpt lat="42.67081" lon="1.40196">
        <ele>2978.7822265625</ele>
        <time>2011-08-20T09:28:20Z</time>
      </trkpt>
      <trkpt lat="42.67083" lon="1.40199">
        <ele>2980.2241210938</ele>
        <time>2011-08-20T09:28:26Z</time>
      </trkpt>
      <trkpt lat="42.67081" lon="1.40202">
        <ele>2981.185546875</ele>
        <time>2011-08-20T09:28:32Z</time>
      </trkpt>
      <trkpt lat="42.67082" lon="1.40204">
        <ele>2981.666015625</ele>
        <time>2011-08-20T09:28:37Z</time>
      </trkpt>
      <trkpt lat="42.67083" lon="1.40207">
        <ele>2982.6274414062</ele>
        <time>2011-08-20T09:28:42Z</time>
      </trkpt>
      <trkpt lat="42.67081" lon="1.40209">
        <ele>2983.1083984375</ele>
        <time>2011-08-20T09:28:49Z</time>
      </trkpt>
      <trkpt lat="42.6708" lon="1.4021">
        <ele>2984.0693359375</ele>
        <time>2011-08-20T09:29:02Z</time>
      </trkpt>
      <trkpt lat="42.67081" lon="1.40211">
        <ele>2984.0693359375</ele>
        <time>2011-08-20T09:29:15Z</time>
      </trkpt>
      <trkpt lat="42.67081" lon="1.40215">
        <ele>2985.51171875</ele>
        <time>2011-08-20T09:29:20Z</time>
      </trkpt>
      <trkpt lat="42.67082" lon="1.40218">
        <ele>2986.47265625</ele>
        <time>2011-08-20T09:29:26Z</time>
      </trkpt>
      <trkpt lat="42.67083" lon="1.40223">
        <ele>2987.4340820312</ele>
        <time>2011-08-20T09:29:32Z</time>
      </trkpt>
      <trkpt lat="42.67085" lon="1.40225">
        <ele>2988.3955078125</ele>
        <time>2011-08-20T09:29:38Z</time>
      </trkpt>
      <trkpt lat="42.67088" lon="1.40224">
        <ele>2989.8374023438</ele>
        <time>2011-08-20T09:29:44Z</time>
      </trkpt>
      <trkpt lat="42.67091" lon="1.40226">
        <ele>2991.279296875</ele>
        <time>2011-08-20T09:29:50Z</time>
      </trkpt>
      <trkpt lat="42.67091" lon="1.4023">
        <ele>2992.2407226562</ele>
        <time>2011-08-20T09:29:55Z</time>
      </trkpt>
      <trkpt lat="42.67092" lon="1.40232">
        <ele>2993.2021484375</ele>
        <time>2011-08-20T09:30:00Z</time>
      </trkpt>
      <trkpt lat="42.67093" lon="1.40231">
        <ele>2994.6440429688</ele>
        <time>2011-08-20T09:30:07Z</time>
      </trkpt>
      <trkpt lat="42.67096" lon="1.40232">
        <ele>2995.6049804688</ele>
        <time>2011-08-20T09:30:12Z</time>
      </trkpt>
      <trkpt lat="42.67098" lon="1.40233">
        <ele>2996.5668945312</ele>
        <time>2011-08-20T09:30:17Z</time>
      </trkpt>
      <trkpt lat="42.67099" lon="1.40235">
        <ele>2998.0087890625</ele>
        <time>2011-08-20T09:30:21Z</time>
      </trkpt>
      <trkpt lat="42.67098" lon="1.4024">
        <ele>2999.4506835938</ele>
        <time>2011-08-20T09:30:27Z</time>
      </trkpt>
      <trkpt lat="42.67098" lon="1.40244">
        <ele>2999.931640625</ele>
        <time>2011-08-20T09:30:33Z</time>
      </trkpt>
      <trkpt lat="42.67099" lon="1.40242">
        <ele>3000.8930664062</ele>
        <time>2011-08-20T09:30:37Z</time>
      </trkpt>
      <trkpt lat="42.67102" lon="1.40241">
        <ele>3002.3349609375</ele>
        <time>2011-08-20T09:30:44Z</time>
      </trkpt>
      <trkpt lat="42.67104" lon="1.40244">
        <ele>3002.8154296875</ele>
        <time>2011-08-20T09:30:49Z</time>
      </trkpt>
      <trkpt lat="42.67104" lon="1.40246">
        <ele>3002.8154296875</ele>
        <time>2011-08-20T09:30:57Z</time>
      </trkpt>
      <trkpt lat="42.67105" lon="1.4025">
        <ele>3003.7768554688</ele>
        <time>2011-08-20T09:31:03Z</time>
      </trkpt>
      <trkpt lat="42.67107" lon="1.40251">
        <ele>3005.21875</ele>
        <time>2011-08-20T09:31:09Z</time>
      </trkpt>
      <trkpt lat="42.67109" lon="1.40251">
        <ele>3006.1801757812</ele>
        <time>2011-08-20T09:31:16Z</time>
      </trkpt>
      <trkpt lat="42.6711" lon="1.40255">
        <ele>3007.1411132812</ele>
        <time>2011-08-20T09:31:21Z</time>
      </trkpt>
      <trkpt lat="42.67111" lon="1.40256">
        <ele>3007.1411132812</ele>
        <time>2011-08-20T09:31:27Z</time>
      </trkpt>
      <trkpt lat="42.67113" lon="1.40257">
        <ele>3007.1411132812</ele>
        <time>2011-08-20T09:31:31Z</time>
      </trkpt>
      <trkpt lat="42.67115" lon="1.40257">
        <ele>3008.1025390625</ele>
        <time>2011-08-20T09:31:38Z</time>
      </trkpt>
      <trkpt lat="42.67117" lon="1.40253">
        <ele>3009.5444335938</ele>
        <time>2011-08-20T09:31:45Z</time>
      </trkpt>
      <trkpt lat="42.67119" lon="1.40253">
        <ele>3010.505859375</ele>
        <time>2011-08-20T09:31:51Z</time>
      </trkpt>
      <trkpt lat="42.6712" lon="1.40255">
        <ele>3011.4672851562</ele>
        <time>2011-08-20T09:31:57Z</time>
      </trkpt>
      <trkpt lat="42.6712" lon="1.40256">
        <ele>3012.4282226562</ele>
        <time>2011-08-20T09:32:02Z</time>
      </trkpt>
      <trkpt lat="42.67122" lon="1.40257">
        <ele>3012.9091796875</ele>
        <time>2011-08-20T09:32:08Z</time>
      </trkpt>
      <trkpt lat="42.67125" lon="1.40255">
        <ele>3013.8706054688</ele>
        <time>2011-08-20T09:32:13Z</time>
      </trkpt>
      <trkpt lat="42.67125" lon="1.40255">
        <ele>3014.3510742188</ele>
        <time>2011-08-20T09:32:20Z</time>
      </trkpt>
      <trkpt lat="42.67125" lon="1.40255">
        <ele>3015.3125</ele>
        <time>2011-08-20T09:32:34Z</time>
      </trkpt>
      <trkpt lat="42.67126" lon="1.40254">
        <ele>3016.2739257812</ele>
        <time>2011-08-20T09:32:46Z</time>
      </trkpt>
      <trkpt lat="42.67127" lon="1.40255">
        <ele>3017.2348632812</ele>
        <time>2011-08-20T09:32:50Z</time>
      </trkpt>
      <trkpt lat="42.6713" lon="1.40255">
        <ele>3018.1962890625</ele>
        <time>2011-08-20T09:32:56Z</time>
      </trkpt>
      <trkpt lat="42.67131" lon="1.40258">
        <ele>3020.1186523438</ele>
        <time>2011-08-20T09:33:02Z</time>
      </trkpt>
      <trkpt lat="42.67133" lon="1.40259">
        <ele>3022.0415039062</ele>
        <time>2011-08-20T09:33:07Z</time>
      </trkpt>
      <trkpt lat="42.67136" lon="1.4026">
        <ele>3023.4833984375</ele>
        <time>2011-08-20T09:33:13Z</time>
      </trkpt>
      <trkpt lat="42.67139" lon="1.40258">
        <ele>3024.4448242188</ele>
        <time>2011-08-20T09:33:18Z</time>
      </trkpt>
      <trkpt lat="42.67142" lon="1.40256">
        <ele>3025.40625</ele>
        <time>2011-08-20T09:33:24Z</time>
      </trkpt>
      <trkpt lat="42.67146" lon="1.40257">
        <ele>3026.8481445312</ele>
        <time>2011-08-20T09:33:30Z</time>
      </trkpt>
      <trkpt lat="42.67148" lon="1.40256">
        <ele>3028.2905273438</ele>
        <time>2011-08-20T09:33:35Z</time>
      </trkpt>
      <trkpt lat="42.67149" lon="1.40255">
        <ele>3029.251953125</ele>
        <time>2011-08-20T09:33:42Z</time>
      </trkpt>
      <trkpt lat="42.67152" lon="1.40256">
        <ele>3029.251953125</ele>
        <time>2011-08-20T09:33:51Z</time>
      </trkpt>
      <trkpt lat="42.67155" lon="1.40257">
        <ele>3030.6938476562</ele>
        <time>2011-08-20T09:33:57Z</time>
      </trkpt>
      <trkpt lat="42.67159" lon="1.40257">
        <ele>3032.1357421875</ele>
        <time>2011-08-20T09:34:04Z</time>
      </trkpt>
      <trkpt lat="42.67162" lon="1.40259">
        <ele>3033.0971679688</ele>
        <time>2011-08-20T09:34:09Z</time>
      </trkpt>
      <trkpt lat="42.67165" lon="1.4026">
        <ele>3034.0581054688</ele>
        <time>2011-08-20T09:34:14Z</time>
      </trkpt>
      <trkpt lat="42.67168" lon="1.4026">
        <ele>3035.5</ele>
        <time>2011-08-20T09:34:19Z</time>
      </trkpt>
      <trkpt lat="42.67169" lon="1.40264">
        <ele>3036.4614257812</ele>
        <time>2011-08-20T09:34:26Z</time>
      </trkpt>
      <trkpt lat="42.67169" lon="1.40265">
        <ele>3036.9423828125</ele>
        <time>2011-08-20T09:34:35Z</time>
      </trkpt>
      <trkpt lat="42.67171" lon="1.40266">
        <ele>3038.8647460938</ele>
        <time>2011-08-20T09:34:41Z</time>
      </trkpt>
      <trkpt lat="42.67172" lon="1.4027">
        <ele>3039.826171875</ele>
        <time>2011-08-20T09:34:46Z</time>
      </trkpt>
      <trkpt lat="42.6717" lon="1.40275">
        <ele>3040.7875976562</ele>
        <time>2011-08-20T09:34:52Z</time>
      </trkpt>
      <trkpt lat="42.67171" lon="1.40277">
        <ele>3041.2680664062</ele>
        <time>2011-08-20T09:34:57Z</time>
      </trkpt>
      <trkpt lat="42.67172" lon="1.40281">
        <ele>3042.2294921875</ele>
        <time>2011-08-20T09:35:04Z</time>
      </trkpt>
      <trkpt lat="42.67175" lon="1.40284">
        <ele>3043.1904296875</ele>
        <time>2011-08-20T09:35:10Z</time>
      </trkpt>
      <trkpt lat="42.67176" lon="1.40285">
        <ele>3043.1904296875</ele>
        <time>2011-08-20T09:35:17Z</time>
      </trkpt>
      <trkpt lat="42.67177" lon="1.40291">
        <ele>3043.6713867188</ele>
        <time>2011-08-20T09:35:24Z</time>
      </trkpt>
      <trkpt lat="42.67176" lon="1.40297">
        <ele>3045.11328125</ele>
        <time>2011-08-20T09:35:30Z</time>
      </trkpt>
      <trkpt lat="42.67174" lon="1.403">
        <ele>3046.0747070312</ele>
        <time>2011-08-20T09:35:36Z</time>
      </trkpt>
      <trkpt lat="42.67172" lon="1.40305">
        <ele>3047.9970703125</ele>
        <time>2011-08-20T09:35:43Z</time>
      </trkpt>
      <trkpt lat="42.67172" lon="1.40313">
        <ele>3049.4389648438</ele>
        <time>2011-08-20T09:35:50Z</time>
      </trkpt>
      <trkpt lat="42.67173" lon="1.40322">
        <ele>3050.400390625</ele>
        <time>2011-08-20T09:35:58Z</time>
      </trkpt>
      <trkpt lat="42.67172" lon="1.40329">
        <ele>3051.3618164062</ele>
        <time>2011-08-20T09:36:04Z</time>
      </trkpt>
      <trkpt lat="42.67172" lon="1.40338">
        <ele>3051.8422851562</ele>
        <time>2011-08-20T09:36:11Z</time>
      </trkpt>
      <trkpt lat="42.67174" lon="1.40346">
        <ele>3052.8037109375</ele>
        <time>2011-08-20T09:36:18Z</time>
      </trkpt>
      <trkpt lat="42.67174" lon="1.40355">
        <ele>3053.7651367188</ele>
        <time>2011-08-20T09:36:25Z</time>
      </trkpt>
      <trkpt lat="42.67175" lon="1.40361">
        <ele>3054.7265625</ele>
        <time>2011-08-20T09:36:32Z</time>
      </trkpt>
      <trkpt lat="42.67174" lon="1.40365">
        <ele>3055.20703125</ele>
        <time>2011-08-20T09:36:37Z</time>
      </trkpt>
      <trkpt lat="42.67175" lon="1.40369">
        <ele>3056.1684570312</ele>
        <time>2011-08-20T09:36:43Z</time>
      </trkpt>
      <trkpt lat="42.67175" lon="1.40374">
        <ele>3056.6489257812</ele>
        <time>2011-08-20T09:36:49Z</time>
      </trkpt>
      <trkpt lat="42.67178" lon="1.40376">
        <ele>3057.1293945312</ele>
        <time>2011-08-20T09:36:55Z</time>
      </trkpt>
      <trkpt lat="42.67178" lon="1.40379">
        <ele>3058.5712890625</ele>
        <time>2011-08-20T09:37:01Z</time>
      </trkpt>
      <trkpt lat="42.67178" lon="1.40383">
        <ele>3059.5327148438</ele>
        <time>2011-08-20T09:37:07Z</time>
      </trkpt>
      <trkpt lat="42.67179" lon="1.40387">
        <ele>3060.4946289062</ele>
        <time>2011-08-20T09:37:13Z</time>
      </trkpt>
      <trkpt lat="42.67181" lon="1.40392">
        <ele>3061.4560546875</ele>
        <time>2011-08-20T09:37:20Z</time>
      </trkpt>
      <trkpt lat="42.67181" lon="1.40396">
        <ele>3062.4174804688</ele>
        <time>2011-08-20T09:37:26Z</time>
      </trkpt>
      <trkpt lat="42.67182" lon="1.404">
        <ele>3063.3784179688</ele>
        <time>2011-08-20T09:37:32Z</time>
      </trkpt>
      <trkpt lat="42.67183" lon="1.40404">
        <ele>3064.33984375</ele>
        <time>2011-08-20T09:37:37Z</time>
      </trkpt>
      <trkpt lat="42.67183" lon="1.40404">
        <ele>3063.859375</ele>
        <time>2011-08-20T09:37:44Z</time>
      </trkpt>
      <trkpt lat="42.67183" lon="1.40406">
        <ele>3064.8203125</ele>
        <time>2011-08-20T09:37:55Z</time>
      </trkpt>
      <trkpt lat="42.67184" lon="1.40409">
        <ele>3064.8203125</ele>
        <time>2011-08-20T09:38:00Z</time>
      </trkpt>
      <trkpt lat="42.67185" lon="1.40415">
        <ele>3066.2622070312</ele>
        <time>2011-08-20T09:38:08Z</time>
      </trkpt>
      <trkpt lat="42.67183" lon="1.40418">
        <ele>3068.1850585938</ele>
        <time>2011-08-20T09:38:15Z</time>
      </trkpt>
      <trkpt lat="42.67185" lon="1.40422">
        <ele>3069.146484375</ele>
        <time>2011-08-20T09:38:21Z</time>
      </trkpt>
      <trkpt lat="42.67184" lon="1.40426">
        <ele>3070.5883789062</ele>
        <time>2011-08-20T09:38:28Z</time>
      </trkpt>
      <trkpt lat="42.67183" lon="1.40429">
        <ele>3071.5498046875</ele>
        <time>2011-08-20T09:38:35Z</time>
      </trkpt>
      <trkpt lat="42.67185" lon="1.40431">
        <ele>3072.0302734375</ele>
        <time>2011-08-20T09:38:42Z</time>
      </trkpt>
      <trkpt lat="42.67184" lon="1.40434">
        <ele>3072.5107421875</ele>
        <time>2011-08-20T09:38:47Z</time>
      </trkpt>
      <trkpt lat="42.67187" lon="1.40437">
        <ele>3073.9526367188</ele>
        <time>2011-08-20T09:38:54Z</time>
      </trkpt>
      <trkpt lat="42.67191" lon="1.40442">
        <ele>3073.9526367188</ele>
        <time>2011-08-20T09:39:00Z</time>
      </trkpt>
      <trkpt lat="42.67194" lon="1.40448">
        <ele>3074.43359375</ele>
        <time>2011-08-20T09:39:07Z</time>
      </trkpt>
      <trkpt lat="42.67196" lon="1.40457">
        <ele>3075.3950195312</ele>
        <time>2011-08-20T09:39:15Z</time>
      </trkpt>
      <trkpt lat="42.67196" lon="1.4046">
        <ele>3076.3559570312</ele>
        <time>2011-08-20T09:39:20Z</time>
      </trkpt>
      <trkpt lat="42.67196" lon="1.40464">
        <ele>3077.3173828125</ele>
        <time>2011-08-20T09:39:25Z</time>
      </trkpt>
      <trkpt lat="42.67197" lon="1.4047">
        <ele>3077.7983398438</ele>
        <time>2011-08-20T09:39:31Z</time>
      </trkpt>
      <trkpt lat="42.67195" lon="1.40475">
        <ele>3079.720703125</ele>
        <time>2011-08-20T09:39:38Z</time>
      </trkpt>
      <trkpt lat="42.67196" lon="1.40481">
        <ele>3079.720703125</ele>
        <time>2011-08-20T09:39:43Z</time>
      </trkpt>
      <trkpt lat="42.67196" lon="1.4049">
        <ele>3080.201171875</ele>
        <time>2011-08-20T09:39:49Z</time>
      </trkpt>
      <trkpt lat="42.67196" lon="1.40497">
        <ele>3080.6821289062</ele>
        <time>2011-08-20T09:39:55Z</time>
      </trkpt>
      <trkpt lat="42.67196" lon="1.40501">
        <ele>3080.6821289062</ele>
        <time>2011-08-20T09:39:58Z</time>
      </trkpt>
      <trkpt lat="42.67197" lon="1.4051">
        <ele>3081.6430664062</ele>
        <time>2011-08-20T09:40:04Z</time>
      </trkpt>
      <trkpt lat="42.67197" lon="1.40516">
        <ele>3082.6044921875</ele>
        <time>2011-08-20T09:40:09Z</time>
      </trkpt>
      <trkpt lat="42.67197" lon="1.40521">
        <ele>3082.6044921875</ele>
        <time>2011-08-20T09:40:15Z</time>
      </trkpt>
      <trkpt lat="42.67199" lon="1.40526">
        <ele>3081.1625976562</ele>
        <time>2011-08-20T09:40:21Z</time>
      </trkpt>
      <trkpt lat="42.67199" lon="1.40532">
        <ele>3078.7592773438</ele>
        <time>2011-08-20T09:40:28Z</time>
      </trkpt>
      <trkpt lat="42.672" lon="1.40541">
        <ele>3078.2788085938</ele>
        <time>2011-08-20T09:40:34Z</time>
      </trkpt>
      <trkpt lat="42.67201" lon="1.40545">
        <ele>3078.7592773438</ele>
        <time>2011-08-20T09:40:37Z</time>
      </trkpt>
      <trkpt lat="42.67199" lon="1.40557">
        <ele>3080.201171875</ele>
        <time>2011-08-20T09:40:46Z</time>
      </trkpt>
      <trkpt lat="42.67198" lon="1.4056">
        <ele>3081.1625976562</ele>
        <time>2011-08-20T09:40:51Z</time>
      </trkpt>
      <trkpt lat="42.67197" lon="1.40565">
        <ele>3082.6044921875</ele>
        <time>2011-08-20T09:40:57Z</time>
      </trkpt>
      <trkpt lat="42.67194" lon="1.40571">
        <ele>3084.52734375</ele>
        <time>2011-08-20T09:41:04Z</time>
      </trkpt>
      <trkpt lat="42.67192" lon="1.40576">
        <ele>3085.0078125</ele>
        <time>2011-08-20T09:41:10Z</time>
      </trkpt>
      <trkpt lat="42.67192" lon="1.40582">
        <ele>3084.52734375</ele>
        <time>2011-08-20T09:41:17Z</time>
      </trkpt>
      <trkpt lat="42.67193" lon="1.40588">
        <ele>3085.0078125</ele>
        <time>2011-08-20T09:41:22Z</time>
      </trkpt>
      <trkpt lat="42.67191" lon="1.40599">
        <ele>3085.9692382812</ele>
        <time>2011-08-20T09:41:31Z</time>
      </trkpt>
      <trkpt lat="42.67189" lon="1.40604">
        <ele>3086.4497070312</ele>
        <time>2011-08-20T09:41:37Z</time>
      </trkpt>
      <trkpt lat="42.67189" lon="1.40604">
        <ele>3086.4497070312</ele>
        <time>2011-08-20T09:41:44Z</time>
      </trkpt>
      <trkpt lat="42.6719" lon="1.40616">
        <ele>3085.9692382812</ele>
        <time>2011-08-20T09:41:52Z</time>
      </trkpt>
      <trkpt lat="42.6719" lon="1.40626">
        <ele>3086.4497070312</ele>
        <time>2011-08-20T09:41:59Z</time>
      </trkpt>
      <trkpt lat="42.67193" lon="1.40633">
        <ele>3085.4887695312</ele>
        <time>2011-08-20T09:42:05Z</time>
      </trkpt>
      <trkpt lat="42.67193" lon="1.40637">
        <ele>3085.4887695312</ele>
        <time>2011-08-20T09:42:11Z</time>
      </trkpt>
      <trkpt lat="42.67193" lon="1.40637">
        <ele>3085.0078125</ele>
        <time>2011-08-20T09:42:24Z</time>
      </trkpt>
      <trkpt lat="42.67193" lon="1.40637">
        <ele>3085.4887695312</ele>
        <time>2011-08-20T09:42:32Z</time>
      </trkpt>
      <trkpt lat="42.67193" lon="1.40636">
        <ele>3084.52734375</ele>
        <time>2011-08-20T09:42:45Z</time>
      </trkpt>
      <trkpt lat="42.67194" lon="1.40635">
        <ele>3085.0078125</ele>
        <time>2011-08-20T09:42:57Z</time>
      </trkpt>
      <trkpt lat="42.67192" lon="1.40638">
        <ele>3084.52734375</ele>
        <time>2011-08-20T09:43:02Z</time>
      </trkpt>
      <trkpt lat="42.67188" lon="1.40637">
        <ele>3085.4887695312</ele>
        <time>2011-08-20T09:43:08Z</time>
      </trkpt>
      <trkpt lat="42.67188" lon="1.40629">
        <ele>3085.9692382812</ele>
        <time>2011-08-20T09:43:14Z</time>
      </trkpt>
      <trkpt lat="42.67189" lon="1.40627">
        <ele>3085.9692382812</ele>
        <time>2011-08-20T09:43:20Z</time>
      </trkpt>
      <trkpt lat="42.67189" lon="1.40624">
        <ele>3085.9692382812</ele>
        <time>2011-08-20T09:43:27Z</time>
      </trkpt>
      <trkpt lat="42.67189" lon="1.40617">
        <ele>3085.4887695312</ele>
        <time>2011-08-20T09:43:32Z</time>
      </trkpt>
      <trkpt lat="42.67191" lon="1.406">
        <ele>3084.52734375</ele>
        <time>2011-08-20T09:43:41Z</time>
      </trkpt>
      <trkpt lat="42.67191" lon="1.40597">
        <ele>3084.52734375</ele>
        <time>2011-08-20T09:43:43Z</time>
      </trkpt>
      <trkpt lat="42.67194" lon="1.40587">
        <ele>3082.6044921875</ele>
        <time>2011-08-20T09:43:48Z</time>
      </trkpt>
      <trkpt lat="42.67192" lon="1.40575">
        <ele>3082.1240234375</ele>
        <time>2011-08-20T09:43:52Z</time>
      </trkpt>
      <trkpt lat="42.67194" lon="1.40569">
        <ele>3081.1625976562</ele>
        <time>2011-08-20T09:43:56Z</time>
      </trkpt>
      <trkpt lat="42.67196" lon="1.40565">
        <ele>3079.720703125</ele>
        <time>2011-08-20T09:44:01Z</time>
      </trkpt>
      <trkpt lat="42.67197" lon="1.4056">
        <ele>3078.2788085938</ele>
        <time>2011-08-20T09:44:06Z</time>
      </trkpt>
      <trkpt lat="42.67199" lon="1.40556">
        <ele>3076.8369140625</ele>
        <time>2011-08-20T09:44:11Z</time>
      </trkpt>
      <trkpt lat="42.67199" lon="1.40551">
        <ele>3076.3559570312</ele>
        <time>2011-08-20T09:44:13Z</time>
      </trkpt>
      <trkpt lat="42.67202" lon="1.40547">
        <ele>3074.43359375</ele>
        <time>2011-08-20T09:44:16Z</time>
      </trkpt>
      <trkpt lat="42.672" lon="1.40538">
        <ele>3073.9526367188</ele>
        <time>2011-08-20T09:44:20Z</time>
      </trkpt>
      <trkpt lat="42.67199" lon="1.40529">
        <ele>3076.8369140625</ele>
        <time>2011-08-20T09:44:28Z</time>
      </trkpt>
      <trkpt lat="42.67198" lon="1.40524">
        <ele>3078.7592773438</ele>
        <time>2011-08-20T09:44:35Z</time>
      </trkpt>
      <trkpt lat="42.67197" lon="1.40519">
        <ele>3079.720703125</ele>
        <time>2011-08-20T09:44:41Z</time>
      </trkpt>
      <trkpt lat="42.67197" lon="1.40511">
        <ele>3078.7592773438</ele>
        <time>2011-08-20T09:44:47Z</time>
      </trkpt>
      <trkpt lat="42.67197" lon="1.40504">
        <ele>3077.3173828125</ele>
        <time>2011-08-20T09:44:51Z</time>
      </trkpt>
      <trkpt lat="42.67195" lon="1.40494">
        <ele>3077.3173828125</ele>
        <time>2011-08-20T09:44:56Z</time>
      </trkpt>
      <trkpt lat="42.67196" lon="1.40484">
        <ele>3076.3559570312</ele>
        <time>2011-08-20T09:45:02Z</time>
      </trkpt>
      <trkpt lat="42.67196" lon="1.40478">
        <ele>3076.8369140625</ele>
        <time>2011-08-20T09:45:06Z</time>
      </trkpt>
      <trkpt lat="42.67198" lon="1.40471">
        <ele>3075.8754882812</ele>
        <time>2011-08-20T09:45:12Z</time>
      </trkpt>
      <trkpt lat="42.67197" lon="1.40464">
        <ele>3076.8369140625</ele>
        <time>2011-08-20T09:45:17Z</time>
      </trkpt>
      <trkpt lat="42.67196" lon="1.40458">
        <ele>3075.8754882812</ele>
        <time>2011-08-20T09:45:22Z</time>
      </trkpt>
      <trkpt lat="42.67197" lon="1.40457">
        <ele>3075.3950195312</ele>
        <time>2011-08-20T09:45:28Z</time>
      </trkpt>
      <trkpt lat="42.67196" lon="1.40451">
        <ele>3074.9140625</ele>
        <time>2011-08-20T09:45:33Z</time>
      </trkpt>
      <trkpt lat="42.67194" lon="1.40445">
        <ele>3074.9140625</ele>
        <time>2011-08-20T09:45:36Z</time>
      </trkpt>
      <trkpt lat="42.67191" lon="1.40432">
        <ele>3072.0302734375</ele>
        <time>2011-08-20T09:45:43Z</time>
      </trkpt>
      <trkpt lat="42.6719" lon="1.4043">
        <ele>3071.0688476562</ele>
        <time>2011-08-20T09:45:45Z</time>
      </trkpt>
      <trkpt lat="42.67186" lon="1.40424">
        <ele>3068.6655273438</ele>
        <time>2011-08-20T09:45:52Z</time>
      </trkpt>
      <trkpt lat="42.67185" lon="1.40417">
        <ele>3066.7431640625</ele>
        <time>2011-08-20T09:45:56Z</time>
      </trkpt>
      <trkpt lat="42.67186" lon="1.4041">
        <ele>3064.33984375</ele>
        <time>2011-08-20T09:46:01Z</time>
      </trkpt>
      <trkpt lat="42.67183" lon="1.40404">
        <ele>3062.8979492188</ele>
        <time>2011-08-20T09:46:05Z</time>
      </trkpt>
      <trkpt lat="42.67183" lon="1.40402">
        <ele>3062.4174804688</ele>
        <time>2011-08-20T09:46:06Z</time>
      </trkpt>
      <trkpt lat="42.67181" lon="1.40392">
        <ele>3059.5327148438</ele>
        <time>2011-08-20T09:46:12Z</time>
      </trkpt>
      <trkpt lat="42.67181" lon="1.4039">
        <ele>3059.5327148438</ele>
        <time>2011-08-20T09:46:13Z</time>
      </trkpt>
      <trkpt lat="42.67178" lon="1.40381">
        <ele>3057.1293945312</ele>
        <time>2011-08-20T09:46:21Z</time>
      </trkpt>
      <trkpt lat="42.67178" lon="1.4038">
        <ele>3056.6489257812</ele>
        <time>2011-08-20T09:46:22Z</time>
      </trkpt>
      <trkpt lat="42.67177" lon="1.40375">
        <ele>3053.7651367188</ele>
        <time>2011-08-20T09:46:28Z</time>
      </trkpt>
      <trkpt lat="42.67175" lon="1.40371">
        <ele>3051.8422851562</ele>
        <time>2011-08-20T09:46:32Z</time>
      </trkpt>
      <trkpt lat="42.67174" lon="1.40366">
        <ele>3049.919921875</ele>
        <time>2011-08-20T09:46:35Z</time>
      </trkpt>
      <trkpt lat="42.67174" lon="1.40365">
        <ele>3049.4389648438</ele>
        <time>2011-08-20T09:46:36Z</time>
      </trkpt>
      <trkpt lat="42.67176" lon="1.40357">
        <ele>3047.9970703125</ele>
        <time>2011-08-20T09:46:40Z</time>
      </trkpt>
      <trkpt lat="42.67173" lon="1.40339">
        <ele>3049.4389648438</ele>
        <time>2011-08-20T09:46:46Z</time>
      </trkpt>
      <trkpt lat="42.67174" lon="1.40327">
        <ele>3048.9584960938</ele>
        <time>2011-08-20T09:46:51Z</time>
      </trkpt>
      <trkpt lat="42.67175" lon="1.40324">
        <ele>3048.4780273438</ele>
        <time>2011-08-20T09:46:53Z</time>
      </trkpt>
      <trkpt lat="42.67175" lon="1.4032">
        <ele>3047.5166015625</ele>
        <time>2011-08-20T09:46:56Z</time>
      </trkpt>
      <trkpt lat="42.67173" lon="1.40306">
        <ele>3046.0747070312</ele>
        <time>2011-08-20T09:47:01Z</time>
      </trkpt>
      <trkpt lat="42.67173" lon="1.40302">
        <ele>3044.6328125</ele>
        <time>2011-08-20T09:47:04Z</time>
      </trkpt>
      <trkpt lat="42.67177" lon="1.40295">
        <ele>3043.1904296875</ele>
        <time>2011-08-20T09:47:09Z</time>
      </trkpt>
      <trkpt lat="42.67178" lon="1.40286">
        <ele>3041.7485351562</ele>
        <time>2011-08-20T09:47:13Z</time>
      </trkpt>
      <trkpt lat="42.67175" lon="1.40283">
        <ele>3040.306640625</ele>
        <time>2011-08-20T09:47:16Z</time>
      </trkpt>
      <trkpt lat="42.6717" lon="1.40275">
        <ele>3037.9033203125</ele>
        <time>2011-08-20T09:47:21Z</time>
      </trkpt>
      <trkpt lat="42.67171" lon="1.40269">
        <ele>3036.4614257812</ele>
        <time>2011-08-20T09:47:24Z</time>
      </trkpt>
      <trkpt lat="42.67169" lon="1.40263">
        <ele>3034.0581054688</ele>
        <time>2011-08-20T09:47:28Z</time>
      </trkpt>
      <trkpt lat="42.67164" lon="1.40259">
        <ele>3032.1357421875</ele>
        <time>2011-08-20T09:47:32Z</time>
      </trkpt>
      <trkpt lat="42.67157" lon="1.40255">
        <ele>3030.212890625</ele>
        <time>2011-08-20T09:47:37Z</time>
      </trkpt>
      <trkpt lat="42.67155" lon="1.40255">
        <ele>3028.7709960938</ele>
        <time>2011-08-20T09:47:39Z</time>
      </trkpt>
      <trkpt lat="42.67148" lon="1.40255">
        <ele>3025.88671875</ele>
        <time>2011-08-20T09:47:45Z</time>
      </trkpt>
      <trkpt lat="42.67142" lon="1.40256">
        <ele>3023.9643554688</ele>
        <time>2011-08-20T09:47:51Z</time>
      </trkpt>
      <trkpt lat="42.67135" lon="1.4026">
        <ele>3020.599609375</ele>
        <time>2011-08-20T09:47:56Z</time>
      </trkpt>
      <trkpt lat="42.67131" lon="1.4026">
        <ele>3019.1577148438</ele>
        <time>2011-08-20T09:47:59Z</time>
      </trkpt>
      <trkpt lat="42.67128" lon="1.40256">
        <ele>3016.7543945312</ele>
        <time>2011-08-20T09:48:05Z</time>
      </trkpt>
      <trkpt lat="42.67127" lon="1.40255">
        <ele>3016.2739257812</ele>
        <time>2011-08-20T09:48:06Z</time>
      </trkpt>
      <trkpt lat="42.67121" lon="1.40257">
        <ele>3012.9091796875</ele>
        <time>2011-08-20T09:48:11Z</time>
      </trkpt>
      <trkpt lat="42.67118" lon="1.40256">
        <ele>3010.986328125</ele>
        <time>2011-08-20T09:48:14Z</time>
      </trkpt>
      <trkpt lat="42.67115" lon="1.40255">
        <ele>3008.5834960938</ele>
        <time>2011-08-20T09:48:19Z</time>
      </trkpt>
      <trkpt lat="42.67113" lon="1.40259">
        <ele>3007.6220703125</ele>
        <time>2011-08-20T09:48:22Z</time>
      </trkpt>
      <trkpt lat="42.67109" lon="1.40257">
        <ele>3005.21875</ele>
        <time>2011-08-20T09:48:27Z</time>
      </trkpt>
      <trkpt lat="42.67108" lon="1.40252">
        <ele>3002.8154296875</ele>
        <time>2011-08-20T09:48:34Z</time>
      </trkpt>
      <trkpt lat="42.67105" lon="1.40253">
        <ele>3001.3735351562</ele>
        <time>2011-08-20T09:48:38Z</time>
      </trkpt>
      <trkpt lat="42.67103" lon="1.4025">
        <ele>3000.412109375</ele>
        <time>2011-08-20T09:48:41Z</time>
      </trkpt>
      <trkpt lat="42.671" lon="1.40243">
        <ele>2998.4897460938</ele>
        <time>2011-08-20T09:48:47Z</time>
      </trkpt>
      <trkpt lat="42.67097" lon="1.40245">
        <ele>2996.5668945312</ele>
        <time>2011-08-20T09:48:51Z</time>
      </trkpt>
      <trkpt lat="42.67097" lon="1.40235">
        <ele>2994.1630859375</ele>
        <time>2011-08-20T09:48:57Z</time>
      </trkpt>
      <trkpt lat="42.67096" lon="1.40233">
        <ele>2992.7211914062</ele>
        <time>2011-08-20T09:49:02Z</time>
      </trkpt>
      <trkpt lat="42.67091" lon="1.40232">
        <ele>2990.798828125</ele>
        <time>2011-08-20T09:49:06Z</time>
      </trkpt>
      <trkpt lat="42.67091" lon="1.40229">
        <ele>2988.8759765625</ele>
        <time>2011-08-20T09:49:09Z</time>
      </trkpt>
      <trkpt lat="42.67088" lon="1.40226">
        <ele>2987.4340820312</ele>
        <time>2011-08-20T09:49:15Z</time>
      </trkpt>
      <trkpt lat="42.6708" lon="1.40221">
        <ele>2985.9921875</ele>
        <time>2011-08-20T09:49:20Z</time>
      </trkpt>
      <trkpt lat="42.67075" lon="1.40217">
        <ele>2986.47265625</ele>
        <time>2011-08-20T09:49:26Z</time>
      </trkpt>
      <trkpt lat="42.67067" lon="1.40217">
        <ele>2987.4340820312</ele>
        <time>2011-08-20T09:49:34Z</time>
      </trkpt>
      <trkpt lat="42.67062" lon="1.40217">
        <ele>2987.9145507812</ele>
        <time>2011-08-20T09:49:39Z</time>
      </trkpt>
      <trkpt lat="42.67057" lon="1.40218">
        <ele>2987.9145507812</ele>
        <time>2011-08-20T09:49:43Z</time>
      </trkpt>
      <trkpt lat="42.67053" lon="1.40218">
        <ele>2988.3955078125</ele>
        <time>2011-08-20T09:49:47Z</time>
      </trkpt>
      <trkpt lat="42.67048" lon="1.40215">
        <ele>2987.4340820312</ele>
        <time>2011-08-20T09:49:52Z</time>
      </trkpt>
      <trkpt lat="42.67044" lon="1.40216">
        <ele>2988.3955078125</ele>
        <time>2011-08-20T09:49:58Z</time>
      </trkpt>
      <trkpt lat="42.67037" lon="1.40213">
        <ele>2988.3955078125</ele>
        <time>2011-08-20T09:50:05Z</time>
      </trkpt>
      <trkpt lat="42.67033" lon="1.40213">
        <ele>2989.3564453125</ele>
        <time>2011-08-20T09:50:11Z</time>
      </trkpt>
      <trkpt lat="42.67027" lon="1.40211">
        <ele>2990.798828125</ele>
        <time>2011-08-20T09:50:18Z</time>
      </trkpt>
      <trkpt lat="42.67023" lon="1.40209">
        <ele>2991.759765625</ele>
        <time>2011-08-20T09:50:24Z</time>
      </trkpt>
      <trkpt lat="42.6702" lon="1.40207">
        <ele>2992.7211914062</ele>
        <time>2011-08-20T09:50:29Z</time>
      </trkpt>
      <trkpt lat="42.67017" lon="1.40205">
        <ele>2993.6826171875</ele>
        <time>2011-08-20T09:50:34Z</time>
      </trkpt>
      <trkpt lat="42.67014" lon="1.40204">
        <ele>2993.6826171875</ele>
        <time>2011-08-20T09:50:39Z</time>
      </trkpt>
      <trkpt lat="42.67013" lon="1.40203">
        <ele>2993.6826171875</ele>
        <time>2011-08-20T09:50:44Z</time>
      </trkpt>
      <trkpt lat="42.6701" lon="1.40203">
        <ele>2994.6440429688</ele>
        <time>2011-08-20T09:50:55Z</time>
      </trkpt>
      <trkpt lat="42.67008" lon="1.40202">
        <ele>2996.0864257812</ele>
        <time>2011-08-20T09:51:02Z</time>
      </trkpt>
      <trkpt lat="42.67004" lon="1.40201">
        <ele>2997.5283203125</ele>
        <time>2011-08-20T09:51:09Z</time>
      </trkpt>
      <trkpt lat="42.67" lon="1.40198">
        <ele>2998.0087890625</ele>
        <time>2011-08-20T09:51:16Z</time>
      </trkpt>
      <trkpt lat="42.66996" lon="1.40197">
        <ele>2999.4506835938</ele>
        <time>2011-08-20T09:51:22Z</time>
      </trkpt>
      <trkpt lat="42.66994" lon="1.40197">
        <ele>3000.412109375</ele>
        <time>2011-08-20T09:51:27Z</time>
      </trkpt>
      <trkpt lat="42.6699" lon="1.40194">
        <ele>3001.3735351562</ele>
        <time>2011-08-20T09:51:33Z</time>
      </trkpt>
      <trkpt lat="42.66987" lon="1.40192">
        <ele>3002.8154296875</ele>
        <time>2011-08-20T09:51:39Z</time>
      </trkpt>
      <trkpt lat="42.66983" lon="1.4019">
        <ele>3003.2958984375</ele>
        <time>2011-08-20T09:51:45Z</time>
      </trkpt>
      <trkpt lat="42.66981" lon="1.40186">
        <ele>3004.7377929688</ele>
        <time>2011-08-20T09:51:51Z</time>
      </trkpt>
      <trkpt lat="42.66978" lon="1.40184">
        <ele>3005.69921875</ele>
        <time>2011-08-20T09:51:57Z</time>
      </trkpt>
      <trkpt lat="42.66977" lon="1.40184">
        <ele>3006.6606445312</ele>
        <time>2011-08-20T09:52:03Z</time>
      </trkpt>
      <trkpt lat="42.66975" lon="1.40184">
        <ele>3007.1411132812</ele>
        <time>2011-08-20T09:52:08Z</time>
      </trkpt>
      <trkpt lat="42.66973" lon="1.40186">
        <ele>3007.6220703125</ele>
        <time>2011-08-20T09:52:14Z</time>
      </trkpt>
      <trkpt lat="42.66972" lon="1.40187">
        <ele>3008.1025390625</ele>
        <time>2011-08-20T09:52:20Z</time>
      </trkpt>
      <trkpt lat="42.66971" lon="1.40186">
        <ele>3010.025390625</ele>
        <time>2011-08-20T09:52:26Z</time>
      </trkpt>
      <trkpt lat="42.66972" lon="1.40188">
        <ele>3013.3896484375</ele>
        <time>2011-08-20T09:52:38Z</time>
      </trkpt>
      <trkpt lat="42.66968" lon="1.40188">
        <ele>3007.6220703125</ele>
        <time>2011-08-20T09:53:05Z</time>
      </trkpt>
      <trkpt lat="42.66968" lon="1.40187">
        <ele>3006.1801757812</ele>
        <time>2011-08-20T09:53:15Z</time>
      </trkpt>
      <trkpt lat="42.66969" lon="1.40187">
        <ele>3010.025390625</ele>
        <time>2011-08-20T09:53:42Z</time>
      </trkpt>
      <trkpt lat="42.66967" lon="1.40187">
        <ele>3009.5444335938</ele>
        <time>2011-08-20T09:53:49Z</time>
      </trkpt>
      <trkpt lat="42.66967" lon="1.40188">
        <ele>3011.4672851562</ele>
        <time>2011-08-20T09:54:04Z</time>
      </trkpt>
      <trkpt lat="42.66971" lon="1.40188">
        <ele>3012.4282226562</ele>
        <time>2011-08-20T09:54:23Z</time>
      </trkpt>
      <trkpt lat="42.6697" lon="1.40188">
        <ele>3013.8706054688</ele>
        <time>2011-08-20T09:54:37Z</time>
      </trkpt>
      <trkpt lat="42.66967" lon="1.4019">
        <ele>3011.9477539062</ele>
        <time>2011-08-20T09:54:46Z</time>
      </trkpt>
      <trkpt lat="42.66966" lon="1.40192">
        <ele>3009.5444335938</ele>
        <time>2011-08-20T09:54:54Z</time>
      </trkpt>
      <trkpt lat="42.66966" lon="1.40191">
        <ele>3008.5834960938</ele>
        <time>2011-08-20T09:55:03Z</time>
      </trkpt>
      <trkpt lat="42.66967" lon="1.4019">
        <ele>3009.0639648438</ele>
        <time>2011-08-20T09:55:11Z</time>
      </trkpt>
      <trkpt lat="42.66964" lon="1.40189">
        <ele>3006.6606445312</ele>
        <time>2011-08-20T09:55:29Z</time>
      </trkpt>
      <trkpt lat="42.66968" lon="1.40186">
        <ele>3009.5444335938</ele>
        <time>2011-08-20T09:55:41Z</time>
      </trkpt>
      <trkpt lat="42.6697" lon="1.40187">
        <ele>3009.5444335938</ele>
        <time>2011-08-20T09:55:58Z</time>
      </trkpt>
      <trkpt lat="42.66967" lon="1.40185">
        <ele>3008.1025390625</ele>
        <time>2011-08-20T09:57:00Z</time>
      </trkpt>
      <trkpt lat="42.66967" lon="1.40184">
        <ele>3008.5834960938</ele>
        <time>2011-08-20T09:57:04Z</time>
      </trkpt>
      <trkpt lat="42.66967" lon="1.40182">
        <ele>3009.5444335938</ele>
        <time>2011-08-20T09:57:12Z</time>
      </trkpt>
      <trkpt lat="42.66968" lon="1.40176">
        <ele>3007.6220703125</ele>
        <time>2011-08-20T09:57:19Z</time>
      </trkpt>
      <trkpt lat="42.66968" lon="1.40171">
        <ele>3006.1801757812</ele>
        <time>2011-08-20T09:57:24Z</time>
      </trkpt>
      <trkpt lat="42.66967" lon="1.40161">
        <ele>3007.1411132812</ele>
        <time>2011-08-20T09:57:30Z</time>
      </trkpt>
      <trkpt lat="42.66966" lon="1.40157">
        <ele>3008.1025390625</ele>
        <time>2011-08-20T09:57:33Z</time>
      </trkpt>
      <trkpt lat="42.66964" lon="1.40152">
        <ele>3010.986328125</ele>
        <time>2011-08-20T09:57:40Z</time>
      </trkpt>
      <trkpt lat="42.66961" lon="1.40146">
        <ele>3012.9091796875</ele>
        <time>2011-08-20T09:57:47Z</time>
      </trkpt>
      <trkpt lat="42.66959" lon="1.40141">
        <ele>3014.3510742188</ele>
        <time>2011-08-20T09:57:53Z</time>
      </trkpt>
      <trkpt lat="42.66956" lon="1.40138">
        <ele>3014.8315429688</ele>
        <time>2011-08-20T09:58:00Z</time>
      </trkpt>
      <trkpt lat="42.66953" lon="1.40133">
        <ele>3015.79296875</ele>
        <time>2011-08-20T09:58:07Z</time>
      </trkpt>
      <trkpt lat="42.6695" lon="1.40128">
        <ele>3016.7543945312</ele>
        <time>2011-08-20T09:58:14Z</time>
      </trkpt>
      <trkpt lat="42.66946" lon="1.40127">
        <ele>3018.1962890625</ele>
        <time>2011-08-20T09:58:20Z</time>
      </trkpt>
      <trkpt lat="42.66941" lon="1.40126">
        <ele>3019.1577148438</ele>
        <time>2011-08-20T09:58:27Z</time>
      </trkpt>
      <trkpt lat="42.66937" lon="1.4012">
        <ele>3019.6381835938</ele>
        <time>2011-08-20T09:58:34Z</time>
      </trkpt>
      <trkpt lat="42.66932" lon="1.40115">
        <ele>3020.1186523438</ele>
        <time>2011-08-20T09:58:41Z</time>
      </trkpt>
      <trkpt lat="42.6693" lon="1.40112">
        <ele>3020.599609375</ele>
        <time>2011-08-20T09:58:45Z</time>
      </trkpt>
      <trkpt lat="42.66926" lon="1.40107">
        <ele>3021.5610351562</ele>
        <time>2011-08-20T09:58:52Z</time>
      </trkpt>
      <trkpt lat="42.66922" lon="1.401">
        <ele>3021.5610351562</ele>
        <time>2011-08-20T09:58:59Z</time>
      </trkpt>
      <trkpt lat="42.66917" lon="1.40094">
        <ele>3023.0029296875</ele>
        <time>2011-08-20T09:59:06Z</time>
      </trkpt>
      <trkpt lat="42.66913" lon="1.40095">
        <ele>3024.4448242188</ele>
        <time>2011-08-20T09:59:11Z</time>
      </trkpt>
      <trkpt lat="42.66908" lon="1.40094">
        <ele>3024.9252929688</ele>
        <time>2011-08-20T09:59:16Z</time>
      </trkpt>
      <trkpt lat="42.66904" lon="1.40087">
        <ele>3026.3671875</ele>
        <time>2011-08-20T09:59:22Z</time>
      </trkpt>
      <trkpt lat="42.669" lon="1.40083">
        <ele>3026.8481445312</ele>
        <time>2011-08-20T09:59:28Z</time>
      </trkpt>
      <trkpt lat="42.66896" lon="1.40078">
        <ele>3028.2905273438</ele>
        <time>2011-08-20T09:59:35Z</time>
      </trkpt>
      <trkpt lat="42.66896" lon="1.4007">
        <ele>3029.251953125</ele>
        <time>2011-08-20T09:59:41Z</time>
      </trkpt>
      <trkpt lat="42.66895" lon="1.40062">
        <ele>3029.251953125</ele>
        <time>2011-08-20T09:59:48Z</time>
      </trkpt>
      <trkpt lat="42.66894" lon="1.40056">
        <ele>3030.212890625</ele>
        <time>2011-08-20T09:59:53Z</time>
      </trkpt>
      <trkpt lat="42.66893" lon="1.4005">
        <ele>3031.6552734375</ele>
        <time>2011-08-20T09:59:59Z</time>
      </trkpt>
      <trkpt lat="42.66888" lon="1.40047">
        <ele>3032.6162109375</ele>
        <time>2011-08-20T10:00:06Z</time>
      </trkpt>
      <trkpt lat="42.66883" lon="1.40048">
        <ele>3034.5390625</ele>
        <time>2011-08-20T10:00:14Z</time>
      </trkpt>
      <trkpt lat="42.66875" lon="1.40044">
        <ele>3034.0581054688</ele>
        <time>2011-08-20T10:00:24Z</time>
      </trkpt>
      <trkpt lat="42.66869" lon="1.40039">
        <ele>3035.01953125</ele>
        <time>2011-08-20T10:00:32Z</time>
      </trkpt>
      <trkpt lat="42.66864" lon="1.40034">
        <ele>3034.5390625</ele>
        <time>2011-08-20T10:00:38Z</time>
      </trkpt>
      <trkpt lat="42.66859" lon="1.40028">
        <ele>3035.01953125</ele>
        <time>2011-08-20T10:00:46Z</time>
      </trkpt>
      <trkpt lat="42.66856" lon="1.40025">
        <ele>3035.01953125</ele>
        <time>2011-08-20T10:00:51Z</time>
      </trkpt>
      <trkpt lat="42.66847" lon="1.40016">
        <ele>3035.01953125</ele>
        <time>2011-08-20T10:01:00Z</time>
      </trkpt>
      <trkpt lat="42.6684" lon="1.4001">
        <ele>3034.5390625</ele>
        <time>2011-08-20T10:01:06Z</time>
      </trkpt>
      <trkpt lat="42.66839" lon="1.40001">
        <ele>3035.01953125</ele>
        <time>2011-08-20T10:01:13Z</time>
      </trkpt>
      <trkpt lat="42.66841" lon="1.39994">
        <ele>3035.5</ele>
        <time>2011-08-20T10:01:20Z</time>
      </trkpt>
      <trkpt lat="42.66843" lon="1.39988">
        <ele>3035.9809570312</ele>
        <time>2011-08-20T10:01:28Z</time>
      </trkpt>
      <trkpt lat="42.66842" lon="1.39981">
        <ele>3037.4228515625</ele>
        <time>2011-08-20T10:01:35Z</time>
      </trkpt>
      <trkpt lat="42.66842" lon="1.39973">
        <ele>3039.826171875</ele>
        <time>2011-08-20T10:01:43Z</time>
      </trkpt>
      <trkpt lat="42.66841" lon="1.39967">
        <ele>3041.2680664062</ele>
        <time>2011-08-20T10:01:49Z</time>
      </trkpt>
      <trkpt lat="42.66843" lon="1.3996">
        <ele>3041.7485351562</ele>
        <time>2011-08-20T10:01:55Z</time>
      </trkpt>
      <trkpt lat="42.66844" lon="1.3995">
        <ele>3042.2294921875</ele>
        <time>2011-08-20T10:02:03Z</time>
      </trkpt>
      <trkpt lat="42.66844" lon="1.39947">
        <ele>3042.2294921875</ele>
        <time>2011-08-20T10:02:05Z</time>
      </trkpt>
      <trkpt lat="42.66846" lon="1.39937">
        <ele>3044.1518554688</ele>
        <time>2011-08-20T10:02:14Z</time>
      </trkpt>
      <trkpt lat="42.66845" lon="1.39931">
        <ele>3045.59375</ele>
        <time>2011-08-20T10:02:20Z</time>
      </trkpt>
      <trkpt lat="42.66847" lon="1.39926">
        <ele>3047.0361328125</ele>
        <time>2011-08-20T10:02:25Z</time>
      </trkpt>
      <trkpt lat="42.66849" lon="1.3992">
        <ele>3047.0361328125</ele>
        <time>2011-08-20T10:02:31Z</time>
      </trkpt>
      <trkpt lat="42.6685" lon="1.39913">
        <ele>3048.4780273438</ele>
        <time>2011-08-20T10:02:37Z</time>
      </trkpt>
      <trkpt lat="42.66851" lon="1.39909">
        <ele>3049.4389648438</ele>
        <time>2011-08-20T10:02:42Z</time>
      </trkpt>
      <trkpt lat="42.66854" lon="1.39905">
        <ele>3050.880859375</ele>
        <time>2011-08-20T10:02:48Z</time>
      </trkpt>
      <trkpt lat="42.6685" lon="1.39902">
        <ele>3051.8422851562</ele>
        <time>2011-08-20T10:02:54Z</time>
      </trkpt>
      <trkpt lat="42.66847" lon="1.39903">
        <ele>3052.3232421875</ele>
        <time>2011-08-20T10:02:59Z</time>
      </trkpt>
      <trkpt lat="42.66844" lon="1.39903">
        <ele>3053.2841796875</ele>
        <time>2011-08-20T10:03:04Z</time>
      </trkpt>
      <trkpt lat="42.66841" lon="1.39902">
        <ele>3054.7265625</ele>
        <time>2011-08-20T10:03:10Z</time>
      </trkpt>
      <trkpt lat="42.6684" lon="1.399">
        <ele>3055.6875</ele>
        <time>2011-08-20T10:03:14Z</time>
      </trkpt>
      <trkpt lat="42.6684" lon="1.39897">
        <ele>3056.6489257812</ele>
        <time>2011-08-20T10:03:19Z</time>
      </trkpt>
      <trkpt lat="42.66837" lon="1.39896">
        <ele>3057.1293945312</ele>
        <time>2011-08-20T10:03:24Z</time>
      </trkpt>
      <trkpt lat="42.66834" lon="1.39894">
        <ele>3058.5712890625</ele>
        <time>2011-08-20T10:03:29Z</time>
      </trkpt>
      <trkpt lat="42.6683" lon="1.39893">
        <ele>3059.0522460938</ele>
        <time>2011-08-20T10:03:34Z</time>
      </trkpt>
      <trkpt lat="42.66828" lon="1.39889">
        <ele>3060.0141601562</ele>
        <time>2011-08-20T10:03:40Z</time>
      </trkpt>
      <trkpt lat="42.66825" lon="1.39883">
        <ele>3060.9750976562</ele>
        <time>2011-08-20T10:03:46Z</time>
      </trkpt>
      <trkpt lat="42.66824" lon="1.39875">
        <ele>3062.4174804688</ele>
        <time>2011-08-20T10:03:53Z</time>
      </trkpt>
      <trkpt lat="42.66821" lon="1.39867">
        <ele>3062.8979492188</ele>
        <time>2011-08-20T10:04:00Z</time>
      </trkpt>
      <trkpt lat="42.6682" lon="1.3986">
        <ele>3063.859375</ele>
        <time>2011-08-20T10:04:06Z</time>
      </trkpt>
      <trkpt lat="42.66819" lon="1.39852">
        <ele>3065.3012695312</ele>
        <time>2011-08-20T10:04:13Z</time>
      </trkpt>
      <trkpt lat="42.66818" lon="1.39847">
        <ele>3066.7431640625</ele>
        <time>2011-08-20T10:04:18Z</time>
      </trkpt>
      <trkpt lat="42.66817" lon="1.39842">
        <ele>3067.7045898438</ele>
        <time>2011-08-20T10:04:23Z</time>
      </trkpt>
      <trkpt lat="42.66816" lon="1.39839">
        <ele>3068.1850585938</ele>
        <time>2011-08-20T10:04:29Z</time>
      </trkpt>
      <trkpt lat="42.66813" lon="1.3984">
        <ele>3069.626953125</ele>
        <time>2011-08-20T10:04:35Z</time>
      </trkpt>
      <trkpt lat="42.66812" lon="1.3984">
        <ele>3069.626953125</ele>
        <time>2011-08-20T10:04:42Z</time>
      </trkpt>
      <trkpt lat="42.66812" lon="1.39839">
        <ele>3070.5883789062</ele>
        <time>2011-08-20T10:04:55Z</time>
      </trkpt>
      <trkpt lat="42.66811" lon="1.39835">
        <ele>3071.5498046875</ele>
        <time>2011-08-20T10:05:03Z</time>
      </trkpt>
      <trkpt lat="42.66811" lon="1.39832">
        <ele>3072.0302734375</ele>
        <time>2011-08-20T10:05:09Z</time>
      </trkpt>
      <trkpt lat="42.66808" lon="1.3983">
        <ele>3072.9916992188</ele>
        <time>2011-08-20T10:05:14Z</time>
      </trkpt>
      <trkpt lat="42.66809" lon="1.39826">
        <ele>3073.9526367188</ele>
        <time>2011-08-20T10:05:20Z</time>
      </trkpt>
      <trkpt lat="42.66806" lon="1.39824">
        <ele>3075.3950195312</ele>
        <time>2011-08-20T10:05:26Z</time>
      </trkpt>
      <trkpt lat="42.66808" lon="1.3982">
        <ele>3075.8754882812</ele>
        <time>2011-08-20T10:05:31Z</time>
      </trkpt>
      <trkpt lat="42.6681" lon="1.39816">
        <ele>3076.8369140625</ele>
        <time>2011-08-20T10:05:37Z</time>
      </trkpt>
      <trkpt lat="42.66807" lon="1.39813">
        <ele>3078.7592773438</ele>
        <time>2011-08-20T10:05:45Z</time>
      </trkpt>
      <trkpt lat="42.66803" lon="1.39812">
        <ele>3080.201171875</ele>
        <time>2011-08-20T10:05:51Z</time>
      </trkpt>
      <trkpt lat="42.66804" lon="1.39807">
        <ele>3081.1625976562</ele>
        <time>2011-08-20T10:05:57Z</time>
      </trkpt>
      <trkpt lat="42.66805" lon="1.39803">
        <ele>3083.0854492188</ele>
        <time>2011-08-20T10:06:04Z</time>
      </trkpt>
      <trkpt lat="42.66803" lon="1.39801">
        <ele>3084.0463867188</ele>
        <time>2011-08-20T10:06:10Z</time>
      </trkpt>
      <trkpt lat="42.66803" lon="1.39797">
        <ele>3085.0078125</ele>
        <time>2011-08-20T10:06:16Z</time>
      </trkpt>
      <trkpt lat="42.66803" lon="1.39794">
        <ele>3086.4497070312</ele>
        <time>2011-08-20T10:06:24Z</time>
      </trkpt>
      <trkpt lat="42.66801" lon="1.39792">
        <ele>3087.4111328125</ele>
        <time>2011-08-20T10:06:30Z</time>
      </trkpt>
      <trkpt lat="42.668" lon="1.39788">
        <ele>3088.8530273438</ele>
        <time>2011-08-20T10:06:36Z</time>
      </trkpt>
      <trkpt lat="42.66801" lon="1.39785">
        <ele>3089.814453125</ele>
        <time>2011-08-20T10:06:42Z</time>
      </trkpt>
      <trkpt lat="42.668" lon="1.39784">
        <ele>3090.7758789062</ele>
        <time>2011-08-20T10:06:47Z</time>
      </trkpt>
      <trkpt lat="42.66798" lon="1.39784">
        <ele>3091.7368164062</ele>
        <time>2011-08-20T10:06:54Z</time>
      </trkpt>
      <trkpt lat="42.66798" lon="1.39781">
        <ele>3092.6987304688</ele>
        <time>2011-08-20T10:06:59Z</time>
      </trkpt>
      <trkpt lat="42.66796" lon="1.39779">
        <ele>3093.66015625</ele>
        <time>2011-08-20T10:07:05Z</time>
      </trkpt>
      <trkpt lat="42.66795" lon="1.39776">
        <ele>3094.6215820312</ele>
        <time>2011-08-20T10:07:12Z</time>
      </trkpt>
      <trkpt lat="42.66796" lon="1.39772">
        <ele>3095.5825195312</ele>
        <time>2011-08-20T10:07:19Z</time>
      </trkpt>
      <trkpt lat="42.66793" lon="1.39773">
        <ele>3096.5439453125</ele>
        <time>2011-08-20T10:07:23Z</time>
      </trkpt>
      <trkpt lat="42.66791" lon="1.39773">
        <ele>3097.5053710938</ele>
        <time>2011-08-20T10:07:29Z</time>
      </trkpt>
      <trkpt lat="42.6679" lon="1.3977">
        <ele>3099.427734375</ele>
        <time>2011-08-20T10:07:36Z</time>
      </trkpt>
      <trkpt lat="42.66789" lon="1.39767">
        <ele>3099.9086914062</ele>
        <time>2011-08-20T10:07:41Z</time>
      </trkpt>
      <trkpt lat="42.66789" lon="1.39764">
        <ele>3101.8310546875</ele>
        <time>2011-08-20T10:07:48Z</time>
      </trkpt>
      <trkpt lat="42.66789" lon="1.39761">
        <ele>3102.7924804688</ele>
        <time>2011-08-20T10:07:54Z</time>
      </trkpt>
      <trkpt lat="42.66788" lon="1.39759">
        <ele>3103.75390625</ele>
        <time>2011-08-20T10:07:59Z</time>
      </trkpt>
      <trkpt lat="42.66787" lon="1.39759">
        <ele>3105.1958007812</ele>
        <time>2011-08-20T10:08:04Z</time>
      </trkpt>
      <trkpt lat="42.66784" lon="1.3976">
        <ele>3106.1572265625</ele>
        <time>2011-08-20T10:08:09Z</time>
      </trkpt>
      <trkpt lat="42.66783" lon="1.39758">
        <ele>3106.6376953125</ele>
        <time>2011-08-20T10:08:14Z</time>
      </trkpt>
      <trkpt lat="42.66782" lon="1.39754">
        <ele>3108.0795898438</ele>
        <time>2011-08-20T10:08:20Z</time>
      </trkpt>
      <trkpt lat="42.6678" lon="1.39754">
        <ele>3108.560546875</ele>
        <time>2011-08-20T10:08:26Z</time>
      </trkpt>
      <trkpt lat="42.66777" lon="1.39754">
        <ele>3110.0024414062</ele>
        <time>2011-08-20T10:08:32Z</time>
      </trkpt>
      <trkpt lat="42.66775" lon="1.39749">
        <ele>3111.4443359375</ele>
        <time>2011-08-20T10:08:40Z</time>
      </trkpt>
      <trkpt lat="42.66772" lon="1.39747">
        <ele>3112.8862304688</ele>
        <time>2011-08-20T10:08:47Z</time>
      </trkpt>
      <trkpt lat="42.6677" lon="1.3975">
        <ele>3113.84765625</ele>
        <time>2011-08-20T10:08:53Z</time>
      </trkpt>
      <trkpt lat="42.66769" lon="1.39755">
        <ele>3114.328125</ele>
        <time>2011-08-20T10:08:59Z</time>
      </trkpt>
      <trkpt lat="42.66767" lon="1.39756">
        <ele>3115.2895507812</ele>
        <time>2011-08-20T10:09:03Z</time>
      </trkpt>
      <trkpt lat="42.66765" lon="1.39759">
        <ele>3116.2509765625</ele>
        <time>2011-08-20T10:09:10Z</time>
      </trkpt>
      <trkpt lat="42.66763" lon="1.39761">
        <ele>3117.2119140625</ele>
        <time>2011-08-20T10:09:15Z</time>
      </trkpt>
      <trkpt lat="42.66763" lon="1.39764">
        <ele>3118.6538085938</ele>
        <time>2011-08-20T10:09:21Z</time>
      </trkpt>
      <trkpt lat="42.66761" lon="1.39764">
        <ele>3119.615234375</ele>
        <time>2011-08-20T10:09:27Z</time>
      </trkpt>
      <trkpt lat="42.66759" lon="1.39765">
        <ele>3120.5766601562</ele>
        <time>2011-08-20T10:09:33Z</time>
      </trkpt>
      <trkpt lat="42.66759" lon="1.39764">
        <ele>3121.5380859375</ele>
        <time>2011-08-20T10:09:40Z</time>
      </trkpt>
      <trkpt lat="42.66758" lon="1.39761">
        <ele>3122.4990234375</ele>
        <time>2011-08-20T10:09:46Z</time>
      </trkpt>
      <trkpt lat="42.66756" lon="1.39759">
        <ele>3124.4223632812</ele>
        <time>2011-08-20T10:09:54Z</time>
      </trkpt>
      <trkpt lat="42.66754" lon="1.39762">
        <ele>3125.3837890625</ele>
        <time>2011-08-20T10:10:00Z</time>
      </trkpt>
      <trkpt lat="42.66752" lon="1.39761">
        <ele>3125.8642578125</ele>
        <time>2011-08-20T10:10:05Z</time>
      </trkpt>
      <trkpt lat="42.66751" lon="1.39762">
        <ele>3126.8256835938</ele>
        <time>2011-08-20T10:10:10Z</time>
      </trkpt>
      <trkpt lat="42.6675" lon="1.39762">
        <ele>3127.7866210938</ele>
        <time>2011-08-20T10:10:19Z</time>
      </trkpt>
      <trkpt lat="42.66751" lon="1.39761">
        <ele>3127.7866210938</ele>
        <time>2011-08-20T10:10:29Z</time>
      </trkpt>
      <trkpt lat="42.66751" lon="1.39762">
        <ele>3127.7866210938</ele>
        <time>2011-08-20T10:10:40Z</time>
      </trkpt>
      <trkpt lat="42.6675" lon="1.39763">
        <ele>3128.748046875</ele>
        <time>2011-08-20T10:10:47Z</time>
      </trkpt>
      <trkpt lat="42.66748" lon="1.39766">
        <ele>3130.1899414062</ele>
        <time>2011-08-20T10:10:56Z</time>
      </trkpt>
      <trkpt lat="42.66747" lon="1.39764">
        <ele>3130.6708984375</ele>
        <time>2011-08-20T10:11:03Z</time>
      </trkpt>
      <trkpt lat="42.66746" lon="1.39764">
        <ele>3132.1127929688</ele>
        <time>2011-08-20T10:11:09Z</time>
      </trkpt>
      <trkpt lat="42.66744" lon="1.39763">
        <ele>3133.07421875</ele>
        <time>2011-08-20T10:11:15Z</time>
      </trkpt>
      <trkpt lat="42.66743" lon="1.39764">
        <ele>3134.03515625</ele>
        <time>2011-08-20T10:11:21Z</time>
      </trkpt>
      <trkpt lat="42.66741" lon="1.39766">
        <ele>3134.9965820312</ele>
        <time>2011-08-20T10:11:26Z</time>
      </trkpt>
      <trkpt lat="42.6674" lon="1.39765">
        <ele>3135.9580078125</ele>
        <time>2011-08-20T10:11:33Z</time>
      </trkpt>
      <trkpt lat="42.66739" lon="1.39767">
        <ele>3136.4384765625</ele>
        <time>2011-08-20T10:11:40Z</time>
      </trkpt>
      <trkpt lat="42.66736" lon="1.3977">
        <ele>3136.9194335938</ele>
        <time>2011-08-20T10:11:46Z</time>
      </trkpt>
      <trkpt lat="42.66733" lon="1.39769">
        <ele>3138.841796875</ele>
        <time>2011-08-20T10:11:53Z</time>
      </trkpt>
      <trkpt lat="42.66733" lon="1.3977">
        <ele>3139.3227539062</ele>
        <time>2011-08-20T10:11:58Z</time>
      </trkpt>
      <trkpt lat="42.6673" lon="1.39772">
        <ele>3140.7646484375</ele>
        <time>2011-08-20T10:12:05Z</time>
      </trkpt>
      <trkpt lat="42.66729" lon="1.3977">
        <ele>3141.7255859375</ele>
        <time>2011-08-20T10:12:11Z</time>
      </trkpt>
      <trkpt lat="42.66729" lon="1.39769">
        <ele>3142.6870117188</ele>
        <time>2011-08-20T10:12:18Z</time>
      </trkpt>
      <trkpt lat="42.66728" lon="1.39769">
        <ele>3143.6484375</ele>
        <time>2011-08-20T10:12:24Z</time>
      </trkpt>
      <trkpt lat="42.66727" lon="1.3977">
        <ele>3144.6098632812</ele>
        <time>2011-08-20T10:12:29Z</time>
      </trkpt>
      <trkpt lat="42.66724" lon="1.39771">
        <ele>3146.0517578125</ele>
        <time>2011-08-20T10:12:36Z</time>
      </trkpt>
      <trkpt lat="42.66721" lon="1.39774">
        <ele>3146.5322265625</ele>
        <time>2011-08-20T10:12:43Z</time>
      </trkpt>
      <trkpt lat="42.66718" lon="1.39775">
        <ele>3147.0131835938</ele>
        <time>2011-08-20T10:12:49Z</time>
      </trkpt>
      <trkpt lat="42.66718" lon="1.39775">
        <ele>3147.0131835938</ele>
        <time>2011-08-20T10:12:57Z</time>
      </trkpt>
      <trkpt lat="42.66716" lon="1.39776">
        <ele>3147.4936523438</ele>
        <time>2011-08-20T10:13:02Z</time>
      </trkpt>
      <trkpt lat="42.66714" lon="1.39778">
        <ele>3147.9741210938</ele>
        <time>2011-08-20T10:13:08Z</time>
      </trkpt>
      <trkpt lat="42.66714" lon="1.39777">
        <ele>3147.9741210938</ele>
        <time>2011-08-20T10:13:16Z</time>
      </trkpt>
      <trkpt lat="42.66715" lon="1.39775">
        <ele>3147.4936523438</ele>
        <time>2011-08-20T10:13:22Z</time>
      </trkpt>
      <trkpt lat="42.66717" lon="1.39773">
        <ele>3147.9741210938</ele>
        <time>2011-08-20T10:13:28Z</time>
      </trkpt>
      <trkpt lat="42.66717" lon="1.39773">
        <ele>3147.9741210938</ele>
        <time>2011-08-20T10:13:42Z</time>
      </trkpt>
      <trkpt lat="42.66718" lon="1.39773">
        <ele>3147.0131835938</ele>
        <time>2011-08-20T10:13:51Z</time>
      </trkpt>
      <trkpt lat="42.66719" lon="1.39772">
        <ele>3146.5322265625</ele>
        <time>2011-08-20T10:13:58Z</time>
      </trkpt>
      <trkpt lat="42.66721" lon="1.39771">
        <ele>3145.5708007812</ele>
        <time>2011-08-20T10:14:03Z</time>
      </trkpt>
      <trkpt lat="42.66723" lon="1.39769">
        <ele>3145.0903320312</ele>
        <time>2011-08-20T10:14:09Z</time>
      </trkpt>
      <trkpt lat="42.66726" lon="1.39768">
        <ele>3144.12890625</ele>
        <time>2011-08-20T10:14:14Z</time>
      </trkpt>
      <trkpt lat="42.66727" lon="1.39768">
        <ele>3143.1674804688</ele>
        <time>2011-08-20T10:14:18Z</time>
      </trkpt>
      <trkpt lat="42.66729" lon="1.3977">
        <ele>3141.7255859375</ele>
        <time>2011-08-20T10:14:23Z</time>
      </trkpt>
      <trkpt lat="42.6673" lon="1.39771">
        <ele>3140.2836914062</ele>
        <time>2011-08-20T10:14:28Z</time>
      </trkpt>
      <trkpt lat="42.66731" lon="1.39772">
        <ele>3139.8032226562</ele>
        <time>2011-08-20T10:14:32Z</time>
      </trkpt>
      <trkpt lat="42.66732" lon="1.3977">
        <ele>3138.841796875</ele>
        <time>2011-08-20T10:14:36Z</time>
      </trkpt>
      <trkpt lat="42.66735" lon="1.39771">
        <ele>3137.8803710938</ele>
        <time>2011-08-20T10:14:41Z</time>
      </trkpt>
      <trkpt lat="42.66736" lon="1.3977">
        <ele>3137.3999023438</ele>
        <time>2011-08-20T10:14:46Z</time>
      </trkpt>
      <trkpt lat="42.66738" lon="1.39767">
        <ele>3135.9580078125</ele>
        <time>2011-08-20T10:14:51Z</time>
      </trkpt>
      <trkpt lat="42.66739" lon="1.39766">
        <ele>3134.9965820312</ele>
        <time>2011-08-20T10:14:56Z</time>
      </trkpt>
      <trkpt lat="42.66742" lon="1.39765">
        <ele>3133.07421875</ele>
        <time>2011-08-20T10:15:04Z</time>
      </trkpt>
      <trkpt lat="42.66744" lon="1.39764">
        <ele>3132.1127929688</ele>
        <time>2011-08-20T10:15:10Z</time>
      </trkpt>
      <trkpt lat="42.66747" lon="1.39764">
        <ele>3130.1899414062</ele>
        <time>2011-08-20T10:15:16Z</time>
      </trkpt>
      <trkpt lat="42.66748" lon="1.39765">
        <ele>3128.748046875</ele>
        <time>2011-08-20T10:15:21Z</time>
      </trkpt>
      <trkpt lat="42.6675" lon="1.39762">
        <ele>3126.8256835938</ele>
        <time>2011-08-20T10:15:26Z</time>
      </trkpt>
      <trkpt lat="42.66753" lon="1.39764">
        <ele>3125.8642578125</ele>
        <time>2011-08-20T10:15:31Z</time>
      </trkpt>
      <trkpt lat="42.66756" lon="1.39762">
        <ele>3124.4223632812</ele>
        <time>2011-08-20T10:15:35Z</time>
      </trkpt>
      <trkpt lat="42.66759" lon="1.39764">
        <ele>3122.4990234375</ele>
        <time>2011-08-20T10:15:41Z</time>
      </trkpt>
      <trkpt lat="42.66759" lon="1.39765">
        <ele>3122.0185546875</ele>
        <time>2011-08-20T10:15:45Z</time>
      </trkpt>
      <trkpt lat="42.66762" lon="1.39764">
        <ele>3120.095703125</ele>
        <time>2011-08-20T10:15:52Z</time>
      </trkpt>
      <trkpt lat="42.66764" lon="1.39761">
        <ele>3118.1733398438</ele>
        <time>2011-08-20T10:15:57Z</time>
      </trkpt>
      <trkpt lat="42.66768" lon="1.39757">
        <ele>3115.2895507812</ele>
        <time>2011-08-20T10:16:03Z</time>
      </trkpt>
      <trkpt lat="42.66769" lon="1.39751">
        <ele>3113.3666992188</ele>
        <time>2011-08-20T10:16:07Z</time>
      </trkpt>
      <trkpt lat="42.66771" lon="1.39749">
        <ele>3112.8862304688</ele>
        <time>2011-08-20T10:16:09Z</time>
      </trkpt>
      <trkpt lat="42.66775" lon="1.39753">
        <ele>3111.4443359375</ele>
        <time>2011-08-20T10:16:14Z</time>
      </trkpt>
      <trkpt lat="42.6678" lon="1.39754">
        <ele>3108.560546875</ele>
        <time>2011-08-20T10:16:19Z</time>
      </trkpt>
      <trkpt lat="42.66781" lon="1.39755">
        <ele>3108.0795898438</ele>
        <time>2011-08-20T10:16:20Z</time>
      </trkpt>
      <trkpt lat="42.66782" lon="1.39758">
        <ele>3106.1572265625</ele>
        <time>2011-08-20T10:16:22Z</time>
      </trkpt>
      <trkpt lat="42.66788" lon="1.3976">
        <ele>3103.2729492188</ele>
        <time>2011-08-20T10:16:27Z</time>
      </trkpt>
      <trkpt lat="42.66789" lon="1.39763">
        <ele>3101.8310546875</ele>
        <time>2011-08-20T10:16:29Z</time>
      </trkpt>
      <trkpt lat="42.66789" lon="1.39765">
        <ele>3101.3505859375</ele>
        <time>2011-08-20T10:16:31Z</time>
      </trkpt>
      <trkpt lat="42.66789" lon="1.39772">
        <ele>3098.466796875</ele>
        <time>2011-08-20T10:16:36Z</time>
      </trkpt>
      <trkpt lat="42.66794" lon="1.39772">
        <ele>3096.5439453125</ele>
        <time>2011-08-20T10:16:41Z</time>
      </trkpt>
      <trkpt lat="42.66796" lon="1.39777">
        <ele>3095.1020507812</ele>
        <time>2011-08-20T10:16:45Z</time>
      </trkpt>
      <trkpt lat="42.66798" lon="1.39779">
        <ele>3094.140625</ele>
        <time>2011-08-20T10:16:49Z</time>
      </trkpt>
      <trkpt lat="42.66801" lon="1.39784">
        <ele>3091.7368164062</ele>
        <time>2011-08-20T10:16:54Z</time>
      </trkpt>
      <trkpt lat="42.66801" lon="1.39786">
        <ele>3091.2563476562</ele>
        <time>2011-08-20T10:16:55Z</time>
      </trkpt>
      <trkpt lat="42.66801" lon="1.39791">
        <ele>3088.8530273438</ele>
        <time>2011-08-20T10:16:59Z</time>
      </trkpt>
      <trkpt lat="42.66805" lon="1.39795">
        <ele>3086.4497070312</ele>
        <time>2011-08-20T10:17:05Z</time>
      </trkpt>
      <trkpt lat="42.66804" lon="1.398">
        <ele>3084.0463867188</ele>
        <time>2011-08-20T10:17:10Z</time>
      </trkpt>
      <trkpt lat="42.66806" lon="1.39804">
        <ele>3082.6044921875</ele>
        <time>2011-08-20T10:17:14Z</time>
      </trkpt>
      <trkpt lat="42.66806" lon="1.39813">
        <ele>3080.6821289062</ele>
        <time>2011-08-20T10:17:20Z</time>
      </trkpt>
      <trkpt lat="42.66809" lon="1.39812">
        <ele>3079.720703125</ele>
        <time>2011-08-20T10:17:22Z</time>
      </trkpt>
      <trkpt lat="42.66811" lon="1.39817">
        <ele>3078.2788085938</ele>
        <time>2011-08-20T10:17:26Z</time>
      </trkpt>
      <trkpt lat="42.66811" lon="1.39824">
        <ele>3075.8754882812</ele>
        <time>2011-08-20T10:17:32Z</time>
      </trkpt>
      <trkpt lat="42.6681" lon="1.3983">
        <ele>3073.4721679688</ele>
        <time>2011-08-20T10:17:36Z</time>
      </trkpt>
      <trkpt lat="42.66811" lon="1.3983">
        <ele>3072.9916992188</ele>
        <time>2011-08-20T10:17:37Z</time>
      </trkpt>
      <trkpt lat="42.66813" lon="1.39836">
        <ele>3071.5498046875</ele>
        <time>2011-08-20T10:17:44Z</time>
      </trkpt>
      <trkpt lat="42.66813" lon="1.39837">
        <ele>3072.5107421875</ele>
        <time>2011-08-20T10:17:52Z</time>
      </trkpt>
      <trkpt lat="42.66814" lon="1.39839">
        <ele>3072.9916992188</ele>
        <time>2011-08-20T10:17:57Z</time>
      </trkpt>
      <trkpt lat="42.66814" lon="1.39838">
        <ele>3073.4721679688</ele>
        <time>2011-08-20T10:18:04Z</time>
      </trkpt>
      <trkpt lat="42.66817" lon="1.39838">
        <ele>3072.9916992188</ele>
        <time>2011-08-20T10:18:09Z</time>
      </trkpt>
      <trkpt lat="42.66819" lon="1.39841">
        <ele>3072.0302734375</ele>
        <time>2011-08-20T10:18:12Z</time>
      </trkpt>
      <trkpt lat="42.66822" lon="1.39852">
        <ele>3071.0688476562</ele>
        <time>2011-08-20T10:18:17Z</time>
      </trkpt>
      <trkpt lat="42.66825" lon="1.3987">
        <ele>3070.1079101562</ele>
        <time>2011-08-20T10:18:24Z</time>
      </trkpt>
      <trkpt lat="42.66825" lon="1.39875">
        <ele>3069.626953125</ele>
        <time>2011-08-20T10:18:26Z</time>
      </trkpt>
      <trkpt lat="42.66829" lon="1.39885">
        <ele>3068.1850585938</ele>
        <time>2011-08-20T10:18:31Z</time>
      </trkpt>
      <trkpt lat="42.66834" lon="1.39894">
        <ele>3066.7431640625</ele>
        <time>2011-08-20T10:18:36Z</time>
      </trkpt>
      <trkpt lat="42.66843" lon="1.39898">
        <ele>3062.8979492188</ele>
        <time>2011-08-20T10:18:43Z</time>
      </trkpt>
      <trkpt lat="42.66843" lon="1.399">
        <ele>3062.4174804688</ele>
        <time>2011-08-20T10:18:44Z</time>
      </trkpt>
      <trkpt lat="42.66845" lon="1.39903">
        <ele>3059.5327148438</ele>
        <time>2011-08-20T10:18:49Z</time>
      </trkpt>
      <trkpt lat="42.66851" lon="1.39902">
        <ele>3056.1684570312</ele>
        <time>2011-08-20T10:18:55Z</time>
      </trkpt>
      <trkpt lat="42.66853" lon="1.39903">
        <ele>3055.6875</ele>
        <time>2011-08-20T10:18:56Z</time>
      </trkpt>
      <trkpt lat="42.66855" lon="1.39905">
        <ele>3054.7265625</ele>
        <time>2011-08-20T10:18:58Z</time>
      </trkpt>
      <trkpt lat="42.66857" lon="1.39914">
        <ele>3051.8422851562</ele>
        <time>2011-08-20T10:19:03Z</time>
      </trkpt>
      <trkpt lat="42.6686" lon="1.3992">
        <ele>3047.9970703125</ele>
        <time>2011-08-20T10:19:08Z</time>
      </trkpt>
      <trkpt lat="42.66862" lon="1.39926">
        <ele>3045.59375</ele>
        <time>2011-08-20T10:19:12Z</time>
      </trkpt>
      <trkpt lat="42.66866" lon="1.39931">
        <ele>3042.7099609375</ele>
        <time>2011-08-20T10:19:17Z</time>
      </trkpt>
      <trkpt lat="42.66869" lon="1.39932">
        <ele>3040.7875976562</ele>
        <time>2011-08-20T10:19:21Z</time>
      </trkpt>
      <trkpt lat="42.66873" lon="1.39933">
        <ele>3038.3842773438</ele>
        <time>2011-08-20T10:19:25Z</time>
      </trkpt>
      <trkpt lat="42.66875" lon="1.39936">
        <ele>3037.4228515625</ele>
        <time>2011-08-20T10:19:28Z</time>
      </trkpt>
      <trkpt lat="42.6688" lon="1.39935">
        <ele>3035.01953125</ele>
        <time>2011-08-20T10:19:31Z</time>
      </trkpt>
      <trkpt lat="42.66892" lon="1.39933">
        <ele>3030.6938476562</ele>
        <time>2011-08-20T10:19:38Z</time>
      </trkpt>
      <trkpt lat="42.66895" lon="1.39932">
        <ele>3030.212890625</ele>
        <time>2011-08-20T10:19:40Z</time>
      </trkpt>
      <trkpt lat="42.66905" lon="1.39929">
        <ele>3027.3286132812</ele>
        <time>2011-08-20T10:19:46Z</time>
      </trkpt>
      <trkpt lat="42.6691" lon="1.39933">
        <ele>3024.9252929688</ele>
        <time>2011-08-20T10:19:51Z</time>
      </trkpt>
      <trkpt lat="42.66911" lon="1.39939">
        <ele>3022.0415039062</ele>
        <time>2011-08-20T10:19:55Z</time>
      </trkpt>
      <trkpt lat="42.66913" lon="1.39943">
        <ele>3020.1186523438</ele>
        <time>2011-08-20T10:19:59Z</time>
      </trkpt>
      <trkpt lat="42.66914" lon="1.39948">
        <ele>3016.7543945312</ele>
        <time>2011-08-20T10:20:03Z</time>
      </trkpt>
      <trkpt lat="42.66914" lon="1.39952">
        <ele>3014.8315429688</ele>
        <time>2011-08-20T10:20:06Z</time>
      </trkpt>
      <trkpt lat="42.66919" lon="1.39951">
        <ele>3012.9091796875</ele>
        <time>2011-08-20T10:20:10Z</time>
      </trkpt>
      <trkpt lat="42.6693" lon="1.39948">
        <ele>3009.5444335938</ele>
        <time>2011-08-20T10:20:17Z</time>
      </trkpt>
      <trkpt lat="42.66936" lon="1.39946">
        <ele>3008.1025390625</ele>
        <time>2011-08-20T10:20:21Z</time>
      </trkpt>
      <trkpt lat="42.66941" lon="1.39945">
        <ele>3006.1801757812</ele>
        <time>2011-08-20T10:20:27Z</time>
      </trkpt>
      <trkpt lat="42.66947" lon="1.39939">
        <ele>3003.2958984375</ele>
        <time>2011-08-20T10:20:33Z</time>
      </trkpt>
      <trkpt lat="42.66951" lon="1.39933">
        <ele>3000.412109375</ele>
        <time>2011-08-20T10:20:38Z</time>
      </trkpt>
      <trkpt lat="42.66954" lon="1.39939">
        <ele>2998.0087890625</ele>
        <time>2011-08-20T10:20:42Z</time>
      </trkpt>
      <trkpt lat="42.66954" lon="1.39946">
        <ele>2996.0864257812</ele>
        <time>2011-08-20T10:20:46Z</time>
      </trkpt>
      <trkpt lat="42.6696" lon="1.39945">
        <ele>2991.759765625</ele>
        <time>2011-08-20T10:20:52Z</time>
      </trkpt>
      <trkpt lat="42.66964" lon="1.39942">
        <ele>2990.3178710938</ele>
        <time>2011-08-20T10:20:56Z</time>
      </trkpt>
      <trkpt lat="42.66966" lon="1.39943">
        <ele>2988.8759765625</ele>
        <time>2011-08-20T10:21:01Z</time>
      </trkpt>
      <trkpt lat="42.66971" lon="1.39945">
        <ele>2986.9536132812</ele>
        <time>2011-08-20T10:21:07Z</time>
      </trkpt>
      <trkpt lat="42.66975" lon="1.39945">
        <ele>2984.5502929688</ele>
        <time>2011-08-20T10:21:12Z</time>
      </trkpt>
      <trkpt lat="42.66982" lon="1.39941">
        <ele>2983.1083984375</ele>
        <time>2011-08-20T10:21:17Z</time>
      </trkpt>
      <trkpt lat="42.66985" lon="1.39939">
        <ele>2982.6274414062</ele>
        <time>2011-08-20T10:21:19Z</time>
      </trkpt>
      <trkpt lat="42.66986" lon="1.39941">
        <ele>2981.666015625</ele>
        <time>2011-08-20T10:21:22Z</time>
      </trkpt>
      <trkpt lat="42.66987" lon="1.39947">
        <ele>2980.2241210938</ele>
        <time>2011-08-20T10:21:27Z</time>
      </trkpt>
      <trkpt lat="42.66991" lon="1.39952">
        <ele>2978.3017578125</ele>
        <time>2011-08-20T10:21:32Z</time>
      </trkpt>
      <trkpt lat="42.66992" lon="1.39956">
        <ele>2977.3403320312</ele>
        <time>2011-08-20T10:21:36Z</time>
      </trkpt>
      <trkpt lat="42.66992" lon="1.39964">
        <ele>2976.37890625</ele>
        <time>2011-08-20T10:21:44Z</time>
      </trkpt>
      <trkpt lat="42.66994" lon="1.39968">
        <ele>2975.41796875</ele>
        <time>2011-08-20T10:21:50Z</time>
      </trkpt>
      <trkpt lat="42.66995" lon="1.39971">
        <ele>2973.9755859375</ele>
        <time>2011-08-20T10:21:56Z</time>
      </trkpt>
      <trkpt lat="42.66998" lon="1.39972">
        <ele>2973.0146484375</ele>
        <time>2011-08-20T10:22:02Z</time>
      </trkpt>
      <trkpt lat="42.66999" lon="1.39973">
        <ele>2972.5336914062</ele>
        <time>2011-08-20T10:22:06Z</time>
      </trkpt>
      <trkpt lat="42.67003" lon="1.39973">
        <ele>2971.5727539062</ele>
        <time>2011-08-20T10:22:12Z</time>
      </trkpt>
      <trkpt lat="42.67008" lon="1.39976">
        <ele>2970.130859375</ele>
        <time>2011-08-20T10:22:18Z</time>
      </trkpt>
      <trkpt lat="42.6701" lon="1.3998">
        <ele>2968.2080078125</ele>
        <time>2011-08-20T10:22:23Z</time>
      </trkpt>
      <trkpt lat="42.67014" lon="1.39984">
        <ele>2966.7661132812</ele>
        <time>2011-08-20T10:22:28Z</time>
      </trkpt>
      <trkpt lat="42.6702" lon="1.39987">
        <ele>2964.8432617188</ele>
        <time>2011-08-20T10:22:34Z</time>
      </trkpt>
      <trkpt lat="42.67024" lon="1.39989">
        <ele>2962.9204101562</ele>
        <time>2011-08-20T10:22:39Z</time>
      </trkpt>
      <trkpt lat="42.6703" lon="1.39991">
        <ele>2960.5170898438</ele>
        <time>2011-08-20T10:22:46Z</time>
      </trkpt>
      <trkpt lat="42.67033" lon="1.39993">
        <ele>2959.0751953125</ele>
        <time>2011-08-20T10:22:51Z</time>
      </trkpt>
      <trkpt lat="42.67036" lon="1.39995">
        <ele>2957.15234375</ele>
        <time>2011-08-20T10:22:56Z</time>
      </trkpt>
      <trkpt lat="42.67038" lon="1.4">
        <ele>2954.7495117188</ele>
        <time>2011-08-20T10:23:02Z</time>
      </trkpt>
      <trkpt lat="42.67039" lon="1.40006">
        <ele>2951.865234375</ele>
        <time>2011-08-20T10:23:08Z</time>
      </trkpt>
      <trkpt lat="42.67043" lon="1.40011">
        <ele>2950.4233398438</ele>
        <time>2011-08-20T10:23:14Z</time>
      </trkpt>
      <trkpt lat="42.67046" lon="1.40015">
        <ele>2948.0200195312</ele>
        <time>2011-08-20T10:23:20Z</time>
      </trkpt>
      <trkpt lat="42.67049" lon="1.4002">
        <ele>2945.6166992188</ele>
        <time>2011-08-20T10:23:26Z</time>
      </trkpt>
      <trkpt lat="42.67054" lon="1.40023">
        <ele>2942.7329101562</ele>
        <time>2011-08-20T10:23:32Z</time>
      </trkpt>
      <trkpt lat="42.6706" lon="1.40023">
        <ele>2940.3295898438</ele>
        <time>2011-08-20T10:23:38Z</time>
      </trkpt>
      <trkpt lat="42.67067" lon="1.40024">
        <ele>2937.9262695312</ele>
        <time>2011-08-20T10:23:44Z</time>
      </trkpt>
      <trkpt lat="42.67067" lon="1.40024">
        <ele>2937.4458007812</ele>
        <time>2011-08-20T10:23:45Z</time>
      </trkpt>
      <trkpt lat="42.67069" lon="1.40026">
        <ele>2936.9653320312</ele>
        <time>2011-08-20T10:23:47Z</time>
      </trkpt>
      <trkpt lat="42.67075" lon="1.40028">
        <ele>2934.5620117188</ele>
        <time>2011-08-20T10:23:54Z</time>
      </trkpt>
      <trkpt lat="42.6708" lon="1.40029">
        <ele>2934.5620117188</ele>
        <time>2011-08-20T10:24:00Z</time>
      </trkpt>
      <trkpt lat="42.67079" lon="1.4003">
        <ele>2934.5620117188</ele>
        <time>2011-08-20T10:24:11Z</time>
      </trkpt>
      <trkpt lat="42.67078" lon="1.40034">
        <ele>2934.5620117188</ele>
        <time>2011-08-20T10:24:16Z</time>
      </trkpt>
      <trkpt lat="42.67081" lon="1.40034">
        <ele>2934.0810546875</ele>
        <time>2011-08-20T10:24:21Z</time>
      </trkpt>
      <trkpt lat="42.67086" lon="1.40036">
        <ele>2932.6391601562</ele>
        <time>2011-08-20T10:24:27Z</time>
      </trkpt>
      <trkpt lat="42.67089" lon="1.4004">
        <ele>2931.1967773438</ele>
        <time>2011-08-20T10:24:32Z</time>
      </trkpt>
      <trkpt lat="42.67092" lon="1.40044">
        <ele>2929.7548828125</ele>
        <time>2011-08-20T10:24:38Z</time>
      </trkpt>
      <trkpt lat="42.67094" lon="1.4005">
        <ele>2928.3129882812</ele>
        <time>2011-08-20T10:24:44Z</time>
      </trkpt>
      <trkpt lat="42.67097" lon="1.4005">
        <ele>2927.3515625</ele>
        <time>2011-08-20T10:24:49Z</time>
      </trkpt>
      <trkpt lat="42.67099" lon="1.40052">
        <ele>2926.87109375</ele>
        <time>2011-08-20T10:24:54Z</time>
      </trkpt>
      <trkpt lat="42.67104" lon="1.4005">
        <ele>2925.4291992188</ele>
        <time>2011-08-20T10:25:01Z</time>
      </trkpt>
      <trkpt lat="42.67109" lon="1.40052">
        <ele>2924.9482421875</ele>
        <time>2011-08-20T10:25:08Z</time>
      </trkpt>
      <trkpt lat="42.67111" lon="1.40055">
        <ele>2925.4291992188</ele>
        <time>2011-08-20T10:25:14Z</time>
      </trkpt>
      <trkpt lat="42.67111" lon="1.40056">
        <ele>2925.4291992188</ele>
        <time>2011-08-20T10:25:25Z</time>
      </trkpt>
      <trkpt lat="42.6711" lon="1.40056">
        <ele>2925.9096679688</ele>
        <time>2011-08-20T10:25:39Z</time>
      </trkpt>
      <trkpt lat="42.6711" lon="1.40055">
        <ele>2925.4291992188</ele>
        <time>2011-08-20T10:25:53Z</time>
      </trkpt>
      <trkpt lat="42.6711" lon="1.40053">
        <ele>2924.4677734375</ele>
        <time>2011-08-20T10:26:00Z</time>
      </trkpt>
      <trkpt lat="42.67112" lon="1.40048">
        <ele>2923.5063476562</ele>
        <time>2011-08-20T10:26:05Z</time>
      </trkpt>
      <trkpt lat="42.67112" lon="1.4004">
        <ele>2922.064453125</ele>
        <time>2011-08-20T10:26:11Z</time>
      </trkpt>
      <trkpt lat="42.67115" lon="1.40032">
        <ele>2918.6997070312</ele>
        <time>2011-08-20T10:26:18Z</time>
      </trkpt>
      <trkpt lat="42.67117" lon="1.40025">
        <ele>2916.296875</ele>
        <time>2011-08-20T10:26:25Z</time>
      </trkpt>
      <trkpt lat="42.6712" lon="1.40019">
        <ele>2915.3354492188</ele>
        <time>2011-08-20T10:26:30Z</time>
      </trkpt>
      <trkpt lat="42.67122" lon="1.40016">
        <ele>2913.8935546875</ele>
        <time>2011-08-20T10:26:32Z</time>
      </trkpt>
      <trkpt lat="42.67125" lon="1.40009">
        <ele>2911.490234375</ele>
        <time>2011-08-20T10:26:37Z</time>
      </trkpt>
      <trkpt lat="42.67126" lon="1.40004">
        <ele>2910.0483398438</ele>
        <time>2011-08-20T10:26:42Z</time>
      </trkpt>
      <trkpt lat="42.6713" lon="1.39997">
        <ele>2908.1254882812</ele>
        <time>2011-08-20T10:26:47Z</time>
      </trkpt>
      <trkpt lat="42.6713" lon="1.39994">
        <ele>2907.1640625</ele>
        <time>2011-08-20T10:26:49Z</time>
      </trkpt>
      <trkpt lat="42.67133" lon="1.39984">
        <ele>2903.7998046875</ele>
        <time>2011-08-20T10:26:57Z</time>
      </trkpt>
      <trkpt lat="42.67134" lon="1.39982">
        <ele>2903.7998046875</ele>
        <time>2011-08-20T10:26:59Z</time>
      </trkpt>
      <trkpt lat="42.67139" lon="1.39977">
        <ele>2903.7998046875</ele>
        <time>2011-08-20T10:27:06Z</time>
      </trkpt>
      <trkpt lat="42.67142" lon="1.39978">
        <ele>2905.2416992188</ele>
        <time>2011-08-20T10:27:11Z</time>
      </trkpt>
      <trkpt lat="42.67144" lon="1.39979">
        <ele>2907.1640625</ele>
        <time>2011-08-20T10:27:18Z</time>
      </trkpt>
      <trkpt lat="42.67147" lon="1.39978">
        <ele>2907.6450195312</ele>
        <time>2011-08-20T10:27:23Z</time>
      </trkpt>
      <trkpt lat="42.67149" lon="1.39974">
        <ele>2908.1254882812</ele>
        <time>2011-08-20T10:27:31Z</time>
      </trkpt>
      <trkpt lat="42.67151" lon="1.39967">
        <ele>2907.6450195312</ele>
        <time>2011-08-20T10:27:37Z</time>
      </trkpt>
      <trkpt lat="42.67157" lon="1.39967">
        <ele>2905.7221679688</ele>
        <time>2011-08-20T10:27:43Z</time>
      </trkpt>
      <trkpt lat="42.6716" lon="1.39967">
        <ele>2902.8383789062</ele>
        <time>2011-08-20T10:27:50Z</time>
      </trkpt>
      <trkpt lat="42.67163" lon="1.39969">
        <ele>2901.876953125</ele>
        <time>2011-08-20T10:27:57Z</time>
      </trkpt>
      <trkpt lat="42.67171" lon="1.39974">
        <ele>2900.916015625</ele>
        <time>2011-08-20T10:28:03Z</time>
      </trkpt>
      <trkpt lat="42.67172" lon="1.39974">
        <ele>2900.916015625</ele>
        <time>2011-08-20T10:28:04Z</time>
      </trkpt>
      <trkpt lat="42.67178" lon="1.39974">
        <ele>2899.9541015625</ele>
        <time>2011-08-20T10:28:11Z</time>
      </trkpt>
      <trkpt lat="42.6718" lon="1.39971">
        <ele>2899.9541015625</ele>
        <time>2011-08-20T10:28:17Z</time>
      </trkpt>
      <trkpt lat="42.67183" lon="1.39968">
        <ele>2899.4731445312</ele>
        <time>2011-08-20T10:28:22Z</time>
      </trkpt>
      <trkpt lat="42.67189" lon="1.39967">
        <ele>2896.5893554688</ele>
        <time>2011-08-20T10:28:29Z</time>
      </trkpt>
      <trkpt lat="42.67191" lon="1.39966">
        <ele>2896.1088867188</ele>
        <time>2011-08-20T10:28:32Z</time>
      </trkpt>
      <trkpt lat="42.67196" lon="1.39965">
        <ele>2895.1474609375</ele>
        <time>2011-08-20T10:28:37Z</time>
      </trkpt>
      <trkpt lat="42.67198" lon="1.39966">
        <ele>2893.2250976562</ele>
        <time>2011-08-20T10:28:42Z</time>
      </trkpt>
      <trkpt lat="42.672" lon="1.39965">
        <ele>2895.1474609375</ele>
        <time>2011-08-20T10:28:47Z</time>
      </trkpt>
      <trkpt lat="42.67202" lon="1.39965">
        <ele>2894.6669921875</ele>
        <time>2011-08-20T10:28:50Z</time>
      </trkpt>
      <trkpt lat="42.67205" lon="1.39961">
        <ele>2892.744140625</ele>
        <time>2011-08-20T10:28:55Z</time>
      </trkpt>
      <trkpt lat="42.67208" lon="1.39956">
        <ele>2890.8217773438</ele>
        <time>2011-08-20T10:29:02Z</time>
      </trkpt>
      <trkpt lat="42.6721" lon="1.39949">
        <ele>2892.744140625</ele>
        <time>2011-08-20T10:29:08Z</time>
      </trkpt>
      <trkpt lat="42.67211" lon="1.39944">
        <ele>2894.6669921875</ele>
        <time>2011-08-20T10:29:14Z</time>
      </trkpt>
      <trkpt lat="42.67216" lon="1.39938">
        <ele>2894.6669921875</ele>
        <time>2011-08-20T10:29:21Z</time>
      </trkpt>
      <trkpt lat="42.6722" lon="1.39936">
        <ele>2894.6669921875</ele>
        <time>2011-08-20T10:29:26Z</time>
      </trkpt>
      <trkpt lat="42.67224" lon="1.39934">
        <ele>2894.6669921875</ele>
        <time>2011-08-20T10:29:31Z</time>
      </trkpt>
      <trkpt lat="42.67228" lon="1.39933">
        <ele>2893.2250976562</ele>
        <time>2011-08-20T10:29:36Z</time>
      </trkpt>
      <trkpt lat="42.67232" lon="1.39932">
        <ele>2891.7827148438</ele>
        <time>2011-08-20T10:29:41Z</time>
      </trkpt>
      <trkpt lat="42.67238" lon="1.3993">
        <ele>2890.3408203125</ele>
        <time>2011-08-20T10:29:46Z</time>
      </trkpt>
      <trkpt lat="42.67243" lon="1.3993">
        <ele>2888.8989257812</ele>
        <time>2011-08-20T10:29:50Z</time>
      </trkpt>
      <trkpt lat="42.67249" lon="1.39936">
        <ele>2886.4956054688</ele>
        <time>2011-08-20T10:29:56Z</time>
      </trkpt>
      <trkpt lat="42.67256" lon="1.39936">
        <ele>2886.0151367188</ele>
        <time>2011-08-20T10:30:02Z</time>
      </trkpt>
      <trkpt lat="42.67263" lon="1.39939">
        <ele>2885.0537109375</ele>
        <time>2011-08-20T10:30:08Z</time>
      </trkpt>
      <trkpt lat="42.67269" lon="1.39943">
        <ele>2885.0537109375</ele>
        <time>2011-08-20T10:30:13Z</time>
      </trkpt>
      <trkpt lat="42.67271" lon="1.39943">
        <ele>2885.0537109375</ele>
        <time>2011-08-20T10:30:15Z</time>
      </trkpt>
      <trkpt lat="42.67279" lon="1.39945">
        <ele>2885.0537109375</ele>
        <time>2011-08-20T10:30:21Z</time>
      </trkpt>
      <trkpt lat="42.67285" lon="1.39946">
        <ele>2884.0922851562</ele>
        <time>2011-08-20T10:30:27Z</time>
      </trkpt>
      <trkpt lat="42.67287" lon="1.39947">
        <ele>2883.6118164062</ele>
        <time>2011-08-20T10:30:29Z</time>
      </trkpt>
      <trkpt lat="42.67292" lon="1.39949">
        <ele>2881.6889648438</ele>
        <time>2011-08-20T10:30:35Z</time>
      </trkpt>
      <trkpt lat="42.67298" lon="1.39952">
        <ele>2879.7666015625</ele>
        <time>2011-08-20T10:30:42Z</time>
      </trkpt>
      <trkpt lat="42.67302" lon="1.39953">
        <ele>2878.3247070312</ele>
        <time>2011-08-20T10:30:48Z</time>
      </trkpt>
      <trkpt lat="42.67309" lon="1.39956">
        <ele>2875.9213867188</ele>
        <time>2011-08-20T10:30:54Z</time>
      </trkpt>
      <trkpt lat="42.67318" lon="1.3996">
        <ele>2873.9985351562</ele>
        <time>2011-08-20T10:31:00Z</time>
      </trkpt>
      <trkpt lat="42.6732" lon="1.39962">
        <ele>2873.0375976562</ele>
        <time>2011-08-20T10:31:02Z</time>
      </trkpt>
      <trkpt lat="42.67323" lon="1.39962">
        <ele>2873.0375976562</ele>
        <time>2011-08-20T10:31:04Z</time>
      </trkpt>
      <trkpt lat="42.67328" lon="1.39968">
        <ele>2871.1147460938</ele>
        <time>2011-08-20T10:31:09Z</time>
      </trkpt>
      <trkpt lat="42.67329" lon="1.39973">
        <ele>2870.1538085938</ele>
        <time>2011-08-20T10:31:12Z</time>
      </trkpt>
      <trkpt lat="42.67329" lon="1.39978">
        <ele>2868.2309570312</ele>
        <time>2011-08-20T10:31:18Z</time>
      </trkpt>
      <trkpt lat="42.67334" lon="1.39976">
        <ele>2866.7885742188</ele>
        <time>2011-08-20T10:31:24Z</time>
      </trkpt>
      <trkpt lat="42.67337" lon="1.39971">
        <ele>2865.8271484375</ele>
        <time>2011-08-20T10:31:29Z</time>
      </trkpt>
      <trkpt lat="42.6734" lon="1.39966">
        <ele>2865.3466796875</ele>
        <time>2011-08-20T10:31:33Z</time>
      </trkpt>
      <trkpt lat="42.67348" lon="1.39967">
        <ele>2862.943359375</ele>
        <time>2011-08-20T10:31:38Z</time>
      </trkpt>
      <trkpt lat="42.67356" lon="1.39967">
        <ele>2862.462890625</ele>
        <time>2011-08-20T10:31:43Z</time>
      </trkpt>
      <trkpt lat="42.67359" lon="1.39965">
        <ele>2861.9819335938</ele>
        <time>2011-08-20T10:31:45Z</time>
      </trkpt>
      <trkpt lat="42.67367" lon="1.39964">
        <ele>2861.0205078125</ele>
        <time>2011-08-20T10:31:50Z</time>
      </trkpt>
      <trkpt lat="42.67371" lon="1.39959">
        <ele>2860.5400390625</ele>
        <time>2011-08-20T10:31:55Z</time>
      </trkpt>
      <trkpt lat="42.67376" lon="1.39952">
        <ele>2859.5786132812</ele>
        <time>2011-08-20T10:31:59Z</time>
      </trkpt>
      <trkpt lat="42.67384" lon="1.39949">
        <ele>2859.0981445312</ele>
        <time>2011-08-20T10:32:07Z</time>
      </trkpt>
      <trkpt lat="42.67387" lon="1.39947">
        <ele>2858.6171875</ele>
        <time>2011-08-20T10:32:09Z</time>
      </trkpt>
      <trkpt lat="42.67391" lon="1.39947">
        <ele>2858.6171875</ele>
        <time>2011-08-20T10:32:13Z</time>
      </trkpt>
      <trkpt lat="42.67396" lon="1.39943">
        <ele>2857.65625</ele>
        <time>2011-08-20T10:32:19Z</time>
      </trkpt>
      <trkpt lat="42.67399" lon="1.39946">
        <ele>2856.6948242188</ele>
        <time>2011-08-20T10:32:25Z</time>
      </trkpt>
      <trkpt lat="42.67405" lon="1.39947">
        <ele>2854.7724609375</ele>
        <time>2011-08-20T10:32:31Z</time>
      </trkpt>
      <trkpt lat="42.6741" lon="1.39947">
        <ele>2853.330078125</ele>
        <time>2011-08-20T10:32:35Z</time>
      </trkpt>
      <trkpt lat="42.67418" lon="1.39951">
        <ele>2852.369140625</ele>
        <time>2011-08-20T10:32:41Z</time>
      </trkpt>
      <trkpt lat="42.67421" lon="1.39955">
        <ele>2851.4077148438</ele>
        <time>2011-08-20T10:32:44Z</time>
      </trkpt>
      <trkpt lat="42.67431" lon="1.3995">
        <ele>2849.4848632812</ele>
        <time>2011-08-20T10:32:51Z</time>
      </trkpt>
      <trkpt lat="42.67439" lon="1.39938">
        <ele>2847.5625</ele>
        <time>2011-08-20T10:32:57Z</time>
      </trkpt>
      <trkpt lat="42.67447" lon="1.3993">
        <ele>2848.04296875</ele>
        <time>2011-08-20T10:33:02Z</time>
      </trkpt>
      <trkpt lat="42.67451" lon="1.39929">
        <ele>2848.5239257812</ele>
        <time>2011-08-20T10:33:06Z</time>
      </trkpt>
      <trkpt lat="42.67456" lon="1.39923">
        <ele>2848.5239257812</ele>
        <time>2011-08-20T10:33:12Z</time>
      </trkpt>
      <trkpt lat="42.67461" lon="1.39922">
        <ele>2848.5239257812</ele>
        <time>2011-08-20T10:33:16Z</time>
      </trkpt>
      <trkpt lat="42.67463" lon="1.39921">
        <ele>2849.0043945312</ele>
        <time>2011-08-20T10:33:19Z</time>
      </trkpt>
      <trkpt lat="42.67468" lon="1.39922">
        <ele>2848.04296875</ele>
        <time>2011-08-20T10:33:23Z</time>
      </trkpt>
      <trkpt lat="42.67476" lon="1.39918">
        <ele>2845.6396484375</ele>
        <time>2011-08-20T10:33:31Z</time>
      </trkpt>
      <trkpt lat="42.6748" lon="1.39921">
        <ele>2843.236328125</ele>
        <time>2011-08-20T10:33:37Z</time>
      </trkpt>
      <trkpt lat="42.67485" lon="1.39924">
        <ele>2841.3139648438</ele>
        <time>2011-08-20T10:33:43Z</time>
      </trkpt>
      <trkpt lat="42.67487" lon="1.39922">
        <ele>2839.3916015625</ele>
        <time>2011-08-20T10:33:48Z</time>
      </trkpt>
      <trkpt lat="42.67491" lon="1.3992">
        <ele>2837.46875</ele>
        <time>2011-08-20T10:33:53Z</time>
      </trkpt>
      <trkpt lat="42.67494" lon="1.39919">
        <ele>2836.0268554688</ele>
        <time>2011-08-20T10:33:58Z</time>
      </trkpt>
      <trkpt lat="42.67493" lon="1.39915">
        <ele>2834.103515625</ele>
        <time>2011-08-20T10:34:02Z</time>
      </trkpt>
      <trkpt lat="42.67495" lon="1.39905">
        <ele>2832.1811523438</ele>
        <time>2011-08-20T10:34:08Z</time>
      </trkpt>
      <trkpt lat="42.67498" lon="1.39903">
        <ele>2830.2583007812</ele>
        <time>2011-08-20T10:34:13Z</time>
      </trkpt>
      <trkpt lat="42.675" lon="1.39899">
        <ele>2827.8549804688</ele>
        <time>2011-08-20T10:34:18Z</time>
      </trkpt>
      <trkpt lat="42.67504" lon="1.39904">
        <ele>2825.9326171875</ele>
        <time>2011-08-20T10:34:23Z</time>
      </trkpt>
      <trkpt lat="42.67507" lon="1.39906">
        <ele>2824.9711914062</ele>
        <time>2011-08-20T10:34:27Z</time>
      </trkpt>
      <trkpt lat="42.6751" lon="1.39896">
        <ele>2821.1259765625</ele>
        <time>2011-08-20T10:34:36Z</time>
      </trkpt>
      <trkpt lat="42.67511" lon="1.39893">
        <ele>2819.6840820312</ele>
        <time>2011-08-20T10:34:41Z</time>
      </trkpt>
      <trkpt lat="42.67514" lon="1.39896">
        <ele>2818.2421875</ele>
        <time>2011-08-20T10:34:46Z</time>
      </trkpt>
      <trkpt lat="42.67516" lon="1.39899">
        <ele>2816.8002929688</ele>
        <time>2011-08-20T10:34:50Z</time>
      </trkpt>
      <trkpt lat="42.6752" lon="1.39905">
        <ele>2814.3969726562</ele>
        <time>2011-08-20T10:34:55Z</time>
      </trkpt>
      <trkpt lat="42.67526" lon="1.39907">
        <ele>2811.0322265625</ele>
        <time>2011-08-20T10:35:00Z</time>
      </trkpt>
      <trkpt lat="42.67529" lon="1.39914">
        <ele>2809.1098632812</ele>
        <time>2011-08-20T10:35:04Z</time>
      </trkpt>
      <trkpt lat="42.67529" lon="1.39916">
        <ele>2809.1098632812</ele>
        <time>2011-08-20T10:35:05Z</time>
      </trkpt>
      <trkpt lat="42.6753" lon="1.39922">
        <ele>2806.7065429688</ele>
        <time>2011-08-20T10:35:12Z</time>
      </trkpt>
      <trkpt lat="42.67533" lon="1.39918">
        <ele>2804.7836914062</ele>
        <time>2011-08-20T10:35:17Z</time>
      </trkpt>
      <trkpt lat="42.67535" lon="1.39915">
        <ele>2803.3413085938</ele>
        <time>2011-08-20T10:35:20Z</time>
      </trkpt>
      <trkpt lat="42.67537" lon="1.39904">
        <ele>2800.9384765625</ele>
        <time>2011-08-20T10:35:27Z</time>
      </trkpt>
      <trkpt lat="42.67538" lon="1.39894">
        <ele>2797.5737304688</ele>
        <time>2011-08-20T10:35:35Z</time>
      </trkpt>
      <trkpt lat="42.67538" lon="1.3989">
        <ele>2796.6123046875</ele>
        <time>2011-08-20T10:35:37Z</time>
      </trkpt>
      <trkpt lat="42.67543" lon="1.3989">
        <ele>2794.6899414062</ele>
        <time>2011-08-20T10:35:41Z</time>
      </trkpt>
      <trkpt lat="42.67545" lon="1.39885">
        <ele>2791.8056640625</ele>
        <time>2011-08-20T10:35:46Z</time>
      </trkpt>
      <trkpt lat="42.67548" lon="1.39885">
        <ele>2789.40234375</ele>
        <time>2011-08-20T10:35:51Z</time>
      </trkpt>
      <trkpt lat="42.67551" lon="1.39884">
        <ele>2787.4799804688</ele>
        <time>2011-08-20T10:35:56Z</time>
      </trkpt>
      <trkpt lat="42.67557" lon="1.39888">
        <ele>2784.5961914062</ele>
        <time>2011-08-20T10:36:03Z</time>
      </trkpt>
      <trkpt lat="42.67561" lon="1.39891">
        <ele>2781.7119140625</ele>
        <time>2011-08-20T10:36:09Z</time>
      </trkpt>
      <trkpt lat="42.67566" lon="1.39891">
        <ele>2778.34765625</ele>
        <time>2011-08-20T10:36:14Z</time>
      </trkpt>
      <trkpt lat="42.67569" lon="1.39893">
        <ele>2776.9057617188</ele>
        <time>2011-08-20T10:36:17Z</time>
      </trkpt>
      <trkpt lat="42.67573" lon="1.39887">
        <ele>2774.021484375</ele>
        <time>2011-08-20T10:36:22Z</time>
      </trkpt>
      <trkpt lat="42.6758" lon="1.39884">
        <ele>2773.060546875</ele>
        <time>2011-08-20T10:36:27Z</time>
      </trkpt>
      <trkpt lat="42.67586" lon="1.39885">
        <ele>2772.5795898438</ele>
        <time>2011-08-20T10:36:32Z</time>
      </trkpt>
      <trkpt lat="42.67591" lon="1.39884">
        <ele>2770.6567382812</ele>
        <time>2011-08-20T10:36:37Z</time>
      </trkpt>
      <trkpt lat="42.67598" lon="1.39887">
        <ele>2767.7729492188</ele>
        <time>2011-08-20T10:36:43Z</time>
      </trkpt>
      <trkpt lat="42.67604" lon="1.39886">
        <ele>2765.8500976562</ele>
        <time>2011-08-20T10:36:47Z</time>
      </trkpt>
      <trkpt lat="42.67607" lon="1.39889">
        <ele>2764.408203125</ele>
        <time>2011-08-20T10:36:51Z</time>
      </trkpt>
      <trkpt lat="42.67614" lon="1.39892">
        <ele>2762.0048828125</ele>
        <time>2011-08-20T10:36:58Z</time>
      </trkpt>
      <trkpt lat="42.67614" lon="1.39895">
        <ele>2761.0434570312</ele>
        <time>2011-08-20T10:37:03Z</time>
      </trkpt>
      <trkpt lat="42.67616" lon="1.39899">
        <ele>2759.6015625</ele>
        <time>2011-08-20T10:37:08Z</time>
      </trkpt>
      <trkpt lat="42.67619" lon="1.39899">
        <ele>2758.1596679688</ele>
        <time>2011-08-20T10:37:13Z</time>
      </trkpt>
      <trkpt lat="42.6762" lon="1.399">
        <ele>2757.1982421875</ele>
        <time>2011-08-20T10:37:25Z</time>
      </trkpt>
      <trkpt lat="42.6762" lon="1.399">
        <ele>2756.7177734375</ele>
        <time>2011-08-20T10:37:35Z</time>
      </trkpt>
      <trkpt lat="42.67622" lon="1.39903">
        <ele>2755.2758789062</ele>
        <time>2011-08-20T10:37:41Z</time>
      </trkpt>
      <trkpt lat="42.67624" lon="1.39906">
        <ele>2753.833984375</ele>
        <time>2011-08-20T10:37:47Z</time>
      </trkpt>
      <trkpt lat="42.67628" lon="1.39906">
        <ele>2751.4306640625</ele>
        <time>2011-08-20T10:37:54Z</time>
      </trkpt>
      <trkpt lat="42.67632" lon="1.39905">
        <ele>2749.9887695312</ele>
        <time>2011-08-20T10:37:59Z</time>
      </trkpt>
      <trkpt lat="42.67635" lon="1.39906">
        <ele>2749.02734375</ele>
        <time>2011-08-20T10:38:04Z</time>
      </trkpt>
      <trkpt lat="42.6764" lon="1.39905">
        <ele>2747.1049804688</ele>
        <time>2011-08-20T10:38:09Z</time>
      </trkpt>
      <trkpt lat="42.67645" lon="1.39907">
        <ele>2745.1821289062</ele>
        <time>2011-08-20T10:38:14Z</time>
      </trkpt>
      <trkpt lat="42.67648" lon="1.39908">
        <ele>2743.740234375</ele>
        <time>2011-08-20T10:38:17Z</time>
      </trkpt>
      <trkpt lat="42.67653" lon="1.39906">
        <ele>2740.8564453125</ele>
        <time>2011-08-20T10:38:22Z</time>
      </trkpt>
      <trkpt lat="42.67657" lon="1.39901">
        <ele>2738.4526367188</ele>
        <time>2011-08-20T10:38:27Z</time>
      </trkpt>
      <trkpt lat="42.67659" lon="1.39898">
        <ele>2737.0107421875</ele>
        <time>2011-08-20T10:38:30Z</time>
      </trkpt>
      <trkpt lat="42.67665" lon="1.39894">
        <ele>2735.568359375</ele>
        <time>2011-08-20T10:38:36Z</time>
      </trkpt>
      <trkpt lat="42.67669" lon="1.39897">
        <ele>2734.1264648438</ele>
        <time>2011-08-20T10:38:42Z</time>
      </trkpt>
      <trkpt lat="42.67672" lon="1.39894">
        <ele>2733.1655273438</ele>
        <time>2011-08-20T10:38:47Z</time>
      </trkpt>
      <trkpt lat="42.67677" lon="1.39892">
        <ele>2731.2426757812</ele>
        <time>2011-08-20T10:38:53Z</time>
      </trkpt>
      <trkpt lat="42.6768" lon="1.39891">
        <ele>2729.3203125</ele>
        <time>2011-08-20T10:38:57Z</time>
      </trkpt>
      <trkpt lat="42.67682" lon="1.39892">
        <ele>2728.8393554688</ele>
        <time>2011-08-20T10:38:59Z</time>
      </trkpt>
      <trkpt lat="42.67686" lon="1.39898">
        <ele>2726.9169921875</ele>
        <time>2011-08-20T10:39:05Z</time>
      </trkpt>
      <trkpt lat="42.67688" lon="1.399">
        <ele>2725.9555664062</ele>
        <time>2011-08-20T10:39:07Z</time>
      </trkpt>
      <trkpt lat="42.6769" lon="1.39905">
        <ele>2722.5908203125</ele>
        <time>2011-08-20T10:39:14Z</time>
      </trkpt>
      <trkpt lat="42.67691" lon="1.39908">
        <ele>2722.1103515625</ele>
        <time>2011-08-20T10:39:16Z</time>
      </trkpt>
      <trkpt lat="42.67694" lon="1.39913">
        <ele>2719.70703125</ele>
        <time>2011-08-20T10:39:22Z</time>
      </trkpt>
      <trkpt lat="42.67694" lon="1.39915">
        <ele>2718.2651367188</ele>
        <time>2011-08-20T10:39:27Z</time>
      </trkpt>
      <trkpt lat="42.67696" lon="1.39919">
        <ele>2716.3427734375</ele>
        <time>2011-08-20T10:39:34Z</time>
      </trkpt>
      <trkpt lat="42.677" lon="1.39915">
        <ele>2714.900390625</ele>
        <time>2011-08-20T10:39:39Z</time>
      </trkpt>
      <trkpt lat="42.67702" lon="1.39912">
        <ele>2714.900390625</ele>
        <time>2011-08-20T10:39:41Z</time>
      </trkpt>
      <trkpt lat="42.67705" lon="1.39906">
        <ele>2714.419921875</ele>
        <time>2011-08-20T10:39:46Z</time>
      </trkpt>
      <trkpt lat="42.67707" lon="1.39902">
        <ele>2712.4970703125</ele>
        <time>2011-08-20T10:39:51Z</time>
      </trkpt>
      <trkpt lat="42.6771" lon="1.399">
        <ele>2710.5747070312</ele>
        <time>2011-08-20T10:39:56Z</time>
      </trkpt>
      <trkpt lat="42.67711" lon="1.39897">
        <ele>2708.65234375</ele>
        <time>2011-08-20T10:40:02Z</time>
      </trkpt>
      <trkpt lat="42.67713" lon="1.39893">
        <ele>2705.767578125</ele>
        <time>2011-08-20T10:40:07Z</time>
      </trkpt>
      <trkpt lat="42.67717" lon="1.39889">
        <ele>2702.8837890625</ele>
        <time>2011-08-20T10:40:13Z</time>
      </trkpt>
      <trkpt lat="42.67717" lon="1.39882">
        <ele>2700</ele>
        <time>2011-08-20T10:40:19Z</time>
      </trkpt>
      <trkpt lat="42.6772" lon="1.39872">
        <ele>2696.6352539062</ele>
        <time>2011-08-20T10:40:25Z</time>
      </trkpt>
      <trkpt lat="42.67725" lon="1.39864">
        <ele>2694.2319335938</ele>
        <time>2011-08-20T10:40:32Z</time>
      </trkpt>
      <trkpt lat="42.6773" lon="1.39856">
        <ele>2692.7900390625</ele>
        <time>2011-08-20T10:40:38Z</time>
      </trkpt>
      <trkpt lat="42.67731" lon="1.39852">
        <ele>2692.3095703125</ele>
        <time>2011-08-20T10:40:41Z</time>
      </trkpt>
      <trkpt lat="42.67735" lon="1.39849">
        <ele>2691.8286132812</ele>
        <time>2011-08-20T10:40:44Z</time>
      </trkpt>
      <trkpt lat="42.67737" lon="1.39846">
        <ele>2689.90625</ele>
        <time>2011-08-20T10:40:48Z</time>
      </trkpt>
      <trkpt lat="42.67739" lon="1.3984">
        <ele>2688.4643554688</ele>
        <time>2011-08-20T10:40:55Z</time>
      </trkpt>
      <trkpt lat="42.67743" lon="1.39835">
        <ele>2687.5029296875</ele>
        <time>2011-08-20T10:40:59Z</time>
      </trkpt>
      <trkpt lat="42.67745" lon="1.39832">
        <ele>2688.4643554688</ele>
        <time>2011-08-20T10:41:01Z</time>
      </trkpt>
      <trkpt lat="42.67749" lon="1.39828">
        <ele>2687.5029296875</ele>
        <time>2011-08-20T10:41:06Z</time>
      </trkpt>
      <trkpt lat="42.6775" lon="1.39825">
        <ele>2687.0224609375</ele>
        <time>2011-08-20T10:41:08Z</time>
      </trkpt>
      <trkpt lat="42.67754" lon="1.39819">
        <ele>2684.619140625</ele>
        <time>2011-08-20T10:41:14Z</time>
      </trkpt>
      <trkpt lat="42.67759" lon="1.39815">
        <ele>2681.7348632812</ele>
        <time>2011-08-20T10:41:21Z</time>
      </trkpt>
      <trkpt lat="42.67761" lon="1.39812">
        <ele>2679.8125</ele>
        <time>2011-08-20T10:41:25Z</time>
      </trkpt>
      <trkpt lat="42.67764" lon="1.39808">
        <ele>2678.3706054688</ele>
        <time>2011-08-20T10:41:29Z</time>
      </trkpt>
      <trkpt lat="42.67768" lon="1.39802">
        <ele>2676.9287109375</ele>
        <time>2011-08-20T10:41:34Z</time>
      </trkpt>
      <trkpt lat="42.6777" lon="1.39798">
        <ele>2675.966796875</ele>
        <time>2011-08-20T10:41:38Z</time>
      </trkpt>
      <trkpt lat="42.67772" lon="1.39794">
        <ele>2677.4091796875</ele>
        <time>2011-08-20T10:41:41Z</time>
      </trkpt>
      <trkpt lat="42.67773" lon="1.3979">
        <ele>2677.4091796875</ele>
        <time>2011-08-20T10:41:44Z</time>
      </trkpt>
      <trkpt lat="42.67776" lon="1.39786">
        <ele>2678.3706054688</ele>
        <time>2011-08-20T10:41:51Z</time>
      </trkpt>
      <trkpt lat="42.67774" lon="1.39779">
        <ele>2676.9287109375</ele>
        <time>2011-08-20T10:41:57Z</time>
      </trkpt>
      <trkpt lat="42.67772" lon="1.39775">
        <ele>2677.4091796875</ele>
        <time>2011-08-20T10:42:00Z</time>
      </trkpt>
      <trkpt lat="42.67771" lon="1.3977">
        <ele>2676.9287109375</ele>
        <time>2011-08-20T10:42:03Z</time>
      </trkpt>
      <trkpt lat="42.67774" lon="1.39767">
        <ele>2675.966796875</ele>
        <time>2011-08-20T10:42:07Z</time>
      </trkpt>
      <trkpt lat="42.67777" lon="1.39765">
        <ele>2674.5249023438</ele>
        <time>2011-08-20T10:42:12Z</time>
      </trkpt>
      <trkpt lat="42.67781" lon="1.39768">
        <ele>2673.0830078125</ele>
        <time>2011-08-20T10:42:18Z</time>
      </trkpt>
      <trkpt lat="42.67781" lon="1.39766">
        <ele>2672.1215820312</ele>
        <time>2011-08-20T10:42:24Z</time>
      </trkpt>
      <trkpt lat="42.67782" lon="1.39761">
        <ele>2672.1215820312</ele>
        <time>2011-08-20T10:42:31Z</time>
      </trkpt>
      <trkpt lat="42.67783" lon="1.39761">
        <ele>2672.6020507812</ele>
        <time>2011-08-20T10:42:36Z</time>
      </trkpt>
      <trkpt lat="42.67786" lon="1.3976">
        <ele>2670.19921875</ele>
        <time>2011-08-20T10:42:42Z</time>
      </trkpt>
      <trkpt lat="42.67788" lon="1.39756">
        <ele>2668.2763671875</ele>
        <time>2011-08-20T10:42:46Z</time>
      </trkpt>
      <trkpt lat="42.67789" lon="1.39755">
        <ele>2665.873046875</ele>
        <time>2011-08-20T10:42:51Z</time>
      </trkpt>
      <trkpt lat="42.67789" lon="1.39754">
        <ele>2662.5087890625</ele>
        <time>2011-08-20T10:42:59Z</time>
      </trkpt>
      <trkpt lat="42.6779" lon="1.39752">
        <ele>2661.5473632812</ele>
        <time>2011-08-20T10:43:05Z</time>
      </trkpt>
      <trkpt lat="42.67791" lon="1.39751">
        <ele>2658.6630859375</ele>
        <time>2011-08-20T10:43:12Z</time>
      </trkpt>
      <trkpt lat="42.67793" lon="1.39748">
        <ele>2656.7407226562</ele>
        <time>2011-08-20T10:43:17Z</time>
      </trkpt>
      <trkpt lat="42.67797" lon="1.39744">
        <ele>2653.8569335938</ele>
        <time>2011-08-20T10:43:23Z</time>
      </trkpt>
      <trkpt lat="42.67799" lon="1.39742">
        <ele>2652.4150390625</ele>
        <time>2011-08-20T10:43:28Z</time>
      </trkpt>
      <trkpt lat="42.67801" lon="1.3974">
        <ele>2652.4150390625</ele>
        <time>2011-08-20T10:43:36Z</time>
      </trkpt>
      <trkpt lat="42.67802" lon="1.39738">
        <ele>2651.9340820312</ele>
        <time>2011-08-20T10:43:42Z</time>
      </trkpt>
      <trkpt lat="42.67803" lon="1.39737">
        <ele>2650.4921875</ele>
        <time>2011-08-20T10:43:48Z</time>
      </trkpt>
      <trkpt lat="42.67804" lon="1.39734">
        <ele>2647.6083984375</ele>
        <time>2011-08-20T10:43:53Z</time>
      </trkpt>
      <trkpt lat="42.67806" lon="1.39731">
        <ele>2644.724609375</ele>
        <time>2011-08-20T10:43:59Z</time>
      </trkpt>
      <trkpt lat="42.67807" lon="1.39725">
        <ele>2641.83984375</ele>
        <time>2011-08-20T10:44:06Z</time>
      </trkpt>
      <trkpt lat="42.67811" lon="1.39723">
        <ele>2640.3979492188</ele>
        <time>2011-08-20T10:44:11Z</time>
      </trkpt>
      <trkpt lat="42.67815" lon="1.39724">
        <ele>2641.359375</ele>
        <time>2011-08-20T10:44:16Z</time>
      </trkpt>
      <trkpt lat="42.67817" lon="1.39729">
        <ele>2641.359375</ele>
        <time>2011-08-20T10:44:24Z</time>
      </trkpt>
      <trkpt lat="42.67818" lon="1.39731">
        <ele>2640.3979492188</ele>
        <time>2011-08-20T10:44:29Z</time>
      </trkpt>
      <trkpt lat="42.67819" lon="1.39736">
        <ele>2637.5141601562</ele>
        <time>2011-08-20T10:44:36Z</time>
      </trkpt>
      <trkpt lat="42.67821" lon="1.39737">
        <ele>2635.5913085938</ele>
        <time>2011-08-20T10:44:40Z</time>
      </trkpt>
      <trkpt lat="42.67824" lon="1.3974">
        <ele>2633.1884765625</ele>
        <time>2011-08-20T10:44:46Z</time>
      </trkpt>
      <trkpt lat="42.67826" lon="1.39744">
        <ele>2631.265625</ele>
        <time>2011-08-20T10:44:51Z</time>
      </trkpt>
      <trkpt lat="42.67825" lon="1.39749">
        <ele>2629.3432617188</ele>
        <time>2011-08-20T10:44:56Z</time>
      </trkpt>
      <trkpt lat="42.67826" lon="1.39752">
        <ele>2627.9008789062</ele>
        <time>2011-08-20T10:45:02Z</time>
      </trkpt>
      <trkpt lat="42.67828" lon="1.39755">
        <ele>2625.498046875</ele>
        <time>2011-08-20T10:45:09Z</time>
      </trkpt>
      <trkpt lat="42.6783" lon="1.39759">
        <ele>2624.0561523438</ele>
        <time>2011-08-20T10:45:14Z</time>
      </trkpt>
      <trkpt lat="42.67831" lon="1.3976">
        <ele>2622.6137695312</ele>
        <time>2011-08-20T10:45:20Z</time>
      </trkpt>
      <trkpt lat="42.67833" lon="1.39761">
        <ele>2620.69140625</ele>
        <time>2011-08-20T10:45:27Z</time>
      </trkpt>
      <trkpt lat="42.67834" lon="1.3976">
        <ele>2618.7685546875</ele>
        <time>2011-08-20T10:45:35Z</time>
      </trkpt>
      <trkpt lat="42.67837" lon="1.3976">
        <ele>2618.7685546875</ele>
        <time>2011-08-20T10:45:42Z</time>
      </trkpt>
      <trkpt lat="42.6784" lon="1.39761">
        <ele>2617.8076171875</ele>
        <time>2011-08-20T10:45:49Z</time>
      </trkpt>
      <trkpt lat="42.67841" lon="1.39763">
        <ele>2615.884765625</ele>
        <time>2011-08-20T10:45:55Z</time>
      </trkpt>
      <trkpt lat="42.67844" lon="1.39767">
        <ele>2613.4814453125</ele>
        <time>2011-08-20T10:46:03Z</time>
      </trkpt>
      <trkpt lat="42.67845" lon="1.39766">
        <ele>2612.5200195312</ele>
        <time>2011-08-20T10:46:07Z</time>
      </trkpt>
      <trkpt lat="42.67847" lon="1.39763">
        <ele>2611.55859375</ele>
        <time>2011-08-20T10:46:11Z</time>
      </trkpt>
      <trkpt lat="42.67849" lon="1.3976">
        <ele>2609.1552734375</ele>
        <time>2011-08-20T10:46:16Z</time>
      </trkpt>
      <trkpt lat="42.67852" lon="1.39758">
        <ele>2608.6748046875</ele>
        <time>2011-08-20T10:46:19Z</time>
      </trkpt>
      <trkpt lat="42.67856" lon="1.39758">
        <ele>2607.7133789062</ele>
        <time>2011-08-20T10:46:24Z</time>
      </trkpt>
      <trkpt lat="42.67859" lon="1.39757">
        <ele>2605.7905273438</ele>
        <time>2011-08-20T10:46:30Z</time>
      </trkpt>
      <trkpt lat="42.67862" lon="1.39755">
        <ele>2603.8681640625</ele>
        <time>2011-08-20T10:46:36Z</time>
      </trkpt>
      <trkpt lat="42.67863" lon="1.39754">
        <ele>2601.9453125</ele>
        <time>2011-08-20T10:46:41Z</time>
      </trkpt>
      <trkpt lat="42.67867" lon="1.39752">
        <ele>2599.5419921875</ele>
        <time>2011-08-20T10:46:48Z</time>
      </trkpt>
      <trkpt lat="42.67871" lon="1.39751">
        <ele>2598.1000976562</ele>
        <time>2011-08-20T10:46:54Z</time>
      </trkpt>
      <trkpt lat="42.67873" lon="1.39748">
        <ele>2596.658203125</ele>
        <time>2011-08-20T10:46:59Z</time>
      </trkpt>
      <trkpt lat="42.67876" lon="1.39746">
        <ele>2594.2548828125</ele>
        <time>2011-08-20T10:47:06Z</time>
      </trkpt>
      <trkpt lat="42.67878" lon="1.39743">
        <ele>2592.3325195312</ele>
        <time>2011-08-20T10:47:11Z</time>
      </trkpt>
      <trkpt lat="42.67883" lon="1.39744">
        <ele>2589.4484863281</ele>
        <time>2011-08-20T10:47:17Z</time>
      </trkpt>
      <trkpt lat="42.67886" lon="1.39743">
        <ele>2588.9677734375</ele>
        <time>2011-08-20T10:47:21Z</time>
      </trkpt>
      <trkpt lat="42.67888" lon="1.39747">
        <ele>2587.5256347656</ele>
        <time>2011-08-20T10:47:26Z</time>
      </trkpt>
      <trkpt lat="42.6789" lon="1.39744">
        <ele>2585.6030273438</ele>
        <time>2011-08-20T10:47:30Z</time>
      </trkpt>
      <trkpt lat="42.67893" lon="1.39741">
        <ele>2583.6804199219</ele>
        <time>2011-08-20T10:47:35Z</time>
      </trkpt>
      <trkpt lat="42.67897" lon="1.39744">
        <ele>2582.2385253906</ele>
        <time>2011-08-20T10:47:40Z</time>
      </trkpt>
      <trkpt lat="42.67898" lon="1.39749">
        <ele>2581.2770996094</ele>
        <time>2011-08-20T10:47:44Z</time>
      </trkpt>
      <trkpt lat="42.679" lon="1.3976">
        <ele>2581.2770996094</ele>
        <time>2011-08-20T10:47:51Z</time>
      </trkpt>
      <trkpt lat="42.67901" lon="1.39763">
        <ele>2580.7966308594</ele>
        <time>2011-08-20T10:47:53Z</time>
      </trkpt>
      <trkpt lat="42.67906" lon="1.39768">
        <ele>2581.2770996094</ele>
        <time>2011-08-20T10:48:00Z</time>
      </trkpt>
      <trkpt lat="42.67907" lon="1.3977">
        <ele>2581.2770996094</ele>
        <time>2011-08-20T10:48:01Z</time>
      </trkpt>
      <trkpt lat="42.67905" lon="1.39776">
        <ele>2581.2770996094</ele>
        <time>2011-08-20T10:48:06Z</time>
      </trkpt>
      <trkpt lat="42.67905" lon="1.39781">
        <ele>2582.2385253906</ele>
        <time>2011-08-20T10:48:11Z</time>
      </trkpt>
      <trkpt lat="42.67907" lon="1.39788">
        <ele>2583.6804199219</ele>
        <time>2011-08-20T10:48:18Z</time>
      </trkpt>
      <trkpt lat="42.67905" lon="1.39799">
        <ele>2583.6804199219</ele>
        <time>2011-08-20T10:48:25Z</time>
      </trkpt>
      <trkpt lat="42.67905" lon="1.398">
        <ele>2583.6804199219</ele>
        <time>2011-08-20T10:48:26Z</time>
      </trkpt>
      <trkpt lat="42.67904" lon="1.39807">
        <ele>2582.7189941406</ele>
        <time>2011-08-20T10:48:30Z</time>
      </trkpt>
      <trkpt lat="42.67905" lon="1.39817">
        <ele>2581.7578125</ele>
        <time>2011-08-20T10:48:38Z</time>
      </trkpt>
      <trkpt lat="42.67907" lon="1.39819">
        <ele>2581.7578125</ele>
        <time>2011-08-20T10:48:39Z</time>
      </trkpt>
      <trkpt lat="42.67908" lon="1.39824">
        <ele>2581.7578125</ele>
        <time>2011-08-20T10:48:44Z</time>
      </trkpt>
      <trkpt lat="42.67911" lon="1.39829">
        <ele>2582.2385253906</ele>
        <time>2011-08-20T10:48:50Z</time>
      </trkpt>
      <trkpt lat="42.67915" lon="1.39832">
        <ele>2583.1997070312</ele>
        <time>2011-08-20T10:48:55Z</time>
      </trkpt>
      <trkpt lat="42.67918" lon="1.39837">
        <ele>2583.1997070312</ele>
        <time>2011-08-20T10:49:00Z</time>
      </trkpt>
      <trkpt lat="42.67921" lon="1.39843">
        <ele>2582.2385253906</ele>
        <time>2011-08-20T10:49:06Z</time>
      </trkpt>
      <trkpt lat="42.67926" lon="1.39851">
        <ele>2582.2385253906</ele>
        <time>2011-08-20T10:49:13Z</time>
      </trkpt>
      <trkpt lat="42.67926" lon="1.39855">
        <ele>2581.7578125</ele>
        <time>2011-08-20T10:49:16Z</time>
      </trkpt>
      <trkpt lat="42.67926" lon="1.39859">
        <ele>2581.7578125</ele>
        <time>2011-08-20T10:49:22Z</time>
      </trkpt>
      <trkpt lat="42.67923" lon="1.39861">
        <ele>2583.1997070312</ele>
        <time>2011-08-20T10:49:28Z</time>
      </trkpt>
      <trkpt lat="42.67923" lon="1.39865">
        <ele>2582.2385253906</ele>
        <time>2011-08-20T10:49:34Z</time>
      </trkpt>
      <trkpt lat="42.67924" lon="1.39869">
        <ele>2579.3544921875</ele>
        <time>2011-08-20T10:49:39Z</time>
      </trkpt>
      <trkpt lat="42.67926" lon="1.39874">
        <ele>2575.9899902344</ele>
        <time>2011-08-20T10:49:45Z</time>
      </trkpt>
      <trkpt lat="42.67926" lon="1.39878">
        <ele>2575.9899902344</ele>
        <time>2011-08-20T10:49:50Z</time>
      </trkpt>
      <trkpt lat="42.67931" lon="1.39879">
        <ele>2574.5480957031</ele>
        <time>2011-08-20T10:49:55Z</time>
      </trkpt>
      <trkpt lat="42.67933" lon="1.39877">
        <ele>2574.5480957031</ele>
        <time>2011-08-20T10:49:57Z</time>
      </trkpt>
      <trkpt lat="42.67938" lon="1.39871">
        <ele>2573.1062011719</ele>
        <time>2011-08-20T10:50:02Z</time>
      </trkpt>
      <trkpt lat="42.6794" lon="1.39869">
        <ele>2572.1447753906</ele>
        <time>2011-08-20T10:50:04Z</time>
      </trkpt>
      <trkpt lat="42.67943" lon="1.39868">
        <ele>2570.7026367188</ele>
        <time>2011-08-20T10:50:09Z</time>
      </trkpt>
      <trkpt lat="42.67947" lon="1.39869">
        <ele>2569.7412109375</ele>
        <time>2011-08-20T10:50:12Z</time>
      </trkpt>
      <trkpt lat="42.67953" lon="1.39861">
        <ele>2566.3767089844</ele>
        <time>2011-08-20T10:50:17Z</time>
      </trkpt>
      <trkpt lat="42.67956" lon="1.39855">
        <ele>2565.4155273438</ele>
        <time>2011-08-20T10:50:20Z</time>
      </trkpt>
      <trkpt lat="42.67957" lon="1.39853">
        <ele>2564.9348144531</ele>
        <time>2011-08-20T10:50:22Z</time>
      </trkpt>
      <trkpt lat="42.6796" lon="1.39852">
        <ele>2563.0122070312</ele>
        <time>2011-08-20T10:50:28Z</time>
      </trkpt>
      <trkpt lat="42.6796" lon="1.39854">
        <ele>2563.4926757812</ele>
        <time>2011-08-20T10:50:34Z</time>
      </trkpt>
      <trkpt lat="42.67961" lon="1.39852">
        <ele>2563.9733886719</ele>
        <time>2011-08-20T10:50:39Z</time>
      </trkpt>
      <trkpt lat="42.67963" lon="1.39849">
        <ele>2568.2993164062</ele>
        <time>2011-08-20T10:50:47Z</time>
      </trkpt>
      <trkpt lat="42.67964" lon="1.39846">
        <ele>2569.7412109375</ele>
        <time>2011-08-20T10:50:51Z</time>
      </trkpt>
      <trkpt lat="42.67968" lon="1.3984">
        <ele>2574.5480957031</ele>
        <time>2011-08-20T10:51:02Z</time>
      </trkpt>
      <trkpt lat="42.6797" lon="1.39839">
        <ele>2572.6254882812</ele>
        <time>2011-08-20T10:51:05Z</time>
      </trkpt>
      <trkpt lat="42.67973" lon="1.39834">
        <ele>2568.2993164062</ele>
        <time>2011-08-20T10:51:09Z</time>
      </trkpt>
      <trkpt lat="42.67978" lon="1.39828">
        <ele>2565.8959960938</ele>
        <time>2011-08-20T10:51:15Z</time>
      </trkpt>
      <trkpt lat="42.67979" lon="1.39826">
        <ele>2564.9348144531</ele>
        <time>2011-08-20T10:51:17Z</time>
      </trkpt>
      <trkpt lat="42.67981" lon="1.39826">
        <ele>2562.5314941406</ele>
        <time>2011-08-20T10:51:25Z</time>
      </trkpt>
      <trkpt lat="42.67981" lon="1.39828">
        <ele>2558.2055664062</ele>
        <time>2011-08-20T10:51:31Z</time>
      </trkpt>
      <trkpt lat="42.67983" lon="1.39827">
        <ele>2557.2443847656</ele>
        <time>2011-08-20T10:51:37Z</time>
      </trkpt>
      <trkpt lat="42.67983" lon="1.39826">
        <ele>2557.2443847656</ele>
        <time>2011-08-20T10:52:01Z</time>
      </trkpt>
      <trkpt lat="42.67985" lon="1.39824">
        <ele>2556.2829589844</ele>
        <time>2011-08-20T10:52:29Z</time>
      </trkpt>
      <trkpt lat="42.67987" lon="1.39819">
        <ele>2556.2829589844</ele>
        <time>2011-08-20T10:52:35Z</time>
      </trkpt>
      <trkpt lat="42.67989" lon="1.39812">
        <ele>2555.3215332031</ele>
        <time>2011-08-20T10:52:41Z</time>
      </trkpt>
      <trkpt lat="42.6799" lon="1.39806">
        <ele>2553.8796386719</ele>
        <time>2011-08-20T10:52:45Z</time>
      </trkpt>
      <trkpt lat="42.67991" lon="1.39795">
        <ele>2552.4375</ele>
        <time>2011-08-20T10:52:52Z</time>
      </trkpt>
      <trkpt lat="42.67994" lon="1.3979">
        <ele>2551.4763183594</ele>
        <time>2011-08-20T10:52:57Z</time>
      </trkpt>
      <trkpt lat="42.67994" lon="1.39784">
        <ele>2550.5148925781</ele>
        <time>2011-08-20T10:53:04Z</time>
      </trkpt>
      <trkpt lat="42.67994" lon="1.39781">
        <ele>2549.5537109375</ele>
        <time>2011-08-20T10:53:09Z</time>
      </trkpt>
      <trkpt lat="42.67993" lon="1.39778">
        <ele>2549.0729980469</ele>
        <time>2011-08-20T10:53:15Z</time>
      </trkpt>
      <trkpt lat="42.67995" lon="1.39773">
        <ele>2547.6311035156</ele>
        <time>2011-08-20T10:53:22Z</time>
      </trkpt>
      <trkpt lat="42.67996" lon="1.39769">
        <ele>2545.2277832031</ele>
        <time>2011-08-20T10:53:27Z</time>
      </trkpt>
      <trkpt lat="42.67998" lon="1.39763">
        <ele>2543.3051757812</ele>
        <time>2011-08-20T10:53:31Z</time>
      </trkpt>
      <trkpt lat="42.68" lon="1.39759">
        <ele>2541.86328125</ele>
        <time>2011-08-20T10:53:35Z</time>
      </trkpt>
      <trkpt lat="42.68003" lon="1.39755">
        <ele>2539.4597167969</ele>
        <time>2011-08-20T10:53:42Z</time>
      </trkpt>
      <trkpt lat="42.68006" lon="1.3975">
        <ele>2538.4985351562</ele>
        <time>2011-08-20T10:53:46Z</time>
      </trkpt>
      <trkpt lat="42.68008" lon="1.39746">
        <ele>2537.0563964844</ele>
        <time>2011-08-20T10:53:51Z</time>
      </trkpt>
      <trkpt lat="42.6801" lon="1.39741">
        <ele>2535.6145019531</ele>
        <time>2011-08-20T10:53:56Z</time>
      </trkpt>
      <trkpt lat="42.68014" lon="1.39738">
        <ele>2533.6918945312</ele>
        <time>2011-08-20T10:54:02Z</time>
      </trkpt>
      <trkpt lat="42.68017" lon="1.39731">
        <ele>2532.25</ele>
        <time>2011-08-20T10:54:07Z</time>
      </trkpt>
      <trkpt lat="42.68025" lon="1.39726">
        <ele>2529.3659667969</ele>
        <time>2011-08-20T10:54:14Z</time>
      </trkpt>
      <trkpt lat="42.6803" lon="1.39719">
        <ele>2527.443359375</ele>
        <time>2011-08-20T10:54:21Z</time>
      </trkpt>
      <trkpt lat="42.68032" lon="1.39717">
        <ele>2526.0014648438</ele>
        <time>2011-08-20T10:54:24Z</time>
      </trkpt>
      <trkpt lat="42.68035" lon="1.3971">
        <ele>2523.5979003906</ele>
        <time>2011-08-20T10:54:31Z</time>
      </trkpt>
      <trkpt lat="42.68037" lon="1.39706">
        <ele>2522.63671875</ele>
        <time>2011-08-20T10:54:35Z</time>
      </trkpt>
      <trkpt lat="42.68042" lon="1.39698">
        <ele>2521.1945800781</ele>
        <time>2011-08-20T10:54:42Z</time>
      </trkpt>
      <trkpt lat="42.68044" lon="1.39696">
        <ele>2520.7141113281</ele>
        <time>2011-08-20T10:54:44Z</time>
      </trkpt>
      <trkpt lat="42.68045" lon="1.39689">
        <ele>2519.7526855469</ele>
        <time>2011-08-20T10:54:51Z</time>
      </trkpt>
      <trkpt lat="42.68047" lon="1.39682">
        <ele>2518.3107910156</ele>
        <time>2011-08-20T10:54:56Z</time>
      </trkpt>
      <trkpt lat="42.68047" lon="1.39674">
        <ele>2516.8688964844</ele>
        <time>2011-08-20T10:55:02Z</time>
      </trkpt>
      <trkpt lat="42.68048" lon="1.39666">
        <ele>2517.3493652344</ele>
        <time>2011-08-20T10:55:07Z</time>
      </trkpt>
      <trkpt lat="42.6805" lon="1.39662">
        <ele>2518.7915039062</ele>
        <time>2011-08-20T10:55:11Z</time>
      </trkpt>
      <trkpt lat="42.6805" lon="1.39657">
        <ele>2519.7526855469</ele>
        <time>2011-08-20T10:55:15Z</time>
      </trkpt>
      <trkpt lat="42.68053" lon="1.39642">
        <ele>2520.2333984375</ele>
        <time>2011-08-20T10:55:23Z</time>
      </trkpt>
      <trkpt lat="42.68057" lon="1.39631">
        <ele>2522.1560058594</ele>
        <time>2011-08-20T10:55:31Z</time>
      </trkpt>
      <trkpt lat="42.68061" lon="1.39623">
        <ele>2522.63671875</ele>
        <time>2011-08-20T10:55:39Z</time>
      </trkpt>
      <trkpt lat="42.68064" lon="1.39619">
        <ele>2523.1174316406</ele>
        <time>2011-08-20T10:55:44Z</time>
      </trkpt>
      <trkpt lat="42.68068" lon="1.39613">
        <ele>2523.5979003906</ele>
        <time>2011-08-20T10:55:51Z</time>
      </trkpt>
      <trkpt lat="42.68073" lon="1.39607">
        <ele>2524.0788574219</ele>
        <time>2011-08-20T10:55:57Z</time>
      </trkpt>
      <trkpt lat="42.68074" lon="1.39606">
        <ele>2524.5595703125</ele>
        <time>2011-08-20T10:55:58Z</time>
      </trkpt>
      <trkpt lat="42.68076" lon="1.39596">
        <ele>2524.0788574219</ele>
        <time>2011-08-20T10:56:05Z</time>
      </trkpt>
      <trkpt lat="42.68076" lon="1.39594">
        <ele>2523.5979003906</ele>
        <time>2011-08-20T10:56:06Z</time>
      </trkpt>
      <trkpt lat="42.68077" lon="1.39588">
        <ele>2521.6752929688</ele>
        <time>2011-08-20T10:56:11Z</time>
      </trkpt>
      <trkpt lat="42.68081" lon="1.39581">
        <ele>2518.7915039062</ele>
        <time>2011-08-20T10:56:18Z</time>
      </trkpt>
      <trkpt lat="42.68082" lon="1.39578">
        <ele>2516.3881835938</ele>
        <time>2011-08-20T10:56:23Z</time>
      </trkpt>
      <trkpt lat="42.68081" lon="1.39576">
        <ele>2514.4655761719</ele>
        <time>2011-08-20T10:56:29Z</time>
      </trkpt>
      <trkpt lat="42.68082" lon="1.39572">
        <ele>2514.9462890625</ele>
        <time>2011-08-20T10:56:35Z</time>
      </trkpt>
      <trkpt lat="42.68082" lon="1.39568">
        <ele>2513.9848632812</ele>
        <time>2011-08-20T10:56:41Z</time>
      </trkpt>
      <trkpt lat="42.68083" lon="1.39564">
        <ele>2513.0236816406</ele>
        <time>2011-08-20T10:56:47Z</time>
      </trkpt>
      <trkpt lat="42.68084" lon="1.39559">
        <ele>2510.6203613281</ele>
        <time>2011-08-20T10:56:55Z</time>
      </trkpt>
      <trkpt lat="42.68084" lon="1.39555">
        <ele>2508.6977539062</ele>
        <time>2011-08-20T10:57:01Z</time>
      </trkpt>
      <trkpt lat="42.68087" lon="1.39548">
        <ele>2505.3330078125</ele>
        <time>2011-08-20T10:57:08Z</time>
      </trkpt>
      <trkpt lat="42.68092" lon="1.39545">
        <ele>2502.4489746094</ele>
        <time>2011-08-20T10:57:13Z</time>
      </trkpt>
      <trkpt lat="42.68091" lon="1.39541">
        <ele>2501.0070800781</ele>
        <time>2011-08-20T10:57:17Z</time>
      </trkpt>
      <trkpt lat="42.68095" lon="1.39536">
        <ele>2499.0844726562</ele>
        <time>2011-08-20T10:57:24Z</time>
      </trkpt>
      <trkpt lat="42.68098" lon="1.39532">
        <ele>2496.6811523438</ele>
        <time>2011-08-20T10:57:29Z</time>
      </trkpt>
      <trkpt lat="42.68098" lon="1.39528">
        <ele>2494.2778320312</ele>
        <time>2011-08-20T10:57:34Z</time>
      </trkpt>
      <trkpt lat="42.68098" lon="1.39525">
        <ele>2491.8745117188</ele>
        <time>2011-08-20T10:57:39Z</time>
      </trkpt>
      <trkpt lat="42.68097" lon="1.39521">
        <ele>2488.9904785156</ele>
        <time>2011-08-20T10:57:44Z</time>
      </trkpt>
      <trkpt lat="42.68098" lon="1.39517">
        <ele>2487.5485839844</ele>
        <time>2011-08-20T10:57:48Z</time>
      </trkpt>
      <trkpt lat="42.68102" lon="1.39511">
        <ele>2482.7419433594</ele>
        <time>2011-08-20T10:57:55Z</time>
      </trkpt>
      <trkpt lat="42.68101" lon="1.39507">
        <ele>2479.8581542969</ele>
        <time>2011-08-20T10:58:01Z</time>
      </trkpt>
      <trkpt lat="42.681" lon="1.39502">
        <ele>2477.935546875</ele>
        <time>2011-08-20T10:58:05Z</time>
      </trkpt>
      <trkpt lat="42.681" lon="1.39498">
        <ele>2476.0129394531</ele>
        <time>2011-08-20T10:58:10Z</time>
      </trkpt>
      <trkpt lat="42.681" lon="1.39493">
        <ele>2474.5708007812</ele>
        <time>2011-08-20T10:58:16Z</time>
      </trkpt>
      <trkpt lat="42.68103" lon="1.39488">
        <ele>2473.12890625</ele>
        <time>2011-08-20T10:58:21Z</time>
      </trkpt>
      <trkpt lat="42.68101" lon="1.39486">
        <ele>2472.1674804688</ele>
        <time>2011-08-20T10:58:25Z</time>
      </trkpt>
      <trkpt lat="42.681" lon="1.39482">
        <ele>2471.6867675781</ele>
        <time>2011-08-20T10:58:29Z</time>
      </trkpt>
      <trkpt lat="42.68103" lon="1.39477">
        <ele>2469.7641601562</ele>
        <time>2011-08-20T10:58:35Z</time>
      </trkpt>
      <trkpt lat="42.68105" lon="1.39474">
        <ele>2468.8029785156</ele>
        <time>2011-08-20T10:58:39Z</time>
      </trkpt>
      <trkpt lat="42.68105" lon="1.39473">
        <ele>2467.3608398438</ele>
        <time>2011-08-20T10:58:44Z</time>
      </trkpt>
      <trkpt lat="42.68105" lon="1.39469">
        <ele>2465.9189453125</ele>
        <time>2011-08-20T10:58:50Z</time>
      </trkpt>
      <trkpt lat="42.68106" lon="1.39468">
        <ele>2464.9577636719</ele>
        <time>2011-08-20T10:58:56Z</time>
      </trkpt>
      <trkpt lat="42.6811" lon="1.39463">
        <ele>2464.4770507812</ele>
        <time>2011-08-20T10:59:00Z</time>
      </trkpt>
      <trkpt lat="42.68118" lon="1.39461">
        <ele>2463.9963378906</ele>
        <time>2011-08-20T10:59:05Z</time>
      </trkpt>
      <trkpt lat="42.68127" lon="1.39454">
        <ele>2463.03515625</ele>
        <time>2011-08-20T10:59:11Z</time>
      </trkpt>
      <trkpt lat="42.68131" lon="1.39458">
        <ele>2463.03515625</ele>
        <time>2011-08-20T10:59:17Z</time>
      </trkpt>
      <trkpt lat="42.68134" lon="1.39457">
        <ele>2462.0737304688</ele>
        <time>2011-08-20T10:59:20Z</time>
      </trkpt>
      <trkpt lat="42.68137" lon="1.39455">
        <ele>2460.6318359375</ele>
        <time>2011-08-20T10:59:25Z</time>
      </trkpt>
      <trkpt lat="42.68141" lon="1.39456">
        <ele>2459.1896972656</ele>
        <time>2011-08-20T10:59:30Z</time>
      </trkpt>
      <trkpt lat="42.68145" lon="1.39458">
        <ele>2457.7478027344</ele>
        <time>2011-08-20T10:59:36Z</time>
      </trkpt>
      <trkpt lat="42.68147" lon="1.39458">
        <ele>2457.2670898438</ele>
        <time>2011-08-20T10:59:41Z</time>
      </trkpt>
      <trkpt lat="42.68148" lon="1.39457">
        <ele>2455.8249511719</ele>
        <time>2011-08-20T10:59:46Z</time>
      </trkpt>
      <trkpt lat="42.68153" lon="1.39457">
        <ele>2453.421875</ele>
        <time>2011-08-20T10:59:51Z</time>
      </trkpt>
      <trkpt lat="42.68158" lon="1.39456">
        <ele>2451.0185546875</ele>
        <time>2011-08-20T10:59:57Z</time>
      </trkpt>
      <trkpt lat="42.68161" lon="1.39456">
        <ele>2450.0573730469</ele>
        <time>2011-08-20T10:59:59Z</time>
      </trkpt>
      <trkpt lat="42.68167" lon="1.39454">
        <ele>2446.2121582031</ele>
        <time>2011-08-20T11:00:05Z</time>
      </trkpt>
      <trkpt lat="42.68169" lon="1.39453">
        <ele>2445.7314453125</ele>
        <time>2011-08-20T11:00:07Z</time>
      </trkpt>
      <trkpt lat="42.68176" lon="1.39449">
        <ele>2441.4052734375</ele>
        <time>2011-08-20T11:00:17Z</time>
      </trkpt>
      <trkpt lat="42.6818" lon="1.39448">
        <ele>2439.001953125</ele>
        <time>2011-08-20T11:00:23Z</time>
      </trkpt>
      <trkpt lat="42.68187" lon="1.39448">
        <ele>2436.5986328125</ele>
        <time>2011-08-20T11:00:29Z</time>
      </trkpt>
      <trkpt lat="42.68192" lon="1.39447">
        <ele>2434.1955566406</ele>
        <time>2011-08-20T11:00:34Z</time>
      </trkpt>
      <trkpt lat="42.68195" lon="1.39441">
        <ele>2431.3115234375</ele>
        <time>2011-08-20T11:00:40Z</time>
      </trkpt>
      <trkpt lat="42.68197" lon="1.39439">
        <ele>2430.3503417969</ele>
        <time>2011-08-20T11:00:44Z</time>
      </trkpt>
      <trkpt lat="42.682" lon="1.39436">
        <ele>2428.427734375</ele>
        <time>2011-08-20T11:00:49Z</time>
      </trkpt>
      <trkpt lat="42.682" lon="1.39432">
        <ele>2427.4660644531</ele>
        <time>2011-08-20T11:00:53Z</time>
      </trkpt>
      <trkpt lat="42.682" lon="1.39428">
        <ele>2425.5434570312</ele>
        <time>2011-08-20T11:00:58Z</time>
      </trkpt>
      <trkpt lat="42.68201" lon="1.39427">
        <ele>2424.5822753906</ele>
        <time>2011-08-20T11:01:03Z</time>
      </trkpt>
      <trkpt lat="42.68199" lon="1.39422">
        <ele>2423.1403808594</ele>
        <time>2011-08-20T11:01:09Z</time>
      </trkpt>
      <trkpt lat="42.682" lon="1.39419">
        <ele>2422.1789550781</ele>
        <time>2011-08-20T11:01:13Z</time>
      </trkpt>
      <trkpt lat="42.68201" lon="1.39414">
        <ele>2421.2175292969</ele>
        <time>2011-08-20T11:01:19Z</time>
      </trkpt>
      <trkpt lat="42.68205" lon="1.39412">
        <ele>2419.2951660156</ele>
        <time>2011-08-20T11:01:25Z</time>
      </trkpt>
      <trkpt lat="42.68206" lon="1.39409">
        <ele>2418.3337402344</ele>
        <time>2011-08-20T11:01:31Z</time>
      </trkpt>
      <trkpt lat="42.68206" lon="1.39405">
        <ele>2416.8918457031</ele>
        <time>2011-08-20T11:01:36Z</time>
      </trkpt>
      <trkpt lat="42.68208" lon="1.39402">
        <ele>2415.4499511719</ele>
        <time>2011-08-20T11:01:41Z</time>
      </trkpt>
      <trkpt lat="42.68207" lon="1.39397">
        <ele>2414.4885253906</ele>
        <time>2011-08-20T11:01:47Z</time>
      </trkpt>
      <trkpt lat="42.6821" lon="1.39394">
        <ele>2412.5659179688</ele>
        <time>2011-08-20T11:01:53Z</time>
      </trkpt>
      <trkpt lat="42.68215" lon="1.39395">
        <ele>2411.1237792969</ele>
        <time>2011-08-20T11:01:59Z</time>
      </trkpt>
      <trkpt lat="42.68222" lon="1.39396">
        <ele>2409.201171875</ele>
        <time>2011-08-20T11:02:06Z</time>
      </trkpt>
      <trkpt lat="42.68231" lon="1.39396">
        <ele>2408.7204589844</ele>
        <time>2011-08-20T11:02:11Z</time>
      </trkpt>
      <trkpt lat="42.68234" lon="1.39398">
        <ele>2408.7204589844</ele>
        <time>2011-08-20T11:02:13Z</time>
      </trkpt>
      <trkpt lat="42.68236" lon="1.39411">
        <ele>2408.2397460938</ele>
        <time>2011-08-20T11:02:20Z</time>
      </trkpt>
      <trkpt lat="42.68237" lon="1.39414">
        <ele>2408.2397460938</ele>
        <time>2011-08-20T11:02:22Z</time>
      </trkpt>
      <trkpt lat="42.68243" lon="1.39417">
        <ele>2407.2785644531</ele>
        <time>2011-08-20T11:02:29Z</time>
      </trkpt>
      <trkpt lat="42.68248" lon="1.39422">
        <ele>2406.7978515625</ele>
        <time>2011-08-20T11:02:35Z</time>
      </trkpt>
      <trkpt lat="42.6825" lon="1.39422">
        <ele>2407.2785644531</ele>
        <time>2011-08-20T11:02:37Z</time>
      </trkpt>
      <trkpt lat="42.68258" lon="1.39426">
        <ele>2406.7978515625</ele>
        <time>2011-08-20T11:02:45Z</time>
      </trkpt>
      <trkpt lat="42.68265" lon="1.39429">
        <ele>2404.8752441406</ele>
        <time>2011-08-20T11:02:51Z</time>
      </trkpt>
      <trkpt lat="42.68269" lon="1.3943">
        <ele>2404.39453125</ele>
        <time>2011-08-20T11:02:54Z</time>
      </trkpt>
      <trkpt lat="42.68277" lon="1.39434">
        <ele>2402.9526367188</ele>
        <time>2011-08-20T11:03:01Z</time>
      </trkpt>
      <trkpt lat="42.68281" lon="1.39436">
        <ele>2401.0300292969</ele>
        <time>2011-08-20T11:03:05Z</time>
      </trkpt>
      <trkpt lat="42.68282" lon="1.39438">
        <ele>2400.5493164062</ele>
        <time>2011-08-20T11:03:07Z</time>
      </trkpt>
      <trkpt lat="42.68287" lon="1.39441">
        <ele>2398.1459960938</ele>
        <time>2011-08-20T11:03:13Z</time>
      </trkpt>
      <trkpt lat="42.68291" lon="1.39442">
        <ele>2396.2236328125</ele>
        <time>2011-08-20T11:03:19Z</time>
      </trkpt>
      <trkpt lat="42.68293" lon="1.39443">
        <ele>2395.2619628906</ele>
        <time>2011-08-20T11:03:22Z</time>
      </trkpt>
      <trkpt lat="42.68298" lon="1.39448">
        <ele>2393.8200683594</ele>
        <time>2011-08-20T11:03:28Z</time>
      </trkpt>
      <trkpt lat="42.68299" lon="1.39449">
        <ele>2393.3393554688</ele>
        <time>2011-08-20T11:03:29Z</time>
      </trkpt>
      <trkpt lat="42.68303" lon="1.39449">
        <ele>2391.8974609375</ele>
        <time>2011-08-20T11:03:32Z</time>
      </trkpt>
      <trkpt lat="42.68314" lon="1.39454">
        <ele>2390.9360351562</ele>
        <time>2011-08-20T11:03:39Z</time>
      </trkpt>
      <trkpt lat="42.68319" lon="1.39456">
        <ele>2389.494140625</ele>
        <time>2011-08-20T11:03:42Z</time>
      </trkpt>
      <trkpt lat="42.68323" lon="1.39458">
        <ele>2388.5329589844</ele>
        <time>2011-08-20T11:03:44Z</time>
      </trkpt>
      <trkpt lat="42.6833" lon="1.39457">
        <ele>2387.5715332031</ele>
        <time>2011-08-20T11:03:48Z</time>
      </trkpt>
      <trkpt lat="42.68339" lon="1.39457">
        <ele>2386.1296386719</ele>
        <time>2011-08-20T11:03:53Z</time>
      </trkpt>
      <trkpt lat="42.68349" lon="1.3946">
        <ele>2382.7648925781</ele>
        <time>2011-08-20T11:04:00Z</time>
      </trkpt>
      <trkpt lat="42.68356" lon="1.39462">
        <ele>2380.8425292969</ele>
        <time>2011-08-20T11:04:04Z</time>
      </trkpt>
      <trkpt lat="42.6836" lon="1.39461">
        <ele>2378.9194335938</ele>
        <time>2011-08-20T11:04:08Z</time>
      </trkpt>
      <trkpt lat="42.68367" lon="1.39463">
        <ele>2376.9970703125</ele>
        <time>2011-08-20T11:04:15Z</time>
      </trkpt>
      <trkpt lat="42.68368" lon="1.39457">
        <ele>2375.5549316406</ele>
        <time>2011-08-20T11:04:21Z</time>
      </trkpt>
      <trkpt lat="42.68373" lon="1.39457">
        <ele>2374.1130371094</ele>
        <time>2011-08-20T11:04:26Z</time>
      </trkpt>
      <trkpt lat="42.68377" lon="1.39458">
        <ele>2371.7097167969</ele>
        <time>2011-08-20T11:04:31Z</time>
      </trkpt>
      <trkpt lat="42.68385" lon="1.39456">
        <ele>2370.7485351562</ele>
        <time>2011-08-20T11:04:38Z</time>
      </trkpt>
      <trkpt lat="42.68388" lon="1.39456">
        <ele>2370.2678222656</ele>
        <time>2011-08-20T11:04:41Z</time>
      </trkpt>
      <trkpt lat="42.68395" lon="1.39461">
        <ele>2368.3452148438</ele>
        <time>2011-08-20T11:04:46Z</time>
      </trkpt>
      <trkpt lat="42.68403" lon="1.39462">
        <ele>2367.3837890625</ele>
        <time>2011-08-20T11:04:52Z</time>
      </trkpt>
      <trkpt lat="42.68412" lon="1.39464">
        <ele>2366.9033203125</ele>
        <time>2011-08-20T11:04:59Z</time>
      </trkpt>
      <trkpt lat="42.68417" lon="1.39468">
        <ele>2368.3452148438</ele>
        <time>2011-08-20T11:05:04Z</time>
      </trkpt>
      <trkpt lat="42.68423" lon="1.39473">
        <ele>2369.787109375</ele>
        <time>2011-08-20T11:05:10Z</time>
      </trkpt>
      <trkpt lat="42.68429" lon="1.39477">
        <ele>2370.7485351562</ele>
        <time>2011-08-20T11:05:16Z</time>
      </trkpt>
      <trkpt lat="42.68433" lon="1.3948">
        <ele>2370.2678222656</ele>
        <time>2011-08-20T11:05:20Z</time>
      </trkpt>
      <trkpt lat="42.68441" lon="1.39483">
        <ele>2370.2678222656</ele>
        <time>2011-08-20T11:05:27Z</time>
      </trkpt>
      <trkpt lat="42.68449" lon="1.39488">
        <ele>2371.2290039062</ele>
        <time>2011-08-20T11:05:34Z</time>
      </trkpt>
      <trkpt lat="42.68457" lon="1.39494">
        <ele>2371.2290039062</ele>
        <time>2011-08-20T11:05:42Z</time>
      </trkpt>
      <trkpt lat="42.68465" lon="1.395">
        <ele>2370.2678222656</ele>
        <time>2011-08-20T11:05:50Z</time>
      </trkpt>
      <trkpt lat="42.6847" lon="1.39503">
        <ele>2370.2678222656</ele>
        <time>2011-08-20T11:05:55Z</time>
      </trkpt>
      <trkpt lat="42.68474" lon="1.39507">
        <ele>2371.7097167969</ele>
        <time>2011-08-20T11:06:01Z</time>
      </trkpt>
      <trkpt lat="42.68477" lon="1.39509">
        <ele>2373.1518554688</ele>
        <time>2011-08-20T11:06:07Z</time>
      </trkpt>
      <trkpt lat="42.6848" lon="1.39511">
        <ele>2374.59375</ele>
        <time>2011-08-20T11:06:12Z</time>
      </trkpt>
      <trkpt lat="42.68483" lon="1.39514">
        <ele>2374.1130371094</ele>
        <time>2011-08-20T11:06:17Z</time>
      </trkpt>
      <trkpt lat="42.68489" lon="1.39517">
        <ele>2375.5549316406</ele>
        <time>2011-08-20T11:06:23Z</time>
      </trkpt>
      <trkpt lat="42.68495" lon="1.39519">
        <ele>2376.0356445312</ele>
        <time>2011-08-20T11:06:29Z</time>
      </trkpt>
      <trkpt lat="42.68499" lon="1.3952">
        <ele>2376.5163574219</ele>
        <time>2011-08-20T11:06:34Z</time>
      </trkpt>
      <trkpt lat="42.68507" lon="1.39521">
        <ele>2376.5163574219</ele>
        <time>2011-08-20T11:06:41Z</time>
      </trkpt>
      <trkpt lat="42.68516" lon="1.39526">
        <ele>2376.5163574219</ele>
        <time>2011-08-20T11:06:48Z</time>
      </trkpt>
      <trkpt lat="42.68518" lon="1.39529">
        <ele>2376.9970703125</ele>
        <time>2011-08-20T11:06:51Z</time>
      </trkpt>
      <trkpt lat="42.68522" lon="1.39534">
        <ele>2378.4389648438</ele>
        <time>2011-08-20T11:06:57Z</time>
      </trkpt>
      <trkpt lat="42.68525" lon="1.39535">
        <ele>2378.9194335938</ele>
        <time>2011-08-20T11:07:01Z</time>
      </trkpt>
      <trkpt lat="42.6853" lon="1.39539">
        <ele>2379.4001464844</ele>
        <time>2011-08-20T11:07:07Z</time>
      </trkpt>
      <trkpt lat="42.68536" lon="1.39545">
        <ele>2380.3618164062</ele>
        <time>2011-08-20T11:07:14Z</time>
      </trkpt>
      <trkpt lat="42.68546" lon="1.3955">
        <ele>2378.9194335938</ele>
        <time>2011-08-20T11:07:22Z</time>
      </trkpt>
      <trkpt lat="42.68551" lon="1.39552">
        <ele>2378.9194335938</ele>
        <time>2011-08-20T11:07:27Z</time>
      </trkpt>
      <trkpt lat="42.68556" lon="1.39552">
        <ele>2380.8425292969</ele>
        <time>2011-08-20T11:07:32Z</time>
      </trkpt>
      <trkpt lat="42.68564" lon="1.39562">
        <ele>2381.3229980469</ele>
        <time>2011-08-20T11:07:40Z</time>
      </trkpt>
      <trkpt lat="42.68567" lon="1.39567">
        <ele>2381.3229980469</ele>
        <time>2011-08-20T11:07:45Z</time>
      </trkpt>
      <trkpt lat="42.68573" lon="1.39571">
        <ele>2382.2844238281</ele>
        <time>2011-08-20T11:07:51Z</time>
      </trkpt>
      <trkpt lat="42.68578" lon="1.39575">
        <ele>2383.7263183594</ele>
        <time>2011-08-20T11:07:58Z</time>
      </trkpt>
      <trkpt lat="42.68584" lon="1.39579">
        <ele>2385.1682128906</ele>
        <time>2011-08-20T11:08:05Z</time>
      </trkpt>
      <trkpt lat="42.6859" lon="1.39582">
        <ele>2384.6877441406</ele>
        <time>2011-08-20T11:08:12Z</time>
      </trkpt>
      <trkpt lat="42.68594" lon="1.39584">
        <ele>2384.20703125</ele>
        <time>2011-08-20T11:08:17Z</time>
      </trkpt>
      <trkpt lat="42.68599" lon="1.39585">
        <ele>2383.7263183594</ele>
        <time>2011-08-20T11:08:23Z</time>
      </trkpt>
      <trkpt lat="42.68603" lon="1.39584">
        <ele>2383.2456054688</ele>
        <time>2011-08-20T11:08:26Z</time>
      </trkpt>
      <trkpt lat="42.68609" lon="1.39585">
        <ele>2383.7263183594</ele>
        <time>2011-08-20T11:08:32Z</time>
      </trkpt>
      <trkpt lat="42.68612" lon="1.39587">
        <ele>2383.7263183594</ele>
        <time>2011-08-20T11:08:35Z</time>
      </trkpt>
      <trkpt lat="42.68616" lon="1.39589">
        <ele>2383.7263183594</ele>
        <time>2011-08-20T11:08:39Z</time>
      </trkpt>
      <trkpt lat="42.6862" lon="1.39593">
        <ele>2382.7648925781</ele>
        <time>2011-08-20T11:08:46Z</time>
      </trkpt>
      <trkpt lat="42.68625" lon="1.39596">
        <ele>2381.3229980469</ele>
        <time>2011-08-20T11:08:51Z</time>
      </trkpt>
      <trkpt lat="42.68631" lon="1.39594">
        <ele>2379.880859375</ele>
        <time>2011-08-20T11:08:55Z</time>
      </trkpt>
      <trkpt lat="42.68636" lon="1.39594">
        <ele>2378.9194335938</ele>
        <time>2011-08-20T11:08:59Z</time>
      </trkpt>
      <trkpt lat="42.68641" lon="1.39591">
        <ele>2376.5163574219</ele>
        <time>2011-08-20T11:09:05Z</time>
      </trkpt>
      <trkpt lat="42.68647" lon="1.39591">
        <ele>2375.07421875</ele>
        <time>2011-08-20T11:09:10Z</time>
      </trkpt>
      <trkpt lat="42.6865" lon="1.39594">
        <ele>2374.59375</ele>
        <time>2011-08-20T11:09:14Z</time>
      </trkpt>
      <trkpt lat="42.68655" lon="1.396">
        <ele>2374.1130371094</ele>
        <time>2011-08-20T11:09:20Z</time>
      </trkpt>
      <trkpt lat="42.68655" lon="1.39601">
        <ele>2374.59375</ele>
        <time>2011-08-20T11:09:21Z</time>
      </trkpt>
      <trkpt lat="42.6866" lon="1.39604">
        <ele>2374.1130371094</ele>
        <time>2011-08-20T11:09:26Z</time>
      </trkpt>
      <trkpt lat="42.6866" lon="1.39604">
        <ele>2373.6323242188</ele>
        <time>2011-08-20T11:09:27Z</time>
      </trkpt>
      <trkpt lat="42.68667" lon="1.39608">
        <ele>2375.07421875</ele>
        <time>2011-08-20T11:09:33Z</time>
      </trkpt>
      <trkpt lat="42.68675" lon="1.39611">
        <ele>2375.5549316406</ele>
        <time>2011-08-20T11:09:42Z</time>
      </trkpt>
      <trkpt lat="42.6868" lon="1.3961">
        <ele>2375.5549316406</ele>
        <time>2011-08-20T11:09:47Z</time>
      </trkpt>
      <trkpt lat="42.68681" lon="1.39609">
        <ele>2375.5549316406</ele>
        <time>2011-08-20T11:09:48Z</time>
      </trkpt>
      <trkpt lat="42.68685" lon="1.39608">
        <ele>2376.5163574219</ele>
        <time>2011-08-20T11:09:54Z</time>
      </trkpt>
      <trkpt lat="42.68688" lon="1.39608">
        <ele>2377.4775390625</ele>
        <time>2011-08-20T11:10:00Z</time>
      </trkpt>
      <trkpt lat="42.68687" lon="1.39609">
        <ele>2381.8037109375</ele>
        <time>2011-08-20T11:10:09Z</time>
      </trkpt>
      <trkpt lat="42.68689" lon="1.3961">
        <ele>2382.2844238281</ele>
        <time>2011-08-20T11:10:19Z</time>
      </trkpt>
      <trkpt lat="42.68692" lon="1.39609">
        <ele>2382.2844238281</ele>
        <time>2011-08-20T11:10:25Z</time>
      </trkpt>
      <trkpt lat="42.68697" lon="1.39615">
        <ele>2380.8425292969</ele>
        <time>2011-08-20T11:10:32Z</time>
      </trkpt>
      <trkpt lat="42.68705" lon="1.39614">
        <ele>2377.9582519531</ele>
        <time>2011-08-20T11:10:40Z</time>
      </trkpt>
      <trkpt lat="42.68707" lon="1.39614">
        <ele>2376.9970703125</ele>
        <time>2011-08-20T11:10:41Z</time>
      </trkpt>
      <trkpt lat="42.68708" lon="1.39616">
        <ele>2376.5163574219</ele>
        <time>2011-08-20T11:10:43Z</time>
      </trkpt>
      <trkpt lat="42.68713" lon="1.39619">
        <ele>2373.1518554688</ele>
        <time>2011-08-20T11:10:49Z</time>
      </trkpt>
      <trkpt lat="42.68718" lon="1.39616">
        <ele>2369.306640625</ele>
        <time>2011-08-20T11:10:55Z</time>
      </trkpt>
      <trkpt lat="42.68724" lon="1.39611">
        <ele>2363.5383300781</ele>
        <time>2011-08-20T11:11:01Z</time>
      </trkpt>
      <trkpt lat="42.68727" lon="1.39612">
        <ele>2361.1352539062</ele>
        <time>2011-08-20T11:11:05Z</time>
      </trkpt>
      <trkpt lat="42.68734" lon="1.3961">
        <ele>2358.7319335938</ele>
        <time>2011-08-20T11:11:11Z</time>
      </trkpt>
      <trkpt lat="42.6874" lon="1.39611">
        <ele>2358.2512207031</ele>
        <time>2011-08-20T11:11:14Z</time>
      </trkpt>
      <trkpt lat="42.68742" lon="1.39609">
        <ele>2360.173828125</ele>
        <time>2011-08-20T11:11:18Z</time>
      </trkpt>
      <trkpt lat="42.68747" lon="1.39608">
        <ele>2359.6931152344</ele>
        <time>2011-08-20T11:11:23Z</time>
      </trkpt>
      <trkpt lat="42.68755" lon="1.39611">
        <ele>2359.6931152344</ele>
        <time>2011-08-20T11:11:29Z</time>
      </trkpt>
      <trkpt lat="42.68763" lon="1.39612">
        <ele>2358.2512207031</ele>
        <time>2011-08-20T11:11:35Z</time>
      </trkpt>
      <trkpt lat="42.68767" lon="1.3961">
        <ele>2356.8093261719</ele>
        <time>2011-08-20T11:11:39Z</time>
      </trkpt>
      <trkpt lat="42.68771" lon="1.39606">
        <ele>2355.8479003906</ele>
        <time>2011-08-20T11:11:44Z</time>
      </trkpt>
      <trkpt lat="42.68774" lon="1.39606">
        <ele>2354.4060058594</ele>
        <time>2011-08-20T11:11:47Z</time>
      </trkpt>
      <trkpt lat="42.6878" lon="1.39604">
        <ele>2353.4448242188</ele>
        <time>2011-08-20T11:11:52Z</time>
      </trkpt>
      <trkpt lat="42.68782" lon="1.39602">
        <ele>2352.4833984375</ele>
        <time>2011-08-20T11:11:55Z</time>
      </trkpt>
      <trkpt lat="42.68784" lon="1.39595">
        <ele>2351.5222167969</ele>
        <time>2011-08-20T11:12:01Z</time>
      </trkpt>
      <trkpt lat="42.68787" lon="1.39598">
        <ele>2349.599609375</ele>
        <time>2011-08-20T11:12:06Z</time>
      </trkpt>
      <trkpt lat="42.68793" lon="1.39597">
        <ele>2347.1960449219</ele>
        <time>2011-08-20T11:12:12Z</time>
      </trkpt>
      <trkpt lat="42.68795" lon="1.39598">
        <ele>2346.2348632812</ele>
        <time>2011-08-20T11:12:14Z</time>
      </trkpt>
      <trkpt lat="42.688" lon="1.39596">
        <ele>2344.7927246094</ele>
        <time>2011-08-20T11:12:18Z</time>
      </trkpt>
      <trkpt lat="42.68812" lon="1.39596">
        <ele>2341.9089355469</ele>
        <time>2011-08-20T11:12:24Z</time>
      </trkpt>
      <trkpt lat="42.68819" lon="1.39594">
        <ele>2341.4282226562</ele>
        <time>2011-08-20T11:12:30Z</time>
      </trkpt>
      <trkpt lat="42.68822" lon="1.39594">
        <ele>2342.3896484375</ele>
        <time>2011-08-20T11:12:34Z</time>
      </trkpt>
      <trkpt lat="42.68828" lon="1.39596">
        <ele>2344.7927246094</ele>
        <time>2011-08-20T11:12:40Z</time>
      </trkpt>
      <trkpt lat="42.68832" lon="1.39596">
        <ele>2344.7927246094</ele>
        <time>2011-08-20T11:12:47Z</time>
      </trkpt>
      <trkpt lat="42.68837" lon="1.396">
        <ele>2343.3508300781</ele>
        <time>2011-08-20T11:12:53Z</time>
      </trkpt>
      <trkpt lat="42.6884" lon="1.39602">
        <ele>2342.3896484375</ele>
        <time>2011-08-20T11:12:56Z</time>
      </trkpt>
      <trkpt lat="42.68846" lon="1.39606">
        <ele>2340.466796875</ele>
        <time>2011-08-20T11:13:01Z</time>
      </trkpt>
      <trkpt lat="42.68847" lon="1.396">
        <ele>2338.0637207031</ele>
        <time>2011-08-20T11:13:05Z</time>
      </trkpt>
      <trkpt lat="42.68852" lon="1.39596">
        <ele>2335.1796875</ele>
        <time>2011-08-20T11:13:09Z</time>
      </trkpt>
      <trkpt lat="42.68856" lon="1.39589">
        <ele>2332.2958984375</ele>
        <time>2011-08-20T11:13:15Z</time>
      </trkpt>
      <trkpt lat="42.68858" lon="1.39585">
        <ele>2330.373046875</ele>
        <time>2011-08-20T11:13:18Z</time>
      </trkpt>
      <trkpt lat="42.68864" lon="1.39577">
        <ele>2327.9697265625</ele>
        <time>2011-08-20T11:13:24Z</time>
      </trkpt>
      <trkpt lat="42.68866" lon="1.39574">
        <ele>2326.0471191406</ele>
        <time>2011-08-20T11:13:27Z</time>
      </trkpt>
      <trkpt lat="42.68868" lon="1.3957">
        <ele>2323.6437988281</ele>
        <time>2011-08-20T11:13:31Z</time>
      </trkpt>
      <trkpt lat="42.68872" lon="1.39568">
        <ele>2321.2404785156</ele>
        <time>2011-08-20T11:13:34Z</time>
      </trkpt>
      <trkpt lat="42.68876" lon="1.3957">
        <ele>2322.6826171875</ele>
        <time>2011-08-20T11:13:39Z</time>
      </trkpt>
      <trkpt lat="42.68882" lon="1.3957">
        <ele>2321.2404785156</ele>
        <time>2011-08-20T11:13:48Z</time>
      </trkpt>
      <trkpt lat="42.68884" lon="1.39571">
        <ele>2321.2404785156</ele>
        <time>2011-08-20T11:13:50Z</time>
      </trkpt>
      <trkpt lat="42.6889" lon="1.39572">
        <ele>2319.3181152344</ele>
        <time>2011-08-20T11:13:55Z</time>
      </trkpt>
      <trkpt lat="42.68893" lon="1.39563">
        <ele>2315.953125</ele>
        <time>2011-08-20T11:14:01Z</time>
      </trkpt>
      <trkpt lat="42.68896" lon="1.3956">
        <ele>2314.9919433594</ele>
        <time>2011-08-20T11:14:04Z</time>
      </trkpt>
      <trkpt lat="42.68906" lon="1.39561">
        <ele>2313.0693359375</ele>
        <time>2011-08-20T11:14:11Z</time>
      </trkpt>
      <trkpt lat="42.68909" lon="1.39562">
        <ele>2312.5886230469</ele>
        <time>2011-08-20T11:14:14Z</time>
      </trkpt>
      <trkpt lat="42.68914" lon="1.39558">
        <ele>2309.7045898438</ele>
        <time>2011-08-20T11:14:19Z</time>
      </trkpt>
      <trkpt lat="42.68917" lon="1.39551">
        <ele>2307.7822265625</ele>
        <time>2011-08-20T11:14:24Z</time>
      </trkpt>
      <trkpt lat="42.68922" lon="1.39551">
        <ele>2306.8208007812</ele>
        <time>2011-08-20T11:14:28Z</time>
      </trkpt>
      <trkpt lat="42.68929" lon="1.39559">
        <ele>2304.4174804688</ele>
        <time>2011-08-20T11:14:35Z</time>
      </trkpt>
      <trkpt lat="42.68932" lon="1.39563">
        <ele>2302.4948730469</ele>
        <time>2011-08-20T11:14:39Z</time>
      </trkpt>
      <trkpt lat="42.68939" lon="1.39563">
        <ele>2299.1301269531</ele>
        <time>2011-08-20T11:14:45Z</time>
      </trkpt>
      <trkpt lat="42.68941" lon="1.39555">
        <ele>2297.2075195312</ele>
        <time>2011-08-20T11:14:50Z</time>
      </trkpt>
      <trkpt lat="42.68948" lon="1.3955">
        <ele>2295.765625</ele>
        <time>2011-08-20T11:14:55Z</time>
      </trkpt>
      <trkpt lat="42.6895" lon="1.39545">
        <ele>2293.3623046875</ele>
        <time>2011-08-20T11:14:59Z</time>
      </trkpt>
      <trkpt lat="42.68951" lon="1.39538">
        <ele>2291.9204101562</ele>
        <time>2011-08-20T11:15:03Z</time>
      </trkpt>
      <trkpt lat="42.68956" lon="1.39535">
        <ele>2290.4782714844</ele>
        <time>2011-08-20T11:15:06Z</time>
      </trkpt>
      <trkpt lat="42.68966" lon="1.39539">
        <ele>2288.5559082031</ele>
        <time>2011-08-20T11:15:12Z</time>
      </trkpt>
      <trkpt lat="42.68968" lon="1.3954">
        <ele>2287.5944824219</ele>
        <time>2011-08-20T11:15:14Z</time>
      </trkpt>
      <trkpt lat="42.68973" lon="1.3954">
        <ele>2286.1525878906</ele>
        <time>2011-08-20T11:15:18Z</time>
      </trkpt>
      <trkpt lat="42.68983" lon="1.39541">
        <ele>2283.2683105469</ele>
        <time>2011-08-20T11:15:24Z</time>
      </trkpt>
      <trkpt lat="42.68985" lon="1.39542">
        <ele>2282.7875976562</ele>
        <time>2011-08-20T11:15:26Z</time>
      </trkpt>
      <trkpt lat="42.68987" lon="1.39544">
        <ele>2281.8264160156</ele>
        <time>2011-08-20T11:15:29Z</time>
      </trkpt>
      <trkpt lat="42.68992" lon="1.39547">
        <ele>2279.4230957031</ele>
        <time>2011-08-20T11:15:36Z</time>
      </trkpt>
      <trkpt lat="42.68995" lon="1.39546">
        <ele>2278.4619140625</ele>
        <time>2011-08-20T11:15:41Z</time>
      </trkpt>
      <trkpt lat="42.68999" lon="1.39541">
        <ele>2276.5393066406</ele>
        <time>2011-08-20T11:15:46Z</time>
      </trkpt>
      <trkpt lat="42.68998" lon="1.39535">
        <ele>2275.0971679688</ele>
        <time>2011-08-20T11:15:51Z</time>
      </trkpt>
      <trkpt lat="42.68998" lon="1.39533">
        <ele>2275.0971679688</ele>
        <time>2011-08-20T11:15:52Z</time>
      </trkpt>
      <trkpt lat="42.69001" lon="1.39528">
        <ele>2272.2133789062</ele>
        <time>2011-08-20T11:15:58Z</time>
      </trkpt>
      <trkpt lat="42.69002" lon="1.39525">
        <ele>2271.7326660156</ele>
        <time>2011-08-20T11:16:00Z</time>
      </trkpt>
      <trkpt lat="42.69006" lon="1.39521">
        <ele>2270.2907714844</ele>
        <time>2011-08-20T11:16:03Z</time>
      </trkpt>
      <trkpt lat="42.6901" lon="1.39519">
        <ele>2269.8100585938</ele>
        <time>2011-08-20T11:16:07Z</time>
      </trkpt>
      <trkpt lat="42.69016" lon="1.3951">
        <ele>2267.8872070312</ele>
        <time>2011-08-20T11:16:14Z</time>
      </trkpt>
      <trkpt lat="42.69017" lon="1.3951">
        <ele>2266.9260253906</ele>
        <time>2011-08-20T11:16:15Z</time>
      </trkpt>
      <trkpt lat="42.69023" lon="1.39505">
        <ele>2264.0419921875</ele>
        <time>2011-08-20T11:16:20Z</time>
      </trkpt>
      <trkpt lat="42.69031" lon="1.39503">
        <ele>2261.6389160156</ele>
        <time>2011-08-20T11:16:27Z</time>
      </trkpt>
      <trkpt lat="42.69033" lon="1.39504">
        <ele>2261.158203125</ele>
        <time>2011-08-20T11:16:29Z</time>
      </trkpt>
      <trkpt lat="42.69034" lon="1.39508">
        <ele>2260.1967773438</ele>
        <time>2011-08-20T11:16:31Z</time>
      </trkpt>
      <trkpt lat="42.69043" lon="1.39509">
        <ele>2257.3129882812</ele>
        <time>2011-08-20T11:16:38Z</time>
      </trkpt>
      <trkpt lat="42.69047" lon="1.39505">
        <ele>2255.3903808594</ele>
        <time>2011-08-20T11:16:42Z</time>
      </trkpt>
      <trkpt lat="42.69049" lon="1.39497">
        <ele>2253.4677734375</ele>
        <time>2011-08-20T11:16:47Z</time>
      </trkpt>
      <trkpt lat="42.69054" lon="1.39495">
        <ele>2250.5834960938</ele>
        <time>2011-08-20T11:16:53Z</time>
      </trkpt>
      <trkpt lat="42.69058" lon="1.39495">
        <ele>2248.1801757812</ele>
        <time>2011-08-20T11:16:59Z</time>
      </trkpt>
      <trkpt lat="42.69062" lon="1.39499">
        <ele>2246.73828125</ele>
        <time>2011-08-20T11:17:05Z</time>
      </trkpt>
      <trkpt lat="42.69068" lon="1.39504">
        <ele>2245.7770996094</ele>
        <time>2011-08-20T11:17:11Z</time>
      </trkpt>
      <trkpt lat="42.6907" lon="1.39506">
        <ele>2244.8156738281</ele>
        <time>2011-08-20T11:17:15Z</time>
      </trkpt>
      <trkpt lat="42.69072" lon="1.3951">
        <ele>2243.8544921875</ele>
        <time>2011-08-20T11:17:19Z</time>
      </trkpt>
      <trkpt lat="42.69073" lon="1.39513">
        <ele>2241.9318847656</ele>
        <time>2011-08-20T11:17:24Z</time>
      </trkpt>
      <trkpt lat="42.69077" lon="1.39513">
        <ele>2240.0092773438</ele>
        <time>2011-08-20T11:17:29Z</time>
      </trkpt>
      <trkpt lat="42.69081" lon="1.39516">
        <ele>2238.0866699219</ele>
        <time>2011-08-20T11:17:34Z</time>
      </trkpt>
      <trkpt lat="42.69085" lon="1.39514">
        <ele>2237.1252441406</ele>
        <time>2011-08-20T11:17:39Z</time>
      </trkpt>
      <trkpt lat="42.6909" lon="1.39521">
        <ele>2236.64453125</ele>
        <time>2011-08-20T11:17:45Z</time>
      </trkpt>
      <trkpt lat="42.69094" lon="1.39522">
        <ele>2236.1640625</ele>
        <time>2011-08-20T11:17:49Z</time>
      </trkpt>
      <trkpt lat="42.69099" lon="1.39518">
        <ele>2235.2023925781</ele>
        <time>2011-08-20T11:17:53Z</time>
      </trkpt>
      <trkpt lat="42.69103" lon="1.3952">
        <ele>2235.6831054688</ele>
        <time>2011-08-20T11:17:58Z</time>
      </trkpt>
      <trkpt lat="42.69104" lon="1.39522">
        <ele>2236.1640625</ele>
        <time>2011-08-20T11:17:59Z</time>
      </trkpt>
      <trkpt lat="42.69106" lon="1.39532">
        <ele>2235.2023925781</ele>
        <time>2011-08-20T11:18:05Z</time>
      </trkpt>
      <trkpt lat="42.69108" lon="1.39537">
        <ele>2234.2412109375</ele>
        <time>2011-08-20T11:18:09Z</time>
      </trkpt>
      <trkpt lat="42.69109" lon="1.39543">
        <ele>2233.2797851562</ele>
        <time>2011-08-20T11:18:14Z</time>
      </trkpt>
      <trkpt lat="42.69109" lon="1.39549">
        <ele>2231.837890625</ele>
        <time>2011-08-20T11:18:18Z</time>
      </trkpt>
      <trkpt lat="42.69113" lon="1.39557">
        <ele>2229.4345703125</ele>
        <time>2011-08-20T11:18:24Z</time>
      </trkpt>
      <trkpt lat="42.69118" lon="1.39562">
        <ele>2228.4733886719</ele>
        <time>2011-08-20T11:18:29Z</time>
      </trkpt>
      <trkpt lat="42.69122" lon="1.3957">
        <ele>2226.55078125</ele>
        <time>2011-08-20T11:18:34Z</time>
      </trkpt>
      <trkpt lat="42.69128" lon="1.39578">
        <ele>2225.1086425781</ele>
        <time>2011-08-20T11:18:41Z</time>
      </trkpt>
      <trkpt lat="42.6913" lon="1.39586">
        <ele>2225.1086425781</ele>
        <time>2011-08-20T11:18:47Z</time>
      </trkpt>
      <trkpt lat="42.69132" lon="1.39592">
        <ele>2225.1086425781</ele>
        <time>2011-08-20T11:18:51Z</time>
      </trkpt>
      <trkpt lat="42.69131" lon="1.39597">
        <ele>2225.5893554688</ele>
        <time>2011-08-20T11:18:55Z</time>
      </trkpt>
      <trkpt lat="42.69127" lon="1.39603">
        <ele>2227.9926757812</ele>
        <time>2011-08-20T11:19:01Z</time>
      </trkpt>
      <trkpt lat="42.69126" lon="1.39611">
        <ele>2231.3571777344</ele>
        <time>2011-08-20T11:19:07Z</time>
      </trkpt>
      <trkpt lat="42.69124" lon="1.39622">
        <ele>2233.7604980469</ele>
        <time>2011-08-20T11:19:15Z</time>
      </trkpt>
      <trkpt lat="42.69123" lon="1.39627">
        <ele>2235.6831054688</ele>
        <time>2011-08-20T11:19:20Z</time>
      </trkpt>
      <trkpt lat="42.6912" lon="1.39634">
        <ele>2236.64453125</ele>
        <time>2011-08-20T11:19:26Z</time>
      </trkpt>
      <trkpt lat="42.69118" lon="1.3964">
        <ele>2238.5673828125</ele>
        <time>2011-08-20T11:19:33Z</time>
      </trkpt>
      <trkpt lat="42.69117" lon="1.39648">
        <ele>2239.0478515625</ele>
        <time>2011-08-20T11:19:40Z</time>
      </trkpt>
      <trkpt lat="42.69121" lon="1.39657">
        <ele>2239.5285644531</ele>
        <time>2011-08-20T11:19:47Z</time>
      </trkpt>
      <trkpt lat="42.6912" lon="1.39663">
        <ele>2240.4897460938</ele>
        <time>2011-08-20T11:19:53Z</time>
      </trkpt>
      <trkpt lat="42.69122" lon="1.39667">
        <ele>2241.9318847656</ele>
        <time>2011-08-20T11:19:59Z</time>
      </trkpt>
      <trkpt lat="42.69126" lon="1.39673">
        <ele>2242.4125976562</ele>
        <time>2011-08-20T11:20:06Z</time>
      </trkpt>
      <trkpt lat="42.69125" lon="1.39674">
        <ele>2241.9318847656</ele>
        <time>2011-08-20T11:20:13Z</time>
      </trkpt>
      <trkpt lat="42.69124" lon="1.39674">
        <ele>2240.4897460938</ele>
        <time>2011-08-20T11:20:24Z</time>
      </trkpt>
      <trkpt lat="42.69123" lon="1.39674">
        <ele>2241.9318847656</ele>
        <time>2011-08-20T11:20:35Z</time>
      </trkpt>
      <trkpt lat="42.69123" lon="1.39675">
        <ele>2244.3349609375</ele>
        <time>2011-08-20T11:20:47Z</time>
      </trkpt>
      <trkpt lat="42.69123" lon="1.39675">
        <ele>2243.8544921875</ele>
        <time>2011-08-20T11:20:59Z</time>
      </trkpt>
      <trkpt lat="42.69125" lon="1.39674">
        <ele>2243.3737792969</ele>
        <time>2011-08-20T11:21:09Z</time>
      </trkpt>
      <trkpt lat="42.69125" lon="1.39674">
        <ele>2242.8930664062</ele>
        <time>2011-08-20T11:21:18Z</time>
      </trkpt>
      <trkpt lat="42.69127" lon="1.39676">
        <ele>2243.3737792969</ele>
        <time>2011-08-20T11:21:29Z</time>
      </trkpt>
      <trkpt lat="42.69132" lon="1.39685">
        <ele>2243.3737792969</ele>
        <time>2011-08-20T11:21:35Z</time>
      </trkpt>
      <trkpt lat="42.69133" lon="1.39696">
        <ele>2242.4125976562</ele>
        <time>2011-08-20T11:21:43Z</time>
      </trkpt>
      <trkpt lat="42.69132" lon="1.39703">
        <ele>2242.4125976562</ele>
        <time>2011-08-20T11:21:47Z</time>
      </trkpt>
      <trkpt lat="42.69133" lon="1.39714">
        <ele>2242.8930664062</ele>
        <time>2011-08-20T11:21:56Z</time>
      </trkpt>
      <trkpt lat="42.69133" lon="1.39723">
        <ele>2243.8544921875</ele>
        <time>2011-08-20T11:22:03Z</time>
      </trkpt>
      <trkpt lat="42.69133" lon="1.39732">
        <ele>2244.8156738281</ele>
        <time>2011-08-20T11:22:09Z</time>
      </trkpt>
      <trkpt lat="42.69133" lon="1.39742">
        <ele>2244.8156738281</ele>
        <time>2011-08-20T11:22:16Z</time>
      </trkpt>
      <trkpt lat="42.69132" lon="1.39744">
        <ele>2244.8156738281</ele>
        <time>2011-08-20T11:22:18Z</time>
      </trkpt>
      <trkpt lat="42.69131" lon="1.39751">
        <ele>2244.3349609375</ele>
        <time>2011-08-20T11:22:24Z</time>
      </trkpt>
      <trkpt lat="42.69129" lon="1.39757">
        <ele>2243.3737792969</ele>
        <time>2011-08-20T11:22:29Z</time>
      </trkpt>
      <trkpt lat="42.69127" lon="1.39768">
        <ele>2240.4897460938</ele>
        <time>2011-08-20T11:22:34Z</time>
      </trkpt>
      <trkpt lat="42.69126" lon="1.39781">
        <ele>2238.5673828125</ele>
        <time>2011-08-20T11:22:39Z</time>
      </trkpt>
      <trkpt lat="42.69126" lon="1.39786">
        <ele>2237.1252441406</ele>
        <time>2011-08-20T11:22:42Z</time>
      </trkpt>
      <trkpt lat="42.69125" lon="1.39793">
        <ele>2234.7219238281</ele>
        <time>2011-08-20T11:22:47Z</time>
      </trkpt>
      <trkpt lat="42.69127" lon="1.39801">
        <ele>2231.837890625</ele>
        <time>2011-08-20T11:22:52Z</time>
      </trkpt>
      <trkpt lat="42.69127" lon="1.39808">
        <ele>2230.8767089844</ele>
        <time>2011-08-20T11:22:55Z</time>
      </trkpt>
      <trkpt lat="42.69127" lon="1.39813">
        <ele>2229.9152832031</ele>
        <time>2011-08-20T11:22:58Z</time>
      </trkpt>
      <trkpt lat="42.69131" lon="1.39819">
        <ele>2227.5119628906</ele>
        <time>2011-08-20T11:23:05Z</time>
      </trkpt>
      <trkpt lat="42.69134" lon="1.39828">
        <ele>2225.5893554688</ele>
        <time>2011-08-20T11:23:12Z</time>
      </trkpt>
      <trkpt lat="42.69136" lon="1.39835">
        <ele>2223.6667480469</ele>
        <time>2011-08-20T11:23:17Z</time>
      </trkpt>
      <trkpt lat="42.69138" lon="1.39845">
        <ele>2221.744140625</ele>
        <time>2011-08-20T11:23:23Z</time>
      </trkpt>
      <trkpt lat="42.69141" lon="1.39852">
        <ele>2219.8212890625</ele>
        <time>2011-08-20T11:23:27Z</time>
      </trkpt>
      <trkpt lat="42.69144" lon="1.39857">
        <ele>2218.3793945312</ele>
        <time>2011-08-20T11:23:31Z</time>
      </trkpt>
      <trkpt lat="42.69144" lon="1.39861">
        <ele>2216.9375</ele>
        <time>2011-08-20T11:23:33Z</time>
      </trkpt>
      <trkpt lat="42.69146" lon="1.39873">
        <ele>2215.0148925781</ele>
        <time>2011-08-20T11:23:39Z</time>
      </trkpt>
      <trkpt lat="42.69146" lon="1.39877">
        <ele>2214.5341796875</ele>
        <time>2011-08-20T11:23:42Z</time>
      </trkpt>
      <trkpt lat="42.69144" lon="1.39882">
        <ele>2213.5727539062</ele>
        <time>2011-08-20T11:23:45Z</time>
      </trkpt>
      <trkpt lat="42.69146" lon="1.39888">
        <ele>2211.1696777344</ele>
        <time>2011-08-20T11:23:50Z</time>
      </trkpt>
      <trkpt lat="42.69147" lon="1.39898">
        <ele>2209.2470703125</ele>
        <time>2011-08-20T11:23:55Z</time>
      </trkpt>
      <trkpt lat="42.69149" lon="1.39908">
        <ele>2207.8051757812</ele>
        <time>2011-08-20T11:23:59Z</time>
      </trkpt>
      <trkpt lat="42.69147" lon="1.39924">
        <ele>2205.8823242188</ele>
        <time>2011-08-20T11:24:07Z</time>
      </trkpt>
      <trkpt lat="42.69148" lon="1.39934">
        <ele>2202.517578125</ele>
        <time>2011-08-20T11:24:14Z</time>
      </trkpt>
      <trkpt lat="42.69148" lon="1.39936">
        <ele>2202.0368652344</ele>
        <time>2011-08-20T11:24:15Z</time>
      </trkpt>
      <trkpt lat="42.69145" lon="1.3995">
        <ele>2200.1145019531</ele>
        <time>2011-08-20T11:24:20Z</time>
      </trkpt>
      <trkpt lat="42.69143" lon="1.39966">
        <ele>2199.1530761719</ele>
        <time>2011-08-20T11:24:25Z</time>
      </trkpt>
      <trkpt lat="42.69142" lon="1.39972">
        <ele>2199.1530761719</ele>
        <time>2011-08-20T11:24:27Z</time>
      </trkpt>
      <trkpt lat="42.69139" lon="1.39979">
        <ele>2198.6723632812</ele>
        <time>2011-08-20T11:24:30Z</time>
      </trkpt>
      <trkpt lat="42.69139" lon="1.39997">
        <ele>2195.3078613281</ele>
        <time>2011-08-20T11:24:37Z</time>
      </trkpt>
      <trkpt lat="42.6914" lon="1.40001">
        <ele>2194.3464355469</ele>
        <time>2011-08-20T11:24:39Z</time>
      </trkpt>
      <trkpt lat="42.69143" lon="1.40002">
        <ele>2192.9045410156</ele>
        <time>2011-08-20T11:24:43Z</time>
      </trkpt>
      <trkpt lat="42.69145" lon="1.4">
        <ele>2192.4240722656</ele>
        <time>2011-08-20T11:24:45Z</time>
      </trkpt>
      <trkpt lat="42.69147" lon="1.4">
        <ele>2190.9819335938</ele>
        <time>2011-08-20T11:24:48Z</time>
      </trkpt>
      <trkpt lat="42.69149" lon="1.40005">
        <ele>2189.5400390625</ele>
        <time>2011-08-20T11:24:52Z</time>
      </trkpt>
      <trkpt lat="42.6915" lon="1.40012">
        <ele>2186.6557617188</ele>
        <time>2011-08-20T11:24:57Z</time>
      </trkpt>
      <trkpt lat="42.69147" lon="1.40021">
        <ele>2184.2526855469</ele>
        <time>2011-08-20T11:25:05Z</time>
      </trkpt>
      <trkpt lat="42.69148" lon="1.40027">
        <ele>2182.330078125</ele>
        <time>2011-08-20T11:25:10Z</time>
      </trkpt>
      <trkpt lat="42.69149" lon="1.40032">
        <ele>2180.8881835938</ele>
        <time>2011-08-20T11:25:14Z</time>
      </trkpt>
      <trkpt lat="42.69152" lon="1.40031">
        <ele>2179.4460449219</ele>
        <time>2011-08-20T11:25:18Z</time>
      </trkpt>
      <trkpt lat="42.69158" lon="1.4003">
        <ele>2177.5234375</ele>
        <time>2011-08-20T11:25:24Z</time>
      </trkpt>
      <trkpt lat="42.69159" lon="1.40036">
        <ele>2176.0815429688</ele>
        <time>2011-08-20T11:25:29Z</time>
      </trkpt>
      <trkpt lat="42.69161" lon="1.40041">
        <ele>2174.1589355469</ele>
        <time>2011-08-20T11:25:34Z</time>
      </trkpt>
      <trkpt lat="42.69163" lon="1.4004">
        <ele>2172.236328125</ele>
        <time>2011-08-20T11:25:39Z</time>
      </trkpt>
      <trkpt lat="42.69167" lon="1.40041">
        <ele>2170.3134765625</ele>
        <time>2011-08-20T11:25:44Z</time>
      </trkpt>
      <trkpt lat="42.69167" lon="1.40049">
        <ele>2168.8715820312</ele>
        <time>2011-08-20T11:25:49Z</time>
      </trkpt>
      <trkpt lat="42.69166" lon="1.40052">
        <ele>2168.8715820312</ele>
        <time>2011-08-20T11:25:51Z</time>
      </trkpt>
      <trkpt lat="42.69165" lon="1.40063">
        <ele>2166.9489746094</ele>
        <time>2011-08-20T11:25:58Z</time>
      </trkpt>
      <trkpt lat="42.69168" lon="1.40066">
        <ele>2165.9875488281</ele>
        <time>2011-08-20T11:26:02Z</time>
      </trkpt>
      <trkpt lat="42.6917" lon="1.40071">
        <ele>2165.0263671875</ele>
        <time>2011-08-20T11:26:06Z</time>
      </trkpt>
      <trkpt lat="42.6917" lon="1.40076">
        <ele>2164.0649414062</ele>
        <time>2011-08-20T11:26:11Z</time>
      </trkpt>
      <trkpt lat="42.69174" lon="1.40079">
        <ele>2162.623046875</ele>
        <time>2011-08-20T11:26:17Z</time>
      </trkpt>
      <trkpt lat="42.69175" lon="1.4008">
        <ele>2162.1423339844</ele>
        <time>2011-08-20T11:26:18Z</time>
      </trkpt>
      <trkpt lat="42.69181" lon="1.40088">
        <ele>2160.2197265625</ele>
        <time>2011-08-20T11:26:23Z</time>
      </trkpt>
      <trkpt lat="42.69184" lon="1.40099">
        <ele>2158.2971191406</ele>
        <time>2011-08-20T11:26:28Z</time>
      </trkpt>
      <trkpt lat="42.69186" lon="1.40104">
        <ele>2156.3745117188</ele>
        <time>2011-08-20T11:26:32Z</time>
      </trkpt>
      <trkpt lat="42.69189" lon="1.4012">
        <ele>2152.5290527344</ele>
        <time>2011-08-20T11:26:40Z</time>
      </trkpt>
      <trkpt lat="42.69193" lon="1.40132">
        <ele>2149.6452636719</ele>
        <time>2011-08-20T11:26:48Z</time>
      </trkpt>
      <trkpt lat="42.69193" lon="1.40135">
        <ele>2148.203125</ele>
        <time>2011-08-20T11:26:50Z</time>
      </trkpt>
      <trkpt lat="42.69197" lon="1.40139">
        <ele>2145.8000488281</ele>
        <time>2011-08-20T11:26:55Z</time>
      </trkpt>
      <trkpt lat="42.69199" lon="1.40144">
        <ele>2143.8774414062</ele>
        <time>2011-08-20T11:26:58Z</time>
      </trkpt>
      <trkpt lat="42.69204" lon="1.40154">
        <ele>2140.9934082031</ele>
        <time>2011-08-20T11:27:04Z</time>
      </trkpt>
      <trkpt lat="42.69207" lon="1.40164">
        <ele>2138.5900878906</ele>
        <time>2011-08-20T11:27:10Z</time>
      </trkpt>
      <trkpt lat="42.69207" lon="1.40166">
        <ele>2138.109375</ele>
        <time>2011-08-20T11:27:11Z</time>
      </trkpt>
      <trkpt lat="42.69208" lon="1.40168">
        <ele>2137.1479492188</ele>
        <time>2011-08-20T11:27:13Z</time>
      </trkpt>
      <trkpt lat="42.69213" lon="1.40174">
        <ele>2133.302734375</ele>
        <time>2011-08-20T11:27:19Z</time>
      </trkpt>
      <trkpt lat="42.69215" lon="1.40176">
        <ele>2132.3415527344</ele>
        <time>2011-08-20T11:27:20Z</time>
      </trkpt>
      <trkpt lat="42.6922" lon="1.40187">
        <ele>2128.4963378906</ele>
        <time>2011-08-20T11:27:26Z</time>
      </trkpt>
      <trkpt lat="42.69221" lon="1.40189">
        <ele>2128.015625</ele>
        <time>2011-08-20T11:27:27Z</time>
      </trkpt>
      <trkpt lat="42.69225" lon="1.40198">
        <ele>2125.6123046875</ele>
        <time>2011-08-20T11:27:33Z</time>
      </trkpt>
      <trkpt lat="42.69226" lon="1.40202">
        <ele>2124.6511230469</ele>
        <time>2011-08-20T11:27:35Z</time>
      </trkpt>
      <trkpt lat="42.69232" lon="1.4021">
        <ele>2122.2475585938</ele>
        <time>2011-08-20T11:27:41Z</time>
      </trkpt>
      <trkpt lat="42.69233" lon="1.40202">
        <ele>2121.7668457031</ele>
        <time>2011-08-20T11:27:46Z</time>
      </trkpt>
      <trkpt lat="42.69232" lon="1.40197">
        <ele>2120.3249511719</ele>
        <time>2011-08-20T11:27:48Z</time>
      </trkpt>
      <trkpt lat="42.69236" lon="1.40199">
        <ele>2118.40234375</ele>
        <time>2011-08-20T11:27:52Z</time>
      </trkpt>
      <trkpt lat="42.6924" lon="1.40207">
        <ele>2115.9990234375</ele>
        <time>2011-08-20T11:27:57Z</time>
      </trkpt>
      <trkpt lat="42.69243" lon="1.40212">
        <ele>2114.5571289062</ele>
        <time>2011-08-20T11:28:00Z</time>
      </trkpt>
      <trkpt lat="42.69248" lon="1.40216">
        <ele>2113.115234375</ele>
        <time>2011-08-20T11:28:05Z</time>
      </trkpt>
      <trkpt lat="42.69255" lon="1.40221">
        <ele>2109.7504882812</ele>
        <time>2011-08-20T11:28:11Z</time>
      </trkpt>
      <trkpt lat="42.69261" lon="1.40228">
        <ele>2107.3471679688</ele>
        <time>2011-08-20T11:28:16Z</time>
      </trkpt>
      <trkpt lat="42.69267" lon="1.40237">
        <ele>2107.3471679688</ele>
        <time>2011-08-20T11:28:20Z</time>
      </trkpt>
      <trkpt lat="42.6927" lon="1.40239">
        <ele>2107.3471679688</ele>
        <time>2011-08-20T11:28:23Z</time>
      </trkpt>
      <trkpt lat="42.69278" lon="1.40251">
        <ele>2106.8664550781</ele>
        <time>2011-08-20T11:28:29Z</time>
      </trkpt>
      <trkpt lat="42.69278" lon="1.40253">
        <ele>2106.3857421875</ele>
        <time>2011-08-20T11:28:30Z</time>
      </trkpt>
      <trkpt lat="42.69275" lon="1.40265">
        <ele>2103.0212402344</ele>
        <time>2011-08-20T11:28:36Z</time>
      </trkpt>
      <trkpt lat="42.69271" lon="1.40269">
        <ele>2101.5793457031</ele>
        <time>2011-08-20T11:28:39Z</time>
      </trkpt>
      <trkpt lat="42.69269" lon="1.40275">
        <ele>2100.1374511719</ele>
        <time>2011-08-20T11:28:43Z</time>
      </trkpt>
      <trkpt lat="42.69272" lon="1.40276">
        <ele>2097.2534179688</ele>
        <time>2011-08-20T11:28:50Z</time>
      </trkpt>
      <trkpt lat="42.69279" lon="1.40276">
        <ele>2093.8889160156</ele>
        <time>2011-08-20T11:28:56Z</time>
      </trkpt>
      <trkpt lat="42.69286" lon="1.40279">
        <ele>2091.4853515625</ele>
        <time>2011-08-20T11:29:01Z</time>
      </trkpt>
      <trkpt lat="42.69289" lon="1.40279">
        <ele>2090.0434570312</ele>
        <time>2011-08-20T11:29:03Z</time>
      </trkpt>
      <trkpt lat="42.69297" lon="1.4028">
        <ele>2086.6787109375</ele>
        <time>2011-08-20T11:29:10Z</time>
      </trkpt>
      <trkpt lat="42.69301" lon="1.40282">
        <ele>2084.2756347656</ele>
        <time>2011-08-20T11:29:14Z</time>
      </trkpt>
      <trkpt lat="42.69305" lon="1.40286">
        <ele>2081.3916015625</ele>
        <time>2011-08-20T11:29:20Z</time>
      </trkpt>
      <trkpt lat="42.69308" lon="1.4029">
        <ele>2079.4689941406</ele>
        <time>2011-08-20T11:29:24Z</time>
      </trkpt>
      <trkpt lat="42.69311" lon="1.40296">
        <ele>2078.0270996094</ele>
        <time>2011-08-20T11:29:27Z</time>
      </trkpt>
      <trkpt lat="42.69313" lon="1.4031">
        <ele>2075.1428222656</ele>
        <time>2011-08-20T11:29:33Z</time>
      </trkpt>
      <trkpt lat="42.69312" lon="1.40318">
        <ele>2074.181640625</ele>
        <time>2011-08-20T11:29:36Z</time>
      </trkpt>
      <trkpt lat="42.69314" lon="1.40325">
        <ele>2073.2204589844</ele>
        <time>2011-08-20T11:29:40Z</time>
      </trkpt>
      <trkpt lat="42.69316" lon="1.40337">
        <ele>2070.8171386719</ele>
        <time>2011-08-20T11:29:47Z</time>
      </trkpt>
      <trkpt lat="42.69317" lon="1.40338">
        <ele>2070.8171386719</ele>
        <time>2011-08-20T11:29:48Z</time>
      </trkpt>
      <trkpt lat="42.69319" lon="1.40346">
        <ele>2069.8557128906</ele>
        <time>2011-08-20T11:29:52Z</time>
      </trkpt>
      <trkpt lat="42.6932" lon="1.40355">
        <ele>2068.4138183594</ele>
        <time>2011-08-20T11:29:56Z</time>
      </trkpt>
      <trkpt lat="42.69321" lon="1.40367">
        <ele>2065.5300292969</ele>
        <time>2011-08-20T11:30:04Z</time>
      </trkpt>
      <trkpt lat="42.69323" lon="1.4038">
        <ele>2063.1267089844</ele>
        <time>2011-08-20T11:30:10Z</time>
      </trkpt>
      <trkpt lat="42.69326" lon="1.40386">
        <ele>2061.6848144531</ele>
        <time>2011-08-20T11:30:14Z</time>
      </trkpt>
      <trkpt lat="42.69327" lon="1.40391">
        <ele>2060.7233886719</ele>
        <time>2011-08-20T11:30:17Z</time>
      </trkpt>
      <trkpt lat="42.69333" lon="1.40394">
        <ele>2059.76171875</ele>
        <time>2011-08-20T11:30:22Z</time>
      </trkpt>
      <trkpt lat="42.69336" lon="1.40404">
        <ele>2057.8393554688</ele>
        <time>2011-08-20T11:30:28Z</time>
      </trkpt>
      <trkpt lat="42.69341" lon="1.40414">
        <ele>2055.4360351562</ele>
        <time>2011-08-20T11:30:35Z</time>
      </trkpt>
      <trkpt lat="42.69341" lon="1.40416">
        <ele>2054.9553222656</ele>
        <time>2011-08-20T11:30:36Z</time>
      </trkpt>
      <trkpt lat="42.69344" lon="1.40421">
        <ele>2052.5520019531</ele>
        <time>2011-08-20T11:30:42Z</time>
      </trkpt>
      <trkpt lat="42.69346" lon="1.40427">
        <ele>2051.1101074219</ele>
        <time>2011-08-20T11:30:48Z</time>
      </trkpt>
      <trkpt lat="42.69352" lon="1.40433">
        <ele>2048.7067871094</ele>
        <time>2011-08-20T11:30:55Z</time>
      </trkpt>
      <trkpt lat="42.69358" lon="1.4044">
        <ele>2047.2648925781</ele>
        <time>2011-08-20T11:31:01Z</time>
      </trkpt>
      <trkpt lat="42.6936" lon="1.40443">
        <ele>2046.7841796875</ele>
        <time>2011-08-20T11:31:03Z</time>
      </trkpt>
      <trkpt lat="42.69367" lon="1.40447">
        <ele>2045.3422851562</ele>
        <time>2011-08-20T11:31:09Z</time>
      </trkpt>
      <trkpt lat="42.69371" lon="1.40453">
        <ele>2044.8615722656</ele>
        <time>2011-08-20T11:31:12Z</time>
      </trkpt>
      <trkpt lat="42.69377" lon="1.40463">
        <ele>2044.8615722656</ele>
        <time>2011-08-20T11:31:17Z</time>
      </trkpt>
      <trkpt lat="42.6938" lon="1.40472">
        <ele>2044.380859375</ele>
        <time>2011-08-20T11:31:23Z</time>
      </trkpt>
      <trkpt lat="42.69387" lon="1.4048">
        <ele>2044.8615722656</ele>
        <time>2011-08-20T11:31:30Z</time>
      </trkpt>
      <trkpt lat="42.69394" lon="1.40485">
        <ele>2045.8229980469</ele>
        <time>2011-08-20T11:31:37Z</time>
      </trkpt>
      <trkpt lat="42.69397" lon="1.40486">
        <ele>2045.8229980469</ele>
        <time>2011-08-20T11:31:39Z</time>
      </trkpt>
      <trkpt lat="42.694" lon="1.40491">
        <ele>2046.7841796875</ele>
        <time>2011-08-20T11:31:43Z</time>
      </trkpt>
      <trkpt lat="42.69401" lon="1.40494">
        <ele>2046.3037109375</ele>
        <time>2011-08-20T11:31:45Z</time>
      </trkpt>
      <trkpt lat="42.69405" lon="1.40498">
        <ele>2046.3037109375</ele>
        <time>2011-08-20T11:31:49Z</time>
      </trkpt>
      <trkpt lat="42.69413" lon="1.40504">
        <ele>2046.7841796875</ele>
        <time>2011-08-20T11:31:56Z</time>
      </trkpt>
      <trkpt lat="42.69422" lon="1.40514">
        <ele>2046.7841796875</ele>
        <time>2011-08-20T11:32:04Z</time>
      </trkpt>
      <trkpt lat="42.69432" lon="1.40518">
        <ele>2045.3422851562</ele>
        <time>2011-08-20T11:32:11Z</time>
      </trkpt>
      <trkpt lat="42.69439" lon="1.4052">
        <ele>2042.9387207031</ele>
        <time>2011-08-20T11:32:17Z</time>
      </trkpt>
      <trkpt lat="42.69448" lon="1.40523">
        <ele>2040.0549316406</ele>
        <time>2011-08-20T11:32:24Z</time>
      </trkpt>
      <trkpt lat="42.69456" lon="1.40526">
        <ele>2037.6516113281</ele>
        <time>2011-08-20T11:32:30Z</time>
      </trkpt>
      <trkpt lat="42.69462" lon="1.4053">
        <ele>2035.2482910156</ele>
        <time>2011-08-20T11:32:36Z</time>
      </trkpt>
      <trkpt lat="42.69468" lon="1.40533">
        <ele>2031.8837890625</ele>
        <time>2011-08-20T11:32:42Z</time>
      </trkpt>
      <trkpt lat="42.69472" lon="1.40534">
        <ele>2029.9611816406</ele>
        <time>2011-08-20T11:32:46Z</time>
      </trkpt>
      <trkpt lat="42.69475" lon="1.40536">
        <ele>2028.0385742188</ele>
        <time>2011-08-20T11:32:51Z</time>
      </trkpt>
      <trkpt lat="42.6948" lon="1.40534">
        <ele>2026.1157226562</ele>
        <time>2011-08-20T11:32:56Z</time>
      </trkpt>
      <trkpt lat="42.69482" lon="1.40535">
        <ele>2024.673828125</ele>
        <time>2011-08-20T11:32:58Z</time>
      </trkpt>
      <trkpt lat="42.69492" lon="1.40538">
        <ele>2022.2705078125</ele>
        <time>2011-08-20T11:33:04Z</time>
      </trkpt>
      <trkpt lat="42.69499" lon="1.4054">
        <ele>2020.3479003906</ele>
        <time>2011-08-20T11:33:09Z</time>
      </trkpt>
      <trkpt lat="42.69503" lon="1.4054">
        <ele>2018.9060058594</ele>
        <time>2011-08-20T11:33:12Z</time>
      </trkpt>
      <trkpt lat="42.6951" lon="1.40545">
        <ele>2015.5415039062</ele>
        <time>2011-08-20T11:33:19Z</time>
      </trkpt>
      <trkpt lat="42.69513" lon="1.40545">
        <ele>2014.580078125</ele>
        <time>2011-08-20T11:33:21Z</time>
      </trkpt>
      <trkpt lat="42.69519" lon="1.40543">
        <ele>2010.7346191406</ele>
        <time>2011-08-20T11:33:27Z</time>
      </trkpt>
      <trkpt lat="42.69522" lon="1.40541">
        <ele>2008.8120117188</ele>
        <time>2011-08-20T11:33:31Z</time>
      </trkpt>
      <trkpt lat="42.69526" lon="1.40542">
        <ele>2007.3701171875</ele>
        <time>2011-08-20T11:33:35Z</time>
      </trkpt>
      <trkpt lat="42.6953" lon="1.40545">
        <ele>2005.4475097656</ele>
        <time>2011-08-20T11:33:40Z</time>
      </trkpt>
      <trkpt lat="42.69535" lon="1.40544">
        <ele>2003.0441894531</ele>
        <time>2011-08-20T11:33:45Z</time>
      </trkpt>
      <trkpt lat="42.69542" lon="1.40546">
        <ele>1999.6796875</ele>
        <time>2011-08-20T11:33:51Z</time>
      </trkpt>
      <trkpt lat="42.69545" lon="1.40547">
        <ele>1998.2375488281</ele>
        <time>2011-08-20T11:33:53Z</time>
      </trkpt>
      <trkpt lat="42.6955" lon="1.40551">
        <ele>1996.3151855469</ele>
        <time>2011-08-20T11:33:58Z</time>
      </trkpt>
      <trkpt lat="42.69553" lon="1.40553">
        <ele>1994.8728027344</ele>
        <time>2011-08-20T11:34:02Z</time>
      </trkpt>
      <trkpt lat="42.69558" lon="1.4055">
        <ele>1992.4697265625</ele>
        <time>2011-08-20T11:34:07Z</time>
      </trkpt>
      <trkpt lat="42.69562" lon="1.4055">
        <ele>1991.0275878906</ele>
        <time>2011-08-20T11:34:11Z</time>
      </trkpt>
      <trkpt lat="42.69565" lon="1.40542">
        <ele>1989.1049804688</ele>
        <time>2011-08-20T11:34:17Z</time>
      </trkpt>
      <trkpt lat="42.69568" lon="1.40536">
        <ele>1986.7016601562</ele>
        <time>2011-08-20T11:34:22Z</time>
      </trkpt>
      <trkpt lat="42.69572" lon="1.40536">
        <ele>1985.7404785156</ele>
        <time>2011-08-20T11:34:27Z</time>
      </trkpt>
      <trkpt lat="42.69576" lon="1.40539">
        <ele>1984.779296875</ele>
        <time>2011-08-20T11:34:33Z</time>
      </trkpt>
      <trkpt lat="42.69579" lon="1.40542">
        <ele>1982.3759765625</ele>
        <time>2011-08-20T11:34:38Z</time>
      </trkpt>
      <trkpt lat="42.69582" lon="1.40547">
        <ele>1979.9724121094</ele>
        <time>2011-08-20T11:34:45Z</time>
      </trkpt>
      <trkpt lat="42.69584" lon="1.40544">
        <ele>1978.5305175781</ele>
        <time>2011-08-20T11:34:49Z</time>
      </trkpt>
      <trkpt lat="42.69587" lon="1.4055">
        <ele>1977.0886230469</ele>
        <time>2011-08-20T11:34:54Z</time>
      </trkpt>
      <trkpt lat="42.69588" lon="1.40552">
        <ele>1976.6079101562</ele>
        <time>2011-08-20T11:34:57Z</time>
      </trkpt>
      <trkpt lat="42.69593" lon="1.40553">
        <ele>1974.2045898438</ele>
        <time>2011-08-20T11:35:03Z</time>
      </trkpt>
      <trkpt lat="42.69592" lon="1.40549">
        <ele>1973.7238769531</ele>
        <time>2011-08-20T11:35:05Z</time>
      </trkpt>
      <trkpt lat="42.69594" lon="1.40543">
        <ele>1970.8400878906</ele>
        <time>2011-08-20T11:35:11Z</time>
      </trkpt>
      <trkpt lat="42.69595" lon="1.4054">
        <ele>1969.3981933594</ele>
        <time>2011-08-20T11:35:15Z</time>
      </trkpt>
      <trkpt lat="42.696" lon="1.40534">
        <ele>1966.5141601562</ele>
        <time>2011-08-20T11:35:22Z</time>
      </trkpt>
      <trkpt lat="42.69601" lon="1.40532">
        <ele>1965.072265625</ele>
        <time>2011-08-20T11:35:26Z</time>
      </trkpt>
      <trkpt lat="42.69603" lon="1.40533">
        <ele>1965.072265625</ele>
        <time>2011-08-20T11:35:28Z</time>
      </trkpt>
      <trkpt lat="42.69605" lon="1.40537">
        <ele>1963.1494140625</ele>
        <time>2011-08-20T11:35:33Z</time>
      </trkpt>
      <trkpt lat="42.69608" lon="1.4054">
        <ele>1961.7075195312</ele>
        <time>2011-08-20T11:35:36Z</time>
      </trkpt>
      <trkpt lat="42.69614" lon="1.40543">
        <ele>1958.3427734375</ele>
        <time>2011-08-20T11:35:41Z</time>
      </trkpt>
      <trkpt lat="42.69616" lon="1.40545">
        <ele>1956.9008789062</ele>
        <time>2011-08-20T11:35:44Z</time>
      </trkpt>
      <trkpt lat="42.69624" lon="1.4055">
        <ele>1954.0170898438</ele>
        <time>2011-08-20T11:35:51Z</time>
      </trkpt>
      <trkpt lat="42.69626" lon="1.40552">
        <ele>1953.0556640625</ele>
        <time>2011-08-20T11:35:53Z</time>
      </trkpt>
      <trkpt lat="42.69631" lon="1.40556">
        <ele>1951.6137695312</ele>
        <time>2011-08-20T11:35:57Z</time>
      </trkpt>
      <trkpt lat="42.69635" lon="1.40561">
        <ele>1950.171875</ele>
        <time>2011-08-20T11:36:01Z</time>
      </trkpt>
      <trkpt lat="42.69639" lon="1.40565">
        <ele>1948.7297363281</ele>
        <time>2011-08-20T11:36:05Z</time>
      </trkpt>
      <trkpt lat="42.69639" lon="1.40574">
        <ele>1946.8068847656</ele>
        <time>2011-08-20T11:36:10Z</time>
      </trkpt>
      <trkpt lat="42.69636" lon="1.40581">
        <ele>1945.3649902344</ele>
        <time>2011-08-20T11:36:14Z</time>
      </trkpt>
      <trkpt lat="42.69633" lon="1.4059">
        <ele>1943.4423828125</ele>
        <time>2011-08-20T11:36:20Z</time>
      </trkpt>
      <trkpt lat="42.69627" lon="1.406">
        <ele>1942.9616699219</ele>
        <time>2011-08-20T11:36:26Z</time>
      </trkpt>
      <trkpt lat="42.69624" lon="1.4061">
        <ele>1942.9616699219</ele>
        <time>2011-08-20T11:36:32Z</time>
      </trkpt>
      <trkpt lat="42.69625" lon="1.40619">
        <ele>1943.4423828125</ele>
        <time>2011-08-20T11:36:38Z</time>
      </trkpt>
      <trkpt lat="42.69625" lon="1.4063">
        <ele>1943.9230957031</ele>
        <time>2011-08-20T11:36:44Z</time>
      </trkpt>
      <trkpt lat="42.69625" lon="1.40633">
        <ele>1943.9230957031</ele>
        <time>2011-08-20T11:36:46Z</time>
      </trkpt>
      <trkpt lat="42.69624" lon="1.40636">
        <ele>1944.4035644531</ele>
        <time>2011-08-20T11:36:48Z</time>
      </trkpt>
      <trkpt lat="42.69625" lon="1.40644">
        <ele>1945.3649902344</ele>
        <time>2011-08-20T11:36:53Z</time>
      </trkpt>
      <trkpt lat="42.69627" lon="1.40654">
        <ele>1945.3649902344</ele>
        <time>2011-08-20T11:37:02Z</time>
      </trkpt>
      <trkpt lat="42.69627" lon="1.40657">
        <ele>1944.4035644531</ele>
        <time>2011-08-20T11:37:07Z</time>
      </trkpt>
      <trkpt lat="42.69627" lon="1.40659">
        <ele>1944.4035644531</ele>
        <time>2011-08-20T11:37:08Z</time>
      </trkpt>
      <trkpt lat="42.69632" lon="1.40664">
        <ele>1942.9616699219</ele>
        <time>2011-08-20T11:37:14Z</time>
      </trkpt>
      <trkpt lat="42.6964" lon="1.40666">
        <ele>1942.9616699219</ele>
        <time>2011-08-20T11:37:21Z</time>
      </trkpt>
      <trkpt lat="42.69641" lon="1.40666">
        <ele>1943.4423828125</ele>
        <time>2011-08-20T11:37:22Z</time>
      </trkpt>
      <trkpt lat="42.69643" lon="1.40667">
        <ele>1943.4423828125</ele>
        <time>2011-08-20T11:37:24Z</time>
      </trkpt>
      <trkpt lat="42.69653" lon="1.40677">
        <ele>1943.4423828125</ele>
        <time>2011-08-20T11:37:33Z</time>
      </trkpt>
      <trkpt lat="42.69658" lon="1.40682">
        <ele>1942.4812011719</ele>
        <time>2011-08-20T11:37:38Z</time>
      </trkpt>
      <trkpt lat="42.69667" lon="1.40688">
        <ele>1942.4812011719</ele>
        <time>2011-08-20T11:37:45Z</time>
      </trkpt>
      <trkpt lat="42.69676" lon="1.40695">
        <ele>1942.4812011719</ele>
        <time>2011-08-20T11:37:52Z</time>
      </trkpt>
      <trkpt lat="42.69682" lon="1.40705">
        <ele>1943.4423828125</ele>
        <time>2011-08-20T11:37:59Z</time>
      </trkpt>
      <trkpt lat="42.69687" lon="1.40716">
        <ele>1944.4035644531</ele>
        <time>2011-08-20T11:38:06Z</time>
      </trkpt>
      <trkpt lat="42.6969" lon="1.4073">
        <ele>1946.3264160156</ele>
        <time>2011-08-20T11:38:14Z</time>
      </trkpt>
      <trkpt lat="42.6969" lon="1.40741">
        <ele>1946.8068847656</ele>
        <time>2011-08-20T11:38:20Z</time>
      </trkpt>
      <trkpt lat="42.69689" lon="1.40745">
        <ele>1946.8068847656</ele>
        <time>2011-08-20T11:38:22Z</time>
      </trkpt>
      <trkpt lat="42.69691" lon="1.40754">
        <ele>1946.8068847656</ele>
        <time>2011-08-20T11:38:27Z</time>
      </trkpt>
      <trkpt lat="42.69691" lon="1.40759">
        <ele>1946.8068847656</ele>
        <time>2011-08-20T11:38:30Z</time>
      </trkpt>
      <trkpt lat="42.69693" lon="1.40765">
        <ele>1946.8068847656</ele>
        <time>2011-08-20T11:38:34Z</time>
      </trkpt>
      <trkpt lat="42.69698" lon="1.40778">
        <ele>1945.845703125</ele>
        <time>2011-08-20T11:38:42Z</time>
      </trkpt>
      <trkpt lat="42.697" lon="1.40788">
        <ele>1945.3649902344</ele>
        <time>2011-08-20T11:38:48Z</time>
      </trkpt>
      <trkpt lat="42.69702" lon="1.40794">
        <ele>1945.3649902344</ele>
        <time>2011-08-20T11:38:52Z</time>
      </trkpt>
      <trkpt lat="42.69703" lon="1.40797">
        <ele>1945.3649902344</ele>
        <time>2011-08-20T11:38:59Z</time>
      </trkpt>
      <trkpt lat="42.69705" lon="1.40798">
        <ele>1944.4035644531</ele>
        <time>2011-08-20T11:39:16Z</time>
      </trkpt>
      <trkpt lat="42.69713" lon="1.40804">
        <ele>1943.9230957031</ele>
        <time>2011-08-20T11:39:23Z</time>
      </trkpt>
      <trkpt lat="42.69722" lon="1.40803">
        <ele>1941.5197753906</ele>
        <time>2011-08-20T11:39:30Z</time>
      </trkpt>
      <trkpt lat="42.69727" lon="1.40802">
        <ele>1940.0778808594</ele>
        <time>2011-08-20T11:39:33Z</time>
      </trkpt>
      <trkpt lat="42.69735" lon="1.40804">
        <ele>1937.1938476562</ele>
        <time>2011-08-20T11:39:40Z</time>
      </trkpt>
      <trkpt lat="42.69742" lon="1.40807">
        <ele>1934.3100585938</ele>
        <time>2011-08-20T11:39:46Z</time>
      </trkpt>
      <trkpt lat="42.69748" lon="1.4081">
        <ele>1931.9064941406</ele>
        <time>2011-08-20T11:39:52Z</time>
      </trkpt>
      <trkpt lat="42.69753" lon="1.40812">
        <ele>1930.9453125</ele>
        <time>2011-08-20T11:39:56Z</time>
      </trkpt>
      <trkpt lat="42.6976" lon="1.40812">
        <ele>1928.0612792969</ele>
        <time>2011-08-20T11:40:02Z</time>
      </trkpt>
      <trkpt lat="42.69767" lon="1.40812">
        <ele>1925.1772460938</ele>
        <time>2011-08-20T11:40:07Z</time>
      </trkpt>
      <trkpt lat="42.69773" lon="1.40812">
        <ele>1922.7741699219</ele>
        <time>2011-08-20T11:40:11Z</time>
      </trkpt>
      <trkpt lat="42.69782" lon="1.40809">
        <ele>1918.4482421875</ele>
        <time>2011-08-20T11:40:18Z</time>
      </trkpt>
      <trkpt lat="42.69786" lon="1.40806">
        <ele>1916.044921875</ele>
        <time>2011-08-20T11:40:21Z</time>
      </trkpt>
      <trkpt lat="42.69792" lon="1.40803">
        <ele>1913.1608886719</ele>
        <time>2011-08-20T11:40:25Z</time>
      </trkpt>
      <trkpt lat="42.69795" lon="1.40802">
        <ele>1911.7189941406</ele>
        <time>2011-08-20T11:40:27Z</time>
      </trkpt>
      <trkpt lat="42.69804" lon="1.40799">
        <ele>1908.3542480469</ele>
        <time>2011-08-20T11:40:33Z</time>
      </trkpt>
      <trkpt lat="42.69809" lon="1.40797">
        <ele>1905.9509277344</ele>
        <time>2011-08-20T11:40:38Z</time>
      </trkpt>
      <trkpt lat="42.69813" lon="1.40792">
        <ele>1902.5864257812</ele>
        <time>2011-08-20T11:40:44Z</time>
      </trkpt>
      <trkpt lat="42.69816" lon="1.40787">
        <ele>1900.6638183594</ele>
        <time>2011-08-20T11:40:49Z</time>
      </trkpt>
      <trkpt lat="42.69819" lon="1.40783">
        <ele>1897.7797851562</ele>
        <time>2011-08-20T11:40:54Z</time>
      </trkpt>
      <trkpt lat="42.69821" lon="1.40783">
        <ele>1896.818359375</ele>
        <time>2011-08-20T11:40:56Z</time>
      </trkpt>
      <trkpt lat="42.69827" lon="1.40782">
        <ele>1893.4538574219</ele>
        <time>2011-08-20T11:41:03Z</time>
      </trkpt>
      <trkpt lat="42.69833" lon="1.40779">
        <ele>1890.5698242188</ele>
        <time>2011-08-20T11:41:09Z</time>
      </trkpt>
      <trkpt lat="42.69837" lon="1.40778">
        <ele>1888.1667480469</ele>
        <time>2011-08-20T11:41:13Z</time>
      </trkpt>
      <trkpt lat="42.69841" lon="1.40777">
        <ele>1886.244140625</ele>
        <time>2011-08-20T11:41:18Z</time>
      </trkpt>
      <trkpt lat="42.69845" lon="1.40774">
        <ele>1884.3215332031</ele>
        <time>2011-08-20T11:41:24Z</time>
      </trkpt>
      <trkpt lat="42.69847" lon="1.4077">
        <ele>1882.3986816406</ele>
        <time>2011-08-20T11:41:29Z</time>
      </trkpt>
      <trkpt lat="42.69852" lon="1.40769">
        <ele>1879.9953613281</ele>
        <time>2011-08-20T11:41:33Z</time>
      </trkpt>
      <trkpt lat="42.69853" lon="1.40769">
        <ele>1879.5146484375</ele>
        <time>2011-08-20T11:41:34Z</time>
      </trkpt>
      <trkpt lat="42.69859" lon="1.40768">
        <ele>1876.630859375</ele>
        <time>2011-08-20T11:41:39Z</time>
      </trkpt>
      <trkpt lat="42.69865" lon="1.40767">
        <ele>1874.7082519531</ele>
        <time>2011-08-20T11:41:43Z</time>
      </trkpt>
      <trkpt lat="42.69868" lon="1.40767">
        <ele>1873.2663574219</ele>
        <time>2011-08-20T11:41:46Z</time>
      </trkpt>
      <trkpt lat="42.69875" lon="1.4077">
        <ele>1871.3435058594</ele>
        <time>2011-08-20T11:41:53Z</time>
      </trkpt>
      <trkpt lat="42.69878" lon="1.40769">
        <ele>1869.4211425781</ele>
        <time>2011-08-20T11:41:58Z</time>
      </trkpt>
      <trkpt lat="42.69881" lon="1.4077">
        <ele>1867.9787597656</ele>
        <time>2011-08-20T11:42:03Z</time>
      </trkpt>
      <trkpt lat="42.69884" lon="1.4077">
        <ele>1866.0561523438</ele>
        <time>2011-08-20T11:42:09Z</time>
      </trkpt>
      <trkpt lat="42.69886" lon="1.40768">
        <ele>1864.6142578125</ele>
        <time>2011-08-20T11:42:14Z</time>
      </trkpt>
      <trkpt lat="42.6989" lon="1.40768">
        <ele>1862.2109375</ele>
        <time>2011-08-20T11:42:21Z</time>
      </trkpt>
      <trkpt lat="42.69894" lon="1.40767">
        <ele>1860.2883300781</ele>
        <time>2011-08-20T11:42:27Z</time>
      </trkpt>
      <trkpt lat="42.69898" lon="1.40764">
        <ele>1857.8852539062</ele>
        <time>2011-08-20T11:42:33Z</time>
      </trkpt>
      <trkpt lat="42.69904" lon="1.4076">
        <ele>1855.0012207031</ele>
        <time>2011-08-20T11:42:39Z</time>
      </trkpt>
      <trkpt lat="42.69908" lon="1.40754">
        <ele>1852.5979003906</ele>
        <time>2011-08-20T11:42:44Z</time>
      </trkpt>
      <trkpt lat="42.69914" lon="1.40749">
        <ele>1849.7138671875</ele>
        <time>2011-08-20T11:42:50Z</time>
      </trkpt>
      <trkpt lat="42.69918" lon="1.40745">
        <ele>1847.7912597656</ele>
        <time>2011-08-20T11:42:55Z</time>
      </trkpt>
      <trkpt lat="42.69926" lon="1.40741">
        <ele>1845.3879394531</ele>
        <time>2011-08-20T11:43:00Z</time>
      </trkpt>
      <trkpt lat="42.69936" lon="1.40737">
        <ele>1842.9846191406</ele>
        <time>2011-08-20T11:43:07Z</time>
      </trkpt>
      <trkpt lat="42.69944" lon="1.40735">
        <ele>1841.0620117188</ele>
        <time>2011-08-20T11:43:13Z</time>
      </trkpt>
      <trkpt lat="42.69946" lon="1.40735">
        <ele>1840.5812988281</ele>
        <time>2011-08-20T11:43:15Z</time>
      </trkpt>
      <trkpt lat="42.69951" lon="1.4073">
        <ele>1838.6589355469</ele>
        <time>2011-08-20T11:43:21Z</time>
      </trkpt>
      <trkpt lat="42.69956" lon="1.40726">
        <ele>1836.2556152344</ele>
        <time>2011-08-20T11:43:26Z</time>
      </trkpt>
      <trkpt lat="42.69962" lon="1.40723">
        <ele>1833.3713378906</ele>
        <time>2011-08-20T11:43:31Z</time>
      </trkpt>
      <trkpt lat="42.69965" lon="1.4072">
        <ele>1831.9294433594</ele>
        <time>2011-08-20T11:43:34Z</time>
      </trkpt>
      <trkpt lat="42.6997" lon="1.40715">
        <ele>1830.0068359375</ele>
        <time>2011-08-20T11:43:39Z</time>
      </trkpt>
      <trkpt lat="42.69979" lon="1.40711">
        <ele>1828.5649414062</ele>
        <time>2011-08-20T11:43:45Z</time>
      </trkpt>
      <trkpt lat="42.69983" lon="1.40708">
        <ele>1827.603515625</ele>
        <time>2011-08-20T11:43:50Z</time>
      </trkpt>
      <trkpt lat="42.69985" lon="1.40707">
        <ele>1826.6423339844</ele>
        <time>2011-08-20T11:43:52Z</time>
      </trkpt>
      <trkpt lat="42.6999" lon="1.40701">
        <ele>1825.6809082031</ele>
        <time>2011-08-20T11:43:57Z</time>
      </trkpt>
      <trkpt lat="42.69992" lon="1.40696">
        <ele>1824.2390136719</ele>
        <time>2011-08-20T11:44:04Z</time>
      </trkpt>
      <trkpt lat="42.69996" lon="1.40694">
        <ele>1822.7971191406</ele>
        <time>2011-08-20T11:44:09Z</time>
      </trkpt>
      <trkpt lat="42.7" lon="1.40691">
        <ele>1820.8745117188</ele>
        <time>2011-08-20T11:44:14Z</time>
      </trkpt>
      <trkpt lat="42.70005" lon="1.40685">
        <ele>1817.990234375</ele>
        <time>2011-08-20T11:44:20Z</time>
      </trkpt>
      <trkpt lat="42.70007" lon="1.40684">
        <ele>1817.5095214844</ele>
        <time>2011-08-20T11:44:22Z</time>
      </trkpt>
      <trkpt lat="42.70016" lon="1.40678">
        <ele>1816.0676269531</ele>
        <time>2011-08-20T11:44:29Z</time>
      </trkpt>
      <trkpt lat="42.70021" lon="1.40675">
        <ele>1813.6643066406</ele>
        <time>2011-08-20T11:44:34Z</time>
      </trkpt>
      <trkpt lat="42.70023" lon="1.40673">
        <ele>1813.1838378906</ele>
        <time>2011-08-20T11:44:36Z</time>
      </trkpt>
      <trkpt lat="42.70026" lon="1.40672">
        <ele>1811.2612304688</ele>
        <time>2011-08-20T11:44:40Z</time>
      </trkpt>
      <trkpt lat="42.70027" lon="1.40665">
        <ele>1809.3386230469</ele>
        <time>2011-08-20T11:44:45Z</time>
      </trkpt>
      <trkpt lat="42.70031" lon="1.4066">
        <ele>1806.4545898438</ele>
        <time>2011-08-20T11:44:51Z</time>
      </trkpt>
      <trkpt lat="42.70032" lon="1.40655">
        <ele>1804.0515136719</ele>
        <time>2011-08-20T11:44:56Z</time>
      </trkpt>
      <trkpt lat="42.70031" lon="1.40649">
        <ele>1802.1284179688</ele>
        <time>2011-08-20T11:45:00Z</time>
      </trkpt>
      <trkpt lat="42.70031" lon="1.40643">
        <ele>1800.6865234375</ele>
        <time>2011-08-20T11:45:03Z</time>
      </trkpt>
      <trkpt lat="42.7003" lon="1.40635">
        <ele>1797.3220214844</ele>
        <time>2011-08-20T11:45:08Z</time>
      </trkpt>
      <trkpt lat="42.70029" lon="1.40626">
        <ele>1795.3994140625</ele>
        <time>2011-08-20T11:45:13Z</time>
      </trkpt>
      <trkpt lat="42.7003" lon="1.40623">
        <ele>1793.9575195312</ele>
        <time>2011-08-20T11:45:17Z</time>
      </trkpt>
      <trkpt lat="42.70031" lon="1.40618">
        <ele>1792.0349121094</ele>
        <time>2011-08-20T11:45:21Z</time>
      </trkpt>
      <trkpt lat="42.70031" lon="1.40615">
        <ele>1790.5927734375</ele>
        <time>2011-08-20T11:45:23Z</time>
      </trkpt>
      <trkpt lat="42.70026" lon="1.40604">
        <ele>1788.1896972656</ele>
        <time>2011-08-20T11:45:28Z</time>
      </trkpt>
      <trkpt lat="42.70026" lon="1.406">
        <ele>1786.2668457031</ele>
        <time>2011-08-20T11:45:32Z</time>
      </trkpt>
      <trkpt lat="42.70029" lon="1.406">
        <ele>1785.3054199219</ele>
        <time>2011-08-20T11:45:35Z</time>
      </trkpt>
      <trkpt lat="42.70039" lon="1.40599">
        <ele>1780.9797363281</ele>
        <time>2011-08-20T11:45:43Z</time>
      </trkpt>
      <trkpt lat="42.70046" lon="1.406">
        <ele>1778.5764160156</ele>
        <time>2011-08-20T11:45:48Z</time>
      </trkpt>
      <trkpt lat="42.70052" lon="1.40604">
        <ele>1776.1730957031</ele>
        <time>2011-08-20T11:45:54Z</time>
      </trkpt>
      <trkpt lat="42.70058" lon="1.40609">
        <ele>1774.2504882812</ele>
        <time>2011-08-20T11:45:59Z</time>
      </trkpt>
      <trkpt lat="42.70062" lon="1.40615">
        <ele>1772.80859375</ele>
        <time>2011-08-20T11:46:03Z</time>
      </trkpt>
      <trkpt lat="42.70062" lon="1.40617">
        <ele>1772.80859375</ele>
        <time>2011-08-20T11:46:05Z</time>
      </trkpt>
      <trkpt lat="42.7007" lon="1.40622">
        <ele>1769.9243164062</ele>
        <time>2011-08-20T11:46:13Z</time>
      </trkpt>
      <trkpt lat="42.70071" lon="1.40624">
        <ele>1768.9631347656</ele>
        <time>2011-08-20T11:46:14Z</time>
      </trkpt>
      <trkpt lat="42.7008" lon="1.40632">
        <ele>1766.0791015625</ele>
        <time>2011-08-20T11:46:20Z</time>
      </trkpt>
      <trkpt lat="42.70087" lon="1.40639">
        <ele>1764.1564941406</ele>
        <time>2011-08-20T11:46:25Z</time>
      </trkpt>
      <trkpt lat="42.70087" lon="1.4064">
        <ele>1763.67578125</ele>
        <time>2011-08-20T11:46:26Z</time>
      </trkpt>
      <trkpt lat="42.7009" lon="1.40641">
        <ele>1762.2338867188</ele>
        <time>2011-08-20T11:46:31Z</time>
      </trkpt>
      <trkpt lat="42.70096" lon="1.40642">
        <ele>1758.8693847656</ele>
        <time>2011-08-20T11:46:38Z</time>
      </trkpt>
      <trkpt lat="42.70101" lon="1.40649">
        <ele>1758.388671875</ele>
        <time>2011-08-20T11:46:42Z</time>
      </trkpt>
      <trkpt lat="42.70105" lon="1.40651">
        <ele>1755.9851074219</ele>
        <time>2011-08-20T11:46:49Z</time>
      </trkpt>
      <trkpt lat="42.7011" lon="1.40656">
        <ele>1753.58203125</ele>
        <time>2011-08-20T11:46:53Z</time>
      </trkpt>
      <trkpt lat="42.70116" lon="1.4066">
        <ele>1750.6979980469</ele>
        <time>2011-08-20T11:46:58Z</time>
      </trkpt>
      <trkpt lat="42.70121" lon="1.40661">
        <ele>1748.775390625</ele>
        <time>2011-08-20T11:47:03Z</time>
      </trkpt>
      <trkpt lat="42.70125" lon="1.40663">
        <ele>1747.8142089844</ele>
        <time>2011-08-20T11:47:07Z</time>
      </trkpt>
      <trkpt lat="42.70125" lon="1.40663">
        <ele>1747.3334960938</ele>
        <time>2011-08-20T11:47:08Z</time>
      </trkpt>
      <trkpt lat="42.7013" lon="1.40659">
        <ele>1744.4494628906</ele>
        <time>2011-08-20T11:47:14Z</time>
      </trkpt>
      <trkpt lat="42.70132" lon="1.40656">
        <ele>1743.48828125</ele>
        <time>2011-08-20T11:47:18Z</time>
      </trkpt>
      <trkpt lat="42.70134" lon="1.40653">
        <ele>1741.5656738281</ele>
        <time>2011-08-20T11:47:23Z</time>
      </trkpt>
      <trkpt lat="42.70139" lon="1.40654">
        <ele>1739.162109375</ele>
        <time>2011-08-20T11:47:29Z</time>
      </trkpt>
      <trkpt lat="42.7014" lon="1.40649">
        <ele>1737.2395019531</ele>
        <time>2011-08-20T11:47:34Z</time>
      </trkpt>
      <trkpt lat="42.70143" lon="1.40649">
        <ele>1735.7976074219</ele>
        <time>2011-08-20T11:47:39Z</time>
      </trkpt>
      <trkpt lat="42.70147" lon="1.40649">
        <ele>1733.875</ele>
        <time>2011-08-20T11:47:44Z</time>
      </trkpt>
      <trkpt lat="42.7015" lon="1.4065">
        <ele>1732.4331054688</ele>
        <time>2011-08-20T11:47:49Z</time>
      </trkpt>
      <trkpt lat="42.70156" lon="1.40651">
        <ele>1730.5104980469</ele>
        <time>2011-08-20T11:47:54Z</time>
      </trkpt>
      <trkpt lat="42.7016" lon="1.40656">
        <ele>1728.1071777344</ele>
        <time>2011-08-20T11:48:00Z</time>
      </trkpt>
      <trkpt lat="42.70165" lon="1.40658">
        <ele>1726.1845703125</ele>
        <time>2011-08-20T11:48:06Z</time>
      </trkpt>
      <trkpt lat="42.70169" lon="1.40658">
        <ele>1723.7810058594</ele>
        <time>2011-08-20T11:48:11Z</time>
      </trkpt>
      <trkpt lat="42.70173" lon="1.40655">
        <ele>1721.8583984375</ele>
        <time>2011-08-20T11:48:16Z</time>
      </trkpt>
      <trkpt lat="42.70175" lon="1.40655">
        <ele>1720.8972167969</ele>
        <time>2011-08-20T11:48:18Z</time>
      </trkpt>
      <trkpt lat="42.70182" lon="1.40655">
        <ele>1718.974609375</ele>
        <time>2011-08-20T11:48:23Z</time>
      </trkpt>
      <trkpt lat="42.7019" lon="1.40654">
        <ele>1716.5712890625</ele>
        <time>2011-08-20T11:48:29Z</time>
      </trkpt>
      <trkpt lat="42.70193" lon="1.40655">
        <ele>1715.6101074219</ele>
        <time>2011-08-20T11:48:32Z</time>
      </trkpt>
      <trkpt lat="42.70195" lon="1.40654">
        <ele>1715.1293945312</ele>
        <time>2011-08-20T11:48:35Z</time>
      </trkpt>
      <trkpt lat="42.70203" lon="1.40653">
        <ele>1712.2453613281</ele>
        <time>2011-08-20T11:48:41Z</time>
      </trkpt>
      <trkpt lat="42.70207" lon="1.40651">
        <ele>1711.2841796875</ele>
        <time>2011-08-20T11:48:45Z</time>
      </trkpt>
      <trkpt lat="42.70209" lon="1.40648">
        <ele>1710.3227539062</ele>
        <time>2011-08-20T11:48:48Z</time>
      </trkpt>
      <trkpt lat="42.70214" lon="1.40645">
        <ele>1707.9194335938</ele>
        <time>2011-08-20T11:48:52Z</time>
      </trkpt>
      <trkpt lat="42.70222" lon="1.40639">
        <ele>1704.5546875</ele>
        <time>2011-08-20T11:49:00Z</time>
      </trkpt>
      <trkpt lat="42.70223" lon="1.40633">
        <ele>1702.6320800781</ele>
        <time>2011-08-20T11:49:04Z</time>
      </trkpt>
      <trkpt lat="42.70226" lon="1.40629">
        <ele>1700.2290039062</ele>
        <time>2011-08-20T11:49:09Z</time>
      </trkpt>
      <trkpt lat="42.70226" lon="1.4062">
        <ele>1697.8256835938</ele>
        <time>2011-08-20T11:49:14Z</time>
      </trkpt>
      <trkpt lat="42.70229" lon="1.40614">
        <ele>1695.9030761719</ele>
        <time>2011-08-20T11:49:19Z</time>
      </trkpt>
      <trkpt lat="42.70228" lon="1.40605">
        <ele>1693.4997558594</ele>
        <time>2011-08-20T11:49:25Z</time>
      </trkpt>
      <trkpt lat="42.70232" lon="1.40597">
        <ele>1690.6154785156</ele>
        <time>2011-08-20T11:49:30Z</time>
      </trkpt>
      <trkpt lat="42.70234" lon="1.40587">
        <ele>1688.2124023438</ele>
        <time>2011-08-20T11:49:36Z</time>
      </trkpt>
      <trkpt lat="42.70233" lon="1.40574">
        <ele>1685.3283691406</ele>
        <time>2011-08-20T11:49:42Z</time>
      </trkpt>
      <trkpt lat="42.70236" lon="1.4057">
        <ele>1683.4057617188</ele>
        <time>2011-08-20T11:49:46Z</time>
      </trkpt>
      <trkpt lat="42.70236" lon="1.40562">
        <ele>1681.4831542969</ele>
        <time>2011-08-20T11:49:51Z</time>
      </trkpt>
      <trkpt lat="42.70239" lon="1.4056">
        <ele>1680.0412597656</ele>
        <time>2011-08-20T11:49:56Z</time>
      </trkpt>
      <trkpt lat="42.70242" lon="1.40564">
        <ele>1679.0798339844</ele>
        <time>2011-08-20T11:50:00Z</time>
      </trkpt>
      <trkpt lat="42.70248" lon="1.40567">
        <ele>1677.1574707031</ele>
        <time>2011-08-20T11:50:06Z</time>
      </trkpt>
      <trkpt lat="42.70255" lon="1.40574">
        <ele>1674.75390625</ele>
        <time>2011-08-20T11:50:12Z</time>
      </trkpt>
      <trkpt lat="42.70262" lon="1.40581">
        <ele>1672.8312988281</ele>
        <time>2011-08-20T11:50:18Z</time>
      </trkpt>
      <trkpt lat="42.70266" lon="1.40583">
        <ele>1672.3505859375</ele>
        <time>2011-08-20T11:50:21Z</time>
      </trkpt>
      <trkpt lat="42.70276" lon="1.40582">
        <ele>1669.947265625</ele>
        <time>2011-08-20T11:50:30Z</time>
      </trkpt>
      <trkpt lat="42.70279" lon="1.40583">
        <ele>1669.947265625</ele>
        <time>2011-08-20T11:50:32Z</time>
      </trkpt>
      <trkpt lat="42.70281" lon="1.40584">
        <ele>1669.466796875</ele>
        <time>2011-08-20T11:50:36Z</time>
      </trkpt>
      <trkpt lat="42.70282" lon="1.40585">
        <ele>1669.466796875</ele>
        <time>2011-08-20T11:50:47Z</time>
      </trkpt>
      <trkpt lat="42.70282" lon="1.40585">
        <ele>1670.4279785156</ele>
        <time>2011-08-20T11:50:59Z</time>
      </trkpt>
      <trkpt lat="42.70281" lon="1.40586">
        <ele>1670.9086914062</ele>
        <time>2011-08-20T11:51:05Z</time>
      </trkpt>
      <trkpt lat="42.70283" lon="1.40583">
        <ele>1670.4279785156</ele>
        <time>2011-08-20T11:51:10Z</time>
      </trkpt>
      <trkpt lat="42.70291" lon="1.40584">
        <ele>1669.947265625</ele>
        <time>2011-08-20T11:51:15Z</time>
      </trkpt>
      <trkpt lat="42.70295" lon="1.40581">
        <ele>1668.5053710938</ele>
        <time>2011-08-20T11:51:19Z</time>
      </trkpt>
      <trkpt lat="42.70298" lon="1.40581">
        <ele>1668.0246582031</ele>
        <time>2011-08-20T11:51:21Z</time>
      </trkpt>
      <trkpt lat="42.70306" lon="1.40583">
        <ele>1665.1408691406</ele>
        <time>2011-08-20T11:51:29Z</time>
      </trkpt>
      <trkpt lat="42.7031" lon="1.40581">
        <ele>1663.6987304688</ele>
        <time>2011-08-20T11:51:32Z</time>
      </trkpt>
      <trkpt lat="42.70314" lon="1.40581">
        <ele>1663.2182617188</ele>
        <time>2011-08-20T11:51:35Z</time>
      </trkpt>
      <trkpt lat="42.7032" lon="1.40579">
        <ele>1660.8149414062</ele>
        <time>2011-08-20T11:51:41Z</time>
      </trkpt>
      <trkpt lat="42.70325" lon="1.4058">
        <ele>1659.3728027344</ele>
        <time>2011-08-20T11:51:45Z</time>
      </trkpt>
      <trkpt lat="42.7033" lon="1.40582">
        <ele>1657.9309082031</ele>
        <time>2011-08-20T11:51:49Z</time>
      </trkpt>
      <trkpt lat="42.70338" lon="1.40582">
        <ele>1655.046875</ele>
        <time>2011-08-20T11:51:55Z</time>
      </trkpt>
      <trkpt lat="42.70341" lon="1.40585">
        <ele>1654.5661621094</ele>
        <time>2011-08-20T11:51:59Z</time>
      </trkpt>
      <trkpt lat="42.70348" lon="1.40586">
        <ele>1652.1628417969</ele>
        <time>2011-08-20T11:52:05Z</time>
      </trkpt>
      <trkpt lat="42.70352" lon="1.40589">
        <ele>1650.2404785156</ele>
        <time>2011-08-20T11:52:09Z</time>
      </trkpt>
      <trkpt lat="42.70359" lon="1.40593">
        <ele>1647.8371582031</ele>
        <time>2011-08-20T11:52:14Z</time>
      </trkpt>
      <trkpt lat="42.70362" lon="1.40597">
        <ele>1646.8757324219</ele>
        <time>2011-08-20T11:52:17Z</time>
      </trkpt>
      <trkpt lat="42.70372" lon="1.40607">
        <ele>1643.9916992188</ele>
        <time>2011-08-20T11:52:24Z</time>
      </trkpt>
      <trkpt lat="42.70377" lon="1.40608">
        <ele>1642.0690917969</ele>
        <time>2011-08-20T11:52:28Z</time>
      </trkpt>
      <trkpt lat="42.70381" lon="1.40608">
        <ele>1640.626953125</ele>
        <time>2011-08-20T11:52:31Z</time>
      </trkpt>
      <trkpt lat="42.70386" lon="1.40609">
        <ele>1638.7045898438</ele>
        <time>2011-08-20T11:52:37Z</time>
      </trkpt>
      <trkpt lat="42.70392" lon="1.4061">
        <ele>1636.3012695312</ele>
        <time>2011-08-20T11:52:43Z</time>
      </trkpt>
      <trkpt lat="42.70393" lon="1.40612">
        <ele>1636.3012695312</ele>
        <time>2011-08-20T11:52:44Z</time>
      </trkpt>
      <trkpt lat="42.70395" lon="1.40617">
        <ele>1634.859375</ele>
        <time>2011-08-20T11:52:49Z</time>
      </trkpt>
      <trkpt lat="42.70399" lon="1.40623">
        <ele>1632.4560546875</ele>
        <time>2011-08-20T11:52:54Z</time>
      </trkpt>
      <trkpt lat="42.70403" lon="1.40627">
        <ele>1630.052734375</ele>
        <time>2011-08-20T11:52:59Z</time>
      </trkpt>
      <trkpt lat="42.70405" lon="1.40633">
        <ele>1628.1301269531</ele>
        <time>2011-08-20T11:53:04Z</time>
      </trkpt>
      <trkpt lat="42.7041" lon="1.40638">
        <ele>1625.7265625</ele>
        <time>2011-08-20T11:53:09Z</time>
      </trkpt>
      <trkpt lat="42.70416" lon="1.40636">
        <ele>1622.8427734375</ele>
        <time>2011-08-20T11:53:15Z</time>
      </trkpt>
      <trkpt lat="42.70421" lon="1.40635">
        <ele>1620.439453125</ele>
        <time>2011-08-20T11:53:20Z</time>
      </trkpt>
      <trkpt lat="42.70424" lon="1.40639">
        <ele>1618.5168457031</ele>
        <time>2011-08-20T11:53:24Z</time>
      </trkpt>
      <trkpt lat="42.70425" lon="1.40647">
        <ele>1616.5942382812</ele>
        <time>2011-08-20T11:53:29Z</time>
      </trkpt>
      <trkpt lat="42.70426" lon="1.4065">
        <ele>1616.1135253906</ele>
        <time>2011-08-20T11:53:31Z</time>
      </trkpt>
      <trkpt lat="42.7043" lon="1.40655">
        <ele>1614.1909179688</ele>
        <time>2011-08-20T11:53:37Z</time>
      </trkpt>
      <trkpt lat="42.70433" lon="1.40653">
        <ele>1612.7490234375</ele>
        <time>2011-08-20T11:53:42Z</time>
      </trkpt>
      <trkpt lat="42.70436" lon="1.40651">
        <ele>1611.7875976562</ele>
        <time>2011-08-20T11:53:45Z</time>
      </trkpt>
      <trkpt lat="42.7044" lon="1.40655">
        <ele>1609.8647460938</ele>
        <time>2011-08-20T11:53:49Z</time>
      </trkpt>
      <trkpt lat="42.70448" lon="1.40655">
        <ele>1607.4616699219</ele>
        <time>2011-08-20T11:53:55Z</time>
      </trkpt>
      <trkpt lat="42.70451" lon="1.40654">
        <ele>1606.01953125</ele>
        <time>2011-08-20T11:53:58Z</time>
      </trkpt>
      <trkpt lat="42.70454" lon="1.4065">
        <ele>1603.6164550781</ele>
        <time>2011-08-20T11:54:03Z</time>
      </trkpt>
      <trkpt lat="42.70459" lon="1.4064">
        <ele>1599.7712402344</ele>
        <time>2011-08-20T11:54:10Z</time>
      </trkpt>
      <trkpt lat="42.70464" lon="1.40634">
        <ele>1598.3291015625</ele>
        <time>2011-08-20T11:54:15Z</time>
      </trkpt>
      <trkpt lat="42.70468" lon="1.40636">
        <ele>1595.4450683594</ele>
        <time>2011-08-20T11:54:18Z</time>
      </trkpt>
      <trkpt lat="42.70471" lon="1.4064">
        <ele>1594.0031738281</ele>
        <time>2011-08-20T11:54:20Z</time>
      </trkpt>
      <trkpt lat="42.7047" lon="1.40649">
        <ele>1590.1579589844</ele>
        <time>2011-08-20T11:54:25Z</time>
      </trkpt>
      <trkpt lat="42.70476" lon="1.40652">
        <ele>1588.7160644531</ele>
        <time>2011-08-20T11:54:30Z</time>
      </trkpt>
      <trkpt lat="42.70477" lon="1.40651">
        <ele>1588.2353515625</ele>
        <time>2011-08-20T11:54:31Z</time>
      </trkpt>
      <trkpt lat="42.7048" lon="1.40649">
        <ele>1588.2353515625</ele>
        <time>2011-08-20T11:54:34Z</time>
      </trkpt>
      <trkpt lat="42.70487" lon="1.40647">
        <ele>1586.3127441406</ele>
        <time>2011-08-20T11:54:41Z</time>
      </trkpt>
      <trkpt lat="42.7049" lon="1.40647">
        <ele>1584.3901367188</ele>
        <time>2011-08-20T11:54:44Z</time>
      </trkpt>
      <trkpt lat="42.70495" lon="1.40651">
        <ele>1581.9868164062</ele>
        <time>2011-08-20T11:54:50Z</time>
      </trkpt>
      <trkpt lat="42.70498" lon="1.40663">
        <ele>1577.1801757812</ele>
        <time>2011-08-20T11:54:57Z</time>
      </trkpt>
      <trkpt lat="42.70502" lon="1.40661">
        <ele>1574.7768554688</ele>
        <time>2011-08-20T11:55:02Z</time>
      </trkpt>
      <trkpt lat="42.70509" lon="1.4066">
        <ele>1572.3735351562</ele>
        <time>2011-08-20T11:55:07Z</time>
      </trkpt>
      <trkpt lat="42.70512" lon="1.40656">
        <ele>1570.4509277344</ele>
        <time>2011-08-20T11:55:10Z</time>
      </trkpt>
      <trkpt lat="42.70514" lon="1.40651">
        <ele>1568.0476074219</ele>
        <time>2011-08-20T11:55:17Z</time>
      </trkpt>
      <trkpt lat="42.70512" lon="1.40652">
        <ele>1567.0864257812</ele>
        <time>2011-08-20T11:55:31Z</time>
      </trkpt>
      <trkpt lat="42.70515" lon="1.40656">
        <ele>1564.6831054688</ele>
        <time>2011-08-20T11:55:51Z</time>
      </trkpt>
      <trkpt lat="42.70516" lon="1.40657">
        <ele>1564.6831054688</ele>
        <time>2011-08-20T11:55:52Z</time>
      </trkpt>
      <trkpt lat="42.70518" lon="1.40665">
        <ele>1562.7602539062</ele>
        <time>2011-08-20T11:55:56Z</time>
      </trkpt>
      <trkpt lat="42.70522" lon="1.40675">
        <ele>1560.3569335938</ele>
        <time>2011-08-20T11:56:02Z</time>
      </trkpt>
      <trkpt lat="42.70524" lon="1.40679">
        <ele>1559.8762207031</ele>
        <time>2011-08-20T11:56:04Z</time>
      </trkpt>
      <trkpt lat="42.70526" lon="1.40683">
        <ele>1558.9150390625</ele>
        <time>2011-08-20T11:56:09Z</time>
      </trkpt>
      <trkpt lat="42.70529" lon="1.40687">
        <ele>1557.9538574219</ele>
        <time>2011-08-20T11:56:14Z</time>
      </trkpt>
      <trkpt lat="42.70531" lon="1.40691">
        <ele>1558.4343261719</ele>
        <time>2011-08-20T11:56:19Z</time>
      </trkpt>
      <trkpt lat="42.70534" lon="1.40696">
        <ele>1556.9924316406</ele>
        <time>2011-08-20T11:56:24Z</time>
      </trkpt>
      <trkpt lat="42.70537" lon="1.40708">
        <ele>1555.0698242188</ele>
        <time>2011-08-20T11:56:29Z</time>
      </trkpt>
      <trkpt lat="42.70539" lon="1.40717">
        <ele>1552.6665039062</ele>
        <time>2011-08-20T11:56:33Z</time>
      </trkpt>
      <trkpt lat="42.70541" lon="1.40723">
        <ele>1550.7438964844</ele>
        <time>2011-08-20T11:56:36Z</time>
      </trkpt>
      <trkpt lat="42.70541" lon="1.40734">
        <ele>1547.8598632812</ele>
        <time>2011-08-20T11:56:42Z</time>
      </trkpt>
      <trkpt lat="42.70545" lon="1.40732">
        <ele>1544.9758300781</ele>
        <time>2011-08-20T11:56:48Z</time>
      </trkpt>
      <trkpt lat="42.70549" lon="1.4073">
        <ele>1544.4951171875</ele>
        <time>2011-08-20T11:56:53Z</time>
      </trkpt>
      <trkpt lat="42.70552" lon="1.40731">
        <ele>1543.5339355469</ele>
        <time>2011-08-20T11:56:56Z</time>
      </trkpt>
      <trkpt lat="42.70558" lon="1.40737">
        <ele>1541.611328125</ele>
        <time>2011-08-20T11:57:00Z</time>
      </trkpt>
      <trkpt lat="42.70559" lon="1.40744">
        <ele>1538.2468261719</ele>
        <time>2011-08-20T11:57:05Z</time>
      </trkpt>
      <trkpt lat="42.70561" lon="1.40747">
        <ele>1536.32421875</ele>
        <time>2011-08-20T11:57:10Z</time>
      </trkpt>
      <trkpt lat="42.70562" lon="1.4075">
        <ele>1534.8823242188</ele>
        <time>2011-08-20T11:57:12Z</time>
      </trkpt>
      <trkpt lat="42.70563" lon="1.40765">
        <ele>1531.5173339844</ele>
        <time>2011-08-20T11:57:19Z</time>
      </trkpt>
      <trkpt lat="42.70562" lon="1.40777">
        <ele>1529.1140136719</ele>
        <time>2011-08-20T11:57:24Z</time>
      </trkpt>
      <trkpt lat="42.70563" lon="1.40785">
        <ele>1526.2302246094</ele>
        <time>2011-08-20T11:57:28Z</time>
      </trkpt>
      <trkpt lat="42.70563" lon="1.40791">
        <ele>1523.3464355469</ele>
        <time>2011-08-20T11:57:32Z</time>
      </trkpt>
      <trkpt lat="42.70564" lon="1.408">
        <ele>1521.904296875</ele>
        <time>2011-08-20T11:57:38Z</time>
      </trkpt>
      <trkpt lat="42.70567" lon="1.40803">
        <ele>1521.4235839844</ele>
        <time>2011-08-20T11:57:42Z</time>
      </trkpt>
      <trkpt lat="42.70572" lon="1.4081">
        <ele>1520.9431152344</ele>
        <time>2011-08-20T11:57:48Z</time>
      </trkpt>
      <trkpt lat="42.70575" lon="1.40811">
        <ele>1520.4624023438</ele>
        <time>2011-08-20T11:57:51Z</time>
      </trkpt>
      <trkpt lat="42.70577" lon="1.40811">
        <ele>1521.4235839844</ele>
        <time>2011-08-20T11:57:53Z</time>
      </trkpt>
      <trkpt lat="42.70581" lon="1.40806">
        <ele>1519.5012207031</ele>
        <time>2011-08-20T11:58:00Z</time>
      </trkpt>
      <trkpt lat="42.70583" lon="1.40805">
        <ele>1518.5397949219</ele>
        <time>2011-08-20T11:58:05Z</time>
      </trkpt>
      <trkpt lat="42.70586" lon="1.40799">
        <ele>1517.5783691406</ele>
        <time>2011-08-20T11:58:16Z</time>
      </trkpt>
      <trkpt lat="42.70589" lon="1.40795">
        <ele>1515.6557617188</ele>
        <time>2011-08-20T11:58:22Z</time>
      </trkpt>
      <trkpt lat="42.70595" lon="1.40792">
        <ele>1513.7329101562</ele>
        <time>2011-08-20T11:58:28Z</time>
      </trkpt>
      <trkpt lat="42.70596" lon="1.40792">
        <ele>1513.7329101562</ele>
        <time>2011-08-20T11:58:29Z</time>
      </trkpt>
      <trkpt lat="42.70604" lon="1.40792">
        <ele>1512.291015625</ele>
        <time>2011-08-20T11:58:34Z</time>
      </trkpt>
      <trkpt lat="42.70608" lon="1.40792">
        <ele>1511.3298339844</ele>
        <time>2011-08-20T11:58:38Z</time>
      </trkpt>
      <trkpt lat="42.7061" lon="1.40791">
        <ele>1510.3684082031</ele>
        <time>2011-08-20T11:58:40Z</time>
      </trkpt>
      <trkpt lat="42.70615" lon="1.40794">
        <ele>1507.00390625</ele>
        <time>2011-08-20T11:58:46Z</time>
      </trkpt>
      <trkpt lat="42.70619" lon="1.40797">
        <ele>1504.6005859375</ele>
        <time>2011-08-20T11:58:50Z</time>
      </trkpt>
      <trkpt lat="42.70623" lon="1.408">
        <ele>1501.716796875</ele>
        <time>2011-08-20T11:58:56Z</time>
      </trkpt>
      <trkpt lat="42.70627" lon="1.40802">
        <ele>1499.7939453125</ele>
        <time>2011-08-20T11:59:01Z</time>
      </trkpt>
      <trkpt lat="42.7063" lon="1.40806">
        <ele>1497.390625</ele>
        <time>2011-08-20T11:59:06Z</time>
      </trkpt>
      <trkpt lat="42.70633" lon="1.40811">
        <ele>1493.5454101562</ele>
        <time>2011-08-20T11:59:11Z</time>
      </trkpt>
      <trkpt lat="42.70634" lon="1.40811">
        <ele>1493.0646972656</ele>
        <time>2011-08-20T11:59:12Z</time>
      </trkpt>
      <trkpt lat="42.70638" lon="1.40817">
        <ele>1491.6228027344</ele>
        <time>2011-08-20T11:59:16Z</time>
      </trkpt>
      <trkpt lat="42.70641" lon="1.40825">
        <ele>1489.7001953125</ele>
        <time>2011-08-20T11:59:22Z</time>
      </trkpt>
      <trkpt lat="42.70641" lon="1.40826">
        <ele>1489.7001953125</ele>
        <time>2011-08-20T11:59:23Z</time>
      </trkpt>
      <trkpt lat="42.70644" lon="1.40835">
        <ele>1488.2583007812</ele>
        <time>2011-08-20T11:59:28Z</time>
      </trkpt>
      <trkpt lat="42.70644" lon="1.40846">
        <ele>1487.7775878906</ele>
        <time>2011-08-20T11:59:33Z</time>
      </trkpt>
      <trkpt lat="42.70646" lon="1.40852">
        <ele>1486.3356933594</ele>
        <time>2011-08-20T11:59:36Z</time>
      </trkpt>
      <trkpt lat="42.70648" lon="1.40862">
        <ele>1484.4130859375</ele>
        <time>2011-08-20T11:59:42Z</time>
      </trkpt>
      <trkpt lat="42.7065" lon="1.40875">
        <ele>1482.490234375</ele>
        <time>2011-08-20T11:59:48Z</time>
      </trkpt>
      <trkpt lat="42.7065" lon="1.40881">
        <ele>1481.0483398438</ele>
        <time>2011-08-20T11:59:52Z</time>
      </trkpt>
      <trkpt lat="42.7065" lon="1.40885">
        <ele>1481.5288085938</ele>
        <time>2011-08-20T11:59:59Z</time>
      </trkpt>
      <trkpt lat="42.7065" lon="1.40887">
        <ele>1482.0095214844</ele>
        <time>2011-08-20T12:00:04Z</time>
      </trkpt>
      <trkpt lat="42.7065" lon="1.40892">
        <ele>1481.5288085938</ele>
        <time>2011-08-20T12:00:08Z</time>
      </trkpt>
      <trkpt lat="42.70651" lon="1.40908">
        <ele>1478.6450195312</ele>
        <time>2011-08-20T12:00:14Z</time>
      </trkpt>
      <trkpt lat="42.70651" lon="1.40921">
        <ele>1474.3190917969</ele>
        <time>2011-08-20T12:00:20Z</time>
      </trkpt>
      <trkpt lat="42.70649" lon="1.40933">
        <ele>1470.4738769531</ele>
        <time>2011-08-20T12:00:26Z</time>
      </trkpt>
      <trkpt lat="42.70655" lon="1.40943">
        <ele>1470.9545898438</ele>
        <time>2011-08-20T12:00:30Z</time>
      </trkpt>
      <trkpt lat="42.70652" lon="1.40951">
        <ele>1471.4350585938</ele>
        <time>2011-08-20T12:00:34Z</time>
      </trkpt>
      <trkpt lat="42.7065" lon="1.40967">
        <ele>1469.5126953125</ele>
        <time>2011-08-20T12:00:41Z</time>
      </trkpt>
      <trkpt lat="42.70652" lon="1.40977">
        <ele>1468.5512695312</ele>
        <time>2011-08-20T12:00:46Z</time>
      </trkpt>
      <trkpt lat="42.70651" lon="1.40995">
        <ele>1467.1091308594</ele>
        <time>2011-08-20T12:00:52Z</time>
      </trkpt>
      <trkpt lat="42.70652" lon="1.40998">
        <ele>1466.6284179688</ele>
        <time>2011-08-20T12:00:53Z</time>
      </trkpt>
      <trkpt lat="42.70653" lon="1.41005">
        <ele>1464.7058105469</ele>
        <time>2011-08-20T12:00:56Z</time>
      </trkpt>
      <trkpt lat="42.70653" lon="1.41015">
        <ele>1462.3024902344</ele>
        <time>2011-08-20T12:01:00Z</time>
      </trkpt>
      <trkpt lat="42.70652" lon="1.41029">
        <ele>1458.9379882812</ele>
        <time>2011-08-20T12:01:05Z</time>
      </trkpt>
      <trkpt lat="42.70652" lon="1.41032">
        <ele>1457.9768066406</ele>
        <time>2011-08-20T12:01:06Z</time>
      </trkpt>
      <trkpt lat="42.70653" lon="1.4104">
        <ele>1456.0539550781</ele>
        <time>2011-08-20T12:01:10Z</time>
      </trkpt>
      <trkpt lat="42.70655" lon="1.41039">
        <ele>1454.6120605469</ele>
        <time>2011-08-20T12:01:14Z</time>
      </trkpt>
      <trkpt lat="42.70659" lon="1.41032">
        <ele>1453.1701660156</ele>
        <time>2011-08-20T12:01:20Z</time>
      </trkpt>
      <trkpt lat="42.70661" lon="1.41028">
        <ele>1454.1315917969</ele>
        <time>2011-08-20T12:01:25Z</time>
      </trkpt>
      <trkpt lat="42.70662" lon="1.41027">
        <ele>1456.0539550781</ele>
        <time>2011-08-20T12:01:28Z</time>
      </trkpt>
      <trkpt lat="42.70671" lon="1.4103">
        <ele>1452.2087402344</ele>
        <time>2011-08-20T12:01:34Z</time>
      </trkpt>
      <trkpt lat="42.70672" lon="1.41033">
        <ele>1450.7666015625</ele>
        <time>2011-08-20T12:01:36Z</time>
      </trkpt>
      <trkpt lat="42.70673" lon="1.41038">
        <ele>1448.8439941406</ele>
        <time>2011-08-20T12:01:39Z</time>
      </trkpt>
      <trkpt lat="42.70674" lon="1.41047">
        <ele>1445.4794921875</ele>
        <time>2011-08-20T12:01:43Z</time>
      </trkpt>
      <trkpt lat="42.70675" lon="1.4105">
        <ele>1444.5180664062</ele>
        <time>2011-08-20T12:01:45Z</time>
      </trkpt>
      <trkpt lat="42.70677" lon="1.41056">
        <ele>1443.076171875</ele>
        <time>2011-08-20T12:01:48Z</time>
      </trkpt>
      <trkpt lat="42.70679" lon="1.41069">
        <ele>1439.2309570312</ele>
        <time>2011-08-20T12:01:54Z</time>
      </trkpt>
      <trkpt lat="42.70682" lon="1.41084">
        <ele>1436.3471679688</ele>
        <time>2011-08-20T12:02:01Z</time>
      </trkpt>
      <trkpt lat="42.70686" lon="1.41098">
        <ele>1435.8662109375</ele>
        <time>2011-08-20T12:02:07Z</time>
      </trkpt>
      <trkpt lat="42.70689" lon="1.41107">
        <ele>1433.9436035156</ele>
        <time>2011-08-20T12:02:12Z</time>
      </trkpt>
      <trkpt lat="42.70693" lon="1.4111">
        <ele>1432.9821777344</ele>
        <time>2011-08-20T12:02:15Z</time>
      </trkpt>
      <trkpt lat="42.70695" lon="1.41123">
        <ele>1431.0598144531</ele>
        <time>2011-08-20T12:02:20Z</time>
      </trkpt>
      <trkpt lat="42.70696" lon="1.41133">
        <ele>1430.0983886719</ele>
        <time>2011-08-20T12:02:24Z</time>
      </trkpt>
      <trkpt lat="42.70697" lon="1.41142">
        <ele>1426.7338867188</ele>
        <time>2011-08-20T12:02:29Z</time>
      </trkpt>
      <trkpt lat="42.707" lon="1.41149">
        <ele>1423.3693847656</ele>
        <time>2011-08-20T12:02:34Z</time>
      </trkpt>
      <trkpt lat="42.707" lon="1.41151">
        <ele>1422.888671875</ele>
        <time>2011-08-20T12:02:35Z</time>
      </trkpt>
      <trkpt lat="42.70699" lon="1.41165">
        <ele>1420.9660644531</ele>
        <time>2011-08-20T12:02:41Z</time>
      </trkpt>
      <trkpt lat="42.70699" lon="1.41175">
        <ele>1419.0432128906</ele>
        <time>2011-08-20T12:02:46Z</time>
      </trkpt>
      <trkpt lat="42.707" lon="1.41189">
        <ele>1417.6010742188</ele>
        <time>2011-08-20T12:02:52Z</time>
      </trkpt>
      <trkpt lat="42.70698" lon="1.41198">
        <ele>1416.6398925781</ele>
        <time>2011-08-20T12:02:56Z</time>
      </trkpt>
      <trkpt lat="42.70699" lon="1.4121">
        <ele>1415.6787109375</ele>
        <time>2011-08-20T12:03:02Z</time>
      </trkpt>
      <trkpt lat="42.70694" lon="1.41224">
        <ele>1414.7172851562</ele>
        <time>2011-08-20T12:03:07Z</time>
      </trkpt>
      <trkpt lat="42.70697" lon="1.4124">
        <ele>1414.7172851562</ele>
        <time>2011-08-20T12:03:13Z</time>
      </trkpt>
      <trkpt lat="42.70698" lon="1.41251">
        <ele>1415.1979980469</ele>
        <time>2011-08-20T12:03:17Z</time>
      </trkpt>
      <trkpt lat="42.70695" lon="1.41263">
        <ele>1414.2365722656</ele>
        <time>2011-08-20T12:03:23Z</time>
      </trkpt>
      <trkpt lat="42.70694" lon="1.41271">
        <ele>1414.7172851562</ele>
        <time>2011-08-20T12:03:26Z</time>
      </trkpt>
      <trkpt lat="42.70691" lon="1.41284">
        <ele>1413.755859375</ele>
        <time>2011-08-20T12:03:31Z</time>
      </trkpt>
      <trkpt lat="42.70689" lon="1.41297">
        <ele>1413.755859375</ele>
        <time>2011-08-20T12:03:35Z</time>
      </trkpt>
      <trkpt lat="42.70691" lon="1.41314">
        <ele>1409.9106445312</ele>
        <time>2011-08-20T12:03:41Z</time>
      </trkpt>
      <trkpt lat="42.7069" lon="1.41328">
        <ele>1406.0654296875</ele>
        <time>2011-08-20T12:03:46Z</time>
      </trkpt>
      <trkpt lat="42.70683" lon="1.41346">
        <ele>1403.662109375</ele>
        <time>2011-08-20T12:03:51Z</time>
      </trkpt>
      <trkpt lat="42.70679" lon="1.41358">
        <ele>1400.7780761719</ele>
        <time>2011-08-20T12:03:55Z</time>
      </trkpt>
      <trkpt lat="42.70674" lon="1.41367">
        <ele>1399.3361816406</ele>
        <time>2011-08-20T12:03:59Z</time>
      </trkpt>
      <trkpt lat="42.70671" lon="1.41378">
        <ele>1395.9716796875</ele>
        <time>2011-08-20T12:04:05Z</time>
      </trkpt>
      <trkpt lat="42.70671" lon="1.41385">
        <ele>1394.0490722656</ele>
        <time>2011-08-20T12:04:08Z</time>
      </trkpt>
      <trkpt lat="42.70671" lon="1.41395">
        <ele>1394.0490722656</ele>
        <time>2011-08-20T12:04:13Z</time>
      </trkpt>
      <trkpt lat="42.70671" lon="1.41398">
        <ele>1394.5295410156</ele>
        <time>2011-08-20T12:04:15Z</time>
      </trkpt>
      <trkpt lat="42.7067" lon="1.41404">
        <ele>1395.4909667969</ele>
        <time>2011-08-20T12:04:19Z</time>
      </trkpt>
      <trkpt lat="42.70669" lon="1.4141">
        <ele>1395.9716796875</ele>
        <time>2011-08-20T12:04:23Z</time>
      </trkpt>
      <trkpt lat="42.70668" lon="1.41422">
        <ele>1395.4909667969</ele>
        <time>2011-08-20T12:04:30Z</time>
      </trkpt>
      <trkpt lat="42.70667" lon="1.41426">
        <ele>1395.0102539062</ele>
        <time>2011-08-20T12:04:32Z</time>
      </trkpt>
      <trkpt lat="42.70666" lon="1.4144">
        <ele>1397.4135742188</ele>
        <time>2011-08-20T12:04:39Z</time>
      </trkpt>
      <trkpt lat="42.70662" lon="1.41455">
        <ele>1394.0490722656</ele>
        <time>2011-08-20T12:04:44Z</time>
      </trkpt>
      <trkpt lat="42.70662" lon="1.4146">
        <ele>1393.568359375</ele>
        <time>2011-08-20T12:04:47Z</time>
      </trkpt>
      <trkpt lat="42.70667" lon="1.41471">
        <ele>1394.0490722656</ele>
        <time>2011-08-20T12:04:52Z</time>
      </trkpt>
      <trkpt lat="42.70671" lon="1.41478">
        <ele>1394.5295410156</ele>
        <time>2011-08-20T12:04:55Z</time>
      </trkpt>
      <trkpt lat="42.70674" lon="1.41486">
        <ele>1393.0876464844</ele>
        <time>2011-08-20T12:04:59Z</time>
      </trkpt>
      <trkpt lat="42.70675" lon="1.41496">
        <ele>1392.6071777344</ele>
        <time>2011-08-20T12:05:03Z</time>
      </trkpt>
      <trkpt lat="42.70672" lon="1.41505">
        <ele>1392.1264648438</ele>
        <time>2011-08-20T12:05:08Z</time>
      </trkpt>
      <trkpt lat="42.70671" lon="1.41514">
        <ele>1392.1264648438</ele>
        <time>2011-08-20T12:05:12Z</time>
      </trkpt>
      <trkpt lat="42.70667" lon="1.41517">
        <ele>1392.6071777344</ele>
        <time>2011-08-20T12:05:16Z</time>
      </trkpt>
      <trkpt lat="42.70661" lon="1.41518">
        <ele>1392.1264648438</ele>
        <time>2011-08-20T12:05:21Z</time>
      </trkpt>
      <trkpt lat="42.7066" lon="1.41519">
        <ele>1391.1650390625</ele>
        <time>2011-08-20T12:05:22Z</time>
      </trkpt>
      <trkpt lat="42.70659" lon="1.41522">
        <ele>1390.2038574219</ele>
        <time>2011-08-20T12:05:25Z</time>
      </trkpt>
      <trkpt lat="42.7066" lon="1.41533">
        <ele>1385.8776855469</ele>
        <time>2011-08-20T12:05:32Z</time>
      </trkpt>
      <trkpt lat="42.70657" lon="1.41535">
        <ele>1384.9165039062</ele>
        <time>2011-08-20T12:05:34Z</time>
      </trkpt>
      <trkpt lat="42.70657" lon="1.41541">
        <ele>1382.0324707031</ele>
        <time>2011-08-20T12:05:39Z</time>
      </trkpt>
      <trkpt lat="42.70658" lon="1.41547">
        <ele>1379.6291503906</ele>
        <time>2011-08-20T12:05:44Z</time>
      </trkpt>
      <trkpt lat="42.70658" lon="1.41559">
        <ele>1377.2260742188</ele>
        <time>2011-08-20T12:05:51Z</time>
      </trkpt>
      <trkpt lat="42.70658" lon="1.41562">
        <ele>1376.2646484375</ele>
        <time>2011-08-20T12:05:53Z</time>
      </trkpt>
      <trkpt lat="42.70661" lon="1.41569">
        <ele>1374.3420410156</ele>
        <time>2011-08-20T12:05:58Z</time>
      </trkpt>
      <trkpt lat="42.70666" lon="1.41579">
        <ele>1371.4577636719</ele>
        <time>2011-08-20T12:06:05Z</time>
      </trkpt>
      <trkpt lat="42.7067" lon="1.41585">
        <ele>1369.5354003906</ele>
        <time>2011-08-20T12:06:11Z</time>
      </trkpt>
      <trkpt lat="42.70674" lon="1.4159">
        <ele>1369.0546875</ele>
        <time>2011-08-20T12:06:16Z</time>
      </trkpt>
      <trkpt lat="42.70675" lon="1.41592">
        <ele>1368.5739746094</ele>
        <time>2011-08-20T12:06:18Z</time>
      </trkpt>
      <trkpt lat="42.70678" lon="1.416">
        <ele>1366.6513671875</ele>
        <time>2011-08-20T12:06:22Z</time>
      </trkpt>
      <trkpt lat="42.70681" lon="1.41606">
        <ele>1365.6901855469</ele>
        <time>2011-08-20T12:06:24Z</time>
      </trkpt>
      <trkpt lat="42.70686" lon="1.41619">
        <ele>1362.8061523438</ele>
        <time>2011-08-20T12:06:31Z</time>
      </trkpt>
      <trkpt lat="42.70686" lon="1.41626">
        <ele>1361.3642578125</ele>
        <time>2011-08-20T12:06:34Z</time>
      </trkpt>
      <trkpt lat="42.70685" lon="1.41639">
        <ele>1361.8449707031</ele>
        <time>2011-08-20T12:06:39Z</time>
      </trkpt>
      <trkpt lat="42.70686" lon="1.41646">
        <ele>1361.3642578125</ele>
        <time>2011-08-20T12:06:42Z</time>
      </trkpt>
      <trkpt lat="42.70688" lon="1.41655">
        <ele>1360.4028320312</ele>
        <time>2011-08-20T12:06:47Z</time>
      </trkpt>
      <trkpt lat="42.70693" lon="1.41662">
        <ele>1358.9609375</ele>
        <time>2011-08-20T12:06:51Z</time>
      </trkpt>
      <trkpt lat="42.70693" lon="1.41664">
        <ele>1358.4802246094</ele>
        <time>2011-08-20T12:06:52Z</time>
      </trkpt>
      <trkpt lat="42.70698" lon="1.41673">
        <ele>1356.0769042969</ele>
        <time>2011-08-20T12:06:56Z</time>
      </trkpt>
      <trkpt lat="42.70702" lon="1.41683">
        <ele>1353.6735839844</ele>
        <time>2011-08-20T12:07:00Z</time>
      </trkpt>
      <trkpt lat="42.70702" lon="1.41697">
        <ele>1351.2702636719</ele>
        <time>2011-08-20T12:07:05Z</time>
      </trkpt>
      <trkpt lat="42.70702" lon="1.41698">
        <ele>1350.7895507812</ele>
        <time>2011-08-20T12:07:06Z</time>
      </trkpt>
      <trkpt lat="42.70702" lon="1.41709">
        <ele>1347.4250488281</ele>
        <time>2011-08-20T12:07:13Z</time>
      </trkpt>
      <trkpt lat="42.70704" lon="1.41711">
        <ele>1346.9443359375</ele>
        <time>2011-08-20T12:07:16Z</time>
      </trkpt>
      <trkpt lat="42.70709" lon="1.41705">
        <ele>1344.060546875</ele>
        <time>2011-08-20T12:07:21Z</time>
      </trkpt>
      <trkpt lat="42.70712" lon="1.41699">
        <ele>1341.6572265625</ele>
        <time>2011-08-20T12:07:25Z</time>
      </trkpt>
      <trkpt lat="42.70713" lon="1.41695">
        <ele>1339.2536621094</ele>
        <time>2011-08-20T12:07:29Z</time>
      </trkpt>
      <trkpt lat="42.70717" lon="1.41685">
        <ele>1334.9279785156</ele>
        <time>2011-08-20T12:07:36Z</time>
      </trkpt>
      <trkpt lat="42.70722" lon="1.41676">
        <ele>1329.1599121094</ele>
        <time>2011-08-20T12:07:42Z</time>
      </trkpt>
      <trkpt lat="42.70723" lon="1.41674">
        <ele>1328.1987304688</ele>
        <time>2011-08-20T12:07:43Z</time>
      </trkpt>
      <trkpt lat="42.70728" lon="1.41669">
        <ele>1324.353515625</ele>
        <time>2011-08-20T12:07:50Z</time>
      </trkpt>
      <trkpt lat="42.70731" lon="1.41667">
        <ele>1321.4692382812</ele>
        <time>2011-08-20T12:07:54Z</time>
      </trkpt>
      <trkpt lat="42.70736" lon="1.41659">
        <ele>1323.8725585938</ele>
        <time>2011-08-20T12:08:01Z</time>
      </trkpt>
      <trkpt lat="42.7074" lon="1.41657">
        <ele>1322.9113769531</ele>
        <time>2011-08-20T12:08:06Z</time>
      </trkpt>
      <trkpt lat="42.70744" lon="1.41648">
        <ele>1319.546875</ele>
        <time>2011-08-20T12:08:13Z</time>
      </trkpt>
      <trkpt lat="42.70745" lon="1.41646">
        <ele>1318.1047363281</ele>
        <time>2011-08-20T12:08:15Z</time>
      </trkpt>
      <trkpt lat="42.70747" lon="1.41643">
        <ele>1317.1435546875</ele>
        <time>2011-08-20T12:08:18Z</time>
      </trkpt>
      <trkpt lat="42.70751" lon="1.41638">
        <ele>1316.6628417969</ele>
        <time>2011-08-20T12:08:25Z</time>
      </trkpt>
      <trkpt lat="42.70753" lon="1.41638">
        <ele>1315.2209472656</ele>
        <time>2011-08-20T12:08:28Z</time>
      </trkpt>
      <trkpt lat="42.7076" lon="1.41632">
        <ele>1310.8950195312</ele>
        <time>2011-08-20T12:08:35Z</time>
      </trkpt>
      <trkpt lat="42.7076" lon="1.41632">
        <ele>1310.4143066406</ele>
        <time>2011-08-20T12:08:36Z</time>
      </trkpt>
      <trkpt lat="42.70765" lon="1.41626">
        <ele>1307.0495605469</ele>
        <time>2011-08-20T12:08:42Z</time>
      </trkpt>
      <trkpt lat="42.70769" lon="1.41622">
        <ele>1304.6462402344</ele>
        <time>2011-08-20T12:08:48Z</time>
      </trkpt>
      <trkpt lat="42.70772" lon="1.41618">
        <ele>1303.2043457031</ele>
        <time>2011-08-20T12:08:52Z</time>
      </trkpt>
      <trkpt lat="42.70774" lon="1.41613">
        <ele>1301.2817382812</ele>
        <time>2011-08-20T12:08:56Z</time>
      </trkpt>
      <trkpt lat="42.70781" lon="1.41609">
        <ele>1296.4753417969</ele>
        <time>2011-08-20T12:09:02Z</time>
      </trkpt>
      <trkpt lat="42.70786" lon="1.41607">
        <ele>1293.1105957031</ele>
        <time>2011-08-20T12:09:07Z</time>
      </trkpt>
      <trkpt lat="42.70788" lon="1.4161">
        <ele>1291.6684570312</ele>
        <time>2011-08-20T12:09:10Z</time>
      </trkpt>
      <trkpt lat="42.70791" lon="1.41604">
        <ele>1288.7846679688</ele>
        <time>2011-08-20T12:09:14Z</time>
      </trkpt>
      <trkpt lat="42.70794" lon="1.41604">
        <ele>1286.8618164062</ele>
        <time>2011-08-20T12:09:17Z</time>
      </trkpt>
      <trkpt lat="42.70797" lon="1.41605">
        <ele>1284.939453125</ele>
        <time>2011-08-20T12:09:21Z</time>
      </trkpt>
      <trkpt lat="42.708" lon="1.41601">
        <ele>1283.0166015625</ele>
        <time>2011-08-20T12:09:25Z</time>
      </trkpt>
      <trkpt lat="42.70803" lon="1.41596">
        <ele>1279.6520996094</ele>
        <time>2011-08-20T12:09:30Z</time>
      </trkpt>
      <trkpt lat="42.70808" lon="1.41588">
        <ele>1276.7683105469</ele>
        <time>2011-08-20T12:09:35Z</time>
      </trkpt>
      <trkpt lat="42.70808" lon="1.41586">
        <ele>1276.2875976562</ele>
        <time>2011-08-20T12:09:36Z</time>
      </trkpt>
      <trkpt lat="42.70812" lon="1.41582">
        <ele>1273.8840332031</ele>
        <time>2011-08-20T12:09:41Z</time>
      </trkpt>
      <trkpt lat="42.70815" lon="1.41581">
        <ele>1271.9614257812</ele>
        <time>2011-08-20T12:09:45Z</time>
      </trkpt>
      <trkpt lat="42.70818" lon="1.41578">
        <ele>1270.51953125</ele>
        <time>2011-08-20T12:09:49Z</time>
      </trkpt>
      <trkpt lat="42.7082" lon="1.41571">
        <ele>1268.1162109375</ele>
        <time>2011-08-20T12:09:55Z</time>
      </trkpt>
      <trkpt lat="42.70825" lon="1.41568">
        <ele>1266.1936035156</ele>
        <time>2011-08-20T12:10:01Z</time>
      </trkpt>
      <trkpt lat="42.70826" lon="1.41566">
        <ele>1265.7131347656</ele>
        <time>2011-08-20T12:10:03Z</time>
      </trkpt>
      <trkpt lat="42.7083" lon="1.41558">
        <ele>1263.3098144531</ele>
        <time>2011-08-20T12:10:09Z</time>
      </trkpt>
      <trkpt lat="42.70831" lon="1.41545">
        <ele>1260.42578125</ele>
        <time>2011-08-20T12:10:15Z</time>
      </trkpt>
      <trkpt lat="42.70832" lon="1.41538">
        <ele>1258.9836425781</ele>
        <time>2011-08-20T12:10:18Z</time>
      </trkpt>
      <trkpt lat="42.70835" lon="1.41534">
        <ele>1258.0224609375</ele>
        <time>2011-08-20T12:10:21Z</time>
      </trkpt>
      <trkpt lat="42.70843" lon="1.41534">
        <ele>1256.5803222656</ele>
        <time>2011-08-20T12:10:26Z</time>
      </trkpt>
      <trkpt lat="42.70851" lon="1.41534">
        <ele>1254.6577148438</ele>
        <time>2011-08-20T12:10:31Z</time>
      </trkpt>
      <trkpt lat="42.70852" lon="1.41535">
        <ele>1254.1772460938</ele>
        <time>2011-08-20T12:10:32Z</time>
      </trkpt>
      <trkpt lat="42.70858" lon="1.41532">
        <ele>1253.2158203125</ele>
        <time>2011-08-20T12:10:38Z</time>
      </trkpt>
      <trkpt lat="42.70861" lon="1.4153">
        <ele>1252.7351074219</ele>
        <time>2011-08-20T12:10:40Z</time>
      </trkpt>
      <trkpt lat="42.70868" lon="1.41526">
        <ele>1249.8513183594</ele>
        <time>2011-08-20T12:10:45Z</time>
      </trkpt>
      <trkpt lat="42.70871" lon="1.41526">
        <ele>1248.4091796875</ele>
        <time>2011-08-20T12:10:47Z</time>
      </trkpt>
      <trkpt lat="42.70877" lon="1.41528">
        <ele>1245.0446777344</ele>
        <time>2011-08-20T12:10:52Z</time>
      </trkpt>
      <trkpt lat="42.70882" lon="1.41528">
        <ele>1244.0834960938</ele>
        <time>2011-08-20T12:10:56Z</time>
      </trkpt>
      <trkpt lat="42.70887" lon="1.41528">
        <ele>1243.1218261719</ele>
        <time>2011-08-20T12:10:59Z</time>
      </trkpt>
      <trkpt lat="42.70892" lon="1.41537">
        <ele>1239.2766113281</ele>
        <time>2011-08-20T12:11:05Z</time>
      </trkpt>
      <trkpt lat="42.70893" lon="1.41543">
        <ele>1236.8732910156</ele>
        <time>2011-08-20T12:11:09Z</time>
      </trkpt>
      <trkpt lat="42.7089" lon="1.41556">
        <ele>1233.0280761719</ele>
        <time>2011-08-20T12:11:15Z</time>
      </trkpt>
      <trkpt lat="42.70885" lon="1.41568">
        <ele>1229.6635742188</ele>
        <time>2011-08-20T12:11:20Z</time>
      </trkpt>
      <trkpt lat="42.70884" lon="1.4158">
        <ele>1227.7407226562</ele>
        <time>2011-08-20T12:11:24Z</time>
      </trkpt>
      <trkpt lat="42.70884" lon="1.41586">
        <ele>1226.7795410156</ele>
        <time>2011-08-20T12:11:26Z</time>
      </trkpt>
      <trkpt lat="42.70887" lon="1.41599">
        <ele>1225.3374023438</ele>
        <time>2011-08-20T12:11:31Z</time>
      </trkpt>
      <trkpt lat="42.70889" lon="1.41607">
        <ele>1224.3762207031</ele>
        <time>2011-08-20T12:11:35Z</time>
      </trkpt>
      <trkpt lat="42.7089" lon="1.41616">
        <ele>1224.3762207031</ele>
        <time>2011-08-20T12:11:39Z</time>
      </trkpt>
      <trkpt lat="42.70892" lon="1.41628">
        <ele>1222.9343261719</ele>
        <time>2011-08-20T12:11:44Z</time>
      </trkpt>
      <trkpt lat="42.70891" lon="1.41631">
        <ele>1222.9343261719</ele>
        <time>2011-08-20T12:11:45Z</time>
      </trkpt>
      <trkpt lat="42.70892" lon="1.41648">
        <ele>1221.4921875</ele>
        <time>2011-08-20T12:11:50Z</time>
      </trkpt>
      <trkpt lat="42.70893" lon="1.41659">
        <ele>1220.0502929688</ele>
        <time>2011-08-20T12:11:54Z</time>
      </trkpt>
      <trkpt lat="42.70897" lon="1.41673">
        <ele>1219.5698242188</ele>
        <time>2011-08-20T12:11:59Z</time>
      </trkpt>
      <trkpt lat="42.70899" lon="1.41691">
        <ele>1217.6469726562</ele>
        <time>2011-08-20T12:12:05Z</time>
      </trkpt>
      <trkpt lat="42.70901" lon="1.41705">
        <ele>1216.205078125</ele>
        <time>2011-08-20T12:12:10Z</time>
      </trkpt>
      <trkpt lat="42.70901" lon="1.41715">
        <ele>1212.8405761719</ele>
        <time>2011-08-20T12:12:15Z</time>
      </trkpt>
      <trkpt lat="42.70906" lon="1.41723">
        <ele>1212.8405761719</ele>
        <time>2011-08-20T12:12:18Z</time>
      </trkpt>
      <trkpt lat="42.70913" lon="1.41734">
        <ele>1213.8017578125</ele>
        <time>2011-08-20T12:12:22Z</time>
      </trkpt>
      <trkpt lat="42.70917" lon="1.41744">
        <ele>1214.2824707031</ele>
        <time>2011-08-20T12:12:25Z</time>
      </trkpt>
      <trkpt lat="42.70918" lon="1.41757">
        <ele>1214.2824707031</ele>
        <time>2011-08-20T12:12:30Z</time>
      </trkpt>
      <trkpt lat="42.7092" lon="1.41765">
        <ele>1213.3212890625</ele>
        <time>2011-08-20T12:12:34Z</time>
      </trkpt>
      <trkpt lat="42.70922" lon="1.41774">
        <ele>1212.8405761719</ele>
        <time>2011-08-20T12:12:37Z</time>
      </trkpt>
      <trkpt lat="42.70934" lon="1.4179">
        <ele>1210.9177246094</ele>
        <time>2011-08-20T12:12:43Z</time>
      </trkpt>
      <trkpt lat="42.70938" lon="1.41797">
        <ele>1211.3984375</ele>
        <time>2011-08-20T12:12:45Z</time>
      </trkpt>
      <trkpt lat="42.70936" lon="1.41811">
        <ele>1207.5532226562</ele>
        <time>2011-08-20T12:12:50Z</time>
      </trkpt>
      <trkpt lat="42.70934" lon="1.41819">
        <ele>1208.0339355469</ele>
        <time>2011-08-20T12:12:52Z</time>
      </trkpt>
      <trkpt lat="42.70935" lon="1.41831">
        <ele>1207.5532226562</ele>
        <time>2011-08-20T12:12:56Z</time>
      </trkpt>
      <trkpt lat="42.70936" lon="1.41842">
        <ele>1207.5532226562</ele>
        <time>2011-08-20T12:13:00Z</time>
      </trkpt>
      <trkpt lat="42.70932" lon="1.41862">
        <ele>1206.591796875</ele>
        <time>2011-08-20T12:13:06Z</time>
      </trkpt>
      <trkpt lat="42.70933" lon="1.41871">
        <ele>1206.591796875</ele>
        <time>2011-08-20T12:13:10Z</time>
      </trkpt>
      <trkpt lat="42.70933" lon="1.41873">
        <ele>1206.591796875</ele>
        <time>2011-08-20T12:13:11Z</time>
      </trkpt>
      <trkpt lat="42.70937" lon="1.41878">
        <ele>1206.591796875</ele>
        <time>2011-08-20T12:13:15Z</time>
      </trkpt>
      <trkpt lat="42.70939" lon="1.41886">
        <ele>1208.0339355469</ele>
        <time>2011-08-20T12:13:20Z</time>
      </trkpt>
      <trkpt lat="42.70939" lon="1.41893">
        <ele>1209.9562988281</ele>
        <time>2011-08-20T12:13:25Z</time>
      </trkpt>
      <trkpt lat="42.70939" lon="1.41896">
        <ele>1210.4370117188</ele>
        <time>2011-08-20T12:13:27Z</time>
      </trkpt>
      <trkpt lat="42.70943" lon="1.41901">
        <ele>1209.4758300781</ele>
        <time>2011-08-20T12:13:32Z</time>
      </trkpt>
      <trkpt lat="42.70943" lon="1.41906">
        <ele>1210.9177246094</ele>
        <time>2011-08-20T12:13:35Z</time>
      </trkpt>
      <trkpt lat="42.7094" lon="1.41916">
        <ele>1212.8405761719</ele>
        <time>2011-08-20T12:13:40Z</time>
      </trkpt>
      <trkpt lat="42.70937" lon="1.41926">
        <ele>1218.6083984375</ele>
        <time>2011-08-20T12:13:45Z</time>
      </trkpt>
      <trkpt lat="42.70933" lon="1.41942">
        <ele>1227.7407226562</ele>
        <time>2011-08-20T12:13:51Z</time>
      </trkpt>
      <trkpt lat="42.70929" lon="1.41955">
        <ele>1229.6635742188</ele>
        <time>2011-08-20T12:13:55Z</time>
      </trkpt>
      <trkpt lat="42.70924" lon="1.4197">
        <ele>1229.6635742188</ele>
        <time>2011-08-20T12:14:00Z</time>
      </trkpt>
      <trkpt lat="42.70924" lon="1.41984">
        <ele>1226.7795410156</ele>
        <time>2011-08-20T12:14:05Z</time>
      </trkpt>
      <trkpt lat="42.70922" lon="1.42006">
        <ele>1220.0502929688</ele>
        <time>2011-08-20T12:14:10Z</time>
      </trkpt>
      <trkpt lat="42.70921" lon="1.4201">
        <ele>1217.6469726562</ele>
        <time>2011-08-20T12:14:11Z</time>
      </trkpt>
      <trkpt lat="42.70919" lon="1.42026">
        <ele>1214.7631835938</ele>
        <time>2011-08-20T12:14:15Z</time>
      </trkpt>
      <trkpt lat="42.70919" lon="1.42034">
        <ele>1209.9562988281</ele>
        <time>2011-08-20T12:14:18Z</time>
      </trkpt>
      <trkpt lat="42.70919" lon="1.42045">
        <ele>1205.6306152344</ele>
        <time>2011-08-20T12:14:22Z</time>
      </trkpt>
      <trkpt lat="42.70921" lon="1.42061">
        <ele>1203.7080078125</ele>
        <time>2011-08-20T12:14:27Z</time>
      </trkpt>
      <trkpt lat="42.70926" lon="1.42077">
        <ele>1199.8627929688</ele>
        <time>2011-08-20T12:14:32Z</time>
      </trkpt>
      <trkpt lat="42.70927" lon="1.4209">
        <ele>1199.3820800781</ele>
        <time>2011-08-20T12:14:39Z</time>
      </trkpt>
      <trkpt lat="42.70927" lon="1.42103">
        <ele>1197.4594726562</ele>
        <time>2011-08-20T12:14:45Z</time>
      </trkpt>
      <trkpt lat="42.70928" lon="1.42104">
        <ele>1196.9787597656</ele>
        <time>2011-08-20T12:14:46Z</time>
      </trkpt>
      <trkpt lat="42.70933" lon="1.42112">
        <ele>1193.1333007812</ele>
        <time>2011-08-20T12:14:51Z</time>
      </trkpt>
      <trkpt lat="42.70938" lon="1.42123">
        <ele>1187.3654785156</ele>
        <time>2011-08-20T12:14:56Z</time>
      </trkpt>
      <trkpt lat="42.70942" lon="1.42141">
        <ele>1187.8461914062</ele>
        <time>2011-08-20T12:15:02Z</time>
      </trkpt>
      <trkpt lat="42.70945" lon="1.42157">
        <ele>1187.8461914062</ele>
        <time>2011-08-20T12:15:07Z</time>
      </trkpt>
      <trkpt lat="42.7095" lon="1.42175">
        <ele>1187.8461914062</ele>
        <time>2011-08-20T12:15:12Z</time>
      </trkpt>
      <trkpt lat="42.70954" lon="1.4219">
        <ele>1184.4816894531</ele>
        <time>2011-08-20T12:15:17Z</time>
      </trkpt>
      <trkpt lat="42.70955" lon="1.42201">
        <ele>1184.4816894531</ele>
        <time>2011-08-20T12:15:20Z</time>
      </trkpt>
      <trkpt lat="42.70955" lon="1.42226">
        <ele>1184.4816894531</ele>
        <time>2011-08-20T12:15:27Z</time>
      </trkpt>
      <trkpt lat="42.70956" lon="1.42235">
        <ele>1183.5202636719</ele>
        <time>2011-08-20T12:15:30Z</time>
      </trkpt>
      <trkpt lat="42.7096" lon="1.42247">
        <ele>1182.0783691406</ele>
        <time>2011-08-20T12:15:34Z</time>
      </trkpt>
      <trkpt lat="42.70962" lon="1.42257">
        <ele>1181.59765625</ele>
        <time>2011-08-20T12:15:38Z</time>
      </trkpt>
      <trkpt lat="42.70963" lon="1.42276">
        <ele>1180.1557617188</ele>
        <time>2011-08-20T12:15:44Z</time>
      </trkpt>
      <trkpt lat="42.70963" lon="1.42296">
        <ele>1179.6748046875</ele>
        <time>2011-08-20T12:15:50Z</time>
      </trkpt>
      <trkpt lat="42.70964" lon="1.42308">
        <ele>1178.7136230469</ele>
        <time>2011-08-20T12:15:54Z</time>
      </trkpt>
      <trkpt lat="42.70969" lon="1.42327">
        <ele>1179.6748046875</ele>
        <time>2011-08-20T12:16:00Z</time>
      </trkpt>
      <trkpt lat="42.70972" lon="1.42333">
        <ele>1180.6364746094</ele>
        <time>2011-08-20T12:16:02Z</time>
      </trkpt>
      <trkpt lat="42.70979" lon="1.42349">
        <ele>1181.1171875</ele>
        <time>2011-08-20T12:16:08Z</time>
      </trkpt>
      <trkpt lat="42.7098" lon="1.42355">
        <ele>1178.2329101562</ele>
        <time>2011-08-20T12:16:11Z</time>
      </trkpt>
      <trkpt lat="42.70984" lon="1.42362">
        <ele>1178.2329101562</ele>
        <time>2011-08-20T12:16:16Z</time>
      </trkpt>
      <trkpt lat="42.70984" lon="1.42373">
        <ele>1180.6364746094</ele>
        <time>2011-08-20T12:16:21Z</time>
      </trkpt>
      <trkpt lat="42.70989" lon="1.42387">
        <ele>1179.6748046875</ele>
        <time>2011-08-20T12:16:29Z</time>
      </trkpt>
      <trkpt lat="42.70992" lon="1.42398">
        <ele>1181.1171875</ele>
        <time>2011-08-20T12:16:35Z</time>
      </trkpt>
      <trkpt lat="42.70995" lon="1.42413">
        <ele>1180.6364746094</ele>
        <time>2011-08-20T12:16:43Z</time>
      </trkpt>
      <trkpt lat="42.70996" lon="1.42422">
        <ele>1182.5590820312</ele>
        <time>2011-08-20T12:16:48Z</time>
      </trkpt>
      <trkpt lat="42.70998" lon="1.42427">
        <ele>1180.1557617188</ele>
        <time>2011-08-20T12:16:51Z</time>
      </trkpt>
      <trkpt lat="42.71006" lon="1.42431">
        <ele>1177.2717285156</ele>
        <time>2011-08-20T12:16:56Z</time>
      </trkpt>
      <trkpt lat="42.71011" lon="1.42437">
        <ele>1175.3488769531</ele>
        <time>2011-08-20T12:17:00Z</time>
      </trkpt>
      <trkpt lat="42.71013" lon="1.42442">
        <ele>1174.3876953125</ele>
        <time>2011-08-20T12:17:03Z</time>
      </trkpt>
      <trkpt lat="42.71012" lon="1.42448">
        <ele>1174.8684082031</ele>
        <time>2011-08-20T12:17:06Z</time>
      </trkpt>
      <trkpt lat="42.71014" lon="1.42456">
        <ele>1175.8295898438</ele>
        <time>2011-08-20T12:17:11Z</time>
      </trkpt>
      <trkpt lat="42.71015" lon="1.42459">
        <ele>1176.3103027344</ele>
        <time>2011-08-20T12:17:14Z</time>
      </trkpt>
      <trkpt lat="42.71012" lon="1.42465">
        <ele>1183.0395507812</ele>
        <time>2011-08-20T12:17:19Z</time>
      </trkpt>
      <trkpt lat="42.71014" lon="1.42468">
        <ele>1185.9235839844</ele>
        <time>2011-08-20T12:17:23Z</time>
      </trkpt>
      <trkpt lat="42.71016" lon="1.42478">
        <ele>1185.9235839844</ele>
        <time>2011-08-20T12:17:31Z</time>
      </trkpt>
      <trkpt lat="42.71017" lon="1.42482">
        <ele>1187.8461914062</ele>
        <time>2011-08-20T12:17:37Z</time>
      </trkpt>
      <trkpt lat="42.71021" lon="1.42481">
        <ele>1184.9624023438</ele>
        <time>2011-08-20T12:17:49Z</time>
      </trkpt>
      <trkpt lat="42.71014" lon="1.42487">
        <ele>1193.6140136719</ele>
        <time>2011-08-20T12:18:09Z</time>
      </trkpt>
      <trkpt lat="42.71017" lon="1.42486">
        <ele>1191.69140625</ele>
        <time>2011-08-20T12:18:34Z</time>
      </trkpt>
      <trkpt lat="42.71017" lon="1.42485">
        <ele>1189.7687988281</ele>
        <time>2011-08-20T12:18:40Z</time>
      </trkpt>
      <trkpt lat="42.71015" lon="1.42487">
        <ele>1192.6528320312</ele>
        <time>2011-08-20T12:18:48Z</time>
      </trkpt>
      <trkpt lat="42.71014" lon="1.42488">
        <ele>1197.9401855469</ele>
        <time>2011-08-20T12:18:54Z</time>
      </trkpt>
      <trkpt lat="42.71014" lon="1.42481">
        <ele>1193.6140136719</ele>
        <time>2011-08-20T12:18:59Z</time>
      </trkpt>
      <trkpt lat="42.71009" lon="1.42486">
        <ele>1190.2495117188</ele>
        <time>2011-08-20T12:19:18Z</time>
      </trkpt>
      <trkpt lat="42.71011" lon="1.4249">
        <ele>1190.2495117188</ele>
        <time>2011-08-20T12:19:20Z</time>
      </trkpt>
      <trkpt lat="42.7102" lon="1.42499">
        <ele>1183.0395507812</ele>
        <time>2011-08-20T12:19:28Z</time>
      </trkpt>
      <trkpt lat="42.71027" lon="1.42511">
        <ele>1179.6748046875</ele>
        <time>2011-08-20T12:19:37Z</time>
      </trkpt>
      <trkpt lat="42.71032" lon="1.42517">
        <ele>1178.2329101562</ele>
        <time>2011-08-20T12:19:42Z</time>
      </trkpt>
      <trkpt lat="42.71039" lon="1.42527">
        <ele>1177.2717285156</ele>
        <time>2011-08-20T12:19:50Z</time>
      </trkpt>
      <trkpt lat="42.71042" lon="1.42536">
        <ele>1179.1940917969</ele>
        <time>2011-08-20T12:19:55Z</time>
      </trkpt>
      <trkpt lat="42.71045" lon="1.42545">
        <ele>1180.6364746094</ele>
        <time>2011-08-20T12:20:01Z</time>
      </trkpt>
      <trkpt lat="42.71049" lon="1.42551">
        <ele>1184.0009765625</ele>
        <time>2011-08-20T12:20:07Z</time>
      </trkpt>
      <trkpt lat="42.71053" lon="1.4256">
        <ele>1182.5590820312</ele>
        <time>2011-08-20T12:20:13Z</time>
      </trkpt>
      <trkpt lat="42.71054" lon="1.42574">
        <ele>1183.5202636719</ele>
        <time>2011-08-20T12:20:18Z</time>
      </trkpt>
      <trkpt lat="42.71056" lon="1.42587">
        <ele>1183.5202636719</ele>
        <time>2011-08-20T12:20:21Z</time>
      </trkpt>
      <trkpt lat="42.7106" lon="1.42606">
        <ele>1180.6364746094</ele>
        <time>2011-08-20T12:20:26Z</time>
      </trkpt>
      <trkpt lat="42.71068" lon="1.42627">
        <ele>1173.9069824219</ele>
        <time>2011-08-20T12:20:32Z</time>
      </trkpt>
      <trkpt lat="42.71068" lon="1.42644">
        <ele>1175.8295898438</ele>
        <time>2011-08-20T12:20:36Z</time>
      </trkpt>
      <trkpt lat="42.7107" lon="1.42666">
        <ele>1177.2717285156</ele>
        <time>2011-08-20T12:20:41Z</time>
      </trkpt>
      <trkpt lat="42.71072" lon="1.42687">
        <ele>1177.2717285156</ele>
        <time>2011-08-20T12:20:46Z</time>
      </trkpt>
      <trkpt lat="42.71074" lon="1.42705">
        <ele>1173.4265136719</ele>
        <time>2011-08-20T12:20:51Z</time>
      </trkpt>
      <trkpt lat="42.71076" lon="1.4272">
        <ele>1172.4650878906</ele>
        <time>2011-08-20T12:20:55Z</time>
      </trkpt>
      <trkpt lat="42.71077" lon="1.42736">
        <ele>1171.984375</ele>
        <time>2011-08-20T12:20:59Z</time>
      </trkpt>
      <trkpt lat="42.7108" lon="1.42755">
        <ele>1169.5812988281</ele>
        <time>2011-08-20T12:21:04Z</time>
      </trkpt>
      <trkpt lat="42.71084" lon="1.4277">
        <ele>1169.1005859375</ele>
        <time>2011-08-20T12:21:08Z</time>
      </trkpt>
      <trkpt lat="42.71085" lon="1.42777">
        <ele>1169.1005859375</ele>
        <time>2011-08-20T12:21:10Z</time>
      </trkpt>
      <trkpt lat="42.71089" lon="1.42792">
        <ele>1167.1779785156</ele>
        <time>2011-08-20T12:21:14Z</time>
      </trkpt>
      <trkpt lat="42.71093" lon="1.42816">
        <ele>1167.6584472656</ele>
        <time>2011-08-20T12:21:20Z</time>
      </trkpt>
      <trkpt lat="42.71098" lon="1.42838">
        <ele>1166.2165527344</ele>
        <time>2011-08-20T12:21:26Z</time>
      </trkpt>
      <trkpt lat="42.71104" lon="1.42857">
        <ele>1166.2165527344</ele>
        <time>2011-08-20T12:21:31Z</time>
      </trkpt>
      <trkpt lat="42.71111" lon="1.42869">
        <ele>1165.2553710938</ele>
        <time>2011-08-20T12:21:35Z</time>
      </trkpt>
      <trkpt lat="42.7112" lon="1.42888">
        <ele>1162.8518066406</ele>
        <time>2011-08-20T12:21:41Z</time>
      </trkpt>
      <trkpt lat="42.71124" lon="1.42903">
        <ele>1163.3325195312</ele>
        <time>2011-08-20T12:21:45Z</time>
      </trkpt>
      <trkpt lat="42.7113" lon="1.42919">
        <ele>1160.4484863281</ele>
        <time>2011-08-20T12:21:50Z</time>
      </trkpt>
      <trkpt lat="42.71131" lon="1.42922">
        <ele>1159.9677734375</ele>
        <time>2011-08-20T12:21:51Z</time>
      </trkpt>
      <trkpt lat="42.71137" lon="1.42947">
        <ele>1157.083984375</ele>
        <time>2011-08-20T12:21:58Z</time>
      </trkpt>
      <trkpt lat="42.71141" lon="1.42967">
        <ele>1153.7194824219</ele>
        <time>2011-08-20T12:22:04Z</time>
      </trkpt>
      <trkpt lat="42.71149" lon="1.42992">
        <ele>1151.3161621094</ele>
        <time>2011-08-20T12:22:11Z</time>
      </trkpt>
      <trkpt lat="42.71154" lon="1.4301">
        <ele>1149.3935546875</ele>
        <time>2011-08-20T12:22:16Z</time>
      </trkpt>
      <trkpt lat="42.71164" lon="1.4302">
        <ele>1148.9128417969</ele>
        <time>2011-08-20T12:22:21Z</time>
      </trkpt>
      <trkpt lat="42.7117" lon="1.43028">
        <ele>1148.4321289062</ele>
        <time>2011-08-20T12:22:24Z</time>
      </trkpt>
      <trkpt lat="42.7118" lon="1.43044">
        <ele>1149.8742675781</ele>
        <time>2011-08-20T12:22:30Z</time>
      </trkpt>
      <trkpt lat="42.71188" lon="1.43058">
        <ele>1150.3549804688</ele>
        <time>2011-08-20T12:22:35Z</time>
      </trkpt>
      <trkpt lat="42.71197" lon="1.43068">
        <ele>1150.3549804688</ele>
        <time>2011-08-20T12:22:39Z</time>
      </trkpt>
      <trkpt lat="42.71206" lon="1.43081">
        <ele>1149.3935546875</ele>
        <time>2011-08-20T12:22:44Z</time>
      </trkpt>
      <trkpt lat="42.71216" lon="1.43092">
        <ele>1148.4321289062</ele>
        <time>2011-08-20T12:22:49Z</time>
      </trkpt>
      <trkpt lat="42.71231" lon="1.43099">
        <ele>1147.9514160156</ele>
        <time>2011-08-20T12:22:55Z</time>
      </trkpt>
      <trkpt lat="42.71244" lon="1.43109">
        <ele>1146.0288085938</ele>
        <time>2011-08-20T12:23:00Z</time>
      </trkpt>
      <trkpt lat="42.71256" lon="1.43119">
        <ele>1144.1062011719</ele>
        <time>2011-08-20T12:23:05Z</time>
      </trkpt>
      <trkpt lat="42.71267" lon="1.4313">
        <ele>1143.1447753906</ele>
        <time>2011-08-20T12:23:10Z</time>
      </trkpt>
      <trkpt lat="42.71269" lon="1.43133">
        <ele>1142.18359375</ele>
        <time>2011-08-20T12:23:11Z</time>
      </trkpt>
      <trkpt lat="42.71278" lon="1.43147">
        <ele>1140.2609863281</ele>
        <time>2011-08-20T12:23:16Z</time>
      </trkpt>
      <trkpt lat="42.7129" lon="1.43158">
        <ele>1139.7802734375</ele>
        <time>2011-08-20T12:23:21Z</time>
      </trkpt>
      <trkpt lat="42.71298" lon="1.4317">
        <ele>1139.7802734375</ele>
        <time>2011-08-20T12:23:25Z</time>
      </trkpt>
      <trkpt lat="42.71309" lon="1.43189">
        <ele>1137.8576660156</ele>
        <time>2011-08-20T12:23:31Z</time>
      </trkpt>
      <trkpt lat="42.71313" lon="1.43204">
        <ele>1138.8190917969</ele>
        <time>2011-08-20T12:23:35Z</time>
      </trkpt>
      <trkpt lat="42.71318" lon="1.43219">
        <ele>1137.8576660156</ele>
        <time>2011-08-20T12:23:39Z</time>
      </trkpt>
      <trkpt lat="42.71322" lon="1.43235">
        <ele>1134.0124511719</ele>
        <time>2011-08-20T12:23:44Z</time>
      </trkpt>
      <trkpt lat="42.71323" lon="1.43254">
        <ele>1134.0124511719</ele>
        <time>2011-08-20T12:23:49Z</time>
      </trkpt>
      <trkpt lat="42.71323" lon="1.43262">
        <ele>1134.0124511719</ele>
        <time>2011-08-20T12:23:51Z</time>
      </trkpt>
      <trkpt lat="42.71323" lon="1.43277">
        <ele>1134.4931640625</ele>
        <time>2011-08-20T12:23:55Z</time>
      </trkpt>
      <trkpt lat="42.71323" lon="1.43303">
        <ele>1134.4931640625</ele>
        <time>2011-08-20T12:24:02Z</time>
      </trkpt>
      <trkpt lat="42.71325" lon="1.43321">
        <ele>1134.4931640625</ele>
        <time>2011-08-20T12:24:07Z</time>
      </trkpt>
      <trkpt lat="42.71327" lon="1.43335">
        <ele>1134.0124511719</ele>
        <time>2011-08-20T12:24:11Z</time>
      </trkpt>
      <trkpt lat="42.71333" lon="1.43357">
        <ele>1132.5705566406</ele>
        <time>2011-08-20T12:24:17Z</time>
      </trkpt>
      <trkpt lat="42.71334" lon="1.43363">
        <ele>1131.6088867188</ele>
        <time>2011-08-20T12:24:19Z</time>
      </trkpt>
      <trkpt lat="42.71343" lon="1.43386">
        <ele>1129.6862792969</ele>
        <time>2011-08-20T12:24:26Z</time>
      </trkpt>
      <trkpt lat="42.71352" lon="1.43397">
        <ele>1127.283203125</ele>
        <time>2011-08-20T12:24:30Z</time>
      </trkpt>
      <trkpt lat="42.7136" lon="1.43408">
        <ele>1125.8410644531</ele>
        <time>2011-08-20T12:24:34Z</time>
      </trkpt>
      <trkpt lat="42.71368" lon="1.43432">
        <ele>1126.3217773438</ele>
        <time>2011-08-20T12:24:41Z</time>
      </trkpt>
      <trkpt lat="42.71369" lon="1.43455">
        <ele>1127.283203125</ele>
        <time>2011-08-20T12:24:47Z</time>
      </trkpt>
      <trkpt lat="42.71375" lon="1.43471">
        <ele>1127.283203125</ele>
        <time>2011-08-20T12:24:52Z</time>
      </trkpt>
      <trkpt lat="42.71385" lon="1.43483">
        <ele>1127.283203125</ele>
        <time>2011-08-20T12:24:57Z</time>
      </trkpt>
      <trkpt lat="42.71394" lon="1.43496">
        <ele>1125.8410644531</ele>
        <time>2011-08-20T12:25:02Z</time>
      </trkpt>
      <trkpt lat="42.71399" lon="1.43503">
        <ele>1126.3217773438</ele>
        <time>2011-08-20T12:25:05Z</time>
      </trkpt>
      <trkpt lat="42.71404" lon="1.43512">
        <ele>1127.763671875</ele>
        <time>2011-08-20T12:25:09Z</time>
      </trkpt>
      <trkpt lat="42.71413" lon="1.43523">
        <ele>1126.3217773438</ele>
        <time>2011-08-20T12:25:13Z</time>
      </trkpt>
      <trkpt lat="42.71424" lon="1.43539">
        <ele>1124.3991699219</ele>
        <time>2011-08-20T12:25:19Z</time>
      </trkpt>
      <trkpt lat="42.71434" lon="1.43552">
        <ele>1122.4765625</ele>
        <time>2011-08-20T12:25:24Z</time>
      </trkpt>
      <trkpt lat="42.71442" lon="1.43565">
        <ele>1120.0732421875</ele>
        <time>2011-08-20T12:25:29Z</time>
      </trkpt>
      <trkpt lat="42.71449" lon="1.43574">
        <ele>1119.1120605469</ele>
        <time>2011-08-20T12:25:33Z</time>
      </trkpt>
      <trkpt lat="42.7145" lon="1.43577">
        <ele>1119.1120605469</ele>
        <time>2011-08-20T12:25:34Z</time>
      </trkpt>
      <trkpt lat="42.71462" lon="1.43593">
        <ele>1118.6313476562</ele>
        <time>2011-08-20T12:25:40Z</time>
      </trkpt>
      <trkpt lat="42.7147" lon="1.43608">
        <ele>1118.6313476562</ele>
        <time>2011-08-20T12:25:45Z</time>
      </trkpt>
      <trkpt lat="42.71481" lon="1.43621">
        <ele>1118.1506347656</ele>
        <time>2011-08-20T12:25:50Z</time>
      </trkpt>
      <trkpt lat="42.7149" lon="1.43633">
        <ele>1118.6313476562</ele>
        <time>2011-08-20T12:25:55Z</time>
      </trkpt>
      <trkpt lat="42.71502" lon="1.43643">
        <ele>1118.6313476562</ele>
        <time>2011-08-20T12:26:00Z</time>
      </trkpt>
      <trkpt lat="42.71513" lon="1.43649">
        <ele>1118.1506347656</ele>
        <time>2011-08-20T12:26:05Z</time>
      </trkpt>
      <trkpt lat="42.71524" lon="1.43656">
        <ele>1118.1506347656</ele>
        <time>2011-08-20T12:26:10Z</time>
      </trkpt>
      <trkpt lat="42.71537" lon="1.43666">
        <ele>1117.669921875</ele>
        <time>2011-08-20T12:26:15Z</time>
      </trkpt>
      <trkpt lat="42.71541" lon="1.43671">
        <ele>1116.2280273438</ele>
        <time>2011-08-20T12:26:17Z</time>
      </trkpt>
      <trkpt lat="42.71554" lon="1.43682">
        <ele>1115.2666015625</ele>
        <time>2011-08-20T12:26:23Z</time>
      </trkpt>
      <trkpt lat="42.71563" lon="1.43691">
        <ele>1114.7858886719</ele>
        <time>2011-08-20T12:26:27Z</time>
      </trkpt>
      <trkpt lat="42.71572" lon="1.43704">
        <ele>1113.3439941406</ele>
        <time>2011-08-20T12:26:32Z</time>
      </trkpt>
      <trkpt lat="42.71583" lon="1.43719">
        <ele>1112.86328125</ele>
        <time>2011-08-20T12:26:37Z</time>
      </trkpt>
      <trkpt lat="42.71592" lon="1.43736">
        <ele>1110.9406738281</ele>
        <time>2011-08-20T12:26:42Z</time>
      </trkpt>
      <trkpt lat="42.71598" lon="1.43746">
        <ele>1109.9792480469</ele>
        <time>2011-08-20T12:26:45Z</time>
      </trkpt>
      <trkpt lat="42.71606" lon="1.43761">
        <ele>1108.5373535156</ele>
        <time>2011-08-20T12:26:50Z</time>
      </trkpt>
      <trkpt lat="42.71613" lon="1.43774">
        <ele>1107.0954589844</ele>
        <time>2011-08-20T12:26:54Z</time>
      </trkpt>
      <trkpt lat="42.71621" lon="1.43785">
        <ele>1106.1340332031</ele>
        <time>2011-08-20T12:26:58Z</time>
      </trkpt>
      <trkpt lat="42.71629" lon="1.43793">
        <ele>1104.6921386719</ele>
        <time>2011-08-20T12:27:01Z</time>
      </trkpt>
      <trkpt lat="42.71635" lon="1.43806">
        <ele>1103.2502441406</ele>
        <time>2011-08-20T12:27:06Z</time>
      </trkpt>
      <trkpt lat="42.71643" lon="1.43821">
        <ele>1104.2116699219</ele>
        <time>2011-08-20T12:27:11Z</time>
      </trkpt>
      <trkpt lat="42.71655" lon="1.43838">
        <ele>1106.6147460938</ele>
        <time>2011-08-20T12:27:18Z</time>
      </trkpt>
      <trkpt lat="42.71657" lon="1.4384">
        <ele>1106.6147460938</ele>
        <time>2011-08-20T12:27:19Z</time>
      </trkpt>
      <trkpt lat="42.71666" lon="1.4386">
        <ele>1107.0954589844</ele>
        <time>2011-08-20T12:27:25Z</time>
      </trkpt>
      <trkpt lat="42.71672" lon="1.43874">
        <ele>1105.1728515625</ele>
        <time>2011-08-20T12:27:29Z</time>
      </trkpt>
      <trkpt lat="42.71675" lon="1.4388">
        <ele>1104.2116699219</ele>
        <time>2011-08-20T12:27:31Z</time>
      </trkpt>
      <trkpt lat="42.71679" lon="1.43893">
        <ele>1103.7309570312</ele>
        <time>2011-08-20T12:27:35Z</time>
      </trkpt>
      <trkpt lat="42.71685" lon="1.43907">
        <ele>1101.8083496094</ele>
        <time>2011-08-20T12:27:39Z</time>
      </trkpt>
      <trkpt lat="42.71685" lon="1.43911">
        <ele>1101.8083496094</ele>
        <time>2011-08-20T12:27:40Z</time>
      </trkpt>
      <trkpt lat="42.71683" lon="1.4394">
        <ele>1099.4047851562</ele>
        <time>2011-08-20T12:27:48Z</time>
      </trkpt>
      <trkpt lat="42.71678" lon="1.43955">
        <ele>1096.5209960938</ele>
        <time>2011-08-20T12:27:53Z</time>
      </trkpt>
      <trkpt lat="42.71675" lon="1.43964">
        <ele>1097.0014648438</ele>
        <time>2011-08-20T12:27:58Z</time>
      </trkpt>
      <trkpt lat="42.71671" lon="1.43981">
        <ele>1097.962890625</ele>
        <time>2011-08-20T12:28:06Z</time>
      </trkpt>
      <trkpt lat="42.71671" lon="1.44">
        <ele>1097.962890625</ele>
        <time>2011-08-20T12:28:14Z</time>
      </trkpt>
      <trkpt lat="42.71674" lon="1.44016">
        <ele>1097.4821777344</ele>
        <time>2011-08-20T12:28:18Z</time>
      </trkpt>
      <trkpt lat="42.71676" lon="1.4404">
        <ele>1095.5595703125</ele>
        <time>2011-08-20T12:28:24Z</time>
      </trkpt>
      <trkpt lat="42.71676" lon="1.4405">
        <ele>1094.5981445312</ele>
        <time>2011-08-20T12:28:27Z</time>
      </trkpt>
      <trkpt lat="42.71678" lon="1.44069">
        <ele>1092.1950683594</ele>
        <time>2011-08-20T12:28:32Z</time>
      </trkpt>
      <trkpt lat="42.71684" lon="1.44091">
        <ele>1092.67578125</ele>
        <time>2011-08-20T12:28:38Z</time>
      </trkpt>
      <trkpt lat="42.71684" lon="1.44102">
        <ele>1091.7143554688</ele>
        <time>2011-08-20T12:28:41Z</time>
      </trkpt>
      <trkpt lat="42.71682" lon="1.44115">
        <ele>1090.2724609375</ele>
        <time>2011-08-20T12:28:45Z</time>
      </trkpt>
      <trkpt lat="42.71683" lon="1.44133">
        <ele>1089.7917480469</ele>
        <time>2011-08-20T12:28:50Z</time>
      </trkpt>
      <trkpt lat="42.71685" lon="1.44147">
        <ele>1089.3110351562</ele>
        <time>2011-08-20T12:28:54Z</time>
      </trkpt>
      <trkpt lat="42.71685" lon="1.4416">
        <ele>1088.3498535156</ele>
        <time>2011-08-20T12:28:58Z</time>
      </trkpt>
      <trkpt lat="42.71682" lon="1.44174">
        <ele>1086.4272460938</ele>
        <time>2011-08-20T12:29:03Z</time>
      </trkpt>
      <trkpt lat="42.7168" lon="1.44188">
        <ele>1085.9465332031</ele>
        <time>2011-08-20T12:29:07Z</time>
      </trkpt>
      <trkpt lat="42.71678" lon="1.44207">
        <ele>1087.869140625</ele>
        <time>2011-08-20T12:29:12Z</time>
      </trkpt>
      <trkpt lat="42.71674" lon="1.44225">
        <ele>1087.3884277344</ele>
        <time>2011-08-20T12:29:17Z</time>
      </trkpt>
      <trkpt lat="42.71674" lon="1.44236">
        <ele>1086.9077148438</ele>
        <time>2011-08-20T12:29:20Z</time>
      </trkpt>
      <trkpt lat="42.71669" lon="1.44254">
        <ele>1085.9465332031</ele>
        <time>2011-08-20T12:29:25Z</time>
      </trkpt>
      <trkpt lat="42.71666" lon="1.4426">
        <ele>1086.4272460938</ele>
        <time>2011-08-20T12:29:27Z</time>
      </trkpt>
      <trkpt lat="42.71659" lon="1.44277">
        <ele>1086.4272460938</ele>
        <time>2011-08-20T12:29:35Z</time>
      </trkpt>
      <trkpt lat="42.71658" lon="1.44288">
        <ele>1086.4272460938</ele>
        <time>2011-08-20T12:29:41Z</time>
      </trkpt>
      <trkpt lat="42.71658" lon="1.44291">
        <ele>1086.4272460938</ele>
        <time>2011-08-20T12:29:43Z</time>
      </trkpt>
      <trkpt lat="42.71656" lon="1.44299">
        <ele>1086.9077148438</ele>
        <time>2011-08-20T12:29:47Z</time>
      </trkpt>
      <trkpt lat="42.71655" lon="1.44308">
        <ele>1085.9465332031</ele>
        <time>2011-08-20T12:29:52Z</time>
      </trkpt>
      <trkpt lat="42.71653" lon="1.44319">
        <ele>1084.5046386719</ele>
        <time>2011-08-20T12:29:59Z</time>
      </trkpt>
      <trkpt lat="42.71653" lon="1.44321">
        <ele>1083.54296875</ele>
        <time>2011-08-20T12:30:00Z</time>
      </trkpt>
      <trkpt lat="42.7165" lon="1.44334">
        <ele>1084.0239257812</ele>
        <time>2011-08-20T12:30:06Z</time>
      </trkpt>
      <trkpt lat="42.71648" lon="1.44345">
        <ele>1084.0239257812</ele>
        <time>2011-08-20T12:30:10Z</time>
      </trkpt>
      <trkpt lat="42.7165" lon="1.44353">
        <ele>1084.0239257812</ele>
        <time>2011-08-20T12:30:12Z</time>
      </trkpt>
      <trkpt lat="42.7165" lon="1.44365">
        <ele>1084.9853515625</ele>
        <time>2011-08-20T12:30:15Z</time>
      </trkpt>
      <trkpt lat="42.71648" lon="1.44384">
        <ele>1085.4658203125</ele>
        <time>2011-08-20T12:30:20Z</time>
      </trkpt>
      <trkpt lat="42.71646" lon="1.44403">
        <ele>1083.54296875</ele>
        <time>2011-08-20T12:30:25Z</time>
      </trkpt>
      <trkpt lat="42.71645" lon="1.44418">
        <ele>1082.1010742188</ele>
        <time>2011-08-20T12:30:29Z</time>
      </trkpt>
      <trkpt lat="42.71646" lon="1.4443">
        <ele>1082.1010742188</ele>
        <time>2011-08-20T12:30:32Z</time>
      </trkpt>
      <trkpt lat="42.71647" lon="1.44454">
        <ele>1081.6203613281</ele>
        <time>2011-08-20T12:30:38Z</time>
      </trkpt>
      <trkpt lat="42.71643" lon="1.44468">
        <ele>1082.1010742188</ele>
        <time>2011-08-20T12:30:42Z</time>
      </trkpt>
      <trkpt lat="42.71639" lon="1.44489">
        <ele>1080.1784667969</ele>
        <time>2011-08-20T12:30:48Z</time>
      </trkpt>
      <trkpt lat="42.71635" lon="1.44512">
        <ele>1076.8139648438</ele>
        <time>2011-08-20T12:30:54Z</time>
      </trkpt>
      <trkpt lat="42.71627" lon="1.44531">
        <ele>1075.8525390625</ele>
        <time>2011-08-20T12:31:00Z</time>
      </trkpt>
      <trkpt lat="42.71624" lon="1.44536">
        <ele>1075.8525390625</ele>
        <time>2011-08-20T12:31:02Z</time>
      </trkpt>
      <trkpt lat="42.71624" lon="1.44543">
        <ele>1073.4494628906</ele>
        <time>2011-08-20T12:31:09Z</time>
      </trkpt>
      <trkpt lat="42.71625" lon="1.44552">
        <ele>1072.4880371094</ele>
        <time>2011-08-20T12:31:15Z</time>
      </trkpt>
      <trkpt lat="42.71628" lon="1.44565">
        <ele>1072.96875</ele>
        <time>2011-08-20T12:31:20Z</time>
      </trkpt>
      <trkpt lat="42.71629" lon="1.44571">
        <ele>1072.4880371094</ele>
        <time>2011-08-20T12:31:22Z</time>
      </trkpt>
      <trkpt lat="42.71629" lon="1.44586">
        <ele>1071.5266113281</ele>
        <time>2011-08-20T12:31:27Z</time>
      </trkpt>
      <trkpt lat="42.71633" lon="1.44602">
        <ele>1070.5654296875</ele>
        <time>2011-08-20T12:31:32Z</time>
      </trkpt>
      <trkpt lat="42.71634" lon="1.44616">
        <ele>1067.2006835938</ele>
        <time>2011-08-20T12:31:37Z</time>
      </trkpt>
      <trkpt lat="42.71635" lon="1.44633">
        <ele>1064.3166503906</ele>
        <time>2011-08-20T12:31:43Z</time>
      </trkpt>
      <trkpt lat="42.71634" lon="1.44645">
        <ele>1063.35546875</ele>
        <time>2011-08-20T12:31:47Z</time>
      </trkpt>
      <trkpt lat="42.71634" lon="1.44655">
        <ele>1061.4328613281</ele>
        <time>2011-08-20T12:31:50Z</time>
      </trkpt>
      <trkpt lat="42.71634" lon="1.4466">
        <ele>1060.9521484375</ele>
        <time>2011-08-20T12:31:52Z</time>
      </trkpt>
      <trkpt lat="42.71636" lon="1.44673">
        <ele>1058.548828125</ele>
        <time>2011-08-20T12:31:57Z</time>
      </trkpt>
      <trkpt lat="42.71632" lon="1.44685">
        <ele>1054.2231445312</ele>
        <time>2011-08-20T12:32:02Z</time>
      </trkpt>
      <trkpt lat="42.71632" lon="1.44694">
        <ele>1051.3388671875</ele>
        <time>2011-08-20T12:32:05Z</time>
      </trkpt>
      <trkpt lat="42.71631" lon="1.44714">
        <ele>1045.0903320312</ele>
        <time>2011-08-20T12:32:12Z</time>
      </trkpt>
      <trkpt lat="42.71636" lon="1.44724">
        <ele>1045.5710449219</ele>
        <time>2011-08-20T12:32:15Z</time>
      </trkpt>
      <trkpt lat="42.71636" lon="1.44729">
        <ele>1044.1291503906</ele>
        <time>2011-08-20T12:32:17Z</time>
      </trkpt>
      <trkpt lat="42.71639" lon="1.44738">
        <ele>1038.8420410156</ele>
        <time>2011-08-20T12:32:23Z</time>
      </trkpt>
      <trkpt lat="42.7164" lon="1.44742">
        <ele>1036.9191894531</ele>
        <time>2011-08-20T12:32:26Z</time>
      </trkpt>
      <trkpt lat="42.71643" lon="1.44751">
        <ele>1034.5158691406</ele>
        <time>2011-08-20T12:32:30Z</time>
      </trkpt>
      <trkpt lat="42.71644" lon="1.44766">
        <ele>1030.6706542969</ele>
        <time>2011-08-20T12:32:36Z</time>
      </trkpt>
      <trkpt lat="42.71645" lon="1.44768">
        <ele>1029.7092285156</ele>
        <time>2011-08-20T12:32:37Z</time>
      </trkpt>
      <trkpt lat="42.7165" lon="1.44783">
        <ele>1026.8254394531</ele>
        <time>2011-08-20T12:32:43Z</time>
      </trkpt>
      <trkpt lat="42.71658" lon="1.44794">
        <ele>1025.3833007812</ele>
        <time>2011-08-20T12:32:49Z</time>
      </trkpt>
      <trkpt lat="42.71659" lon="1.44808">
        <ele>1022.4995117188</ele>
        <time>2011-08-20T12:32:53Z</time>
      </trkpt>
      <trkpt lat="42.71656" lon="1.44819">
        <ele>1021.0576171875</ele>
        <time>2011-08-20T12:32:56Z</time>
      </trkpt>
      <trkpt lat="42.71648" lon="1.44838">
        <ele>1019.134765625</ele>
        <time>2011-08-20T12:33:02Z</time>
      </trkpt>
      <trkpt lat="42.71641" lon="1.44858">
        <ele>1017.2121582031</ele>
        <time>2011-08-20T12:33:08Z</time>
      </trkpt>
      <trkpt lat="42.71635" lon="1.4488">
        <ele>1014.328125</ele>
        <time>2011-08-20T12:33:14Z</time>
      </trkpt>
      <trkpt lat="42.71634" lon="1.44893">
        <ele>1012.8862304688</ele>
        <time>2011-08-20T12:33:19Z</time>
      </trkpt>
      <trkpt lat="42.71634" lon="1.44899">
        <ele>1012.4055175781</ele>
        <time>2011-08-20T12:33:25Z</time>
      </trkpt>
      <trkpt lat="42.71635" lon="1.44904">
        <ele>1017.6926269531</ele>
        <time>2011-08-20T12:33:37Z</time>
      </trkpt>
      <trkpt lat="42.71632" lon="1.44907">
        <ele>1022.4995117188</ele>
        <time>2011-08-20T12:33:43Z</time>
      </trkpt>
      <trkpt lat="42.71635" lon="1.44908">
        <ele>1024.4221191406</ele>
        <time>2011-08-20T12:33:51Z</time>
      </trkpt>
      <trkpt lat="42.71636" lon="1.4491">
        <ele>1022.9802246094</ele>
        <time>2011-08-20T12:34:13Z</time>
      </trkpt>
      <trkpt lat="42.71638" lon="1.4491">
        <ele>1021.0576171875</ele>
        <time>2011-08-20T12:34:19Z</time>
      </trkpt>
      <trkpt lat="42.71639" lon="1.44908">
        <ele>1019.6154785156</ele>
        <time>2011-08-20T12:34:23Z</time>
      </trkpt>
      <trkpt lat="42.71643" lon="1.44912">
        <ele>1018.1733398438</ele>
        <time>2011-08-20T12:34:27Z</time>
      </trkpt>
      <trkpt lat="42.71647" lon="1.44922">
        <ele>1017.2121582031</ele>
        <time>2011-08-20T12:34:33Z</time>
      </trkpt>
      <trkpt lat="42.71648" lon="1.44925">
        <ele>1016.7314453125</ele>
        <time>2011-08-20T12:34:34Z</time>
      </trkpt>
      <trkpt lat="42.71651" lon="1.44939">
        <ele>1016.2507324219</ele>
        <time>2011-08-20T12:34:39Z</time>
      </trkpt>
      <trkpt lat="42.71655" lon="1.44957">
        <ele>1016.7314453125</ele>
        <time>2011-08-20T12:34:44Z</time>
      </trkpt>
      <trkpt lat="42.71658" lon="1.44971">
        <ele>1016.7314453125</ele>
        <time>2011-08-20T12:34:48Z</time>
      </trkpt>
      <trkpt lat="42.71663" lon="1.4499">
        <ele>1016.2507324219</ele>
        <time>2011-08-20T12:34:54Z</time>
      </trkpt>
      <trkpt lat="42.71674" lon="1.45001">
        <ele>1021.0576171875</ele>
        <time>2011-08-20T12:35:00Z</time>
      </trkpt>
      <trkpt lat="42.71687" lon="1.44999">
        <ele>1030.1899414062</ele>
        <time>2011-08-20T12:35:05Z</time>
      </trkpt>
      <trkpt lat="42.71697" lon="1.45003">
        <ele>1032.1125488281</ele>
        <time>2011-08-20T12:35:09Z</time>
      </trkpt>
      <trkpt lat="42.71707" lon="1.45">
        <ele>1041.2451171875</ele>
        <time>2011-08-20T12:35:13Z</time>
      </trkpt>
      <trkpt lat="42.7172" lon="1.44997">
        <ele>1047.4936523438</ele>
        <time>2011-08-20T12:35:18Z</time>
      </trkpt>
      <trkpt lat="42.71735" lon="1.44994">
        <ele>1053.26171875</ele>
        <time>2011-08-20T12:35:24Z</time>
      </trkpt>
      <trkpt lat="42.71745" lon="1.44993">
        <ele>1054.2231445312</ele>
        <time>2011-08-20T12:35:28Z</time>
      </trkpt>
      <trkpt lat="42.71761" lon="1.44995">
        <ele>1058.548828125</ele>
        <time>2011-08-20T12:35:34Z</time>
      </trkpt>
      <trkpt lat="42.71772" lon="1.45003">
        <ele>1055.1843261719</ele>
        <time>2011-08-20T12:35:39Z</time>
      </trkpt>
      <trkpt lat="42.71784" lon="1.45005">
        <ele>1059.0295410156</ele>
        <time>2011-08-20T12:35:44Z</time>
      </trkpt>
      <trkpt lat="42.71794" lon="1.45006">
        <ele>1059.5102539062</ele>
        <time>2011-08-20T12:35:48Z</time>
      </trkpt>
      <trkpt lat="42.71805" lon="1.45002">
        <ele>1063.8359375</ele>
        <time>2011-08-20T12:35:53Z</time>
      </trkpt>
      <trkpt lat="42.71812" lon="1.45002">
        <ele>1062.8747558594</ele>
        <time>2011-08-20T12:35:58Z</time>
      </trkpt>
      <trkpt lat="42.71822" lon="1.45005">
        <ele>1054.2231445312</ele>
        <time>2011-08-20T12:36:06Z</time>
      </trkpt>
      <trkpt lat="42.71835" lon="1.45008">
        <ele>1047.9743652344</ele>
        <time>2011-08-20T12:36:15Z</time>
      </trkpt>
      <trkpt lat="42.71843" lon="1.45011">
        <ele>1042.6872558594</ele>
        <time>2011-08-20T12:36:21Z</time>
      </trkpt>
      <trkpt lat="42.71858" lon="1.45007">
        <ele>1043.6484375</ele>
        <time>2011-08-20T12:36:26Z</time>
      </trkpt>
      <trkpt lat="42.71875" lon="1.44996">
        <ele>1046.5324707031</ele>
        <time>2011-08-20T12:36:32Z</time>
      </trkpt>
      <trkpt lat="42.71889" lon="1.44996">
        <ele>1042.6872558594</ele>
        <time>2011-08-20T12:36:37Z</time>
      </trkpt>
      <trkpt lat="42.71902" lon="1.44995">
        <ele>1046.0517578125</ele>
        <time>2011-08-20T12:36:41Z</time>
      </trkpt>
      <trkpt lat="42.71913" lon="1.44996">
        <ele>1046.0517578125</ele>
        <time>2011-08-20T12:36:45Z</time>
      </trkpt>
      <trkpt lat="42.71922" lon="1.44996">
        <ele>1046.0517578125</ele>
        <time>2011-08-20T12:36:48Z</time>
      </trkpt>
      <trkpt lat="42.71936" lon="1.44992">
        <ele>1046.0517578125</ele>
        <time>2011-08-20T12:36:53Z</time>
      </trkpt>
      <trkpt lat="42.7195" lon="1.44986">
        <ele>1047.9743652344</ele>
        <time>2011-08-20T12:36:58Z</time>
      </trkpt>
      <trkpt lat="42.71969" lon="1.44978">
        <ele>1056.1455078125</ele>
        <time>2011-08-20T12:37:05Z</time>
      </trkpt>
      <trkpt lat="42.71981" lon="1.44983">
        <ele>1049.4162597656</ele>
        <time>2011-08-20T12:37:10Z</time>
      </trkpt>
      <trkpt lat="42.71993" lon="1.44988">
        <ele>1043.1677246094</ele>
        <time>2011-08-20T12:37:14Z</time>
      </trkpt>
      <trkpt lat="42.72004" lon="1.44995">
        <ele>1034.03515625</ele>
        <time>2011-08-20T12:37:18Z</time>
      </trkpt>
      <trkpt lat="42.72022" lon="1.45008">
        <ele>1022.4995117188</ele>
        <time>2011-08-20T12:37:25Z</time>
      </trkpt>
      <trkpt lat="42.72037" lon="1.45022">
        <ele>1012.8862304688</ele>
        <time>2011-08-20T12:37:31Z</time>
      </trkpt>
      <trkpt lat="42.72048" lon="1.45024">
        <ele>1010.9636230469</ele>
        <time>2011-08-20T12:37:36Z</time>
      </trkpt>
      <trkpt lat="42.72057" lon="1.45016">
        <ele>1009.5217285156</ele>
        <time>2011-08-20T12:37:41Z</time>
      </trkpt>
      <trkpt lat="42.72058" lon="1.45014">
        <ele>1008.0798339844</ele>
        <time>2011-08-20T12:37:42Z</time>
      </trkpt>
      <trkpt lat="42.7206" lon="1.4501">
        <ele>1007.1184082031</ele>
        <time>2011-08-20T12:37:44Z</time>
      </trkpt>
      <trkpt lat="42.72068" lon="1.45009">
        <ele>1001.3503417969</ele>
        <time>2011-08-20T12:37:49Z</time>
      </trkpt>
      <trkpt lat="42.7207" lon="1.4501">
        <ele>999.427734375</ele>
        <time>2011-08-20T12:37:50Z</time>
      </trkpt>
      <trkpt lat="42.72083" lon="1.45011">
        <ele>992.69873046875</ele>
        <time>2011-08-20T12:37:55Z</time>
      </trkpt>
      <trkpt lat="42.72094" lon="1.4501">
        <ele>989.81469726562</ele>
        <time>2011-08-20T12:37:59Z</time>
      </trkpt>
      <trkpt lat="42.7211" lon="1.45005">
        <ele>989.333984375</ele>
        <time>2011-08-20T12:38:05Z</time>
      </trkpt>
      <trkpt lat="42.72123" lon="1.45001">
        <ele>989.333984375</ele>
        <time>2011-08-20T12:38:10Z</time>
      </trkpt>
      <trkpt lat="42.72137" lon="1.44998">
        <ele>988.853515625</ele>
        <time>2011-08-20T12:38:15Z</time>
      </trkpt>
      <trkpt lat="42.7215" lon="1.44996">
        <ele>988.37280273438</ele>
        <time>2011-08-20T12:38:20Z</time>
      </trkpt>
      <trkpt lat="42.72157" lon="1.44998">
        <ele>986.44995117188</ele>
        <time>2011-08-20T12:38:23Z</time>
      </trkpt>
      <trkpt lat="42.7217" lon="1.44999">
        <ele>985.96923828125</ele>
        <time>2011-08-20T12:38:28Z</time>
      </trkpt>
      <trkpt lat="42.72179" lon="1.45">
        <ele>985.00805664062</ele>
        <time>2011-08-20T12:38:32Z</time>
      </trkpt>
      <trkpt lat="42.72184" lon="1.45001">
        <ele>985.00805664062</ele>
        <time>2011-08-20T12:38:34Z</time>
      </trkpt>
      <trkpt lat="42.7219" lon="1.45002">
        <ele>984.52734375</ele>
        <time>2011-08-20T12:38:37Z</time>
      </trkpt>
      <trkpt lat="42.72198" lon="1.45003">
        <ele>985.96923828125</ele>
        <time>2011-08-20T12:38:43Z</time>
      </trkpt>
      <trkpt lat="42.72205" lon="1.45007">
        <ele>985.48852539062</ele>
        <time>2011-08-20T12:38:48Z</time>
      </trkpt>
      <trkpt lat="42.72212" lon="1.45013">
        <ele>984.04663085938</ele>
        <time>2011-08-20T12:38:54Z</time>
      </trkpt>
      <trkpt lat="42.72223" lon="1.45022">
        <ele>982.60473632812</ele>
        <time>2011-08-20T12:39:03Z</time>
      </trkpt>
      <trkpt lat="42.72228" lon="1.45026">
        <ele>983.08520507812</ele>
        <time>2011-08-20T12:39:07Z</time>
      </trkpt>
      <trkpt lat="42.7224" lon="1.45034">
        <ele>984.52734375</ele>
        <time>2011-08-20T12:39:17Z</time>
      </trkpt>
      <trkpt lat="42.72245" lon="1.45038">
        <ele>985.96923828125</ele>
        <time>2011-08-20T12:39:21Z</time>
      </trkpt>
      <trkpt lat="42.7225" lon="1.45049">
        <ele>985.96923828125</ele>
        <time>2011-08-20T12:39:25Z</time>
      </trkpt>
      <trkpt lat="42.72253" lon="1.45064">
        <ele>986.44995117188</ele>
        <time>2011-08-20T12:39:30Z</time>
      </trkpt>
      <trkpt lat="42.72258" lon="1.45074">
        <ele>985.48852539062</ele>
        <time>2011-08-20T12:39:34Z</time>
      </trkpt>
      <trkpt lat="42.72264" lon="1.45083">
        <ele>985.96923828125</ele>
        <time>2011-08-20T12:39:38Z</time>
      </trkpt>
      <trkpt lat="42.72271" lon="1.45094">
        <ele>984.04663085938</ele>
        <time>2011-08-20T12:39:45Z</time>
      </trkpt>
      <trkpt lat="42.72276" lon="1.45103">
        <ele>984.04663085938</ele>
        <time>2011-08-20T12:39:52Z</time>
      </trkpt>
      <trkpt lat="42.72276" lon="1.45106">
        <ele>984.04663085938</ele>
        <time>2011-08-20T12:39:54Z</time>
      </trkpt>
      <trkpt lat="42.72281" lon="1.45117">
        <ele>984.52734375</ele>
        <time>2011-08-20T12:40:02Z</time>
      </trkpt>
      <trkpt lat="42.72287" lon="1.45125">
        <ele>986.93041992188</ele>
        <time>2011-08-20T12:40:07Z</time>
      </trkpt>
      <trkpt lat="42.72294" lon="1.45135">
        <ele>988.37280273438</ele>
        <time>2011-08-20T12:40:15Z</time>
      </trkpt>
      <trkpt lat="42.72296" lon="1.45137">
        <ele>989.333984375</ele>
        <time>2011-08-20T12:40:19Z</time>
      </trkpt>
      <trkpt lat="42.723" lon="1.45147">
        <ele>989.333984375</ele>
        <time>2011-08-20T12:40:25Z</time>
      </trkpt>
      <trkpt lat="42.72306" lon="1.45163">
        <ele>990.77587890625</ele>
        <time>2011-08-20T12:40:34Z</time>
      </trkpt>
      <trkpt lat="42.72311" lon="1.45171">
        <ele>990.77587890625</ele>
        <time>2011-08-20T12:40:40Z</time>
      </trkpt>
      <trkpt lat="42.72319" lon="1.45181">
        <ele>988.37280273438</ele>
        <time>2011-08-20T12:40:44Z</time>
      </trkpt>
      <trkpt lat="42.72329" lon="1.45192">
        <ele>985.96923828125</ele>
        <time>2011-08-20T12:40:49Z</time>
      </trkpt>
      <trkpt lat="42.72342" lon="1.45199">
        <ele>984.52734375</ele>
        <time>2011-08-20T12:40:54Z</time>
      </trkpt>
      <trkpt lat="42.72354" lon="1.45205">
        <ele>982.60473632812</ele>
        <time>2011-08-20T12:40:59Z</time>
      </trkpt>
      <trkpt lat="42.72366" lon="1.45208">
        <ele>982.60473632812</ele>
        <time>2011-08-20T12:41:04Z</time>
      </trkpt>
      <trkpt lat="42.72382" lon="1.4521">
        <ele>981.64331054688</ele>
        <time>2011-08-20T12:41:10Z</time>
      </trkpt>
      <trkpt lat="42.72392" lon="1.45217">
        <ele>980.68212890625</ele>
        <time>2011-08-20T12:41:14Z</time>
      </trkpt>
      <trkpt lat="42.72401" lon="1.45222">
        <ele>979.720703125</ele>
        <time>2011-08-20T12:41:19Z</time>
      </trkpt>
      <trkpt lat="42.72411" lon="1.4523">
        <ele>979.720703125</ele>
        <time>2011-08-20T12:41:24Z</time>
      </trkpt>
      <trkpt lat="42.72424" lon="1.45235">
        <ele>980.68212890625</ele>
        <time>2011-08-20T12:41:30Z</time>
      </trkpt>
      <trkpt lat="42.72435" lon="1.45243">
        <ele>976.8369140625</ele>
        <time>2011-08-20T12:41:34Z</time>
      </trkpt>
      <trkpt lat="42.72446" lon="1.45254">
        <ele>973.47241210938</ele>
        <time>2011-08-20T12:41:39Z</time>
      </trkpt>
      <trkpt lat="42.72464" lon="1.45261">
        <ele>974.91430664062</ele>
        <time>2011-08-20T12:41:46Z</time>
      </trkpt>
      <trkpt lat="42.72475" lon="1.45263">
        <ele>976.35620117188</ele>
        <time>2011-08-20T12:41:51Z</time>
      </trkpt>
      <trkpt lat="42.72486" lon="1.45262">
        <ele>976.35620117188</ele>
        <time>2011-08-20T12:41:56Z</time>
      </trkpt>
      <trkpt lat="42.72496" lon="1.45266">
        <ele>974.43359375</ele>
        <time>2011-08-20T12:42:01Z</time>
      </trkpt>
      <trkpt lat="42.72501" lon="1.45271">
        <ele>973.47241210938</ele>
        <time>2011-08-20T12:42:06Z</time>
      </trkpt>
      <trkpt lat="42.72506" lon="1.45276">
        <ele>972.99169921875</ele>
        <time>2011-08-20T12:42:12Z</time>
      </trkpt>
      <trkpt lat="42.72514" lon="1.4528">
        <ele>973.95288085938</ele>
        <time>2011-08-20T12:42:18Z</time>
      </trkpt>
      <trkpt lat="42.72523" lon="1.45288">
        <ele>976.8369140625</ele>
        <time>2011-08-20T12:42:23Z</time>
      </trkpt>
      <trkpt lat="42.72537" lon="1.45297">
        <ele>968.66552734375</ele>
        <time>2011-08-20T12:42:29Z</time>
      </trkpt>
      <trkpt lat="42.72544" lon="1.45303">
        <ele>962.89770507812</ele>
        <time>2011-08-20T12:42:34Z</time>
      </trkpt>
      <trkpt lat="42.72551" lon="1.45304">
        <ele>960.013671875</ele>
        <time>2011-08-20T12:42:37Z</time>
      </trkpt>
      <trkpt lat="42.72556" lon="1.45308">
        <ele>958.57177734375</ele>
        <time>2011-08-20T12:42:40Z</time>
      </trkpt>
      <trkpt lat="42.72563" lon="1.45311">
        <ele>958.57177734375</ele>
        <time>2011-08-20T12:42:44Z</time>
      </trkpt>
      <trkpt lat="42.7257" lon="1.45318">
        <ele>964.8203125</ele>
        <time>2011-08-20T12:42:49Z</time>
      </trkpt>
      <trkpt lat="42.72573" lon="1.45321">
        <ele>968.18481445312</ele>
        <time>2011-08-20T12:42:52Z</time>
      </trkpt>
      <trkpt lat="42.72575" lon="1.45321">
        <ele>970.107421875</ele>
        <time>2011-08-20T12:42:54Z</time>
      </trkpt>
      <trkpt lat="42.72583" lon="1.45324">
        <ele>972.99169921875</ele>
        <time>2011-08-20T12:43:02Z</time>
      </trkpt>
      <trkpt lat="42.7259" lon="1.45331">
        <ele>972.99169921875</ele>
        <time>2011-08-20T12:43:10Z</time>
      </trkpt>
      <trkpt lat="42.72595" lon="1.45334">
        <ele>971.54931640625</ele>
        <time>2011-08-20T12:43:15Z</time>
      </trkpt>
      <trkpt lat="42.72597" lon="1.45335">
        <ele>971.54931640625</ele>
        <time>2011-08-20T12:43:17Z</time>
      </trkpt>
      <trkpt lat="42.72603" lon="1.4534">
        <ele>970.58813476562</ele>
        <time>2011-08-20T12:43:22Z</time>
      </trkpt>
      <trkpt lat="42.72612" lon="1.45349">
        <ele>969.14624023438</ele>
        <time>2011-08-20T12:43:27Z</time>
      </trkpt>
      <trkpt lat="42.72622" lon="1.45353">
        <ele>969.626953125</ele>
        <time>2011-08-20T12:43:31Z</time>
      </trkpt>
      <trkpt lat="42.72628" lon="1.45362">
        <ele>966.74291992188</ele>
        <time>2011-08-20T12:43:35Z</time>
      </trkpt>
      <trkpt lat="42.72633" lon="1.4537">
        <ele>963.85888671875</ele>
        <time>2011-08-20T12:43:38Z</time>
      </trkpt>
      <trkpt lat="42.72636" lon="1.45373">
        <ele>961.9365234375</ele>
        <time>2011-08-20T12:43:40Z</time>
      </trkpt>
      <trkpt lat="42.72646" lon="1.45376">
        <ele>958.09130859375</ele>
        <time>2011-08-20T12:43:45Z</time>
      </trkpt>
      <trkpt lat="42.72652" lon="1.45381">
        <ele>957.1298828125</ele>
        <time>2011-08-20T12:43:48Z</time>
      </trkpt>
      <trkpt lat="42.72664" lon="1.45395">
        <ele>953.76513671875</ele>
        <time>2011-08-20T12:43:55Z</time>
      </trkpt>
      <trkpt lat="42.72675" lon="1.45402">
        <ele>955.20703125</ele>
        <time>2011-08-20T12:44:01Z</time>
      </trkpt>
      <trkpt lat="42.72684" lon="1.45414">
        <ele>953.76513671875</ele>
        <time>2011-08-20T12:44:07Z</time>
      </trkpt>
      <trkpt lat="42.72695" lon="1.45424">
        <ele>954.24584960938</ele>
        <time>2011-08-20T12:44:13Z</time>
      </trkpt>
      <trkpt lat="42.72705" lon="1.45426">
        <ele>954.24584960938</ele>
        <time>2011-08-20T12:44:17Z</time>
      </trkpt>
      <trkpt lat="42.72717" lon="1.45433">
        <ele>955.68774414062</ele>
        <time>2011-08-20T12:44:23Z</time>
      </trkpt>
      <trkpt lat="42.72729" lon="1.4544">
        <ele>957.1298828125</ele>
        <time>2011-08-20T12:44:28Z</time>
      </trkpt>
      <trkpt lat="42.72736" lon="1.4545">
        <ele>957.1298828125</ele>
        <time>2011-08-20T12:44:33Z</time>
      </trkpt>
      <trkpt lat="42.72746" lon="1.45461">
        <ele>956.64916992188</ele>
        <time>2011-08-20T12:44:39Z</time>
      </trkpt>
      <trkpt lat="42.72755" lon="1.45472">
        <ele>953.76513671875</ele>
        <time>2011-08-20T12:44:45Z</time>
      </trkpt>
      <trkpt lat="42.72761" lon="1.4548">
        <ele>951.84252929688</ele>
        <time>2011-08-20T12:44:49Z</time>
      </trkpt>
      <trkpt lat="42.72769" lon="1.4549">
        <ele>952.32299804688</ele>
        <time>2011-08-20T12:44:53Z</time>
      </trkpt>
      <trkpt lat="42.72773" lon="1.45494">
        <ele>951.36181640625</ele>
        <time>2011-08-20T12:44:55Z</time>
      </trkpt>
      <trkpt lat="42.72783" lon="1.45505">
        <ele>949.43920898438</ele>
        <time>2011-08-20T12:45:00Z</time>
      </trkpt>
      <trkpt lat="42.72796" lon="1.45516">
        <ele>947.03588867188</ele>
        <time>2011-08-20T12:45:06Z</time>
      </trkpt>
      <trkpt lat="42.72808" lon="1.45521">
        <ele>946.07470703125</ele>
        <time>2011-08-20T12:45:11Z</time>
      </trkpt>
      <trkpt lat="42.72818" lon="1.45527">
        <ele>945.59399414062</ele>
        <time>2011-08-20T12:45:15Z</time>
      </trkpt>
      <trkpt lat="42.72826" lon="1.45535">
        <ele>943.67138671875</ele>
        <time>2011-08-20T12:45:19Z</time>
      </trkpt>
      <trkpt lat="42.72832" lon="1.45542">
        <ele>942.71020507812</ele>
        <time>2011-08-20T12:45:22Z</time>
      </trkpt>
      <trkpt lat="42.72848" lon="1.45551">
        <ele>940.30688476562</ele>
        <time>2011-08-20T12:45:28Z</time>
      </trkpt>
      <trkpt lat="42.72858" lon="1.45558">
        <ele>939.82592773438</ele>
        <time>2011-08-20T12:45:33Z</time>
      </trkpt>
      <trkpt lat="42.72863" lon="1.45561">
        <ele>939.82592773438</ele>
        <time>2011-08-20T12:45:35Z</time>
      </trkpt>
      <trkpt lat="42.72873" lon="1.45564">
        <ele>939.34521484375</ele>
        <time>2011-08-20T12:45:39Z</time>
      </trkpt>
      <trkpt lat="42.72885" lon="1.45567">
        <ele>941.74877929688</ele>
        <time>2011-08-20T12:45:44Z</time>
      </trkpt>
      <trkpt lat="42.72897" lon="1.4557">
        <ele>943.19067382812</ele>
        <time>2011-08-20T12:45:49Z</time>
      </trkpt>
      <trkpt lat="42.72912" lon="1.45575">
        <ele>941.74877929688</ele>
        <time>2011-08-20T12:45:55Z</time>
      </trkpt>
      <trkpt lat="42.72924" lon="1.4558">
        <ele>940.78735351562</ele>
        <time>2011-08-20T12:46:00Z</time>
      </trkpt>
      <trkpt lat="42.72937" lon="1.45587">
        <ele>939.34521484375</ele>
        <time>2011-08-20T12:46:05Z</time>
      </trkpt>
      <trkpt lat="42.72949" lon="1.45595">
        <ele>936.94189453125</ele>
        <time>2011-08-20T12:46:10Z</time>
      </trkpt>
      <trkpt lat="42.72958" lon="1.45602">
        <ele>935.98071289062</ele>
        <time>2011-08-20T12:46:14Z</time>
      </trkpt>
      <trkpt lat="42.7297" lon="1.45606">
        <ele>934.05810546875</ele>
        <time>2011-08-20T12:46:20Z</time>
      </trkpt>
      <trkpt lat="42.7298" lon="1.45609">
        <ele>935.98071289062</ele>
        <time>2011-08-20T12:46:24Z</time>
      </trkpt>
      <trkpt lat="42.72989" lon="1.45615">
        <ele>935.98071289062</ele>
        <time>2011-08-20T12:46:28Z</time>
      </trkpt>
      <trkpt lat="42.73001" lon="1.45625">
        <ele>936.46142578125</ele>
        <time>2011-08-20T12:46:33Z</time>
      </trkpt>
      <trkpt lat="42.73009" lon="1.45633">
        <ele>936.46142578125</ele>
        <time>2011-08-20T12:46:37Z</time>
      </trkpt>
      <trkpt lat="42.73019" lon="1.45644">
        <ele>935.5</ele>
        <time>2011-08-20T12:46:43Z</time>
      </trkpt>
      <trkpt lat="42.73029" lon="1.45654">
        <ele>933.57739257812</ele>
        <time>2011-08-20T12:46:48Z</time>
      </trkpt>
      <trkpt lat="42.73037" lon="1.45665">
        <ele>934.05810546875</ele>
        <time>2011-08-20T12:46:52Z</time>
      </trkpt>
      <trkpt lat="42.73043" lon="1.45679">
        <ele>931.65478515625</ele>
        <time>2011-08-20T12:46:57Z</time>
      </trkpt>
      <trkpt lat="42.73044" lon="1.45681">
        <ele>931.65478515625</ele>
        <time>2011-08-20T12:46:58Z</time>
      </trkpt>
      <trkpt lat="42.73048" lon="1.45687">
        <ele>930.212890625</ele>
        <time>2011-08-20T12:47:02Z</time>
      </trkpt>
      <trkpt lat="42.73055" lon="1.45697">
        <ele>930.69360351562</ele>
        <time>2011-08-20T12:47:09Z</time>
      </trkpt>
      <trkpt lat="42.73061" lon="1.45707">
        <ele>930.69360351562</ele>
        <time>2011-08-20T12:47:15Z</time>
      </trkpt>
      <trkpt lat="42.73064" lon="1.45712">
        <ele>931.65478515625</ele>
        <time>2011-08-20T12:47:18Z</time>
      </trkpt>
      <trkpt lat="42.73066" lon="1.45717">
        <ele>931.17431640625</ele>
        <time>2011-08-20T12:47:22Z</time>
      </trkpt>
      <trkpt lat="42.73074" lon="1.45728">
        <ele>933.0966796875</ele>
        <time>2011-08-20T12:47:30Z</time>
      </trkpt>
      <trkpt lat="42.73078" lon="1.45733">
        <ele>933.57739257812</ele>
        <time>2011-08-20T12:47:34Z</time>
      </trkpt>
      <trkpt lat="42.73085" lon="1.45736">
        <ele>934.53881835938</ele>
        <time>2011-08-20T12:47:39Z</time>
      </trkpt>
      <trkpt lat="42.7309" lon="1.45739">
        <ele>934.53881835938</ele>
        <time>2011-08-20T12:47:41Z</time>
      </trkpt>
      <trkpt lat="42.73104" lon="1.45746">
        <ele>935.01953125</ele>
        <time>2011-08-20T12:47:48Z</time>
      </trkpt>
      <trkpt lat="42.73111" lon="1.45751">
        <ele>934.53881835938</ele>
        <time>2011-08-20T12:47:53Z</time>
      </trkpt>
      <trkpt lat="42.73112" lon="1.45753">
        <ele>935.5</ele>
        <time>2011-08-20T12:47:59Z</time>
      </trkpt>
      <trkpt lat="42.73114" lon="1.45754">
        <ele>936.94189453125</ele>
        <time>2011-08-20T12:48:07Z</time>
      </trkpt>
      <trkpt lat="42.73115" lon="1.45755">
        <ele>930.212890625</ele>
        <time>2011-08-20T12:48:16Z</time>
      </trkpt>
      <trkpt lat="42.73114" lon="1.45757">
        <ele>928.29028320312</ele>
        <time>2011-08-20T12:48:27Z</time>
      </trkpt>
      <trkpt lat="42.73109" lon="1.45761">
        <ele>935.5</ele>
        <time>2011-08-20T12:48:49Z</time>
      </trkpt>
      <trkpt lat="42.73111" lon="1.4576">
        <ele>935.98071289062</ele>
        <time>2011-08-20T12:48:54Z</time>
      </trkpt>
      <trkpt lat="42.73119" lon="1.45757">
        <ele>939.34521484375</ele>
        <time>2011-08-20T12:48:59Z</time>
      </trkpt>
      <trkpt lat="42.73123" lon="1.45757">
        <ele>940.78735351562</ele>
        <time>2011-08-20T12:49:02Z</time>
      </trkpt>
      <trkpt lat="42.73137" lon="1.45753">
        <ele>941.74877929688</ele>
        <time>2011-08-20T12:49:08Z</time>
      </trkpt>
      <trkpt lat="42.73144" lon="1.45751">
        <ele>940.78735351562</ele>
        <time>2011-08-20T12:49:11Z</time>
      </trkpt>
      <trkpt lat="42.73151" lon="1.45742">
        <ele>943.19067382812</ele>
        <time>2011-08-20T12:49:17Z</time>
      </trkpt>
      <trkpt lat="42.73151" lon="1.45742">
        <ele>942.2294921875</ele>
        <time>2011-08-20T12:49:18Z</time>
      </trkpt>
      <trkpt lat="42.73161" lon="1.45747">
        <ele>936.94189453125</ele>
        <time>2011-08-20T12:49:25Z</time>
      </trkpt>
      <trkpt lat="42.73166" lon="1.45746">
        <ele>937.42260742188</ele>
        <time>2011-08-20T12:49:30Z</time>
      </trkpt>
      <trkpt lat="42.73171" lon="1.45744">
        <ele>937.42260742188</ele>
        <time>2011-08-20T12:49:35Z</time>
      </trkpt>
      <trkpt lat="42.73175" lon="1.45745">
        <ele>937.42260742188</ele>
        <time>2011-08-20T12:49:40Z</time>
      </trkpt>
      <trkpt lat="42.73181" lon="1.45743">
        <ele>938.86474609375</ele>
        <time>2011-08-20T12:49:47Z</time>
      </trkpt>
      <trkpt lat="42.73185" lon="1.45743">
        <ele>938.38403320312</ele>
        <time>2011-08-20T12:49:51Z</time>
      </trkpt>
      <trkpt lat="42.73188" lon="1.45743">
        <ele>938.38403320312</ele>
        <time>2011-08-20T12:49:55Z</time>
      </trkpt>
      <trkpt lat="42.73192" lon="1.45743">
        <ele>940.30688476562</ele>
        <time>2011-08-20T12:50:00Z</time>
      </trkpt>
      <trkpt lat="42.73204" lon="1.45739">
        <ele>940.78735351562</ele>
        <time>2011-08-20T12:50:06Z</time>
      </trkpt>
      <trkpt lat="42.73217" lon="1.45736">
        <ele>938.38403320312</ele>
        <time>2011-08-20T12:50:11Z</time>
      </trkpt>
      <trkpt lat="42.73232" lon="1.45731">
        <ele>939.82592773438</ele>
        <time>2011-08-20T12:50:16Z</time>
      </trkpt>
      <trkpt lat="42.73242" lon="1.4573">
        <ele>937.42260742188</ele>
        <time>2011-08-20T12:50:21Z</time>
      </trkpt>
      <trkpt lat="42.73252" lon="1.45728">
        <ele>935.5</ele>
        <time>2011-08-20T12:50:25Z</time>
      </trkpt>
      <trkpt lat="42.73266" lon="1.45726">
        <ele>935.5</ele>
        <time>2011-08-20T12:50:30Z</time>
      </trkpt>
      <trkpt lat="42.73274" lon="1.45728">
        <ele>933.0966796875</ele>
        <time>2011-08-20T12:50:35Z</time>
      </trkpt>
      <trkpt lat="42.73276" lon="1.45728">
        <ele>933.0966796875</ele>
        <time>2011-08-20T12:50:36Z</time>
      </trkpt>
      <trkpt lat="42.73279" lon="1.45739">
        <ele>936.94189453125</ele>
        <time>2011-08-20T12:50:41Z</time>
      </trkpt>
      <trkpt lat="42.7329" lon="1.45743">
        <ele>935.5</ele>
        <time>2011-08-20T12:50:47Z</time>
      </trkpt>
      <trkpt lat="42.73301" lon="1.45743">
        <ele>933.57739257812</ele>
        <time>2011-08-20T12:50:55Z</time>
      </trkpt>
      <trkpt lat="42.73302" lon="1.45746">
        <ele>938.38403320312</ele>
        <time>2011-08-20T12:50:57Z</time>
      </trkpt>
      <trkpt lat="42.7331" lon="1.4575">
        <ele>941.74877929688</ele>
        <time>2011-08-20T12:51:02Z</time>
      </trkpt>
      <trkpt lat="42.73315" lon="1.45749">
        <ele>940.30688476562</ele>
        <time>2011-08-20T12:51:05Z</time>
      </trkpt>
      <trkpt lat="42.73317" lon="1.45751">
        <ele>940.30688476562</ele>
        <time>2011-08-20T12:51:07Z</time>
      </trkpt>
      <trkpt lat="42.73323" lon="1.45754">
        <ele>941.26806640625</ele>
        <time>2011-08-20T12:51:11Z</time>
      </trkpt>
      <trkpt lat="42.73328" lon="1.45753">
        <ele>941.26806640625</ele>
        <time>2011-08-20T12:51:13Z</time>
      </trkpt>
      <trkpt lat="42.73338" lon="1.45754">
        <ele>940.78735351562</ele>
        <time>2011-08-20T12:51:19Z</time>
      </trkpt>
      <trkpt lat="42.73339" lon="1.45754">
        <ele>940.78735351562</ele>
        <time>2011-08-20T12:51:20Z</time>
      </trkpt>
      <trkpt lat="42.73343" lon="1.45754">
        <ele>937.9033203125</ele>
        <time>2011-08-20T12:51:24Z</time>
      </trkpt>
      <trkpt lat="42.73351" lon="1.4576">
        <ele>938.38403320312</ele>
        <time>2011-08-20T12:51:29Z</time>
      </trkpt>
      <trkpt lat="42.73355" lon="1.45764">
        <ele>936.46142578125</ele>
        <time>2011-08-20T12:51:34Z</time>
      </trkpt>
      <trkpt lat="42.73363" lon="1.45771">
        <ele>937.42260742188</ele>
        <time>2011-08-20T12:51:40Z</time>
      </trkpt>
      <trkpt lat="42.73368" lon="1.45774">
        <ele>934.05810546875</ele>
        <time>2011-08-20T12:51:45Z</time>
      </trkpt>
      <trkpt lat="42.73371" lon="1.45775">
        <ele>933.57739257812</ele>
        <time>2011-08-20T12:51:47Z</time>
      </trkpt>
      <trkpt lat="42.73383" lon="1.45776">
        <ele>933.57739257812</ele>
        <time>2011-08-20T12:51:55Z</time>
      </trkpt>
      <trkpt lat="42.73394" lon="1.45776">
        <ele>937.42260742188</ele>
        <time>2011-08-20T12:52:02Z</time>
      </trkpt>
      <trkpt lat="42.734" lon="1.45774">
        <ele>938.38403320312</ele>
        <time>2011-08-20T12:52:07Z</time>
      </trkpt>
      <trkpt lat="42.73409" lon="1.45771">
        <ele>938.86474609375</ele>
        <time>2011-08-20T12:52:12Z</time>
      </trkpt>
      <trkpt lat="42.73421" lon="1.45767">
        <ele>937.42260742188</ele>
        <time>2011-08-20T12:52:16Z</time>
      </trkpt>
      <trkpt lat="42.73428" lon="1.45767">
        <ele>938.38403320312</ele>
        <time>2011-08-20T12:52:19Z</time>
      </trkpt>
      <trkpt lat="42.73437" lon="1.45761">
        <ele>938.86474609375</ele>
        <time>2011-08-20T12:52:24Z</time>
      </trkpt>
      <trkpt lat="42.73438" lon="1.45759">
        <ele>939.34521484375</ele>
        <time>2011-08-20T12:52:25Z</time>
      </trkpt>
      <trkpt lat="42.73449" lon="1.45751">
        <ele>938.38403320312</ele>
        <time>2011-08-20T12:52:30Z</time>
      </trkpt>
      <trkpt lat="42.73461" lon="1.45746">
        <ele>938.86474609375</ele>
        <time>2011-08-20T12:52:35Z</time>
      </trkpt>
      <trkpt lat="42.73473" lon="1.45744">
        <ele>938.86474609375</ele>
        <time>2011-08-20T12:52:40Z</time>
      </trkpt>
      <trkpt lat="42.7348" lon="1.45742">
        <ele>938.86474609375</ele>
        <time>2011-08-20T12:52:45Z</time>
      </trkpt>
      <trkpt lat="42.7349" lon="1.4574">
        <ele>939.34521484375</ele>
        <time>2011-08-20T12:52:53Z</time>
      </trkpt>
      <trkpt lat="42.73491" lon="1.45739">
        <ele>938.38403320312</ele>
        <time>2011-08-20T12:52:54Z</time>
      </trkpt>
      <trkpt lat="42.73497" lon="1.45731">
        <ele>938.38403320312</ele>
        <time>2011-08-20T12:53:01Z</time>
      </trkpt>
      <trkpt lat="42.735" lon="1.45726">
        <ele>937.42260742188</ele>
        <time>2011-08-20T12:53:06Z</time>
      </trkpt>
      <trkpt lat="42.73504" lon="1.45722">
        <ele>938.38403320312</ele>
        <time>2011-08-20T12:53:11Z</time>
      </trkpt>
      <trkpt lat="42.73516" lon="1.45718">
        <ele>938.86474609375</ele>
        <time>2011-08-20T12:53:17Z</time>
      </trkpt>
      <trkpt lat="42.73524" lon="1.45704">
        <ele>935.98071289062</ele>
        <time>2011-08-20T12:53:22Z</time>
      </trkpt>
      <trkpt lat="42.73524" lon="1.45688">
        <ele>933.57739257812</ele>
        <time>2011-08-20T12:53:26Z</time>
      </trkpt>
      <trkpt lat="42.73528" lon="1.45678">
        <ele>935.5</ele>
        <time>2011-08-20T12:53:30Z</time>
      </trkpt>
      <trkpt lat="42.73537" lon="1.45679">
        <ele>936.46142578125</ele>
        <time>2011-08-20T12:53:35Z</time>
      </trkpt>
      <trkpt lat="42.73542" lon="1.4568">
        <ele>937.9033203125</ele>
        <time>2011-08-20T12:53:39Z</time>
      </trkpt>
      <trkpt lat="42.73546" lon="1.45682">
        <ele>940.78735351562</ele>
        <time>2011-08-20T12:53:42Z</time>
      </trkpt>
      <trkpt lat="42.73555" lon="1.45689">
        <ele>940.78735351562</ele>
        <time>2011-08-20T12:53:50Z</time>
      </trkpt>
      <trkpt lat="42.73559" lon="1.45694">
        <ele>941.26806640625</ele>
        <time>2011-08-20T12:53:54Z</time>
      </trkpt>
      <trkpt lat="42.73561" lon="1.45704">
        <ele>941.74877929688</ele>
        <time>2011-08-20T12:54:00Z</time>
      </trkpt>
      <trkpt lat="42.73566" lon="1.45711">
        <ele>943.19067382812</ele>
        <time>2011-08-20T12:54:05Z</time>
      </trkpt>
      <trkpt lat="42.73573" lon="1.45713">
        <ele>940.30688476562</ele>
        <time>2011-08-20T12:54:12Z</time>
      </trkpt>
      <trkpt lat="42.73578" lon="1.45713">
        <ele>939.34521484375</ele>
        <time>2011-08-20T12:54:16Z</time>
      </trkpt>
      <trkpt lat="42.73584" lon="1.45717">
        <ele>942.2294921875</ele>
        <time>2011-08-20T12:54:22Z</time>
      </trkpt>
      <trkpt lat="42.73588" lon="1.4572">
        <ele>944.63256835938</ele>
        <time>2011-08-20T12:54:27Z</time>
      </trkpt>
      <trkpt lat="42.73594" lon="1.45724">
        <ele>945.11328125</ele>
        <time>2011-08-20T12:54:31Z</time>
      </trkpt>
      <trkpt lat="42.73599" lon="1.45727">
        <ele>944.15209960938</ele>
        <time>2011-08-20T12:54:36Z</time>
      </trkpt>
      <trkpt lat="42.73601" lon="1.45728">
        <ele>943.19067382812</ele>
        <time>2011-08-20T12:54:40Z</time>
      </trkpt>
      <trkpt lat="42.73604" lon="1.45729">
        <ele>943.19067382812</ele>
        <time>2011-08-20T12:54:43Z</time>
      </trkpt>
      <trkpt lat="42.7361" lon="1.45726">
        <ele>942.71020507812</ele>
        <time>2011-08-20T12:54:49Z</time>
      </trkpt>
      <trkpt lat="42.73616" lon="1.45725">
        <ele>944.15209960938</ele>
        <time>2011-08-20T12:54:54Z</time>
      </trkpt>
      <trkpt lat="42.73624" lon="1.45722">
        <ele>948.47778320312</ele>
        <time>2011-08-20T12:54:59Z</time>
      </trkpt>
      <trkpt lat="42.73626" lon="1.4572">
        <ele>947.5166015625</ele>
        <time>2011-08-20T12:55:03Z</time>
      </trkpt>
      <trkpt lat="42.73632" lon="1.45719">
        <ele>949.919921875</ele>
        <time>2011-08-20T12:55:08Z</time>
      </trkpt>
      <trkpt lat="42.73635" lon="1.45719">
        <ele>949.43920898438</ele>
        <time>2011-08-20T12:55:12Z</time>
      </trkpt>
      <trkpt lat="42.7364" lon="1.45718">
        <ele>948.47778320312</ele>
        <time>2011-08-20T12:55:17Z</time>
      </trkpt>
      <trkpt lat="42.73646" lon="1.45718">
        <ele>950.40063476562</ele>
        <time>2011-08-20T12:55:22Z</time>
      </trkpt>
      <trkpt lat="42.73651" lon="1.45718">
        <ele>950.40063476562</ele>
        <time>2011-08-20T12:55:27Z</time>
      </trkpt>
      <trkpt lat="42.73656" lon="1.45717">
        <ele>952.32299804688</ele>
        <time>2011-08-20T12:55:32Z</time>
      </trkpt>
      <trkpt lat="42.73664" lon="1.45718">
        <ele>953.76513671875</ele>
        <time>2011-08-20T12:55:36Z</time>
      </trkpt>
      <trkpt lat="42.73671" lon="1.45715">
        <ele>954.24584960938</ele>
        <time>2011-08-20T12:55:40Z</time>
      </trkpt>
      <trkpt lat="42.73686" lon="1.45706">
        <ele>955.20703125</ele>
        <time>2011-08-20T12:55:46Z</time>
      </trkpt>
      <trkpt lat="42.73692" lon="1.45709">
        <ele>952.32299804688</ele>
        <time>2011-08-20T12:55:51Z</time>
      </trkpt>
      <trkpt lat="42.73704" lon="1.45721">
        <ele>949.919921875</ele>
        <time>2011-08-20T12:55:57Z</time>
      </trkpt>
      <trkpt lat="42.73708" lon="1.45728">
        <ele>947.99731445312</ele>
        <time>2011-08-20T12:56:00Z</time>
      </trkpt>
      <trkpt lat="42.73709" lon="1.45732">
        <ele>947.99731445312</ele>
        <time>2011-08-20T12:56:03Z</time>
      </trkpt>
      <trkpt lat="42.73711" lon="1.45739">
        <ele>948.47778320312</ele>
        <time>2011-08-20T12:56:08Z</time>
      </trkpt>
      <trkpt lat="42.73712" lon="1.4575">
        <ele>950.88110351562</ele>
        <time>2011-08-20T12:56:16Z</time>
      </trkpt>
      <trkpt lat="42.73712" lon="1.45752">
        <ele>951.84252929688</ele>
        <time>2011-08-20T12:56:17Z</time>
      </trkpt>
      <trkpt lat="42.73716" lon="1.45755">
        <ele>953.76513671875</ele>
        <time>2011-08-20T12:56:21Z</time>
      </trkpt>
      <trkpt lat="42.73724" lon="1.45754">
        <ele>959.533203125</ele>
        <time>2011-08-20T12:56:26Z</time>
      </trkpt>
      <trkpt lat="42.73727" lon="1.45755">
        <ele>961.45581054688</ele>
        <time>2011-08-20T12:56:28Z</time>
      </trkpt>
      <trkpt lat="42.73737" lon="1.45759">
        <ele>957.1298828125</ele>
        <time>2011-08-20T12:56:34Z</time>
      </trkpt>
      <trkpt lat="42.7374" lon="1.4576">
        <ele>956.64916992188</ele>
        <time>2011-08-20T12:56:36Z</time>
      </trkpt>
      <trkpt lat="42.7375" lon="1.45764">
        <ele>952.8037109375</ele>
        <time>2011-08-20T12:56:41Z</time>
      </trkpt>
      <trkpt lat="42.73759" lon="1.45761">
        <ele>953.28442382812</ele>
        <time>2011-08-20T12:56:47Z</time>
      </trkpt>
      <trkpt lat="42.7376" lon="1.4576">
        <ele>953.28442382812</ele>
        <time>2011-08-20T12:56:48Z</time>
      </trkpt>
      <trkpt lat="42.73772" lon="1.45759">
        <ele>953.76513671875</ele>
        <time>2011-08-20T12:56:52Z</time>
      </trkpt>
      <trkpt lat="42.73786" lon="1.45755">
        <ele>951.36181640625</ele>
        <time>2011-08-20T12:56:58Z</time>
      </trkpt>
      <trkpt lat="42.73794" lon="1.45747">
        <ele>948.47778320312</ele>
        <time>2011-08-20T12:57:03Z</time>
      </trkpt>
      <trkpt lat="42.738" lon="1.45741">
        <ele>946.07470703125</ele>
        <time>2011-08-20T12:57:08Z</time>
      </trkpt>
      <trkpt lat="42.73806" lon="1.4574">
        <ele>943.19067382812</ele>
        <time>2011-08-20T12:57:12Z</time>
      </trkpt>
      <trkpt lat="42.73808" lon="1.45741">
        <ele>943.67138671875</ele>
        <time>2011-08-20T12:57:14Z</time>
      </trkpt>
      <trkpt lat="42.73814" lon="1.45747">
        <ele>945.59399414062</ele>
        <time>2011-08-20T12:57:20Z</time>
      </trkpt>
      <trkpt lat="42.73819" lon="1.45757">
        <ele>945.59399414062</ele>
        <time>2011-08-20T12:57:27Z</time>
      </trkpt>
      <trkpt lat="42.73822" lon="1.4576">
        <ele>945.59399414062</ele>
        <time>2011-08-20T12:57:29Z</time>
      </trkpt>
      <trkpt lat="42.73833" lon="1.45767">
        <ele>948.47778320312</ele>
        <time>2011-08-20T12:57:35Z</time>
      </trkpt>
      <trkpt lat="42.73839" lon="1.45771">
        <ele>950.40063476562</ele>
        <time>2011-08-20T12:57:40Z</time>
      </trkpt>
      <trkpt lat="42.7384" lon="1.45772">
        <ele>948.47778320312</ele>
        <time>2011-08-20T12:57:45Z</time>
      </trkpt>
      <trkpt lat="42.7384" lon="1.45773">
        <ele>945.59399414062</ele>
        <time>2011-08-20T12:57:52Z</time>
      </trkpt>
      <trkpt lat="42.73839" lon="1.45776">
        <ele>942.71020507812</ele>
        <time>2011-08-20T12:57:59Z</time>
      </trkpt>
      <trkpt lat="42.73841" lon="1.4578">
        <ele>940.78735351562</ele>
        <time>2011-08-20T12:58:07Z</time>
      </trkpt>
      <trkpt lat="42.73841" lon="1.45784">
        <ele>940.78735351562</ele>
        <time>2011-08-20T12:58:11Z</time>
      </trkpt>
      <trkpt lat="42.73841" lon="1.45787">
        <ele>940.30688476562</ele>
        <time>2011-08-20T12:58:15Z</time>
      </trkpt>
      <trkpt lat="42.73841" lon="1.45792">
        <ele>940.78735351562</ele>
        <time>2011-08-20T12:58:17Z</time>
      </trkpt>
      <trkpt lat="42.73839" lon="1.45801">
        <ele>937.9033203125</ele>
        <time>2011-08-20T12:58:22Z</time>
      </trkpt>
      <trkpt lat="42.73838" lon="1.45804">
        <ele>936.94189453125</ele>
        <time>2011-08-20T12:58:23Z</time>
      </trkpt>
      <trkpt lat="42.73832" lon="1.45817">
        <ele>933.57739257812</ele>
        <time>2011-08-20T12:58:27Z</time>
      </trkpt>
      <trkpt lat="42.73833" lon="1.45828">
        <ele>929.25146484375</ele>
        <time>2011-08-20T12:58:32Z</time>
      </trkpt>
      <trkpt lat="42.7384" lon="1.45836">
        <ele>933.0966796875</ele>
        <time>2011-08-20T12:58:35Z</time>
      </trkpt>
      <trkpt lat="42.73842" lon="1.45838">
        <ele>931.65478515625</ele>
        <time>2011-08-20T12:58:39Z</time>
      </trkpt>
      <trkpt lat="42.73848" lon="1.45844">
        <ele>930.212890625</ele>
        <time>2011-08-20T12:58:44Z</time>
      </trkpt>
      <trkpt lat="42.73849" lon="1.45852">
        <ele>926.84838867188</ele>
        <time>2011-08-20T12:58:49Z</time>
      </trkpt>
      <trkpt lat="42.73849" lon="1.45855">
        <ele>926.36767578125</ele>
        <time>2011-08-20T12:58:51Z</time>
      </trkpt>
      <trkpt lat="42.73851" lon="1.45859">
        <ele>924.44506835938</ele>
        <time>2011-08-20T12:58:54Z</time>
      </trkpt>
      <trkpt lat="42.73858" lon="1.45868">
        <ele>922.04150390625</ele>
        <time>2011-08-20T12:58:59Z</time>
      </trkpt>
      <trkpt lat="42.73864" lon="1.45873">
        <ele>920.11889648438</ele>
        <time>2011-08-20T12:59:03Z</time>
      </trkpt>
      <trkpt lat="42.73865" lon="1.45877">
        <ele>919.15771484375</ele>
        <time>2011-08-20T12:59:06Z</time>
      </trkpt>
      <trkpt lat="42.73869" lon="1.45884">
        <ele>917.23510742188</ele>
        <time>2011-08-20T12:59:11Z</time>
      </trkpt>
      <trkpt lat="42.73869" lon="1.45886">
        <ele>916.27368164062</ele>
        <time>2011-08-20T12:59:13Z</time>
      </trkpt>
      <trkpt lat="42.73867" lon="1.45898">
        <ele>913.87036132812</ele>
        <time>2011-08-20T12:59:19Z</time>
      </trkpt>
      <trkpt lat="42.73866" lon="1.459">
        <ele>913.38989257812</ele>
        <time>2011-08-20T12:59:20Z</time>
      </trkpt>
      <trkpt lat="42.73867" lon="1.45906">
        <ele>909.06396484375</ele>
        <time>2011-08-20T12:59:24Z</time>
      </trkpt>
      <trkpt lat="42.73869" lon="1.45908">
        <ele>907.14111328125</ele>
        <time>2011-08-20T12:59:26Z</time>
      </trkpt>
      <trkpt lat="42.73869" lon="1.45916">
        <ele>904.73779296875</ele>
        <time>2011-08-20T12:59:30Z</time>
      </trkpt>
      <trkpt lat="42.73874" lon="1.45925">
        <ele>904.73779296875</ele>
        <time>2011-08-20T12:59:34Z</time>
      </trkpt>
      <trkpt lat="42.73884" lon="1.4593">
        <ele>906.66040039062</ele>
        <time>2011-08-20T12:59:39Z</time>
      </trkpt>
      <trkpt lat="42.73892" lon="1.45934">
        <ele>906.1796875</ele>
        <time>2011-08-20T12:59:44Z</time>
      </trkpt>
      <trkpt lat="42.73901" lon="1.45944">
        <ele>905.21850585938</ele>
        <time>2011-08-20T12:59:50Z</time>
      </trkpt>
      <trkpt lat="42.73909" lon="1.45947">
        <ele>904.25732421875</ele>
        <time>2011-08-20T12:59:54Z</time>
      </trkpt>
      <trkpt lat="42.73913" lon="1.45949">
        <ele>905.21850585938</ele>
        <time>2011-08-20T12:59:56Z</time>
      </trkpt>
      <trkpt lat="42.73925" lon="1.45954">
        <ele>904.25732421875</ele>
        <time>2011-08-20T13:00:02Z</time>
      </trkpt>
      <trkpt lat="42.73926" lon="1.45955">
        <ele>904.25732421875</ele>
        <time>2011-08-20T13:00:03Z</time>
      </trkpt>
      <trkpt lat="42.73932" lon="1.45959">
        <ele>903.2958984375</ele>
        <time>2011-08-20T13:00:09Z</time>
      </trkpt>
      <trkpt lat="42.73934" lon="1.4596">
        <ele>901.37329101562</ele>
        <time>2011-08-20T13:00:12Z</time>
      </trkpt>
      <trkpt lat="42.73942" lon="1.45959">
        <ele>899.93139648438</ele>
        <time>2011-08-20T13:00:16Z</time>
      </trkpt>
      <trkpt lat="42.73952" lon="1.45964">
        <ele>897.04736328125</ele>
        <time>2011-08-20T13:00:22Z</time>
      </trkpt>
      <trkpt lat="42.73962" lon="1.4596">
        <ele>894.64404296875</ele>
        <time>2011-08-20T13:00:28Z</time>
      </trkpt>
      <trkpt lat="42.73964" lon="1.45959">
        <ele>894.64404296875</ele>
        <time>2011-08-20T13:00:29Z</time>
      </trkpt>
      <trkpt lat="42.73973" lon="1.45964">
        <ele>893.68286132812</ele>
        <time>2011-08-20T13:00:33Z</time>
      </trkpt>
      <trkpt lat="42.73978" lon="1.45972">
        <ele>891.279296875</ele>
        <time>2011-08-20T13:00:37Z</time>
      </trkpt>
      <trkpt lat="42.73987" lon="1.45983">
        <ele>892.24096679688</ele>
        <time>2011-08-20T13:00:42Z</time>
      </trkpt>
      <trkpt lat="42.73989" lon="1.45988">
        <ele>890.31811523438</ele>
        <time>2011-08-20T13:00:47Z</time>
      </trkpt>
      <trkpt lat="42.73993" lon="1.45992">
        <ele>888.87622070312</ele>
        <time>2011-08-20T13:00:51Z</time>
      </trkpt>
      <trkpt lat="42.74" lon="1.45998">
        <ele>888.87622070312</ele>
        <time>2011-08-20T13:00:56Z</time>
      </trkpt>
      <trkpt lat="42.74006" lon="1.46005">
        <ele>886.47290039062</ele>
        <time>2011-08-20T13:01:02Z</time>
      </trkpt>
      <trkpt lat="42.74007" lon="1.46007">
        <ele>885.51147460938</ele>
        <time>2011-08-20T13:01:03Z</time>
      </trkpt>
      <trkpt lat="42.74015" lon="1.46013">
        <ele>883.10815429688</ele>
        <time>2011-08-20T13:01:08Z</time>
      </trkpt>
      <trkpt lat="42.74021" lon="1.46021">
        <ele>880.705078125</ele>
        <time>2011-08-20T13:01:14Z</time>
      </trkpt>
      <trkpt lat="42.74025" lon="1.46024">
        <ele>880.22436523438</ele>
        <time>2011-08-20T13:01:18Z</time>
      </trkpt>
      <trkpt lat="42.74026" lon="1.46025">
        <ele>880.22436523438</ele>
        <time>2011-08-20T13:01:19Z</time>
      </trkpt>
      <trkpt lat="42.74031" lon="1.46026">
        <ele>880.22436523438</ele>
        <time>2011-08-20T13:01:22Z</time>
      </trkpt>
      <trkpt lat="42.74039" lon="1.46033">
        <ele>878.3017578125</ele>
        <time>2011-08-20T13:01:28Z</time>
      </trkpt>
      <trkpt lat="42.74042" lon="1.46035">
        <ele>877.34057617188</ele>
        <time>2011-08-20T13:01:30Z</time>
      </trkpt>
      <trkpt lat="42.74045" lon="1.46042">
        <ele>874.45629882812</ele>
        <time>2011-08-20T13:01:34Z</time>
      </trkpt>
      <trkpt lat="42.74049" lon="1.46046">
        <ele>872.53369140625</ele>
        <time>2011-08-20T13:01:37Z</time>
      </trkpt>
      <trkpt lat="42.74056" lon="1.46048">
        <ele>869.64990234375</ele>
        <time>2011-08-20T13:01:43Z</time>
      </trkpt>
      <trkpt lat="42.7406" lon="1.46052">
        <ele>867.72705078125</ele>
        <time>2011-08-20T13:01:47Z</time>
      </trkpt>
      <trkpt lat="42.74065" lon="1.46055">
        <ele>866.76586914062</ele>
        <time>2011-08-20T13:01:51Z</time>
      </trkpt>
      <trkpt lat="42.74072" lon="1.46058">
        <ele>865.8046875</ele>
        <time>2011-08-20T13:01:55Z</time>
      </trkpt>
      <trkpt lat="42.74074" lon="1.46059">
        <ele>865.32397460938</ele>
        <time>2011-08-20T13:01:56Z</time>
      </trkpt>
      <trkpt lat="42.74078" lon="1.46064">
        <ele>865.8046875</ele>
        <time>2011-08-20T13:01:58Z</time>
      </trkpt>
      <trkpt lat="42.74089" lon="1.46072">
        <ele>865.32397460938</ele>
        <time>2011-08-20T13:02:03Z</time>
      </trkpt>
      <trkpt lat="42.74096" lon="1.46077">
        <ele>863.4013671875</ele>
        <time>2011-08-20T13:02:07Z</time>
      </trkpt>
      <trkpt lat="42.74103" lon="1.4609">
        <ele>859.0751953125</ele>
        <time>2011-08-20T13:02:13Z</time>
      </trkpt>
      <trkpt lat="42.74112" lon="1.46095">
        <ele>858.11401367188</ele>
        <time>2011-08-20T13:02:17Z</time>
      </trkpt>
      <trkpt lat="42.74121" lon="1.46105">
        <ele>857.15258789062</ele>
        <time>2011-08-20T13:02:22Z</time>
      </trkpt>
      <trkpt lat="42.74127" lon="1.46113">
        <ele>857.63330078125</ele>
        <time>2011-08-20T13:02:27Z</time>
      </trkpt>
      <trkpt lat="42.74141" lon="1.4612">
        <ele>866.28515625</ele>
        <time>2011-08-20T13:02:33Z</time>
      </trkpt>
      <trkpt lat="42.74147" lon="1.46131">
        <ele>866.76586914062</ele>
        <time>2011-08-20T13:02:40Z</time>
      </trkpt>
      <trkpt lat="42.74148" lon="1.46135">
        <ele>867.24658203125</ele>
        <time>2011-08-20T13:02:42Z</time>
      </trkpt>
      <trkpt lat="42.74149" lon="1.46138">
        <ele>867.72705078125</ele>
        <time>2011-08-20T13:02:44Z</time>
      </trkpt>
      <trkpt lat="42.7415" lon="1.46143">
        <ele>868.20776367188</ele>
        <time>2011-08-20T13:02:47Z</time>
      </trkpt>
      <trkpt lat="42.7415" lon="1.46157">
        <ele>868.6884765625</ele>
        <time>2011-08-20T13:02:54Z</time>
      </trkpt>
      <trkpt lat="42.74152" lon="1.46159">
        <ele>867.72705078125</ele>
        <time>2011-08-20T13:02:56Z</time>
      </trkpt>
      <trkpt lat="42.7416" lon="1.46164">
        <ele>866.28515625</ele>
        <time>2011-08-20T13:03:02Z</time>
      </trkpt>
      <trkpt lat="42.74163" lon="1.46164">
        <ele>862.92065429688</ele>
        <time>2011-08-20T13:03:07Z</time>
      </trkpt>
      <trkpt lat="42.74168" lon="1.46165">
        <ele>861.95947265625</ele>
        <time>2011-08-20T13:03:09Z</time>
      </trkpt>
      <trkpt lat="42.74172" lon="1.46165">
        <ele>860.998046875</ele>
        <time>2011-08-20T13:03:11Z</time>
      </trkpt>
      <trkpt lat="42.7418" lon="1.46167">
        <ele>858.59448242188</ele>
        <time>2011-08-20T13:03:17Z</time>
      </trkpt>
      <trkpt lat="42.74181" lon="1.46168">
        <ele>858.59448242188</ele>
        <time>2011-08-20T13:03:18Z</time>
      </trkpt>
      <trkpt lat="42.74186" lon="1.46168">
        <ele>857.63330078125</ele>
        <time>2011-08-20T13:03:22Z</time>
      </trkpt>
      <trkpt lat="42.74191" lon="1.46169">
        <ele>857.15258789062</ele>
        <time>2011-08-20T13:03:26Z</time>
      </trkpt>
      <trkpt lat="42.74194" lon="1.4617">
        <ele>856.19116210938</ele>
        <time>2011-08-20T13:03:29Z</time>
      </trkpt>
      <trkpt lat="42.742" lon="1.46173">
        <ele>854.74926757812</ele>
        <time>2011-08-20T13:03:33Z</time>
      </trkpt>
      <trkpt lat="42.74203" lon="1.46174">
        <ele>854.26879882812</ele>
        <time>2011-08-20T13:03:35Z</time>
      </trkpt>
      <trkpt lat="42.74206" lon="1.4618">
        <ele>851.384765625</ele>
        <time>2011-08-20T13:03:39Z</time>
      </trkpt>
      <trkpt lat="42.74215" lon="1.46188">
        <ele>848.02026367188</ele>
        <time>2011-08-20T13:03:45Z</time>
      </trkpt>
      <trkpt lat="42.74224" lon="1.46194">
        <ele>844.65551757812</ele>
        <time>2011-08-20T13:03:52Z</time>
      </trkpt>
      <trkpt lat="42.74229" lon="1.46196">
        <ele>843.21337890625</ele>
        <time>2011-08-20T13:03:55Z</time>
      </trkpt>
      <trkpt lat="42.74236" lon="1.46196">
        <ele>840.32958984375</ele>
        <time>2011-08-20T13:04:00Z</time>
      </trkpt>
      <trkpt lat="42.74237" lon="1.46197">
        <ele>840.32958984375</ele>
        <time>2011-08-20T13:04:01Z</time>
      </trkpt>
      <trkpt lat="42.74241" lon="1.462">
        <ele>837.92626953125</ele>
        <time>2011-08-20T13:04:06Z</time>
      </trkpt>
      <trkpt lat="42.74248" lon="1.46202">
        <ele>837.44555664062</ele>
        <time>2011-08-20T13:04:10Z</time>
      </trkpt>
      <trkpt lat="42.74252" lon="1.46203">
        <ele>836.96484375</ele>
        <time>2011-08-20T13:04:13Z</time>
      </trkpt>
      <trkpt lat="42.74256" lon="1.46205">
        <ele>837.92626953125</ele>
        <time>2011-08-20T13:04:16Z</time>
      </trkpt>
      <trkpt lat="42.74258" lon="1.46207">
        <ele>837.92626953125</ele>
        <time>2011-08-20T13:04:18Z</time>
      </trkpt>
      <trkpt lat="42.74266" lon="1.46209">
        <ele>838.40698242188</ele>
        <time>2011-08-20T13:04:23Z</time>
      </trkpt>
      <trkpt lat="42.74276" lon="1.46212">
        <ele>837.92626953125</ele>
        <time>2011-08-20T13:04:29Z</time>
      </trkpt>
      <trkpt lat="42.74287" lon="1.46213">
        <ele>836.484375</ele>
        <time>2011-08-20T13:04:35Z</time>
      </trkpt>
      <trkpt lat="42.74282" lon="1.4622">
        <ele>836.00366210938</ele>
        <time>2011-08-20T13:04:40Z</time>
      </trkpt>
      <trkpt lat="42.74277" lon="1.46226">
        <ele>836.00366210938</ele>
        <time>2011-08-20T13:04:44Z</time>
      </trkpt>
      <trkpt lat="42.74274" lon="1.46236">
        <ele>836.96484375</ele>
        <time>2011-08-20T13:04:49Z</time>
      </trkpt>
      <trkpt lat="42.74273" lon="1.46248">
        <ele>838.40698242188</ele>
        <time>2011-08-20T13:04:54Z</time>
      </trkpt>
      <trkpt lat="42.74273" lon="1.46251">
        <ele>839.84887695312</ele>
        <time>2011-08-20T13:04:55Z</time>
      </trkpt>
      <trkpt lat="42.74281" lon="1.46257">
        <ele>846.57836914062</ele>
        <time>2011-08-20T13:05:02Z</time>
      </trkpt>
      <trkpt lat="42.74283" lon="1.46258">
        <ele>847.05883789062</ele>
        <time>2011-08-20T13:05:04Z</time>
      </trkpt>
      <trkpt lat="42.74285" lon="1.4626">
        <ele>848.02026367188</ele>
        <time>2011-08-20T13:05:07Z</time>
      </trkpt>
      <trkpt lat="42.74288" lon="1.46263">
        <ele>848.02026367188</ele>
        <time>2011-08-20T13:05:11Z</time>
      </trkpt>
      <trkpt lat="42.74291" lon="1.46269">
        <ele>847.05883789062</ele>
        <time>2011-08-20T13:05:18Z</time>
      </trkpt>
      <trkpt lat="42.74295" lon="1.46273">
        <ele>847.05883789062</ele>
        <time>2011-08-20T13:05:24Z</time>
      </trkpt>
      <trkpt lat="42.74296" lon="1.46274">
        <ele>846.09765625</ele>
        <time>2011-08-20T13:05:31Z</time>
      </trkpt>
      <trkpt lat="42.74295" lon="1.46274">
        <ele>843.21337890625</ele>
        <time>2011-08-20T13:05:42Z</time>
      </trkpt>
      <trkpt lat="42.74296" lon="1.46274">
        <ele>843.69409179688</ele>
        <time>2011-08-20T13:05:56Z</time>
      </trkpt>
      <trkpt lat="42.74298" lon="1.46276">
        <ele>843.21337890625</ele>
        <time>2011-08-20T13:06:02Z</time>
      </trkpt>
      <trkpt lat="42.74302" lon="1.46277">
        <ele>843.21337890625</ele>
        <time>2011-08-20T13:06:05Z</time>
      </trkpt>
      <trkpt lat="42.74309" lon="1.46281">
        <ele>843.69409179688</ele>
        <time>2011-08-20T13:06:10Z</time>
      </trkpt>
      <trkpt lat="42.74314" lon="1.46283">
        <ele>843.21337890625</ele>
        <time>2011-08-20T13:06:12Z</time>
      </trkpt>
      <trkpt lat="42.74324" lon="1.46296">
        <ele>841.771484375</ele>
        <time>2011-08-20T13:06:17Z</time>
      </trkpt>
      <trkpt lat="42.74332" lon="1.46308">
        <ele>840.81005859375</ele>
        <time>2011-08-20T13:06:21Z</time>
      </trkpt>
      <trkpt lat="42.7434" lon="1.46324">
        <ele>838.8876953125</ele>
        <time>2011-08-20T13:06:26Z</time>
      </trkpt>
      <trkpt lat="42.74342" lon="1.46331">
        <ele>838.40698242188</ele>
        <time>2011-08-20T13:06:28Z</time>
      </trkpt>
      <trkpt lat="42.74353" lon="1.46354">
        <ele>836.00366210938</ele>
        <time>2011-08-20T13:06:35Z</time>
      </trkpt>
      <trkpt lat="42.74362" lon="1.46378">
        <ele>833.11962890625</ele>
        <time>2011-08-20T13:06:42Z</time>
      </trkpt>
      <trkpt lat="42.7437" lon="1.46398">
        <ele>830.71655273438</ele>
        <time>2011-08-20T13:06:48Z</time>
      </trkpt>
      <trkpt lat="42.74377" lon="1.46411">
        <ele>829.75512695312</ele>
        <time>2011-08-20T13:06:52Z</time>
      </trkpt>
      <trkpt lat="42.74384" lon="1.46425">
        <ele>827.83227539062</ele>
        <time>2011-08-20T13:06:57Z</time>
      </trkpt>
      <trkpt lat="42.74393" lon="1.46439">
        <ele>825.90966796875</ele>
        <time>2011-08-20T13:07:02Z</time>
      </trkpt>
      <trkpt lat="42.74402" lon="1.46454">
        <ele>824.94848632812</ele>
        <time>2011-08-20T13:07:07Z</time>
      </trkpt>
      <trkpt lat="42.74409" lon="1.46469">
        <ele>823.98706054688</ele>
        <time>2011-08-20T13:07:12Z</time>
      </trkpt>
      <trkpt lat="42.74414" lon="1.46485">
        <ele>823.50659179688</ele>
        <time>2011-08-20T13:07:17Z</time>
      </trkpt>
      <trkpt lat="42.74419" lon="1.465">
        <ele>823.50659179688</ele>
        <time>2011-08-20T13:07:22Z</time>
      </trkpt>
      <trkpt lat="42.74422" lon="1.46512">
        <ele>823.50659179688</ele>
        <time>2011-08-20T13:07:26Z</time>
      </trkpt>
      <trkpt lat="42.74429" lon="1.46528">
        <ele>823.02587890625</ele>
        <time>2011-08-20T13:07:32Z</time>
      </trkpt>
      <trkpt lat="42.7443" lon="1.4653">
        <ele>823.02587890625</ele>
        <time>2011-08-20T13:07:33Z</time>
      </trkpt>
      <trkpt lat="42.74433" lon="1.46539">
        <ele>821.58374023438</ele>
        <time>2011-08-20T13:07:38Z</time>
      </trkpt>
      <trkpt lat="42.7444" lon="1.46552">
        <ele>823.98706054688</ele>
        <time>2011-08-20T13:07:46Z</time>
      </trkpt>
      <trkpt lat="42.74448" lon="1.46564">
        <ele>825.90966796875</ele>
        <time>2011-08-20T13:07:53Z</time>
      </trkpt>
      <trkpt lat="42.7445" lon="1.46565">
        <ele>826.39038085938</ele>
        <time>2011-08-20T13:07:54Z</time>
      </trkpt>
      <trkpt lat="42.74456" lon="1.46576">
        <ele>827.83227539062</ele>
        <time>2011-08-20T13:08:01Z</time>
      </trkpt>
      <trkpt lat="42.74462" lon="1.46587">
        <ele>827.35180664062</ele>
        <time>2011-08-20T13:08:08Z</time>
      </trkpt>
      <trkpt lat="42.74464" lon="1.46594">
        <ele>825.90966796875</ele>
        <time>2011-08-20T13:08:12Z</time>
      </trkpt>
      <trkpt lat="42.74469" lon="1.46603">
        <ele>824.4677734375</ele>
        <time>2011-08-20T13:08:16Z</time>
      </trkpt>
      <trkpt lat="42.74471" lon="1.46606">
        <ele>824.4677734375</ele>
        <time>2011-08-20T13:08:17Z</time>
      </trkpt>
      <trkpt lat="42.74473" lon="1.46612">
        <ele>823.50659179688</ele>
        <time>2011-08-20T13:08:19Z</time>
      </trkpt>
      <trkpt lat="42.74481" lon="1.46631">
        <ele>820.62255859375</ele>
        <time>2011-08-20T13:08:25Z</time>
      </trkpt>
      <trkpt lat="42.74488" lon="1.46644">
        <ele>818.69995117188</ele>
        <time>2011-08-20T13:08:30Z</time>
      </trkpt>
      <trkpt lat="42.74492" lon="1.46654">
        <ele>818.21923828125</ele>
        <time>2011-08-20T13:08:33Z</time>
      </trkpt>
      <trkpt lat="42.74497" lon="1.46669">
        <ele>817.73852539062</ele>
        <time>2011-08-20T13:08:38Z</time>
      </trkpt>
      <trkpt lat="42.74502" lon="1.46688">
        <ele>816.77734375</ele>
        <time>2011-08-20T13:08:44Z</time>
      </trkpt>
      <trkpt lat="42.74508" lon="1.46703">
        <ele>815.33544921875</ele>
        <time>2011-08-20T13:08:49Z</time>
      </trkpt>
      <trkpt lat="42.74516" lon="1.46718">
        <ele>814.3740234375</ele>
        <time>2011-08-20T13:08:54Z</time>
      </trkpt>
      <trkpt lat="42.7452" lon="1.46728">
        <ele>813.89331054688</ele>
        <time>2011-08-20T13:08:57Z</time>
      </trkpt>
      <trkpt lat="42.74526" lon="1.46735">
        <ele>812.93212890625</ele>
        <time>2011-08-20T13:09:01Z</time>
      </trkpt>
      <trkpt lat="42.7453" lon="1.46729">
        <ele>812.45141601562</ele>
        <time>2011-08-20T13:09:04Z</time>
      </trkpt>
      <trkpt lat="42.74538" lon="1.46714">
        <ele>813.41284179688</ele>
        <time>2011-08-20T13:09:10Z</time>
      </trkpt>
      <trkpt lat="42.74539" lon="1.46713">
        <ele>813.41284179688</ele>
        <time>2011-08-20T13:09:11Z</time>
      </trkpt>
      <trkpt lat="42.74546" lon="1.4672">
        <ele>812.93212890625</ele>
        <time>2011-08-20T13:09:15Z</time>
      </trkpt>
      <trkpt lat="42.74549" lon="1.46734">
        <ele>811.970703125</ele>
        <time>2011-08-20T13:09:19Z</time>
      </trkpt>
      <trkpt lat="42.74556" lon="1.46751">
        <ele>811.48999023438</ele>
        <time>2011-08-20T13:09:25Z</time>
      </trkpt>
      <trkpt lat="42.7456" lon="1.46757">
        <ele>811.00927734375</ele>
        <time>2011-08-20T13:09:28Z</time>
      </trkpt>
      <trkpt lat="42.74567" lon="1.46767">
        <ele>811.00927734375</ele>
        <time>2011-08-20T13:09:32Z</time>
      </trkpt>
      <trkpt lat="42.74579" lon="1.46778">
        <ele>810.52856445312</ele>
        <time>2011-08-20T13:09:38Z</time>
      </trkpt>
      <trkpt lat="42.74589" lon="1.46785">
        <ele>810.52856445312</ele>
        <time>2011-08-20T13:09:42Z</time>
      </trkpt>
      <trkpt lat="42.74599" lon="1.46791">
        <ele>813.41284179688</ele>
        <time>2011-08-20T13:09:47Z</time>
      </trkpt>
      <trkpt lat="42.74606" lon="1.46794">
        <ele>816.29663085938</ele>
        <time>2011-08-20T13:09:51Z</time>
      </trkpt>
      <trkpt lat="42.74618" lon="1.468">
        <ele>816.29663085938</ele>
        <time>2011-08-20T13:09:56Z</time>
      </trkpt>
      <trkpt lat="42.74628" lon="1.46808">
        <ele>815.33544921875</ele>
        <time>2011-08-20T13:10:01Z</time>
      </trkpt>
      <trkpt lat="42.74636" lon="1.46814">
        <ele>813.89331054688</ele>
        <time>2011-08-20T13:10:05Z</time>
      </trkpt>
      <trkpt lat="42.74645" lon="1.46824">
        <ele>812.93212890625</ele>
        <time>2011-08-20T13:10:09Z</time>
      </trkpt>
      <trkpt lat="42.74654" lon="1.46835">
        <ele>812.93212890625</ele>
        <time>2011-08-20T13:10:13Z</time>
      </trkpt>
      <trkpt lat="42.74662" lon="1.46847">
        <ele>813.41284179688</ele>
        <time>2011-08-20T13:10:18Z</time>
      </trkpt>
      <trkpt lat="42.74673" lon="1.46859">
        <ele>812.93212890625</ele>
        <time>2011-08-20T13:10:23Z</time>
      </trkpt>
      <trkpt lat="42.7468" lon="1.4687">
        <ele>812.45141601562</ele>
        <time>2011-08-20T13:10:27Z</time>
      </trkpt>
      <trkpt lat="42.74688" lon="1.46878">
        <ele>812.93212890625</ele>
        <time>2011-08-20T13:10:31Z</time>
      </trkpt>
      <trkpt lat="42.74694" lon="1.46885">
        <ele>812.45141601562</ele>
        <time>2011-08-20T13:10:35Z</time>
      </trkpt>
      <trkpt lat="42.74703" lon="1.46897">
        <ele>811.48999023438</ele>
        <time>2011-08-20T13:10:40Z</time>
      </trkpt>
      <trkpt lat="42.74709" lon="1.46906">
        <ele>809.5673828125</ele>
        <time>2011-08-20T13:10:43Z</time>
      </trkpt>
      <trkpt lat="42.74718" lon="1.46921">
        <ele>808.12548828125</ele>
        <time>2011-08-20T13:10:49Z</time>
      </trkpt>
      <trkpt lat="42.74725" lon="1.46933">
        <ele>806.68334960938</ele>
        <time>2011-08-20T13:10:53Z</time>
      </trkpt>
      <trkpt lat="42.74726" lon="1.46936">
        <ele>805.72216796875</ele>
        <time>2011-08-20T13:10:55Z</time>
      </trkpt>
      <trkpt lat="42.74722" lon="1.46929">
        <ele>805.24145507812</ele>
        <time>2011-08-20T13:11:02Z</time>
      </trkpt>
      <trkpt lat="42.74729" lon="1.4693">
        <ele>805.24145507812</ele>
        <time>2011-08-20T13:11:06Z</time>
      </trkpt>
      <trkpt lat="42.74731" lon="1.46931">
        <ele>805.24145507812</ele>
        <time>2011-08-20T13:11:07Z</time>
      </trkpt>
      <trkpt lat="42.74743" lon="1.46934">
        <ele>803.79956054688</ele>
        <time>2011-08-20T13:11:12Z</time>
      </trkpt>
      <trkpt lat="42.74751" lon="1.46936">
        <ele>803.79956054688</ele>
        <time>2011-08-20T13:11:16Z</time>
      </trkpt>
      <trkpt lat="42.74755" lon="1.46936">
        <ele>804.2802734375</ele>
        <time>2011-08-20T13:11:18Z</time>
      </trkpt>
      <trkpt lat="42.74771" lon="1.4694">
        <ele>804.7607421875</ele>
        <time>2011-08-20T13:11:24Z</time>
      </trkpt>
      <trkpt lat="42.74777" lon="1.46942">
        <ele>805.24145507812</ele>
        <time>2011-08-20T13:11:27Z</time>
      </trkpt>
      <trkpt lat="42.74789" lon="1.46944">
        <ele>804.7607421875</ele>
        <time>2011-08-20T13:11:32Z</time>
      </trkpt>
      <trkpt lat="42.74797" lon="1.46948">
        <ele>805.72216796875</ele>
        <time>2011-08-20T13:11:36Z</time>
      </trkpt>
      <trkpt lat="42.74806" lon="1.46958">
        <ele>806.68334960938</ele>
        <time>2011-08-20T13:11:41Z</time>
      </trkpt>
      <trkpt lat="42.74814" lon="1.46966">
        <ele>809.5673828125</ele>
        <time>2011-08-20T13:11:45Z</time>
      </trkpt>
      <trkpt lat="42.74816" lon="1.46968">
        <ele>810.0478515625</ele>
        <time>2011-08-20T13:11:46Z</time>
      </trkpt>
      <trkpt lat="42.74828" lon="1.46982">
        <ele>812.93212890625</ele>
        <time>2011-08-20T13:11:51Z</time>
      </trkpt>
      <trkpt lat="42.74831" lon="1.46992">
        <ele>817.73852539062</ele>
        <time>2011-08-20T13:11:55Z</time>
      </trkpt>
      <trkpt lat="42.74837" lon="1.47005">
        <ele>819.1806640625</ele>
        <time>2011-08-20T13:12:00Z</time>
      </trkpt>
      <trkpt lat="42.74836" lon="1.47011">
        <ele>817.25805664062</ele>
        <time>2011-08-20T13:12:02Z</time>
      </trkpt>
      <trkpt lat="42.74838" lon="1.47024">
        <ele>816.29663085938</ele>
        <time>2011-08-20T13:12:07Z</time>
      </trkpt>
      <trkpt lat="42.74844" lon="1.47042">
        <ele>814.3740234375</ele>
        <time>2011-08-20T13:12:12Z</time>
      </trkpt>
      <trkpt lat="42.74842" lon="1.47054">
        <ele>811.48999023438</ele>
        <time>2011-08-20T13:12:16Z</time>
      </trkpt>
      <trkpt lat="42.74841" lon="1.47066">
        <ele>810.0478515625</ele>
        <time>2011-08-20T13:12:22Z</time>
      </trkpt>
      <trkpt lat="42.74841" lon="1.4707">
        <ele>809.5673828125</ele>
        <time>2011-08-20T13:12:26Z</time>
      </trkpt>
      <trkpt lat="42.74843" lon="1.47078">
        <ele>810.0478515625</ele>
        <time>2011-08-20T13:12:31Z</time>
      </trkpt>
      <trkpt lat="42.74844" lon="1.4708">
        <ele>809.08666992188</ele>
        <time>2011-08-20T13:12:32Z</time>
      </trkpt>
      <trkpt lat="42.74846" lon="1.47084">
        <ele>811.48999023438</ele>
        <time>2011-08-20T13:12:35Z</time>
      </trkpt>
      <trkpt lat="42.7485" lon="1.47092">
        <ele>814.3740234375</ele>
        <time>2011-08-20T13:12:40Z</time>
      </trkpt>
      <trkpt lat="42.74857" lon="1.47105">
        <ele>810.52856445312</ele>
        <time>2011-08-20T13:12:48Z</time>
      </trkpt>
      <trkpt lat="42.74864" lon="1.47114">
        <ele>806.20263671875</ele>
        <time>2011-08-20T13:12:55Z</time>
      </trkpt>
      <trkpt lat="42.74866" lon="1.47117">
        <ele>805.24145507812</ele>
        <time>2011-08-20T13:12:57Z</time>
      </trkpt>
      <trkpt lat="42.74872" lon="1.47125">
        <ele>804.7607421875</ele>
        <time>2011-08-20T13:13:02Z</time>
      </trkpt>
      <trkpt lat="42.74881" lon="1.47142">
        <ele>802.357421875</ele>
        <time>2011-08-20T13:13:08Z</time>
      </trkpt>
      <trkpt lat="42.74891" lon="1.47154">
        <ele>806.20263671875</ele>
        <time>2011-08-20T13:13:13Z</time>
      </trkpt>
      <trkpt lat="42.74899" lon="1.47167">
        <ele>803.79956054688</ele>
        <time>2011-08-20T13:13:19Z</time>
      </trkpt>
      <trkpt lat="42.74908" lon="1.47184">
        <ele>799.95434570312</ele>
        <time>2011-08-20T13:13:26Z</time>
      </trkpt>
      <trkpt lat="42.74915" lon="1.47198">
        <ele>798.99291992188</ele>
        <time>2011-08-20T13:13:31Z</time>
      </trkpt>
      <trkpt lat="42.74918" lon="1.47204">
        <ele>799.95434570312</ele>
        <time>2011-08-20T13:13:33Z</time>
      </trkpt>
      <trkpt lat="42.74926" lon="1.47222">
        <ele>798.51220703125</ele>
        <time>2011-08-20T13:13:39Z</time>
      </trkpt>
      <trkpt lat="42.74928" lon="1.47225">
        <ele>798.51220703125</ele>
        <time>2011-08-20T13:13:40Z</time>
      </trkpt>
      <trkpt lat="42.74937" lon="1.47236">
        <ele>797.0703125</ele>
        <time>2011-08-20T13:13:45Z</time>
      </trkpt>
      <trkpt lat="42.74939" lon="1.47239">
        <ele>796.58984375</ele>
        <time>2011-08-20T13:13:46Z</time>
      </trkpt>
      <trkpt lat="42.74948" lon="1.47253">
        <ele>795.62817382812</ele>
        <time>2011-08-20T13:13:52Z</time>
      </trkpt>
      <trkpt lat="42.74955" lon="1.47264">
        <ele>795.62817382812</ele>
        <time>2011-08-20T13:13:57Z</time>
      </trkpt>
      <trkpt lat="42.74965" lon="1.47274">
        <ele>795.62817382812</ele>
        <time>2011-08-20T13:14:02Z</time>
      </trkpt>
      <trkpt lat="42.74969" lon="1.47278">
        <ele>795.62817382812</ele>
        <time>2011-08-20T13:14:05Z</time>
      </trkpt>
      <trkpt lat="42.74976" lon="1.47283">
        <ele>796.58984375</ele>
        <time>2011-08-20T13:14:10Z</time>
      </trkpt>
      <trkpt lat="42.74984" lon="1.47287">
        <ele>797.0703125</ele>
        <time>2011-08-20T13:14:16Z</time>
      </trkpt>
      <trkpt lat="42.74994" lon="1.47293">
        <ele>799.4736328125</ele>
        <time>2011-08-20T13:14:23Z</time>
      </trkpt>
      <trkpt lat="42.75" lon="1.47299">
        <ele>799.95434570312</ele>
        <time>2011-08-20T13:14:29Z</time>
      </trkpt>
      <trkpt lat="42.75007" lon="1.47303">
        <ele>800.91552734375</ele>
        <time>2011-08-20T13:14:34Z</time>
      </trkpt>
      <trkpt lat="42.75018" lon="1.47307">
        <ele>801.39624023438</ele>
        <time>2011-08-20T13:14:42Z</time>
      </trkpt>
      <trkpt lat="42.75025" lon="1.47307">
        <ele>799.4736328125</ele>
        <time>2011-08-20T13:14:48Z</time>
      </trkpt>
      <trkpt lat="42.7503" lon="1.4731">
        <ele>798.03173828125</ele>
        <time>2011-08-20T13:14:52Z</time>
      </trkpt>
      <trkpt lat="42.75041" lon="1.47311">
        <ele>796.10913085938</ele>
        <time>2011-08-20T13:14:57Z</time>
      </trkpt>
      <trkpt lat="42.7505" lon="1.4731">
        <ele>795.1474609375</ele>
        <time>2011-08-20T13:15:01Z</time>
      </trkpt>
      <trkpt lat="42.75068" lon="1.47308">
        <ele>792.263671875</ele>
        <time>2011-08-20T13:15:08Z</time>
      </trkpt>
      <trkpt lat="42.75079" lon="1.47305">
        <ele>791.78295898438</ele>
        <time>2011-08-20T13:15:13Z</time>
      </trkpt>
      <trkpt lat="42.7509" lon="1.47303">
        <ele>793.22485351562</ele>
        <time>2011-08-20T13:15:19Z</time>
      </trkpt>
      <trkpt lat="42.75098" lon="1.473">
        <ele>794.66674804688</ele>
        <time>2011-08-20T13:15:24Z</time>
      </trkpt>
      <trkpt lat="42.75108" lon="1.47292">
        <ele>797.55102539062</ele>
        <time>2011-08-20T13:15:33Z</time>
      </trkpt>
      <trkpt lat="42.75114" lon="1.47285">
        <ele>798.03173828125</ele>
        <time>2011-08-20T13:15:39Z</time>
      </trkpt>
      <trkpt lat="42.75117" lon="1.47279">
        <ele>798.51220703125</ele>
        <time>2011-08-20T13:15:44Z</time>
      </trkpt>
      <trkpt lat="42.75122" lon="1.47273">
        <ele>799.4736328125</ele>
        <time>2011-08-20T13:15:49Z</time>
      </trkpt>
      <trkpt lat="42.75127" lon="1.47274">
        <ele>798.99291992188</ele>
        <time>2011-08-20T13:15:53Z</time>
      </trkpt>
      <trkpt lat="42.75134" lon="1.47277">
        <ele>799.4736328125</ele>
        <time>2011-08-20T13:16:00Z</time>
      </trkpt>
      <trkpt lat="42.75136" lon="1.4728">
        <ele>798.99291992188</ele>
        <time>2011-08-20T13:16:02Z</time>
      </trkpt>
      <trkpt lat="42.75147" lon="1.47288">
        <ele>797.0703125</ele>
        <time>2011-08-20T13:16:08Z</time>
      </trkpt>
      <trkpt lat="42.75156" lon="1.47292">
        <ele>796.10913085938</ele>
        <time>2011-08-20T13:16:12Z</time>
      </trkpt>
      <trkpt lat="42.75166" lon="1.47297">
        <ele>796.10913085938</ele>
        <time>2011-08-20T13:16:16Z</time>
      </trkpt>
      <trkpt lat="42.75176" lon="1.47302">
        <ele>795.62817382812</ele>
        <time>2011-08-20T13:16:21Z</time>
      </trkpt>
      <trkpt lat="42.75183" lon="1.47308">
        <ele>794.66674804688</ele>
        <time>2011-08-20T13:16:25Z</time>
      </trkpt>
      <trkpt lat="42.75185" lon="1.4731">
        <ele>794.18627929688</ele>
        <time>2011-08-20T13:16:26Z</time>
      </trkpt>
      <trkpt lat="42.75198" lon="1.47323">
        <ele>792.74438476562</ele>
        <time>2011-08-20T13:16:32Z</time>
      </trkpt>
      <trkpt lat="42.75207" lon="1.47332">
        <ele>792.74438476562</ele>
        <time>2011-08-20T13:16:37Z</time>
      </trkpt>
      <trkpt lat="42.75211" lon="1.47339">
        <ele>792.263671875</ele>
        <time>2011-08-20T13:16:40Z</time>
      </trkpt>
      <trkpt lat="42.75223" lon="1.47355">
        <ele>791.78295898438</ele>
        <time>2011-08-20T13:16:47Z</time>
      </trkpt>
      <trkpt lat="42.75232" lon="1.47371">
        <ele>790.34106445312</ele>
        <time>2011-08-20T13:16:53Z</time>
      </trkpt>
      <trkpt lat="42.75243" lon="1.47384">
        <ele>791.78295898438</ele>
        <time>2011-08-20T13:16:59Z</time>
      </trkpt>
      <trkpt lat="42.75252" lon="1.47397">
        <ele>794.18627929688</ele>
        <time>2011-08-20T13:17:04Z</time>
      </trkpt>
      <trkpt lat="42.75257" lon="1.47404">
        <ele>795.1474609375</ele>
        <time>2011-08-20T13:17:07Z</time>
      </trkpt>
      <trkpt lat="42.75264" lon="1.47407">
        <ele>794.66674804688</ele>
        <time>2011-08-20T13:17:11Z</time>
      </trkpt>
      <trkpt lat="42.7528" lon="1.4741">
        <ele>799.4736328125</ele>
        <time>2011-08-20T13:17:18Z</time>
      </trkpt>
      <trkpt lat="42.75285" lon="1.4741">
        <ele>799.4736328125</ele>
        <time>2011-08-20T13:17:21Z</time>
      </trkpt>
      <trkpt lat="42.75296" lon="1.47408">
        <ele>796.58984375</ele>
        <time>2011-08-20T13:17:27Z</time>
      </trkpt>
      <trkpt lat="42.75298" lon="1.47408">
        <ele>797.0703125</ele>
        <time>2011-08-20T13:17:28Z</time>
      </trkpt>
      <trkpt lat="42.75304" lon="1.47407">
        <ele>797.0703125</ele>
        <time>2011-08-20T13:17:31Z</time>
      </trkpt>
      <trkpt lat="42.75306" lon="1.47405">
        <ele>796.58984375</ele>
        <time>2011-08-20T13:17:33Z</time>
      </trkpt>
      <trkpt lat="42.75316" lon="1.47404">
        <ele>795.1474609375</ele>
        <time>2011-08-20T13:17:38Z</time>
      </trkpt>
      <trkpt lat="42.7532" lon="1.47402">
        <ele>794.18627929688</ele>
        <time>2011-08-20T13:17:40Z</time>
      </trkpt>
      <trkpt lat="42.7533" lon="1.47394">
        <ele>791.30224609375</ele>
        <time>2011-08-20T13:17:46Z</time>
      </trkpt>
      <trkpt lat="42.75338" lon="1.4739">
        <ele>790.82153320312</ele>
        <time>2011-08-20T13:17:50Z</time>
      </trkpt>
      <trkpt lat="42.75342" lon="1.47389">
        <ele>788.89916992188</ele>
        <time>2011-08-20T13:17:54Z</time>
      </trkpt>
      <trkpt lat="42.75349" lon="1.47391">
        <ele>787.45703125</ele>
        <time>2011-08-20T13:18:00Z</time>
      </trkpt>
      <trkpt lat="42.75358" lon="1.47392">
        <ele>786.49584960938</ele>
        <time>2011-08-20T13:18:07Z</time>
      </trkpt>
      <trkpt lat="42.75366" lon="1.47394">
        <ele>786.97631835938</ele>
        <time>2011-08-20T13:18:12Z</time>
      </trkpt>
      <trkpt lat="42.7538" lon="1.47398">
        <ele>787.45703125</ele>
        <time>2011-08-20T13:18:18Z</time>
      </trkpt>
      <trkpt lat="42.754" lon="1.47401">
        <ele>788.41845703125</ele>
        <time>2011-08-20T13:18:24Z</time>
      </trkpt>
      <trkpt lat="42.75416" lon="1.47404">
        <ele>789.37963867188</ele>
        <time>2011-08-20T13:18:29Z</time>
      </trkpt>
      <trkpt lat="42.75425" lon="1.474">
        <ele>789.8603515625</ele>
        <time>2011-08-20T13:18:34Z</time>
      </trkpt>
      <trkpt lat="42.75428" lon="1.474">
        <ele>789.8603515625</ele>
        <time>2011-08-20T13:18:35Z</time>
      </trkpt>
      <trkpt lat="42.75439" lon="1.47408">
        <ele>790.82153320312</ele>
        <time>2011-08-20T13:18:40Z</time>
      </trkpt>
      <trkpt lat="42.75443" lon="1.47411">
        <ele>791.30224609375</ele>
        <time>2011-08-20T13:18:42Z</time>
      </trkpt>
      <trkpt lat="42.75452" lon="1.4742">
        <ele>798.03173828125</ele>
        <time>2011-08-20T13:18:46Z</time>
      </trkpt>
      <trkpt lat="42.75451" lon="1.47422">
        <ele>796.58984375</ele>
        <time>2011-08-20T13:18:48Z</time>
      </trkpt>
      <trkpt lat="42.75449" lon="1.47427">
        <ele>793.22485351562</ele>
        <time>2011-08-20T13:18:52Z</time>
      </trkpt>
      <trkpt lat="42.75459" lon="1.47432">
        <ele>792.74438476562</ele>
        <time>2011-08-20T13:18:58Z</time>
      </trkpt>
      <trkpt lat="42.75468" lon="1.47434">
        <ele>792.263671875</ele>
        <time>2011-08-20T13:19:03Z</time>
      </trkpt>
      <trkpt lat="42.75472" lon="1.47434">
        <ele>790.82153320312</ele>
        <time>2011-08-20T13:19:06Z</time>
      </trkpt>
      <trkpt lat="42.75483" lon="1.47435">
        <ele>789.8603515625</ele>
        <time>2011-08-20T13:19:11Z</time>
      </trkpt>
      <trkpt lat="42.75491" lon="1.47432">
        <ele>788.89916992188</ele>
        <time>2011-08-20T13:19:17Z</time>
      </trkpt>
      <trkpt lat="42.75499" lon="1.47434">
        <ele>789.8603515625</ele>
        <time>2011-08-20T13:19:22Z</time>
      </trkpt>
      <trkpt lat="42.75504" lon="1.47439">
        <ele>791.78295898438</ele>
        <time>2011-08-20T13:19:26Z</time>
      </trkpt>
      <trkpt lat="42.75512" lon="1.47447">
        <ele>796.58984375</ele>
        <time>2011-08-20T13:19:31Z</time>
      </trkpt>
      <trkpt lat="42.75515" lon="1.47451">
        <ele>798.03173828125</ele>
        <time>2011-08-20T13:19:34Z</time>
      </trkpt>
      <trkpt lat="42.75518" lon="1.47456">
        <ele>797.0703125</ele>
        <time>2011-08-20T13:19:38Z</time>
      </trkpt>
      <trkpt lat="42.75522" lon="1.47462">
        <ele>797.0703125</ele>
        <time>2011-08-20T13:19:44Z</time>
      </trkpt>
      <trkpt lat="42.75529" lon="1.47477">
        <ele>798.51220703125</ele>
        <time>2011-08-20T13:19:49Z</time>
      </trkpt>
      <trkpt lat="42.75531" lon="1.47489">
        <ele>797.0703125</ele>
        <time>2011-08-20T13:19:53Z</time>
      </trkpt>
      <trkpt lat="42.75537" lon="1.47504">
        <ele>795.62817382812</ele>
        <time>2011-08-20T13:19:58Z</time>
      </trkpt>
      <trkpt lat="42.75538" lon="1.47508">
        <ele>795.62817382812</ele>
        <time>2011-08-20T13:19:59Z</time>
      </trkpt>
      <trkpt lat="42.75542" lon="1.47522">
        <ele>793.22485351562</ele>
        <time>2011-08-20T13:20:04Z</time>
      </trkpt>
      <trkpt lat="42.75547" lon="1.47527">
        <ele>791.30224609375</ele>
        <time>2011-08-20T13:20:08Z</time>
      </trkpt>
      <trkpt lat="42.7555" lon="1.4753">
        <ele>789.37963867188</ele>
        <time>2011-08-20T13:20:11Z</time>
      </trkpt>
      <trkpt lat="42.75556" lon="1.47541">
        <ele>786.01513671875</ele>
        <time>2011-08-20T13:20:16Z</time>
      </trkpt>
      <trkpt lat="42.75559" lon="1.47545">
        <ele>785.53442382812</ele>
        <time>2011-08-20T13:20:20Z</time>
      </trkpt>
      <trkpt lat="42.75573" lon="1.47547">
        <ele>785.53442382812</ele>
        <time>2011-08-20T13:20:27Z</time>
      </trkpt>
      <trkpt lat="42.75578" lon="1.47548">
        <ele>786.49584960938</ele>
        <time>2011-08-20T13:20:29Z</time>
      </trkpt>
      <trkpt lat="42.75588" lon="1.47551">
        <ele>785.05395507812</ele>
        <time>2011-08-20T13:20:34Z</time>
      </trkpt>
      <trkpt lat="42.75601" lon="1.47548">
        <ele>783.13110351562</ele>
        <time>2011-08-20T13:20:40Z</time>
      </trkpt>
      <trkpt lat="42.7561" lon="1.47544">
        <ele>783.13110351562</ele>
        <time>2011-08-20T13:20:44Z</time>
      </trkpt>
      <trkpt lat="42.75619" lon="1.47536">
        <ele>784.09252929688</ele>
        <time>2011-08-20T13:20:49Z</time>
      </trkpt>
      <trkpt lat="42.75628" lon="1.47527">
        <ele>784.5732421875</ele>
        <time>2011-08-20T13:20:53Z</time>
      </trkpt>
      <trkpt lat="42.7563" lon="1.47524">
        <ele>785.53442382812</ele>
        <time>2011-08-20T13:20:54Z</time>
      </trkpt>
      <trkpt lat="42.75639" lon="1.47519">
        <ele>787.45703125</ele>
        <time>2011-08-20T13:21:00Z</time>
      </trkpt>
      <trkpt lat="42.7564" lon="1.47518">
        <ele>786.97631835938</ele>
        <time>2011-08-20T13:21:01Z</time>
      </trkpt>
      <trkpt lat="42.75651" lon="1.47515">
        <ele>785.05395507812</ele>
        <time>2011-08-20T13:21:07Z</time>
      </trkpt>
      <trkpt lat="42.75653" lon="1.47512">
        <ele>781.68920898438</ele>
        <time>2011-08-20T13:21:12Z</time>
      </trkpt>
      <trkpt lat="42.75658" lon="1.47511">
        <ele>779.76635742188</ele>
        <time>2011-08-20T13:21:16Z</time>
      </trkpt>
      <trkpt lat="42.75664" lon="1.47512">
        <ele>776.40185546875</ele>
        <time>2011-08-20T13:21:21Z</time>
      </trkpt>
      <trkpt lat="42.7567" lon="1.47515">
        <ele>775.92114257812</ele>
        <time>2011-08-20T13:21:25Z</time>
      </trkpt>
      <trkpt lat="42.75676" lon="1.47518">
        <ele>774.9599609375</ele>
        <time>2011-08-20T13:21:30Z</time>
      </trkpt>
      <trkpt lat="42.75688" lon="1.47527">
        <ele>775.4404296875</ele>
        <time>2011-08-20T13:21:37Z</time>
      </trkpt>
      <trkpt lat="42.75694" lon="1.47533">
        <ele>775.92114257812</ele>
        <time>2011-08-20T13:21:42Z</time>
      </trkpt>
      <trkpt lat="42.757" lon="1.47536">
        <ele>776.88256835938</ele>
        <time>2011-08-20T13:21:46Z</time>
      </trkpt>
      <trkpt lat="42.75703" lon="1.47543">
        <ele>777.36328125</ele>
        <time>2011-08-20T13:21:50Z</time>
      </trkpt>
      <trkpt lat="42.75708" lon="1.47556">
        <ele>776.40185546875</ele>
        <time>2011-08-20T13:21:55Z</time>
      </trkpt>
      <trkpt lat="42.7571" lon="1.47559">
        <ele>776.40185546875</ele>
        <time>2011-08-20T13:21:56Z</time>
      </trkpt>
      <trkpt lat="42.75719" lon="1.47571">
        <ele>773.51806640625</ele>
        <time>2011-08-20T13:22:03Z</time>
      </trkpt>
      <trkpt lat="42.75727" lon="1.47577">
        <ele>771.59521484375</ele>
        <time>2011-08-20T13:22:08Z</time>
      </trkpt>
      <trkpt lat="42.75737" lon="1.47581">
        <ele>771.59521484375</ele>
        <time>2011-08-20T13:22:12Z</time>
      </trkpt>
      <trkpt lat="42.75745" lon="1.47588">
        <ele>768.71142578125</ele>
        <time>2011-08-20T13:22:17Z</time>
      </trkpt>
      <trkpt lat="42.7576" lon="1.47594">
        <ele>768.23071289062</ele>
        <time>2011-08-20T13:22:24Z</time>
      </trkpt>
      <trkpt lat="42.75762" lon="1.47593">
        <ele>767.26953125</ele>
        <time>2011-08-20T13:22:25Z</time>
      </trkpt>
      <trkpt lat="42.75771" lon="1.47595">
        <ele>764.8662109375</ele>
        <time>2011-08-20T13:22:29Z</time>
      </trkpt>
      <trkpt lat="42.75782" lon="1.47595">
        <ele>762.46264648438</ele>
        <time>2011-08-20T13:22:35Z</time>
      </trkpt>
      <trkpt lat="42.75789" lon="1.47594">
        <ele>761.02075195312</ele>
        <time>2011-08-20T13:22:38Z</time>
      </trkpt>
      <trkpt lat="42.75798" lon="1.47591">
        <ele>757.65625</ele>
        <time>2011-08-20T13:22:44Z</time>
      </trkpt>
      <trkpt lat="42.75806" lon="1.47594">
        <ele>759.09814453125</ele>
        <time>2011-08-20T13:22:49Z</time>
      </trkpt>
      <trkpt lat="42.75813" lon="1.47595">
        <ele>758.13696289062</ele>
        <time>2011-08-20T13:22:54Z</time>
      </trkpt>
      <trkpt lat="42.75824" lon="1.47604">
        <ele>761.02075195312</ele>
        <time>2011-08-20T13:22:58Z</time>
      </trkpt>
      <trkpt lat="42.75843" lon="1.47612">
        <ele>768.23071289062</ele>
        <time>2011-08-20T13:23:04Z</time>
      </trkpt>
      <trkpt lat="42.75859" lon="1.47619">
        <ele>768.71142578125</ele>
        <time>2011-08-20T13:23:09Z</time>
      </trkpt>
      <trkpt lat="42.75864" lon="1.47623">
        <ele>767.75</ele>
        <time>2011-08-20T13:23:13Z</time>
      </trkpt>
      <trkpt lat="42.75871" lon="1.47629">
        <ele>768.71142578125</ele>
        <time>2011-08-20T13:23:16Z</time>
      </trkpt>
      <trkpt lat="42.75885" lon="1.47635">
        <ele>768.71142578125</ele>
        <time>2011-08-20T13:23:22Z</time>
      </trkpt>
      <trkpt lat="42.75885" lon="1.47636">
        <ele>767.26953125</ele>
        <time>2011-08-20T13:23:23Z</time>
      </trkpt>
      <trkpt lat="42.7589" lon="1.4764">
        <ele>765.82763671875</ele>
        <time>2011-08-20T13:23:26Z</time>
      </trkpt>
      <trkpt lat="42.75898" lon="1.47647">
        <ele>764.38549804688</ele>
        <time>2011-08-20T13:23:31Z</time>
      </trkpt>
      <trkpt lat="42.75907" lon="1.47653">
        <ele>763.90454101562</ele>
        <time>2011-08-20T13:23:34Z</time>
      </trkpt>
      <trkpt lat="42.75915" lon="1.47664">
        <ele>760.05932617188</ele>
        <time>2011-08-20T13:23:39Z</time>
      </trkpt>
      <trkpt lat="42.75922" lon="1.47674">
        <ele>760.05932617188</ele>
        <time>2011-08-20T13:23:43Z</time>
      </trkpt>
      <trkpt lat="42.75925" lon="1.47689">
        <ele>757.65625</ele>
        <time>2011-08-20T13:23:48Z</time>
      </trkpt>
      <trkpt lat="42.75929" lon="1.47702">
        <ele>756.21411132812</ele>
        <time>2011-08-20T13:23:53Z</time>
      </trkpt>
      <trkpt lat="42.75933" lon="1.47707">
        <ele>756.69482421875</ele>
        <time>2011-08-20T13:23:57Z</time>
      </trkpt>
      <trkpt lat="42.75936" lon="1.47709">
        <ele>759.57885742188</ele>
        <time>2011-08-20T13:24:05Z</time>
      </trkpt>
      <trkpt lat="42.75937" lon="1.47712">
        <ele>763.42407226562</ele>
        <time>2011-08-20T13:24:13Z</time>
      </trkpt>
      <trkpt lat="42.75939" lon="1.47713">
        <ele>766.30810546875</ele>
        <time>2011-08-20T13:24:22Z</time>
      </trkpt>
      <trkpt lat="42.75942" lon="1.47714">
        <ele>768.71142578125</ele>
        <time>2011-08-20T13:24:33Z</time>
      </trkpt>
      <trkpt lat="42.75949" lon="1.47717">
        <ele>767.26953125</ele>
        <time>2011-08-20T13:24:37Z</time>
      </trkpt>
      <trkpt lat="42.7596" lon="1.47719">
        <ele>763.42407226562</ele>
        <time>2011-08-20T13:24:41Z</time>
      </trkpt>
      <trkpt lat="42.75974" lon="1.47719">
        <ele>761.02075195312</ele>
        <time>2011-08-20T13:24:46Z</time>
      </trkpt>
      <trkpt lat="42.75986" lon="1.4772">
        <ele>759.57885742188</ele>
        <time>2011-08-20T13:24:51Z</time>
      </trkpt>
      <trkpt lat="42.76" lon="1.47721">
        <ele>757.17553710938</ele>
        <time>2011-08-20T13:24:56Z</time>
      </trkpt>
      <trkpt lat="42.76009" lon="1.47722">
        <ele>755.73364257812</ele>
        <time>2011-08-20T13:25:00Z</time>
      </trkpt>
      <trkpt lat="42.76022" lon="1.47721">
        <ele>753.33032226562</ele>
        <time>2011-08-20T13:25:05Z</time>
      </trkpt>
      <trkpt lat="42.76033" lon="1.47722">
        <ele>750.44653320312</ele>
        <time>2011-08-20T13:25:10Z</time>
      </trkpt>
      <trkpt lat="42.76043" lon="1.47721">
        <ele>748.52368164062</ele>
        <time>2011-08-20T13:25:14Z</time>
      </trkpt>
      <trkpt lat="42.76057" lon="1.47721">
        <ele>748.52368164062</ele>
        <time>2011-08-20T13:25:19Z</time>
      </trkpt>
      <trkpt lat="42.76062" lon="1.47721">
        <ele>748.52368164062</ele>
        <time>2011-08-20T13:25:21Z</time>
      </trkpt>
      <trkpt lat="42.76075" lon="1.47728">
        <ele>749.48510742188</ele>
        <time>2011-08-20T13:25:26Z</time>
      </trkpt>
      <trkpt lat="42.76082" lon="1.47736">
        <ele>751.40771484375</ele>
        <time>2011-08-20T13:25:29Z</time>
      </trkpt>
      <trkpt lat="42.76096" lon="1.47749">
        <ele>752.849609375</ele>
        <time>2011-08-20T13:25:35Z</time>
      </trkpt>
      <trkpt lat="42.76106" lon="1.47757">
        <ele>754.29174804688</ele>
        <time>2011-08-20T13:25:39Z</time>
      </trkpt>
      <trkpt lat="42.76119" lon="1.47764">
        <ele>756.69482421875</ele>
        <time>2011-08-20T13:25:45Z</time>
      </trkpt>
      <trkpt lat="42.76131" lon="1.47766">
        <ele>756.69482421875</ele>
        <time>2011-08-20T13:25:50Z</time>
      </trkpt>
      <trkpt lat="42.76143" lon="1.47766">
        <ele>757.65625</ele>
        <time>2011-08-20T13:25:56Z</time>
      </trkpt>
      <trkpt lat="42.76149" lon="1.47764">
        <ele>757.17553710938</ele>
        <time>2011-08-20T13:26:00Z</time>
      </trkpt>
      <trkpt lat="42.76154" lon="1.47763">
        <ele>756.21411132812</ele>
        <time>2011-08-20T13:26:04Z</time>
      </trkpt>
      <trkpt lat="42.76165" lon="1.47759">
        <ele>754.77221679688</ele>
        <time>2011-08-20T13:26:14Z</time>
      </trkpt>
      <trkpt lat="42.76177" lon="1.47757">
        <ele>755.2529296875</ele>
        <time>2011-08-20T13:26:23Z</time>
      </trkpt>
      <trkpt lat="42.76186" lon="1.47754">
        <ele>757.17553710938</ele>
        <time>2011-08-20T13:26:28Z</time>
      </trkpt>
      <trkpt lat="42.76195" lon="1.47752">
        <ele>757.65625</ele>
        <time>2011-08-20T13:26:32Z</time>
      </trkpt>
      <trkpt lat="42.76207" lon="1.47747">
        <ele>754.77221679688</ele>
        <time>2011-08-20T13:26:37Z</time>
      </trkpt>
      <trkpt lat="42.76215" lon="1.47745">
        <ele>753.33032226562</ele>
        <time>2011-08-20T13:26:41Z</time>
      </trkpt>
      <trkpt lat="42.76223" lon="1.47742">
        <ele>751.40771484375</ele>
        <time>2011-08-20T13:26:45Z</time>
      </trkpt>
      <trkpt lat="42.76232" lon="1.47739">
        <ele>749.9658203125</ele>
        <time>2011-08-20T13:26:50Z</time>
      </trkpt>
      <trkpt lat="42.76246" lon="1.47738">
        <ele>750.92700195312</ele>
        <time>2011-08-20T13:26:56Z</time>
      </trkpt>
      <trkpt lat="42.76261" lon="1.47736">
        <ele>753.33032226562</ele>
        <time>2011-08-20T13:27:01Z</time>
      </trkpt>
      <trkpt lat="42.76275" lon="1.47735">
        <ele>753.81103515625</ele>
        <time>2011-08-20T13:27:06Z</time>
      </trkpt>
      <trkpt lat="42.76294" lon="1.47735">
        <ele>751.88842773438</ele>
        <time>2011-08-20T13:27:13Z</time>
      </trkpt>
      <trkpt lat="42.76308" lon="1.47733">
        <ele>751.40771484375</ele>
        <time>2011-08-20T13:27:18Z</time>
      </trkpt>
      <trkpt lat="42.7632" lon="1.47733">
        <ele>749.9658203125</ele>
        <time>2011-08-20T13:27:23Z</time>
      </trkpt>
      <trkpt lat="42.76324" lon="1.47732">
        <ele>749.48510742188</ele>
        <time>2011-08-20T13:27:25Z</time>
      </trkpt>
      <trkpt lat="42.76339" lon="1.47732">
        <ele>751.40771484375</ele>
        <time>2011-08-20T13:27:30Z</time>
      </trkpt>
      <trkpt lat="42.76354" lon="1.47739">
        <ele>752.36889648438</ele>
        <time>2011-08-20T13:27:36Z</time>
      </trkpt>
      <trkpt lat="42.76362" lon="1.47754">
        <ele>750.92700195312</ele>
        <time>2011-08-20T13:27:41Z</time>
      </trkpt>
      <trkpt lat="42.76369" lon="1.47772">
        <ele>750.92700195312</ele>
        <time>2011-08-20T13:27:47Z</time>
      </trkpt>
      <trkpt lat="42.7637" lon="1.47789">
        <ele>750.44653320312</ele>
        <time>2011-08-20T13:27:52Z</time>
      </trkpt>
      <trkpt lat="42.7637" lon="1.4781">
        <ele>749.9658203125</ele>
        <time>2011-08-20T13:27:58Z</time>
      </trkpt>
      <trkpt lat="42.76372" lon="1.47826">
        <ele>749.00439453125</ele>
        <time>2011-08-20T13:28:03Z</time>
      </trkpt>
      <trkpt lat="42.76372" lon="1.47837">
        <ele>749.48510742188</ele>
        <time>2011-08-20T13:28:07Z</time>
      </trkpt>
      <trkpt lat="42.76373" lon="1.47847">
        <ele>748.52368164062</ele>
        <time>2011-08-20T13:28:13Z</time>
      </trkpt>
      <trkpt lat="42.76373" lon="1.47855">
        <ele>748.52368164062</ele>
        <time>2011-08-20T13:28:17Z</time>
      </trkpt>
      <trkpt lat="42.76376" lon="1.47864">
        <ele>748.04321289062</ele>
        <time>2011-08-20T13:28:22Z</time>
      </trkpt>
      <trkpt lat="42.76377" lon="1.47882">
        <ele>747.56225585938</ele>
        <time>2011-08-20T13:28:32Z</time>
      </trkpt>
      <trkpt lat="42.76377" lon="1.47891">
        <ele>747.56225585938</ele>
        <time>2011-08-20T13:28:37Z</time>
      </trkpt>
      <trkpt lat="42.76378" lon="1.47904">
        <ele>746.60107421875</ele>
        <time>2011-08-20T13:28:45Z</time>
      </trkpt>
      <trkpt lat="42.76377" lon="1.47913">
        <ele>746.60107421875</ele>
        <time>2011-08-20T13:28:50Z</time>
      </trkpt>
      <trkpt lat="42.76379" lon="1.47933">
        <ele>747.08154296875</ele>
        <time>2011-08-20T13:28:56Z</time>
      </trkpt>
      <trkpt lat="42.76383" lon="1.4795">
        <ele>747.56225585938</ele>
        <time>2011-08-20T13:29:01Z</time>
      </trkpt>
      <trkpt lat="42.7639" lon="1.4797">
        <ele>747.08154296875</ele>
        <time>2011-08-20T13:29:07Z</time>
      </trkpt>
      <trkpt lat="42.76397" lon="1.47987">
        <ele>745.6396484375</ele>
        <time>2011-08-20T13:29:12Z</time>
      </trkpt>
      <trkpt lat="42.76398" lon="1.4799">
        <ele>745.6396484375</ele>
        <time>2011-08-20T13:29:13Z</time>
      </trkpt>
      <trkpt lat="42.76408" lon="1.47998">
        <ele>744.67822265625</ele>
        <time>2011-08-20T13:29:18Z</time>
      </trkpt>
      <trkpt lat="42.76419" lon="1.48001">
        <ele>744.67822265625</ele>
        <time>2011-08-20T13:29:23Z</time>
      </trkpt>
      <trkpt lat="42.7643" lon="1.48003">
        <ele>744.19775390625</ele>
        <time>2011-08-20T13:29:29Z</time>
      </trkpt>
      <trkpt lat="42.76433" lon="1.48005">
        <ele>744.67822265625</ele>
        <time>2011-08-20T13:29:31Z</time>
      </trkpt>
      <trkpt lat="42.76441" lon="1.48011">
        <ele>745.6396484375</ele>
        <time>2011-08-20T13:29:35Z</time>
      </trkpt>
      <trkpt lat="42.76456" lon="1.48016">
        <ele>747.08154296875</ele>
        <time>2011-08-20T13:29:41Z</time>
      </trkpt>
      <trkpt lat="42.76466" lon="1.48018">
        <ele>749.00439453125</ele>
        <time>2011-08-20T13:29:46Z</time>
      </trkpt>
      <trkpt lat="42.76471" lon="1.48019">
        <ele>749.9658203125</ele>
        <time>2011-08-20T13:29:48Z</time>
      </trkpt>
      <trkpt lat="42.76484" lon="1.48021">
        <ele>750.92700195312</ele>
        <time>2011-08-20T13:29:53Z</time>
      </trkpt>
      <trkpt lat="42.76493" lon="1.48022">
        <ele>750.44653320312</ele>
        <time>2011-08-20T13:29:56Z</time>
      </trkpt>
      <trkpt lat="42.76505" lon="1.48023">
        <ele>751.88842773438</ele>
        <time>2011-08-20T13:30:01Z</time>
      </trkpt>
      <trkpt lat="42.76516" lon="1.48022">
        <ele>751.40771484375</ele>
        <time>2011-08-20T13:30:05Z</time>
      </trkpt>
      <trkpt lat="42.76521" lon="1.48019">
        <ele>751.40771484375</ele>
        <time>2011-08-20T13:30:07Z</time>
      </trkpt>
      <trkpt lat="42.76533" lon="1.48014">
        <ele>751.88842773438</ele>
        <time>2011-08-20T13:30:12Z</time>
      </trkpt>
      <trkpt lat="42.76545" lon="1.48014">
        <ele>753.33032226562</ele>
        <time>2011-08-20T13:30:17Z</time>
      </trkpt>
      <trkpt lat="42.76559" lon="1.48018">
        <ele>752.849609375</ele>
        <time>2011-08-20T13:30:22Z</time>
      </trkpt>
      <trkpt lat="42.7657" lon="1.48017">
        <ele>752.36889648438</ele>
        <time>2011-08-20T13:30:26Z</time>
      </trkpt>
      <trkpt lat="42.76583" lon="1.48016">
        <ele>749.00439453125</ele>
        <time>2011-08-20T13:30:31Z</time>
      </trkpt>
      <trkpt lat="42.76589" lon="1.48017">
        <ele>749.48510742188</ele>
        <time>2011-08-20T13:30:34Z</time>
      </trkpt>
      <trkpt lat="42.76601" lon="1.48017">
        <ele>748.52368164062</ele>
        <time>2011-08-20T13:30:39Z</time>
      </trkpt>
      <trkpt lat="42.76612" lon="1.48018">
        <ele>748.52368164062</ele>
        <time>2011-08-20T13:30:44Z</time>
      </trkpt>
      <trkpt lat="42.76619" lon="1.48017">
        <ele>748.04321289062</ele>
        <time>2011-08-20T13:30:47Z</time>
      </trkpt>
      <trkpt lat="42.7663" lon="1.48007">
        <ele>747.08154296875</ele>
        <time>2011-08-20T13:30:52Z</time>
      </trkpt>
      <trkpt lat="42.76632" lon="1.48005">
        <ele>747.56225585938</ele>
        <time>2011-08-20T13:30:53Z</time>
      </trkpt>
      <trkpt lat="42.76637" lon="1.47993">
        <ele>750.44653320312</ele>
        <time>2011-08-20T13:30:57Z</time>
      </trkpt>
      <trkpt lat="42.76645" lon="1.4797">
        <ele>743.236328125</ele>
        <time>2011-08-20T13:31:04Z</time>
      </trkpt>
      <trkpt lat="42.76654" lon="1.47956">
        <ele>741.79443359375</ele>
        <time>2011-08-20T13:31:09Z</time>
      </trkpt>
      <trkpt lat="42.76656" lon="1.47947">
        <ele>741.79443359375</ele>
        <time>2011-08-20T13:31:13Z</time>
      </trkpt>
      <trkpt lat="42.76654" lon="1.47934">
        <ele>744.19775390625</ele>
        <time>2011-08-20T13:31:19Z</time>
      </trkpt>
      <trkpt lat="42.76656" lon="1.47928">
        <ele>746.60107421875</ele>
        <time>2011-08-20T13:31:22Z</time>
      </trkpt>
      <trkpt lat="42.76669" lon="1.4792">
        <ele>754.77221679688</ele>
        <time>2011-08-20T13:31:27Z</time>
      </trkpt>
      <trkpt lat="42.7668" lon="1.47916">
        <ele>755.73364257812</ele>
        <time>2011-08-20T13:31:32Z</time>
      </trkpt>
    </trkseg>
  </trk>
</gpx>